<?xml version="1.0" encoding="UTF-8" standalone="no" ?>
<gpx xmlns="http://www.topografix.com/GPX/1/1" xmlns:xsi="http://www.w3.org/2001/XMLSchema-instance" xsi:schemaLocation="http://www.topografix.com/GPX/1/1 http://www.topografix.com/GPX/1/1/gpx.xsd" version="1.1" creator="VisuGPX - https://www.visugpx.com">
  <metadata>
    <name>2018-10-31 Bike ride-Amberieux en Dombes O via Savigneux v44k</name>
    <desc><![CDATA[2018-10-31 Bike ride-Amberieux en Dombes O via Savigneux v44k]]></desc>
  </metadata>
  <wpt lat="45.92455" lon="4.73725">
    <ele>174</ele>
    <name><![CDATA[2018-10-31 10:38 (Start)]]></name>
  </wpt>
  <wpt lat="45.92457" lon="4.7371">
    <ele>174</ele>
    <name><![CDATA[2018-10-31 10:38 (End)]]></name>
  </wpt>
  <trk>
    <name><![CDATA[2018-10-31 10:38]]></name>
    <trkseg>
      <trkpt lat="45.92455" lon="4.73725">
        <ele>174</ele>
        <time>2018-10-31T09:38:06.263Z</time>
      </trkpt>
      <trkpt lat="45.9245" lon="4.73725">
        <ele>174</ele>
        <time>2018-10-31T09:38:16.239Z</time>
      </trkpt>
      <trkpt lat="45.9245" lon="4.73725">
        <ele>174</ele>
        <time>2018-10-31T09:38:17.238Z</time>
      </trkpt>
      <trkpt lat="45.92449" lon="4.73724">
        <ele>174</ele>
        <time>2018-10-31T09:38:18.238Z</time>
      </trkpt>
      <trkpt lat="45.92457" lon="4.73723">
        <ele>174</ele>
        <time>2018-10-31T09:38:22Z</time>
      </trkpt>
      <trkpt lat="45.9246" lon="4.73722">
        <ele>174</ele>
        <time>2018-10-31T09:38:23Z</time>
      </trkpt>
      <trkpt lat="45.92461" lon="4.7372">
        <ele>174</ele>
        <time>2018-10-31T09:38:25Z</time>
      </trkpt>
      <trkpt lat="45.92461" lon="4.7372">
        <ele>174</ele>
        <time>2018-10-31T09:38:26Z</time>
      </trkpt>
      <trkpt lat="45.92456" lon="4.7372">
        <ele>174</ele>
        <time>2018-10-31T09:38:42Z</time>
      </trkpt>
      <trkpt lat="45.92456" lon="4.7372">
        <ele>174</ele>
        <time>2018-10-31T09:38:43Z</time>
      </trkpt>
      <trkpt lat="45.92461" lon="4.7371">
        <ele>174</ele>
        <time>2018-10-31T09:38:56Z</time>
      </trkpt>
      <trkpt lat="45.92461" lon="4.73707">
        <ele>174</ele>
        <time>2018-10-31T09:38:57Z</time>
      </trkpt>
      <trkpt lat="45.92462" lon="4.73696">
        <ele>174</ele>
        <time>2018-10-31T09:39:00Z</time>
      </trkpt>
      <trkpt lat="45.92462" lon="4.73692">
        <ele>174</ele>
        <time>2018-10-31T09:39:01Z</time>
      </trkpt>
      <trkpt lat="45.92464" lon="4.73683">
        <ele>174</ele>
        <time>2018-10-31T09:39:03Z</time>
      </trkpt>
      <trkpt lat="45.92464" lon="4.73678">
        <ele>174</ele>
        <time>2018-10-31T09:39:04Z</time>
      </trkpt>
      <trkpt lat="45.92465" lon="4.73669">
        <ele>174</ele>
        <time>2018-10-31T09:39:06Z</time>
      </trkpt>
      <trkpt lat="45.92466" lon="4.73659">
        <ele>174</ele>
        <time>2018-10-31T09:39:07Z</time>
      </trkpt>
      <trkpt lat="45.92467" lon="4.73648">
        <ele>174</ele>
        <time>2018-10-31T09:39:09Z</time>
      </trkpt>
      <trkpt lat="45.92467" lon="4.73642">
        <ele>174</ele>
        <time>2018-10-31T09:39:10Z</time>
      </trkpt>
      <trkpt lat="45.92467" lon="4.73635">
        <ele>174</ele>
        <time>2018-10-31T09:39:11Z</time>
      </trkpt>
      <trkpt lat="45.92467" lon="4.73628">
        <ele>174</ele>
        <time>2018-10-31T09:39:12Z</time>
      </trkpt>
      <trkpt lat="45.92465" lon="4.73615">
        <ele>174</ele>
        <time>2018-10-31T09:39:14Z</time>
      </trkpt>
      <trkpt lat="45.92465" lon="4.73608">
        <ele>174</ele>
        <time>2018-10-31T09:39:15Z</time>
      </trkpt>
      <trkpt lat="45.92465" lon="4.73601">
        <ele>174</ele>
        <time>2018-10-31T09:39:16Z</time>
      </trkpt>
      <trkpt lat="45.92465" lon="4.73593">
        <ele>174</ele>
        <time>2018-10-31T09:39:17Z</time>
      </trkpt>
      <trkpt lat="45.92464" lon="4.73585">
        <ele>174</ele>
        <time>2018-10-31T09:39:18Z</time>
      </trkpt>
      <trkpt lat="45.92464" lon="4.73577">
        <ele>173</ele>
        <time>2018-10-31T09:39:19Z</time>
      </trkpt>
      <trkpt lat="45.92463" lon="4.73571">
        <ele>173</ele>
        <time>2018-10-31T09:39:20Z</time>
      </trkpt>
      <trkpt lat="45.92463" lon="4.73564">
        <ele>173</ele>
        <time>2018-10-31T09:39:21Z</time>
      </trkpt>
      <trkpt lat="45.92462" lon="4.73551">
        <ele>173</ele>
        <time>2018-10-31T09:39:23Z</time>
      </trkpt>
      <trkpt lat="45.92462" lon="4.73546">
        <ele>173</ele>
        <time>2018-10-31T09:39:24Z</time>
      </trkpt>
      <trkpt lat="45.92463" lon="4.7354">
        <ele>174</ele>
        <time>2018-10-31T09:39:25Z</time>
      </trkpt>
      <trkpt lat="45.92465" lon="4.7353">
        <ele>174</ele>
        <time>2018-10-31T09:39:26Z</time>
      </trkpt>
      <trkpt lat="45.92465" lon="4.73517">
        <ele>174</ele>
        <time>2018-10-31T09:39:28Z</time>
      </trkpt>
      <trkpt lat="45.92465" lon="4.73509">
        <ele>174</ele>
        <time>2018-10-31T09:39:29Z</time>
      </trkpt>
      <trkpt lat="45.92464" lon="4.73502">
        <ele>174</ele>
        <time>2018-10-31T09:39:30Z</time>
      </trkpt>
      <trkpt lat="45.92464" lon="4.73494">
        <ele>173</ele>
        <time>2018-10-31T09:39:31Z</time>
      </trkpt>
      <trkpt lat="45.92464" lon="4.73486">
        <ele>173</ele>
        <time>2018-10-31T09:39:32Z</time>
      </trkpt>
      <trkpt lat="45.92464" lon="4.73478">
        <ele>173</ele>
        <time>2018-10-31T09:39:33Z</time>
      </trkpt>
      <trkpt lat="45.92463" lon="4.7347">
        <ele>173</ele>
        <time>2018-10-31T09:39:34Z</time>
      </trkpt>
      <trkpt lat="45.92462" lon="4.73463">
        <ele>173</ele>
        <time>2018-10-31T09:39:35Z</time>
      </trkpt>
      <trkpt lat="45.92461" lon="4.73456">
        <ele>173</ele>
        <time>2018-10-31T09:39:36Z</time>
      </trkpt>
      <trkpt lat="45.92459" lon="4.73449">
        <ele>173</ele>
        <time>2018-10-31T09:39:37Z</time>
      </trkpt>
      <trkpt lat="45.92457" lon="4.73442">
        <ele>173</ele>
        <time>2018-10-31T09:39:38Z</time>
      </trkpt>
      <trkpt lat="45.92455" lon="4.73436">
        <ele>173</ele>
        <time>2018-10-31T09:39:39Z</time>
      </trkpt>
      <trkpt lat="45.92451" lon="4.73431">
        <ele>173</ele>
        <time>2018-10-31T09:39:40Z</time>
      </trkpt>
      <trkpt lat="45.92447" lon="4.73427">
        <ele>173</ele>
        <time>2018-10-31T09:39:41Z</time>
      </trkpt>
      <trkpt lat="45.9244" lon="4.73421">
        <ele>173</ele>
        <time>2018-10-31T09:39:43Z</time>
      </trkpt>
      <trkpt lat="45.92436" lon="4.73418">
        <ele>173</ele>
        <time>2018-10-31T09:39:44Z</time>
      </trkpt>
      <trkpt lat="45.92431" lon="4.73414">
        <ele>172</ele>
        <time>2018-10-31T09:39:45Z</time>
      </trkpt>
      <trkpt lat="45.92426" lon="4.73409">
        <ele>172</ele>
        <time>2018-10-31T09:39:46Z</time>
      </trkpt>
      <trkpt lat="45.92423" lon="4.73405">
        <ele>172</ele>
        <time>2018-10-31T09:39:47Z</time>
      </trkpt>
      <trkpt lat="45.9242" lon="4.73399">
        <ele>172</ele>
        <time>2018-10-31T09:39:48Z</time>
      </trkpt>
      <trkpt lat="45.92418" lon="4.73391">
        <ele>172</ele>
        <time>2018-10-31T09:39:49Z</time>
      </trkpt>
      <trkpt lat="45.92417" lon="4.73384">
        <ele>171</ele>
        <time>2018-10-31T09:39:50Z</time>
      </trkpt>
      <trkpt lat="45.92416" lon="4.73376">
        <ele>171</ele>
        <time>2018-10-31T09:39:51Z</time>
      </trkpt>
      <trkpt lat="45.92414" lon="4.73369">
        <ele>171</ele>
        <time>2018-10-31T09:39:52Z</time>
      </trkpt>
      <trkpt lat="45.92413" lon="4.73361">
        <ele>171</ele>
        <time>2018-10-31T09:39:53Z</time>
      </trkpt>
      <trkpt lat="45.92412" lon="4.73354">
        <ele>171</ele>
        <time>2018-10-31T09:39:54Z</time>
      </trkpt>
      <trkpt lat="45.9241" lon="4.73344">
        <ele>171</ele>
        <time>2018-10-31T09:39:55Z</time>
      </trkpt>
      <trkpt lat="45.9241" lon="4.73336">
        <ele>171</ele>
        <time>2018-10-31T09:39:56Z</time>
      </trkpt>
      <trkpt lat="45.92409" lon="4.73328">
        <ele>171</ele>
        <time>2018-10-31T09:39:57Z</time>
      </trkpt>
      <trkpt lat="45.92408" lon="4.73321">
        <ele>171</ele>
        <time>2018-10-31T09:39:58Z</time>
      </trkpt>
      <trkpt lat="45.92407" lon="4.73313">
        <ele>171</ele>
        <time>2018-10-31T09:39:59Z</time>
      </trkpt>
      <trkpt lat="45.92407" lon="4.73306">
        <ele>171</ele>
        <time>2018-10-31T09:40:00Z</time>
      </trkpt>
      <trkpt lat="45.92407" lon="4.73298">
        <ele>171</ele>
        <time>2018-10-31T09:40:01Z</time>
      </trkpt>
      <trkpt lat="45.92407" lon="4.7329">
        <ele>171</ele>
        <time>2018-10-31T09:40:02Z</time>
      </trkpt>
      <trkpt lat="45.92407" lon="4.73283">
        <ele>171</ele>
        <time>2018-10-31T09:40:03Z</time>
      </trkpt>
      <trkpt lat="45.92407" lon="4.73275">
        <ele>171</ele>
        <time>2018-10-31T09:40:04Z</time>
      </trkpt>
      <trkpt lat="45.92406" lon="4.73267">
        <ele>171</ele>
        <time>2018-10-31T09:40:05Z</time>
      </trkpt>
      <trkpt lat="45.92406" lon="4.73259">
        <ele>171</ele>
        <time>2018-10-31T09:40:06Z</time>
      </trkpt>
      <trkpt lat="45.92405" lon="4.73251">
        <ele>171</ele>
        <time>2018-10-31T09:40:07Z</time>
      </trkpt>
      <trkpt lat="45.92405" lon="4.73243">
        <ele>171</ele>
        <time>2018-10-31T09:40:08Z</time>
      </trkpt>
      <trkpt lat="45.92404" lon="4.73235">
        <ele>171</ele>
        <time>2018-10-31T09:40:09Z</time>
      </trkpt>
      <trkpt lat="45.92404" lon="4.73227">
        <ele>171</ele>
        <time>2018-10-31T09:40:10Z</time>
      </trkpt>
      <trkpt lat="45.92404" lon="4.73219">
        <ele>171</ele>
        <time>2018-10-31T09:40:11Z</time>
      </trkpt>
      <trkpt lat="45.92403" lon="4.73211">
        <ele>171</ele>
        <time>2018-10-31T09:40:12Z</time>
      </trkpt>
      <trkpt lat="45.92403" lon="4.73202">
        <ele>171</ele>
        <time>2018-10-31T09:40:13Z</time>
      </trkpt>
      <trkpt lat="45.92403" lon="4.73194">
        <ele>171</ele>
        <time>2018-10-31T09:40:14Z</time>
      </trkpt>
      <trkpt lat="45.92402" lon="4.73186">
        <ele>171</ele>
        <time>2018-10-31T09:40:15Z</time>
      </trkpt>
      <trkpt lat="45.92403" lon="4.73179">
        <ele>171</ele>
        <time>2018-10-31T09:40:16Z</time>
      </trkpt>
      <trkpt lat="45.92403" lon="4.73172">
        <ele>171</ele>
        <time>2018-10-31T09:40:17Z</time>
      </trkpt>
      <trkpt lat="45.92403" lon="4.73165">
        <ele>170</ele>
        <time>2018-10-31T09:40:18Z</time>
      </trkpt>
      <trkpt lat="45.92403" lon="4.73158">
        <ele>171</ele>
        <time>2018-10-31T09:40:19Z</time>
      </trkpt>
      <trkpt lat="45.92402" lon="4.73151">
        <ele>171</ele>
        <time>2018-10-31T09:40:20Z</time>
      </trkpt>
      <trkpt lat="45.92403" lon="4.73139">
        <ele>171</ele>
        <time>2018-10-31T09:40:22Z</time>
      </trkpt>
      <trkpt lat="45.92404" lon="4.73132">
        <ele>171</ele>
        <time>2018-10-31T09:40:23Z</time>
      </trkpt>
      <trkpt lat="45.92405" lon="4.73126">
        <ele>171</ele>
        <time>2018-10-31T09:40:24Z</time>
      </trkpt>
      <trkpt lat="45.92407" lon="4.7312">
        <ele>171</ele>
        <time>2018-10-31T09:40:25Z</time>
      </trkpt>
      <trkpt lat="45.9241" lon="4.73115">
        <ele>171</ele>
        <time>2018-10-31T09:40:26Z</time>
      </trkpt>
      <trkpt lat="45.92414" lon="4.73112">
        <ele>171</ele>
        <time>2018-10-31T09:40:27Z</time>
      </trkpt>
      <trkpt lat="45.92418" lon="4.73108">
        <ele>171</ele>
        <time>2018-10-31T09:40:28Z</time>
      </trkpt>
      <trkpt lat="45.92423" lon="4.73105">
        <ele>171</ele>
        <time>2018-10-31T09:40:29Z</time>
      </trkpt>
      <trkpt lat="45.92428" lon="4.73101">
        <ele>171</ele>
        <time>2018-10-31T09:40:30Z</time>
      </trkpt>
      <trkpt lat="45.92433" lon="4.73097">
        <ele>171</ele>
        <time>2018-10-31T09:40:31Z</time>
      </trkpt>
      <trkpt lat="45.92437" lon="4.73093">
        <ele>171</ele>
        <time>2018-10-31T09:40:32Z</time>
      </trkpt>
      <trkpt lat="45.92442" lon="4.7309">
        <ele>170</ele>
        <time>2018-10-31T09:40:33Z</time>
      </trkpt>
      <trkpt lat="45.92447" lon="4.73086">
        <ele>170</ele>
        <time>2018-10-31T09:40:34Z</time>
      </trkpt>
      <trkpt lat="45.92452" lon="4.73081">
        <ele>170</ele>
        <time>2018-10-31T09:40:35Z</time>
      </trkpt>
      <trkpt lat="45.92458" lon="4.73077">
        <ele>170</ele>
        <time>2018-10-31T09:40:36Z</time>
      </trkpt>
      <trkpt lat="45.92463" lon="4.73073">
        <ele>170</ele>
        <time>2018-10-31T09:40:37Z</time>
      </trkpt>
      <trkpt lat="45.92468" lon="4.73068">
        <ele>170</ele>
        <time>2018-10-31T09:40:38Z</time>
      </trkpt>
      <trkpt lat="45.92473" lon="4.73064">
        <ele>170</ele>
        <time>2018-10-31T09:40:39Z</time>
      </trkpt>
      <trkpt lat="45.92478" lon="4.7306">
        <ele>170</ele>
        <time>2018-10-31T09:40:40Z</time>
      </trkpt>
      <trkpt lat="45.92483" lon="4.73056">
        <ele>170</ele>
        <time>2018-10-31T09:40:41Z</time>
      </trkpt>
      <trkpt lat="45.92488" lon="4.73051">
        <ele>170</ele>
        <time>2018-10-31T09:40:42Z</time>
      </trkpt>
      <trkpt lat="45.92493" lon="4.73045">
        <ele>170</ele>
        <time>2018-10-31T09:40:43Z</time>
      </trkpt>
      <trkpt lat="45.92498" lon="4.73041">
        <ele>170</ele>
        <time>2018-10-31T09:40:44Z</time>
      </trkpt>
      <trkpt lat="45.92503" lon="4.73036">
        <ele>169</ele>
        <time>2018-10-31T09:40:45Z</time>
      </trkpt>
      <trkpt lat="45.92508" lon="4.73033">
        <ele>169</ele>
        <time>2018-10-31T09:40:46Z</time>
      </trkpt>
      <trkpt lat="45.92514" lon="4.73028">
        <ele>169</ele>
        <time>2018-10-31T09:40:47Z</time>
      </trkpt>
      <trkpt lat="45.92519" lon="4.73024">
        <ele>169</ele>
        <time>2018-10-31T09:40:48Z</time>
      </trkpt>
      <trkpt lat="45.92524" lon="4.7302">
        <ele>169</ele>
        <time>2018-10-31T09:40:49Z</time>
      </trkpt>
      <trkpt lat="45.92529" lon="4.73015">
        <ele>169</ele>
        <time>2018-10-31T09:40:50Z</time>
      </trkpt>
      <trkpt lat="45.92534" lon="4.73012">
        <ele>169</ele>
        <time>2018-10-31T09:40:51Z</time>
      </trkpt>
      <trkpt lat="45.92539" lon="4.73007">
        <ele>169</ele>
        <time>2018-10-31T09:40:52Z</time>
      </trkpt>
      <trkpt lat="45.92543" lon="4.73002">
        <ele>169</ele>
        <time>2018-10-31T09:40:53Z</time>
      </trkpt>
      <trkpt lat="45.92548" lon="4.72997">
        <ele>169</ele>
        <time>2018-10-31T09:40:54Z</time>
      </trkpt>
      <trkpt lat="45.92553" lon="4.72994">
        <ele>169</ele>
        <time>2018-10-31T09:40:55Z</time>
      </trkpt>
      <trkpt lat="45.92557" lon="4.72989">
        <ele>169</ele>
        <time>2018-10-31T09:40:56Z</time>
      </trkpt>
      <trkpt lat="45.92562" lon="4.72985">
        <ele>169</ele>
        <time>2018-10-31T09:40:57Z</time>
      </trkpt>
      <trkpt lat="45.92567" lon="4.7298">
        <ele>169</ele>
        <time>2018-10-31T09:40:58Z</time>
      </trkpt>
      <trkpt lat="45.92572" lon="4.72975">
        <ele>169</ele>
        <time>2018-10-31T09:40:59Z</time>
      </trkpt>
      <trkpt lat="45.92577" lon="4.7297">
        <ele>169</ele>
        <time>2018-10-31T09:41:00Z</time>
      </trkpt>
      <trkpt lat="45.92581" lon="4.72965">
        <ele>169</ele>
        <time>2018-10-31T09:41:01Z</time>
      </trkpt>
      <trkpt lat="45.92586" lon="4.72959">
        <ele>169</ele>
        <time>2018-10-31T09:41:02Z</time>
      </trkpt>
      <trkpt lat="45.92591" lon="4.72954">
        <ele>169</ele>
        <time>2018-10-31T09:41:03Z</time>
      </trkpt>
      <trkpt lat="45.92597" lon="4.72948">
        <ele>169</ele>
        <time>2018-10-31T09:41:04Z</time>
      </trkpt>
      <trkpt lat="45.92602" lon="4.72942">
        <ele>169</ele>
        <time>2018-10-31T09:41:05Z</time>
      </trkpt>
      <trkpt lat="45.92606" lon="4.72937">
        <ele>169</ele>
        <time>2018-10-31T09:41:06Z</time>
      </trkpt>
      <trkpt lat="45.92611" lon="4.72932">
        <ele>169</ele>
        <time>2018-10-31T09:41:07Z</time>
      </trkpt>
      <trkpt lat="45.92615" lon="4.72927">
        <ele>169</ele>
        <time>2018-10-31T09:41:08Z</time>
      </trkpt>
      <trkpt lat="45.9262" lon="4.72923">
        <ele>169</ele>
        <time>2018-10-31T09:41:09Z</time>
      </trkpt>
      <trkpt lat="45.92623" lon="4.72921">
        <ele>169</ele>
        <time>2018-10-31T09:41:10Z</time>
      </trkpt>
      <trkpt lat="45.92628" lon="4.72918">
        <ele>170</ele>
        <time>2018-10-31T09:41:11Z</time>
      </trkpt>
      <trkpt lat="45.92632" lon="4.72914">
        <ele>169</ele>
        <time>2018-10-31T09:41:12Z</time>
      </trkpt>
      <trkpt lat="45.92637" lon="4.7291">
        <ele>169</ele>
        <time>2018-10-31T09:41:13Z</time>
      </trkpt>
      <trkpt lat="45.92642" lon="4.72906">
        <ele>169</ele>
        <time>2018-10-31T09:41:14Z</time>
      </trkpt>
      <trkpt lat="45.92646" lon="4.72902">
        <ele>169</ele>
        <time>2018-10-31T09:41:15Z</time>
      </trkpt>
      <trkpt lat="45.92651" lon="4.72898">
        <ele>170</ele>
        <time>2018-10-31T09:41:16Z</time>
      </trkpt>
      <trkpt lat="45.92656" lon="4.72895">
        <ele>170</ele>
        <time>2018-10-31T09:41:17Z</time>
      </trkpt>
      <trkpt lat="45.92662" lon="4.7289">
        <ele>169</ele>
        <time>2018-10-31T09:41:18Z</time>
      </trkpt>
      <trkpt lat="45.92667" lon="4.72886">
        <ele>169</ele>
        <time>2018-10-31T09:41:19Z</time>
      </trkpt>
      <trkpt lat="45.92672" lon="4.72883">
        <ele>170</ele>
        <time>2018-10-31T09:41:20Z</time>
      </trkpt>
      <trkpt lat="45.92676" lon="4.72879">
        <ele>170</ele>
        <time>2018-10-31T09:41:21Z</time>
      </trkpt>
      <trkpt lat="45.92681" lon="4.72875">
        <ele>169</ele>
        <time>2018-10-31T09:41:22Z</time>
      </trkpt>
      <trkpt lat="45.92686" lon="4.72871">
        <ele>169</ele>
        <time>2018-10-31T09:41:23Z</time>
      </trkpt>
      <trkpt lat="45.92692" lon="4.72867">
        <ele>169</ele>
        <time>2018-10-31T09:41:24Z</time>
      </trkpt>
      <trkpt lat="45.92697" lon="4.72862">
        <ele>169</ele>
        <time>2018-10-31T09:41:25Z</time>
      </trkpt>
      <trkpt lat="45.92703" lon="4.72858">
        <ele>169</ele>
        <time>2018-10-31T09:41:26Z</time>
      </trkpt>
      <trkpt lat="45.92709" lon="4.72853">
        <ele>169</ele>
        <time>2018-10-31T09:41:27Z</time>
      </trkpt>
      <trkpt lat="45.92714" lon="4.72849">
        <ele>169</ele>
        <time>2018-10-31T09:41:28Z</time>
      </trkpt>
      <trkpt lat="45.9272" lon="4.72845">
        <ele>169</ele>
        <time>2018-10-31T09:41:29Z</time>
      </trkpt>
      <trkpt lat="45.92725" lon="4.72841">
        <ele>169</ele>
        <time>2018-10-31T09:41:30Z</time>
      </trkpt>
      <trkpt lat="45.9273" lon="4.72836">
        <ele>169</ele>
        <time>2018-10-31T09:41:31Z</time>
      </trkpt>
      <trkpt lat="45.92735" lon="4.72833">
        <ele>169</ele>
        <time>2018-10-31T09:41:32Z</time>
      </trkpt>
      <trkpt lat="45.9274" lon="4.7283">
        <ele>169</ele>
        <time>2018-10-31T09:41:33Z</time>
      </trkpt>
      <trkpt lat="45.92744" lon="4.72826">
        <ele>169</ele>
        <time>2018-10-31T09:41:34Z</time>
      </trkpt>
      <trkpt lat="45.92749" lon="4.72823">
        <ele>169</ele>
        <time>2018-10-31T09:41:35Z</time>
      </trkpt>
      <trkpt lat="45.92753" lon="4.72819">
        <ele>170</ele>
        <time>2018-10-31T09:41:36Z</time>
      </trkpt>
      <trkpt lat="45.92757" lon="4.72815">
        <ele>170</ele>
        <time>2018-10-31T09:41:37Z</time>
      </trkpt>
      <trkpt lat="45.92762" lon="4.7281">
        <ele>170</ele>
        <time>2018-10-31T09:41:38Z</time>
      </trkpt>
      <trkpt lat="45.92767" lon="4.72807">
        <ele>170</ele>
        <time>2018-10-31T09:41:39Z</time>
      </trkpt>
      <trkpt lat="45.92774" lon="4.72801">
        <ele>170</ele>
        <time>2018-10-31T09:41:41Z</time>
      </trkpt>
      <trkpt lat="45.92778" lon="4.72798">
        <ele>170</ele>
        <time>2018-10-31T09:41:42Z</time>
      </trkpt>
      <trkpt lat="45.92782" lon="4.72794">
        <ele>170</ele>
        <time>2018-10-31T09:41:43Z</time>
      </trkpt>
      <trkpt lat="45.92787" lon="4.72793">
        <ele>170</ele>
        <time>2018-10-31T09:41:44Z</time>
      </trkpt>
      <trkpt lat="45.92795" lon="4.72794">
        <ele>171</ele>
        <time>2018-10-31T09:41:46Z</time>
      </trkpt>
      <trkpt lat="45.92798" lon="4.72797">
        <ele>171</ele>
        <time>2018-10-31T09:41:47Z</time>
      </trkpt>
      <trkpt lat="45.92799" lon="4.72803">
        <ele>170</ele>
        <time>2018-10-31T09:41:48Z</time>
      </trkpt>
      <trkpt lat="45.92801" lon="4.72809">
        <ele>170</ele>
        <time>2018-10-31T09:41:49Z</time>
      </trkpt>
      <trkpt lat="45.92804" lon="4.72821">
        <ele>171</ele>
        <time>2018-10-31T09:41:51Z</time>
      </trkpt>
      <trkpt lat="45.92805" lon="4.72826">
        <ele>171</ele>
        <time>2018-10-31T09:41:52Z</time>
      </trkpt>
      <trkpt lat="45.92806" lon="4.72833">
        <ele>171</ele>
        <time>2018-10-31T09:41:53Z</time>
      </trkpt>
      <trkpt lat="45.92807" lon="4.7284">
        <ele>170</ele>
        <time>2018-10-31T09:41:54Z</time>
      </trkpt>
      <trkpt lat="45.92809" lon="4.72847">
        <ele>170</ele>
        <time>2018-10-31T09:41:55Z</time>
      </trkpt>
      <trkpt lat="45.92809" lon="4.72854">
        <ele>170</ele>
        <time>2018-10-31T09:41:56Z</time>
      </trkpt>
      <trkpt lat="45.92811" lon="4.72861">
        <ele>170</ele>
        <time>2018-10-31T09:41:57Z</time>
      </trkpt>
      <trkpt lat="45.92813" lon="4.72869">
        <ele>170</ele>
        <time>2018-10-31T09:41:58Z</time>
      </trkpt>
      <trkpt lat="45.92815" lon="4.72876">
        <ele>170</ele>
        <time>2018-10-31T09:41:59Z</time>
      </trkpt>
      <trkpt lat="45.92817" lon="4.72884">
        <ele>170</ele>
        <time>2018-10-31T09:42:00Z</time>
      </trkpt>
      <trkpt lat="45.92818" lon="4.72892">
        <ele>170</ele>
        <time>2018-10-31T09:42:01Z</time>
      </trkpt>
      <trkpt lat="45.9282" lon="4.72899">
        <ele>170</ele>
        <time>2018-10-31T09:42:02Z</time>
      </trkpt>
      <trkpt lat="45.92821" lon="4.72907">
        <ele>170</ele>
        <time>2018-10-31T09:42:03Z</time>
      </trkpt>
      <trkpt lat="45.92821" lon="4.72915">
        <ele>170</ele>
        <time>2018-10-31T09:42:04Z</time>
      </trkpt>
      <trkpt lat="45.92822" lon="4.72923">
        <ele>170</ele>
        <time>2018-10-31T09:42:05Z</time>
      </trkpt>
      <trkpt lat="45.92823" lon="4.72932">
        <ele>170</ele>
        <time>2018-10-31T09:42:06Z</time>
      </trkpt>
      <trkpt lat="45.92824" lon="4.7294">
        <ele>170</ele>
        <time>2018-10-31T09:42:07Z</time>
      </trkpt>
      <trkpt lat="45.92826" lon="4.72948">
        <ele>170</ele>
        <time>2018-10-31T09:42:08Z</time>
      </trkpt>
      <trkpt lat="45.92826" lon="4.72957">
        <ele>170</ele>
        <time>2018-10-31T09:42:09Z</time>
      </trkpt>
      <trkpt lat="45.92827" lon="4.72965">
        <ele>170</ele>
        <time>2018-10-31T09:42:10Z</time>
      </trkpt>
      <trkpt lat="45.92827" lon="4.72974">
        <ele>170</ele>
        <time>2018-10-31T09:42:11Z</time>
      </trkpt>
      <trkpt lat="45.92828" lon="4.72983">
        <ele>170</ele>
        <time>2018-10-31T09:42:12Z</time>
      </trkpt>
      <trkpt lat="45.92829" lon="4.72991">
        <ele>170</ele>
        <time>2018-10-31T09:42:13Z</time>
      </trkpt>
      <trkpt lat="45.9283" lon="4.73">
        <ele>170</ele>
        <time>2018-10-31T09:42:14Z</time>
      </trkpt>
      <trkpt lat="45.92831" lon="4.73009">
        <ele>170</ele>
        <time>2018-10-31T09:42:15Z</time>
      </trkpt>
      <trkpt lat="45.92832" lon="4.73017">
        <ele>170</ele>
        <time>2018-10-31T09:42:16Z</time>
      </trkpt>
      <trkpt lat="45.92833" lon="4.73025">
        <ele>171</ele>
        <time>2018-10-31T09:42:17Z</time>
      </trkpt>
      <trkpt lat="45.92834" lon="4.73033">
        <ele>171</ele>
        <time>2018-10-31T09:42:18Z</time>
      </trkpt>
      <trkpt lat="45.92835" lon="4.73041">
        <ele>171</ele>
        <time>2018-10-31T09:42:19Z</time>
      </trkpt>
      <trkpt lat="45.92836" lon="4.73049">
        <ele>171</ele>
        <time>2018-10-31T09:42:20Z</time>
      </trkpt>
      <trkpt lat="45.92837" lon="4.73056">
        <ele>171</ele>
        <time>2018-10-31T09:42:21Z</time>
      </trkpt>
      <trkpt lat="45.92839" lon="4.73064">
        <ele>171</ele>
        <time>2018-10-31T09:42:22Z</time>
      </trkpt>
      <trkpt lat="45.9284" lon="4.73071">
        <ele>171</ele>
        <time>2018-10-31T09:42:23Z</time>
      </trkpt>
      <trkpt lat="45.92841" lon="4.73078">
        <ele>171</ele>
        <time>2018-10-31T09:42:24Z</time>
      </trkpt>
      <trkpt lat="45.92841" lon="4.73085">
        <ele>171</ele>
        <time>2018-10-31T09:42:25Z</time>
      </trkpt>
      <trkpt lat="45.92842" lon="4.73091">
        <ele>171</ele>
        <time>2018-10-31T09:42:26Z</time>
      </trkpt>
      <trkpt lat="45.92844" lon="4.73096">
        <ele>171</ele>
        <time>2018-10-31T09:42:27Z</time>
      </trkpt>
      <trkpt lat="45.92848" lon="4.73101">
        <ele>171</ele>
        <time>2018-10-31T09:42:28Z</time>
      </trkpt>
      <trkpt lat="45.92856" lon="4.73102">
        <ele>171</ele>
        <time>2018-10-31T09:42:31Z</time>
      </trkpt>
      <trkpt lat="45.92858" lon="4.731">
        <ele>171</ele>
        <time>2018-10-31T09:42:32Z</time>
      </trkpt>
      <trkpt lat="45.92862" lon="4.73095">
        <ele>171</ele>
        <time>2018-10-31T09:42:33Z</time>
      </trkpt>
      <trkpt lat="45.92865" lon="4.73091">
        <ele>172</ele>
        <time>2018-10-31T09:42:34Z</time>
      </trkpt>
      <trkpt lat="45.9287" lon="4.73084">
        <ele>172</ele>
        <time>2018-10-31T09:42:37Z</time>
      </trkpt>
      <trkpt lat="45.92875" lon="4.73078">
        <ele>172</ele>
        <time>2018-10-31T09:42:38Z</time>
      </trkpt>
      <trkpt lat="45.9288" lon="4.73069">
        <ele>172</ele>
        <time>2018-10-31T09:42:40Z</time>
      </trkpt>
      <trkpt lat="45.92883" lon="4.73065">
        <ele>172</ele>
        <time>2018-10-31T09:42:41Z</time>
      </trkpt>
      <trkpt lat="45.92886" lon="4.73061">
        <ele>172</ele>
        <time>2018-10-31T09:42:42Z</time>
      </trkpt>
      <trkpt lat="45.92892" lon="4.73058">
        <ele>172</ele>
        <time>2018-10-31T09:42:43Z</time>
      </trkpt>
      <trkpt lat="45.92897" lon="4.73054">
        <ele>172</ele>
        <time>2018-10-31T09:42:44Z</time>
      </trkpt>
      <trkpt lat="45.92901" lon="4.73048">
        <ele>172</ele>
        <time>2018-10-31T09:42:45Z</time>
      </trkpt>
      <trkpt lat="45.92905" lon="4.73042">
        <ele>172</ele>
        <time>2018-10-31T09:42:46Z</time>
      </trkpt>
      <trkpt lat="45.92909" lon="4.73037">
        <ele>172</ele>
        <time>2018-10-31T09:42:47Z</time>
      </trkpt>
      <trkpt lat="45.92914" lon="4.73029">
        <ele>172</ele>
        <time>2018-10-31T09:42:48Z</time>
      </trkpt>
      <trkpt lat="45.92919" lon="4.73023">
        <ele>172</ele>
        <time>2018-10-31T09:42:49Z</time>
      </trkpt>
      <trkpt lat="45.92924" lon="4.73018">
        <ele>172</ele>
        <time>2018-10-31T09:42:50Z</time>
      </trkpt>
      <trkpt lat="45.92929" lon="4.73011">
        <ele>172</ele>
        <time>2018-10-31T09:42:51Z</time>
      </trkpt>
      <trkpt lat="45.92933" lon="4.73006">
        <ele>171</ele>
        <time>2018-10-31T09:42:52Z</time>
      </trkpt>
      <trkpt lat="45.92938" lon="4.73">
        <ele>171</ele>
        <time>2018-10-31T09:42:53Z</time>
      </trkpt>
      <trkpt lat="45.92943" lon="4.72995">
        <ele>171</ele>
        <time>2018-10-31T09:42:54Z</time>
      </trkpt>
      <trkpt lat="45.92949" lon="4.7299">
        <ele>171</ele>
        <time>2018-10-31T09:42:55Z</time>
      </trkpt>
      <trkpt lat="45.92954" lon="4.72984">
        <ele>171</ele>
        <time>2018-10-31T09:42:56Z</time>
      </trkpt>
      <trkpt lat="45.92959" lon="4.72978">
        <ele>171</ele>
        <time>2018-10-31T09:42:57Z</time>
      </trkpt>
      <trkpt lat="45.92964" lon="4.72972">
        <ele>171</ele>
        <time>2018-10-31T09:42:58Z</time>
      </trkpt>
      <trkpt lat="45.92969" lon="4.72966">
        <ele>171</ele>
        <time>2018-10-31T09:42:59Z</time>
      </trkpt>
      <trkpt lat="45.92974" lon="4.72959">
        <ele>171</ele>
        <time>2018-10-31T09:43:00Z</time>
      </trkpt>
      <trkpt lat="45.92979" lon="4.72953">
        <ele>171</ele>
        <time>2018-10-31T09:43:01Z</time>
      </trkpt>
      <trkpt lat="45.92984" lon="4.72947">
        <ele>171</ele>
        <time>2018-10-31T09:43:02Z</time>
      </trkpt>
      <trkpt lat="45.92989" lon="4.72941">
        <ele>171</ele>
        <time>2018-10-31T09:43:03Z</time>
      </trkpt>
      <trkpt lat="45.92994" lon="4.72936">
        <ele>171</ele>
        <time>2018-10-31T09:43:04Z</time>
      </trkpt>
      <trkpt lat="45.92999" lon="4.72929">
        <ele>171</ele>
        <time>2018-10-31T09:43:05Z</time>
      </trkpt>
      <trkpt lat="45.93004" lon="4.72922">
        <ele>171</ele>
        <time>2018-10-31T09:43:06Z</time>
      </trkpt>
      <trkpt lat="45.93009" lon="4.72916">
        <ele>171</ele>
        <time>2018-10-31T09:43:07Z</time>
      </trkpt>
      <trkpt lat="45.93017" lon="4.72909">
        <ele>171</ele>
        <time>2018-10-31T09:43:08Z</time>
      </trkpt>
      <trkpt lat="45.93021" lon="4.72904">
        <ele>172</ele>
        <time>2018-10-31T09:43:09Z</time>
      </trkpt>
      <trkpt lat="45.93026" lon="4.72897">
        <ele>172</ele>
        <time>2018-10-31T09:43:10Z</time>
      </trkpt>
      <trkpt lat="45.93032" lon="4.72891">
        <ele>172</ele>
        <time>2018-10-31T09:43:11Z</time>
      </trkpt>
      <trkpt lat="45.93036" lon="4.72885">
        <ele>172</ele>
        <time>2018-10-31T09:43:12Z</time>
      </trkpt>
      <trkpt lat="45.93041" lon="4.7288">
        <ele>172</ele>
        <time>2018-10-31T09:43:13Z</time>
      </trkpt>
      <trkpt lat="45.93046" lon="4.72875">
        <ele>172</ele>
        <time>2018-10-31T09:43:14Z</time>
      </trkpt>
      <trkpt lat="45.93051" lon="4.72869">
        <ele>172</ele>
        <time>2018-10-31T09:43:15Z</time>
      </trkpt>
      <trkpt lat="45.93055" lon="4.72864">
        <ele>172</ele>
        <time>2018-10-31T09:43:16Z</time>
      </trkpt>
      <trkpt lat="45.93059" lon="4.72859">
        <ele>172</ele>
        <time>2018-10-31T09:43:17Z</time>
      </trkpt>
      <trkpt lat="45.93063" lon="4.72855">
        <ele>172</ele>
        <time>2018-10-31T09:43:18Z</time>
      </trkpt>
      <trkpt lat="45.93068" lon="4.72849">
        <ele>172</ele>
        <time>2018-10-31T09:43:19Z</time>
      </trkpt>
      <trkpt lat="45.93072" lon="4.72844">
        <ele>173</ele>
        <time>2018-10-31T09:43:20Z</time>
      </trkpt>
      <trkpt lat="45.93075" lon="4.72839">
        <ele>173</ele>
        <time>2018-10-31T09:43:21Z</time>
      </trkpt>
      <trkpt lat="45.9308" lon="4.72834">
        <ele>173</ele>
        <time>2018-10-31T09:43:22Z</time>
      </trkpt>
      <trkpt lat="45.93084" lon="4.72833">
        <ele>173</ele>
        <time>2018-10-31T09:43:23Z</time>
      </trkpt>
      <trkpt lat="45.93088" lon="4.72829">
        <ele>173</ele>
        <time>2018-10-31T09:43:24Z</time>
      </trkpt>
      <trkpt lat="45.93092" lon="4.72818">
        <ele>172</ele>
        <time>2018-10-31T09:43:25Z</time>
      </trkpt>
      <trkpt lat="45.93096" lon="4.72811">
        <ele>172</ele>
        <time>2018-10-31T09:43:26Z</time>
      </trkpt>
      <trkpt lat="45.93102" lon="4.72809">
        <ele>171</ele>
        <time>2018-10-31T09:43:27Z</time>
      </trkpt>
      <trkpt lat="45.93107" lon="4.72805">
        <ele>171</ele>
        <time>2018-10-31T09:43:28Z</time>
      </trkpt>
      <trkpt lat="45.93112" lon="4.728">
        <ele>171</ele>
        <time>2018-10-31T09:43:29Z</time>
      </trkpt>
      <trkpt lat="45.93119" lon="4.72793">
        <ele>171</ele>
        <time>2018-10-31T09:43:30Z</time>
      </trkpt>
      <trkpt lat="45.93125" lon="4.72787">
        <ele>171</ele>
        <time>2018-10-31T09:43:31Z</time>
      </trkpt>
      <trkpt lat="45.93128" lon="4.72781">
        <ele>171</ele>
        <time>2018-10-31T09:43:32Z</time>
      </trkpt>
      <trkpt lat="45.93133" lon="4.72777">
        <ele>171</ele>
        <time>2018-10-31T09:43:33Z</time>
      </trkpt>
      <trkpt lat="45.93138" lon="4.72771">
        <ele>171</ele>
        <time>2018-10-31T09:43:34Z</time>
      </trkpt>
      <trkpt lat="45.93143" lon="4.72766">
        <ele>171</ele>
        <time>2018-10-31T09:43:35Z</time>
      </trkpt>
      <trkpt lat="45.93147" lon="4.7276">
        <ele>171</ele>
        <time>2018-10-31T09:43:36Z</time>
      </trkpt>
      <trkpt lat="45.93153" lon="4.72755">
        <ele>170</ele>
        <time>2018-10-31T09:43:37Z</time>
      </trkpt>
      <trkpt lat="45.93159" lon="4.72749">
        <ele>170</ele>
        <time>2018-10-31T09:43:38Z</time>
      </trkpt>
      <trkpt lat="45.93162" lon="4.72745">
        <ele>170</ele>
        <time>2018-10-31T09:43:39Z</time>
      </trkpt>
      <trkpt lat="45.93167" lon="4.72739">
        <ele>170</ele>
        <time>2018-10-31T09:43:40Z</time>
      </trkpt>
      <trkpt lat="45.93171" lon="4.72734">
        <ele>170</ele>
        <time>2018-10-31T09:43:41Z</time>
      </trkpt>
      <trkpt lat="45.93175" lon="4.72729">
        <ele>170</ele>
        <time>2018-10-31T09:43:42Z</time>
      </trkpt>
      <trkpt lat="45.93179" lon="4.72724">
        <ele>170</ele>
        <time>2018-10-31T09:43:43Z</time>
      </trkpt>
      <trkpt lat="45.93183" lon="4.72719">
        <ele>169</ele>
        <time>2018-10-31T09:43:44Z</time>
      </trkpt>
      <trkpt lat="45.93188" lon="4.72714">
        <ele>169</ele>
        <time>2018-10-31T09:43:45Z</time>
      </trkpt>
      <trkpt lat="45.93192" lon="4.72709">
        <ele>169</ele>
        <time>2018-10-31T09:43:46Z</time>
      </trkpt>
      <trkpt lat="45.93196" lon="4.72705">
        <ele>169</ele>
        <time>2018-10-31T09:43:47Z</time>
      </trkpt>
      <trkpt lat="45.932" lon="4.72701">
        <ele>169</ele>
        <time>2018-10-31T09:43:48Z</time>
      </trkpt>
      <trkpt lat="45.93204" lon="4.72695">
        <ele>169</ele>
        <time>2018-10-31T09:43:49Z</time>
      </trkpt>
      <trkpt lat="45.93209" lon="4.7269">
        <ele>169</ele>
        <time>2018-10-31T09:43:50Z</time>
      </trkpt>
      <trkpt lat="45.93213" lon="4.72684">
        <ele>169</ele>
        <time>2018-10-31T09:43:51Z</time>
      </trkpt>
      <trkpt lat="45.93217" lon="4.72679">
        <ele>169</ele>
        <time>2018-10-31T09:43:52Z</time>
      </trkpt>
      <trkpt lat="45.93221" lon="4.72674">
        <ele>169</ele>
        <time>2018-10-31T09:43:53Z</time>
      </trkpt>
      <trkpt lat="45.93225" lon="4.72669">
        <ele>169</ele>
        <time>2018-10-31T09:43:54Z</time>
      </trkpt>
      <trkpt lat="45.93231" lon="4.72662">
        <ele>169</ele>
        <time>2018-10-31T09:43:55Z</time>
      </trkpt>
      <trkpt lat="45.93237" lon="4.72655">
        <ele>169</ele>
        <time>2018-10-31T09:43:56Z</time>
      </trkpt>
      <trkpt lat="45.93242" lon="4.72649">
        <ele>169</ele>
        <time>2018-10-31T09:43:57Z</time>
      </trkpt>
      <trkpt lat="45.93248" lon="4.72642">
        <ele>170</ele>
        <time>2018-10-31T09:43:58Z</time>
      </trkpt>
      <trkpt lat="45.93253" lon="4.72637">
        <ele>169</ele>
        <time>2018-10-31T09:43:59Z</time>
      </trkpt>
      <trkpt lat="45.93257" lon="4.72632">
        <ele>170</ele>
        <time>2018-10-31T09:44:00Z</time>
      </trkpt>
      <trkpt lat="45.93262" lon="4.72626">
        <ele>170</ele>
        <time>2018-10-31T09:44:01Z</time>
      </trkpt>
      <trkpt lat="45.93267" lon="4.72621">
        <ele>170</ele>
        <time>2018-10-31T09:44:02Z</time>
      </trkpt>
      <trkpt lat="45.9327" lon="4.72616">
        <ele>170</ele>
        <time>2018-10-31T09:44:03Z</time>
      </trkpt>
      <trkpt lat="45.93275" lon="4.7261">
        <ele>170</ele>
        <time>2018-10-31T09:44:04Z</time>
      </trkpt>
      <trkpt lat="45.93279" lon="4.72605">
        <ele>170</ele>
        <time>2018-10-31T09:44:05Z</time>
      </trkpt>
      <trkpt lat="45.93283" lon="4.726">
        <ele>170</ele>
        <time>2018-10-31T09:44:06Z</time>
      </trkpt>
      <trkpt lat="45.93286" lon="4.72596">
        <ele>170</ele>
        <time>2018-10-31T09:44:07Z</time>
      </trkpt>
      <trkpt lat="45.93291" lon="4.72591">
        <ele>170</ele>
        <time>2018-10-31T09:44:08Z</time>
      </trkpt>
      <trkpt lat="45.93295" lon="4.72585">
        <ele>170</ele>
        <time>2018-10-31T09:44:09Z</time>
      </trkpt>
      <trkpt lat="45.93301" lon="4.7258">
        <ele>171</ele>
        <time>2018-10-31T09:44:10Z</time>
      </trkpt>
      <trkpt lat="45.93306" lon="4.72575">
        <ele>171</ele>
        <time>2018-10-31T09:44:11Z</time>
      </trkpt>
      <trkpt lat="45.9331" lon="4.72569">
        <ele>171</ele>
        <time>2018-10-31T09:44:12Z</time>
      </trkpt>
      <trkpt lat="45.93314" lon="4.72563">
        <ele>171</ele>
        <time>2018-10-31T09:44:13Z</time>
      </trkpt>
      <trkpt lat="45.93319" lon="4.72557">
        <ele>171</ele>
        <time>2018-10-31T09:44:14Z</time>
      </trkpt>
      <trkpt lat="45.93323" lon="4.7255">
        <ele>172</ele>
        <time>2018-10-31T09:44:15Z</time>
      </trkpt>
      <trkpt lat="45.93327" lon="4.72545">
        <ele>172</ele>
        <time>2018-10-31T09:44:16Z</time>
      </trkpt>
      <trkpt lat="45.93332" lon="4.72541">
        <ele>172</ele>
        <time>2018-10-31T09:44:17Z</time>
      </trkpt>
      <trkpt lat="45.93337" lon="4.72535">
        <ele>172</ele>
        <time>2018-10-31T09:44:18Z</time>
      </trkpt>
      <trkpt lat="45.93342" lon="4.7253">
        <ele>172</ele>
        <time>2018-10-31T09:44:19Z</time>
      </trkpt>
      <trkpt lat="45.93347" lon="4.72524">
        <ele>172</ele>
        <time>2018-10-31T09:44:20Z</time>
      </trkpt>
      <trkpt lat="45.93352" lon="4.72519">
        <ele>172</ele>
        <time>2018-10-31T09:44:21Z</time>
      </trkpt>
      <trkpt lat="45.93356" lon="4.72513">
        <ele>172</ele>
        <time>2018-10-31T09:44:22Z</time>
      </trkpt>
      <trkpt lat="45.93361" lon="4.72507">
        <ele>172</ele>
        <time>2018-10-31T09:44:23Z</time>
      </trkpt>
      <trkpt lat="45.93366" lon="4.72502">
        <ele>172</ele>
        <time>2018-10-31T09:44:24Z</time>
      </trkpt>
      <trkpt lat="45.93371" lon="4.72496">
        <ele>173</ele>
        <time>2018-10-31T09:44:25Z</time>
      </trkpt>
      <trkpt lat="45.93376" lon="4.7249">
        <ele>173</ele>
        <time>2018-10-31T09:44:26Z</time>
      </trkpt>
      <trkpt lat="45.9338" lon="4.72485">
        <ele>173</ele>
        <time>2018-10-31T09:44:27Z</time>
      </trkpt>
      <trkpt lat="45.93384" lon="4.7248">
        <ele>173</ele>
        <time>2018-10-31T09:44:28Z</time>
      </trkpt>
      <trkpt lat="45.93389" lon="4.72473">
        <ele>173</ele>
        <time>2018-10-31T09:44:29Z</time>
      </trkpt>
      <trkpt lat="45.93394" lon="4.72467">
        <ele>173</ele>
        <time>2018-10-31T09:44:30Z</time>
      </trkpt>
      <trkpt lat="45.93396" lon="4.72463">
        <ele>173</ele>
        <time>2018-10-31T09:44:31Z</time>
      </trkpt>
      <trkpt lat="45.93397" lon="4.72453">
        <ele>173</ele>
        <time>2018-10-31T09:44:39Z</time>
      </trkpt>
      <trkpt lat="45.93397" lon="4.7245">
        <ele>173</ele>
        <time>2018-10-31T09:44:40Z</time>
      </trkpt>
      <trkpt lat="45.93398" lon="4.72446">
        <ele>173</ele>
        <time>2018-10-31T09:44:41Z</time>
      </trkpt>
      <trkpt lat="45.934" lon="4.72437">
        <ele>173</ele>
        <time>2018-10-31T09:44:42Z</time>
      </trkpt>
      <trkpt lat="45.93405" lon="4.72428">
        <ele>173</ele>
        <time>2018-10-31T09:44:45Z</time>
      </trkpt>
      <trkpt lat="45.93409" lon="4.72421">
        <ele>174</ele>
        <time>2018-10-31T09:44:46Z</time>
      </trkpt>
      <trkpt lat="45.93416" lon="4.72415">
        <ele>174</ele>
        <time>2018-10-31T09:44:48Z</time>
      </trkpt>
      <trkpt lat="45.93419" lon="4.72415">
        <ele>174</ele>
        <time>2018-10-31T09:44:49Z</time>
      </trkpt>
      <trkpt lat="45.93425" lon="4.72413">
        <ele>174</ele>
        <time>2018-10-31T09:44:50Z</time>
      </trkpt>
      <trkpt lat="45.9343" lon="4.72411">
        <ele>174</ele>
        <time>2018-10-31T09:44:51Z</time>
      </trkpt>
      <trkpt lat="45.93434" lon="4.72409">
        <ele>174</ele>
        <time>2018-10-31T09:44:52Z</time>
      </trkpt>
      <trkpt lat="45.93439" lon="4.72406">
        <ele>174</ele>
        <time>2018-10-31T09:44:53Z</time>
      </trkpt>
      <trkpt lat="45.93444" lon="4.72403">
        <ele>173</ele>
        <time>2018-10-31T09:44:54Z</time>
      </trkpt>
      <trkpt lat="45.93449" lon="4.724">
        <ele>173</ele>
        <time>2018-10-31T09:44:55Z</time>
      </trkpt>
      <trkpt lat="45.93454" lon="4.72396">
        <ele>173</ele>
        <time>2018-10-31T09:44:56Z</time>
      </trkpt>
      <trkpt lat="45.9346" lon="4.72391">
        <ele>173</ele>
        <time>2018-10-31T09:44:57Z</time>
      </trkpt>
      <trkpt lat="45.93464" lon="4.72386">
        <ele>173</ele>
        <time>2018-10-31T09:44:58Z</time>
      </trkpt>
      <trkpt lat="45.93468" lon="4.7238">
        <ele>173</ele>
        <time>2018-10-31T09:44:59Z</time>
      </trkpt>
      <trkpt lat="45.93472" lon="4.72374">
        <ele>173</ele>
        <time>2018-10-31T09:45:00Z</time>
      </trkpt>
      <trkpt lat="45.93476" lon="4.72367">
        <ele>173</ele>
        <time>2018-10-31T09:45:01Z</time>
      </trkpt>
      <trkpt lat="45.93481" lon="4.72361">
        <ele>173</ele>
        <time>2018-10-31T09:45:02Z</time>
      </trkpt>
      <trkpt lat="45.93484" lon="4.72355">
        <ele>173</ele>
        <time>2018-10-31T09:45:03Z</time>
      </trkpt>
      <trkpt lat="45.93489" lon="4.72349">
        <ele>173</ele>
        <time>2018-10-31T09:45:04Z</time>
      </trkpt>
      <trkpt lat="45.93493" lon="4.72343">
        <ele>173</ele>
        <time>2018-10-31T09:45:05Z</time>
      </trkpt>
      <trkpt lat="45.93497" lon="4.72336">
        <ele>173</ele>
        <time>2018-10-31T09:45:06Z</time>
      </trkpt>
      <trkpt lat="45.93501" lon="4.7233">
        <ele>173</ele>
        <time>2018-10-31T09:45:07Z</time>
      </trkpt>
      <trkpt lat="45.93506" lon="4.72323">
        <ele>173</ele>
        <time>2018-10-31T09:45:08Z</time>
      </trkpt>
      <trkpt lat="45.9351" lon="4.72317">
        <ele>173</ele>
        <time>2018-10-31T09:45:09Z</time>
      </trkpt>
      <trkpt lat="45.93514" lon="4.72311">
        <ele>173</ele>
        <time>2018-10-31T09:45:10Z</time>
      </trkpt>
      <trkpt lat="45.93517" lon="4.72305">
        <ele>173</ele>
        <time>2018-10-31T09:45:11Z</time>
      </trkpt>
      <trkpt lat="45.9352" lon="4.72298">
        <ele>172</ele>
        <time>2018-10-31T09:45:12Z</time>
      </trkpt>
      <trkpt lat="45.93523" lon="4.72291">
        <ele>172</ele>
        <time>2018-10-31T09:45:13Z</time>
      </trkpt>
      <trkpt lat="45.93526" lon="4.72284">
        <ele>172</ele>
        <time>2018-10-31T09:45:14Z</time>
      </trkpt>
      <trkpt lat="45.93528" lon="4.72276">
        <ele>172</ele>
        <time>2018-10-31T09:45:15Z</time>
      </trkpt>
      <trkpt lat="45.93531" lon="4.72269">
        <ele>172</ele>
        <time>2018-10-31T09:45:16Z</time>
      </trkpt>
      <trkpt lat="45.93534" lon="4.72263">
        <ele>172</ele>
        <time>2018-10-31T09:45:17Z</time>
      </trkpt>
      <trkpt lat="45.93536" lon="4.72257">
        <ele>172</ele>
        <time>2018-10-31T09:45:18Z</time>
      </trkpt>
      <trkpt lat="45.93539" lon="4.7225">
        <ele>172</ele>
        <time>2018-10-31T09:45:19Z</time>
      </trkpt>
      <trkpt lat="45.93542" lon="4.72243">
        <ele>172</ele>
        <time>2018-10-31T09:45:20Z</time>
      </trkpt>
      <trkpt lat="45.93545" lon="4.72236">
        <ele>172</ele>
        <time>2018-10-31T09:45:21Z</time>
      </trkpt>
      <trkpt lat="45.93548" lon="4.7223">
        <ele>172</ele>
        <time>2018-10-31T09:45:22Z</time>
      </trkpt>
      <trkpt lat="45.93552" lon="4.72225">
        <ele>173</ele>
        <time>2018-10-31T09:45:23Z</time>
      </trkpt>
      <trkpt lat="45.93558" lon="4.72224">
        <ele>173</ele>
        <time>2018-10-31T09:45:24Z</time>
      </trkpt>
      <trkpt lat="45.93564" lon="4.72224">
        <ele>173</ele>
        <time>2018-10-31T09:45:25Z</time>
      </trkpt>
      <trkpt lat="45.93569" lon="4.72227">
        <ele>173</ele>
        <time>2018-10-31T09:45:26Z</time>
      </trkpt>
      <trkpt lat="45.93573" lon="4.72232">
        <ele>173</ele>
        <time>2018-10-31T09:45:27Z</time>
      </trkpt>
      <trkpt lat="45.93577" lon="4.72237">
        <ele>173</ele>
        <time>2018-10-31T09:45:28Z</time>
      </trkpt>
      <trkpt lat="45.93581" lon="4.72242">
        <ele>173</ele>
        <time>2018-10-31T09:45:29Z</time>
      </trkpt>
      <trkpt lat="45.93585" lon="4.72247">
        <ele>173</ele>
        <time>2018-10-31T09:45:30Z</time>
      </trkpt>
      <trkpt lat="45.9359" lon="4.72254">
        <ele>173</ele>
        <time>2018-10-31T09:45:31Z</time>
      </trkpt>
      <trkpt lat="45.93594" lon="4.72256">
        <ele>173</ele>
        <time>2018-10-31T09:45:32Z</time>
      </trkpt>
      <trkpt lat="45.93598" lon="4.72261">
        <ele>173</ele>
        <time>2018-10-31T09:45:33Z</time>
      </trkpt>
      <trkpt lat="45.93602" lon="4.72266">
        <ele>173</ele>
        <time>2018-10-31T09:45:34Z</time>
      </trkpt>
      <trkpt lat="45.93606" lon="4.72269">
        <ele>172</ele>
        <time>2018-10-31T09:45:35Z</time>
      </trkpt>
      <trkpt lat="45.93611" lon="4.72274">
        <ele>172</ele>
        <time>2018-10-31T09:45:36Z</time>
      </trkpt>
      <trkpt lat="45.93616" lon="4.72279">
        <ele>172</ele>
        <time>2018-10-31T09:45:37Z</time>
      </trkpt>
      <trkpt lat="45.9362" lon="4.72283">
        <ele>172</ele>
        <time>2018-10-31T09:45:38Z</time>
      </trkpt>
      <trkpt lat="45.93625" lon="4.72288">
        <ele>172</ele>
        <time>2018-10-31T09:45:39Z</time>
      </trkpt>
      <trkpt lat="45.9363" lon="4.72295">
        <ele>172</ele>
        <time>2018-10-31T09:45:40Z</time>
      </trkpt>
      <trkpt lat="45.93635" lon="4.72299">
        <ele>172</ele>
        <time>2018-10-31T09:45:41Z</time>
      </trkpt>
      <trkpt lat="45.93642" lon="4.72304">
        <ele>172</ele>
        <time>2018-10-31T09:45:42Z</time>
      </trkpt>
      <trkpt lat="45.93647" lon="4.72309">
        <ele>172</ele>
        <time>2018-10-31T09:45:43Z</time>
      </trkpt>
      <trkpt lat="45.93654" lon="4.72313">
        <ele>172</ele>
        <time>2018-10-31T09:45:44Z</time>
      </trkpt>
      <trkpt lat="45.93659" lon="4.72318">
        <ele>172</ele>
        <time>2018-10-31T09:45:45Z</time>
      </trkpt>
      <trkpt lat="45.93663" lon="4.72322">
        <ele>171</ele>
        <time>2018-10-31T09:45:46Z</time>
      </trkpt>
      <trkpt lat="45.93668" lon="4.72327">
        <ele>171</ele>
        <time>2018-10-31T09:45:47Z</time>
      </trkpt>
      <trkpt lat="45.93674" lon="4.72331">
        <ele>171</ele>
        <time>2018-10-31T09:45:48Z</time>
      </trkpt>
      <trkpt lat="45.93678" lon="4.72337">
        <ele>171</ele>
        <time>2018-10-31T09:45:49Z</time>
      </trkpt>
      <trkpt lat="45.93683" lon="4.72341">
        <ele>171</ele>
        <time>2018-10-31T09:45:50Z</time>
      </trkpt>
      <trkpt lat="45.93688" lon="4.72345">
        <ele>171</ele>
        <time>2018-10-31T09:45:51Z</time>
      </trkpt>
      <trkpt lat="45.93693" lon="4.72349">
        <ele>171</ele>
        <time>2018-10-31T09:45:52Z</time>
      </trkpt>
      <trkpt lat="45.93695" lon="4.72355">
        <ele>171</ele>
        <time>2018-10-31T09:45:53Z</time>
      </trkpt>
      <trkpt lat="45.93698" lon="4.72359">
        <ele>171</ele>
        <time>2018-10-31T09:45:54Z</time>
      </trkpt>
      <trkpt lat="45.93704" lon="4.72361">
        <ele>171</ele>
        <time>2018-10-31T09:45:55Z</time>
      </trkpt>
      <trkpt lat="45.93711" lon="4.72369">
        <ele>172</ele>
        <time>2018-10-31T09:45:57Z</time>
      </trkpt>
      <trkpt lat="45.93716" lon="4.72373">
        <ele>172</ele>
        <time>2018-10-31T09:45:58Z</time>
      </trkpt>
      <trkpt lat="45.93719" lon="4.7238">
        <ele>171</ele>
        <time>2018-10-31T09:45:59Z</time>
      </trkpt>
      <trkpt lat="45.93723" lon="4.72385">
        <ele>171</ele>
        <time>2018-10-31T09:46:00Z</time>
      </trkpt>
      <trkpt lat="45.93727" lon="4.72388">
        <ele>171</ele>
        <time>2018-10-31T09:46:01Z</time>
      </trkpt>
      <trkpt lat="45.93732" lon="4.72393">
        <ele>171</ele>
        <time>2018-10-31T09:46:02Z</time>
      </trkpt>
      <trkpt lat="45.93736" lon="4.72396">
        <ele>171</ele>
        <time>2018-10-31T09:46:03Z</time>
      </trkpt>
      <trkpt lat="45.9374" lon="4.724">
        <ele>171</ele>
        <time>2018-10-31T09:46:04Z</time>
      </trkpt>
      <trkpt lat="45.93744" lon="4.72404">
        <ele>171</ele>
        <time>2018-10-31T09:46:05Z</time>
      </trkpt>
      <trkpt lat="45.93748" lon="4.72409">
        <ele>171</ele>
        <time>2018-10-31T09:46:06Z</time>
      </trkpt>
      <trkpt lat="45.93753" lon="4.72414">
        <ele>171</ele>
        <time>2018-10-31T09:46:07Z</time>
      </trkpt>
      <trkpt lat="45.93757" lon="4.72419">
        <ele>171</ele>
        <time>2018-10-31T09:46:08Z</time>
      </trkpt>
      <trkpt lat="45.93762" lon="4.72423">
        <ele>171</ele>
        <time>2018-10-31T09:46:09Z</time>
      </trkpt>
      <trkpt lat="45.93767" lon="4.72429">
        <ele>171</ele>
        <time>2018-10-31T09:46:10Z</time>
      </trkpt>
      <trkpt lat="45.93772" lon="4.72435">
        <ele>171</ele>
        <time>2018-10-31T09:46:11Z</time>
      </trkpt>
      <trkpt lat="45.93779" lon="4.72439">
        <ele>172</ele>
        <time>2018-10-31T09:46:12Z</time>
      </trkpt>
      <trkpt lat="45.93785" lon="4.72444">
        <ele>172</ele>
        <time>2018-10-31T09:46:13Z</time>
      </trkpt>
      <trkpt lat="45.9379" lon="4.72449">
        <ele>172</ele>
        <time>2018-10-31T09:46:14Z</time>
      </trkpt>
      <trkpt lat="45.93796" lon="4.72456">
        <ele>172</ele>
        <time>2018-10-31T09:46:15Z</time>
      </trkpt>
      <trkpt lat="45.93801" lon="4.72462">
        <ele>172</ele>
        <time>2018-10-31T09:46:16Z</time>
      </trkpt>
      <trkpt lat="45.93806" lon="4.72466">
        <ele>172</ele>
        <time>2018-10-31T09:46:17Z</time>
      </trkpt>
      <trkpt lat="45.93811" lon="4.72473">
        <ele>172</ele>
        <time>2018-10-31T09:46:18Z</time>
      </trkpt>
      <trkpt lat="45.93817" lon="4.7248">
        <ele>172</ele>
        <time>2018-10-31T09:46:19Z</time>
      </trkpt>
      <trkpt lat="45.93821" lon="4.72481">
        <ele>173</ele>
        <time>2018-10-31T09:46:20Z</time>
      </trkpt>
      <trkpt lat="45.93826" lon="4.72486">
        <ele>173</ele>
        <time>2018-10-31T09:46:21Z</time>
      </trkpt>
      <trkpt lat="45.93831" lon="4.72488">
        <ele>173</ele>
        <time>2018-10-31T09:46:22Z</time>
      </trkpt>
      <trkpt lat="45.93867" lon="4.72517">
        <ele>173</ele>
        <time>2018-10-31T09:46:30Z</time>
      </trkpt>
      <trkpt lat="45.93873" lon="4.72516">
        <ele>173</ele>
        <time>2018-10-31T09:46:31Z</time>
      </trkpt>
      <trkpt lat="45.93878" lon="4.72515">
        <ele>173</ele>
        <time>2018-10-31T09:46:32Z</time>
      </trkpt>
      <trkpt lat="45.93883" lon="4.72511">
        <ele>173</ele>
        <time>2018-10-31T09:46:33Z</time>
      </trkpt>
      <trkpt lat="45.93887" lon="4.72507">
        <ele>173</ele>
        <time>2018-10-31T09:46:34Z</time>
      </trkpt>
      <trkpt lat="45.93891" lon="4.72503">
        <ele>173</ele>
        <time>2018-10-31T09:46:33.811Z</time>
      </trkpt>
      <trkpt lat="45.93895" lon="4.72498">
        <ele>172</ele>
        <time>2018-10-31T09:46:36Z</time>
      </trkpt>
      <trkpt lat="45.93899" lon="4.72492">
        <ele>172</ele>
        <time>2018-10-31T09:46:37Z</time>
      </trkpt>
      <trkpt lat="45.93903" lon="4.72487">
        <ele>172</ele>
        <time>2018-10-31T09:46:38Z</time>
      </trkpt>
      <trkpt lat="45.93908" lon="4.72482">
        <ele>172</ele>
        <time>2018-10-31T09:46:39Z</time>
      </trkpt>
      <trkpt lat="45.93912" lon="4.72476">
        <ele>172</ele>
        <time>2018-10-31T09:46:40Z</time>
      </trkpt>
      <trkpt lat="45.93917" lon="4.7247">
        <ele>171</ele>
        <time>2018-10-31T09:46:41Z</time>
      </trkpt>
      <trkpt lat="45.93923" lon="4.72464">
        <ele>171</ele>
        <time>2018-10-31T09:46:42Z</time>
      </trkpt>
      <trkpt lat="45.93927" lon="4.72458">
        <ele>171</ele>
        <time>2018-10-31T09:46:43Z</time>
      </trkpt>
      <trkpt lat="45.93931" lon="4.72451">
        <ele>171</ele>
        <time>2018-10-31T09:46:44Z</time>
      </trkpt>
      <trkpt lat="45.93936" lon="4.72444">
        <ele>171</ele>
        <time>2018-10-31T09:46:45Z</time>
      </trkpt>
      <trkpt lat="45.93941" lon="4.72437">
        <ele>171</ele>
        <time>2018-10-31T09:46:46Z</time>
      </trkpt>
      <trkpt lat="45.93947" lon="4.72431">
        <ele>171</ele>
        <time>2018-10-31T09:46:47Z</time>
      </trkpt>
      <trkpt lat="45.93953" lon="4.72424">
        <ele>171</ele>
        <time>2018-10-31T09:46:48Z</time>
      </trkpt>
      <trkpt lat="45.93958" lon="4.72417">
        <ele>171</ele>
        <time>2018-10-31T09:46:49Z</time>
      </trkpt>
      <trkpt lat="45.93963" lon="4.7241">
        <ele>171</ele>
        <time>2018-10-31T09:46:50Z</time>
      </trkpt>
      <trkpt lat="45.93968" lon="4.72404">
        <ele>171</ele>
        <time>2018-10-31T09:46:51Z</time>
      </trkpt>
      <trkpt lat="45.93974" lon="4.72398">
        <ele>171</ele>
        <time>2018-10-31T09:46:52Z</time>
      </trkpt>
      <trkpt lat="45.93979" lon="4.72392">
        <ele>171</ele>
        <time>2018-10-31T09:46:53Z</time>
      </trkpt>
      <trkpt lat="45.93984" lon="4.72386">
        <ele>171</ele>
        <time>2018-10-31T09:46:54Z</time>
      </trkpt>
      <trkpt lat="45.93991" lon="4.72378">
        <ele>171</ele>
        <time>2018-10-31T09:46:55Z</time>
      </trkpt>
      <trkpt lat="45.93996" lon="4.72372">
        <ele>171</ele>
        <time>2018-10-31T09:46:56Z</time>
      </trkpt>
      <trkpt lat="45.94" lon="4.72367">
        <ele>171</ele>
        <time>2018-10-31T09:46:57Z</time>
      </trkpt>
      <trkpt lat="45.94004" lon="4.72361">
        <ele>171</ele>
        <time>2018-10-31T09:46:58Z</time>
      </trkpt>
      <trkpt lat="45.94008" lon="4.72356">
        <ele>171</ele>
        <time>2018-10-31T09:46:59Z</time>
      </trkpt>
      <trkpt lat="45.94013" lon="4.7235">
        <ele>171</ele>
        <time>2018-10-31T09:47:00Z</time>
      </trkpt>
      <trkpt lat="45.94018" lon="4.72345">
        <ele>171</ele>
        <time>2018-10-31T09:47:01Z</time>
      </trkpt>
      <trkpt lat="45.94022" lon="4.7234">
        <ele>171</ele>
        <time>2018-10-31T09:47:02Z</time>
      </trkpt>
      <trkpt lat="45.94026" lon="4.72334">
        <ele>171</ele>
        <time>2018-10-31T09:47:03Z</time>
      </trkpt>
      <trkpt lat="45.9403" lon="4.72329">
        <ele>171</ele>
        <time>2018-10-31T09:47:04Z</time>
      </trkpt>
      <trkpt lat="45.94034" lon="4.72323">
        <ele>171</ele>
        <time>2018-10-31T09:47:05Z</time>
      </trkpt>
      <trkpt lat="45.94038" lon="4.72318">
        <ele>171</ele>
        <time>2018-10-31T09:47:06Z</time>
      </trkpt>
      <trkpt lat="45.94043" lon="4.72312">
        <ele>171</ele>
        <time>2018-10-31T09:47:07Z</time>
      </trkpt>
      <trkpt lat="45.94047" lon="4.72306">
        <ele>171</ele>
        <time>2018-10-31T09:47:08Z</time>
      </trkpt>
      <trkpt lat="45.94051" lon="4.723">
        <ele>171</ele>
        <time>2018-10-31T09:47:09Z</time>
      </trkpt>
      <trkpt lat="45.94056" lon="4.72294">
        <ele>171</ele>
        <time>2018-10-31T09:47:10Z</time>
      </trkpt>
      <trkpt lat="45.9406" lon="4.72289">
        <ele>171</ele>
        <time>2018-10-31T09:47:11Z</time>
      </trkpt>
      <trkpt lat="45.94065" lon="4.72284">
        <ele>171</ele>
        <time>2018-10-31T09:47:12Z</time>
      </trkpt>
      <trkpt lat="45.94069" lon="4.7228">
        <ele>171</ele>
        <time>2018-10-31T09:47:13Z</time>
      </trkpt>
      <trkpt lat="45.94074" lon="4.72276">
        <ele>171</ele>
        <time>2018-10-31T09:47:14Z</time>
      </trkpt>
      <trkpt lat="45.94079" lon="4.72273">
        <ele>171</ele>
        <time>2018-10-31T09:47:15Z</time>
      </trkpt>
      <trkpt lat="45.94084" lon="4.7227">
        <ele>171</ele>
        <time>2018-10-31T09:47:16Z</time>
      </trkpt>
      <trkpt lat="45.94089" lon="4.72267">
        <ele>171</ele>
        <time>2018-10-31T09:47:17Z</time>
      </trkpt>
      <trkpt lat="45.94095" lon="4.72265">
        <ele>171</ele>
        <time>2018-10-31T09:47:18Z</time>
      </trkpt>
      <trkpt lat="45.941" lon="4.72265">
        <ele>171</ele>
        <time>2018-10-31T09:47:19Z</time>
      </trkpt>
      <trkpt lat="45.94108" lon="4.72267">
        <ele>171</ele>
        <time>2018-10-31T09:47:20Z</time>
      </trkpt>
      <trkpt lat="45.94112" lon="4.72268">
        <ele>171</ele>
        <time>2018-10-31T09:47:21Z</time>
      </trkpt>
      <trkpt lat="45.94118" lon="4.72271">
        <ele>171</ele>
        <time>2018-10-31T09:47:22Z</time>
      </trkpt>
      <trkpt lat="45.94123" lon="4.72274">
        <ele>171</ele>
        <time>2018-10-31T09:47:23Z</time>
      </trkpt>
      <trkpt lat="45.94128" lon="4.72276">
        <ele>171</ele>
        <time>2018-10-31T09:47:24Z</time>
      </trkpt>
      <trkpt lat="45.94133" lon="4.72278">
        <ele>171</ele>
        <time>2018-10-31T09:47:25Z</time>
      </trkpt>
      <trkpt lat="45.94138" lon="4.7228">
        <ele>171</ele>
        <time>2018-10-31T09:47:26Z</time>
      </trkpt>
      <trkpt lat="45.94143" lon="4.72283">
        <ele>171</ele>
        <time>2018-10-31T09:47:27Z</time>
      </trkpt>
      <trkpt lat="45.94149" lon="4.72284">
        <ele>171</ele>
        <time>2018-10-31T09:47:28Z</time>
      </trkpt>
      <trkpt lat="45.94155" lon="4.72286">
        <ele>171</ele>
        <time>2018-10-31T09:47:29Z</time>
      </trkpt>
      <trkpt lat="45.94161" lon="4.72287">
        <ele>171</ele>
        <time>2018-10-31T09:47:30Z</time>
      </trkpt>
      <trkpt lat="45.94167" lon="4.72288">
        <ele>171</ele>
        <time>2018-10-31T09:47:31Z</time>
      </trkpt>
      <trkpt lat="45.94173" lon="4.72288">
        <ele>171</ele>
        <time>2018-10-31T09:47:32Z</time>
      </trkpt>
      <trkpt lat="45.94179" lon="4.72289">
        <ele>171</ele>
        <time>2018-10-31T09:47:33Z</time>
      </trkpt>
      <trkpt lat="45.94185" lon="4.72289">
        <ele>171</ele>
        <time>2018-10-31T09:47:34Z</time>
      </trkpt>
      <trkpt lat="45.94191" lon="4.72289">
        <ele>171</ele>
        <time>2018-10-31T09:47:35Z</time>
      </trkpt>
      <trkpt lat="45.94198" lon="4.72291">
        <ele>171</ele>
        <time>2018-10-31T09:47:36Z</time>
      </trkpt>
      <trkpt lat="45.94204" lon="4.72291">
        <ele>171</ele>
        <time>2018-10-31T09:47:37Z</time>
      </trkpt>
      <trkpt lat="45.9421" lon="4.7229">
        <ele>171</ele>
        <time>2018-10-31T09:47:38Z</time>
      </trkpt>
      <trkpt lat="45.94216" lon="4.7229">
        <ele>171</ele>
        <time>2018-10-31T09:47:39Z</time>
      </trkpt>
      <trkpt lat="45.94222" lon="4.72289">
        <ele>171</ele>
        <time>2018-10-31T09:47:40Z</time>
      </trkpt>
      <trkpt lat="45.94227" lon="4.72287">
        <ele>171</ele>
        <time>2018-10-31T09:47:41Z</time>
      </trkpt>
      <trkpt lat="45.94234" lon="4.72287">
        <ele>171</ele>
        <time>2018-10-31T09:47:42Z</time>
      </trkpt>
      <trkpt lat="45.94238" lon="4.72287">
        <ele>171</ele>
        <time>2018-10-31T09:47:43Z</time>
      </trkpt>
      <trkpt lat="45.94243" lon="4.72286">
        <ele>171</ele>
        <time>2018-10-31T09:47:44Z</time>
      </trkpt>
      <trkpt lat="45.94252" lon="4.72284">
        <ele>171</ele>
        <time>2018-10-31T09:47:46Z</time>
      </trkpt>
      <trkpt lat="45.94256" lon="4.72282">
        <ele>171</ele>
        <time>2018-10-31T09:47:47Z</time>
      </trkpt>
      <trkpt lat="45.94261" lon="4.72281">
        <ele>171</ele>
        <time>2018-10-31T09:47:48Z</time>
      </trkpt>
      <trkpt lat="45.94265" lon="4.7228">
        <ele>171</ele>
        <time>2018-10-31T09:47:49Z</time>
      </trkpt>
      <trkpt lat="45.94274" lon="4.72282">
        <ele>171</ele>
        <time>2018-10-31T09:47:51Z</time>
      </trkpt>
      <trkpt lat="45.94277" lon="4.72286">
        <ele>171</ele>
        <time>2018-10-31T09:47:52Z</time>
      </trkpt>
      <trkpt lat="45.9428" lon="4.72291">
        <ele>171</ele>
        <time>2018-10-31T09:47:53Z</time>
      </trkpt>
      <trkpt lat="45.94282" lon="4.72297">
        <ele>171</ele>
        <time>2018-10-31T09:47:54Z</time>
      </trkpt>
      <trkpt lat="45.94286" lon="4.72302">
        <ele>171</ele>
        <time>2018-10-31T09:47:55Z</time>
      </trkpt>
      <trkpt lat="45.94288" lon="4.72309">
        <ele>171</ele>
        <time>2018-10-31T09:47:56Z</time>
      </trkpt>
      <trkpt lat="45.94291" lon="4.72315">
        <ele>171</ele>
        <time>2018-10-31T09:47:57Z</time>
      </trkpt>
      <trkpt lat="45.94294" lon="4.72323">
        <ele>171</ele>
        <time>2018-10-31T09:47:58Z</time>
      </trkpt>
      <trkpt lat="45.94296" lon="4.72328">
        <ele>171</ele>
        <time>2018-10-31T09:47:59Z</time>
      </trkpt>
      <trkpt lat="45.943" lon="4.72334">
        <ele>172</ele>
        <time>2018-10-31T09:48:00Z</time>
      </trkpt>
      <trkpt lat="45.94302" lon="4.7234">
        <ele>172</ele>
        <time>2018-10-31T09:48:01Z</time>
      </trkpt>
      <trkpt lat="45.94305" lon="4.72347">
        <ele>172</ele>
        <time>2018-10-31T09:48:02Z</time>
      </trkpt>
      <trkpt lat="45.94308" lon="4.72353">
        <ele>172</ele>
        <time>2018-10-31T09:48:03Z</time>
      </trkpt>
      <trkpt lat="45.9431" lon="4.7236">
        <ele>172</ele>
        <time>2018-10-31T09:48:04Z</time>
      </trkpt>
      <trkpt lat="45.94313" lon="4.72366">
        <ele>172</ele>
        <time>2018-10-31T09:48:05Z</time>
      </trkpt>
      <trkpt lat="45.94316" lon="4.72372">
        <ele>172</ele>
        <time>2018-10-31T09:48:06Z</time>
      </trkpt>
      <trkpt lat="45.94321" lon="4.72377">
        <ele>172</ele>
        <time>2018-10-31T09:48:07Z</time>
      </trkpt>
      <trkpt lat="45.94324" lon="4.72384">
        <ele>172</ele>
        <time>2018-10-31T09:48:08Z</time>
      </trkpt>
      <trkpt lat="45.94327" lon="4.7239">
        <ele>172</ele>
        <time>2018-10-31T09:48:09Z</time>
      </trkpt>
      <trkpt lat="45.94331" lon="4.72397">
        <ele>172</ele>
        <time>2018-10-31T09:48:10Z</time>
      </trkpt>
      <trkpt lat="45.94334" lon="4.72403">
        <ele>173</ele>
        <time>2018-10-31T09:48:11Z</time>
      </trkpt>
      <trkpt lat="45.94337" lon="4.7241">
        <ele>173</ele>
        <time>2018-10-31T09:48:12Z</time>
      </trkpt>
      <trkpt lat="45.9434" lon="4.72417">
        <ele>173</ele>
        <time>2018-10-31T09:48:13Z</time>
      </trkpt>
      <trkpt lat="45.94343" lon="4.72423">
        <ele>173</ele>
        <time>2018-10-31T09:48:14Z</time>
      </trkpt>
      <trkpt lat="45.94345" lon="4.7243">
        <ele>173</ele>
        <time>2018-10-31T09:48:15Z</time>
      </trkpt>
      <trkpt lat="45.94347" lon="4.72436">
        <ele>173</ele>
        <time>2018-10-31T09:48:16Z</time>
      </trkpt>
      <trkpt lat="45.94351" lon="4.72442">
        <ele>173</ele>
        <time>2018-10-31T09:48:17Z</time>
      </trkpt>
      <trkpt lat="45.94353" lon="4.72448">
        <ele>173</ele>
        <time>2018-10-31T09:48:18Z</time>
      </trkpt>
      <trkpt lat="45.94356" lon="4.72456">
        <ele>173</ele>
        <time>2018-10-31T09:48:19Z</time>
      </trkpt>
      <trkpt lat="45.94359" lon="4.72463">
        <ele>173</ele>
        <time>2018-10-31T09:48:20Z</time>
      </trkpt>
      <trkpt lat="45.94362" lon="4.7247">
        <ele>173</ele>
        <time>2018-10-31T09:48:21Z</time>
      </trkpt>
      <trkpt lat="45.94365" lon="4.72477">
        <ele>173</ele>
        <time>2018-10-31T09:48:22Z</time>
      </trkpt>
      <trkpt lat="45.94367" lon="4.72484">
        <ele>173</ele>
        <time>2018-10-31T09:48:23Z</time>
      </trkpt>
      <trkpt lat="45.9437" lon="4.72491">
        <ele>173</ele>
        <time>2018-10-31T09:48:24Z</time>
      </trkpt>
      <trkpt lat="45.94373" lon="4.72498">
        <ele>173</ele>
        <time>2018-10-31T09:48:25Z</time>
      </trkpt>
      <trkpt lat="45.94376" lon="4.72505">
        <ele>174</ele>
        <time>2018-10-31T09:48:26Z</time>
      </trkpt>
      <trkpt lat="45.94377" lon="4.72513">
        <ele>174</ele>
        <time>2018-10-31T09:48:27Z</time>
      </trkpt>
      <trkpt lat="45.9438" lon="4.72521">
        <ele>174</ele>
        <time>2018-10-31T09:48:28Z</time>
      </trkpt>
      <trkpt lat="45.94382" lon="4.72528">
        <ele>174</ele>
        <time>2018-10-31T09:48:29Z</time>
      </trkpt>
      <trkpt lat="45.94384" lon="4.72535">
        <ele>174</ele>
        <time>2018-10-31T09:48:30Z</time>
      </trkpt>
      <trkpt lat="45.94386" lon="4.72543">
        <ele>173</ele>
        <time>2018-10-31T09:48:31Z</time>
      </trkpt>
      <trkpt lat="45.94388" lon="4.72552">
        <ele>173</ele>
        <time>2018-10-31T09:48:32Z</time>
      </trkpt>
      <trkpt lat="45.94389" lon="4.7256">
        <ele>173</ele>
        <time>2018-10-31T09:48:33Z</time>
      </trkpt>
      <trkpt lat="45.94391" lon="4.72568">
        <ele>173</ele>
        <time>2018-10-31T09:48:34Z</time>
      </trkpt>
      <trkpt lat="45.94392" lon="4.72577">
        <ele>173</ele>
        <time>2018-10-31T09:48:35Z</time>
      </trkpt>
      <trkpt lat="45.94394" lon="4.72586">
        <ele>173</ele>
        <time>2018-10-31T09:48:36Z</time>
      </trkpt>
      <trkpt lat="45.94395" lon="4.72594">
        <ele>173</ele>
        <time>2018-10-31T09:48:37Z</time>
      </trkpt>
      <trkpt lat="45.94396" lon="4.72602">
        <ele>173</ele>
        <time>2018-10-31T09:48:38Z</time>
      </trkpt>
      <trkpt lat="45.94396" lon="4.7261">
        <ele>173</ele>
        <time>2018-10-31T09:48:39Z</time>
      </trkpt>
      <trkpt lat="45.94397" lon="4.72618">
        <ele>173</ele>
        <time>2018-10-31T09:48:40Z</time>
      </trkpt>
      <trkpt lat="45.94398" lon="4.72627">
        <ele>174</ele>
        <time>2018-10-31T09:48:41Z</time>
      </trkpt>
      <trkpt lat="45.94399" lon="4.72635">
        <ele>174</ele>
        <time>2018-10-31T09:48:42Z</time>
      </trkpt>
      <trkpt lat="45.944" lon="4.72643">
        <ele>174</ele>
        <time>2018-10-31T09:48:43Z</time>
      </trkpt>
      <trkpt lat="45.94401" lon="4.72651">
        <ele>174</ele>
        <time>2018-10-31T09:48:44Z</time>
      </trkpt>
      <trkpt lat="45.94402" lon="4.72659">
        <ele>174</ele>
        <time>2018-10-31T09:48:45Z</time>
      </trkpt>
      <trkpt lat="45.94404" lon="4.72668">
        <ele>173</ele>
        <time>2018-10-31T09:48:46Z</time>
      </trkpt>
      <trkpt lat="45.94405" lon="4.72676">
        <ele>173</ele>
        <time>2018-10-31T09:48:47Z</time>
      </trkpt>
      <trkpt lat="45.94406" lon="4.72685">
        <ele>173</ele>
        <time>2018-10-31T09:48:48Z</time>
      </trkpt>
      <trkpt lat="45.94407" lon="4.72692">
        <ele>173</ele>
        <time>2018-10-31T09:48:49Z</time>
      </trkpt>
      <trkpt lat="45.94408" lon="4.727">
        <ele>172</ele>
        <time>2018-10-31T09:48:50Z</time>
      </trkpt>
      <trkpt lat="45.94408" lon="4.72709">
        <ele>172</ele>
        <time>2018-10-31T09:48:51Z</time>
      </trkpt>
      <trkpt lat="45.9441" lon="4.72717">
        <ele>172</ele>
        <time>2018-10-31T09:48:52Z</time>
      </trkpt>
      <trkpt lat="45.94411" lon="4.72725">
        <ele>172</ele>
        <time>2018-10-31T09:48:53Z</time>
      </trkpt>
      <trkpt lat="45.94411" lon="4.72733">
        <ele>172</ele>
        <time>2018-10-31T09:48:54Z</time>
      </trkpt>
      <trkpt lat="45.94413" lon="4.72741">
        <ele>171</ele>
        <time>2018-10-31T09:48:55Z</time>
      </trkpt>
      <trkpt lat="45.94414" lon="4.72749">
        <ele>171</ele>
        <time>2018-10-31T09:48:56Z</time>
      </trkpt>
      <trkpt lat="45.94415" lon="4.72757">
        <ele>170</ele>
        <time>2018-10-31T09:48:57Z</time>
      </trkpt>
      <trkpt lat="45.94417" lon="4.72764">
        <ele>169</ele>
        <time>2018-10-31T09:48:58Z</time>
      </trkpt>
      <trkpt lat="45.94418" lon="4.72772">
        <ele>169</ele>
        <time>2018-10-31T09:48:59Z</time>
      </trkpt>
      <trkpt lat="45.94418" lon="4.72778">
        <ele>168</ele>
        <time>2018-10-31T09:49:00Z</time>
      </trkpt>
      <trkpt lat="45.94419" lon="4.72785">
        <ele>168</ele>
        <time>2018-10-31T09:49:01Z</time>
      </trkpt>
      <trkpt lat="45.94421" lon="4.72792">
        <ele>168</ele>
        <time>2018-10-31T09:49:02Z</time>
      </trkpt>
      <trkpt lat="45.94421" lon="4.72799">
        <ele>167</ele>
        <time>2018-10-31T09:49:03Z</time>
      </trkpt>
      <trkpt lat="45.94422" lon="4.72805">
        <ele>167</ele>
        <time>2018-10-31T09:49:04Z</time>
      </trkpt>
      <trkpt lat="45.94423" lon="4.72817">
        <ele>167</ele>
        <time>2018-10-31T09:49:06Z</time>
      </trkpt>
      <trkpt lat="45.94423" lon="4.72823">
        <ele>167</ele>
        <time>2018-10-31T09:49:07Z</time>
      </trkpt>
      <trkpt lat="45.94425" lon="4.72836">
        <ele>166</ele>
        <time>2018-10-31T09:49:09Z</time>
      </trkpt>
      <trkpt lat="45.94426" lon="4.72841">
        <ele>166</ele>
        <time>2018-10-31T09:49:10Z</time>
      </trkpt>
      <trkpt lat="45.94428" lon="4.72853">
        <ele>166</ele>
        <time>2018-10-31T09:49:12Z</time>
      </trkpt>
      <trkpt lat="45.94429" lon="4.72858">
        <ele>166</ele>
        <time>2018-10-31T09:49:13Z</time>
      </trkpt>
      <trkpt lat="45.9443" lon="4.7287">
        <ele>166</ele>
        <time>2018-10-31T09:49:15Z</time>
      </trkpt>
      <trkpt lat="45.94431" lon="4.72875">
        <ele>166</ele>
        <time>2018-10-31T09:49:16Z</time>
      </trkpt>
      <trkpt lat="45.94433" lon="4.72887">
        <ele>166</ele>
        <time>2018-10-31T09:49:18Z</time>
      </trkpt>
      <trkpt lat="45.94433" lon="4.72892">
        <ele>166</ele>
        <time>2018-10-31T09:49:19Z</time>
      </trkpt>
      <trkpt lat="45.94435" lon="4.72905">
        <ele>166</ele>
        <time>2018-10-31T09:49:21Z</time>
      </trkpt>
      <trkpt lat="45.94436" lon="4.72911">
        <ele>166</ele>
        <time>2018-10-31T09:49:22Z</time>
      </trkpt>
      <trkpt lat="45.94437" lon="4.72918">
        <ele>167</ele>
        <time>2018-10-31T09:49:23Z</time>
      </trkpt>
      <trkpt lat="45.94438" lon="4.72924">
        <ele>167</ele>
        <time>2018-10-31T09:49:24Z</time>
      </trkpt>
      <trkpt lat="45.94439" lon="4.72931">
        <ele>167</ele>
        <time>2018-10-31T09:49:25Z</time>
      </trkpt>
      <trkpt lat="45.94439" lon="4.72939">
        <ele>167</ele>
        <time>2018-10-31T09:49:26Z</time>
      </trkpt>
      <trkpt lat="45.9444" lon="4.72948">
        <ele>167</ele>
        <time>2018-10-31T09:49:27Z</time>
      </trkpt>
      <trkpt lat="45.94441" lon="4.72957">
        <ele>167</ele>
        <time>2018-10-31T09:49:28Z</time>
      </trkpt>
      <trkpt lat="45.94442" lon="4.72965">
        <ele>167</ele>
        <time>2018-10-31T09:49:29Z</time>
      </trkpt>
      <trkpt lat="45.94442" lon="4.72974">
        <ele>167</ele>
        <time>2018-10-31T09:49:30Z</time>
      </trkpt>
      <trkpt lat="45.94444" lon="4.72986">
        <ele>167</ele>
        <time>2018-10-31T09:49:31Z</time>
      </trkpt>
      <trkpt lat="45.94446" lon="4.72997">
        <ele>167</ele>
        <time>2018-10-31T09:49:32Z</time>
      </trkpt>
      <trkpt lat="45.94448" lon="4.73005">
        <ele>169</ele>
        <time>2018-10-31T09:49:33Z</time>
      </trkpt>
      <trkpt lat="45.9445" lon="4.73014">
        <ele>169</ele>
        <time>2018-10-31T09:49:34Z</time>
      </trkpt>
      <trkpt lat="45.94451" lon="4.73024">
        <ele>169</ele>
        <time>2018-10-31T09:49:35Z</time>
      </trkpt>
      <trkpt lat="45.94453" lon="4.73035">
        <ele>169</ele>
        <time>2018-10-31T09:49:36Z</time>
      </trkpt>
      <trkpt lat="45.94455" lon="4.73045">
        <ele>169</ele>
        <time>2018-10-31T09:49:37Z</time>
      </trkpt>
      <trkpt lat="45.94456" lon="4.73055">
        <ele>170</ele>
        <time>2018-10-31T09:49:38Z</time>
      </trkpt>
      <trkpt lat="45.94456" lon="4.73065">
        <ele>170</ele>
        <time>2018-10-31T09:49:39Z</time>
      </trkpt>
      <trkpt lat="45.94458" lon="4.73076">
        <ele>170</ele>
        <time>2018-10-31T09:49:40Z</time>
      </trkpt>
      <trkpt lat="45.9446" lon="4.73085">
        <ele>171</ele>
        <time>2018-10-31T09:49:41Z</time>
      </trkpt>
      <trkpt lat="45.94461" lon="4.73095">
        <ele>171</ele>
        <time>2018-10-31T09:49:42Z</time>
      </trkpt>
      <trkpt lat="45.94463" lon="4.73104">
        <ele>172</ele>
        <time>2018-10-31T09:49:43Z</time>
      </trkpt>
      <trkpt lat="45.94463" lon="4.73113">
        <ele>172</ele>
        <time>2018-10-31T09:49:44Z</time>
      </trkpt>
      <trkpt lat="45.94464" lon="4.73122">
        <ele>172</ele>
        <time>2018-10-31T09:49:45Z</time>
      </trkpt>
      <trkpt lat="45.94465" lon="4.7313">
        <ele>172</ele>
        <time>2018-10-31T09:49:46Z</time>
      </trkpt>
      <trkpt lat="45.94466" lon="4.73138">
        <ele>172</ele>
        <time>2018-10-31T09:49:47Z</time>
      </trkpt>
      <trkpt lat="45.94468" lon="4.73145">
        <ele>172</ele>
        <time>2018-10-31T09:49:48Z</time>
      </trkpt>
      <trkpt lat="45.94469" lon="4.73153">
        <ele>172</ele>
        <time>2018-10-31T09:49:49Z</time>
      </trkpt>
      <trkpt lat="45.94469" lon="4.73161">
        <ele>172</ele>
        <time>2018-10-31T09:49:50Z</time>
      </trkpt>
      <trkpt lat="45.94471" lon="4.73168">
        <ele>174</ele>
        <time>2018-10-31T09:49:51Z</time>
      </trkpt>
      <trkpt lat="45.94471" lon="4.73176">
        <ele>174</ele>
        <time>2018-10-31T09:49:52Z</time>
      </trkpt>
      <trkpt lat="45.94473" lon="4.73183">
        <ele>174</ele>
        <time>2018-10-31T09:49:53Z</time>
      </trkpt>
      <trkpt lat="45.94474" lon="4.7319">
        <ele>174</ele>
        <time>2018-10-31T09:49:54Z</time>
      </trkpt>
      <trkpt lat="45.94475" lon="4.73198">
        <ele>174</ele>
        <time>2018-10-31T09:49:55Z</time>
      </trkpt>
      <trkpt lat="45.94476" lon="4.73205">
        <ele>175</ele>
        <time>2018-10-31T09:49:56Z</time>
      </trkpt>
      <trkpt lat="45.94477" lon="4.73212">
        <ele>175</ele>
        <time>2018-10-31T09:49:57Z</time>
      </trkpt>
      <trkpt lat="45.94478" lon="4.7322">
        <ele>175</ele>
        <time>2018-10-31T09:49:58Z</time>
      </trkpt>
      <trkpt lat="45.94479" lon="4.73228">
        <ele>175</ele>
        <time>2018-10-31T09:49:59Z</time>
      </trkpt>
      <trkpt lat="45.94481" lon="4.73234">
        <ele>175</ele>
        <time>2018-10-31T09:50:00Z</time>
      </trkpt>
      <trkpt lat="45.94481" lon="4.73241">
        <ele>175</ele>
        <time>2018-10-31T09:50:01Z</time>
      </trkpt>
      <trkpt lat="45.94483" lon="4.73247">
        <ele>175</ele>
        <time>2018-10-31T09:50:02Z</time>
      </trkpt>
      <trkpt lat="45.94483" lon="4.73253">
        <ele>176</ele>
        <time>2018-10-31T09:50:03Z</time>
      </trkpt>
      <trkpt lat="45.94484" lon="4.7326">
        <ele>176</ele>
        <time>2018-10-31T09:50:04Z</time>
      </trkpt>
      <trkpt lat="45.94485" lon="4.73272">
        <ele>177</ele>
        <time>2018-10-31T09:50:06Z</time>
      </trkpt>
      <trkpt lat="45.94485" lon="4.73277">
        <ele>177</ele>
        <time>2018-10-31T09:50:07Z</time>
      </trkpt>
      <trkpt lat="45.94486" lon="4.73289">
        <ele>177</ele>
        <time>2018-10-31T09:50:09Z</time>
      </trkpt>
      <trkpt lat="45.94486" lon="4.73295">
        <ele>177</ele>
        <time>2018-10-31T09:50:10Z</time>
      </trkpt>
      <trkpt lat="45.94487" lon="4.73305">
        <ele>177</ele>
        <time>2018-10-31T09:50:12Z</time>
      </trkpt>
      <trkpt lat="45.94487" lon="4.7331">
        <ele>177</ele>
        <time>2018-10-31T09:50:13Z</time>
      </trkpt>
      <trkpt lat="45.94489" lon="4.73321">
        <ele>177</ele>
        <time>2018-10-31T09:50:15Z</time>
      </trkpt>
      <trkpt lat="45.9449" lon="4.73326">
        <ele>177</ele>
        <time>2018-10-31T09:50:16Z</time>
      </trkpt>
      <trkpt lat="45.94491" lon="4.73337">
        <ele>178</ele>
        <time>2018-10-31T09:50:18Z</time>
      </trkpt>
      <trkpt lat="45.94491" lon="4.73342">
        <ele>178</ele>
        <time>2018-10-31T09:50:19Z</time>
      </trkpt>
      <trkpt lat="45.94493" lon="4.73354">
        <ele>178</ele>
        <time>2018-10-31T09:50:21Z</time>
      </trkpt>
      <trkpt lat="45.94493" lon="4.73359">
        <ele>179</ele>
        <time>2018-10-31T09:50:22Z</time>
      </trkpt>
      <trkpt lat="45.94494" lon="4.73371">
        <ele>179</ele>
        <time>2018-10-31T09:50:24Z</time>
      </trkpt>
      <trkpt lat="45.94495" lon="4.73376">
        <ele>179</ele>
        <time>2018-10-31T09:50:25Z</time>
      </trkpt>
      <trkpt lat="45.94495" lon="4.73387">
        <ele>179</ele>
        <time>2018-10-31T09:50:27Z</time>
      </trkpt>
      <trkpt lat="45.94496" lon="4.73392">
        <ele>179</ele>
        <time>2018-10-31T09:50:28Z</time>
      </trkpt>
      <trkpt lat="45.94497" lon="4.73403">
        <ele>180</ele>
        <time>2018-10-31T09:50:30Z</time>
      </trkpt>
      <trkpt lat="45.94498" lon="4.73409">
        <ele>180</ele>
        <time>2018-10-31T09:50:31Z</time>
      </trkpt>
      <trkpt lat="45.94498" lon="4.7342">
        <ele>180</ele>
        <time>2018-10-31T09:50:33Z</time>
      </trkpt>
      <trkpt lat="45.94498" lon="4.73425">
        <ele>181</ele>
        <time>2018-10-31T09:50:34Z</time>
      </trkpt>
      <trkpt lat="45.94498" lon="4.73436">
        <ele>181</ele>
        <time>2018-10-31T09:50:36Z</time>
      </trkpt>
      <trkpt lat="45.94499" lon="4.73442">
        <ele>181</ele>
        <time>2018-10-31T09:50:37Z</time>
      </trkpt>
      <trkpt lat="45.94499" lon="4.73453">
        <ele>182</ele>
        <time>2018-10-31T09:50:39Z</time>
      </trkpt>
      <trkpt lat="45.94499" lon="4.73459">
        <ele>182</ele>
        <time>2018-10-31T09:50:40Z</time>
      </trkpt>
      <trkpt lat="45.945" lon="4.7347">
        <ele>182</ele>
        <time>2018-10-31T09:50:42Z</time>
      </trkpt>
      <trkpt lat="45.945" lon="4.73476">
        <ele>182</ele>
        <time>2018-10-31T09:50:43Z</time>
      </trkpt>
      <trkpt lat="45.945" lon="4.73487">
        <ele>182</ele>
        <time>2018-10-31T09:50:45Z</time>
      </trkpt>
      <trkpt lat="45.94501" lon="4.73493">
        <ele>183</ele>
        <time>2018-10-31T09:50:46Z</time>
      </trkpt>
      <trkpt lat="45.945" lon="4.73505">
        <ele>183</ele>
        <time>2018-10-31T09:50:48Z</time>
      </trkpt>
      <trkpt lat="45.945" lon="4.73511">
        <ele>183</ele>
        <time>2018-10-31T09:50:49Z</time>
      </trkpt>
      <trkpt lat="45.945" lon="4.73523">
        <ele>184</ele>
        <time>2018-10-31T09:50:51Z</time>
      </trkpt>
      <trkpt lat="45.945" lon="4.73529">
        <ele>184</ele>
        <time>2018-10-31T09:50:52Z</time>
      </trkpt>
      <trkpt lat="45.94499" lon="4.73541">
        <ele>184</ele>
        <time>2018-10-31T09:50:54Z</time>
      </trkpt>
      <trkpt lat="45.94499" lon="4.73547">
        <ele>185</ele>
        <time>2018-10-31T09:50:55Z</time>
      </trkpt>
      <trkpt lat="45.94498" lon="4.7356">
        <ele>185</ele>
        <time>2018-10-31T09:50:57Z</time>
      </trkpt>
      <trkpt lat="45.94497" lon="4.73566">
        <ele>185</ele>
        <time>2018-10-31T09:50:58Z</time>
      </trkpt>
      <trkpt lat="45.94497" lon="4.73578">
        <ele>185</ele>
        <time>2018-10-31T09:51:00Z</time>
      </trkpt>
      <trkpt lat="45.94496" lon="4.73584">
        <ele>185</ele>
        <time>2018-10-31T09:51:01Z</time>
      </trkpt>
      <trkpt lat="45.94495" lon="4.73591">
        <ele>185</ele>
        <time>2018-10-31T09:51:02Z</time>
      </trkpt>
      <trkpt lat="45.94494" lon="4.73598">
        <ele>185</ele>
        <time>2018-10-31T09:51:03Z</time>
      </trkpt>
      <trkpt lat="45.94494" lon="4.7361">
        <ele>186</ele>
        <time>2018-10-31T09:51:05Z</time>
      </trkpt>
      <trkpt lat="45.94493" lon="4.73616">
        <ele>186</ele>
        <time>2018-10-31T09:51:06Z</time>
      </trkpt>
      <trkpt lat="45.94493" lon="4.73623">
        <ele>186</ele>
        <time>2018-10-31T09:51:07Z</time>
      </trkpt>
      <trkpt lat="45.94492" lon="4.7363">
        <ele>186</ele>
        <time>2018-10-31T09:51:08Z</time>
      </trkpt>
      <trkpt lat="45.9449" lon="4.73642">
        <ele>186</ele>
        <time>2018-10-31T09:51:10Z</time>
      </trkpt>
      <trkpt lat="45.94489" lon="4.73649">
        <ele>186</ele>
        <time>2018-10-31T09:51:11Z</time>
      </trkpt>
      <trkpt lat="45.94489" lon="4.73658">
        <ele>185</ele>
        <time>2018-10-31T09:51:12Z</time>
      </trkpt>
      <trkpt lat="45.94488" lon="4.73666">
        <ele>185</ele>
        <time>2018-10-31T09:51:13Z</time>
      </trkpt>
      <trkpt lat="45.94486" lon="4.73673">
        <ele>185</ele>
        <time>2018-10-31T09:51:14Z</time>
      </trkpt>
      <trkpt lat="45.94486" lon="4.7368">
        <ele>186</ele>
        <time>2018-10-31T09:51:15Z</time>
      </trkpt>
      <trkpt lat="45.94484" lon="4.73688">
        <ele>186</ele>
        <time>2018-10-31T09:51:16Z</time>
      </trkpt>
      <trkpt lat="45.94483" lon="4.73696">
        <ele>186</ele>
        <time>2018-10-31T09:51:17Z</time>
      </trkpt>
      <trkpt lat="45.94482" lon="4.73704">
        <ele>186</ele>
        <time>2018-10-31T09:51:18Z</time>
      </trkpt>
      <trkpt lat="45.94481" lon="4.73711">
        <ele>186</ele>
        <time>2018-10-31T09:51:19Z</time>
      </trkpt>
      <trkpt lat="45.9448" lon="4.73718">
        <ele>186</ele>
        <time>2018-10-31T09:51:20Z</time>
      </trkpt>
      <trkpt lat="45.94479" lon="4.73724">
        <ele>186</ele>
        <time>2018-10-31T09:51:21Z</time>
      </trkpt>
      <trkpt lat="45.94478" lon="4.73732">
        <ele>186</ele>
        <time>2018-10-31T09:51:22Z</time>
      </trkpt>
      <trkpt lat="45.94477" lon="4.73739">
        <ele>186</ele>
        <time>2018-10-31T09:51:23Z</time>
      </trkpt>
      <trkpt lat="45.94476" lon="4.73746">
        <ele>186</ele>
        <time>2018-10-31T09:51:24Z</time>
      </trkpt>
      <trkpt lat="45.94475" lon="4.73753">
        <ele>186</ele>
        <time>2018-10-31T09:51:25Z</time>
      </trkpt>
      <trkpt lat="45.94474" lon="4.73764">
        <ele>186</ele>
        <time>2018-10-31T09:51:27Z</time>
      </trkpt>
      <trkpt lat="45.94474" lon="4.7377">
        <ele>186</ele>
        <time>2018-10-31T09:51:28Z</time>
      </trkpt>
      <trkpt lat="45.9448" lon="4.73779">
        <ele>186</ele>
        <time>2018-10-31T09:51:30Z</time>
      </trkpt>
      <trkpt lat="45.94484" lon="4.73782">
        <ele>186</ele>
        <time>2018-10-31T09:51:31Z</time>
      </trkpt>
      <trkpt lat="45.94492" lon="4.73788">
        <ele>186</ele>
        <time>2018-10-31T09:51:33Z</time>
      </trkpt>
      <trkpt lat="45.94496" lon="4.73792">
        <ele>186</ele>
        <time>2018-10-31T09:51:34Z</time>
      </trkpt>
      <trkpt lat="45.94501" lon="4.73795">
        <ele>186</ele>
        <time>2018-10-31T09:51:35Z</time>
      </trkpt>
      <trkpt lat="45.94505" lon="4.73798">
        <ele>186</ele>
        <time>2018-10-31T09:51:36Z</time>
      </trkpt>
      <trkpt lat="45.94509" lon="4.73802">
        <ele>186</ele>
        <time>2018-10-31T09:51:37Z</time>
      </trkpt>
      <trkpt lat="45.94513" lon="4.73805">
        <ele>186</ele>
        <time>2018-10-31T09:51:38Z</time>
      </trkpt>
      <trkpt lat="45.94518" lon="4.73809">
        <ele>186</ele>
        <time>2018-10-31T09:51:39Z</time>
      </trkpt>
      <trkpt lat="45.94522" lon="4.73813">
        <ele>186</ele>
        <time>2018-10-31T09:51:40Z</time>
      </trkpt>
      <trkpt lat="45.94526" lon="4.73817">
        <ele>186</ele>
        <time>2018-10-31T09:51:41Z</time>
      </trkpt>
      <trkpt lat="45.9453" lon="4.73822">
        <ele>186</ele>
        <time>2018-10-31T09:51:42Z</time>
      </trkpt>
      <trkpt lat="45.94535" lon="4.73826">
        <ele>186</ele>
        <time>2018-10-31T09:51:43Z</time>
      </trkpt>
      <trkpt lat="45.94539" lon="4.7383">
        <ele>186</ele>
        <time>2018-10-31T09:51:44Z</time>
      </trkpt>
      <trkpt lat="45.94543" lon="4.73834">
        <ele>186</ele>
        <time>2018-10-31T09:51:45Z</time>
      </trkpt>
      <trkpt lat="45.94547" lon="4.73837">
        <ele>186</ele>
        <time>2018-10-31T09:51:46Z</time>
      </trkpt>
      <trkpt lat="45.94551" lon="4.73841">
        <ele>186</ele>
        <time>2018-10-31T09:51:47Z</time>
      </trkpt>
      <trkpt lat="45.94555" lon="4.73845">
        <ele>186</ele>
        <time>2018-10-31T09:51:48Z</time>
      </trkpt>
      <trkpt lat="45.94559" lon="4.73849">
        <ele>186</ele>
        <time>2018-10-31T09:51:49Z</time>
      </trkpt>
      <trkpt lat="45.94563" lon="4.73853">
        <ele>186</ele>
        <time>2018-10-31T09:51:50Z</time>
      </trkpt>
      <trkpt lat="45.94567" lon="4.73857">
        <ele>186</ele>
        <time>2018-10-31T09:51:51Z</time>
      </trkpt>
      <trkpt lat="45.94571" lon="4.73861">
        <ele>186</ele>
        <time>2018-10-31T09:51:52Z</time>
      </trkpt>
      <trkpt lat="45.94578" lon="4.73868">
        <ele>186</ele>
        <time>2018-10-31T09:51:54Z</time>
      </trkpt>
      <trkpt lat="45.94581" lon="4.73872">
        <ele>186</ele>
        <time>2018-10-31T09:51:55Z</time>
      </trkpt>
      <trkpt lat="45.94587" lon="4.7388">
        <ele>187</ele>
        <time>2018-10-31T09:51:57Z</time>
      </trkpt>
      <trkpt lat="45.94591" lon="4.73885">
        <ele>187</ele>
        <time>2018-10-31T09:51:58Z</time>
      </trkpt>
      <trkpt lat="45.94594" lon="4.73889">
        <ele>187</ele>
        <time>2018-10-31T09:51:59Z</time>
      </trkpt>
      <trkpt lat="45.94597" lon="4.73893">
        <ele>187</ele>
        <time>2018-10-31T09:52:00Z</time>
      </trkpt>
      <trkpt lat="45.94604" lon="4.73902">
        <ele>187</ele>
        <time>2018-10-31T09:52:02Z</time>
      </trkpt>
      <trkpt lat="45.94607" lon="4.73906">
        <ele>187</ele>
        <time>2018-10-31T09:52:03Z</time>
      </trkpt>
      <trkpt lat="45.9461" lon="4.7391">
        <ele>187</ele>
        <time>2018-10-31T09:52:04Z</time>
      </trkpt>
      <trkpt lat="45.94614" lon="4.73913">
        <ele>187</ele>
        <time>2018-10-31T09:52:05Z</time>
      </trkpt>
      <trkpt lat="45.94621" lon="4.73921">
        <ele>187</ele>
        <time>2018-10-31T09:52:07Z</time>
      </trkpt>
      <trkpt lat="45.94624" lon="4.73926">
        <ele>187</ele>
        <time>2018-10-31T09:52:08Z</time>
      </trkpt>
      <trkpt lat="45.9463" lon="4.73935">
        <ele>187</ele>
        <time>2018-10-31T09:52:10Z</time>
      </trkpt>
      <trkpt lat="45.94633" lon="4.7394">
        <ele>187</ele>
        <time>2018-10-31T09:52:11Z</time>
      </trkpt>
      <trkpt lat="45.94636" lon="4.73944">
        <ele>187</ele>
        <time>2018-10-31T09:52:12Z</time>
      </trkpt>
      <trkpt lat="45.9464" lon="4.73948">
        <ele>187</ele>
        <time>2018-10-31T09:52:13Z</time>
      </trkpt>
      <trkpt lat="45.94646" lon="4.73957">
        <ele>187</ele>
        <time>2018-10-31T09:52:15Z</time>
      </trkpt>
      <trkpt lat="45.9465" lon="4.73961">
        <ele>187</ele>
        <time>2018-10-31T09:52:16Z</time>
      </trkpt>
      <trkpt lat="45.94654" lon="4.73966">
        <ele>187</ele>
        <time>2018-10-31T09:52:17Z</time>
      </trkpt>
      <trkpt lat="45.94658" lon="4.7397">
        <ele>187</ele>
        <time>2018-10-31T09:52:18Z</time>
      </trkpt>
      <trkpt lat="45.94662" lon="4.73975">
        <ele>187</ele>
        <time>2018-10-31T09:52:19Z</time>
      </trkpt>
      <trkpt lat="45.94665" lon="4.7398">
        <ele>187</ele>
        <time>2018-10-31T09:52:20Z</time>
      </trkpt>
      <trkpt lat="45.94669" lon="4.73986">
        <ele>187</ele>
        <time>2018-10-31T09:52:21Z</time>
      </trkpt>
      <trkpt lat="45.94673" lon="4.73991">
        <ele>187</ele>
        <time>2018-10-31T09:52:22Z</time>
      </trkpt>
      <trkpt lat="45.94678" lon="4.73995">
        <ele>187</ele>
        <time>2018-10-31T09:52:23Z</time>
      </trkpt>
      <trkpt lat="45.94681" lon="4.74001">
        <ele>187</ele>
        <time>2018-10-31T09:52:24Z</time>
      </trkpt>
      <trkpt lat="45.94685" lon="4.74006">
        <ele>187</ele>
        <time>2018-10-31T09:52:25Z</time>
      </trkpt>
      <trkpt lat="45.94689" lon="4.7401">
        <ele>187</ele>
        <time>2018-10-31T09:52:26Z</time>
      </trkpt>
      <trkpt lat="45.94692" lon="4.74015">
        <ele>187</ele>
        <time>2018-10-31T09:52:27Z</time>
      </trkpt>
      <trkpt lat="45.94695" lon="4.74019">
        <ele>187</ele>
        <time>2018-10-31T09:52:28Z</time>
      </trkpt>
      <trkpt lat="45.94699" lon="4.74024">
        <ele>187</ele>
        <time>2018-10-31T09:52:29Z</time>
      </trkpt>
      <trkpt lat="45.94703" lon="4.74029">
        <ele>187</ele>
        <time>2018-10-31T09:52:30Z</time>
      </trkpt>
      <trkpt lat="45.94706" lon="4.74033">
        <ele>187</ele>
        <time>2018-10-31T09:52:31Z</time>
      </trkpt>
      <trkpt lat="45.94709" lon="4.74038">
        <ele>187</ele>
        <time>2018-10-31T09:52:32Z</time>
      </trkpt>
      <trkpt lat="45.94713" lon="4.74043">
        <ele>187</ele>
        <time>2018-10-31T09:52:33Z</time>
      </trkpt>
      <trkpt lat="45.94718" lon="4.74047">
        <ele>187</ele>
        <time>2018-10-31T09:52:34Z</time>
      </trkpt>
      <trkpt lat="45.94722" lon="4.74052">
        <ele>187</ele>
        <time>2018-10-31T09:52:35Z</time>
      </trkpt>
      <trkpt lat="45.94726" lon="4.74057">
        <ele>188</ele>
        <time>2018-10-31T09:52:36Z</time>
      </trkpt>
      <trkpt lat="45.9473" lon="4.74061">
        <ele>188</ele>
        <time>2018-10-31T09:52:37Z</time>
      </trkpt>
      <trkpt lat="45.94733" lon="4.74066">
        <ele>188</ele>
        <time>2018-10-31T09:52:38Z</time>
      </trkpt>
      <trkpt lat="45.94737" lon="4.74071">
        <ele>188</ele>
        <time>2018-10-31T09:52:39Z</time>
      </trkpt>
      <trkpt lat="45.9474" lon="4.74077">
        <ele>188</ele>
        <time>2018-10-31T09:52:40Z</time>
      </trkpt>
      <trkpt lat="45.94744" lon="4.74083">
        <ele>189</ele>
        <time>2018-10-31T09:52:41Z</time>
      </trkpt>
      <trkpt lat="45.94748" lon="4.74088">
        <ele>188</ele>
        <time>2018-10-31T09:52:42Z</time>
      </trkpt>
      <trkpt lat="45.94752" lon="4.74093">
        <ele>189</ele>
        <time>2018-10-31T09:52:43Z</time>
      </trkpt>
      <trkpt lat="45.94756" lon="4.74098">
        <ele>189</ele>
        <time>2018-10-31T09:52:44Z</time>
      </trkpt>
      <trkpt lat="45.94759" lon="4.74103">
        <ele>189</ele>
        <time>2018-10-31T09:52:45Z</time>
      </trkpt>
      <trkpt lat="45.94762" lon="4.74107">
        <ele>189</ele>
        <time>2018-10-31T09:52:46Z</time>
      </trkpt>
      <trkpt lat="45.94766" lon="4.74112">
        <ele>189</ele>
        <time>2018-10-31T09:52:47Z</time>
      </trkpt>
      <trkpt lat="45.9477" lon="4.74117">
        <ele>189</ele>
        <time>2018-10-31T09:52:48Z</time>
      </trkpt>
      <trkpt lat="45.94773" lon="4.74121">
        <ele>189</ele>
        <time>2018-10-31T09:52:49Z</time>
      </trkpt>
      <trkpt lat="45.94777" lon="4.74127">
        <ele>189</ele>
        <time>2018-10-31T09:52:50Z</time>
      </trkpt>
      <trkpt lat="45.94781" lon="4.74134">
        <ele>189</ele>
        <time>2018-10-31T09:52:51Z</time>
      </trkpt>
      <trkpt lat="45.94784" lon="4.7414">
        <ele>189</ele>
        <time>2018-10-31T09:52:52Z</time>
      </trkpt>
      <trkpt lat="45.94788" lon="4.74145">
        <ele>189</ele>
        <time>2018-10-31T09:52:53Z</time>
      </trkpt>
      <trkpt lat="45.94791" lon="4.7415">
        <ele>189</ele>
        <time>2018-10-31T09:52:54Z</time>
      </trkpt>
      <trkpt lat="45.94794" lon="4.74156">
        <ele>189</ele>
        <time>2018-10-31T09:52:55Z</time>
      </trkpt>
      <trkpt lat="45.94797" lon="4.74161">
        <ele>189</ele>
        <time>2018-10-31T09:52:56Z</time>
      </trkpt>
      <trkpt lat="45.948" lon="4.74166">
        <ele>189</ele>
        <time>2018-10-31T09:52:57Z</time>
      </trkpt>
      <trkpt lat="45.94803" lon="4.74171">
        <ele>189</ele>
        <time>2018-10-31T09:52:58Z</time>
      </trkpt>
      <trkpt lat="45.94806" lon="4.74177">
        <ele>189</ele>
        <time>2018-10-31T09:52:59Z</time>
      </trkpt>
      <trkpt lat="45.94809" lon="4.74183">
        <ele>189</ele>
        <time>2018-10-31T09:53:00Z</time>
      </trkpt>
      <trkpt lat="45.94812" lon="4.74189">
        <ele>189</ele>
        <time>2018-10-31T09:53:01Z</time>
      </trkpt>
      <trkpt lat="45.94815" lon="4.74195">
        <ele>189</ele>
        <time>2018-10-31T09:53:02Z</time>
      </trkpt>
      <trkpt lat="45.94818" lon="4.74201">
        <ele>189</ele>
        <time>2018-10-31T09:53:03Z</time>
      </trkpt>
      <trkpt lat="45.94822" lon="4.74206">
        <ele>188</ele>
        <time>2018-10-31T09:53:04Z</time>
      </trkpt>
      <trkpt lat="45.94826" lon="4.74218">
        <ele>188</ele>
        <time>2018-10-31T09:53:06Z</time>
      </trkpt>
      <trkpt lat="45.9483" lon="4.74224">
        <ele>188</ele>
        <time>2018-10-31T09:53:07Z</time>
      </trkpt>
      <trkpt lat="45.94832" lon="4.7423">
        <ele>189</ele>
        <time>2018-10-31T09:53:08Z</time>
      </trkpt>
      <trkpt lat="45.94835" lon="4.74236">
        <ele>190</ele>
        <time>2018-10-31T09:53:09Z</time>
      </trkpt>
      <trkpt lat="45.94838" lon="4.74242">
        <ele>189</ele>
        <time>2018-10-31T09:53:10Z</time>
      </trkpt>
      <trkpt lat="45.94841" lon="4.74248">
        <ele>189</ele>
        <time>2018-10-31T09:53:11Z</time>
      </trkpt>
      <trkpt lat="45.94844" lon="4.74255">
        <ele>190</ele>
        <time>2018-10-31T09:53:12Z</time>
      </trkpt>
      <trkpt lat="45.94848" lon="4.7426">
        <ele>190</ele>
        <time>2018-10-31T09:53:13Z</time>
      </trkpt>
      <trkpt lat="45.94851" lon="4.74267">
        <ele>190</ele>
        <time>2018-10-31T09:53:14Z</time>
      </trkpt>
      <trkpt lat="45.94854" lon="4.74272">
        <ele>190</ele>
        <time>2018-10-31T09:53:15Z</time>
      </trkpt>
      <trkpt lat="45.94857" lon="4.74277">
        <ele>190</ele>
        <time>2018-10-31T09:53:16Z</time>
      </trkpt>
      <trkpt lat="45.9486" lon="4.74283">
        <ele>190</ele>
        <time>2018-10-31T09:53:17Z</time>
      </trkpt>
      <trkpt lat="45.94864" lon="4.74289">
        <ele>191</ele>
        <time>2018-10-31T09:53:18Z</time>
      </trkpt>
      <trkpt lat="45.94866" lon="4.74293">
        <ele>191</ele>
        <time>2018-10-31T09:53:19Z</time>
      </trkpt>
      <trkpt lat="45.94868" lon="4.74298">
        <ele>191</ele>
        <time>2018-10-31T09:53:20Z</time>
      </trkpt>
      <trkpt lat="45.94871" lon="4.74304">
        <ele>191</ele>
        <time>2018-10-31T09:53:21Z</time>
      </trkpt>
      <trkpt lat="45.94874" lon="4.7431">
        <ele>191</ele>
        <time>2018-10-31T09:53:22Z</time>
      </trkpt>
      <trkpt lat="45.94877" lon="4.74316">
        <ele>191</ele>
        <time>2018-10-31T09:53:23Z</time>
      </trkpt>
      <trkpt lat="45.94879" lon="4.74321">
        <ele>191</ele>
        <time>2018-10-31T09:53:24Z</time>
      </trkpt>
      <trkpt lat="45.94882" lon="4.74327">
        <ele>191</ele>
        <time>2018-10-31T09:53:25Z</time>
      </trkpt>
      <trkpt lat="45.94885" lon="4.74332">
        <ele>191</ele>
        <time>2018-10-31T09:53:26Z</time>
      </trkpt>
      <trkpt lat="45.94889" lon="4.74339">
        <ele>191</ele>
        <time>2018-10-31T09:53:27Z</time>
      </trkpt>
      <trkpt lat="45.94892" lon="4.74344">
        <ele>191</ele>
        <time>2018-10-31T09:53:28Z</time>
      </trkpt>
      <trkpt lat="45.94895" lon="4.7435">
        <ele>191</ele>
        <time>2018-10-31T09:53:29Z</time>
      </trkpt>
      <trkpt lat="45.94898" lon="4.74355">
        <ele>191</ele>
        <time>2018-10-31T09:53:30Z</time>
      </trkpt>
      <trkpt lat="45.94901" lon="4.7436">
        <ele>191</ele>
        <time>2018-10-31T09:53:31Z</time>
      </trkpt>
      <trkpt lat="45.94904" lon="4.74366">
        <ele>191</ele>
        <time>2018-10-31T09:53:32Z</time>
      </trkpt>
      <trkpt lat="45.94907" lon="4.74371">
        <ele>191</ele>
        <time>2018-10-31T09:53:33Z</time>
      </trkpt>
      <trkpt lat="45.9491" lon="4.74376">
        <ele>191</ele>
        <time>2018-10-31T09:53:34Z</time>
      </trkpt>
      <trkpt lat="45.94913" lon="4.74381">
        <ele>191</ele>
        <time>2018-10-31T09:53:35Z</time>
      </trkpt>
      <trkpt lat="45.94916" lon="4.74387">
        <ele>191</ele>
        <time>2018-10-31T09:53:36Z</time>
      </trkpt>
      <trkpt lat="45.94919" lon="4.74393">
        <ele>192</ele>
        <time>2018-10-31T09:53:37Z</time>
      </trkpt>
      <trkpt lat="45.94922" lon="4.74398">
        <ele>192</ele>
        <time>2018-10-31T09:53:38Z</time>
      </trkpt>
      <trkpt lat="45.94925" lon="4.74403">
        <ele>192</ele>
        <time>2018-10-31T09:53:39Z</time>
      </trkpt>
      <trkpt lat="45.94928" lon="4.74408">
        <ele>192</ele>
        <time>2018-10-31T09:53:40Z</time>
      </trkpt>
      <trkpt lat="45.94931" lon="4.74416">
        <ele>192</ele>
        <time>2018-10-31T09:53:41Z</time>
      </trkpt>
      <trkpt lat="45.94935" lon="4.74422">
        <ele>192</ele>
        <time>2018-10-31T09:53:42Z</time>
      </trkpt>
      <trkpt lat="45.94938" lon="4.74427">
        <ele>192</ele>
        <time>2018-10-31T09:53:43Z</time>
      </trkpt>
      <trkpt lat="45.94942" lon="4.74433">
        <ele>192</ele>
        <time>2018-10-31T09:53:44Z</time>
      </trkpt>
      <trkpt lat="45.94945" lon="4.74439">
        <ele>192</ele>
        <time>2018-10-31T09:53:45Z</time>
      </trkpt>
      <trkpt lat="45.94948" lon="4.74444">
        <ele>192</ele>
        <time>2018-10-31T09:53:46Z</time>
      </trkpt>
      <trkpt lat="45.94951" lon="4.7445">
        <ele>192</ele>
        <time>2018-10-31T09:53:47Z</time>
      </trkpt>
      <trkpt lat="45.94953" lon="4.74456">
        <ele>192</ele>
        <time>2018-10-31T09:53:48Z</time>
      </trkpt>
      <trkpt lat="45.94956" lon="4.74461">
        <ele>193</ele>
        <time>2018-10-31T09:53:49Z</time>
      </trkpt>
      <trkpt lat="45.94959" lon="4.74467">
        <ele>193</ele>
        <time>2018-10-31T09:53:50Z</time>
      </trkpt>
      <trkpt lat="45.94961" lon="4.74472">
        <ele>193</ele>
        <time>2018-10-31T09:53:51Z</time>
      </trkpt>
      <trkpt lat="45.94964" lon="4.74479">
        <ele>193</ele>
        <time>2018-10-31T09:53:52Z</time>
      </trkpt>
      <trkpt lat="45.94967" lon="4.74485">
        <ele>193</ele>
        <time>2018-10-31T09:53:53Z</time>
      </trkpt>
      <trkpt lat="45.9497" lon="4.7449">
        <ele>193</ele>
        <time>2018-10-31T09:53:54Z</time>
      </trkpt>
      <trkpt lat="45.94973" lon="4.74496">
        <ele>193</ele>
        <time>2018-10-31T09:53:55Z</time>
      </trkpt>
      <trkpt lat="45.94977" lon="4.74501">
        <ele>193</ele>
        <time>2018-10-31T09:53:56Z</time>
      </trkpt>
      <trkpt lat="45.9498" lon="4.74508">
        <ele>193</ele>
        <time>2018-10-31T09:53:57Z</time>
      </trkpt>
      <trkpt lat="45.94983" lon="4.74513">
        <ele>193</ele>
        <time>2018-10-31T09:53:58Z</time>
      </trkpt>
      <trkpt lat="45.94986" lon="4.74519">
        <ele>193</ele>
        <time>2018-10-31T09:53:59Z</time>
      </trkpt>
      <trkpt lat="45.9499" lon="4.74524">
        <ele>193</ele>
        <time>2018-10-31T09:54:00Z</time>
      </trkpt>
      <trkpt lat="45.94992" lon="4.7453">
        <ele>193</ele>
        <time>2018-10-31T09:54:01Z</time>
      </trkpt>
      <trkpt lat="45.94995" lon="4.74537">
        <ele>193</ele>
        <time>2018-10-31T09:54:02Z</time>
      </trkpt>
      <trkpt lat="45.94998" lon="4.74544">
        <ele>193</ele>
        <time>2018-10-31T09:54:03Z</time>
      </trkpt>
      <trkpt lat="45.95001" lon="4.74549">
        <ele>194</ele>
        <time>2018-10-31T09:54:04Z</time>
      </trkpt>
      <trkpt lat="45.95004" lon="4.74556">
        <ele>194</ele>
        <time>2018-10-31T09:54:05Z</time>
      </trkpt>
      <trkpt lat="45.95008" lon="4.74562">
        <ele>194</ele>
        <time>2018-10-31T09:54:06Z</time>
      </trkpt>
      <trkpt lat="45.9501" lon="4.74568">
        <ele>194</ele>
        <time>2018-10-31T09:54:07Z</time>
      </trkpt>
      <trkpt lat="45.95014" lon="4.74574">
        <ele>194</ele>
        <time>2018-10-31T09:54:08Z</time>
      </trkpt>
      <trkpt lat="45.95017" lon="4.7458">
        <ele>194</ele>
        <time>2018-10-31T09:54:09Z</time>
      </trkpt>
      <trkpt lat="45.9502" lon="4.74586">
        <ele>194</ele>
        <time>2018-10-31T09:54:10Z</time>
      </trkpt>
      <trkpt lat="45.95023" lon="4.74591">
        <ele>194</ele>
        <time>2018-10-31T09:54:11Z</time>
      </trkpt>
      <trkpt lat="45.95027" lon="4.74598">
        <ele>194</ele>
        <time>2018-10-31T09:54:12Z</time>
      </trkpt>
      <trkpt lat="45.95031" lon="4.74603">
        <ele>194</ele>
        <time>2018-10-31T09:54:13Z</time>
      </trkpt>
      <trkpt lat="45.95035" lon="4.74609">
        <ele>194</ele>
        <time>2018-10-31T09:54:14Z</time>
      </trkpt>
      <trkpt lat="45.95038" lon="4.74615">
        <ele>194</ele>
        <time>2018-10-31T09:54:15Z</time>
      </trkpt>
      <trkpt lat="45.95041" lon="4.74621">
        <ele>194</ele>
        <time>2018-10-31T09:54:16Z</time>
      </trkpt>
      <trkpt lat="45.95045" lon="4.74627">
        <ele>194</ele>
        <time>2018-10-31T09:54:17Z</time>
      </trkpt>
      <trkpt lat="45.95048" lon="4.74633">
        <ele>194</ele>
        <time>2018-10-31T09:54:18Z</time>
      </trkpt>
      <trkpt lat="45.95052" lon="4.7464">
        <ele>194</ele>
        <time>2018-10-31T09:54:19Z</time>
      </trkpt>
      <trkpt lat="45.95055" lon="4.74647">
        <ele>194</ele>
        <time>2018-10-31T09:54:20Z</time>
      </trkpt>
      <trkpt lat="45.95059" lon="4.74653">
        <ele>194</ele>
        <time>2018-10-31T09:54:21Z</time>
      </trkpt>
      <trkpt lat="45.95063" lon="4.74659">
        <ele>195</ele>
        <time>2018-10-31T09:54:22Z</time>
      </trkpt>
      <trkpt lat="45.95066" lon="4.74666">
        <ele>195</ele>
        <time>2018-10-31T09:54:23Z</time>
      </trkpt>
      <trkpt lat="45.9507" lon="4.74672">
        <ele>194</ele>
        <time>2018-10-31T09:54:24Z</time>
      </trkpt>
      <trkpt lat="45.95073" lon="4.7468">
        <ele>194</ele>
        <time>2018-10-31T09:54:25Z</time>
      </trkpt>
      <trkpt lat="45.95075" lon="4.74686">
        <ele>194</ele>
        <time>2018-10-31T09:54:26Z</time>
      </trkpt>
      <trkpt lat="45.95079" lon="4.74693">
        <ele>194</ele>
        <time>2018-10-31T09:54:27Z</time>
      </trkpt>
      <trkpt lat="45.95083" lon="4.74699">
        <ele>194</ele>
        <time>2018-10-31T09:54:28Z</time>
      </trkpt>
      <trkpt lat="45.95087" lon="4.74706">
        <ele>194</ele>
        <time>2018-10-31T09:54:29Z</time>
      </trkpt>
      <trkpt lat="45.9509" lon="4.74713">
        <ele>194</ele>
        <time>2018-10-31T09:54:30Z</time>
      </trkpt>
      <trkpt lat="45.95093" lon="4.74718">
        <ele>194</ele>
        <time>2018-10-31T09:54:31Z</time>
      </trkpt>
      <trkpt lat="45.95097" lon="4.74725">
        <ele>194</ele>
        <time>2018-10-31T09:54:32Z</time>
      </trkpt>
      <trkpt lat="45.951" lon="4.74731">
        <ele>194</ele>
        <time>2018-10-31T09:54:33Z</time>
      </trkpt>
      <trkpt lat="45.95104" lon="4.74737">
        <ele>194</ele>
        <time>2018-10-31T09:54:34Z</time>
      </trkpt>
      <trkpt lat="45.95107" lon="4.74744">
        <ele>194</ele>
        <time>2018-10-31T09:54:35Z</time>
      </trkpt>
      <trkpt lat="45.95111" lon="4.7475">
        <ele>194</ele>
        <time>2018-10-31T09:54:36Z</time>
      </trkpt>
      <trkpt lat="45.95115" lon="4.74756">
        <ele>194</ele>
        <time>2018-10-31T09:54:37Z</time>
      </trkpt>
      <trkpt lat="45.95118" lon="4.74761">
        <ele>194</ele>
        <time>2018-10-31T09:54:38Z</time>
      </trkpt>
      <trkpt lat="45.95121" lon="4.74766">
        <ele>194</ele>
        <time>2018-10-31T09:54:39Z</time>
      </trkpt>
      <trkpt lat="45.95124" lon="4.74771">
        <ele>194</ele>
        <time>2018-10-31T09:54:40Z</time>
      </trkpt>
      <trkpt lat="45.95128" lon="4.74777">
        <ele>194</ele>
        <time>2018-10-31T09:54:41Z</time>
      </trkpt>
      <trkpt lat="45.95131" lon="4.74782">
        <ele>194</ele>
        <time>2018-10-31T09:54:42Z</time>
      </trkpt>
      <trkpt lat="45.95134" lon="4.74788">
        <ele>194</ele>
        <time>2018-10-31T09:54:43Z</time>
      </trkpt>
      <trkpt lat="45.95138" lon="4.74794">
        <ele>194</ele>
        <time>2018-10-31T09:54:44Z</time>
      </trkpt>
      <trkpt lat="45.95142" lon="4.74801">
        <ele>194</ele>
        <time>2018-10-31T09:54:45Z</time>
      </trkpt>
      <trkpt lat="45.95146" lon="4.74806">
        <ele>194</ele>
        <time>2018-10-31T09:54:46Z</time>
      </trkpt>
      <trkpt lat="45.9515" lon="4.74812">
        <ele>194</ele>
        <time>2018-10-31T09:54:47Z</time>
      </trkpt>
      <trkpt lat="45.95155" lon="4.74819">
        <ele>194</ele>
        <time>2018-10-31T09:54:48Z</time>
      </trkpt>
      <trkpt lat="45.95158" lon="4.74825">
        <ele>194</ele>
        <time>2018-10-31T09:54:49Z</time>
      </trkpt>
      <trkpt lat="45.95162" lon="4.74832">
        <ele>194</ele>
        <time>2018-10-31T09:54:50Z</time>
      </trkpt>
      <trkpt lat="45.95166" lon="4.74838">
        <ele>194</ele>
        <time>2018-10-31T09:54:51Z</time>
      </trkpt>
      <trkpt lat="45.95169" lon="4.74844">
        <ele>194</ele>
        <time>2018-10-31T09:54:52Z</time>
      </trkpt>
      <trkpt lat="45.95174" lon="4.74851">
        <ele>194</ele>
        <time>2018-10-31T09:54:53Z</time>
      </trkpt>
      <trkpt lat="45.95178" lon="4.74857">
        <ele>194</ele>
        <time>2018-10-31T09:54:54Z</time>
      </trkpt>
      <trkpt lat="45.9518" lon="4.74863">
        <ele>194</ele>
        <time>2018-10-31T09:54:55Z</time>
      </trkpt>
      <trkpt lat="45.95184" lon="4.74869">
        <ele>194</ele>
        <time>2018-10-31T09:54:56Z</time>
      </trkpt>
      <trkpt lat="45.95187" lon="4.74875">
        <ele>194</ele>
        <time>2018-10-31T09:54:57Z</time>
      </trkpt>
      <trkpt lat="45.9519" lon="4.74881">
        <ele>194</ele>
        <time>2018-10-31T09:54:58Z</time>
      </trkpt>
      <trkpt lat="45.95194" lon="4.74887">
        <ele>194</ele>
        <time>2018-10-31T09:54:59Z</time>
      </trkpt>
      <trkpt lat="45.95198" lon="4.74893">
        <ele>194</ele>
        <time>2018-10-31T09:55:00Z</time>
      </trkpt>
      <trkpt lat="45.95202" lon="4.74899">
        <ele>194</ele>
        <time>2018-10-31T09:55:01Z</time>
      </trkpt>
      <trkpt lat="45.95206" lon="4.74905">
        <ele>194</ele>
        <time>2018-10-31T09:55:02Z</time>
      </trkpt>
      <trkpt lat="45.9521" lon="4.74912">
        <ele>193</ele>
        <time>2018-10-31T09:55:03Z</time>
      </trkpt>
      <trkpt lat="45.95214" lon="4.74917">
        <ele>193</ele>
        <time>2018-10-31T09:55:04Z</time>
      </trkpt>
      <trkpt lat="45.95218" lon="4.74923">
        <ele>192</ele>
        <time>2018-10-31T09:55:05Z</time>
      </trkpt>
      <trkpt lat="45.95221" lon="4.74928">
        <ele>192</ele>
        <time>2018-10-31T09:55:06Z</time>
      </trkpt>
      <trkpt lat="45.95224" lon="4.74933">
        <ele>192</ele>
        <time>2018-10-31T09:55:07Z</time>
      </trkpt>
      <trkpt lat="45.95228" lon="4.7494">
        <ele>192</ele>
        <time>2018-10-31T09:55:08Z</time>
      </trkpt>
      <trkpt lat="45.95233" lon="4.74946">
        <ele>192</ele>
        <time>2018-10-31T09:55:09Z</time>
      </trkpt>
      <trkpt lat="45.95237" lon="4.74952">
        <ele>192</ele>
        <time>2018-10-31T09:55:10Z</time>
      </trkpt>
      <trkpt lat="45.95241" lon="4.74959">
        <ele>191</ele>
        <time>2018-10-31T09:55:11Z</time>
      </trkpt>
      <trkpt lat="45.95244" lon="4.74964">
        <ele>191</ele>
        <time>2018-10-31T09:55:12Z</time>
      </trkpt>
      <trkpt lat="45.95248" lon="4.7497">
        <ele>191</ele>
        <time>2018-10-31T09:55:13Z</time>
      </trkpt>
      <trkpt lat="45.95252" lon="4.74976">
        <ele>192</ele>
        <time>2018-10-31T09:55:14Z</time>
      </trkpt>
      <trkpt lat="45.95257" lon="4.74982">
        <ele>192</ele>
        <time>2018-10-31T09:55:15Z</time>
      </trkpt>
      <trkpt lat="45.95261" lon="4.74989">
        <ele>192</ele>
        <time>2018-10-31T09:55:16Z</time>
      </trkpt>
      <trkpt lat="45.95265" lon="4.74995">
        <ele>192</ele>
        <time>2018-10-31T09:55:17Z</time>
      </trkpt>
      <trkpt lat="45.95269" lon="4.75001">
        <ele>191</ele>
        <time>2018-10-31T09:55:18Z</time>
      </trkpt>
      <trkpt lat="45.95272" lon="4.75007">
        <ele>191</ele>
        <time>2018-10-31T09:55:19Z</time>
      </trkpt>
      <trkpt lat="45.95276" lon="4.75013">
        <ele>191</ele>
        <time>2018-10-31T09:55:20Z</time>
      </trkpt>
      <trkpt lat="45.95281" lon="4.75019">
        <ele>191</ele>
        <time>2018-10-31T09:55:21Z</time>
      </trkpt>
      <trkpt lat="45.95285" lon="4.75025">
        <ele>191</ele>
        <time>2018-10-31T09:55:22Z</time>
      </trkpt>
      <trkpt lat="45.9529" lon="4.75031">
        <ele>191</ele>
        <time>2018-10-31T09:55:23Z</time>
      </trkpt>
      <trkpt lat="45.95294" lon="4.75039">
        <ele>191</ele>
        <time>2018-10-31T09:55:24Z</time>
      </trkpt>
      <trkpt lat="45.95299" lon="4.75046">
        <ele>191</ele>
        <time>2018-10-31T09:55:25Z</time>
      </trkpt>
      <trkpt lat="45.95303" lon="4.75053">
        <ele>191</ele>
        <time>2018-10-31T09:55:26Z</time>
      </trkpt>
      <trkpt lat="45.95307" lon="4.75059">
        <ele>192</ele>
        <time>2018-10-31T09:55:27Z</time>
      </trkpt>
      <trkpt lat="45.95311" lon="4.75066">
        <ele>192</ele>
        <time>2018-10-31T09:55:28Z</time>
      </trkpt>
      <trkpt lat="45.95315" lon="4.75072">
        <ele>192</ele>
        <time>2018-10-31T09:55:29Z</time>
      </trkpt>
      <trkpt lat="45.95319" lon="4.75079">
        <ele>192</ele>
        <time>2018-10-31T09:55:30Z</time>
      </trkpt>
      <trkpt lat="45.95323" lon="4.75085">
        <ele>191</ele>
        <time>2018-10-31T09:55:31Z</time>
      </trkpt>
      <trkpt lat="45.95327" lon="4.75091">
        <ele>191</ele>
        <time>2018-10-31T09:55:32Z</time>
      </trkpt>
      <trkpt lat="45.95331" lon="4.75097">
        <ele>191</ele>
        <time>2018-10-31T09:55:33Z</time>
      </trkpt>
      <trkpt lat="45.95334" lon="4.75103">
        <ele>192</ele>
        <time>2018-10-31T09:55:34Z</time>
      </trkpt>
      <trkpt lat="45.95338" lon="4.75109">
        <ele>192</ele>
        <time>2018-10-31T09:55:35Z</time>
      </trkpt>
      <trkpt lat="45.95342" lon="4.75115">
        <ele>192</ele>
        <time>2018-10-31T09:55:36Z</time>
      </trkpt>
      <trkpt lat="45.95346" lon="4.75121">
        <ele>191</ele>
        <time>2018-10-31T09:55:37Z</time>
      </trkpt>
      <trkpt lat="45.9535" lon="4.75127">
        <ele>191</ele>
        <time>2018-10-31T09:55:38Z</time>
      </trkpt>
      <trkpt lat="45.95353" lon="4.75133">
        <ele>191</ele>
        <time>2018-10-31T09:55:39Z</time>
      </trkpt>
      <trkpt lat="45.95358" lon="4.7514">
        <ele>191</ele>
        <time>2018-10-31T09:55:40Z</time>
      </trkpt>
      <trkpt lat="45.95362" lon="4.75146">
        <ele>191</ele>
        <time>2018-10-31T09:55:41Z</time>
      </trkpt>
      <trkpt lat="45.95366" lon="4.75153">
        <ele>191</ele>
        <time>2018-10-31T09:55:42Z</time>
      </trkpt>
      <trkpt lat="45.95372" lon="4.7516">
        <ele>191</ele>
        <time>2018-10-31T09:55:43Z</time>
      </trkpt>
      <trkpt lat="45.95376" lon="4.75167">
        <ele>191</ele>
        <time>2018-10-31T09:55:44Z</time>
      </trkpt>
      <trkpt lat="45.9538" lon="4.75174">
        <ele>189</ele>
        <time>2018-10-31T09:55:45Z</time>
      </trkpt>
      <trkpt lat="45.95384" lon="4.75179">
        <ele>189</ele>
        <time>2018-10-31T09:55:46Z</time>
      </trkpt>
      <trkpt lat="45.95388" lon="4.75186">
        <ele>189</ele>
        <time>2018-10-31T09:55:47Z</time>
      </trkpt>
      <trkpt lat="45.95391" lon="4.75192">
        <ele>189</ele>
        <time>2018-10-31T09:55:48Z</time>
      </trkpt>
      <trkpt lat="45.95395" lon="4.75199">
        <ele>189</ele>
        <time>2018-10-31T09:55:49Z</time>
      </trkpt>
      <trkpt lat="45.95399" lon="4.75204">
        <ele>189</ele>
        <time>2018-10-31T09:55:50Z</time>
      </trkpt>
      <trkpt lat="45.95402" lon="4.75211">
        <ele>189</ele>
        <time>2018-10-31T09:55:51Z</time>
      </trkpt>
      <trkpt lat="45.95406" lon="4.75218">
        <ele>189</ele>
        <time>2018-10-31T09:55:52Z</time>
      </trkpt>
      <trkpt lat="45.9541" lon="4.75224">
        <ele>189</ele>
        <time>2018-10-31T09:55:53Z</time>
      </trkpt>
      <trkpt lat="45.95414" lon="4.75231">
        <ele>189</ele>
        <time>2018-10-31T09:55:54Z</time>
      </trkpt>
      <trkpt lat="45.95418" lon="4.75238">
        <ele>190</ele>
        <time>2018-10-31T09:55:55Z</time>
      </trkpt>
      <trkpt lat="45.95421" lon="4.75245">
        <ele>190</ele>
        <time>2018-10-31T09:55:56Z</time>
      </trkpt>
      <trkpt lat="45.95425" lon="4.75252">
        <ele>189</ele>
        <time>2018-10-31T09:55:57Z</time>
      </trkpt>
      <trkpt lat="45.95429" lon="4.75259">
        <ele>189</ele>
        <time>2018-10-31T09:55:58Z</time>
      </trkpt>
      <trkpt lat="45.95432" lon="4.75266">
        <ele>189</ele>
        <time>2018-10-31T09:55:59Z</time>
      </trkpt>
      <trkpt lat="45.95436" lon="4.75272">
        <ele>189</ele>
        <time>2018-10-31T09:56:00Z</time>
      </trkpt>
      <trkpt lat="45.9544" lon="4.7528">
        <ele>188</ele>
        <time>2018-10-31T09:56:01Z</time>
      </trkpt>
      <trkpt lat="45.95443" lon="4.75286">
        <ele>188</ele>
        <time>2018-10-31T09:56:02Z</time>
      </trkpt>
      <trkpt lat="45.95447" lon="4.75293">
        <ele>188</ele>
        <time>2018-10-31T09:56:03Z</time>
      </trkpt>
      <trkpt lat="45.95452" lon="4.753">
        <ele>188</ele>
        <time>2018-10-31T09:56:04Z</time>
      </trkpt>
      <trkpt lat="45.95457" lon="4.75307">
        <ele>188</ele>
        <time>2018-10-31T09:56:05Z</time>
      </trkpt>
      <trkpt lat="45.9546" lon="4.75315">
        <ele>188</ele>
        <time>2018-10-31T09:56:06Z</time>
      </trkpt>
      <trkpt lat="45.95464" lon="4.75322">
        <ele>188</ele>
        <time>2018-10-31T09:56:07Z</time>
      </trkpt>
      <trkpt lat="45.95468" lon="4.75329">
        <ele>188</ele>
        <time>2018-10-31T09:56:08Z</time>
      </trkpt>
      <trkpt lat="45.95471" lon="4.75335">
        <ele>186</ele>
        <time>2018-10-31T09:56:09Z</time>
      </trkpt>
      <trkpt lat="45.95475" lon="4.75342">
        <ele>186</ele>
        <time>2018-10-31T09:56:10Z</time>
      </trkpt>
      <trkpt lat="45.95478" lon="4.75349">
        <ele>186</ele>
        <time>2018-10-31T09:56:11Z</time>
      </trkpt>
      <trkpt lat="45.95482" lon="4.75356">
        <ele>186</ele>
        <time>2018-10-31T09:56:12Z</time>
      </trkpt>
      <trkpt lat="45.95485" lon="4.75364">
        <ele>186</ele>
        <time>2018-10-31T09:56:13Z</time>
      </trkpt>
      <trkpt lat="45.95489" lon="4.75371">
        <ele>185</ele>
        <time>2018-10-31T09:56:14Z</time>
      </trkpt>
      <trkpt lat="45.95492" lon="4.75378">
        <ele>185</ele>
        <time>2018-10-31T09:56:15Z</time>
      </trkpt>
      <trkpt lat="45.95495" lon="4.75386">
        <ele>185</ele>
        <time>2018-10-31T09:56:16Z</time>
      </trkpt>
      <trkpt lat="45.95498" lon="4.75393">
        <ele>185</ele>
        <time>2018-10-31T09:56:17Z</time>
      </trkpt>
      <trkpt lat="45.95501" lon="4.75402">
        <ele>187</ele>
        <time>2018-10-31T09:56:18Z</time>
      </trkpt>
      <trkpt lat="45.95502" lon="4.7541">
        <ele>186</ele>
        <time>2018-10-31T09:56:19Z</time>
      </trkpt>
      <trkpt lat="45.95504" lon="4.75418">
        <ele>185</ele>
        <time>2018-10-31T09:56:20Z</time>
      </trkpt>
      <trkpt lat="45.95506" lon="4.75427">
        <ele>186</ele>
        <time>2018-10-31T09:56:21Z</time>
      </trkpt>
      <trkpt lat="45.95507" lon="4.75435">
        <ele>186</ele>
        <time>2018-10-31T09:56:22Z</time>
      </trkpt>
      <trkpt lat="45.95507" lon="4.75444">
        <ele>186</ele>
        <time>2018-10-31T09:56:23Z</time>
      </trkpt>
      <trkpt lat="45.95508" lon="4.75453">
        <ele>187</ele>
        <time>2018-10-31T09:56:24Z</time>
      </trkpt>
      <trkpt lat="45.95508" lon="4.75462">
        <ele>186</ele>
        <time>2018-10-31T09:56:25Z</time>
      </trkpt>
      <trkpt lat="45.95508" lon="4.75472">
        <ele>186</ele>
        <time>2018-10-31T09:56:26Z</time>
      </trkpt>
      <trkpt lat="45.95509" lon="4.75481">
        <ele>186</ele>
        <time>2018-10-31T09:56:27Z</time>
      </trkpt>
      <trkpt lat="45.95511" lon="4.75489">
        <ele>186</ele>
        <time>2018-10-31T09:56:28Z</time>
      </trkpt>
      <trkpt lat="45.95514" lon="4.75495">
        <ele>186</ele>
        <time>2018-10-31T09:56:29Z</time>
      </trkpt>
      <trkpt lat="45.95519" lon="4.755">
        <ele>186</ele>
        <time>2018-10-31T09:56:30Z</time>
      </trkpt>
      <trkpt lat="45.95522" lon="4.75502">
        <ele>185</ele>
        <time>2018-10-31T09:56:31Z</time>
      </trkpt>
      <trkpt lat="45.95527" lon="4.75505">
        <ele>185</ele>
        <time>2018-10-31T09:56:32Z</time>
      </trkpt>
      <trkpt lat="45.95531" lon="4.75508">
        <ele>185</ele>
        <time>2018-10-31T09:56:33Z</time>
      </trkpt>
      <trkpt lat="45.95535" lon="4.75512">
        <ele>186</ele>
        <time>2018-10-31T09:56:34Z</time>
      </trkpt>
      <trkpt lat="45.95539" lon="4.75516">
        <ele>186</ele>
        <time>2018-10-31T09:56:35Z</time>
      </trkpt>
      <trkpt lat="45.95544" lon="4.75522">
        <ele>186</ele>
        <time>2018-10-31T09:56:36Z</time>
      </trkpt>
      <trkpt lat="45.95548" lon="4.75526">
        <ele>186</ele>
        <time>2018-10-31T09:56:37Z</time>
      </trkpt>
      <trkpt lat="45.95553" lon="4.75531">
        <ele>186</ele>
        <time>2018-10-31T09:56:38Z</time>
      </trkpt>
      <trkpt lat="45.95558" lon="4.75535">
        <ele>186</ele>
        <time>2018-10-31T09:56:39Z</time>
      </trkpt>
      <trkpt lat="45.95563" lon="4.7554">
        <ele>186</ele>
        <time>2018-10-31T09:56:40Z</time>
      </trkpt>
      <trkpt lat="45.95567" lon="4.75545">
        <ele>186</ele>
        <time>2018-10-31T09:56:41Z</time>
      </trkpt>
      <trkpt lat="45.95572" lon="4.7555">
        <ele>186</ele>
        <time>2018-10-31T09:56:42Z</time>
      </trkpt>
      <trkpt lat="45.95577" lon="4.75555">
        <ele>186</ele>
        <time>2018-10-31T09:56:43Z</time>
      </trkpt>
      <trkpt lat="45.95581" lon="4.75561">
        <ele>186</ele>
        <time>2018-10-31T09:56:44Z</time>
      </trkpt>
      <trkpt lat="45.95584" lon="4.75568">
        <ele>188</ele>
        <time>2018-10-31T09:56:45Z</time>
      </trkpt>
      <trkpt lat="45.95588" lon="4.75574">
        <ele>187</ele>
        <time>2018-10-31T09:56:46Z</time>
      </trkpt>
      <trkpt lat="45.95591" lon="4.7558">
        <ele>187</ele>
        <time>2018-10-31T09:56:47Z</time>
      </trkpt>
      <trkpt lat="45.95594" lon="4.75588">
        <ele>187</ele>
        <time>2018-10-31T09:56:48Z</time>
      </trkpt>
      <trkpt lat="45.95598" lon="4.75594">
        <ele>187</ele>
        <time>2018-10-31T09:56:49Z</time>
      </trkpt>
      <trkpt lat="45.95601" lon="4.75601">
        <ele>187</ele>
        <time>2018-10-31T09:56:50Z</time>
      </trkpt>
      <trkpt lat="45.95603" lon="4.75607">
        <ele>187</ele>
        <time>2018-10-31T09:56:51Z</time>
      </trkpt>
      <trkpt lat="45.95605" lon="4.75614">
        <ele>188</ele>
        <time>2018-10-31T09:56:52Z</time>
      </trkpt>
      <trkpt lat="45.95606" lon="4.75621">
        <ele>188</ele>
        <time>2018-10-31T09:56:53Z</time>
      </trkpt>
      <trkpt lat="45.95608" lon="4.75628">
        <ele>188</ele>
        <time>2018-10-31T09:56:54Z</time>
      </trkpt>
      <trkpt lat="45.9561" lon="4.75637">
        <ele>188</ele>
        <time>2018-10-31T09:56:55Z</time>
      </trkpt>
      <trkpt lat="45.95611" lon="4.75644">
        <ele>188</ele>
        <time>2018-10-31T09:56:56Z</time>
      </trkpt>
      <trkpt lat="45.95613" lon="4.75652">
        <ele>188</ele>
        <time>2018-10-31T09:56:57Z</time>
      </trkpt>
      <trkpt lat="45.95615" lon="4.75661">
        <ele>188</ele>
        <time>2018-10-31T09:56:58Z</time>
      </trkpt>
      <trkpt lat="45.95617" lon="4.75672">
        <ele>187</ele>
        <time>2018-10-31T09:56:59Z</time>
      </trkpt>
      <trkpt lat="45.95618" lon="4.75681">
        <ele>187</ele>
        <time>2018-10-31T09:57:00Z</time>
      </trkpt>
      <trkpt lat="45.9562" lon="4.75689">
        <ele>187</ele>
        <time>2018-10-31T09:57:01Z</time>
      </trkpt>
      <trkpt lat="45.95621" lon="4.75698">
        <ele>187</ele>
        <time>2018-10-31T09:57:02Z</time>
      </trkpt>
      <trkpt lat="45.95623" lon="4.75708">
        <ele>187</ele>
        <time>2018-10-31T09:57:03Z</time>
      </trkpt>
      <trkpt lat="45.95624" lon="4.75717">
        <ele>187</ele>
        <time>2018-10-31T09:57:04Z</time>
      </trkpt>
      <trkpt lat="45.95626" lon="4.75725">
        <ele>187</ele>
        <time>2018-10-31T09:57:05Z</time>
      </trkpt>
      <trkpt lat="45.95626" lon="4.75733">
        <ele>187</ele>
        <time>2018-10-31T09:57:06Z</time>
      </trkpt>
      <trkpt lat="45.95628" lon="4.75741">
        <ele>187</ele>
        <time>2018-10-31T09:57:07Z</time>
      </trkpt>
      <trkpt lat="45.95629" lon="4.75749">
        <ele>187</ele>
        <time>2018-10-31T09:57:08Z</time>
      </trkpt>
      <trkpt lat="45.9563" lon="4.75756">
        <ele>186</ele>
        <time>2018-10-31T09:57:09Z</time>
      </trkpt>
      <trkpt lat="45.95631" lon="4.75764">
        <ele>185</ele>
        <time>2018-10-31T09:57:10Z</time>
      </trkpt>
      <trkpt lat="45.95632" lon="4.75773">
        <ele>185</ele>
        <time>2018-10-31T09:57:11Z</time>
      </trkpt>
      <trkpt lat="45.95634" lon="4.75781">
        <ele>185</ele>
        <time>2018-10-31T09:57:12Z</time>
      </trkpt>
      <trkpt lat="45.95635" lon="4.7579">
        <ele>185</ele>
        <time>2018-10-31T09:57:13Z</time>
      </trkpt>
      <trkpt lat="45.95637" lon="4.75798">
        <ele>185</ele>
        <time>2018-10-31T09:57:14Z</time>
      </trkpt>
      <trkpt lat="45.95638" lon="4.75806">
        <ele>185</ele>
        <time>2018-10-31T09:57:15Z</time>
      </trkpt>
      <trkpt lat="45.9564" lon="4.75814">
        <ele>185</ele>
        <time>2018-10-31T09:57:16Z</time>
      </trkpt>
      <trkpt lat="45.95642" lon="4.75823">
        <ele>185</ele>
        <time>2018-10-31T09:57:17Z</time>
      </trkpt>
      <trkpt lat="45.95644" lon="4.75831">
        <ele>185</ele>
        <time>2018-10-31T09:57:18Z</time>
      </trkpt>
      <trkpt lat="45.95647" lon="4.75839">
        <ele>185</ele>
        <time>2018-10-31T09:57:19Z</time>
      </trkpt>
      <trkpt lat="45.95649" lon="4.75848">
        <ele>184</ele>
        <time>2018-10-31T09:57:20Z</time>
      </trkpt>
      <trkpt lat="45.95651" lon="4.75856">
        <ele>184</ele>
        <time>2018-10-31T09:57:21Z</time>
      </trkpt>
      <trkpt lat="45.95652" lon="4.75863">
        <ele>184</ele>
        <time>2018-10-31T09:57:22Z</time>
      </trkpt>
      <trkpt lat="45.95654" lon="4.75871">
        <ele>184</ele>
        <time>2018-10-31T09:57:23Z</time>
      </trkpt>
      <trkpt lat="45.95656" lon="4.75879">
        <ele>184</ele>
        <time>2018-10-31T09:57:24Z</time>
      </trkpt>
      <trkpt lat="45.95659" lon="4.75886">
        <ele>184</ele>
        <time>2018-10-31T09:57:25Z</time>
      </trkpt>
      <trkpt lat="45.95661" lon="4.75892">
        <ele>184</ele>
        <time>2018-10-31T09:57:26Z</time>
      </trkpt>
      <trkpt lat="45.95664" lon="4.75899">
        <ele>184</ele>
        <time>2018-10-31T09:57:27Z</time>
      </trkpt>
      <trkpt lat="45.95667" lon="4.75906">
        <ele>185</ele>
        <time>2018-10-31T09:57:28Z</time>
      </trkpt>
      <trkpt lat="45.9567" lon="4.75913">
        <ele>184</ele>
        <time>2018-10-31T09:57:29Z</time>
      </trkpt>
      <trkpt lat="45.95673" lon="4.75921">
        <ele>184</ele>
        <time>2018-10-31T09:57:30Z</time>
      </trkpt>
      <trkpt lat="45.95676" lon="4.75927">
        <ele>185</ele>
        <time>2018-10-31T09:57:31Z</time>
      </trkpt>
      <trkpt lat="45.95679" lon="4.75936">
        <ele>185</ele>
        <time>2018-10-31T09:57:32Z</time>
      </trkpt>
      <trkpt lat="45.95683" lon="4.75943">
        <ele>185</ele>
        <time>2018-10-31T09:57:33Z</time>
      </trkpt>
      <trkpt lat="45.95686" lon="4.7595">
        <ele>185</ele>
        <time>2018-10-31T09:57:34Z</time>
      </trkpt>
      <trkpt lat="45.95689" lon="4.75958">
        <ele>185</ele>
        <time>2018-10-31T09:57:35Z</time>
      </trkpt>
      <trkpt lat="45.95693" lon="4.75967">
        <ele>185</ele>
        <time>2018-10-31T09:57:36Z</time>
      </trkpt>
      <trkpt lat="45.95697" lon="4.75975">
        <ele>185</ele>
        <time>2018-10-31T09:57:37Z</time>
      </trkpt>
      <trkpt lat="45.95701" lon="4.75983">
        <ele>185</ele>
        <time>2018-10-31T09:57:38Z</time>
      </trkpt>
      <trkpt lat="45.95706" lon="4.75991">
        <ele>185</ele>
        <time>2018-10-31T09:57:39Z</time>
      </trkpt>
      <trkpt lat="45.95711" lon="4.75998">
        <ele>185</ele>
        <time>2018-10-31T09:57:40Z</time>
      </trkpt>
      <trkpt lat="45.95714" lon="4.76005">
        <ele>184</ele>
        <time>2018-10-31T09:57:41Z</time>
      </trkpt>
      <trkpt lat="45.95717" lon="4.76012">
        <ele>184</ele>
        <time>2018-10-31T09:57:42Z</time>
      </trkpt>
      <trkpt lat="45.9572" lon="4.76019">
        <ele>184</ele>
        <time>2018-10-31T09:57:43Z</time>
      </trkpt>
      <trkpt lat="45.95723" lon="4.76025">
        <ele>184</ele>
        <time>2018-10-31T09:57:44Z</time>
      </trkpt>
      <trkpt lat="45.95726" lon="4.76031">
        <ele>184</ele>
        <time>2018-10-31T09:57:45Z</time>
      </trkpt>
      <trkpt lat="45.95731" lon="4.76041">
        <ele>184</ele>
        <time>2018-10-31T09:57:47Z</time>
      </trkpt>
      <trkpt lat="45.95735" lon="4.76048">
        <ele>184</ele>
        <time>2018-10-31T09:57:48Z</time>
      </trkpt>
      <trkpt lat="45.95739" lon="4.76059">
        <ele>184</ele>
        <time>2018-10-31T09:57:50Z</time>
      </trkpt>
      <trkpt lat="45.95742" lon="4.76066">
        <ele>185</ele>
        <time>2018-10-31T09:57:51Z</time>
      </trkpt>
      <trkpt lat="45.95746" lon="4.76071">
        <ele>185</ele>
        <time>2018-10-31T09:57:52Z</time>
      </trkpt>
      <trkpt lat="45.95748" lon="4.76077">
        <ele>185</ele>
        <time>2018-10-31T09:57:53Z</time>
      </trkpt>
      <trkpt lat="45.95751" lon="4.76083">
        <ele>185</ele>
        <time>2018-10-31T09:57:54Z</time>
      </trkpt>
      <trkpt lat="45.95754" lon="4.76091">
        <ele>185</ele>
        <time>2018-10-31T09:57:55Z</time>
      </trkpt>
      <trkpt lat="45.95756" lon="4.76097">
        <ele>186</ele>
        <time>2018-10-31T09:57:56Z</time>
      </trkpt>
      <trkpt lat="45.95757" lon="4.76104">
        <ele>186</ele>
        <time>2018-10-31T09:57:57Z</time>
      </trkpt>
      <trkpt lat="45.95759" lon="4.7611">
        <ele>186</ele>
        <time>2018-10-31T09:57:58Z</time>
      </trkpt>
      <trkpt lat="45.9576" lon="4.76118">
        <ele>186</ele>
        <time>2018-10-31T09:57:59Z</time>
      </trkpt>
      <trkpt lat="45.95761" lon="4.76125">
        <ele>186</ele>
        <time>2018-10-31T09:58:00Z</time>
      </trkpt>
      <trkpt lat="45.95762" lon="4.76133">
        <ele>186</ele>
        <time>2018-10-31T09:58:01Z</time>
      </trkpt>
      <trkpt lat="45.95762" lon="4.7614">
        <ele>186</ele>
        <time>2018-10-31T09:58:02Z</time>
      </trkpt>
      <trkpt lat="45.95763" lon="4.76147">
        <ele>186</ele>
        <time>2018-10-31T09:58:03Z</time>
      </trkpt>
      <trkpt lat="45.95764" lon="4.76154">
        <ele>186</ele>
        <time>2018-10-31T09:58:04Z</time>
      </trkpt>
      <trkpt lat="45.95765" lon="4.76162">
        <ele>186</ele>
        <time>2018-10-31T09:58:05Z</time>
      </trkpt>
      <trkpt lat="45.95766" lon="4.7617">
        <ele>185</ele>
        <time>2018-10-31T09:58:06Z</time>
      </trkpt>
      <trkpt lat="45.95766" lon="4.76177">
        <ele>186</ele>
        <time>2018-10-31T09:58:07Z</time>
      </trkpt>
      <trkpt lat="45.95766" lon="4.76185">
        <ele>186</ele>
        <time>2018-10-31T09:58:08Z</time>
      </trkpt>
      <trkpt lat="45.95765" lon="4.76193">
        <ele>186</ele>
        <time>2018-10-31T09:58:09Z</time>
      </trkpt>
      <trkpt lat="45.95766" lon="4.762">
        <ele>186</ele>
        <time>2018-10-31T09:58:10Z</time>
      </trkpt>
      <trkpt lat="45.95766" lon="4.76209">
        <ele>186</ele>
        <time>2018-10-31T09:58:11Z</time>
      </trkpt>
      <trkpt lat="45.95768" lon="4.76216">
        <ele>186</ele>
        <time>2018-10-31T09:58:12Z</time>
      </trkpt>
      <trkpt lat="45.9577" lon="4.76222">
        <ele>186</ele>
        <time>2018-10-31T09:58:13Z</time>
      </trkpt>
      <trkpt lat="45.95771" lon="4.76229">
        <ele>186</ele>
        <time>2018-10-31T09:58:14Z</time>
      </trkpt>
      <trkpt lat="45.95771" lon="4.76237">
        <ele>186</ele>
        <time>2018-10-31T09:58:15Z</time>
      </trkpt>
      <trkpt lat="45.95772" lon="4.76246">
        <ele>186</ele>
        <time>2018-10-31T09:58:16Z</time>
      </trkpt>
      <trkpt lat="45.95772" lon="4.76253">
        <ele>186</ele>
        <time>2018-10-31T09:58:17Z</time>
      </trkpt>
      <trkpt lat="45.95772" lon="4.7626">
        <ele>186</ele>
        <time>2018-10-31T09:58:18Z</time>
      </trkpt>
      <trkpt lat="45.95773" lon="4.76268">
        <ele>186</ele>
        <time>2018-10-31T09:58:19Z</time>
      </trkpt>
      <trkpt lat="45.95773" lon="4.76276">
        <ele>186</ele>
        <time>2018-10-31T09:58:20Z</time>
      </trkpt>
      <trkpt lat="45.95774" lon="4.76283">
        <ele>186</ele>
        <time>2018-10-31T09:58:21Z</time>
      </trkpt>
      <trkpt lat="45.95774" lon="4.76291">
        <ele>186</ele>
        <time>2018-10-31T09:58:22Z</time>
      </trkpt>
      <trkpt lat="45.95774" lon="4.76299">
        <ele>186</ele>
        <time>2018-10-31T09:58:23Z</time>
      </trkpt>
      <trkpt lat="45.95775" lon="4.76306">
        <ele>186</ele>
        <time>2018-10-31T09:58:24Z</time>
      </trkpt>
      <trkpt lat="45.95776" lon="4.76314">
        <ele>186</ele>
        <time>2018-10-31T09:58:25Z</time>
      </trkpt>
      <trkpt lat="45.95776" lon="4.76321">
        <ele>186</ele>
        <time>2018-10-31T09:58:26Z</time>
      </trkpt>
      <trkpt lat="45.95776" lon="4.76328">
        <ele>185</ele>
        <time>2018-10-31T09:58:27Z</time>
      </trkpt>
      <trkpt lat="45.95776" lon="4.76335">
        <ele>186</ele>
        <time>2018-10-31T09:58:28Z</time>
      </trkpt>
      <trkpt lat="45.95776" lon="4.76342">
        <ele>186</ele>
        <time>2018-10-31T09:58:29Z</time>
      </trkpt>
      <trkpt lat="45.95776" lon="4.7635">
        <ele>186</ele>
        <time>2018-10-31T09:58:30Z</time>
      </trkpt>
      <trkpt lat="45.95777" lon="4.76357">
        <ele>186</ele>
        <time>2018-10-31T09:58:31Z</time>
      </trkpt>
      <trkpt lat="45.95777" lon="4.76366">
        <ele>186</ele>
        <time>2018-10-31T09:58:32Z</time>
      </trkpt>
      <trkpt lat="45.95778" lon="4.76373">
        <ele>186</ele>
        <time>2018-10-31T09:58:33Z</time>
      </trkpt>
      <trkpt lat="45.95778" lon="4.7638">
        <ele>186</ele>
        <time>2018-10-31T09:58:34Z</time>
      </trkpt>
      <trkpt lat="45.95778" lon="4.76388">
        <ele>186</ele>
        <time>2018-10-31T09:58:35Z</time>
      </trkpt>
      <trkpt lat="45.95779" lon="4.76396">
        <ele>186</ele>
        <time>2018-10-31T09:58:36Z</time>
      </trkpt>
      <trkpt lat="45.9578" lon="4.76403">
        <ele>186</ele>
        <time>2018-10-31T09:58:37Z</time>
      </trkpt>
      <trkpt lat="45.9578" lon="4.76411">
        <ele>186</ele>
        <time>2018-10-31T09:58:38Z</time>
      </trkpt>
      <trkpt lat="45.95781" lon="4.76418">
        <ele>186</ele>
        <time>2018-10-31T09:58:39Z</time>
      </trkpt>
      <trkpt lat="45.95782" lon="4.76426">
        <ele>186</ele>
        <time>2018-10-31T09:58:40Z</time>
      </trkpt>
      <trkpt lat="45.95782" lon="4.76433">
        <ele>186</ele>
        <time>2018-10-31T09:58:41Z</time>
      </trkpt>
      <trkpt lat="45.95783" lon="4.76441">
        <ele>186</ele>
        <time>2018-10-31T09:58:42Z</time>
      </trkpt>
      <trkpt lat="45.95784" lon="4.76449">
        <ele>186</ele>
        <time>2018-10-31T09:58:43Z</time>
      </trkpt>
      <trkpt lat="45.95784" lon="4.76456">
        <ele>186</ele>
        <time>2018-10-31T09:58:44Z</time>
      </trkpt>
      <trkpt lat="45.95785" lon="4.76464">
        <ele>186</ele>
        <time>2018-10-31T09:58:45Z</time>
      </trkpt>
      <trkpt lat="45.95787" lon="4.76471">
        <ele>186</ele>
        <time>2018-10-31T09:58:46Z</time>
      </trkpt>
      <trkpt lat="45.95787" lon="4.7648">
        <ele>186</ele>
        <time>2018-10-31T09:58:47Z</time>
      </trkpt>
      <trkpt lat="45.95789" lon="4.76487">
        <ele>186</ele>
        <time>2018-10-31T09:58:48Z</time>
      </trkpt>
      <trkpt lat="45.9579" lon="4.76495">
        <ele>186</ele>
        <time>2018-10-31T09:58:49Z</time>
      </trkpt>
      <trkpt lat="45.95791" lon="4.76502">
        <ele>187</ele>
        <time>2018-10-31T09:58:50Z</time>
      </trkpt>
      <trkpt lat="45.95792" lon="4.7651">
        <ele>187</ele>
        <time>2018-10-31T09:58:51Z</time>
      </trkpt>
      <trkpt lat="45.95794" lon="4.76519">
        <ele>187</ele>
        <time>2018-10-31T09:58:52Z</time>
      </trkpt>
      <trkpt lat="45.95795" lon="4.76527">
        <ele>187</ele>
        <time>2018-10-31T09:58:53Z</time>
      </trkpt>
      <trkpt lat="45.95796" lon="4.76536">
        <ele>187</ele>
        <time>2018-10-31T09:58:54Z</time>
      </trkpt>
      <trkpt lat="45.95797" lon="4.76542">
        <ele>187</ele>
        <time>2018-10-31T09:58:55Z</time>
      </trkpt>
      <trkpt lat="45.95798" lon="4.76551">
        <ele>187</ele>
        <time>2018-10-31T09:58:56Z</time>
      </trkpt>
      <trkpt lat="45.95799" lon="4.76558">
        <ele>187</ele>
        <time>2018-10-31T09:58:57Z</time>
      </trkpt>
      <trkpt lat="45.958" lon="4.76567">
        <ele>187</ele>
        <time>2018-10-31T09:58:58Z</time>
      </trkpt>
      <trkpt lat="45.95801" lon="4.76574">
        <ele>187</ele>
        <time>2018-10-31T09:58:59Z</time>
      </trkpt>
      <trkpt lat="45.95801" lon="4.76582">
        <ele>187</ele>
        <time>2018-10-31T09:59:00Z</time>
      </trkpt>
      <trkpt lat="45.95802" lon="4.76589">
        <ele>187</ele>
        <time>2018-10-31T09:59:01Z</time>
      </trkpt>
      <trkpt lat="45.95803" lon="4.76597">
        <ele>187</ele>
        <time>2018-10-31T09:59:02Z</time>
      </trkpt>
      <trkpt lat="45.95804" lon="4.76605">
        <ele>188</ele>
        <time>2018-10-31T09:59:03Z</time>
      </trkpt>
      <trkpt lat="45.95805" lon="4.76613">
        <ele>188</ele>
        <time>2018-10-31T09:59:04Z</time>
      </trkpt>
      <trkpt lat="45.95806" lon="4.7662">
        <ele>188</ele>
        <time>2018-10-31T09:59:05Z</time>
      </trkpt>
      <trkpt lat="45.95807" lon="4.76628">
        <ele>188</ele>
        <time>2018-10-31T09:59:06Z</time>
      </trkpt>
      <trkpt lat="45.95808" lon="4.76636">
        <ele>188</ele>
        <time>2018-10-31T09:59:07Z</time>
      </trkpt>
      <trkpt lat="45.9581" lon="4.76644">
        <ele>188</ele>
        <time>2018-10-31T09:59:08Z</time>
      </trkpt>
      <trkpt lat="45.95811" lon="4.76651">
        <ele>188</ele>
        <time>2018-10-31T09:59:09Z</time>
      </trkpt>
      <trkpt lat="45.95812" lon="4.76658">
        <ele>188</ele>
        <time>2018-10-31T09:59:10Z</time>
      </trkpt>
      <trkpt lat="45.95813" lon="4.76666">
        <ele>188</ele>
        <time>2018-10-31T09:59:11Z</time>
      </trkpt>
      <trkpt lat="45.95814" lon="4.76674">
        <ele>189</ele>
        <time>2018-10-31T09:59:12Z</time>
      </trkpt>
      <trkpt lat="45.95815" lon="4.76682">
        <ele>189</ele>
        <time>2018-10-31T09:59:13Z</time>
      </trkpt>
      <trkpt lat="45.95816" lon="4.76689">
        <ele>189</ele>
        <time>2018-10-31T09:59:14Z</time>
      </trkpt>
      <trkpt lat="45.95817" lon="4.76696">
        <ele>189</ele>
        <time>2018-10-31T09:59:15Z</time>
      </trkpt>
      <trkpt lat="45.95818" lon="4.76704">
        <ele>189</ele>
        <time>2018-10-31T09:59:16Z</time>
      </trkpt>
      <trkpt lat="45.95819" lon="4.76712">
        <ele>189</ele>
        <time>2018-10-31T09:59:17Z</time>
      </trkpt>
      <trkpt lat="45.95819" lon="4.7672">
        <ele>189</ele>
        <time>2018-10-31T09:59:18Z</time>
      </trkpt>
      <trkpt lat="45.9582" lon="4.76728">
        <ele>190</ele>
        <time>2018-10-31T09:59:19Z</time>
      </trkpt>
      <trkpt lat="45.95821" lon="4.76734">
        <ele>190</ele>
        <time>2018-10-31T09:59:20Z</time>
      </trkpt>
      <trkpt lat="45.95822" lon="4.7674">
        <ele>190</ele>
        <time>2018-10-31T09:59:21Z</time>
      </trkpt>
      <trkpt lat="45.95823" lon="4.76747">
        <ele>190</ele>
        <time>2018-10-31T09:59:22Z</time>
      </trkpt>
      <trkpt lat="45.95824" lon="4.76753">
        <ele>191</ele>
        <time>2018-10-31T09:59:23Z</time>
      </trkpt>
      <trkpt lat="45.95825" lon="4.76761">
        <ele>190</ele>
        <time>2018-10-31T09:59:24Z</time>
      </trkpt>
      <trkpt lat="45.95827" lon="4.76767">
        <ele>190</ele>
        <time>2018-10-31T09:59:25Z</time>
      </trkpt>
      <trkpt lat="45.95828" lon="4.76775">
        <ele>190</ele>
        <time>2018-10-31T09:59:26Z</time>
      </trkpt>
      <trkpt lat="45.95831" lon="4.7678">
        <ele>190</ele>
        <time>2018-10-31T09:59:27Z</time>
      </trkpt>
      <trkpt lat="45.95835" lon="4.76791">
        <ele>191</ele>
        <time>2018-10-31T09:59:29Z</time>
      </trkpt>
      <trkpt lat="45.95838" lon="4.76796">
        <ele>191</ele>
        <time>2018-10-31T09:59:30Z</time>
      </trkpt>
      <trkpt lat="45.95841" lon="4.768">
        <ele>191</ele>
        <time>2018-10-31T09:59:31Z</time>
      </trkpt>
      <trkpt lat="45.95845" lon="4.76804">
        <ele>191</ele>
        <time>2018-10-31T09:59:32Z</time>
      </trkpt>
      <trkpt lat="45.95849" lon="4.76808">
        <ele>191</ele>
        <time>2018-10-31T09:59:33Z</time>
      </trkpt>
      <trkpt lat="45.95854" lon="4.76811">
        <ele>191</ele>
        <time>2018-10-31T09:59:34Z</time>
      </trkpt>
      <trkpt lat="45.95861" lon="4.76817">
        <ele>191</ele>
        <time>2018-10-31T09:59:36Z</time>
      </trkpt>
      <trkpt lat="45.95865" lon="4.76822">
        <ele>191</ele>
        <time>2018-10-31T09:59:37Z</time>
      </trkpt>
      <trkpt lat="45.95869" lon="4.76826">
        <ele>191</ele>
        <time>2018-10-31T09:59:38Z</time>
      </trkpt>
      <trkpt lat="45.95873" lon="4.7683">
        <ele>191</ele>
        <time>2018-10-31T09:59:39Z</time>
      </trkpt>
      <trkpt lat="45.95881" lon="4.76836">
        <ele>191</ele>
        <time>2018-10-31T09:59:41Z</time>
      </trkpt>
      <trkpt lat="45.95884" lon="4.7684">
        <ele>191</ele>
        <time>2018-10-31T09:59:42Z</time>
      </trkpt>
      <trkpt lat="45.9589" lon="4.76848">
        <ele>191</ele>
        <time>2018-10-31T09:59:44Z</time>
      </trkpt>
      <trkpt lat="45.95893" lon="4.76851">
        <ele>191</ele>
        <time>2018-10-31T09:59:45Z</time>
      </trkpt>
      <trkpt lat="45.95897" lon="4.76855">
        <ele>191</ele>
        <time>2018-10-31T09:59:46Z</time>
      </trkpt>
      <trkpt lat="45.959" lon="4.76859">
        <ele>191</ele>
        <time>2018-10-31T09:59:47Z</time>
      </trkpt>
      <trkpt lat="45.95906" lon="4.76867">
        <ele>191</ele>
        <time>2018-10-31T09:59:49Z</time>
      </trkpt>
      <trkpt lat="45.95909" lon="4.76871">
        <ele>191</ele>
        <time>2018-10-31T09:59:50Z</time>
      </trkpt>
      <trkpt lat="45.95916" lon="4.76877">
        <ele>191</ele>
        <time>2018-10-31T09:59:52Z</time>
      </trkpt>
      <trkpt lat="45.95919" lon="4.7688">
        <ele>192</ele>
        <time>2018-10-31T09:59:53Z</time>
      </trkpt>
      <trkpt lat="45.95925" lon="4.76887">
        <ele>192</ele>
        <time>2018-10-31T09:59:55Z</time>
      </trkpt>
      <trkpt lat="45.95928" lon="4.7689">
        <ele>192</ele>
        <time>2018-10-31T09:59:56Z</time>
      </trkpt>
      <trkpt lat="45.95935" lon="4.76897">
        <ele>192</ele>
        <time>2018-10-31T09:59:59Z</time>
      </trkpt>
      <trkpt lat="45.95937" lon="4.769">
        <ele>192</ele>
        <time>2018-10-31T10:00:00Z</time>
      </trkpt>
      <trkpt lat="45.95943" lon="4.76905">
        <ele>192</ele>
        <time>2018-10-31T10:00:02Z</time>
      </trkpt>
      <trkpt lat="45.95946" lon="4.76908">
        <ele>193</ele>
        <time>2018-10-31T10:00:03Z</time>
      </trkpt>
      <trkpt lat="45.95951" lon="4.76913">
        <ele>193</ele>
        <time>2018-10-31T10:00:05Z</time>
      </trkpt>
      <trkpt lat="45.95953" lon="4.76916">
        <ele>193</ele>
        <time>2018-10-31T10:00:06Z</time>
      </trkpt>
      <trkpt lat="45.95958" lon="4.76921">
        <ele>195</ele>
        <time>2018-10-31T10:00:08Z</time>
      </trkpt>
      <trkpt lat="45.95961" lon="4.76924">
        <ele>195</ele>
        <time>2018-10-31T10:00:09Z</time>
      </trkpt>
      <trkpt lat="45.95965" lon="4.76929">
        <ele>195</ele>
        <time>2018-10-31T10:00:11Z</time>
      </trkpt>
      <trkpt lat="45.95968" lon="4.76932">
        <ele>195</ele>
        <time>2018-10-31T10:00:12Z</time>
      </trkpt>
      <trkpt lat="45.95972" lon="4.76938">
        <ele>196</ele>
        <time>2018-10-31T10:00:14Z</time>
      </trkpt>
      <trkpt lat="45.95975" lon="4.76941">
        <ele>196</ele>
        <time>2018-10-31T10:00:15Z</time>
      </trkpt>
      <trkpt lat="45.95979" lon="4.7695">
        <ele>196</ele>
        <time>2018-10-31T10:00:17Z</time>
      </trkpt>
      <trkpt lat="45.9598" lon="4.76953">
        <ele>196</ele>
        <time>2018-10-31T10:00:18Z</time>
      </trkpt>
      <trkpt lat="45.95981" lon="4.76962">
        <ele>196</ele>
        <time>2018-10-31T10:00:20Z</time>
      </trkpt>
      <trkpt lat="45.95981" lon="4.76966">
        <ele>197</ele>
        <time>2018-10-31T10:00:21Z</time>
      </trkpt>
      <trkpt lat="45.9598" lon="4.76975">
        <ele>197</ele>
        <time>2018-10-31T10:00:23Z</time>
      </trkpt>
      <trkpt lat="45.9598" lon="4.76979">
        <ele>197</ele>
        <time>2018-10-31T10:00:24Z</time>
      </trkpt>
      <trkpt lat="45.95978" lon="4.76988">
        <ele>197</ele>
        <time>2018-10-31T10:00:26Z</time>
      </trkpt>
      <trkpt lat="45.95977" lon="4.76992">
        <ele>197</ele>
        <time>2018-10-31T10:00:27Z</time>
      </trkpt>
      <trkpt lat="45.95973" lon="4.77004">
        <ele>200</ele>
        <time>2018-10-31T10:00:30Z</time>
      </trkpt>
      <trkpt lat="45.95972" lon="4.77007">
        <ele>200</ele>
        <time>2018-10-31T10:00:31Z</time>
      </trkpt>
      <trkpt lat="45.95969" lon="4.77015">
        <ele>200</ele>
        <time>2018-10-31T10:00:33Z</time>
      </trkpt>
      <trkpt lat="45.95967" lon="4.77018">
        <ele>200</ele>
        <time>2018-10-31T10:00:34Z</time>
      </trkpt>
      <trkpt lat="45.95964" lon="4.77026">
        <ele>200</ele>
        <time>2018-10-31T10:00:36Z</time>
      </trkpt>
      <trkpt lat="45.95962" lon="4.7703">
        <ele>200</ele>
        <time>2018-10-31T10:00:37Z</time>
      </trkpt>
      <trkpt lat="45.95959" lon="4.7704">
        <ele>200</ele>
        <time>2018-10-31T10:00:39Z</time>
      </trkpt>
      <trkpt lat="45.95957" lon="4.77044">
        <ele>200</ele>
        <time>2018-10-31T10:00:40Z</time>
      </trkpt>
      <trkpt lat="45.95954" lon="4.77051">
        <ele>200</ele>
        <time>2018-10-31T10:00:42Z</time>
      </trkpt>
      <trkpt lat="45.95952" lon="4.77056">
        <ele>200</ele>
        <time>2018-10-31T10:00:43Z</time>
      </trkpt>
      <trkpt lat="45.95949" lon="4.77063">
        <ele>200</ele>
        <time>2018-10-31T10:00:45Z</time>
      </trkpt>
      <trkpt lat="45.95947" lon="4.77067">
        <ele>200</ele>
        <time>2018-10-31T10:00:46Z</time>
      </trkpt>
      <trkpt lat="45.95944" lon="4.77076">
        <ele>200</ele>
        <time>2018-10-31T10:00:48Z</time>
      </trkpt>
      <trkpt lat="45.95942" lon="4.7708">
        <ele>199</ele>
        <time>2018-10-31T10:00:49Z</time>
      </trkpt>
      <trkpt lat="45.9594" lon="4.77088">
        <ele>201</ele>
        <time>2018-10-31T10:00:51Z</time>
      </trkpt>
      <trkpt lat="45.95939" lon="4.77093">
        <ele>201</ele>
        <time>2018-10-31T10:00:52Z</time>
      </trkpt>
      <trkpt lat="45.95937" lon="4.77101">
        <ele>201</ele>
        <time>2018-10-31T10:00:54Z</time>
      </trkpt>
      <trkpt lat="45.95937" lon="4.77106">
        <ele>201</ele>
        <time>2018-10-31T10:00:55Z</time>
      </trkpt>
      <trkpt lat="45.95936" lon="4.77115">
        <ele>201</ele>
        <time>2018-10-31T10:00:57Z</time>
      </trkpt>
      <trkpt lat="45.95935" lon="4.7712">
        <ele>201</ele>
        <time>2018-10-31T10:00:58Z</time>
      </trkpt>
      <trkpt lat="45.95935" lon="4.77129">
        <ele>201</ele>
        <time>2018-10-31T10:01:00Z</time>
      </trkpt>
      <trkpt lat="45.95936" lon="4.77134">
        <ele>201</ele>
        <time>2018-10-31T10:01:01Z</time>
      </trkpt>
      <trkpt lat="45.95936" lon="4.77146">
        <ele>201</ele>
        <time>2018-10-31T10:01:03Z</time>
      </trkpt>
      <trkpt lat="45.95937" lon="4.7715">
        <ele>200</ele>
        <time>2018-10-31T10:01:04Z</time>
      </trkpt>
      <trkpt lat="45.95938" lon="4.7716">
        <ele>200</ele>
        <time>2018-10-31T10:01:06Z</time>
      </trkpt>
      <trkpt lat="45.95939" lon="4.77165">
        <ele>200</ele>
        <time>2018-10-31T10:01:07Z</time>
      </trkpt>
      <trkpt lat="45.95941" lon="4.77174">
        <ele>200</ele>
        <time>2018-10-31T10:01:09Z</time>
      </trkpt>
      <trkpt lat="45.95942" lon="4.7718">
        <ele>200</ele>
        <time>2018-10-31T10:01:10Z</time>
      </trkpt>
      <trkpt lat="45.95945" lon="4.77189">
        <ele>200</ele>
        <time>2018-10-31T10:01:12Z</time>
      </trkpt>
      <trkpt lat="45.95946" lon="4.77193">
        <ele>201</ele>
        <time>2018-10-31T10:01:13Z</time>
      </trkpt>
      <trkpt lat="45.95949" lon="4.77202">
        <ele>201</ele>
        <time>2018-10-31T10:01:15Z</time>
      </trkpt>
      <trkpt lat="45.95951" lon="4.77205">
        <ele>201</ele>
        <time>2018-10-31T10:01:16Z</time>
      </trkpt>
      <trkpt lat="45.95955" lon="4.77213">
        <ele>201</ele>
        <time>2018-10-31T10:01:18Z</time>
      </trkpt>
      <trkpt lat="45.95957" lon="4.77217">
        <ele>201</ele>
        <time>2018-10-31T10:01:19Z</time>
      </trkpt>
      <trkpt lat="45.95963" lon="4.77224">
        <ele>201</ele>
        <time>2018-10-31T10:01:21Z</time>
      </trkpt>
      <trkpt lat="45.95965" lon="4.77227">
        <ele>201</ele>
        <time>2018-10-31T10:01:22Z</time>
      </trkpt>
      <trkpt lat="45.9597" lon="4.77233">
        <ele>202</ele>
        <time>2018-10-31T10:01:24Z</time>
      </trkpt>
      <trkpt lat="45.95973" lon="4.77237">
        <ele>202</ele>
        <time>2018-10-31T10:01:25Z</time>
      </trkpt>
      <trkpt lat="45.95979" lon="4.77241">
        <ele>202</ele>
        <time>2018-10-31T10:01:27Z</time>
      </trkpt>
      <trkpt lat="45.95982" lon="4.77243">
        <ele>202</ele>
        <time>2018-10-31T10:01:28Z</time>
      </trkpt>
      <trkpt lat="45.95989" lon="4.77247">
        <ele>202</ele>
        <time>2018-10-31T10:01:30Z</time>
      </trkpt>
      <trkpt lat="45.95992" lon="4.77249">
        <ele>203</ele>
        <time>2018-10-31T10:01:31Z</time>
      </trkpt>
      <trkpt lat="45.95999" lon="4.77251">
        <ele>203</ele>
        <time>2018-10-31T10:01:33Z</time>
      </trkpt>
      <trkpt lat="45.96002" lon="4.77251">
        <ele>203</ele>
        <time>2018-10-31T10:01:34Z</time>
      </trkpt>
      <trkpt lat="45.96009" lon="4.77251">
        <ele>204</ele>
        <time>2018-10-31T10:01:36Z</time>
      </trkpt>
      <trkpt lat="45.96012" lon="4.77251">
        <ele>204</ele>
        <time>2018-10-31T10:01:37Z</time>
      </trkpt>
      <trkpt lat="45.96018" lon="4.77251">
        <ele>204</ele>
        <time>2018-10-31T10:01:39Z</time>
      </trkpt>
      <trkpt lat="45.96021" lon="4.77251">
        <ele>204</ele>
        <time>2018-10-31T10:01:40Z</time>
      </trkpt>
      <trkpt lat="45.96027" lon="4.77251">
        <ele>205</ele>
        <time>2018-10-31T10:01:42Z</time>
      </trkpt>
      <trkpt lat="45.9603" lon="4.77251">
        <ele>205</ele>
        <time>2018-10-31T10:01:43Z</time>
      </trkpt>
      <trkpt lat="45.96036" lon="4.7725">
        <ele>205</ele>
        <time>2018-10-31T10:01:45Z</time>
      </trkpt>
      <trkpt lat="45.96039" lon="4.7725">
        <ele>208</ele>
        <time>2018-10-31T10:01:46Z</time>
      </trkpt>
      <trkpt lat="45.96046" lon="4.77249">
        <ele>208</ele>
        <time>2018-10-31T10:01:48Z</time>
      </trkpt>
      <trkpt lat="45.96049" lon="4.77249">
        <ele>209</ele>
        <time>2018-10-31T10:01:49Z</time>
      </trkpt>
      <trkpt lat="45.96055" lon="4.77248">
        <ele>209</ele>
        <time>2018-10-31T10:01:51Z</time>
      </trkpt>
      <trkpt lat="45.96059" lon="4.77248">
        <ele>209</ele>
        <time>2018-10-31T10:01:52Z</time>
      </trkpt>
      <trkpt lat="45.96066" lon="4.77248">
        <ele>209</ele>
        <time>2018-10-31T10:01:54Z</time>
      </trkpt>
      <trkpt lat="45.96069" lon="4.77247">
        <ele>210</ele>
        <time>2018-10-31T10:01:55Z</time>
      </trkpt>
      <trkpt lat="45.96075" lon="4.77247">
        <ele>210</ele>
        <time>2018-10-31T10:01:57Z</time>
      </trkpt>
      <trkpt lat="45.96079" lon="4.77246">
        <ele>210</ele>
        <time>2018-10-31T10:01:58Z</time>
      </trkpt>
      <trkpt lat="45.96085" lon="4.77246">
        <ele>211</ele>
        <time>2018-10-31T10:02:00Z</time>
      </trkpt>
      <trkpt lat="45.96088" lon="4.77245">
        <ele>211</ele>
        <time>2018-10-31T10:02:01Z</time>
      </trkpt>
      <trkpt lat="45.96095" lon="4.77245">
        <ele>212</ele>
        <time>2018-10-31T10:02:03Z</time>
      </trkpt>
      <trkpt lat="45.96098" lon="4.77245">
        <ele>212</ele>
        <time>2018-10-31T10:02:04Z</time>
      </trkpt>
      <trkpt lat="45.96105" lon="4.77245">
        <ele>213</ele>
        <time>2018-10-31T10:02:06Z</time>
      </trkpt>
      <trkpt lat="45.96108" lon="4.77245">
        <ele>213</ele>
        <time>2018-10-31T10:02:07Z</time>
      </trkpt>
      <trkpt lat="45.96115" lon="4.77245">
        <ele>214</ele>
        <time>2018-10-31T10:02:09Z</time>
      </trkpt>
      <trkpt lat="45.96118" lon="4.77245">
        <ele>214</ele>
        <time>2018-10-31T10:02:10Z</time>
      </trkpt>
      <trkpt lat="45.96125" lon="4.77245">
        <ele>214</ele>
        <time>2018-10-31T10:02:12Z</time>
      </trkpt>
      <trkpt lat="45.96128" lon="4.77245">
        <ele>214</ele>
        <time>2018-10-31T10:02:13Z</time>
      </trkpt>
      <trkpt lat="45.96134" lon="4.77246">
        <ele>215</ele>
        <time>2018-10-31T10:02:15Z</time>
      </trkpt>
      <trkpt lat="45.96137" lon="4.77247">
        <ele>215</ele>
        <time>2018-10-31T10:02:16Z</time>
      </trkpt>
      <trkpt lat="45.96143" lon="4.7725">
        <ele>215</ele>
        <time>2018-10-31T10:02:18Z</time>
      </trkpt>
      <trkpt lat="45.96146" lon="4.77251">
        <ele>213</ele>
        <time>2018-10-31T10:02:19Z</time>
      </trkpt>
      <trkpt lat="45.96151" lon="4.77253">
        <ele>214</ele>
        <time>2018-10-31T10:02:20Z</time>
      </trkpt>
      <trkpt lat="45.96156" lon="4.77256">
        <ele>214</ele>
        <time>2018-10-31T10:02:21Z</time>
      </trkpt>
      <trkpt lat="45.96163" lon="4.7726">
        <ele>214</ele>
        <time>2018-10-31T10:02:24Z</time>
      </trkpt>
      <trkpt lat="45.96166" lon="4.77262">
        <ele>214</ele>
        <time>2018-10-31T10:02:25Z</time>
      </trkpt>
      <trkpt lat="45.96173" lon="4.77265">
        <ele>216</ele>
        <time>2018-10-31T10:02:26Z</time>
      </trkpt>
      <trkpt lat="45.96176" lon="4.77267">
        <ele>216</ele>
        <time>2018-10-31T10:02:27Z</time>
      </trkpt>
      <trkpt lat="45.96182" lon="4.7727">
        <ele>216</ele>
        <time>2018-10-31T10:02:29Z</time>
      </trkpt>
      <trkpt lat="45.96186" lon="4.77272">
        <ele>216</ele>
        <time>2018-10-31T10:02:30Z</time>
      </trkpt>
      <trkpt lat="45.96194" lon="4.77276">
        <ele>216</ele>
        <time>2018-10-31T10:02:32Z</time>
      </trkpt>
      <trkpt lat="45.96197" lon="4.77277">
        <ele>216</ele>
        <time>2018-10-31T10:02:33Z</time>
      </trkpt>
      <trkpt lat="45.96204" lon="4.77281">
        <ele>216</ele>
        <time>2018-10-31T10:02:35Z</time>
      </trkpt>
      <trkpt lat="45.96208" lon="4.77284">
        <ele>216</ele>
        <time>2018-10-31T10:02:36Z</time>
      </trkpt>
      <trkpt lat="45.96215" lon="4.77288">
        <ele>217</ele>
        <time>2018-10-31T10:02:38Z</time>
      </trkpt>
      <trkpt lat="45.96218" lon="4.77289">
        <ele>217</ele>
        <time>2018-10-31T10:02:39Z</time>
      </trkpt>
      <trkpt lat="45.96226" lon="4.77293">
        <ele>217</ele>
        <time>2018-10-31T10:02:41Z</time>
      </trkpt>
      <trkpt lat="45.96229" lon="4.77295">
        <ele>217</ele>
        <time>2018-10-31T10:02:42Z</time>
      </trkpt>
      <trkpt lat="45.96237" lon="4.77299">
        <ele>217</ele>
        <time>2018-10-31T10:02:44Z</time>
      </trkpt>
      <trkpt lat="45.96241" lon="4.77301">
        <ele>217</ele>
        <time>2018-10-31T10:02:45Z</time>
      </trkpt>
      <trkpt lat="45.96247" lon="4.77306">
        <ele>217</ele>
        <time>2018-10-31T10:02:47Z</time>
      </trkpt>
      <trkpt lat="45.96251" lon="4.77308">
        <ele>218</ele>
        <time>2018-10-31T10:02:48Z</time>
      </trkpt>
      <trkpt lat="45.96258" lon="4.77313">
        <ele>218</ele>
        <time>2018-10-31T10:02:50Z</time>
      </trkpt>
      <trkpt lat="45.96262" lon="4.77316">
        <ele>218</ele>
        <time>2018-10-31T10:02:51Z</time>
      </trkpt>
      <trkpt lat="45.96269" lon="4.7732">
        <ele>218</ele>
        <time>2018-10-31T10:02:53Z</time>
      </trkpt>
      <trkpt lat="45.96273" lon="4.77322">
        <ele>218</ele>
        <time>2018-10-31T10:02:54Z</time>
      </trkpt>
      <trkpt lat="45.9628" lon="4.77326">
        <ele>219</ele>
        <time>2018-10-31T10:02:56Z</time>
      </trkpt>
      <trkpt lat="45.96283" lon="4.77329">
        <ele>219</ele>
        <time>2018-10-31T10:02:57Z</time>
      </trkpt>
      <trkpt lat="45.9629" lon="4.77333">
        <ele>219</ele>
        <time>2018-10-31T10:02:59Z</time>
      </trkpt>
      <trkpt lat="45.96294" lon="4.77335">
        <ele>217</ele>
        <time>2018-10-31T10:03:00Z</time>
      </trkpt>
      <trkpt lat="45.96301" lon="4.77339">
        <ele>217</ele>
        <time>2018-10-31T10:03:02Z</time>
      </trkpt>
      <trkpt lat="45.96305" lon="4.77341">
        <ele>217</ele>
        <time>2018-10-31T10:03:03Z</time>
      </trkpt>
      <trkpt lat="45.96312" lon="4.77345">
        <ele>217</ele>
        <time>2018-10-31T10:03:05Z</time>
      </trkpt>
      <trkpt lat="45.96315" lon="4.77346">
        <ele>217</ele>
        <time>2018-10-31T10:03:06Z</time>
      </trkpt>
      <trkpt lat="45.96323" lon="4.7735">
        <ele>218</ele>
        <time>2018-10-31T10:03:08Z</time>
      </trkpt>
      <trkpt lat="45.96326" lon="4.77352">
        <ele>218</ele>
        <time>2018-10-31T10:03:09Z</time>
      </trkpt>
      <trkpt lat="45.96334" lon="4.77356">
        <ele>219</ele>
        <time>2018-10-31T10:03:11Z</time>
      </trkpt>
      <trkpt lat="45.96337" lon="4.77357">
        <ele>219</ele>
        <time>2018-10-31T10:03:12Z</time>
      </trkpt>
      <trkpt lat="45.96345" lon="4.77361">
        <ele>219</ele>
        <time>2018-10-31T10:03:14Z</time>
      </trkpt>
      <trkpt lat="45.96349" lon="4.77363">
        <ele>219</ele>
        <time>2018-10-31T10:03:15Z</time>
      </trkpt>
      <trkpt lat="45.96357" lon="4.77367">
        <ele>219</ele>
        <time>2018-10-31T10:03:17Z</time>
      </trkpt>
      <trkpt lat="45.96359" lon="4.77368">
        <ele>219</ele>
        <time>2018-10-31T10:03:18Z</time>
      </trkpt>
      <trkpt lat="45.96367" lon="4.77373">
        <ele>219</ele>
        <time>2018-10-31T10:03:20Z</time>
      </trkpt>
      <trkpt lat="45.96371" lon="4.77374">
        <ele>219</ele>
        <time>2018-10-31T10:03:21Z</time>
      </trkpt>
      <trkpt lat="45.96376" lon="4.77377">
        <ele>219</ele>
        <time>2018-10-31T10:03:23Z</time>
      </trkpt>
      <trkpt lat="45.96381" lon="4.7738">
        <ele>220</ele>
        <time>2018-10-31T10:03:24Z</time>
      </trkpt>
      <trkpt lat="45.96388" lon="4.77384">
        <ele>220</ele>
        <time>2018-10-31T10:03:27Z</time>
      </trkpt>
      <trkpt lat="45.96394" lon="4.77387">
        <ele>220</ele>
        <time>2018-10-31T10:03:28Z</time>
      </trkpt>
      <trkpt lat="45.96398" lon="4.7739">
        <ele>220</ele>
        <time>2018-10-31T10:03:30Z</time>
      </trkpt>
      <trkpt lat="45.96404" lon="4.77393">
        <ele>220</ele>
        <time>2018-10-31T10:03:31Z</time>
      </trkpt>
      <trkpt lat="45.96411" lon="4.77397">
        <ele>220</ele>
        <time>2018-10-31T10:03:33Z</time>
      </trkpt>
      <trkpt lat="45.96415" lon="4.774">
        <ele>220</ele>
        <time>2018-10-31T10:03:34Z</time>
      </trkpt>
      <trkpt lat="45.96422" lon="4.77404">
        <ele>222</ele>
        <time>2018-10-31T10:03:36Z</time>
      </trkpt>
      <trkpt lat="45.96425" lon="4.77405">
        <ele>222</ele>
        <time>2018-10-31T10:03:37Z</time>
      </trkpt>
      <trkpt lat="45.96433" lon="4.77411">
        <ele>222</ele>
        <time>2018-10-31T10:03:39Z</time>
      </trkpt>
      <trkpt lat="45.96436" lon="4.77413">
        <ele>222</ele>
        <time>2018-10-31T10:03:40Z</time>
      </trkpt>
      <trkpt lat="45.96443" lon="4.77418">
        <ele>221</ele>
        <time>2018-10-31T10:03:42Z</time>
      </trkpt>
      <trkpt lat="45.96447" lon="4.7742">
        <ele>221</ele>
        <time>2018-10-31T10:03:43Z</time>
      </trkpt>
      <trkpt lat="45.96454" lon="4.77424">
        <ele>221</ele>
        <time>2018-10-31T10:03:45Z</time>
      </trkpt>
      <trkpt lat="45.96457" lon="4.77426">
        <ele>221</ele>
        <time>2018-10-31T10:03:46Z</time>
      </trkpt>
      <trkpt lat="45.96465" lon="4.77431">
        <ele>221</ele>
        <time>2018-10-31T10:03:48Z</time>
      </trkpt>
      <trkpt lat="45.96468" lon="4.77433">
        <ele>221</ele>
        <time>2018-10-31T10:03:49Z</time>
      </trkpt>
      <trkpt lat="45.96476" lon="4.77438">
        <ele>221</ele>
        <time>2018-10-31T10:03:51Z</time>
      </trkpt>
      <trkpt lat="45.96479" lon="4.77441">
        <ele>221</ele>
        <time>2018-10-31T10:03:52Z</time>
      </trkpt>
      <trkpt lat="45.96486" lon="4.77447">
        <ele>221</ele>
        <time>2018-10-31T10:03:54Z</time>
      </trkpt>
      <trkpt lat="45.96489" lon="4.77449">
        <ele>221</ele>
        <time>2018-10-31T10:03:55Z</time>
      </trkpt>
      <trkpt lat="45.96496" lon="4.77453">
        <ele>221</ele>
        <time>2018-10-31T10:03:57Z</time>
      </trkpt>
      <trkpt lat="45.965" lon="4.77455">
        <ele>221</ele>
        <time>2018-10-31T10:03:58Z</time>
      </trkpt>
      <trkpt lat="45.96507" lon="4.77459">
        <ele>223</ele>
        <time>2018-10-31T10:04:00Z</time>
      </trkpt>
      <trkpt lat="45.96511" lon="4.77461">
        <ele>223</ele>
        <time>2018-10-31T10:04:01Z</time>
      </trkpt>
      <trkpt lat="45.96518" lon="4.77466">
        <ele>223</ele>
        <time>2018-10-31T10:04:03Z</time>
      </trkpt>
      <trkpt lat="45.96521" lon="4.77469">
        <ele>223</ele>
        <time>2018-10-31T10:04:04Z</time>
      </trkpt>
      <trkpt lat="45.96527" lon="4.77473">
        <ele>223</ele>
        <time>2018-10-31T10:04:06Z</time>
      </trkpt>
      <trkpt lat="45.96531" lon="4.77476">
        <ele>223</ele>
        <time>2018-10-31T10:04:07Z</time>
      </trkpt>
      <trkpt lat="45.96539" lon="4.77482">
        <ele>223</ele>
        <time>2018-10-31T10:04:10Z</time>
      </trkpt>
      <trkpt lat="45.96544" lon="4.77486">
        <ele>223</ele>
        <time>2018-10-31T10:04:11Z</time>
      </trkpt>
      <trkpt lat="45.96551" lon="4.77491">
        <ele>223</ele>
        <time>2018-10-31T10:04:13Z</time>
      </trkpt>
      <trkpt lat="45.96555" lon="4.77493">
        <ele>223</ele>
        <time>2018-10-31T10:04:14Z</time>
      </trkpt>
      <trkpt lat="45.96562" lon="4.77497">
        <ele>224</ele>
        <time>2018-10-31T10:04:16Z</time>
      </trkpt>
      <trkpt lat="45.96566" lon="4.775">
        <ele>224</ele>
        <time>2018-10-31T10:04:17Z</time>
      </trkpt>
      <trkpt lat="45.96573" lon="4.77504">
        <ele>224</ele>
        <time>2018-10-31T10:04:19Z</time>
      </trkpt>
      <trkpt lat="45.96577" lon="4.77507">
        <ele>224</ele>
        <time>2018-10-31T10:04:20Z</time>
      </trkpt>
      <trkpt lat="45.96584" lon="4.77511">
        <ele>224</ele>
        <time>2018-10-31T10:04:22Z</time>
      </trkpt>
      <trkpt lat="45.96588" lon="4.77514">
        <ele>224</ele>
        <time>2018-10-31T10:04:23Z</time>
      </trkpt>
      <trkpt lat="45.96596" lon="4.77518">
        <ele>224</ele>
        <time>2018-10-31T10:04:25Z</time>
      </trkpt>
      <trkpt lat="45.96599" lon="4.7752">
        <ele>224</ele>
        <time>2018-10-31T10:04:26Z</time>
      </trkpt>
      <trkpt lat="45.96606" lon="4.77524">
        <ele>224</ele>
        <time>2018-10-31T10:04:28Z</time>
      </trkpt>
      <trkpt lat="45.9661" lon="4.77526">
        <ele>224</ele>
        <time>2018-10-31T10:04:29Z</time>
      </trkpt>
      <trkpt lat="45.96617" lon="4.77531">
        <ele>224</ele>
        <time>2018-10-31T10:04:31Z</time>
      </trkpt>
      <trkpt lat="45.96621" lon="4.77533">
        <ele>224</ele>
        <time>2018-10-31T10:04:32Z</time>
      </trkpt>
      <trkpt lat="45.96628" lon="4.77538">
        <ele>224</ele>
        <time>2018-10-31T10:04:34Z</time>
      </trkpt>
      <trkpt lat="45.96631" lon="4.7754">
        <ele>224</ele>
        <time>2018-10-31T10:04:35Z</time>
      </trkpt>
      <trkpt lat="45.96639" lon="4.77544">
        <ele>224</ele>
        <time>2018-10-31T10:04:37Z</time>
      </trkpt>
      <trkpt lat="45.96642" lon="4.77546">
        <ele>224</ele>
        <time>2018-10-31T10:04:38Z</time>
      </trkpt>
      <trkpt lat="45.96649" lon="4.77551">
        <ele>224</ele>
        <time>2018-10-31T10:04:40Z</time>
      </trkpt>
      <trkpt lat="45.96652" lon="4.77553">
        <ele>224</ele>
        <time>2018-10-31T10:04:41Z</time>
      </trkpt>
      <trkpt lat="45.96659" lon="4.77558">
        <ele>224</ele>
        <time>2018-10-31T10:04:43Z</time>
      </trkpt>
      <trkpt lat="45.96663" lon="4.7756">
        <ele>225</ele>
        <time>2018-10-31T10:04:44Z</time>
      </trkpt>
      <trkpt lat="45.9667" lon="4.77565">
        <ele>225</ele>
        <time>2018-10-31T10:04:46Z</time>
      </trkpt>
      <trkpt lat="45.96674" lon="4.77567">
        <ele>225</ele>
        <time>2018-10-31T10:04:47Z</time>
      </trkpt>
      <trkpt lat="45.96681" lon="4.77572">
        <ele>225</ele>
        <time>2018-10-31T10:04:49Z</time>
      </trkpt>
      <trkpt lat="45.96684" lon="4.77575">
        <ele>225</ele>
        <time>2018-10-31T10:04:50Z</time>
      </trkpt>
      <trkpt lat="45.96692" lon="4.77582">
        <ele>225</ele>
        <time>2018-10-31T10:04:52Z</time>
      </trkpt>
      <trkpt lat="45.96695" lon="4.77586">
        <ele>226</ele>
        <time>2018-10-31T10:04:53Z</time>
      </trkpt>
      <trkpt lat="45.96702" lon="4.77593">
        <ele>226</ele>
        <time>2018-10-31T10:04:55Z</time>
      </trkpt>
      <trkpt lat="45.96705" lon="4.77597">
        <ele>226</ele>
        <time>2018-10-31T10:04:56Z</time>
      </trkpt>
      <trkpt lat="45.96711" lon="4.77605">
        <ele>226</ele>
        <time>2018-10-31T10:04:58Z</time>
      </trkpt>
      <trkpt lat="45.96714" lon="4.77609">
        <ele>226</ele>
        <time>2018-10-31T10:04:59Z</time>
      </trkpt>
      <trkpt lat="45.96721" lon="4.77618">
        <ele>226</ele>
        <time>2018-10-31T10:05:01Z</time>
      </trkpt>
      <trkpt lat="45.96724" lon="4.77625">
        <ele>226</ele>
        <time>2018-10-31T10:05:02Z</time>
      </trkpt>
      <trkpt lat="45.9673" lon="4.77633">
        <ele>226</ele>
        <time>2018-10-31T10:05:04Z</time>
      </trkpt>
      <trkpt lat="45.96733" lon="4.77637">
        <ele>226</ele>
        <time>2018-10-31T10:05:05Z</time>
      </trkpt>
      <trkpt lat="45.96739" lon="4.77646">
        <ele>227</ele>
        <time>2018-10-31T10:05:07Z</time>
      </trkpt>
      <trkpt lat="45.96743" lon="4.77649">
        <ele>227</ele>
        <time>2018-10-31T10:05:08Z</time>
      </trkpt>
      <trkpt lat="45.96749" lon="4.77656">
        <ele>227</ele>
        <time>2018-10-31T10:05:10Z</time>
      </trkpt>
      <trkpt lat="45.96753" lon="4.77661">
        <ele>227</ele>
        <time>2018-10-31T10:05:11Z</time>
      </trkpt>
      <trkpt lat="45.96759" lon="4.77668">
        <ele>227</ele>
        <time>2018-10-31T10:05:13Z</time>
      </trkpt>
      <trkpt lat="45.96763" lon="4.77673">
        <ele>227</ele>
        <time>2018-10-31T10:05:14Z</time>
      </trkpt>
      <trkpt lat="45.9677" lon="4.77681">
        <ele>227</ele>
        <time>2018-10-31T10:05:16Z</time>
      </trkpt>
      <trkpt lat="45.96774" lon="4.77686">
        <ele>227</ele>
        <time>2018-10-31T10:05:17Z</time>
      </trkpt>
      <trkpt lat="45.96777" lon="4.77691">
        <ele>227</ele>
        <time>2018-10-31T10:05:18Z</time>
      </trkpt>
      <trkpt lat="45.96781" lon="4.77695">
        <ele>227</ele>
        <time>2018-10-31T10:05:19Z</time>
      </trkpt>
      <trkpt lat="45.96785" lon="4.77699">
        <ele>227</ele>
        <time>2018-10-31T10:05:20Z</time>
      </trkpt>
      <trkpt lat="45.96789" lon="4.77703">
        <ele>227</ele>
        <time>2018-10-31T10:05:21Z</time>
      </trkpt>
      <trkpt lat="45.96793" lon="4.77707">
        <ele>228</ele>
        <time>2018-10-31T10:05:22Z</time>
      </trkpt>
      <trkpt lat="45.96796" lon="4.77712">
        <ele>228</ele>
        <time>2018-10-31T10:05:23Z</time>
      </trkpt>
      <trkpt lat="45.96803" lon="4.77719">
        <ele>228</ele>
        <time>2018-10-31T10:05:25Z</time>
      </trkpt>
      <trkpt lat="45.96807" lon="4.77723">
        <ele>228</ele>
        <time>2018-10-31T10:05:26Z</time>
      </trkpt>
      <trkpt lat="45.96811" lon="4.77729">
        <ele>228</ele>
        <time>2018-10-31T10:05:27Z</time>
      </trkpt>
      <trkpt lat="45.96815" lon="4.77733">
        <ele>228</ele>
        <time>2018-10-31T10:05:28Z</time>
      </trkpt>
      <trkpt lat="45.96822" lon="4.7774">
        <ele>228</ele>
        <time>2018-10-31T10:05:30Z</time>
      </trkpt>
      <trkpt lat="45.96826" lon="4.77743">
        <ele>228</ele>
        <time>2018-10-31T10:05:31Z</time>
      </trkpt>
      <trkpt lat="45.9683" lon="4.77748">
        <ele>228</ele>
        <time>2018-10-31T10:05:32Z</time>
      </trkpt>
      <trkpt lat="45.96834" lon="4.77752">
        <ele>228</ele>
        <time>2018-10-31T10:05:33Z</time>
      </trkpt>
      <trkpt lat="45.96837" lon="4.77756">
        <ele>228</ele>
        <time>2018-10-31T10:05:34Z</time>
      </trkpt>
      <trkpt lat="45.96841" lon="4.77761">
        <ele>228</ele>
        <time>2018-10-31T10:05:35Z</time>
      </trkpt>
      <trkpt lat="45.96845" lon="4.77764">
        <ele>228</ele>
        <time>2018-10-31T10:05:36Z</time>
      </trkpt>
      <trkpt lat="45.96849" lon="4.77768">
        <ele>228</ele>
        <time>2018-10-31T10:05:37Z</time>
      </trkpt>
      <trkpt lat="45.96853" lon="4.77771">
        <ele>228</ele>
        <time>2018-10-31T10:05:38Z</time>
      </trkpt>
      <trkpt lat="45.96858" lon="4.77776">
        <ele>228</ele>
        <time>2018-10-31T10:05:39Z</time>
      </trkpt>
      <trkpt lat="45.96862" lon="4.7778">
        <ele>228</ele>
        <time>2018-10-31T10:05:40Z</time>
      </trkpt>
      <trkpt lat="45.96865" lon="4.77784">
        <ele>228</ele>
        <time>2018-10-31T10:05:41Z</time>
      </trkpt>
      <trkpt lat="45.96869" lon="4.77788">
        <ele>228</ele>
        <time>2018-10-31T10:05:42Z</time>
      </trkpt>
      <trkpt lat="45.96873" lon="4.77792">
        <ele>228</ele>
        <time>2018-10-31T10:05:43Z</time>
      </trkpt>
      <trkpt lat="45.96877" lon="4.77796">
        <ele>228</ele>
        <time>2018-10-31T10:05:44Z</time>
      </trkpt>
      <trkpt lat="45.96881" lon="4.778">
        <ele>228</ele>
        <time>2018-10-31T10:05:45Z</time>
      </trkpt>
      <trkpt lat="45.96885" lon="4.77804">
        <ele>228</ele>
        <time>2018-10-31T10:05:46Z</time>
      </trkpt>
      <trkpt lat="45.96889" lon="4.77808">
        <ele>228</ele>
        <time>2018-10-31T10:05:47Z</time>
      </trkpt>
      <trkpt lat="45.96893" lon="4.77813">
        <ele>228</ele>
        <time>2018-10-31T10:05:48Z</time>
      </trkpt>
      <trkpt lat="45.96897" lon="4.77817">
        <ele>228</ele>
        <time>2018-10-31T10:05:49Z</time>
      </trkpt>
      <trkpt lat="45.96901" lon="4.7782">
        <ele>228</ele>
        <time>2018-10-31T10:05:50Z</time>
      </trkpt>
      <trkpt lat="45.96905" lon="4.77825">
        <ele>228</ele>
        <time>2018-10-31T10:05:51Z</time>
      </trkpt>
      <trkpt lat="45.96909" lon="4.7783">
        <ele>228</ele>
        <time>2018-10-31T10:05:52Z</time>
      </trkpt>
      <trkpt lat="45.96914" lon="4.77835">
        <ele>228</ele>
        <time>2018-10-31T10:05:53Z</time>
      </trkpt>
      <trkpt lat="45.96918" lon="4.77839">
        <ele>228</ele>
        <time>2018-10-31T10:05:54Z</time>
      </trkpt>
      <trkpt lat="45.96922" lon="4.77842">
        <ele>228</ele>
        <time>2018-10-31T10:05:55Z</time>
      </trkpt>
      <trkpt lat="45.96926" lon="4.77846">
        <ele>228</ele>
        <time>2018-10-31T10:05:56Z</time>
      </trkpt>
      <trkpt lat="45.96932" lon="4.77851">
        <ele>228</ele>
        <time>2018-10-31T10:05:57Z</time>
      </trkpt>
      <trkpt lat="45.96936" lon="4.77855">
        <ele>228</ele>
        <time>2018-10-31T10:05:58Z</time>
      </trkpt>
      <trkpt lat="45.9694" lon="4.7786">
        <ele>228</ele>
        <time>2018-10-31T10:05:59Z</time>
      </trkpt>
      <trkpt lat="45.96944" lon="4.77864">
        <ele>228</ele>
        <time>2018-10-31T10:06:00Z</time>
      </trkpt>
      <trkpt lat="45.96948" lon="4.77869">
        <ele>228</ele>
        <time>2018-10-31T10:06:01Z</time>
      </trkpt>
      <trkpt lat="45.96952" lon="4.77873">
        <ele>228</ele>
        <time>2018-10-31T10:06:02Z</time>
      </trkpt>
      <trkpt lat="45.96956" lon="4.77878">
        <ele>228</ele>
        <time>2018-10-31T10:06:03Z</time>
      </trkpt>
      <trkpt lat="45.9696" lon="4.77883">
        <ele>228</ele>
        <time>2018-10-31T10:06:04Z</time>
      </trkpt>
      <trkpt lat="45.96963" lon="4.77888">
        <ele>228</ele>
        <time>2018-10-31T10:06:05Z</time>
      </trkpt>
      <trkpt lat="45.96967" lon="4.77892">
        <ele>228</ele>
        <time>2018-10-31T10:06:06Z</time>
      </trkpt>
      <trkpt lat="45.96971" lon="4.77897">
        <ele>228</ele>
        <time>2018-10-31T10:06:07Z</time>
      </trkpt>
      <trkpt lat="45.96976" lon="4.77902">
        <ele>228</ele>
        <time>2018-10-31T10:06:08Z</time>
      </trkpt>
      <trkpt lat="45.9698" lon="4.77908">
        <ele>227</ele>
        <time>2018-10-31T10:06:09Z</time>
      </trkpt>
      <trkpt lat="45.96983" lon="4.77913">
        <ele>227</ele>
        <time>2018-10-31T10:06:10Z</time>
      </trkpt>
      <trkpt lat="45.96988" lon="4.77918">
        <ele>227</ele>
        <time>2018-10-31T10:06:11Z</time>
      </trkpt>
      <trkpt lat="45.96992" lon="4.77922">
        <ele>227</ele>
        <time>2018-10-31T10:06:12Z</time>
      </trkpt>
      <trkpt lat="45.96995" lon="4.77927">
        <ele>227</ele>
        <time>2018-10-31T10:06:13Z</time>
      </trkpt>
      <trkpt lat="45.97" lon="4.77932">
        <ele>228</ele>
        <time>2018-10-31T10:06:14Z</time>
      </trkpt>
      <trkpt lat="45.97005" lon="4.77936">
        <ele>228</ele>
        <time>2018-10-31T10:06:15Z</time>
      </trkpt>
      <trkpt lat="45.97009" lon="4.77942">
        <ele>228</ele>
        <time>2018-10-31T10:06:16Z</time>
      </trkpt>
      <trkpt lat="45.97013" lon="4.77948">
        <ele>228</ele>
        <time>2018-10-31T10:06:17Z</time>
      </trkpt>
      <trkpt lat="45.97017" lon="4.77952">
        <ele>228</ele>
        <time>2018-10-31T10:06:18Z</time>
      </trkpt>
      <trkpt lat="45.97021" lon="4.77957">
        <ele>228</ele>
        <time>2018-10-31T10:06:19Z</time>
      </trkpt>
      <trkpt lat="45.97024" lon="4.7796">
        <ele>228</ele>
        <time>2018-10-31T10:06:20Z</time>
      </trkpt>
      <trkpt lat="45.97028" lon="4.77965">
        <ele>228</ele>
        <time>2018-10-31T10:06:21Z</time>
      </trkpt>
      <trkpt lat="45.97032" lon="4.7797">
        <ele>229</ele>
        <time>2018-10-31T10:06:22Z</time>
      </trkpt>
      <trkpt lat="45.97036" lon="4.77976">
        <ele>229</ele>
        <time>2018-10-31T10:06:23Z</time>
      </trkpt>
      <trkpt lat="45.97039" lon="4.7798">
        <ele>229</ele>
        <time>2018-10-31T10:06:24Z</time>
      </trkpt>
      <trkpt lat="45.97043" lon="4.77984">
        <ele>229</ele>
        <time>2018-10-31T10:06:25Z</time>
      </trkpt>
      <trkpt lat="45.97047" lon="4.77988">
        <ele>229</ele>
        <time>2018-10-31T10:06:26Z</time>
      </trkpt>
      <trkpt lat="45.97051" lon="4.77993">
        <ele>229</ele>
        <time>2018-10-31T10:06:27Z</time>
      </trkpt>
      <trkpt lat="45.97055" lon="4.77997">
        <ele>229</ele>
        <time>2018-10-31T10:06:28Z</time>
      </trkpt>
      <trkpt lat="45.97059" lon="4.78002">
        <ele>229</ele>
        <time>2018-10-31T10:06:29Z</time>
      </trkpt>
      <trkpt lat="45.97065" lon="4.78004">
        <ele>229</ele>
        <time>2018-10-31T10:06:30Z</time>
      </trkpt>
      <trkpt lat="45.97068" lon="4.78008">
        <ele>229</ele>
        <time>2018-10-31T10:06:31Z</time>
      </trkpt>
      <trkpt lat="45.97072" lon="4.78012">
        <ele>229</ele>
        <time>2018-10-31T10:06:32Z</time>
      </trkpt>
      <trkpt lat="45.97077" lon="4.78017">
        <ele>229</ele>
        <time>2018-10-31T10:06:33Z</time>
      </trkpt>
      <trkpt lat="45.97081" lon="4.78021">
        <ele>229</ele>
        <time>2018-10-31T10:06:34Z</time>
      </trkpt>
      <trkpt lat="45.97085" lon="4.78025">
        <ele>229</ele>
        <time>2018-10-31T10:06:35Z</time>
      </trkpt>
      <trkpt lat="45.97089" lon="4.78028">
        <ele>229</ele>
        <time>2018-10-31T10:06:36Z</time>
      </trkpt>
      <trkpt lat="45.97093" lon="4.78032">
        <ele>229</ele>
        <time>2018-10-31T10:06:37Z</time>
      </trkpt>
      <trkpt lat="45.97097" lon="4.78036">
        <ele>229</ele>
        <time>2018-10-31T10:06:38Z</time>
      </trkpt>
      <trkpt lat="45.97103" lon="4.7804">
        <ele>229</ele>
        <time>2018-10-31T10:06:39Z</time>
      </trkpt>
      <trkpt lat="45.97107" lon="4.78044">
        <ele>229</ele>
        <time>2018-10-31T10:06:40Z</time>
      </trkpt>
      <trkpt lat="45.97111" lon="4.78049">
        <ele>229</ele>
        <time>2018-10-31T10:06:41Z</time>
      </trkpt>
      <trkpt lat="45.97116" lon="4.78054">
        <ele>229</ele>
        <time>2018-10-31T10:06:42Z</time>
      </trkpt>
      <trkpt lat="45.9712" lon="4.7806">
        <ele>229</ele>
        <time>2018-10-31T10:06:43Z</time>
      </trkpt>
      <trkpt lat="45.97124" lon="4.78065">
        <ele>229</ele>
        <time>2018-10-31T10:06:44Z</time>
      </trkpt>
      <trkpt lat="45.97129" lon="4.7807">
        <ele>230</ele>
        <time>2018-10-31T10:06:45Z</time>
      </trkpt>
      <trkpt lat="45.97132" lon="4.78076">
        <ele>230</ele>
        <time>2018-10-31T10:06:46Z</time>
      </trkpt>
      <trkpt lat="45.97136" lon="4.7808">
        <ele>230</ele>
        <time>2018-10-31T10:06:47Z</time>
      </trkpt>
      <trkpt lat="45.9714" lon="4.78085">
        <ele>230</ele>
        <time>2018-10-31T10:06:48Z</time>
      </trkpt>
      <trkpt lat="45.97143" lon="4.7809">
        <ele>230</ele>
        <time>2018-10-31T10:06:49Z</time>
      </trkpt>
      <trkpt lat="45.97147" lon="4.78096">
        <ele>230</ele>
        <time>2018-10-31T10:06:50Z</time>
      </trkpt>
      <trkpt lat="45.9715" lon="4.78102">
        <ele>230</ele>
        <time>2018-10-31T10:06:51Z</time>
      </trkpt>
      <trkpt lat="45.97153" lon="4.78108">
        <ele>230</ele>
        <time>2018-10-31T10:06:52Z</time>
      </trkpt>
      <trkpt lat="45.97156" lon="4.78116">
        <ele>230</ele>
        <time>2018-10-31T10:06:53Z</time>
      </trkpt>
      <trkpt lat="45.97159" lon="4.78122">
        <ele>230</ele>
        <time>2018-10-31T10:06:54Z</time>
      </trkpt>
      <trkpt lat="45.97163" lon="4.78127">
        <ele>230</ele>
        <time>2018-10-31T10:06:55Z</time>
      </trkpt>
      <trkpt lat="45.97166" lon="4.78133">
        <ele>230</ele>
        <time>2018-10-31T10:06:56Z</time>
      </trkpt>
      <trkpt lat="45.97169" lon="4.78138">
        <ele>231</ele>
        <time>2018-10-31T10:06:57Z</time>
      </trkpt>
      <trkpt lat="45.97172" lon="4.78143">
        <ele>231</ele>
        <time>2018-10-31T10:06:58Z</time>
      </trkpt>
      <trkpt lat="45.97175" lon="4.78149">
        <ele>231</ele>
        <time>2018-10-31T10:06:59Z</time>
      </trkpt>
      <trkpt lat="45.97179" lon="4.78154">
        <ele>231</ele>
        <time>2018-10-31T10:07:00Z</time>
      </trkpt>
      <trkpt lat="45.97182" lon="4.7816">
        <ele>231</ele>
        <time>2018-10-31T10:07:01Z</time>
      </trkpt>
      <trkpt lat="45.97185" lon="4.78165">
        <ele>231</ele>
        <time>2018-10-31T10:07:02Z</time>
      </trkpt>
      <trkpt lat="45.97188" lon="4.78173">
        <ele>231</ele>
        <time>2018-10-31T10:07:03Z</time>
      </trkpt>
      <trkpt lat="45.97192" lon="4.78178">
        <ele>231</ele>
        <time>2018-10-31T10:07:04Z</time>
      </trkpt>
      <trkpt lat="45.97196" lon="4.78184">
        <ele>231</ele>
        <time>2018-10-31T10:07:05Z</time>
      </trkpt>
      <trkpt lat="45.97199" lon="4.78191">
        <ele>231</ele>
        <time>2018-10-31T10:07:06Z</time>
      </trkpt>
      <trkpt lat="45.97202" lon="4.78197">
        <ele>231</ele>
        <time>2018-10-31T10:07:07Z</time>
      </trkpt>
      <trkpt lat="45.97205" lon="4.78202">
        <ele>231</ele>
        <time>2018-10-31T10:07:08Z</time>
      </trkpt>
      <trkpt lat="45.97208" lon="4.78209">
        <ele>231</ele>
        <time>2018-10-31T10:07:09Z</time>
      </trkpt>
      <trkpt lat="45.97212" lon="4.78214">
        <ele>231</ele>
        <time>2018-10-31T10:07:10Z</time>
      </trkpt>
      <trkpt lat="45.97215" lon="4.7822">
        <ele>231</ele>
        <time>2018-10-31T10:07:11Z</time>
      </trkpt>
      <trkpt lat="45.97218" lon="4.78225">
        <ele>231</ele>
        <time>2018-10-31T10:07:12Z</time>
      </trkpt>
      <trkpt lat="45.97221" lon="4.78231">
        <ele>231</ele>
        <time>2018-10-31T10:07:13Z</time>
      </trkpt>
      <trkpt lat="45.97225" lon="4.78237">
        <ele>231</ele>
        <time>2018-10-31T10:07:14Z</time>
      </trkpt>
      <trkpt lat="45.97228" lon="4.78243">
        <ele>231</ele>
        <time>2018-10-31T10:07:15Z</time>
      </trkpt>
      <trkpt lat="45.97231" lon="4.78248">
        <ele>231</ele>
        <time>2018-10-31T10:07:16Z</time>
      </trkpt>
      <trkpt lat="45.97235" lon="4.78254">
        <ele>231</ele>
        <time>2018-10-31T10:07:17Z</time>
      </trkpt>
      <trkpt lat="45.97237" lon="4.7826">
        <ele>231</ele>
        <time>2018-10-31T10:07:18Z</time>
      </trkpt>
      <trkpt lat="45.97241" lon="4.78265">
        <ele>231</ele>
        <time>2018-10-31T10:07:19Z</time>
      </trkpt>
      <trkpt lat="45.97245" lon="4.7827">
        <ele>231</ele>
        <time>2018-10-31T10:07:20Z</time>
      </trkpt>
      <trkpt lat="45.97248" lon="4.78274">
        <ele>231</ele>
        <time>2018-10-31T10:07:21Z</time>
      </trkpt>
      <trkpt lat="45.97252" lon="4.7828">
        <ele>232</ele>
        <time>2018-10-31T10:07:22Z</time>
      </trkpt>
      <trkpt lat="45.97255" lon="4.78286">
        <ele>232</ele>
        <time>2018-10-31T10:07:23Z</time>
      </trkpt>
      <trkpt lat="45.97258" lon="4.78291">
        <ele>232</ele>
        <time>2018-10-31T10:07:24Z</time>
      </trkpt>
      <trkpt lat="45.97262" lon="4.78297">
        <ele>232</ele>
        <time>2018-10-31T10:07:25Z</time>
      </trkpt>
      <trkpt lat="45.97266" lon="4.78302">
        <ele>232</ele>
        <time>2018-10-31T10:07:26Z</time>
      </trkpt>
      <trkpt lat="45.9727" lon="4.78308">
        <ele>232</ele>
        <time>2018-10-31T10:07:27Z</time>
      </trkpt>
      <trkpt lat="45.97273" lon="4.78314">
        <ele>232</ele>
        <time>2018-10-31T10:07:28Z</time>
      </trkpt>
      <trkpt lat="45.97277" lon="4.78319">
        <ele>232</ele>
        <time>2018-10-31T10:07:29Z</time>
      </trkpt>
      <trkpt lat="45.97281" lon="4.78324">
        <ele>232</ele>
        <time>2018-10-31T10:07:30Z</time>
      </trkpt>
      <trkpt lat="45.97285" lon="4.78329">
        <ele>232</ele>
        <time>2018-10-31T10:07:31Z</time>
      </trkpt>
      <trkpt lat="45.97288" lon="4.78335">
        <ele>232</ele>
        <time>2018-10-31T10:07:32Z</time>
      </trkpt>
      <trkpt lat="45.97292" lon="4.78341">
        <ele>232</ele>
        <time>2018-10-31T10:07:33Z</time>
      </trkpt>
      <trkpt lat="45.97296" lon="4.78347">
        <ele>232</ele>
        <time>2018-10-31T10:07:34Z</time>
      </trkpt>
      <trkpt lat="45.97299" lon="4.78352">
        <ele>232</ele>
        <time>2018-10-31T10:07:35Z</time>
      </trkpt>
      <trkpt lat="45.97303" lon="4.78357">
        <ele>232</ele>
        <time>2018-10-31T10:07:36Z</time>
      </trkpt>
      <trkpt lat="45.97307" lon="4.78362">
        <ele>232</ele>
        <time>2018-10-31T10:07:37Z</time>
      </trkpt>
      <trkpt lat="45.97311" lon="4.78368">
        <ele>232</ele>
        <time>2018-10-31T10:07:38Z</time>
      </trkpt>
      <trkpt lat="45.97315" lon="4.78373">
        <ele>232</ele>
        <time>2018-10-31T10:07:39Z</time>
      </trkpt>
      <trkpt lat="45.9732" lon="4.78377">
        <ele>232</ele>
        <time>2018-10-31T10:07:40Z</time>
      </trkpt>
      <trkpt lat="45.97323" lon="4.78382">
        <ele>232</ele>
        <time>2018-10-31T10:07:41Z</time>
      </trkpt>
      <trkpt lat="45.97327" lon="4.78386">
        <ele>232</ele>
        <time>2018-10-31T10:07:42Z</time>
      </trkpt>
      <trkpt lat="45.97331" lon="4.78391">
        <ele>232</ele>
        <time>2018-10-31T10:07:43Z</time>
      </trkpt>
      <trkpt lat="45.97335" lon="4.78395">
        <ele>232</ele>
        <time>2018-10-31T10:07:44Z</time>
      </trkpt>
      <trkpt lat="45.97339" lon="4.78402">
        <ele>232</ele>
        <time>2018-10-31T10:07:45Z</time>
      </trkpt>
      <trkpt lat="45.97344" lon="4.78406">
        <ele>232</ele>
        <time>2018-10-31T10:07:46Z</time>
      </trkpt>
      <trkpt lat="45.97348" lon="4.7841">
        <ele>232</ele>
        <time>2018-10-31T10:07:47Z</time>
      </trkpt>
      <trkpt lat="45.97353" lon="4.78414">
        <ele>232</ele>
        <time>2018-10-31T10:07:48Z</time>
      </trkpt>
      <trkpt lat="45.97357" lon="4.78418">
        <ele>233</ele>
        <time>2018-10-31T10:07:49Z</time>
      </trkpt>
      <trkpt lat="45.97362" lon="4.78422">
        <ele>233</ele>
        <time>2018-10-31T10:07:50Z</time>
      </trkpt>
      <trkpt lat="45.97366" lon="4.78426">
        <ele>233</ele>
        <time>2018-10-31T10:07:51Z</time>
      </trkpt>
      <trkpt lat="45.9737" lon="4.7843">
        <ele>233</ele>
        <time>2018-10-31T10:07:52Z</time>
      </trkpt>
      <trkpt lat="45.97375" lon="4.78435">
        <ele>233</ele>
        <time>2018-10-31T10:07:53Z</time>
      </trkpt>
      <trkpt lat="45.97379" lon="4.78439">
        <ele>233</ele>
        <time>2018-10-31T10:07:54Z</time>
      </trkpt>
      <trkpt lat="45.97383" lon="4.78443">
        <ele>233</ele>
        <time>2018-10-31T10:07:55Z</time>
      </trkpt>
      <trkpt lat="45.97388" lon="4.78447">
        <ele>233</ele>
        <time>2018-10-31T10:07:56Z</time>
      </trkpt>
      <trkpt lat="45.97392" lon="4.78451">
        <ele>233</ele>
        <time>2018-10-31T10:07:57Z</time>
      </trkpt>
      <trkpt lat="45.97396" lon="4.78456">
        <ele>233</ele>
        <time>2018-10-31T10:07:58Z</time>
      </trkpt>
      <trkpt lat="45.97399" lon="4.7846">
        <ele>233</ele>
        <time>2018-10-31T10:07:59Z</time>
      </trkpt>
      <trkpt lat="45.97404" lon="4.78465">
        <ele>233</ele>
        <time>2018-10-31T10:08:00Z</time>
      </trkpt>
      <trkpt lat="45.97408" lon="4.78468">
        <ele>233</ele>
        <time>2018-10-31T10:08:01Z</time>
      </trkpt>
      <trkpt lat="45.97412" lon="4.78471">
        <ele>233</ele>
        <time>2018-10-31T10:08:02Z</time>
      </trkpt>
      <trkpt lat="45.97417" lon="4.78475">
        <ele>233</ele>
        <time>2018-10-31T10:08:03Z</time>
      </trkpt>
      <trkpt lat="45.97421" lon="4.7848">
        <ele>234</ele>
        <time>2018-10-31T10:08:04Z</time>
      </trkpt>
      <trkpt lat="45.97428" lon="4.78485">
        <ele>234</ele>
        <time>2018-10-31T10:08:05Z</time>
      </trkpt>
      <trkpt lat="45.97433" lon="4.78488">
        <ele>234</ele>
        <time>2018-10-31T10:08:06Z</time>
      </trkpt>
      <trkpt lat="45.97437" lon="4.78492">
        <ele>234</ele>
        <time>2018-10-31T10:08:07Z</time>
      </trkpt>
      <trkpt lat="45.97441" lon="4.78496">
        <ele>234</ele>
        <time>2018-10-31T10:08:08Z</time>
      </trkpt>
      <trkpt lat="45.97446" lon="4.785">
        <ele>234</ele>
        <time>2018-10-31T10:08:09Z</time>
      </trkpt>
      <trkpt lat="45.9745" lon="4.78504">
        <ele>234</ele>
        <time>2018-10-31T10:08:10Z</time>
      </trkpt>
      <trkpt lat="45.97454" lon="4.78508">
        <ele>234</ele>
        <time>2018-10-31T10:08:11Z</time>
      </trkpt>
      <trkpt lat="45.97458" lon="4.78512">
        <ele>233</ele>
        <time>2018-10-31T10:08:12Z</time>
      </trkpt>
      <trkpt lat="45.97463" lon="4.78516">
        <ele>233</ele>
        <time>2018-10-31T10:08:13Z</time>
      </trkpt>
      <trkpt lat="45.97468" lon="4.7852">
        <ele>233</ele>
        <time>2018-10-31T10:08:14Z</time>
      </trkpt>
      <trkpt lat="45.97472" lon="4.78523">
        <ele>233</ele>
        <time>2018-10-31T10:08:15Z</time>
      </trkpt>
      <trkpt lat="45.9748" lon="4.78527">
        <ele>233</ele>
        <time>2018-10-31T10:08:16Z</time>
      </trkpt>
      <trkpt lat="45.97484" lon="4.78531">
        <ele>233</ele>
        <time>2018-10-31T10:08:17Z</time>
      </trkpt>
      <trkpt lat="45.97489" lon="4.78536">
        <ele>233</ele>
        <time>2018-10-31T10:08:18Z</time>
      </trkpt>
      <trkpt lat="45.97493" lon="4.78539">
        <ele>233</ele>
        <time>2018-10-31T10:08:19Z</time>
      </trkpt>
      <trkpt lat="45.97498" lon="4.78543">
        <ele>233</ele>
        <time>2018-10-31T10:08:20Z</time>
      </trkpt>
      <trkpt lat="45.97502" lon="4.78546">
        <ele>234</ele>
        <time>2018-10-31T10:08:21Z</time>
      </trkpt>
      <trkpt lat="45.97507" lon="4.7855">
        <ele>234</ele>
        <time>2018-10-31T10:08:22Z</time>
      </trkpt>
      <trkpt lat="45.97513" lon="4.78554">
        <ele>234</ele>
        <time>2018-10-31T10:08:23Z</time>
      </trkpt>
      <trkpt lat="45.97517" lon="4.78557">
        <ele>234</ele>
        <time>2018-10-31T10:08:24Z</time>
      </trkpt>
      <trkpt lat="45.97522" lon="4.78559">
        <ele>234</ele>
        <time>2018-10-31T10:08:25Z</time>
      </trkpt>
      <trkpt lat="45.97527" lon="4.78562">
        <ele>234</ele>
        <time>2018-10-31T10:08:26Z</time>
      </trkpt>
      <trkpt lat="45.97532" lon="4.78565">
        <ele>234</ele>
        <time>2018-10-31T10:08:27Z</time>
      </trkpt>
      <trkpt lat="45.97537" lon="4.78567">
        <ele>234</ele>
        <time>2018-10-31T10:08:28Z</time>
      </trkpt>
      <trkpt lat="45.97542" lon="4.78569">
        <ele>234</ele>
        <time>2018-10-31T10:08:29Z</time>
      </trkpt>
      <trkpt lat="45.97547" lon="4.78571">
        <ele>234</ele>
        <time>2018-10-31T10:08:30Z</time>
      </trkpt>
      <trkpt lat="45.97552" lon="4.78573">
        <ele>233</ele>
        <time>2018-10-31T10:08:31Z</time>
      </trkpt>
      <trkpt lat="45.97557" lon="4.78574">
        <ele>233</ele>
        <time>2018-10-31T10:08:32Z</time>
      </trkpt>
      <trkpt lat="45.97562" lon="4.78576">
        <ele>233</ele>
        <time>2018-10-31T10:08:33Z</time>
      </trkpt>
      <trkpt lat="45.97567" lon="4.78577">
        <ele>233</ele>
        <time>2018-10-31T10:08:34Z</time>
      </trkpt>
      <trkpt lat="45.97571" lon="4.78579">
        <ele>233</ele>
        <time>2018-10-31T10:08:35Z</time>
      </trkpt>
      <trkpt lat="45.97576" lon="4.7858">
        <ele>233</ele>
        <time>2018-10-31T10:08:36Z</time>
      </trkpt>
      <trkpt lat="45.97581" lon="4.78582">
        <ele>233</ele>
        <time>2018-10-31T10:08:37Z</time>
      </trkpt>
      <trkpt lat="45.97586" lon="4.78584">
        <ele>233</ele>
        <time>2018-10-31T10:08:38Z</time>
      </trkpt>
      <trkpt lat="45.9759" lon="4.78585">
        <ele>233</ele>
        <time>2018-10-31T10:08:39Z</time>
      </trkpt>
      <trkpt lat="45.97595" lon="4.78587">
        <ele>233</ele>
        <time>2018-10-31T10:08:40Z</time>
      </trkpt>
      <trkpt lat="45.976" lon="4.78588">
        <ele>233</ele>
        <time>2018-10-31T10:08:41Z</time>
      </trkpt>
      <trkpt lat="45.97605" lon="4.78591">
        <ele>233</ele>
        <time>2018-10-31T10:08:42Z</time>
      </trkpt>
      <trkpt lat="45.9761" lon="4.78593">
        <ele>233</ele>
        <time>2018-10-31T10:08:43Z</time>
      </trkpt>
      <trkpt lat="45.97615" lon="4.78595">
        <ele>233</ele>
        <time>2018-10-31T10:08:44Z</time>
      </trkpt>
      <trkpt lat="45.9762" lon="4.78598">
        <ele>233</ele>
        <time>2018-10-31T10:08:45Z</time>
      </trkpt>
      <trkpt lat="45.97625" lon="4.78599">
        <ele>233</ele>
        <time>2018-10-31T10:08:46Z</time>
      </trkpt>
      <trkpt lat="45.97629" lon="4.78602">
        <ele>233</ele>
        <time>2018-10-31T10:08:47Z</time>
      </trkpt>
      <trkpt lat="45.97634" lon="4.78603">
        <ele>233</ele>
        <time>2018-10-31T10:08:48Z</time>
      </trkpt>
      <trkpt lat="45.97639" lon="4.78606">
        <ele>233</ele>
        <time>2018-10-31T10:08:49Z</time>
      </trkpt>
      <trkpt lat="45.97643" lon="4.78608">
        <ele>233</ele>
        <time>2018-10-31T10:08:50Z</time>
      </trkpt>
      <trkpt lat="45.97647" lon="4.78611">
        <ele>233</ele>
        <time>2018-10-31T10:08:51Z</time>
      </trkpt>
      <trkpt lat="45.97652" lon="4.78613">
        <ele>233</ele>
        <time>2018-10-31T10:08:52Z</time>
      </trkpt>
      <trkpt lat="45.97658" lon="4.78615">
        <ele>233</ele>
        <time>2018-10-31T10:08:53Z</time>
      </trkpt>
      <trkpt lat="45.97663" lon="4.78618">
        <ele>233</ele>
        <time>2018-10-31T10:08:54Z</time>
      </trkpt>
      <trkpt lat="45.97667" lon="4.78618">
        <ele>234</ele>
        <time>2018-10-31T10:08:55Z</time>
      </trkpt>
      <trkpt lat="45.97672" lon="4.78621">
        <ele>234</ele>
        <time>2018-10-31T10:08:56Z</time>
      </trkpt>
      <trkpt lat="45.97676" lon="4.78623">
        <ele>234</ele>
        <time>2018-10-31T10:08:57Z</time>
      </trkpt>
      <trkpt lat="45.97681" lon="4.78625">
        <ele>234</ele>
        <time>2018-10-31T10:08:58Z</time>
      </trkpt>
      <trkpt lat="45.97688" lon="4.78627">
        <ele>234</ele>
        <time>2018-10-31T10:08:59Z</time>
      </trkpt>
      <trkpt lat="45.97694" lon="4.7863">
        <ele>234</ele>
        <time>2018-10-31T10:09:00Z</time>
      </trkpt>
      <trkpt lat="45.97699" lon="4.78632">
        <ele>234</ele>
        <time>2018-10-31T10:09:01Z</time>
      </trkpt>
      <trkpt lat="45.97704" lon="4.78635">
        <ele>234</ele>
        <time>2018-10-31T10:09:02Z</time>
      </trkpt>
      <trkpt lat="45.97711" lon="4.78636">
        <ele>234</ele>
        <time>2018-10-31T10:09:03Z</time>
      </trkpt>
      <trkpt lat="45.97715" lon="4.78638">
        <ele>234</ele>
        <time>2018-10-31T10:09:04Z</time>
      </trkpt>
      <trkpt lat="45.9772" lon="4.78641">
        <ele>234</ele>
        <time>2018-10-31T10:09:05Z</time>
      </trkpt>
      <trkpt lat="45.97724" lon="4.78643">
        <ele>234</ele>
        <time>2018-10-31T10:09:06Z</time>
      </trkpt>
      <trkpt lat="45.97729" lon="4.78645">
        <ele>234</ele>
        <time>2018-10-31T10:09:07Z</time>
      </trkpt>
      <trkpt lat="45.97733" lon="4.78647">
        <ele>234</ele>
        <time>2018-10-31T10:09:08Z</time>
      </trkpt>
      <trkpt lat="45.97738" lon="4.78649">
        <ele>234</ele>
        <time>2018-10-31T10:09:09Z</time>
      </trkpt>
      <trkpt lat="45.97743" lon="4.78651">
        <ele>234</ele>
        <time>2018-10-31T10:09:10Z</time>
      </trkpt>
      <trkpt lat="45.97748" lon="4.78654">
        <ele>234</ele>
        <time>2018-10-31T10:09:11Z</time>
      </trkpt>
      <trkpt lat="45.97753" lon="4.78656">
        <ele>235</ele>
        <time>2018-10-31T10:09:12Z</time>
      </trkpt>
      <trkpt lat="45.97758" lon="4.78659">
        <ele>235</ele>
        <time>2018-10-31T10:09:13Z</time>
      </trkpt>
      <trkpt lat="45.97763" lon="4.78662">
        <ele>235</ele>
        <time>2018-10-31T10:09:14Z</time>
      </trkpt>
      <trkpt lat="45.97768" lon="4.78664">
        <ele>235</ele>
        <time>2018-10-31T10:09:15Z</time>
      </trkpt>
      <trkpt lat="45.97772" lon="4.78666">
        <ele>235</ele>
        <time>2018-10-31T10:09:16Z</time>
      </trkpt>
      <trkpt lat="45.97777" lon="4.78668">
        <ele>235</ele>
        <time>2018-10-31T10:09:17Z</time>
      </trkpt>
      <trkpt lat="45.97785" lon="4.78671">
        <ele>235</ele>
        <time>2018-10-31T10:09:19Z</time>
      </trkpt>
      <trkpt lat="45.97789" lon="4.78673">
        <ele>235</ele>
        <time>2018-10-31T10:09:20Z</time>
      </trkpt>
      <trkpt lat="45.97793" lon="4.78676">
        <ele>235</ele>
        <time>2018-10-31T10:09:21Z</time>
      </trkpt>
      <trkpt lat="45.97798" lon="4.78678">
        <ele>235</ele>
        <time>2018-10-31T10:09:22Z</time>
      </trkpt>
      <trkpt lat="45.97803" lon="4.7868">
        <ele>235</ele>
        <time>2018-10-31T10:09:23Z</time>
      </trkpt>
      <trkpt lat="45.97807" lon="4.78682">
        <ele>235</ele>
        <time>2018-10-31T10:09:24Z</time>
      </trkpt>
      <trkpt lat="45.97812" lon="4.78683">
        <ele>235</ele>
        <time>2018-10-31T10:09:25Z</time>
      </trkpt>
      <trkpt lat="45.97817" lon="4.78686">
        <ele>235</ele>
        <time>2018-10-31T10:09:26Z</time>
      </trkpt>
      <trkpt lat="45.97821" lon="4.78687">
        <ele>235</ele>
        <time>2018-10-31T10:09:27Z</time>
      </trkpt>
      <trkpt lat="45.97826" lon="4.78689">
        <ele>235</ele>
        <time>2018-10-31T10:09:28Z</time>
      </trkpt>
      <trkpt lat="45.97831" lon="4.78692">
        <ele>235</ele>
        <time>2018-10-31T10:09:29Z</time>
      </trkpt>
      <trkpt lat="45.97836" lon="4.78694">
        <ele>236</ele>
        <time>2018-10-31T10:09:30Z</time>
      </trkpt>
      <trkpt lat="45.9784" lon="4.78698">
        <ele>236</ele>
        <time>2018-10-31T10:09:31Z</time>
      </trkpt>
      <trkpt lat="45.97844" lon="4.78701">
        <ele>236</ele>
        <time>2018-10-31T10:09:32Z</time>
      </trkpt>
      <trkpt lat="45.9785" lon="4.78703">
        <ele>236</ele>
        <time>2018-10-31T10:09:33Z</time>
      </trkpt>
      <trkpt lat="45.97855" lon="4.78706">
        <ele>236</ele>
        <time>2018-10-31T10:09:34Z</time>
      </trkpt>
      <trkpt lat="45.9786" lon="4.78709">
        <ele>236</ele>
        <time>2018-10-31T10:09:35Z</time>
      </trkpt>
      <trkpt lat="45.97865" lon="4.78712">
        <ele>236</ele>
        <time>2018-10-31T10:09:36Z</time>
      </trkpt>
      <trkpt lat="45.97872" lon="4.78719">
        <ele>236</ele>
        <time>2018-10-31T10:09:38Z</time>
      </trkpt>
      <trkpt lat="45.97876" lon="4.78723">
        <ele>236</ele>
        <time>2018-10-31T10:09:39Z</time>
      </trkpt>
      <trkpt lat="45.9788" lon="4.78725">
        <ele>236</ele>
        <time>2018-10-31T10:09:40Z</time>
      </trkpt>
      <trkpt lat="45.97884" lon="4.78728">
        <ele>236</ele>
        <time>2018-10-31T10:09:41Z</time>
      </trkpt>
      <trkpt lat="45.97889" lon="4.78731">
        <ele>236</ele>
        <time>2018-10-31T10:09:42Z</time>
      </trkpt>
      <trkpt lat="45.97893" lon="4.78734">
        <ele>236</ele>
        <time>2018-10-31T10:09:43Z</time>
      </trkpt>
      <trkpt lat="45.97898" lon="4.78737">
        <ele>237</ele>
        <time>2018-10-31T10:09:44Z</time>
      </trkpt>
      <trkpt lat="45.97902" lon="4.78741">
        <ele>237</ele>
        <time>2018-10-31T10:09:45Z</time>
      </trkpt>
      <trkpt lat="45.97908" lon="4.78743">
        <ele>237</ele>
        <time>2018-10-31T10:09:46Z</time>
      </trkpt>
      <trkpt lat="45.97913" lon="4.78746">
        <ele>237</ele>
        <time>2018-10-31T10:09:47Z</time>
      </trkpt>
      <trkpt lat="45.97917" lon="4.78749">
        <ele>237</ele>
        <time>2018-10-31T10:09:48Z</time>
      </trkpt>
      <trkpt lat="45.97922" lon="4.78752">
        <ele>237</ele>
        <time>2018-10-31T10:09:49Z</time>
      </trkpt>
      <trkpt lat="45.97927" lon="4.78756">
        <ele>237</ele>
        <time>2018-10-31T10:09:50Z</time>
      </trkpt>
      <trkpt lat="45.97931" lon="4.78759">
        <ele>238</ele>
        <time>2018-10-31T10:09:51Z</time>
      </trkpt>
      <trkpt lat="45.97936" lon="4.78764">
        <ele>238</ele>
        <time>2018-10-31T10:09:52Z</time>
      </trkpt>
      <trkpt lat="45.97941" lon="4.78767">
        <ele>238</ele>
        <time>2018-10-31T10:09:53Z</time>
      </trkpt>
      <trkpt lat="45.97946" lon="4.7877">
        <ele>238</ele>
        <time>2018-10-31T10:09:54Z</time>
      </trkpt>
      <trkpt lat="45.9795" lon="4.78773">
        <ele>238</ele>
        <time>2018-10-31T10:09:55Z</time>
      </trkpt>
      <trkpt lat="45.97955" lon="4.78777">
        <ele>238</ele>
        <time>2018-10-31T10:09:56Z</time>
      </trkpt>
      <trkpt lat="45.97959" lon="4.7878">
        <ele>238</ele>
        <time>2018-10-31T10:09:57Z</time>
      </trkpt>
      <trkpt lat="45.97967" lon="4.78785">
        <ele>238</ele>
        <time>2018-10-31T10:09:59Z</time>
      </trkpt>
      <trkpt lat="45.9797" lon="4.78787">
        <ele>238</ele>
        <time>2018-10-31T10:10:00Z</time>
      </trkpt>
      <trkpt lat="45.97974" lon="4.7879">
        <ele>238</ele>
        <time>2018-10-31T10:10:01Z</time>
      </trkpt>
      <trkpt lat="45.97978" lon="4.78793">
        <ele>238</ele>
        <time>2018-10-31T10:10:02Z</time>
      </trkpt>
      <trkpt lat="45.97985" lon="4.78798">
        <ele>238</ele>
        <time>2018-10-31T10:10:04Z</time>
      </trkpt>
      <trkpt lat="45.97989" lon="4.788">
        <ele>238</ele>
        <time>2018-10-31T10:10:05Z</time>
      </trkpt>
      <trkpt lat="45.97993" lon="4.78804">
        <ele>238</ele>
        <time>2018-10-31T10:10:06Z</time>
      </trkpt>
      <trkpt lat="45.97997" lon="4.78807">
        <ele>238</ele>
        <time>2018-10-31T10:10:07Z</time>
      </trkpt>
      <trkpt lat="45.98001" lon="4.78809">
        <ele>238</ele>
        <time>2018-10-31T10:10:08Z</time>
      </trkpt>
      <trkpt lat="45.98006" lon="4.78813">
        <ele>238</ele>
        <time>2018-10-31T10:10:09Z</time>
      </trkpt>
      <trkpt lat="45.9801" lon="4.78816">
        <ele>238</ele>
        <time>2018-10-31T10:10:10Z</time>
      </trkpt>
      <trkpt lat="45.98014" lon="4.78819">
        <ele>238</ele>
        <time>2018-10-31T10:10:11Z</time>
      </trkpt>
      <trkpt lat="45.98019" lon="4.78823">
        <ele>238</ele>
        <time>2018-10-31T10:10:12Z</time>
      </trkpt>
      <trkpt lat="45.98022" lon="4.78827">
        <ele>238</ele>
        <time>2018-10-31T10:10:13Z</time>
      </trkpt>
      <trkpt lat="45.98026" lon="4.78829">
        <ele>238</ele>
        <time>2018-10-31T10:10:14Z</time>
      </trkpt>
      <trkpt lat="45.98031" lon="4.78832">
        <ele>238</ele>
        <time>2018-10-31T10:10:15Z</time>
      </trkpt>
      <trkpt lat="45.98036" lon="4.78835">
        <ele>238</ele>
        <time>2018-10-31T10:10:16Z</time>
      </trkpt>
      <trkpt lat="45.9804" lon="4.78839">
        <ele>238</ele>
        <time>2018-10-31T10:10:17Z</time>
      </trkpt>
      <trkpt lat="45.98045" lon="4.78843">
        <ele>239</ele>
        <time>2018-10-31T10:10:18Z</time>
      </trkpt>
      <trkpt lat="45.9805" lon="4.78845">
        <ele>239</ele>
        <time>2018-10-31T10:10:19Z</time>
      </trkpt>
      <trkpt lat="45.98054" lon="4.78849">
        <ele>239</ele>
        <time>2018-10-31T10:10:20Z</time>
      </trkpt>
      <trkpt lat="45.98059" lon="4.78852">
        <ele>239</ele>
        <time>2018-10-31T10:10:21Z</time>
      </trkpt>
      <trkpt lat="45.98066" lon="4.78855">
        <ele>239</ele>
        <time>2018-10-31T10:10:23Z</time>
      </trkpt>
      <trkpt lat="45.9807" lon="4.78858">
        <ele>239</ele>
        <time>2018-10-31T10:10:24Z</time>
      </trkpt>
      <trkpt lat="45.98074" lon="4.78861">
        <ele>239</ele>
        <time>2018-10-31T10:10:25Z</time>
      </trkpt>
      <trkpt lat="45.98078" lon="4.78864">
        <ele>239</ele>
        <time>2018-10-31T10:10:26Z</time>
      </trkpt>
      <trkpt lat="45.98086" lon="4.7887">
        <ele>239</ele>
        <time>2018-10-31T10:10:28Z</time>
      </trkpt>
      <trkpt lat="45.9809" lon="4.78872">
        <ele>239</ele>
        <time>2018-10-31T10:10:29Z</time>
      </trkpt>
      <trkpt lat="45.98094" lon="4.78876">
        <ele>240</ele>
        <time>2018-10-31T10:10:30Z</time>
      </trkpt>
      <trkpt lat="45.98098" lon="4.78879">
        <ele>240</ele>
        <time>2018-10-31T10:10:31Z</time>
      </trkpt>
      <trkpt lat="45.98103" lon="4.78881">
        <ele>240</ele>
        <time>2018-10-31T10:10:32Z</time>
      </trkpt>
      <trkpt lat="45.98107" lon="4.78884">
        <ele>240</ele>
        <time>2018-10-31T10:10:33Z</time>
      </trkpt>
      <trkpt lat="45.98112" lon="4.78886">
        <ele>240</ele>
        <time>2018-10-31T10:10:34Z</time>
      </trkpt>
      <trkpt lat="45.98117" lon="4.78889">
        <ele>240</ele>
        <time>2018-10-31T10:10:35Z</time>
      </trkpt>
      <trkpt lat="45.98121" lon="4.78892">
        <ele>240</ele>
        <time>2018-10-31T10:10:36Z</time>
      </trkpt>
      <trkpt lat="45.98126" lon="4.78896">
        <ele>240</ele>
        <time>2018-10-31T10:10:37Z</time>
      </trkpt>
      <trkpt lat="45.98133" lon="4.78897">
        <ele>240</ele>
        <time>2018-10-31T10:10:38Z</time>
      </trkpt>
      <trkpt lat="45.98137" lon="4.78899">
        <ele>240</ele>
        <time>2018-10-31T10:10:39Z</time>
      </trkpt>
      <trkpt lat="45.98145" lon="4.78904">
        <ele>240</ele>
        <time>2018-10-31T10:10:41Z</time>
      </trkpt>
      <trkpt lat="45.98149" lon="4.78907">
        <ele>240</ele>
        <time>2018-10-31T10:10:42Z</time>
      </trkpt>
      <trkpt lat="45.98157" lon="4.78911">
        <ele>240</ele>
        <time>2018-10-31T10:10:44Z</time>
      </trkpt>
      <trkpt lat="45.9816" lon="4.78913">
        <ele>240</ele>
        <time>2018-10-31T10:10:45Z</time>
      </trkpt>
      <trkpt lat="45.98164" lon="4.78915">
        <ele>240</ele>
        <time>2018-10-31T10:10:46Z</time>
      </trkpt>
      <trkpt lat="45.98169" lon="4.78917">
        <ele>240</ele>
        <time>2018-10-31T10:10:47Z</time>
      </trkpt>
      <trkpt lat="45.98176" lon="4.78923">
        <ele>240</ele>
        <time>2018-10-31T10:10:49Z</time>
      </trkpt>
      <trkpt lat="45.98181" lon="4.78926">
        <ele>240</ele>
        <time>2018-10-31T10:10:50Z</time>
      </trkpt>
      <trkpt lat="45.98189" lon="4.7893">
        <ele>241</ele>
        <time>2018-10-31T10:10:52Z</time>
      </trkpt>
      <trkpt lat="45.98192" lon="4.78937">
        <ele>241</ele>
        <time>2018-10-31T10:10:53Z</time>
      </trkpt>
      <trkpt lat="45.98196" lon="4.7894">
        <ele>241</ele>
        <time>2018-10-31T10:10:54Z</time>
      </trkpt>
      <trkpt lat="45.98202" lon="4.78943">
        <ele>241</ele>
        <time>2018-10-31T10:10:55Z</time>
      </trkpt>
      <trkpt lat="45.98207" lon="4.78946">
        <ele>241</ele>
        <time>2018-10-31T10:10:56Z</time>
      </trkpt>
      <trkpt lat="45.98213" lon="4.78949">
        <ele>241</ele>
        <time>2018-10-31T10:10:57Z</time>
      </trkpt>
      <trkpt lat="45.98222" lon="4.78953">
        <ele>241</ele>
        <time>2018-10-31T10:10:59Z</time>
      </trkpt>
      <trkpt lat="45.98226" lon="4.78956">
        <ele>241</ele>
        <time>2018-10-31T10:11:00Z</time>
      </trkpt>
      <trkpt lat="45.98231" lon="4.78959">
        <ele>241</ele>
        <time>2018-10-31T10:11:01Z</time>
      </trkpt>
      <trkpt lat="45.98236" lon="4.7896">
        <ele>241</ele>
        <time>2018-10-31T10:11:02Z</time>
      </trkpt>
      <trkpt lat="45.9824" lon="4.78963">
        <ele>241</ele>
        <time>2018-10-31T10:11:03Z</time>
      </trkpt>
      <trkpt lat="45.98245" lon="4.78966">
        <ele>241</ele>
        <time>2018-10-31T10:11:04Z</time>
      </trkpt>
      <trkpt lat="45.98249" lon="4.78969">
        <ele>241</ele>
        <time>2018-10-31T10:11:05Z</time>
      </trkpt>
      <trkpt lat="45.98254" lon="4.78971">
        <ele>241</ele>
        <time>2018-10-31T10:11:06Z</time>
      </trkpt>
      <trkpt lat="45.98261" lon="4.78975">
        <ele>241</ele>
        <time>2018-10-31T10:11:08Z</time>
      </trkpt>
      <trkpt lat="45.98265" lon="4.78976">
        <ele>241</ele>
        <time>2018-10-31T10:11:09Z</time>
      </trkpt>
      <trkpt lat="45.98271" lon="4.78981">
        <ele>241</ele>
        <time>2018-10-31T10:11:11Z</time>
      </trkpt>
      <trkpt lat="45.98274" lon="4.7898">
        <ele>241</ele>
        <time>2018-10-31T10:11:12Z</time>
      </trkpt>
      <trkpt lat="45.98281" lon="4.78984">
        <ele>241</ele>
        <time>2018-10-31T10:11:14Z</time>
      </trkpt>
      <trkpt lat="45.98286" lon="4.78988">
        <ele>241</ele>
        <time>2018-10-31T10:11:15Z</time>
      </trkpt>
      <trkpt lat="45.98293" lon="4.7899">
        <ele>241</ele>
        <time>2018-10-31T10:11:16Z</time>
      </trkpt>
      <trkpt lat="45.98296" lon="4.78992">
        <ele>241</ele>
        <time>2018-10-31T10:11:17Z</time>
      </trkpt>
      <trkpt lat="45.983" lon="4.78994">
        <ele>241</ele>
        <time>2018-10-31T10:11:18Z</time>
      </trkpt>
      <trkpt lat="45.98305" lon="4.78996">
        <ele>241</ele>
        <time>2018-10-31T10:11:19Z</time>
      </trkpt>
      <trkpt lat="45.98313" lon="4.79001">
        <ele>242</ele>
        <time>2018-10-31T10:11:21Z</time>
      </trkpt>
      <trkpt lat="45.98317" lon="4.79004">
        <ele>242</ele>
        <time>2018-10-31T10:11:22Z</time>
      </trkpt>
      <trkpt lat="45.98321" lon="4.79007">
        <ele>242</ele>
        <time>2018-10-31T10:11:23Z</time>
      </trkpt>
      <trkpt lat="45.98326" lon="4.79011">
        <ele>242</ele>
        <time>2018-10-31T10:11:24Z</time>
      </trkpt>
      <trkpt lat="45.9833" lon="4.79015">
        <ele>242</ele>
        <time>2018-10-31T10:11:25Z</time>
      </trkpt>
      <trkpt lat="45.98335" lon="4.79019">
        <ele>242</ele>
        <time>2018-10-31T10:11:26Z</time>
      </trkpt>
      <trkpt lat="45.9834" lon="4.79022">
        <ele>242</ele>
        <time>2018-10-31T10:11:27Z</time>
      </trkpt>
      <trkpt lat="45.98344" lon="4.79026">
        <ele>242</ele>
        <time>2018-10-31T10:11:28Z</time>
      </trkpt>
      <trkpt lat="45.98348" lon="4.79031">
        <ele>242</ele>
        <time>2018-10-31T10:11:29Z</time>
      </trkpt>
      <trkpt lat="45.98352" lon="4.79036">
        <ele>242</ele>
        <time>2018-10-31T10:11:30Z</time>
      </trkpt>
      <trkpt lat="45.98355" lon="4.79041">
        <ele>242</ele>
        <time>2018-10-31T10:11:31Z</time>
      </trkpt>
      <trkpt lat="45.98358" lon="4.79046">
        <ele>242</ele>
        <time>2018-10-31T10:11:32Z</time>
      </trkpt>
      <trkpt lat="45.98362" lon="4.79051">
        <ele>242</ele>
        <time>2018-10-31T10:11:33Z</time>
      </trkpt>
      <trkpt lat="45.98365" lon="4.79056">
        <ele>242</ele>
        <time>2018-10-31T10:11:34Z</time>
      </trkpt>
      <trkpt lat="45.98368" lon="4.79062">
        <ele>242</ele>
        <time>2018-10-31T10:11:35Z</time>
      </trkpt>
      <trkpt lat="45.98371" lon="4.79069">
        <ele>242</ele>
        <time>2018-10-31T10:11:36Z</time>
      </trkpt>
      <trkpt lat="45.98374" lon="4.79074">
        <ele>242</ele>
        <time>2018-10-31T10:11:37Z</time>
      </trkpt>
      <trkpt lat="45.98377" lon="4.79079">
        <ele>242</ele>
        <time>2018-10-31T10:11:38Z</time>
      </trkpt>
      <trkpt lat="45.98379" lon="4.79084">
        <ele>242</ele>
        <time>2018-10-31T10:11:39Z</time>
      </trkpt>
      <trkpt lat="45.98383" lon="4.7909">
        <ele>242</ele>
        <time>2018-10-31T10:11:40Z</time>
      </trkpt>
      <trkpt lat="45.98388" lon="4.791">
        <ele>242</ele>
        <time>2018-10-31T10:11:42Z</time>
      </trkpt>
      <trkpt lat="45.98391" lon="4.79106">
        <ele>242</ele>
        <time>2018-10-31T10:11:43Z</time>
      </trkpt>
      <trkpt lat="45.98394" lon="4.79111">
        <ele>242</ele>
        <time>2018-10-31T10:11:44Z</time>
      </trkpt>
      <trkpt lat="45.98397" lon="4.79117">
        <ele>242</ele>
        <time>2018-10-31T10:11:45Z</time>
      </trkpt>
      <trkpt lat="45.98402" lon="4.79126">
        <ele>242</ele>
        <time>2018-10-31T10:11:47Z</time>
      </trkpt>
      <trkpt lat="45.98405" lon="4.79131">
        <ele>242</ele>
        <time>2018-10-31T10:11:48Z</time>
      </trkpt>
      <trkpt lat="45.98409" lon="4.79141">
        <ele>242</ele>
        <time>2018-10-31T10:11:50Z</time>
      </trkpt>
      <trkpt lat="45.98412" lon="4.79145">
        <ele>242</ele>
        <time>2018-10-31T10:11:51Z</time>
      </trkpt>
      <trkpt lat="45.98417" lon="4.79154">
        <ele>242</ele>
        <time>2018-10-31T10:11:53Z</time>
      </trkpt>
      <trkpt lat="45.98419" lon="4.7916">
        <ele>242</ele>
        <time>2018-10-31T10:11:54Z</time>
      </trkpt>
      <trkpt lat="45.98422" lon="4.79166">
        <ele>242</ele>
        <time>2018-10-31T10:11:55Z</time>
      </trkpt>
      <trkpt lat="45.98425" lon="4.7917">
        <ele>242</ele>
        <time>2018-10-31T10:11:56Z</time>
      </trkpt>
      <trkpt lat="45.98431" lon="4.7918">
        <ele>242</ele>
        <time>2018-10-31T10:11:58Z</time>
      </trkpt>
      <trkpt lat="45.98434" lon="4.79185">
        <ele>242</ele>
        <time>2018-10-31T10:11:59Z</time>
      </trkpt>
      <trkpt lat="45.98439" lon="4.79196">
        <ele>242</ele>
        <time>2018-10-31T10:12:01Z</time>
      </trkpt>
      <trkpt lat="45.98442" lon="4.79201">
        <ele>242</ele>
        <time>2018-10-31T10:12:02Z</time>
      </trkpt>
      <trkpt lat="45.98445" lon="4.79207">
        <ele>242</ele>
        <time>2018-10-31T10:12:03Z</time>
      </trkpt>
      <trkpt lat="45.98448" lon="4.79212">
        <ele>242</ele>
        <time>2018-10-31T10:12:04Z</time>
      </trkpt>
      <trkpt lat="45.9845" lon="4.79218">
        <ele>242</ele>
        <time>2018-10-31T10:12:05Z</time>
      </trkpt>
      <trkpt lat="45.98453" lon="4.79224">
        <ele>243</ele>
        <time>2018-10-31T10:12:06Z</time>
      </trkpt>
      <trkpt lat="45.98455" lon="4.7923">
        <ele>243</ele>
        <time>2018-10-31T10:12:07Z</time>
      </trkpt>
      <trkpt lat="45.98458" lon="4.79235">
        <ele>243</ele>
        <time>2018-10-31T10:12:08Z</time>
      </trkpt>
      <trkpt lat="45.98461" lon="4.79241">
        <ele>243</ele>
        <time>2018-10-31T10:12:09Z</time>
      </trkpt>
      <trkpt lat="45.98464" lon="4.79248">
        <ele>243</ele>
        <time>2018-10-31T10:12:10Z</time>
      </trkpt>
      <trkpt lat="45.98467" lon="4.79253">
        <ele>243</ele>
        <time>2018-10-31T10:12:11Z</time>
      </trkpt>
      <trkpt lat="45.98469" lon="4.7926">
        <ele>243</ele>
        <time>2018-10-31T10:12:12Z</time>
      </trkpt>
      <trkpt lat="45.98474" lon="4.79271">
        <ele>243</ele>
        <time>2018-10-31T10:12:14Z</time>
      </trkpt>
      <trkpt lat="45.98477" lon="4.79276">
        <ele>243</ele>
        <time>2018-10-31T10:12:15Z</time>
      </trkpt>
      <trkpt lat="45.98479" lon="4.79281">
        <ele>243</ele>
        <time>2018-10-31T10:12:16Z</time>
      </trkpt>
      <trkpt lat="45.98483" lon="4.79287">
        <ele>243</ele>
        <time>2018-10-31T10:12:17Z</time>
      </trkpt>
      <trkpt lat="45.98485" lon="4.79293">
        <ele>243</ele>
        <time>2018-10-31T10:12:18Z</time>
      </trkpt>
      <trkpt lat="45.98488" lon="4.79299">
        <ele>243</ele>
        <time>2018-10-31T10:12:19Z</time>
      </trkpt>
      <trkpt lat="45.98491" lon="4.79305">
        <ele>243</ele>
        <time>2018-10-31T10:12:20Z</time>
      </trkpt>
      <trkpt lat="45.98493" lon="4.79311">
        <ele>243</ele>
        <time>2018-10-31T10:12:21Z</time>
      </trkpt>
      <trkpt lat="45.98496" lon="4.79317">
        <ele>243</ele>
        <time>2018-10-31T10:12:22Z</time>
      </trkpt>
      <trkpt lat="45.98499" lon="4.79325">
        <ele>243</ele>
        <time>2018-10-31T10:12:23Z</time>
      </trkpt>
      <trkpt lat="45.985" lon="4.79331">
        <ele>243</ele>
        <time>2018-10-31T10:12:24Z</time>
      </trkpt>
      <trkpt lat="45.98502" lon="4.79338">
        <ele>243</ele>
        <time>2018-10-31T10:12:25Z</time>
      </trkpt>
      <trkpt lat="45.98505" lon="4.79344">
        <ele>243</ele>
        <time>2018-10-31T10:12:26Z</time>
      </trkpt>
      <trkpt lat="45.98507" lon="4.79352">
        <ele>243</ele>
        <time>2018-10-31T10:12:27Z</time>
      </trkpt>
      <trkpt lat="45.98509" lon="4.79359">
        <ele>243</ele>
        <time>2018-10-31T10:12:28Z</time>
      </trkpt>
      <trkpt lat="45.9851" lon="4.79365">
        <ele>243</ele>
        <time>2018-10-31T10:12:29Z</time>
      </trkpt>
      <trkpt lat="45.98512" lon="4.79373">
        <ele>243</ele>
        <time>2018-10-31T10:12:30Z</time>
      </trkpt>
      <trkpt lat="45.98514" lon="4.79381">
        <ele>244</ele>
        <time>2018-10-31T10:12:31Z</time>
      </trkpt>
      <trkpt lat="45.98515" lon="4.79389">
        <ele>244</ele>
        <time>2018-10-31T10:12:32Z</time>
      </trkpt>
      <trkpt lat="45.98516" lon="4.79395">
        <ele>244</ele>
        <time>2018-10-31T10:12:33Z</time>
      </trkpt>
      <trkpt lat="45.98516" lon="4.79403">
        <ele>244</ele>
        <time>2018-10-31T10:12:34Z</time>
      </trkpt>
      <trkpt lat="45.98518" lon="4.79409">
        <ele>244</ele>
        <time>2018-10-31T10:12:35Z</time>
      </trkpt>
      <trkpt lat="45.98519" lon="4.79416">
        <ele>244</ele>
        <time>2018-10-31T10:12:36Z</time>
      </trkpt>
      <trkpt lat="45.9852" lon="4.79423">
        <ele>244</ele>
        <time>2018-10-31T10:12:37Z</time>
      </trkpt>
      <trkpt lat="45.98521" lon="4.79431">
        <ele>244</ele>
        <time>2018-10-31T10:12:38Z</time>
      </trkpt>
      <trkpt lat="45.98522" lon="4.79438">
        <ele>244</ele>
        <time>2018-10-31T10:12:39Z</time>
      </trkpt>
      <trkpt lat="45.98521" lon="4.79446">
        <ele>244</ele>
        <time>2018-10-31T10:12:40Z</time>
      </trkpt>
      <trkpt lat="45.98522" lon="4.79452">
        <ele>244</ele>
        <time>2018-10-31T10:12:41Z</time>
      </trkpt>
      <trkpt lat="45.98523" lon="4.79459">
        <ele>244</ele>
        <time>2018-10-31T10:12:42Z</time>
      </trkpt>
      <trkpt lat="45.98523" lon="4.79466">
        <ele>244</ele>
        <time>2018-10-31T10:12:43Z</time>
      </trkpt>
      <trkpt lat="45.98522" lon="4.79473">
        <ele>244</ele>
        <time>2018-10-31T10:12:44Z</time>
      </trkpt>
      <trkpt lat="45.98522" lon="4.7948">
        <ele>244</ele>
        <time>2018-10-31T10:12:45Z</time>
      </trkpt>
      <trkpt lat="45.98523" lon="4.79487">
        <ele>244</ele>
        <time>2018-10-31T10:12:46Z</time>
      </trkpt>
      <trkpt lat="45.98523" lon="4.79494">
        <ele>243</ele>
        <time>2018-10-31T10:12:47Z</time>
      </trkpt>
      <trkpt lat="45.98524" lon="4.79501">
        <ele>244</ele>
        <time>2018-10-31T10:12:48Z</time>
      </trkpt>
      <trkpt lat="45.98525" lon="4.79507">
        <ele>244</ele>
        <time>2018-10-31T10:12:49Z</time>
      </trkpt>
      <trkpt lat="45.98526" lon="4.79514">
        <ele>244</ele>
        <time>2018-10-31T10:12:50Z</time>
      </trkpt>
      <trkpt lat="45.98529" lon="4.79521">
        <ele>244</ele>
        <time>2018-10-31T10:12:51Z</time>
      </trkpt>
      <trkpt lat="45.98531" lon="4.79527">
        <ele>244</ele>
        <time>2018-10-31T10:12:52Z</time>
      </trkpt>
      <trkpt lat="45.98532" lon="4.79534">
        <ele>244</ele>
        <time>2018-10-31T10:12:53Z</time>
      </trkpt>
      <trkpt lat="45.98534" lon="4.7954">
        <ele>244</ele>
        <time>2018-10-31T10:12:54Z</time>
      </trkpt>
      <trkpt lat="45.98537" lon="4.79545">
        <ele>244</ele>
        <time>2018-10-31T10:12:55Z</time>
      </trkpt>
      <trkpt lat="45.98539" lon="4.7955">
        <ele>244</ele>
        <time>2018-10-31T10:12:56Z</time>
      </trkpt>
      <trkpt lat="45.98542" lon="4.79556">
        <ele>244</ele>
        <time>2018-10-31T10:12:57Z</time>
      </trkpt>
      <trkpt lat="45.98545" lon="4.79562">
        <ele>244</ele>
        <time>2018-10-31T10:12:58Z</time>
      </trkpt>
      <trkpt lat="45.98548" lon="4.79567">
        <ele>244</ele>
        <time>2018-10-31T10:12:59Z</time>
      </trkpt>
      <trkpt lat="45.98552" lon="4.79572">
        <ele>244</ele>
        <time>2018-10-31T10:13:00Z</time>
      </trkpt>
      <trkpt lat="45.98556" lon="4.79577">
        <ele>244</ele>
        <time>2018-10-31T10:13:01Z</time>
      </trkpt>
      <trkpt lat="45.9856" lon="4.79581">
        <ele>244</ele>
        <time>2018-10-31T10:13:02Z</time>
      </trkpt>
      <trkpt lat="45.98564" lon="4.79585">
        <ele>245</ele>
        <time>2018-10-31T10:13:03Z</time>
      </trkpt>
      <trkpt lat="45.98568" lon="4.79588">
        <ele>245</ele>
        <time>2018-10-31T10:13:04Z</time>
      </trkpt>
      <trkpt lat="45.98572" lon="4.79592">
        <ele>245</ele>
        <time>2018-10-31T10:13:05Z</time>
      </trkpt>
      <trkpt lat="45.9858" lon="4.79599">
        <ele>245</ele>
        <time>2018-10-31T10:13:07Z</time>
      </trkpt>
      <trkpt lat="45.98582" lon="4.79601">
        <ele>245</ele>
        <time>2018-10-31T10:13:08Z</time>
      </trkpt>
      <trkpt lat="45.98586" lon="4.7961">
        <ele>245</ele>
        <time>2018-10-31T10:13:11Z</time>
      </trkpt>
      <trkpt lat="45.98587" lon="4.79614">
        <ele>245</ele>
        <time>2018-10-31T10:13:12Z</time>
      </trkpt>
      <trkpt lat="45.98588" lon="4.79618">
        <ele>245</ele>
        <time>2018-10-31T10:13:13Z</time>
      </trkpt>
      <trkpt lat="45.98591" lon="4.79626">
        <ele>245</ele>
        <time>2018-10-31T10:13:14Z</time>
      </trkpt>
      <trkpt lat="45.98598" lon="4.79633">
        <ele>245</ele>
        <time>2018-10-31T10:13:16Z</time>
      </trkpt>
      <trkpt lat="45.98604" lon="4.79636">
        <ele>245</ele>
        <time>2018-10-31T10:13:17Z</time>
      </trkpt>
      <trkpt lat="45.98609" lon="4.79636">
        <ele>245</ele>
        <time>2018-10-31T10:13:18Z</time>
      </trkpt>
      <trkpt lat="45.98613" lon="4.79639">
        <ele>245</ele>
        <time>2018-10-31T10:13:19Z</time>
      </trkpt>
      <trkpt lat="45.98618" lon="4.79642">
        <ele>245</ele>
        <time>2018-10-31T10:13:20Z</time>
      </trkpt>
      <trkpt lat="45.98622" lon="4.79646">
        <ele>245</ele>
        <time>2018-10-31T10:13:21Z</time>
      </trkpt>
      <trkpt lat="45.98626" lon="4.79651">
        <ele>245</ele>
        <time>2018-10-31T10:13:22Z</time>
      </trkpt>
      <trkpt lat="45.9863" lon="4.79656">
        <ele>245</ele>
        <time>2018-10-31T10:13:23Z</time>
      </trkpt>
      <trkpt lat="45.98633" lon="4.79662">
        <ele>245</ele>
        <time>2018-10-31T10:13:24Z</time>
      </trkpt>
      <trkpt lat="45.98637" lon="4.79667">
        <ele>245</ele>
        <time>2018-10-31T10:13:25Z</time>
      </trkpt>
      <trkpt lat="45.9864" lon="4.79672">
        <ele>245</ele>
        <time>2018-10-31T10:13:26Z</time>
      </trkpt>
      <trkpt lat="45.98644" lon="4.79678">
        <ele>245</ele>
        <time>2018-10-31T10:13:27Z</time>
      </trkpt>
      <trkpt lat="45.98648" lon="4.79684">
        <ele>245</ele>
        <time>2018-10-31T10:13:28Z</time>
      </trkpt>
      <trkpt lat="45.98651" lon="4.7969">
        <ele>245</ele>
        <time>2018-10-31T10:13:29Z</time>
      </trkpt>
      <trkpt lat="45.98656" lon="4.79695">
        <ele>245</ele>
        <time>2018-10-31T10:13:30Z</time>
      </trkpt>
      <trkpt lat="45.98659" lon="4.797">
        <ele>245</ele>
        <time>2018-10-31T10:13:31Z</time>
      </trkpt>
      <trkpt lat="45.98664" lon="4.79705">
        <ele>245</ele>
        <time>2018-10-31T10:13:32Z</time>
      </trkpt>
      <trkpt lat="45.98668" lon="4.79709">
        <ele>245</ele>
        <time>2018-10-31T10:13:33Z</time>
      </trkpt>
      <trkpt lat="45.98673" lon="4.79712">
        <ele>245</ele>
        <time>2018-10-31T10:13:34Z</time>
      </trkpt>
      <trkpt lat="45.98677" lon="4.79715">
        <ele>245</ele>
        <time>2018-10-31T10:13:35Z</time>
      </trkpt>
      <trkpt lat="45.98681" lon="4.79718">
        <ele>245</ele>
        <time>2018-10-31T10:13:36Z</time>
      </trkpt>
      <trkpt lat="45.98686" lon="4.79721">
        <ele>245</ele>
        <time>2018-10-31T10:13:37Z</time>
      </trkpt>
      <trkpt lat="45.9869" lon="4.79723">
        <ele>245</ele>
        <time>2018-10-31T10:13:38Z</time>
      </trkpt>
      <trkpt lat="45.98695" lon="4.79725">
        <ele>245</ele>
        <time>2018-10-31T10:13:39Z</time>
      </trkpt>
      <trkpt lat="45.98699" lon="4.79726">
        <ele>245</ele>
        <time>2018-10-31T10:13:40Z</time>
      </trkpt>
      <trkpt lat="45.98704" lon="4.79729">
        <ele>245</ele>
        <time>2018-10-31T10:13:41Z</time>
      </trkpt>
      <trkpt lat="45.98709" lon="4.79732">
        <ele>245</ele>
        <time>2018-10-31T10:13:42Z</time>
      </trkpt>
      <trkpt lat="45.98714" lon="4.79734">
        <ele>245</ele>
        <time>2018-10-31T10:13:43Z</time>
      </trkpt>
      <trkpt lat="45.98719" lon="4.79738">
        <ele>245</ele>
        <time>2018-10-31T10:13:44Z</time>
      </trkpt>
      <trkpt lat="45.98725" lon="4.79742">
        <ele>245</ele>
        <time>2018-10-31T10:13:45Z</time>
      </trkpt>
      <trkpt lat="45.98729" lon="4.79745">
        <ele>245</ele>
        <time>2018-10-31T10:13:46Z</time>
      </trkpt>
      <trkpt lat="45.98733" lon="4.79749">
        <ele>245</ele>
        <time>2018-10-31T10:13:47Z</time>
      </trkpt>
      <trkpt lat="45.98738" lon="4.79752">
        <ele>245</ele>
        <time>2018-10-31T10:13:48Z</time>
      </trkpt>
      <trkpt lat="45.98742" lon="4.79756">
        <ele>245</ele>
        <time>2018-10-31T10:13:49Z</time>
      </trkpt>
      <trkpt lat="45.98746" lon="4.7976">
        <ele>245</ele>
        <time>2018-10-31T10:13:50Z</time>
      </trkpt>
      <trkpt lat="45.98751" lon="4.79764">
        <ele>245</ele>
        <time>2018-10-31T10:13:51Z</time>
      </trkpt>
      <trkpt lat="45.98755" lon="4.79768">
        <ele>245</ele>
        <time>2018-10-31T10:13:52Z</time>
      </trkpt>
      <trkpt lat="45.9876" lon="4.79772">
        <ele>245</ele>
        <time>2018-10-31T10:13:53Z</time>
      </trkpt>
      <trkpt lat="45.98764" lon="4.79777">
        <ele>245</ele>
        <time>2018-10-31T10:13:54Z</time>
      </trkpt>
      <trkpt lat="45.98769" lon="4.79781">
        <ele>245</ele>
        <time>2018-10-31T10:13:55Z</time>
      </trkpt>
      <trkpt lat="45.98774" lon="4.79787">
        <ele>245</ele>
        <time>2018-10-31T10:13:56Z</time>
      </trkpt>
      <trkpt lat="45.98779" lon="4.79793">
        <ele>245</ele>
        <time>2018-10-31T10:13:57Z</time>
      </trkpt>
      <trkpt lat="45.98784" lon="4.79798">
        <ele>245</ele>
        <time>2018-10-31T10:13:58Z</time>
      </trkpt>
      <trkpt lat="45.98788" lon="4.79804">
        <ele>245</ele>
        <time>2018-10-31T10:13:59Z</time>
      </trkpt>
      <trkpt lat="45.98793" lon="4.7981">
        <ele>245</ele>
        <time>2018-10-31T10:14:00Z</time>
      </trkpt>
      <trkpt lat="45.98798" lon="4.79815">
        <ele>245</ele>
        <time>2018-10-31T10:14:01Z</time>
      </trkpt>
      <trkpt lat="45.98803" lon="4.79821">
        <ele>245</ele>
        <time>2018-10-31T10:14:02Z</time>
      </trkpt>
      <trkpt lat="45.98807" lon="4.79828">
        <ele>245</ele>
        <time>2018-10-31T10:14:03Z</time>
      </trkpt>
      <trkpt lat="45.98812" lon="4.79832">
        <ele>245</ele>
        <time>2018-10-31T10:14:04Z</time>
      </trkpt>
      <trkpt lat="45.98816" lon="4.79838">
        <ele>243</ele>
        <time>2018-10-31T10:14:05Z</time>
      </trkpt>
      <trkpt lat="45.98821" lon="4.79843">
        <ele>243</ele>
        <time>2018-10-31T10:14:06Z</time>
      </trkpt>
      <trkpt lat="45.98826" lon="4.79848">
        <ele>243</ele>
        <time>2018-10-31T10:14:07Z</time>
      </trkpt>
      <trkpt lat="45.98829" lon="4.79853">
        <ele>243</ele>
        <time>2018-10-31T10:14:08Z</time>
      </trkpt>
      <trkpt lat="45.98834" lon="4.79858">
        <ele>244</ele>
        <time>2018-10-31T10:14:09Z</time>
      </trkpt>
      <trkpt lat="45.98838" lon="4.79863">
        <ele>244</ele>
        <time>2018-10-31T10:14:10Z</time>
      </trkpt>
      <trkpt lat="45.98842" lon="4.79868">
        <ele>243</ele>
        <time>2018-10-31T10:14:11Z</time>
      </trkpt>
      <trkpt lat="45.98846" lon="4.79873">
        <ele>243</ele>
        <time>2018-10-31T10:14:12Z</time>
      </trkpt>
      <trkpt lat="45.98851" lon="4.79877">
        <ele>243</ele>
        <time>2018-10-31T10:14:13Z</time>
      </trkpt>
      <trkpt lat="45.98856" lon="4.79882">
        <ele>243</ele>
        <time>2018-10-31T10:14:14Z</time>
      </trkpt>
      <trkpt lat="45.98861" lon="4.79888">
        <ele>243</ele>
        <time>2018-10-31T10:14:15Z</time>
      </trkpt>
      <trkpt lat="45.98865" lon="4.79893">
        <ele>243</ele>
        <time>2018-10-31T10:14:16Z</time>
      </trkpt>
      <trkpt lat="45.9887" lon="4.79899">
        <ele>243</ele>
        <time>2018-10-31T10:14:17Z</time>
      </trkpt>
      <trkpt lat="45.98875" lon="4.79904">
        <ele>244</ele>
        <time>2018-10-31T10:14:18Z</time>
      </trkpt>
      <trkpt lat="45.98881" lon="4.7991">
        <ele>244</ele>
        <time>2018-10-31T10:14:19Z</time>
      </trkpt>
      <trkpt lat="45.98886" lon="4.79915">
        <ele>244</ele>
        <time>2018-10-31T10:14:20Z</time>
      </trkpt>
      <trkpt lat="45.98891" lon="4.79921">
        <ele>243</ele>
        <time>2018-10-31T10:14:21Z</time>
      </trkpt>
      <trkpt lat="45.98896" lon="4.79926">
        <ele>244</ele>
        <time>2018-10-31T10:14:22Z</time>
      </trkpt>
      <trkpt lat="45.98901" lon="4.79932">
        <ele>244</ele>
        <time>2018-10-31T10:14:23Z</time>
      </trkpt>
      <trkpt lat="45.98906" lon="4.79938">
        <ele>244</ele>
        <time>2018-10-31T10:14:24Z</time>
      </trkpt>
      <trkpt lat="45.9891" lon="4.79944">
        <ele>243</ele>
        <time>2018-10-31T10:14:25Z</time>
      </trkpt>
      <trkpt lat="45.98916" lon="4.79949">
        <ele>243</ele>
        <time>2018-10-31T10:14:26Z</time>
      </trkpt>
      <trkpt lat="45.9892" lon="4.79954">
        <ele>245</ele>
        <time>2018-10-31T10:14:27Z</time>
      </trkpt>
      <trkpt lat="45.98925" lon="4.7996">
        <ele>245</ele>
        <time>2018-10-31T10:14:28Z</time>
      </trkpt>
      <trkpt lat="45.9893" lon="4.79964">
        <ele>245</ele>
        <time>2018-10-31T10:14:29Z</time>
      </trkpt>
      <trkpt lat="45.98933" lon="4.7997">
        <ele>244</ele>
        <time>2018-10-31T10:14:30Z</time>
      </trkpt>
      <trkpt lat="45.98938" lon="4.79975">
        <ele>244</ele>
        <time>2018-10-31T10:14:31Z</time>
      </trkpt>
      <trkpt lat="45.98943" lon="4.7998">
        <ele>244</ele>
        <time>2018-10-31T10:14:32Z</time>
      </trkpt>
      <trkpt lat="45.98947" lon="4.79985">
        <ele>244</ele>
        <time>2018-10-31T10:14:33Z</time>
      </trkpt>
      <trkpt lat="45.98952" lon="4.79992">
        <ele>244</ele>
        <time>2018-10-31T10:14:34Z</time>
      </trkpt>
      <trkpt lat="45.98956" lon="4.79997">
        <ele>245</ele>
        <time>2018-10-31T10:14:35Z</time>
      </trkpt>
      <trkpt lat="45.98962" lon="4.80002">
        <ele>242</ele>
        <time>2018-10-31T10:14:36Z</time>
      </trkpt>
      <trkpt lat="45.98967" lon="4.80008">
        <ele>242</ele>
        <time>2018-10-31T10:14:37Z</time>
      </trkpt>
      <trkpt lat="45.98972" lon="4.80015">
        <ele>242</ele>
        <time>2018-10-31T10:14:38Z</time>
      </trkpt>
      <trkpt lat="45.98977" lon="4.80021">
        <ele>242</ele>
        <time>2018-10-31T10:14:39Z</time>
      </trkpt>
      <trkpt lat="45.98982" lon="4.80026">
        <ele>242</ele>
        <time>2018-10-31T10:14:40Z</time>
      </trkpt>
      <trkpt lat="45.98987" lon="4.80034">
        <ele>242</ele>
        <time>2018-10-31T10:14:41Z</time>
      </trkpt>
      <trkpt lat="45.98993" lon="4.8004">
        <ele>242</ele>
        <time>2018-10-31T10:14:42Z</time>
      </trkpt>
      <trkpt lat="45.98998" lon="4.80045">
        <ele>242</ele>
        <time>2018-10-31T10:14:43Z</time>
      </trkpt>
      <trkpt lat="45.99003" lon="4.80051">
        <ele>243</ele>
        <time>2018-10-31T10:14:44Z</time>
      </trkpt>
      <trkpt lat="45.99008" lon="4.80057">
        <ele>243</ele>
        <time>2018-10-31T10:14:45Z</time>
      </trkpt>
      <trkpt lat="45.99012" lon="4.80063">
        <ele>243</ele>
        <time>2018-10-31T10:14:46Z</time>
      </trkpt>
      <trkpt lat="45.99017" lon="4.80068">
        <ele>243</ele>
        <time>2018-10-31T10:14:47Z</time>
      </trkpt>
      <trkpt lat="45.99022" lon="4.80073">
        <ele>243</ele>
        <time>2018-10-31T10:14:48Z</time>
      </trkpt>
      <trkpt lat="45.99027" lon="4.80079">
        <ele>243</ele>
        <time>2018-10-31T10:14:49Z</time>
      </trkpt>
      <trkpt lat="45.99031" lon="4.80084">
        <ele>242</ele>
        <time>2018-10-31T10:14:50Z</time>
      </trkpt>
      <trkpt lat="45.99036" lon="4.80088">
        <ele>242</ele>
        <time>2018-10-31T10:14:51Z</time>
      </trkpt>
      <trkpt lat="45.99041" lon="4.80093">
        <ele>242</ele>
        <time>2018-10-31T10:14:52Z</time>
      </trkpt>
      <trkpt lat="45.99045" lon="4.80099">
        <ele>242</ele>
        <time>2018-10-31T10:14:53Z</time>
      </trkpt>
      <trkpt lat="45.99049" lon="4.80104">
        <ele>242</ele>
        <time>2018-10-31T10:14:54Z</time>
      </trkpt>
      <trkpt lat="45.99053" lon="4.80109">
        <ele>242</ele>
        <time>2018-10-31T10:14:55Z</time>
      </trkpt>
      <trkpt lat="45.99058" lon="4.80113">
        <ele>242</ele>
        <time>2018-10-31T10:14:56Z</time>
      </trkpt>
      <trkpt lat="45.99062" lon="4.80119">
        <ele>242</ele>
        <time>2018-10-31T10:14:57Z</time>
      </trkpt>
      <trkpt lat="45.99066" lon="4.80124">
        <ele>242</ele>
        <time>2018-10-31T10:14:58Z</time>
      </trkpt>
      <trkpt lat="45.99072" lon="4.80129">
        <ele>242</ele>
        <time>2018-10-31T10:14:59Z</time>
      </trkpt>
      <trkpt lat="45.99076" lon="4.80134">
        <ele>242</ele>
        <time>2018-10-31T10:15:00Z</time>
      </trkpt>
      <trkpt lat="45.99081" lon="4.8014">
        <ele>242</ele>
        <time>2018-10-31T10:15:01Z</time>
      </trkpt>
      <trkpt lat="45.99086" lon="4.80145">
        <ele>243</ele>
        <time>2018-10-31T10:15:02Z</time>
      </trkpt>
      <trkpt lat="45.99091" lon="4.80152">
        <ele>243</ele>
        <time>2018-10-31T10:15:03Z</time>
      </trkpt>
      <trkpt lat="45.99096" lon="4.80157">
        <ele>243</ele>
        <time>2018-10-31T10:15:04Z</time>
      </trkpt>
      <trkpt lat="45.99101" lon="4.80163">
        <ele>243</ele>
        <time>2018-10-31T10:15:05Z</time>
      </trkpt>
      <trkpt lat="45.99107" lon="4.80169">
        <ele>242</ele>
        <time>2018-10-31T10:15:06Z</time>
      </trkpt>
      <trkpt lat="45.99112" lon="4.80176">
        <ele>242</ele>
        <time>2018-10-31T10:15:07Z</time>
      </trkpt>
      <trkpt lat="45.99117" lon="4.80182">
        <ele>242</ele>
        <time>2018-10-31T10:15:08Z</time>
      </trkpt>
      <trkpt lat="45.99122" lon="4.80188">
        <ele>242</ele>
        <time>2018-10-31T10:15:09Z</time>
      </trkpt>
      <trkpt lat="45.99127" lon="4.80193">
        <ele>242</ele>
        <time>2018-10-31T10:15:10Z</time>
      </trkpt>
      <trkpt lat="45.99132" lon="4.802">
        <ele>242</ele>
        <time>2018-10-31T10:15:11Z</time>
      </trkpt>
      <trkpt lat="45.99136" lon="4.80207">
        <ele>242</ele>
        <time>2018-10-31T10:15:12Z</time>
      </trkpt>
      <trkpt lat="45.99142" lon="4.80213">
        <ele>242</ele>
        <time>2018-10-31T10:15:13Z</time>
      </trkpt>
      <trkpt lat="45.99147" lon="4.80219">
        <ele>241</ele>
        <time>2018-10-31T10:15:14Z</time>
      </trkpt>
      <trkpt lat="45.99153" lon="4.80224">
        <ele>241</ele>
        <time>2018-10-31T10:15:15Z</time>
      </trkpt>
      <trkpt lat="45.99158" lon="4.8023">
        <ele>241</ele>
        <time>2018-10-31T10:15:16Z</time>
      </trkpt>
      <trkpt lat="45.99163" lon="4.80236">
        <ele>241</ele>
        <time>2018-10-31T10:15:17Z</time>
      </trkpt>
      <trkpt lat="45.99168" lon="4.80242">
        <ele>242</ele>
        <time>2018-10-31T10:15:18Z</time>
      </trkpt>
      <trkpt lat="45.99173" lon="4.80247">
        <ele>242</ele>
        <time>2018-10-31T10:15:19Z</time>
      </trkpt>
      <trkpt lat="45.99177" lon="4.80253">
        <ele>241</ele>
        <time>2018-10-31T10:15:20Z</time>
      </trkpt>
      <trkpt lat="45.99182" lon="4.80258">
        <ele>242</ele>
        <time>2018-10-31T10:15:21Z</time>
      </trkpt>
      <trkpt lat="45.99186" lon="4.80263">
        <ele>242</ele>
        <time>2018-10-31T10:15:22Z</time>
      </trkpt>
      <trkpt lat="45.99191" lon="4.80269">
        <ele>242</ele>
        <time>2018-10-31T10:15:23Z</time>
      </trkpt>
      <trkpt lat="45.99195" lon="4.80276">
        <ele>242</ele>
        <time>2018-10-31T10:15:24Z</time>
      </trkpt>
      <trkpt lat="45.99199" lon="4.80282">
        <ele>242</ele>
        <time>2018-10-31T10:15:25Z</time>
      </trkpt>
      <trkpt lat="45.99203" lon="4.80287">
        <ele>242</ele>
        <time>2018-10-31T10:15:26Z</time>
      </trkpt>
      <trkpt lat="45.99207" lon="4.80293">
        <ele>242</ele>
        <time>2018-10-31T10:15:27Z</time>
      </trkpt>
      <trkpt lat="45.99211" lon="4.80299">
        <ele>242</ele>
        <time>2018-10-31T10:15:28Z</time>
      </trkpt>
      <trkpt lat="45.99215" lon="4.80305">
        <ele>242</ele>
        <time>2018-10-31T10:15:29Z</time>
      </trkpt>
      <trkpt lat="45.99219" lon="4.8031">
        <ele>242</ele>
        <time>2018-10-31T10:15:30Z</time>
      </trkpt>
      <trkpt lat="45.99222" lon="4.80316">
        <ele>242</ele>
        <time>2018-10-31T10:15:31Z</time>
      </trkpt>
      <trkpt lat="45.99227" lon="4.80321">
        <ele>242</ele>
        <time>2018-10-31T10:15:32Z</time>
      </trkpt>
      <trkpt lat="45.9923" lon="4.80328">
        <ele>243</ele>
        <time>2018-10-31T10:15:33Z</time>
      </trkpt>
      <trkpt lat="45.99234" lon="4.80335">
        <ele>242</ele>
        <time>2018-10-31T10:15:34Z</time>
      </trkpt>
      <trkpt lat="45.99238" lon="4.80342">
        <ele>242</ele>
        <time>2018-10-31T10:15:35Z</time>
      </trkpt>
      <trkpt lat="45.99242" lon="4.80349">
        <ele>242</ele>
        <time>2018-10-31T10:15:36Z</time>
      </trkpt>
      <trkpt lat="45.99246" lon="4.80355">
        <ele>242</ele>
        <time>2018-10-31T10:15:37Z</time>
      </trkpt>
      <trkpt lat="45.9925" lon="4.80361">
        <ele>243</ele>
        <time>2018-10-31T10:15:38Z</time>
      </trkpt>
      <trkpt lat="45.99255" lon="4.80367">
        <ele>243</ele>
        <time>2018-10-31T10:15:39Z</time>
      </trkpt>
      <trkpt lat="45.99259" lon="4.80373">
        <ele>243</ele>
        <time>2018-10-31T10:15:40Z</time>
      </trkpt>
      <trkpt lat="45.99264" lon="4.80379">
        <ele>242</ele>
        <time>2018-10-31T10:15:41Z</time>
      </trkpt>
      <trkpt lat="45.99269" lon="4.80383">
        <ele>242</ele>
        <time>2018-10-31T10:15:42Z</time>
      </trkpt>
      <trkpt lat="45.99274" lon="4.80388">
        <ele>242</ele>
        <time>2018-10-31T10:15:43Z</time>
      </trkpt>
      <trkpt lat="45.99279" lon="4.80393">
        <ele>242</ele>
        <time>2018-10-31T10:15:44Z</time>
      </trkpt>
      <trkpt lat="45.99283" lon="4.80398">
        <ele>242</ele>
        <time>2018-10-31T10:15:45Z</time>
      </trkpt>
      <trkpt lat="45.99287" lon="4.80403">
        <ele>242</ele>
        <time>2018-10-31T10:15:46Z</time>
      </trkpt>
      <trkpt lat="45.9929" lon="4.80409">
        <ele>242</ele>
        <time>2018-10-31T10:15:47Z</time>
      </trkpt>
      <trkpt lat="45.99295" lon="4.80415">
        <ele>242</ele>
        <time>2018-10-31T10:15:48Z</time>
      </trkpt>
      <trkpt lat="45.99298" lon="4.80422">
        <ele>241</ele>
        <time>2018-10-31T10:15:49Z</time>
      </trkpt>
      <trkpt lat="45.99301" lon="4.8043">
        <ele>241</ele>
        <time>2018-10-31T10:15:50Z</time>
      </trkpt>
      <trkpt lat="45.99304" lon="4.80438">
        <ele>241</ele>
        <time>2018-10-31T10:15:51Z</time>
      </trkpt>
      <trkpt lat="45.99305" lon="4.80446">
        <ele>241</ele>
        <time>2018-10-31T10:15:52Z</time>
      </trkpt>
      <trkpt lat="45.99306" lon="4.80454">
        <ele>241</ele>
        <time>2018-10-31T10:15:53Z</time>
      </trkpt>
      <trkpt lat="45.99307" lon="4.80464">
        <ele>241</ele>
        <time>2018-10-31T10:15:54Z</time>
      </trkpt>
      <trkpt lat="45.99308" lon="4.80473">
        <ele>241</ele>
        <time>2018-10-31T10:15:55Z</time>
      </trkpt>
      <trkpt lat="45.99309" lon="4.80482">
        <ele>241</ele>
        <time>2018-10-31T10:15:56Z</time>
      </trkpt>
      <trkpt lat="45.9931" lon="4.80491">
        <ele>241</ele>
        <time>2018-10-31T10:15:57Z</time>
      </trkpt>
      <trkpt lat="45.99311" lon="4.805">
        <ele>241</ele>
        <time>2018-10-31T10:15:58Z</time>
      </trkpt>
      <trkpt lat="45.99313" lon="4.80508">
        <ele>241</ele>
        <time>2018-10-31T10:15:59Z</time>
      </trkpt>
      <trkpt lat="45.99314" lon="4.80517">
        <ele>241</ele>
        <time>2018-10-31T10:16:00Z</time>
      </trkpt>
      <trkpt lat="45.99315" lon="4.80525">
        <ele>241</ele>
        <time>2018-10-31T10:16:01Z</time>
      </trkpt>
      <trkpt lat="45.99316" lon="4.80533">
        <ele>241</ele>
        <time>2018-10-31T10:16:02Z</time>
      </trkpt>
      <trkpt lat="45.99318" lon="4.80541">
        <ele>241</ele>
        <time>2018-10-31T10:16:03Z</time>
      </trkpt>
      <trkpt lat="45.99319" lon="4.8055">
        <ele>241</ele>
        <time>2018-10-31T10:16:04Z</time>
      </trkpt>
      <trkpt lat="45.9932" lon="4.80558">
        <ele>242</ele>
        <time>2018-10-31T10:16:05Z</time>
      </trkpt>
      <trkpt lat="45.99321" lon="4.80566">
        <ele>242</ele>
        <time>2018-10-31T10:16:06Z</time>
      </trkpt>
      <trkpt lat="45.99322" lon="4.80573">
        <ele>242</ele>
        <time>2018-10-31T10:16:07Z</time>
      </trkpt>
      <trkpt lat="45.99323" lon="4.80581">
        <ele>242</ele>
        <time>2018-10-31T10:16:08Z</time>
      </trkpt>
      <trkpt lat="45.99325" lon="4.80589">
        <ele>242</ele>
        <time>2018-10-31T10:16:09Z</time>
      </trkpt>
      <trkpt lat="45.99326" lon="4.80597">
        <ele>242</ele>
        <time>2018-10-31T10:16:10Z</time>
      </trkpt>
      <trkpt lat="45.99327" lon="4.80604">
        <ele>243</ele>
        <time>2018-10-31T10:16:11Z</time>
      </trkpt>
      <trkpt lat="45.99329" lon="4.80612">
        <ele>243</ele>
        <time>2018-10-31T10:16:12Z</time>
      </trkpt>
      <trkpt lat="45.9933" lon="4.8062">
        <ele>243</ele>
        <time>2018-10-31T10:16:13Z</time>
      </trkpt>
      <trkpt lat="45.9933" lon="4.80628">
        <ele>243</ele>
        <time>2018-10-31T10:16:14Z</time>
      </trkpt>
      <trkpt lat="45.99332" lon="4.80636">
        <ele>243</ele>
        <time>2018-10-31T10:16:15Z</time>
      </trkpt>
      <trkpt lat="45.99334" lon="4.80644">
        <ele>244</ele>
        <time>2018-10-31T10:16:16Z</time>
      </trkpt>
      <trkpt lat="45.99334" lon="4.80652">
        <ele>244</ele>
        <time>2018-10-31T10:16:17Z</time>
      </trkpt>
      <trkpt lat="45.99334" lon="4.8066">
        <ele>244</ele>
        <time>2018-10-31T10:16:18Z</time>
      </trkpt>
      <trkpt lat="45.99335" lon="4.80667">
        <ele>244</ele>
        <time>2018-10-31T10:16:19Z</time>
      </trkpt>
      <trkpt lat="45.99336" lon="4.80674">
        <ele>244</ele>
        <time>2018-10-31T10:16:20Z</time>
      </trkpt>
      <trkpt lat="45.99337" lon="4.80681">
        <ele>244</ele>
        <time>2018-10-31T10:16:21Z</time>
      </trkpt>
      <trkpt lat="45.99338" lon="4.80687">
        <ele>244</ele>
        <time>2018-10-31T10:16:22Z</time>
      </trkpt>
      <trkpt lat="45.99339" lon="4.80694">
        <ele>244</ele>
        <time>2018-10-31T10:16:23Z</time>
      </trkpt>
      <trkpt lat="45.9934" lon="4.80702">
        <ele>244</ele>
        <time>2018-10-31T10:16:24Z</time>
      </trkpt>
      <trkpt lat="45.99341" lon="4.80708">
        <ele>244</ele>
        <time>2018-10-31T10:16:25Z</time>
      </trkpt>
      <trkpt lat="45.99342" lon="4.80714">
        <ele>244</ele>
        <time>2018-10-31T10:16:26Z</time>
      </trkpt>
      <trkpt lat="45.99343" lon="4.80721">
        <ele>244</ele>
        <time>2018-10-31T10:16:27Z</time>
      </trkpt>
      <trkpt lat="45.99343" lon="4.80728">
        <ele>245</ele>
        <time>2018-10-31T10:16:28Z</time>
      </trkpt>
      <trkpt lat="45.99345" lon="4.80734">
        <ele>245</ele>
        <time>2018-10-31T10:16:29Z</time>
      </trkpt>
      <trkpt lat="45.99347" lon="4.80741">
        <ele>245</ele>
        <time>2018-10-31T10:16:30Z</time>
      </trkpt>
      <trkpt lat="45.99348" lon="4.80747">
        <ele>245</ele>
        <time>2018-10-31T10:16:31Z</time>
      </trkpt>
      <trkpt lat="45.99348" lon="4.80754">
        <ele>245</ele>
        <time>2018-10-31T10:16:32Z</time>
      </trkpt>
      <trkpt lat="45.99349" lon="4.8076">
        <ele>245</ele>
        <time>2018-10-31T10:16:33Z</time>
      </trkpt>
      <trkpt lat="45.99351" lon="4.80772">
        <ele>245</ele>
        <time>2018-10-31T10:16:35Z</time>
      </trkpt>
      <trkpt lat="45.99351" lon="4.80779">
        <ele>245</ele>
        <time>2018-10-31T10:16:36Z</time>
      </trkpt>
      <trkpt lat="45.99353" lon="4.80792">
        <ele>246</ele>
        <time>2018-10-31T10:16:38Z</time>
      </trkpt>
      <trkpt lat="45.99354" lon="4.80797">
        <ele>246</ele>
        <time>2018-10-31T10:16:39Z</time>
      </trkpt>
      <trkpt lat="45.99355" lon="4.80804">
        <ele>246</ele>
        <time>2018-10-31T10:16:40Z</time>
      </trkpt>
      <trkpt lat="45.99356" lon="4.80809">
        <ele>246</ele>
        <time>2018-10-31T10:16:41Z</time>
      </trkpt>
      <trkpt lat="45.99357" lon="4.80822">
        <ele>246</ele>
        <time>2018-10-31T10:16:43Z</time>
      </trkpt>
      <trkpt lat="45.99358" lon="4.80828">
        <ele>246</ele>
        <time>2018-10-31T10:16:44Z</time>
      </trkpt>
      <trkpt lat="45.99359" lon="4.8084">
        <ele>247</ele>
        <time>2018-10-31T10:16:46Z</time>
      </trkpt>
      <trkpt lat="45.9936" lon="4.80846">
        <ele>247</ele>
        <time>2018-10-31T10:16:47Z</time>
      </trkpt>
      <trkpt lat="45.99361" lon="4.80857">
        <ele>248</ele>
        <time>2018-10-31T10:16:49Z</time>
      </trkpt>
      <trkpt lat="45.99362" lon="4.80862">
        <ele>248</ele>
        <time>2018-10-31T10:16:50Z</time>
      </trkpt>
      <trkpt lat="45.99363" lon="4.80872">
        <ele>248</ele>
        <time>2018-10-31T10:16:52Z</time>
      </trkpt>
      <trkpt lat="45.99364" lon="4.80876">
        <ele>248</ele>
        <time>2018-10-31T10:16:53Z</time>
      </trkpt>
      <trkpt lat="45.99365" lon="4.80887">
        <ele>248</ele>
        <time>2018-10-31T10:16:55Z</time>
      </trkpt>
      <trkpt lat="45.99366" lon="4.80892">
        <ele>248</ele>
        <time>2018-10-31T10:16:56Z</time>
      </trkpt>
      <trkpt lat="45.99367" lon="4.80903">
        <ele>248</ele>
        <time>2018-10-31T10:16:58Z</time>
      </trkpt>
      <trkpt lat="45.99367" lon="4.80908">
        <ele>248</ele>
        <time>2018-10-31T10:16:59Z</time>
      </trkpt>
      <trkpt lat="45.99369" lon="4.80919">
        <ele>250</ele>
        <time>2018-10-31T10:17:01Z</time>
      </trkpt>
      <trkpt lat="45.99369" lon="4.80925">
        <ele>250</ele>
        <time>2018-10-31T10:17:02Z</time>
      </trkpt>
      <trkpt lat="45.99371" lon="4.80936">
        <ele>250</ele>
        <time>2018-10-31T10:17:04Z</time>
      </trkpt>
      <trkpt lat="45.99371" lon="4.80942">
        <ele>250</ele>
        <time>2018-10-31T10:17:05Z</time>
      </trkpt>
      <trkpt lat="45.99372" lon="4.80954">
        <ele>250</ele>
        <time>2018-10-31T10:17:07Z</time>
      </trkpt>
      <trkpt lat="45.99373" lon="4.8096">
        <ele>250</ele>
        <time>2018-10-31T10:17:08Z</time>
      </trkpt>
      <trkpt lat="45.99374" lon="4.80971">
        <ele>250</ele>
        <time>2018-10-31T10:17:10Z</time>
      </trkpt>
      <trkpt lat="45.99375" lon="4.80978">
        <ele>250</ele>
        <time>2018-10-31T10:17:11Z</time>
      </trkpt>
      <trkpt lat="45.99377" lon="4.80984">
        <ele>250</ele>
        <time>2018-10-31T10:17:12Z</time>
      </trkpt>
      <trkpt lat="45.99378" lon="4.8099">
        <ele>250</ele>
        <time>2018-10-31T10:17:13Z</time>
      </trkpt>
      <trkpt lat="45.9938" lon="4.80997">
        <ele>250</ele>
        <time>2018-10-31T10:17:14Z</time>
      </trkpt>
      <trkpt lat="45.9938" lon="4.81004">
        <ele>251</ele>
        <time>2018-10-31T10:17:15Z</time>
      </trkpt>
      <trkpt lat="45.99381" lon="4.81011">
        <ele>251</ele>
        <time>2018-10-31T10:17:16Z</time>
      </trkpt>
      <trkpt lat="45.99382" lon="4.81018">
        <ele>251</ele>
        <time>2018-10-31T10:17:17Z</time>
      </trkpt>
      <trkpt lat="45.99383" lon="4.81026">
        <ele>251</ele>
        <time>2018-10-31T10:17:18Z</time>
      </trkpt>
      <trkpt lat="45.99385" lon="4.81033">
        <ele>251</ele>
        <time>2018-10-31T10:17:19Z</time>
      </trkpt>
      <trkpt lat="45.99386" lon="4.81041">
        <ele>251</ele>
        <time>2018-10-31T10:17:20Z</time>
      </trkpt>
      <trkpt lat="45.99387" lon="4.81048">
        <ele>251</ele>
        <time>2018-10-31T10:17:21Z</time>
      </trkpt>
      <trkpt lat="45.99387" lon="4.81056">
        <ele>251</ele>
        <time>2018-10-31T10:17:22Z</time>
      </trkpt>
      <trkpt lat="45.99388" lon="4.81064">
        <ele>251</ele>
        <time>2018-10-31T10:17:23Z</time>
      </trkpt>
      <trkpt lat="45.99389" lon="4.81072">
        <ele>251</ele>
        <time>2018-10-31T10:17:24Z</time>
      </trkpt>
      <trkpt lat="45.9939" lon="4.81079">
        <ele>251</ele>
        <time>2018-10-31T10:17:25Z</time>
      </trkpt>
      <trkpt lat="45.99391" lon="4.81087">
        <ele>251</ele>
        <time>2018-10-31T10:17:26Z</time>
      </trkpt>
      <trkpt lat="45.99393" lon="4.81094">
        <ele>251</ele>
        <time>2018-10-31T10:17:27Z</time>
      </trkpt>
      <trkpt lat="45.99394" lon="4.81101">
        <ele>251</ele>
        <time>2018-10-31T10:17:28Z</time>
      </trkpt>
      <trkpt lat="45.99395" lon="4.81107">
        <ele>251</ele>
        <time>2018-10-31T10:17:29Z</time>
      </trkpt>
      <trkpt lat="45.99396" lon="4.81114">
        <ele>251</ele>
        <time>2018-10-31T10:17:30Z</time>
      </trkpt>
      <trkpt lat="45.99397" lon="4.8112">
        <ele>251</ele>
        <time>2018-10-31T10:17:31Z</time>
      </trkpt>
      <trkpt lat="45.99398" lon="4.81128">
        <ele>251</ele>
        <time>2018-10-31T10:17:32Z</time>
      </trkpt>
      <trkpt lat="45.99399" lon="4.81135">
        <ele>251</ele>
        <time>2018-10-31T10:17:33Z</time>
      </trkpt>
      <trkpt lat="45.994" lon="4.81143">
        <ele>251</ele>
        <time>2018-10-31T10:17:34Z</time>
      </trkpt>
      <trkpt lat="45.99401" lon="4.8115">
        <ele>251</ele>
        <time>2018-10-31T10:17:35Z</time>
      </trkpt>
      <trkpt lat="45.99402" lon="4.81157">
        <ele>251</ele>
        <time>2018-10-31T10:17:36Z</time>
      </trkpt>
      <trkpt lat="45.99403" lon="4.81164">
        <ele>251</ele>
        <time>2018-10-31T10:17:37Z</time>
      </trkpt>
      <trkpt lat="45.99404" lon="4.81171">
        <ele>251</ele>
        <time>2018-10-31T10:17:38Z</time>
      </trkpt>
      <trkpt lat="45.99405" lon="4.81178">
        <ele>251</ele>
        <time>2018-10-31T10:17:39Z</time>
      </trkpt>
      <trkpt lat="45.99405" lon="4.81184">
        <ele>251</ele>
        <time>2018-10-31T10:17:40Z</time>
      </trkpt>
      <trkpt lat="45.99406" lon="4.81191">
        <ele>252</ele>
        <time>2018-10-31T10:17:41Z</time>
      </trkpt>
      <trkpt lat="45.99407" lon="4.81198">
        <ele>252</ele>
        <time>2018-10-31T10:17:42Z</time>
      </trkpt>
      <trkpt lat="45.99408" lon="4.81204">
        <ele>252</ele>
        <time>2018-10-31T10:17:43Z</time>
      </trkpt>
      <trkpt lat="45.99409" lon="4.81211">
        <ele>252</ele>
        <time>2018-10-31T10:17:44Z</time>
      </trkpt>
      <trkpt lat="45.99409" lon="4.81218">
        <ele>252</ele>
        <time>2018-10-31T10:17:45Z</time>
      </trkpt>
      <trkpt lat="45.9941" lon="4.81224">
        <ele>252</ele>
        <time>2018-10-31T10:17:46Z</time>
      </trkpt>
      <trkpt lat="45.9941" lon="4.81231">
        <ele>252</ele>
        <time>2018-10-31T10:17:47Z</time>
      </trkpt>
      <trkpt lat="45.99413" lon="4.81238">
        <ele>252</ele>
        <time>2018-10-31T10:17:48Z</time>
      </trkpt>
      <trkpt lat="45.99414" lon="4.81244">
        <ele>252</ele>
        <time>2018-10-31T10:17:49Z</time>
      </trkpt>
      <trkpt lat="45.99415" lon="4.81251">
        <ele>252</ele>
        <time>2018-10-31T10:17:50Z</time>
      </trkpt>
      <trkpt lat="45.99417" lon="4.81259">
        <ele>252</ele>
        <time>2018-10-31T10:17:51Z</time>
      </trkpt>
      <trkpt lat="45.99418" lon="4.81266">
        <ele>252</ele>
        <time>2018-10-31T10:17:52Z</time>
      </trkpt>
      <trkpt lat="45.99419" lon="4.81273">
        <ele>253</ele>
        <time>2018-10-31T10:17:53Z</time>
      </trkpt>
      <trkpt lat="45.9942" lon="4.81279">
        <ele>253</ele>
        <time>2018-10-31T10:17:54Z</time>
      </trkpt>
      <trkpt lat="45.99421" lon="4.81286">
        <ele>253</ele>
        <time>2018-10-31T10:17:55Z</time>
      </trkpt>
      <trkpt lat="45.99422" lon="4.81293">
        <ele>253</ele>
        <time>2018-10-31T10:17:56Z</time>
      </trkpt>
      <trkpt lat="45.99423" lon="4.813">
        <ele>253</ele>
        <time>2018-10-31T10:17:57Z</time>
      </trkpt>
      <trkpt lat="45.99424" lon="4.81307">
        <ele>253</ele>
        <time>2018-10-31T10:17:58Z</time>
      </trkpt>
      <trkpt lat="45.99425" lon="4.81314">
        <ele>254</ele>
        <time>2018-10-31T10:17:59Z</time>
      </trkpt>
      <trkpt lat="45.99425" lon="4.8132">
        <ele>254</ele>
        <time>2018-10-31T10:18:00Z</time>
      </trkpt>
      <trkpt lat="45.99426" lon="4.81327">
        <ele>254</ele>
        <time>2018-10-31T10:18:01Z</time>
      </trkpt>
      <trkpt lat="45.99427" lon="4.81334">
        <ele>255</ele>
        <time>2018-10-31T10:18:02Z</time>
      </trkpt>
      <trkpt lat="45.99427" lon="4.8134">
        <ele>254</ele>
        <time>2018-10-31T10:18:03Z</time>
      </trkpt>
      <trkpt lat="45.99428" lon="4.81347">
        <ele>254</ele>
        <time>2018-10-31T10:18:04Z</time>
      </trkpt>
      <trkpt lat="45.99429" lon="4.81355">
        <ele>254</ele>
        <time>2018-10-31T10:18:05Z</time>
      </trkpt>
      <trkpt lat="45.9943" lon="4.81362">
        <ele>254</ele>
        <time>2018-10-31T10:18:06Z</time>
      </trkpt>
      <trkpt lat="45.99431" lon="4.81369">
        <ele>254</ele>
        <time>2018-10-31T10:18:07Z</time>
      </trkpt>
      <trkpt lat="45.99432" lon="4.81381">
        <ele>254</ele>
        <time>2018-10-31T10:18:09Z</time>
      </trkpt>
      <trkpt lat="45.99433" lon="4.81388">
        <ele>254</ele>
        <time>2018-10-31T10:18:10Z</time>
      </trkpt>
      <trkpt lat="45.99433" lon="4.81396">
        <ele>254</ele>
        <time>2018-10-31T10:18:11Z</time>
      </trkpt>
      <trkpt lat="45.99433" lon="4.81402">
        <ele>254</ele>
        <time>2018-10-31T10:18:12Z</time>
      </trkpt>
      <trkpt lat="45.99435" lon="4.81409">
        <ele>254</ele>
        <time>2018-10-31T10:18:13Z</time>
      </trkpt>
      <trkpt lat="45.99435" lon="4.81415">
        <ele>254</ele>
        <time>2018-10-31T10:18:14Z</time>
      </trkpt>
      <trkpt lat="45.99437" lon="4.81428">
        <ele>254</ele>
        <time>2018-10-31T10:18:16Z</time>
      </trkpt>
      <trkpt lat="45.99438" lon="4.81434">
        <ele>254</ele>
        <time>2018-10-31T10:18:17Z</time>
      </trkpt>
      <trkpt lat="45.9944" lon="4.81441">
        <ele>254</ele>
        <time>2018-10-31T10:18:18Z</time>
      </trkpt>
      <trkpt lat="45.9944" lon="4.81448">
        <ele>254</ele>
        <time>2018-10-31T10:18:19Z</time>
      </trkpt>
      <trkpt lat="45.99442" lon="4.8146">
        <ele>254</ele>
        <time>2018-10-31T10:18:21Z</time>
      </trkpt>
      <trkpt lat="45.99443" lon="4.81467">
        <ele>254</ele>
        <time>2018-10-31T10:18:22Z</time>
      </trkpt>
      <trkpt lat="45.99444" lon="4.81474">
        <ele>254</ele>
        <time>2018-10-31T10:18:23Z</time>
      </trkpt>
      <trkpt lat="45.99445" lon="4.81481">
        <ele>254</ele>
        <time>2018-10-31T10:18:24Z</time>
      </trkpt>
      <trkpt lat="45.99445" lon="4.81488">
        <ele>254</ele>
        <time>2018-10-31T10:18:25Z</time>
      </trkpt>
      <trkpt lat="45.99446" lon="4.81495">
        <ele>254</ele>
        <time>2018-10-31T10:18:26Z</time>
      </trkpt>
      <trkpt lat="45.99448" lon="4.81507">
        <ele>255</ele>
        <time>2018-10-31T10:18:28Z</time>
      </trkpt>
      <trkpt lat="45.99449" lon="4.81513">
        <ele>255</ele>
        <time>2018-10-31T10:18:29Z</time>
      </trkpt>
      <trkpt lat="45.9945" lon="4.8152">
        <ele>255</ele>
        <time>2018-10-31T10:18:30Z</time>
      </trkpt>
      <trkpt lat="45.99451" lon="4.81526">
        <ele>255</ele>
        <time>2018-10-31T10:18:31Z</time>
      </trkpt>
      <trkpt lat="45.99453" lon="4.81538">
        <ele>255</ele>
        <time>2018-10-31T10:18:33Z</time>
      </trkpt>
      <trkpt lat="45.99454" lon="4.81545">
        <ele>255</ele>
        <time>2018-10-31T10:18:34Z</time>
      </trkpt>
      <trkpt lat="45.99454" lon="4.81551">
        <ele>255</ele>
        <time>2018-10-31T10:18:35Z</time>
      </trkpt>
      <trkpt lat="45.99455" lon="4.81559">
        <ele>255</ele>
        <time>2018-10-31T10:18:36Z</time>
      </trkpt>
      <trkpt lat="45.99457" lon="4.81572">
        <ele>255</ele>
        <time>2018-10-31T10:18:38Z</time>
      </trkpt>
      <trkpt lat="45.99457" lon="4.81579">
        <ele>255</ele>
        <time>2018-10-31T10:18:39Z</time>
      </trkpt>
      <trkpt lat="45.99459" lon="4.81591">
        <ele>257</ele>
        <time>2018-10-31T10:18:41Z</time>
      </trkpt>
      <trkpt lat="45.9946" lon="4.81598">
        <ele>257</ele>
        <time>2018-10-31T10:18:42Z</time>
      </trkpt>
      <trkpt lat="45.99461" lon="4.81604">
        <ele>258</ele>
        <time>2018-10-31T10:18:43Z</time>
      </trkpt>
      <trkpt lat="45.99462" lon="4.81611">
        <ele>258</ele>
        <time>2018-10-31T10:18:44Z</time>
      </trkpt>
      <trkpt lat="45.99463" lon="4.81618">
        <ele>258</ele>
        <time>2018-10-31T10:18:45Z</time>
      </trkpt>
      <trkpt lat="45.99464" lon="4.81625">
        <ele>258</ele>
        <time>2018-10-31T10:18:46Z</time>
      </trkpt>
      <trkpt lat="45.99465" lon="4.81632">
        <ele>258</ele>
        <time>2018-10-31T10:18:47Z</time>
      </trkpt>
      <trkpt lat="45.99466" lon="4.81639">
        <ele>258</ele>
        <time>2018-10-31T10:18:48Z</time>
      </trkpt>
      <trkpt lat="45.99467" lon="4.81646">
        <ele>258</ele>
        <time>2018-10-31T10:18:49Z</time>
      </trkpt>
      <trkpt lat="45.99468" lon="4.81653">
        <ele>259</ele>
        <time>2018-10-31T10:18:50Z</time>
      </trkpt>
      <trkpt lat="45.99469" lon="4.8166">
        <ele>259</ele>
        <time>2018-10-31T10:18:51Z</time>
      </trkpt>
      <trkpt lat="45.99471" lon="4.81666">
        <ele>259</ele>
        <time>2018-10-31T10:18:52Z</time>
      </trkpt>
      <trkpt lat="45.99471" lon="4.81673">
        <ele>261</ele>
        <time>2018-10-31T10:18:53Z</time>
      </trkpt>
      <trkpt lat="45.99469" lon="4.81682">
        <ele>261</ele>
        <time>2018-10-31T10:18:54Z</time>
      </trkpt>
      <trkpt lat="45.99469" lon="4.81688">
        <ele>261</ele>
        <time>2018-10-31T10:18:55Z</time>
      </trkpt>
      <trkpt lat="45.99471" lon="4.81694">
        <ele>261</ele>
        <time>2018-10-31T10:18:56Z</time>
      </trkpt>
      <trkpt lat="45.99473" lon="4.81706">
        <ele>261</ele>
        <time>2018-10-31T10:18:58Z</time>
      </trkpt>
      <trkpt lat="45.99473" lon="4.81713">
        <ele>261</ele>
        <time>2018-10-31T10:18:59Z</time>
      </trkpt>
      <trkpt lat="45.99475" lon="4.81719">
        <ele>261</ele>
        <time>2018-10-31T10:19:00Z</time>
      </trkpt>
      <trkpt lat="45.99476" lon="4.81725">
        <ele>261</ele>
        <time>2018-10-31T10:19:01Z</time>
      </trkpt>
      <trkpt lat="45.99477" lon="4.81732">
        <ele>261</ele>
        <time>2018-10-31T10:19:02Z</time>
      </trkpt>
      <trkpt lat="45.99478" lon="4.81739">
        <ele>261</ele>
        <time>2018-10-31T10:19:03Z</time>
      </trkpt>
      <trkpt lat="45.99479" lon="4.81746">
        <ele>261</ele>
        <time>2018-10-31T10:19:04Z</time>
      </trkpt>
      <trkpt lat="45.9948" lon="4.81752">
        <ele>262</ele>
        <time>2018-10-31T10:19:05Z</time>
      </trkpt>
      <trkpt lat="45.99482" lon="4.81759">
        <ele>262</ele>
        <time>2018-10-31T10:19:06Z</time>
      </trkpt>
      <trkpt lat="45.99482" lon="4.81766">
        <ele>262</ele>
        <time>2018-10-31T10:19:07Z</time>
      </trkpt>
      <trkpt lat="45.99482" lon="4.81772">
        <ele>262</ele>
        <time>2018-10-31T10:19:08Z</time>
      </trkpt>
      <trkpt lat="45.99484" lon="4.8178">
        <ele>262</ele>
        <time>2018-10-31T10:19:09Z</time>
      </trkpt>
      <trkpt lat="45.99484" lon="4.81786">
        <ele>262</ele>
        <time>2018-10-31T10:19:10Z</time>
      </trkpt>
      <trkpt lat="45.99486" lon="4.81792">
        <ele>262</ele>
        <time>2018-10-31T10:19:11Z</time>
      </trkpt>
      <trkpt lat="45.99487" lon="4.81799">
        <ele>262</ele>
        <time>2018-10-31T10:19:12Z</time>
      </trkpt>
      <trkpt lat="45.99487" lon="4.81806">
        <ele>262</ele>
        <time>2018-10-31T10:19:13Z</time>
      </trkpt>
      <trkpt lat="45.99489" lon="4.81813">
        <ele>262</ele>
        <time>2018-10-31T10:19:14Z</time>
      </trkpt>
      <trkpt lat="45.99493" lon="4.81819">
        <ele>262</ele>
        <time>2018-10-31T10:19:15Z</time>
      </trkpt>
      <trkpt lat="45.99495" lon="4.81825">
        <ele>262</ele>
        <time>2018-10-31T10:19:16Z</time>
      </trkpt>
      <trkpt lat="45.99497" lon="4.81831">
        <ele>262</ele>
        <time>2018-10-31T10:19:17Z</time>
      </trkpt>
      <trkpt lat="45.99498" lon="4.81843">
        <ele>261</ele>
        <time>2018-10-31T10:19:19Z</time>
      </trkpt>
      <trkpt lat="45.99498" lon="4.8185">
        <ele>261</ele>
        <time>2018-10-31T10:19:20Z</time>
      </trkpt>
      <trkpt lat="45.99499" lon="4.81856">
        <ele>260</ele>
        <time>2018-10-31T10:19:21Z</time>
      </trkpt>
      <trkpt lat="45.99499" lon="4.81863">
        <ele>260</ele>
        <time>2018-10-31T10:19:22Z</time>
      </trkpt>
      <trkpt lat="45.99501" lon="4.81875">
        <ele>261</ele>
        <time>2018-10-31T10:19:24Z</time>
      </trkpt>
      <trkpt lat="45.99502" lon="4.81882">
        <ele>261</ele>
        <time>2018-10-31T10:19:25Z</time>
      </trkpt>
      <trkpt lat="45.99502" lon="4.81889">
        <ele>261</ele>
        <time>2018-10-31T10:19:26Z</time>
      </trkpt>
      <trkpt lat="45.99503" lon="4.81895">
        <ele>261</ele>
        <time>2018-10-31T10:19:27Z</time>
      </trkpt>
      <trkpt lat="45.99504" lon="4.81907">
        <ele>260</ele>
        <time>2018-10-31T10:19:29Z</time>
      </trkpt>
      <trkpt lat="45.99505" lon="4.81914">
        <ele>260</ele>
        <time>2018-10-31T10:19:30Z</time>
      </trkpt>
      <trkpt lat="45.99506" lon="4.81921">
        <ele>260</ele>
        <time>2018-10-31T10:19:31Z</time>
      </trkpt>
      <trkpt lat="45.99507" lon="4.81927">
        <ele>260</ele>
        <time>2018-10-31T10:19:32Z</time>
      </trkpt>
      <trkpt lat="45.99508" lon="4.81934">
        <ele>260</ele>
        <time>2018-10-31T10:19:33Z</time>
      </trkpt>
      <trkpt lat="45.99509" lon="4.81941">
        <ele>260</ele>
        <time>2018-10-31T10:19:34Z</time>
      </trkpt>
      <trkpt lat="45.9951" lon="4.81947">
        <ele>261</ele>
        <time>2018-10-31T10:19:35Z</time>
      </trkpt>
      <trkpt lat="45.9951" lon="4.81954">
        <ele>261</ele>
        <time>2018-10-31T10:19:36Z</time>
      </trkpt>
      <trkpt lat="45.99511" lon="4.81962">
        <ele>261</ele>
        <time>2018-10-31T10:19:37Z</time>
      </trkpt>
      <trkpt lat="45.99512" lon="4.81968">
        <ele>261</ele>
        <time>2018-10-31T10:19:38Z</time>
      </trkpt>
      <trkpt lat="45.99513" lon="4.81974">
        <ele>261</ele>
        <time>2018-10-31T10:19:39Z</time>
      </trkpt>
      <trkpt lat="45.99514" lon="4.81981">
        <ele>260</ele>
        <time>2018-10-31T10:19:40Z</time>
      </trkpt>
      <trkpt lat="45.99514" lon="4.81989">
        <ele>260</ele>
        <time>2018-10-31T10:19:41Z</time>
      </trkpt>
      <trkpt lat="45.99515" lon="4.81996">
        <ele>260</ele>
        <time>2018-10-31T10:19:42Z</time>
      </trkpt>
      <trkpt lat="45.99515" lon="4.82003">
        <ele>261</ele>
        <time>2018-10-31T10:19:43Z</time>
      </trkpt>
      <trkpt lat="45.99515" lon="4.82011">
        <ele>261</ele>
        <time>2018-10-31T10:19:44Z</time>
      </trkpt>
      <trkpt lat="45.99516" lon="4.82018">
        <ele>261</ele>
        <time>2018-10-31T10:19:45Z</time>
      </trkpt>
      <trkpt lat="45.99517" lon="4.82025">
        <ele>261</ele>
        <time>2018-10-31T10:19:46Z</time>
      </trkpt>
      <trkpt lat="45.99518" lon="4.82033">
        <ele>261</ele>
        <time>2018-10-31T10:19:47Z</time>
      </trkpt>
      <trkpt lat="45.9952" lon="4.8204">
        <ele>262</ele>
        <time>2018-10-31T10:19:48Z</time>
      </trkpt>
      <trkpt lat="45.9952" lon="4.82047">
        <ele>262</ele>
        <time>2018-10-31T10:19:49Z</time>
      </trkpt>
      <trkpt lat="45.99521" lon="4.82053">
        <ele>262</ele>
        <time>2018-10-31T10:19:50Z</time>
      </trkpt>
      <trkpt lat="45.99522" lon="4.8206">
        <ele>262</ele>
        <time>2018-10-31T10:19:51Z</time>
      </trkpt>
      <trkpt lat="45.99523" lon="4.82066">
        <ele>262</ele>
        <time>2018-10-31T10:19:52Z</time>
      </trkpt>
      <trkpt lat="45.99524" lon="4.82078">
        <ele>262</ele>
        <time>2018-10-31T10:19:54Z</time>
      </trkpt>
      <trkpt lat="45.99525" lon="4.82085">
        <ele>262</ele>
        <time>2018-10-31T10:19:55Z</time>
      </trkpt>
      <trkpt lat="45.99526" lon="4.82092">
        <ele>262</ele>
        <time>2018-10-31T10:19:56Z</time>
      </trkpt>
      <trkpt lat="45.99527" lon="4.82098">
        <ele>262</ele>
        <time>2018-10-31T10:19:57Z</time>
      </trkpt>
      <trkpt lat="45.99527" lon="4.82105">
        <ele>262</ele>
        <time>2018-10-31T10:19:58Z</time>
      </trkpt>
      <trkpt lat="45.99528" lon="4.82112">
        <ele>263</ele>
        <time>2018-10-31T10:19:59Z</time>
      </trkpt>
      <trkpt lat="45.99529" lon="4.82119">
        <ele>263</ele>
        <time>2018-10-31T10:20:00Z</time>
      </trkpt>
      <trkpt lat="45.9953" lon="4.82126">
        <ele>263</ele>
        <time>2018-10-31T10:20:01Z</time>
      </trkpt>
      <trkpt lat="45.99531" lon="4.82135">
        <ele>263</ele>
        <time>2018-10-31T10:20:02Z</time>
      </trkpt>
      <trkpt lat="45.99532" lon="4.82142">
        <ele>263</ele>
        <time>2018-10-31T10:20:03Z</time>
      </trkpt>
      <trkpt lat="45.99533" lon="4.8215">
        <ele>263</ele>
        <time>2018-10-31T10:20:04Z</time>
      </trkpt>
      <trkpt lat="45.99535" lon="4.82157">
        <ele>263</ele>
        <time>2018-10-31T10:20:05Z</time>
      </trkpt>
      <trkpt lat="45.99536" lon="4.82164">
        <ele>263</ele>
        <time>2018-10-31T10:20:06Z</time>
      </trkpt>
      <trkpt lat="45.99537" lon="4.82172">
        <ele>262</ele>
        <time>2018-10-31T10:20:07Z</time>
      </trkpt>
      <trkpt lat="45.99538" lon="4.82179">
        <ele>262</ele>
        <time>2018-10-31T10:20:08Z</time>
      </trkpt>
      <trkpt lat="45.99539" lon="4.82186">
        <ele>262</ele>
        <time>2018-10-31T10:20:09Z</time>
      </trkpt>
      <trkpt lat="45.99539" lon="4.82194">
        <ele>262</ele>
        <time>2018-10-31T10:20:10Z</time>
      </trkpt>
      <trkpt lat="45.99539" lon="4.822">
        <ele>262</ele>
        <time>2018-10-31T10:20:11Z</time>
      </trkpt>
      <trkpt lat="45.99541" lon="4.82213">
        <ele>262</ele>
        <time>2018-10-31T10:20:13Z</time>
      </trkpt>
      <trkpt lat="45.99542" lon="4.8222">
        <ele>262</ele>
        <time>2018-10-31T10:20:14Z</time>
      </trkpt>
      <trkpt lat="45.99544" lon="4.82227">
        <ele>262</ele>
        <time>2018-10-31T10:20:15Z</time>
      </trkpt>
      <trkpt lat="45.99546" lon="4.82234">
        <ele>262</ele>
        <time>2018-10-31T10:20:16Z</time>
      </trkpt>
      <trkpt lat="45.99547" lon="4.82241">
        <ele>262</ele>
        <time>2018-10-31T10:20:17Z</time>
      </trkpt>
      <trkpt lat="45.99549" lon="4.82248">
        <ele>262</ele>
        <time>2018-10-31T10:20:18Z</time>
      </trkpt>
      <trkpt lat="45.99552" lon="4.82256">
        <ele>261</ele>
        <time>2018-10-31T10:20:19Z</time>
      </trkpt>
      <trkpt lat="45.99554" lon="4.82263">
        <ele>261</ele>
        <time>2018-10-31T10:20:20Z</time>
      </trkpt>
      <trkpt lat="45.99556" lon="4.82271">
        <ele>261</ele>
        <time>2018-10-31T10:20:21Z</time>
      </trkpt>
      <trkpt lat="45.99558" lon="4.82278">
        <ele>261</ele>
        <time>2018-10-31T10:20:22Z</time>
      </trkpt>
      <trkpt lat="45.99561" lon="4.82285">
        <ele>261</ele>
        <time>2018-10-31T10:20:23Z</time>
      </trkpt>
      <trkpt lat="45.99562" lon="4.82292">
        <ele>261</ele>
        <time>2018-10-31T10:20:24Z</time>
      </trkpt>
      <trkpt lat="45.99565" lon="4.82299">
        <ele>262</ele>
        <time>2018-10-31T10:20:25Z</time>
      </trkpt>
      <trkpt lat="45.99567" lon="4.82306">
        <ele>262</ele>
        <time>2018-10-31T10:20:26Z</time>
      </trkpt>
      <trkpt lat="45.99568" lon="4.82312">
        <ele>262</ele>
        <time>2018-10-31T10:20:27Z</time>
      </trkpt>
      <trkpt lat="45.99569" lon="4.82319">
        <ele>262</ele>
        <time>2018-10-31T10:20:28Z</time>
      </trkpt>
      <trkpt lat="45.99571" lon="4.82325">
        <ele>262</ele>
        <time>2018-10-31T10:20:29Z</time>
      </trkpt>
      <trkpt lat="45.99572" lon="4.82331">
        <ele>262</ele>
        <time>2018-10-31T10:20:30Z</time>
      </trkpt>
      <trkpt lat="45.99573" lon="4.82338">
        <ele>262</ele>
        <time>2018-10-31T10:20:31Z</time>
      </trkpt>
      <trkpt lat="45.99575" lon="4.82344">
        <ele>262</ele>
        <time>2018-10-31T10:20:32Z</time>
      </trkpt>
      <trkpt lat="45.99575" lon="4.82351">
        <ele>261</ele>
        <time>2018-10-31T10:20:33Z</time>
      </trkpt>
      <trkpt lat="45.99576" lon="4.82357">
        <ele>261</ele>
        <time>2018-10-31T10:20:34Z</time>
      </trkpt>
      <trkpt lat="45.99578" lon="4.82366">
        <ele>261</ele>
        <time>2018-10-31T10:20:35Z</time>
      </trkpt>
      <trkpt lat="45.99579" lon="4.82373">
        <ele>261</ele>
        <time>2018-10-31T10:20:36Z</time>
      </trkpt>
      <trkpt lat="45.99581" lon="4.82384">
        <ele>261</ele>
        <time>2018-10-31T10:20:38Z</time>
      </trkpt>
      <trkpt lat="45.99583" lon="4.82389">
        <ele>261</ele>
        <time>2018-10-31T10:20:39Z</time>
      </trkpt>
      <trkpt lat="45.99585" lon="4.82401">
        <ele>263</ele>
        <time>2018-10-31T10:20:41Z</time>
      </trkpt>
      <trkpt lat="45.99586" lon="4.82407">
        <ele>263</ele>
        <time>2018-10-31T10:20:42Z</time>
      </trkpt>
      <trkpt lat="45.99588" lon="4.82415">
        <ele>263</ele>
        <time>2018-10-31T10:20:44Z</time>
      </trkpt>
      <trkpt lat="45.9959" lon="4.82422">
        <ele>263</ele>
        <time>2018-10-31T10:20:45Z</time>
      </trkpt>
      <trkpt lat="45.99593" lon="4.82432">
        <ele>264</ele>
        <time>2018-10-31T10:20:47Z</time>
      </trkpt>
      <trkpt lat="45.99594" lon="4.82436">
        <ele>264</ele>
        <time>2018-10-31T10:20:48Z</time>
      </trkpt>
      <trkpt lat="45.99598" lon="4.82446">
        <ele>264</ele>
        <time>2018-10-31T10:20:50Z</time>
      </trkpt>
      <trkpt lat="45.996" lon="4.82451">
        <ele>264</ele>
        <time>2018-10-31T10:20:51Z</time>
      </trkpt>
      <trkpt lat="45.99604" lon="4.8246">
        <ele>264</ele>
        <time>2018-10-31T10:20:53Z</time>
      </trkpt>
      <trkpt lat="45.99606" lon="4.82464">
        <ele>264</ele>
        <time>2018-10-31T10:20:54Z</time>
      </trkpt>
      <trkpt lat="45.9961" lon="4.82473">
        <ele>265</ele>
        <time>2018-10-31T10:20:56Z</time>
      </trkpt>
      <trkpt lat="45.99611" lon="4.82478">
        <ele>265</ele>
        <time>2018-10-31T10:20:57Z</time>
      </trkpt>
      <trkpt lat="45.99615" lon="4.82487">
        <ele>265</ele>
        <time>2018-10-31T10:20:59Z</time>
      </trkpt>
      <trkpt lat="45.99616" lon="4.82492">
        <ele>265</ele>
        <time>2018-10-31T10:21:00Z</time>
      </trkpt>
      <trkpt lat="45.99619" lon="4.82502">
        <ele>265</ele>
        <time>2018-10-31T10:21:02Z</time>
      </trkpt>
      <trkpt lat="45.9962" lon="4.82507">
        <ele>265</ele>
        <time>2018-10-31T10:21:03Z</time>
      </trkpt>
      <trkpt lat="45.99623" lon="4.82516">
        <ele>265</ele>
        <time>2018-10-31T10:21:05Z</time>
      </trkpt>
      <trkpt lat="45.99624" lon="4.82521">
        <ele>265</ele>
        <time>2018-10-31T10:21:06Z</time>
      </trkpt>
      <trkpt lat="45.99627" lon="4.82531">
        <ele>265</ele>
        <time>2018-10-31T10:21:08Z</time>
      </trkpt>
      <trkpt lat="45.99628" lon="4.82536">
        <ele>266</ele>
        <time>2018-10-31T10:21:09Z</time>
      </trkpt>
      <trkpt lat="45.99631" lon="4.82548">
        <ele>266</ele>
        <time>2018-10-31T10:21:11Z</time>
      </trkpt>
      <trkpt lat="45.99632" lon="4.82554">
        <ele>266</ele>
        <time>2018-10-31T10:21:12Z</time>
      </trkpt>
      <trkpt lat="45.99634" lon="4.82561">
        <ele>266</ele>
        <time>2018-10-31T10:21:13Z</time>
      </trkpt>
      <trkpt lat="45.99635" lon="4.82567">
        <ele>266</ele>
        <time>2018-10-31T10:21:14Z</time>
      </trkpt>
      <trkpt lat="45.99637" lon="4.82579">
        <ele>266</ele>
        <time>2018-10-31T10:21:16Z</time>
      </trkpt>
      <trkpt lat="45.99638" lon="4.82584">
        <ele>266</ele>
        <time>2018-10-31T10:21:17Z</time>
      </trkpt>
      <trkpt lat="45.99639" lon="4.8259">
        <ele>266</ele>
        <time>2018-10-31T10:21:18Z</time>
      </trkpt>
      <trkpt lat="45.9964" lon="4.82597">
        <ele>266</ele>
        <time>2018-10-31T10:21:19Z</time>
      </trkpt>
      <trkpt lat="45.99642" lon="4.82608">
        <ele>266</ele>
        <time>2018-10-31T10:21:21Z</time>
      </trkpt>
      <trkpt lat="45.99644" lon="4.82614">
        <ele>267</ele>
        <time>2018-10-31T10:21:22Z</time>
      </trkpt>
      <trkpt lat="45.99646" lon="4.82626">
        <ele>267</ele>
        <time>2018-10-31T10:21:24Z</time>
      </trkpt>
      <trkpt lat="45.99647" lon="4.82633">
        <ele>267</ele>
        <time>2018-10-31T10:21:25Z</time>
      </trkpt>
      <trkpt lat="45.99649" lon="4.82645">
        <ele>267</ele>
        <time>2018-10-31T10:21:27Z</time>
      </trkpt>
      <trkpt lat="45.99651" lon="4.82651">
        <ele>267</ele>
        <time>2018-10-31T10:21:28Z</time>
      </trkpt>
      <trkpt lat="45.99653" lon="4.82663">
        <ele>268</ele>
        <time>2018-10-31T10:21:30Z</time>
      </trkpt>
      <trkpt lat="45.99654" lon="4.82668">
        <ele>268</ele>
        <time>2018-10-31T10:21:31Z</time>
      </trkpt>
      <trkpt lat="45.99656" lon="4.82679">
        <ele>268</ele>
        <time>2018-10-31T10:21:33Z</time>
      </trkpt>
      <trkpt lat="45.99657" lon="4.82685">
        <ele>268</ele>
        <time>2018-10-31T10:21:34Z</time>
      </trkpt>
      <trkpt lat="45.99658" lon="4.82696">
        <ele>268</ele>
        <time>2018-10-31T10:21:36Z</time>
      </trkpt>
      <trkpt lat="45.99659" lon="4.82702">
        <ele>268</ele>
        <time>2018-10-31T10:21:37Z</time>
      </trkpt>
      <trkpt lat="45.9966" lon="4.82714">
        <ele>268</ele>
        <time>2018-10-31T10:21:39Z</time>
      </trkpt>
      <trkpt lat="45.99661" lon="4.8272">
        <ele>268</ele>
        <time>2018-10-31T10:21:40Z</time>
      </trkpt>
      <trkpt lat="45.99662" lon="4.82732">
        <ele>268</ele>
        <time>2018-10-31T10:21:42Z</time>
      </trkpt>
      <trkpt lat="45.99663" lon="4.82739">
        <ele>268</ele>
        <time>2018-10-31T10:21:43Z</time>
      </trkpt>
      <trkpt lat="45.99662" lon="4.82747">
        <ele>269</ele>
        <time>2018-10-31T10:21:44Z</time>
      </trkpt>
      <trkpt lat="45.99664" lon="4.82753">
        <ele>269</ele>
        <time>2018-10-31T10:21:45Z</time>
      </trkpt>
      <trkpt lat="45.99666" lon="4.8276">
        <ele>269</ele>
        <time>2018-10-31T10:21:46Z</time>
      </trkpt>
      <trkpt lat="45.99666" lon="4.82766">
        <ele>269</ele>
        <time>2018-10-31T10:21:47Z</time>
      </trkpt>
      <trkpt lat="45.99668" lon="4.82777">
        <ele>269</ele>
        <time>2018-10-31T10:21:49Z</time>
      </trkpt>
      <trkpt lat="45.9967" lon="4.82783">
        <ele>269</ele>
        <time>2018-10-31T10:21:50Z</time>
      </trkpt>
      <trkpt lat="45.99673" lon="4.82795">
        <ele>270</ele>
        <time>2018-10-31T10:21:52Z</time>
      </trkpt>
      <trkpt lat="45.99674" lon="4.82802">
        <ele>270</ele>
        <time>2018-10-31T10:21:53Z</time>
      </trkpt>
      <trkpt lat="45.99676" lon="4.8281">
        <ele>270</ele>
        <time>2018-10-31T10:21:54Z</time>
      </trkpt>
      <trkpt lat="45.99677" lon="4.82816">
        <ele>270</ele>
        <time>2018-10-31T10:21:55Z</time>
      </trkpt>
      <trkpt lat="45.9968" lon="4.82822">
        <ele>270</ele>
        <time>2018-10-31T10:21:56Z</time>
      </trkpt>
      <trkpt lat="45.99681" lon="4.82828">
        <ele>270</ele>
        <time>2018-10-31T10:21:57Z</time>
      </trkpt>
      <trkpt lat="45.99683" lon="4.82833">
        <ele>270</ele>
        <time>2018-10-31T10:21:58Z</time>
      </trkpt>
      <trkpt lat="45.99685" lon="4.82839">
        <ele>270</ele>
        <time>2018-10-31T10:21:59Z</time>
      </trkpt>
      <trkpt lat="45.99688" lon="4.82851">
        <ele>270</ele>
        <time>2018-10-31T10:22:01Z</time>
      </trkpt>
      <trkpt lat="45.99691" lon="4.82857">
        <ele>270</ele>
        <time>2018-10-31T10:22:02Z</time>
      </trkpt>
      <trkpt lat="45.99693" lon="4.82869">
        <ele>270</ele>
        <time>2018-10-31T10:22:04Z</time>
      </trkpt>
      <trkpt lat="45.99695" lon="4.82875">
        <ele>270</ele>
        <time>2018-10-31T10:22:05Z</time>
      </trkpt>
      <trkpt lat="45.99696" lon="4.82881">
        <ele>271</ele>
        <time>2018-10-31T10:22:06Z</time>
      </trkpt>
      <trkpt lat="45.99698" lon="4.82887">
        <ele>271</ele>
        <time>2018-10-31T10:22:07Z</time>
      </trkpt>
      <trkpt lat="45.99701" lon="4.82899">
        <ele>271</ele>
        <time>2018-10-31T10:22:09Z</time>
      </trkpt>
      <trkpt lat="45.99702" lon="4.82905">
        <ele>271</ele>
        <time>2018-10-31T10:22:10Z</time>
      </trkpt>
      <trkpt lat="45.99705" lon="4.82916">
        <ele>271</ele>
        <time>2018-10-31T10:22:12Z</time>
      </trkpt>
      <trkpt lat="45.99708" lon="4.82922">
        <ele>271</ele>
        <time>2018-10-31T10:22:13Z</time>
      </trkpt>
      <trkpt lat="45.99713" lon="4.82932">
        <ele>271</ele>
        <time>2018-10-31T10:22:15Z</time>
      </trkpt>
      <trkpt lat="45.99715" lon="4.82937">
        <ele>271</ele>
        <time>2018-10-31T10:22:16Z</time>
      </trkpt>
      <trkpt lat="45.99717" lon="4.82944">
        <ele>271</ele>
        <time>2018-10-31T10:22:17Z</time>
      </trkpt>
      <trkpt lat="45.99719" lon="4.8295">
        <ele>271</ele>
        <time>2018-10-31T10:22:18Z</time>
      </trkpt>
      <trkpt lat="45.99722" lon="4.82955">
        <ele>271</ele>
        <time>2018-10-31T10:22:19Z</time>
      </trkpt>
      <trkpt lat="45.99723" lon="4.82961">
        <ele>271</ele>
        <time>2018-10-31T10:22:20Z</time>
      </trkpt>
      <trkpt lat="45.99726" lon="4.82967">
        <ele>271</ele>
        <time>2018-10-31T10:22:21Z</time>
      </trkpt>
      <trkpt lat="45.99727" lon="4.82974">
        <ele>271</ele>
        <time>2018-10-31T10:22:22Z</time>
      </trkpt>
      <trkpt lat="45.99729" lon="4.8298">
        <ele>271</ele>
        <time>2018-10-31T10:22:23Z</time>
      </trkpt>
      <trkpt lat="45.99731" lon="4.82986">
        <ele>271</ele>
        <time>2018-10-31T10:22:24Z</time>
      </trkpt>
      <trkpt lat="45.99733" lon="4.82993">
        <ele>271</ele>
        <time>2018-10-31T10:22:25Z</time>
      </trkpt>
      <trkpt lat="45.99735" lon="4.82999">
        <ele>271</ele>
        <time>2018-10-31T10:22:26Z</time>
      </trkpt>
      <trkpt lat="45.99737" lon="4.83005">
        <ele>271</ele>
        <time>2018-10-31T10:22:27Z</time>
      </trkpt>
      <trkpt lat="45.99739" lon="4.83012">
        <ele>271</ele>
        <time>2018-10-31T10:22:28Z</time>
      </trkpt>
      <trkpt lat="45.9974" lon="4.83018">
        <ele>271</ele>
        <time>2018-10-31T10:22:29Z</time>
      </trkpt>
      <trkpt lat="45.99742" lon="4.83025">
        <ele>271</ele>
        <time>2018-10-31T10:22:30Z</time>
      </trkpt>
      <trkpt lat="45.99744" lon="4.83032">
        <ele>271</ele>
        <time>2018-10-31T10:22:31Z</time>
      </trkpt>
      <trkpt lat="45.99746" lon="4.83039">
        <ele>271</ele>
        <time>2018-10-31T10:22:32Z</time>
      </trkpt>
      <trkpt lat="45.99747" lon="4.83046">
        <ele>271</ele>
        <time>2018-10-31T10:22:33Z</time>
      </trkpt>
      <trkpt lat="45.99749" lon="4.83053">
        <ele>271</ele>
        <time>2018-10-31T10:22:34Z</time>
      </trkpt>
      <trkpt lat="45.9975" lon="4.83061">
        <ele>272</ele>
        <time>2018-10-31T10:22:35Z</time>
      </trkpt>
      <trkpt lat="45.9975" lon="4.83068">
        <ele>272</ele>
        <time>2018-10-31T10:22:36Z</time>
      </trkpt>
      <trkpt lat="45.99751" lon="4.83076">
        <ele>272</ele>
        <time>2018-10-31T10:22:37Z</time>
      </trkpt>
      <trkpt lat="45.99751" lon="4.83083">
        <ele>272</ele>
        <time>2018-10-31T10:22:38Z</time>
      </trkpt>
      <trkpt lat="45.99752" lon="4.83092">
        <ele>272</ele>
        <time>2018-10-31T10:22:39Z</time>
      </trkpt>
      <trkpt lat="45.99754" lon="4.831">
        <ele>272</ele>
        <time>2018-10-31T10:22:40Z</time>
      </trkpt>
      <trkpt lat="45.99754" lon="4.83109">
        <ele>271</ele>
        <time>2018-10-31T10:22:41Z</time>
      </trkpt>
      <trkpt lat="45.99753" lon="4.83119">
        <ele>271</ele>
        <time>2018-10-31T10:22:42Z</time>
      </trkpt>
      <trkpt lat="45.99754" lon="4.83131">
        <ele>271</ele>
        <time>2018-10-31T10:22:43Z</time>
      </trkpt>
      <trkpt lat="45.99755" lon="4.8314">
        <ele>271</ele>
        <time>2018-10-31T10:22:44Z</time>
      </trkpt>
      <trkpt lat="45.99758" lon="4.8315">
        <ele>271</ele>
        <time>2018-10-31T10:22:45Z</time>
      </trkpt>
      <trkpt lat="45.99759" lon="4.83159">
        <ele>270</ele>
        <time>2018-10-31T10:22:46Z</time>
      </trkpt>
      <trkpt lat="45.99763" lon="4.83171">
        <ele>269</ele>
        <time>2018-10-31T10:22:47Z</time>
      </trkpt>
      <trkpt lat="45.99764" lon="4.83182">
        <ele>269</ele>
        <time>2018-10-31T10:22:48Z</time>
      </trkpt>
      <trkpt lat="45.99764" lon="4.83192">
        <ele>269</ele>
        <time>2018-10-31T10:22:49Z</time>
      </trkpt>
      <trkpt lat="45.99765" lon="4.83204">
        <ele>268</ele>
        <time>2018-10-31T10:22:50Z</time>
      </trkpt>
      <trkpt lat="45.99766" lon="4.83215">
        <ele>268</ele>
        <time>2018-10-31T10:22:51Z</time>
      </trkpt>
      <trkpt lat="45.99766" lon="4.83226">
        <ele>267</ele>
        <time>2018-10-31T10:22:52Z</time>
      </trkpt>
      <trkpt lat="45.99768" lon="4.83237">
        <ele>267</ele>
        <time>2018-10-31T10:22:53Z</time>
      </trkpt>
      <trkpt lat="45.9977" lon="4.83247">
        <ele>267</ele>
        <time>2018-10-31T10:22:54Z</time>
      </trkpt>
      <trkpt lat="45.99771" lon="4.83258">
        <ele>265</ele>
        <time>2018-10-31T10:22:55Z</time>
      </trkpt>
      <trkpt lat="45.99772" lon="4.83269">
        <ele>265</ele>
        <time>2018-10-31T10:22:56Z</time>
      </trkpt>
      <trkpt lat="45.99773" lon="4.83279">
        <ele>265</ele>
        <time>2018-10-31T10:22:57Z</time>
      </trkpt>
      <trkpt lat="45.99774" lon="4.8329">
        <ele>264</ele>
        <time>2018-10-31T10:22:58Z</time>
      </trkpt>
      <trkpt lat="45.99775" lon="4.83301">
        <ele>264</ele>
        <time>2018-10-31T10:22:59Z</time>
      </trkpt>
      <trkpt lat="45.99776" lon="4.83311">
        <ele>264</ele>
        <time>2018-10-31T10:23:00Z</time>
      </trkpt>
      <trkpt lat="45.99777" lon="4.83322">
        <ele>264</ele>
        <time>2018-10-31T10:23:01Z</time>
      </trkpt>
      <trkpt lat="45.99779" lon="4.83332">
        <ele>264</ele>
        <time>2018-10-31T10:23:02Z</time>
      </trkpt>
      <trkpt lat="45.99781" lon="4.83343">
        <ele>263</ele>
        <time>2018-10-31T10:23:03Z</time>
      </trkpt>
      <trkpt lat="45.99783" lon="4.83353">
        <ele>262</ele>
        <time>2018-10-31T10:23:04Z</time>
      </trkpt>
      <trkpt lat="45.99785" lon="4.83363">
        <ele>262</ele>
        <time>2018-10-31T10:23:05Z</time>
      </trkpt>
      <trkpt lat="45.99787" lon="4.83373">
        <ele>262</ele>
        <time>2018-10-31T10:23:06Z</time>
      </trkpt>
      <trkpt lat="45.9979" lon="4.83384">
        <ele>262</ele>
        <time>2018-10-31T10:23:07Z</time>
      </trkpt>
      <trkpt lat="45.99792" lon="4.83394">
        <ele>262</ele>
        <time>2018-10-31T10:23:08Z</time>
      </trkpt>
      <trkpt lat="45.99794" lon="4.83405">
        <ele>262</ele>
        <time>2018-10-31T10:23:09Z</time>
      </trkpt>
      <trkpt lat="45.99797" lon="4.83415">
        <ele>262</ele>
        <time>2018-10-31T10:23:10Z</time>
      </trkpt>
      <trkpt lat="45.99798" lon="4.83425">
        <ele>261</ele>
        <time>2018-10-31T10:23:11Z</time>
      </trkpt>
      <trkpt lat="45.998" lon="4.83435">
        <ele>261</ele>
        <time>2018-10-31T10:23:12Z</time>
      </trkpt>
      <trkpt lat="45.99802" lon="4.83445">
        <ele>261</ele>
        <time>2018-10-31T10:23:13Z</time>
      </trkpt>
      <trkpt lat="45.99804" lon="4.83454">
        <ele>261</ele>
        <time>2018-10-31T10:23:14Z</time>
      </trkpt>
      <trkpt lat="45.99807" lon="4.83465">
        <ele>261</ele>
        <time>2018-10-31T10:23:15Z</time>
      </trkpt>
      <trkpt lat="45.9981" lon="4.83476">
        <ele>260</ele>
        <time>2018-10-31T10:23:16Z</time>
      </trkpt>
      <trkpt lat="45.99812" lon="4.83486">
        <ele>260</ele>
        <time>2018-10-31T10:23:17Z</time>
      </trkpt>
      <trkpt lat="45.99815" lon="4.83495">
        <ele>260</ele>
        <time>2018-10-31T10:23:18Z</time>
      </trkpt>
      <trkpt lat="45.99817" lon="4.83505">
        <ele>259</ele>
        <time>2018-10-31T10:23:19Z</time>
      </trkpt>
      <trkpt lat="45.99818" lon="4.83515">
        <ele>259</ele>
        <time>2018-10-31T10:23:20Z</time>
      </trkpt>
      <trkpt lat="45.9982" lon="4.83525">
        <ele>259</ele>
        <time>2018-10-31T10:23:21Z</time>
      </trkpt>
      <trkpt lat="45.99823" lon="4.83534">
        <ele>259</ele>
        <time>2018-10-31T10:23:22Z</time>
      </trkpt>
      <trkpt lat="45.99825" lon="4.83544">
        <ele>259</ele>
        <time>2018-10-31T10:23:23Z</time>
      </trkpt>
      <trkpt lat="45.99826" lon="4.83553">
        <ele>258</ele>
        <time>2018-10-31T10:23:24Z</time>
      </trkpt>
      <trkpt lat="45.99829" lon="4.83562">
        <ele>258</ele>
        <time>2018-10-31T10:23:25Z</time>
      </trkpt>
      <trkpt lat="45.99831" lon="4.8357">
        <ele>258</ele>
        <time>2018-10-31T10:23:26Z</time>
      </trkpt>
      <trkpt lat="45.99832" lon="4.83578">
        <ele>257</ele>
        <time>2018-10-31T10:23:27Z</time>
      </trkpt>
      <trkpt lat="45.99834" lon="4.83587">
        <ele>257</ele>
        <time>2018-10-31T10:23:28Z</time>
      </trkpt>
      <trkpt lat="45.99836" lon="4.83596">
        <ele>257</ele>
        <time>2018-10-31T10:23:29Z</time>
      </trkpt>
      <trkpt lat="45.99838" lon="4.83605">
        <ele>257</ele>
        <time>2018-10-31T10:23:30Z</time>
      </trkpt>
      <trkpt lat="45.99841" lon="4.83612">
        <ele>257</ele>
        <time>2018-10-31T10:23:31Z</time>
      </trkpt>
      <trkpt lat="45.99842" lon="4.8362">
        <ele>257</ele>
        <time>2018-10-31T10:23:32Z</time>
      </trkpt>
      <trkpt lat="45.99844" lon="4.83629">
        <ele>257</ele>
        <time>2018-10-31T10:23:33Z</time>
      </trkpt>
      <trkpt lat="45.99847" lon="4.83636">
        <ele>257</ele>
        <time>2018-10-31T10:23:34Z</time>
      </trkpt>
      <trkpt lat="45.99849" lon="4.83644">
        <ele>257</ele>
        <time>2018-10-31T10:23:35Z</time>
      </trkpt>
      <trkpt lat="45.9985" lon="4.83652">
        <ele>257</ele>
        <time>2018-10-31T10:23:36Z</time>
      </trkpt>
      <trkpt lat="45.99852" lon="4.8366">
        <ele>257</ele>
        <time>2018-10-31T10:23:37Z</time>
      </trkpt>
      <trkpt lat="45.99853" lon="4.83668">
        <ele>256</ele>
        <time>2018-10-31T10:23:38Z</time>
      </trkpt>
      <trkpt lat="45.99855" lon="4.83675">
        <ele>256</ele>
        <time>2018-10-31T10:23:39Z</time>
      </trkpt>
      <trkpt lat="45.99857" lon="4.83683">
        <ele>256</ele>
        <time>2018-10-31T10:23:40Z</time>
      </trkpt>
      <trkpt lat="45.99859" lon="4.83691">
        <ele>256</ele>
        <time>2018-10-31T10:23:41Z</time>
      </trkpt>
      <trkpt lat="45.99861" lon="4.83699">
        <ele>256</ele>
        <time>2018-10-31T10:23:42Z</time>
      </trkpt>
      <trkpt lat="45.99864" lon="4.83707">
        <ele>256</ele>
        <time>2018-10-31T10:23:43Z</time>
      </trkpt>
      <trkpt lat="45.99866" lon="4.83715">
        <ele>256</ele>
        <time>2018-10-31T10:23:44Z</time>
      </trkpt>
      <trkpt lat="45.99868" lon="4.83723">
        <ele>256</ele>
        <time>2018-10-31T10:23:45Z</time>
      </trkpt>
      <trkpt lat="45.9987" lon="4.8373">
        <ele>256</ele>
        <time>2018-10-31T10:23:46Z</time>
      </trkpt>
      <trkpt lat="45.99872" lon="4.83738">
        <ele>256</ele>
        <time>2018-10-31T10:23:47Z</time>
      </trkpt>
      <trkpt lat="45.99875" lon="4.83746">
        <ele>256</ele>
        <time>2018-10-31T10:23:48Z</time>
      </trkpt>
      <trkpt lat="45.99877" lon="4.83754">
        <ele>256</ele>
        <time>2018-10-31T10:23:49Z</time>
      </trkpt>
      <trkpt lat="45.99879" lon="4.83761">
        <ele>256</ele>
        <time>2018-10-31T10:23:50Z</time>
      </trkpt>
      <trkpt lat="45.99881" lon="4.83768">
        <ele>256</ele>
        <time>2018-10-31T10:23:51Z</time>
      </trkpt>
      <trkpt lat="45.99883" lon="4.83775">
        <ele>257</ele>
        <time>2018-10-31T10:23:52Z</time>
      </trkpt>
      <trkpt lat="45.99885" lon="4.83783">
        <ele>257</ele>
        <time>2018-10-31T10:23:53Z</time>
      </trkpt>
      <trkpt lat="45.99888" lon="4.83789">
        <ele>257</ele>
        <time>2018-10-31T10:23:54Z</time>
      </trkpt>
      <trkpt lat="45.9989" lon="4.83798">
        <ele>257</ele>
        <time>2018-10-31T10:23:55Z</time>
      </trkpt>
      <trkpt lat="45.99892" lon="4.83806">
        <ele>257</ele>
        <time>2018-10-31T10:23:56Z</time>
      </trkpt>
      <trkpt lat="45.99894" lon="4.83813">
        <ele>257</ele>
        <time>2018-10-31T10:23:57Z</time>
      </trkpt>
      <trkpt lat="45.99896" lon="4.8382">
        <ele>257</ele>
        <time>2018-10-31T10:23:58Z</time>
      </trkpt>
      <trkpt lat="45.99899" lon="4.83827">
        <ele>257</ele>
        <time>2018-10-31T10:23:59Z</time>
      </trkpt>
      <trkpt lat="45.999" lon="4.83835">
        <ele>258</ele>
        <time>2018-10-31T10:24:00Z</time>
      </trkpt>
      <trkpt lat="45.99903" lon="4.83842">
        <ele>258</ele>
        <time>2018-10-31T10:24:01Z</time>
      </trkpt>
      <trkpt lat="45.99905" lon="4.8385">
        <ele>258</ele>
        <time>2018-10-31T10:24:02Z</time>
      </trkpt>
      <trkpt lat="45.99907" lon="4.83858">
        <ele>258</ele>
        <time>2018-10-31T10:24:03Z</time>
      </trkpt>
      <trkpt lat="45.99909" lon="4.83865">
        <ele>258</ele>
        <time>2018-10-31T10:24:04Z</time>
      </trkpt>
      <trkpt lat="45.99911" lon="4.83873">
        <ele>258</ele>
        <time>2018-10-31T10:24:05Z</time>
      </trkpt>
      <trkpt lat="45.99913" lon="4.83882">
        <ele>258</ele>
        <time>2018-10-31T10:24:06Z</time>
      </trkpt>
      <trkpt lat="45.99915" lon="4.83889">
        <ele>258</ele>
        <time>2018-10-31T10:24:07Z</time>
      </trkpt>
      <trkpt lat="45.99917" lon="4.83897">
        <ele>259</ele>
        <time>2018-10-31T10:24:08Z</time>
      </trkpt>
      <trkpt lat="45.99919" lon="4.83904">
        <ele>259</ele>
        <time>2018-10-31T10:24:09Z</time>
      </trkpt>
      <trkpt lat="45.99921" lon="4.83911">
        <ele>259</ele>
        <time>2018-10-31T10:24:10Z</time>
      </trkpt>
      <trkpt lat="45.99923" lon="4.83919">
        <ele>259</ele>
        <time>2018-10-31T10:24:11Z</time>
      </trkpt>
      <trkpt lat="45.99926" lon="4.83927">
        <ele>259</ele>
        <time>2018-10-31T10:24:12Z</time>
      </trkpt>
      <trkpt lat="45.99929" lon="4.83933">
        <ele>259</ele>
        <time>2018-10-31T10:24:13Z</time>
      </trkpt>
      <trkpt lat="45.99931" lon="4.83939">
        <ele>259</ele>
        <time>2018-10-31T10:24:14Z</time>
      </trkpt>
      <trkpt lat="45.99933" lon="4.83946">
        <ele>259</ele>
        <time>2018-10-31T10:24:15Z</time>
      </trkpt>
      <trkpt lat="45.99935" lon="4.83952">
        <ele>259</ele>
        <time>2018-10-31T10:24:16Z</time>
      </trkpt>
      <trkpt lat="45.99936" lon="4.83959">
        <ele>259</ele>
        <time>2018-10-31T10:24:17Z</time>
      </trkpt>
      <trkpt lat="45.99938" lon="4.83966">
        <ele>259</ele>
        <time>2018-10-31T10:24:18Z</time>
      </trkpt>
      <trkpt lat="45.99939" lon="4.83972">
        <ele>259</ele>
        <time>2018-10-31T10:24:19Z</time>
      </trkpt>
      <trkpt lat="45.99941" lon="4.83978">
        <ele>259</ele>
        <time>2018-10-31T10:24:20Z</time>
      </trkpt>
      <trkpt lat="45.99943" lon="4.83984">
        <ele>259</ele>
        <time>2018-10-31T10:24:21Z</time>
      </trkpt>
      <trkpt lat="45.99944" lon="4.83991">
        <ele>259</ele>
        <time>2018-10-31T10:24:22Z</time>
      </trkpt>
      <trkpt lat="45.99947" lon="4.83997">
        <ele>259</ele>
        <time>2018-10-31T10:24:23Z</time>
      </trkpt>
      <trkpt lat="45.99948" lon="4.84004">
        <ele>259</ele>
        <time>2018-10-31T10:24:24Z</time>
      </trkpt>
      <trkpt lat="45.9995" lon="4.84011">
        <ele>259</ele>
        <time>2018-10-31T10:24:25Z</time>
      </trkpt>
      <trkpt lat="45.99951" lon="4.84018">
        <ele>259</ele>
        <time>2018-10-31T10:24:26Z</time>
      </trkpt>
      <trkpt lat="45.99953" lon="4.84026">
        <ele>259</ele>
        <time>2018-10-31T10:24:27Z</time>
      </trkpt>
      <trkpt lat="45.99955" lon="4.84033">
        <ele>259</ele>
        <time>2018-10-31T10:24:28Z</time>
      </trkpt>
      <trkpt lat="45.99957" lon="4.84041">
        <ele>258</ele>
        <time>2018-10-31T10:24:29Z</time>
      </trkpt>
      <trkpt lat="45.9996" lon="4.84049">
        <ele>258</ele>
        <time>2018-10-31T10:24:30Z</time>
      </trkpt>
      <trkpt lat="45.99962" lon="4.84056">
        <ele>258</ele>
        <time>2018-10-31T10:24:31Z</time>
      </trkpt>
      <trkpt lat="45.99965" lon="4.84065">
        <ele>258</ele>
        <time>2018-10-31T10:24:32Z</time>
      </trkpt>
      <trkpt lat="45.99967" lon="4.84073">
        <ele>258</ele>
        <time>2018-10-31T10:24:33Z</time>
      </trkpt>
      <trkpt lat="45.99969" lon="4.8408">
        <ele>259</ele>
        <time>2018-10-31T10:24:34Z</time>
      </trkpt>
      <trkpt lat="45.99972" lon="4.84088">
        <ele>258</ele>
        <time>2018-10-31T10:24:35Z</time>
      </trkpt>
      <trkpt lat="45.99974" lon="4.84096">
        <ele>258</ele>
        <time>2018-10-31T10:24:36Z</time>
      </trkpt>
      <trkpt lat="45.99976" lon="4.84103">
        <ele>258</ele>
        <time>2018-10-31T10:24:37Z</time>
      </trkpt>
      <trkpt lat="45.99978" lon="4.8411">
        <ele>258</ele>
        <time>2018-10-31T10:24:38Z</time>
      </trkpt>
      <trkpt lat="45.9998" lon="4.84118">
        <ele>258</ele>
        <time>2018-10-31T10:24:39Z</time>
      </trkpt>
      <trkpt lat="45.99982" lon="4.84125">
        <ele>257</ele>
        <time>2018-10-31T10:24:40Z</time>
      </trkpt>
      <trkpt lat="45.99984" lon="4.84131">
        <ele>257</ele>
        <time>2018-10-31T10:24:41Z</time>
      </trkpt>
      <trkpt lat="45.99985" lon="4.84137">
        <ele>257</ele>
        <time>2018-10-31T10:24:42Z</time>
      </trkpt>
      <trkpt lat="45.99987" lon="4.84143">
        <ele>257</ele>
        <time>2018-10-31T10:24:43Z</time>
      </trkpt>
      <trkpt lat="45.99989" lon="4.84151">
        <ele>257</ele>
        <time>2018-10-31T10:24:44Z</time>
      </trkpt>
      <trkpt lat="45.99991" lon="4.84157">
        <ele>257</ele>
        <time>2018-10-31T10:24:45Z</time>
      </trkpt>
      <trkpt lat="45.99993" lon="4.84163">
        <ele>257</ele>
        <time>2018-10-31T10:24:46Z</time>
      </trkpt>
      <trkpt lat="45.99994" lon="4.84169">
        <ele>257</ele>
        <time>2018-10-31T10:24:47Z</time>
      </trkpt>
      <trkpt lat="45.99995" lon="4.84176">
        <ele>257</ele>
        <time>2018-10-31T10:24:48Z</time>
      </trkpt>
      <trkpt lat="45.99997" lon="4.84183">
        <ele>257</ele>
        <time>2018-10-31T10:24:49Z</time>
      </trkpt>
      <trkpt lat="45.99999" lon="4.84191">
        <ele>257</ele>
        <time>2018-10-31T10:24:50Z</time>
      </trkpt>
      <trkpt lat="46.00002" lon="4.84197">
        <ele>258</ele>
        <time>2018-10-31T10:24:51Z</time>
      </trkpt>
      <trkpt lat="46.00003" lon="4.84204">
        <ele>259</ele>
        <time>2018-10-31T10:24:52Z</time>
      </trkpt>
      <trkpt lat="46.00006" lon="4.84211">
        <ele>259</ele>
        <time>2018-10-31T10:24:53Z</time>
      </trkpt>
      <trkpt lat="46.00008" lon="4.84218">
        <ele>259</ele>
        <time>2018-10-31T10:24:54Z</time>
      </trkpt>
      <trkpt lat="46.0001" lon="4.84224">
        <ele>259</ele>
        <time>2018-10-31T10:24:55Z</time>
      </trkpt>
      <trkpt lat="46.00011" lon="4.84232">
        <ele>259</ele>
        <time>2018-10-31T10:24:56Z</time>
      </trkpt>
      <trkpt lat="46.00013" lon="4.84238">
        <ele>259</ele>
        <time>2018-10-31T10:24:57Z</time>
      </trkpt>
      <trkpt lat="46.00015" lon="4.84245">
        <ele>259</ele>
        <time>2018-10-31T10:24:58Z</time>
      </trkpt>
      <trkpt lat="46.00017" lon="4.84251">
        <ele>260</ele>
        <time>2018-10-31T10:24:59Z</time>
      </trkpt>
      <trkpt lat="46.00019" lon="4.84258">
        <ele>260</ele>
        <time>2018-10-31T10:25:00Z</time>
      </trkpt>
      <trkpt lat="46.0002" lon="4.84265">
        <ele>260</ele>
        <time>2018-10-31T10:25:01Z</time>
      </trkpt>
      <trkpt lat="46.00022" lon="4.84272">
        <ele>260</ele>
        <time>2018-10-31T10:25:02Z</time>
      </trkpt>
      <trkpt lat="46.00025" lon="4.84279">
        <ele>260</ele>
        <time>2018-10-31T10:25:03Z</time>
      </trkpt>
      <trkpt lat="46.00027" lon="4.84286">
        <ele>260</ele>
        <time>2018-10-31T10:25:04Z</time>
      </trkpt>
      <trkpt lat="46.00029" lon="4.84292">
        <ele>260</ele>
        <time>2018-10-31T10:25:05Z</time>
      </trkpt>
      <trkpt lat="46.00031" lon="4.84298">
        <ele>259</ele>
        <time>2018-10-31T10:25:06Z</time>
      </trkpt>
      <trkpt lat="46.00033" lon="4.84305">
        <ele>259</ele>
        <time>2018-10-31T10:25:07Z</time>
      </trkpt>
      <trkpt lat="46.00035" lon="4.84312">
        <ele>259</ele>
        <time>2018-10-31T10:25:08Z</time>
      </trkpt>
      <trkpt lat="46.00037" lon="4.8432">
        <ele>259</ele>
        <time>2018-10-31T10:25:09Z</time>
      </trkpt>
      <trkpt lat="46.00038" lon="4.84327">
        <ele>259</ele>
        <time>2018-10-31T10:25:10Z</time>
      </trkpt>
      <trkpt lat="46.0004" lon="4.84334">
        <ele>259</ele>
        <time>2018-10-31T10:25:11Z</time>
      </trkpt>
      <trkpt lat="46.00042" lon="4.84342">
        <ele>259</ele>
        <time>2018-10-31T10:25:12Z</time>
      </trkpt>
      <trkpt lat="46.00044" lon="4.84349">
        <ele>259</ele>
        <time>2018-10-31T10:25:13Z</time>
      </trkpt>
      <trkpt lat="46.00045" lon="4.84356">
        <ele>259</ele>
        <time>2018-10-31T10:25:14Z</time>
      </trkpt>
      <trkpt lat="46.00047" lon="4.84364">
        <ele>259</ele>
        <time>2018-10-31T10:25:15Z</time>
      </trkpt>
      <trkpt lat="46.00048" lon="4.84374">
        <ele>259</ele>
        <time>2018-10-31T10:25:16Z</time>
      </trkpt>
      <trkpt lat="46.0005" lon="4.84381">
        <ele>259</ele>
        <time>2018-10-31T10:25:17Z</time>
      </trkpt>
      <trkpt lat="46.00052" lon="4.84388">
        <ele>259</ele>
        <time>2018-10-31T10:25:18Z</time>
      </trkpt>
      <trkpt lat="46.00053" lon="4.84396">
        <ele>259</ele>
        <time>2018-10-31T10:25:19Z</time>
      </trkpt>
      <trkpt lat="46.00054" lon="4.84404">
        <ele>259</ele>
        <time>2018-10-31T10:25:20Z</time>
      </trkpt>
      <trkpt lat="46.00055" lon="4.84413">
        <ele>259</ele>
        <time>2018-10-31T10:25:21Z</time>
      </trkpt>
      <trkpt lat="46.00056" lon="4.84421">
        <ele>258</ele>
        <time>2018-10-31T10:25:22Z</time>
      </trkpt>
      <trkpt lat="46.00057" lon="4.8443">
        <ele>258</ele>
        <time>2018-10-31T10:25:23Z</time>
      </trkpt>
      <trkpt lat="46.00058" lon="4.84438">
        <ele>258</ele>
        <time>2018-10-31T10:25:24Z</time>
      </trkpt>
      <trkpt lat="46.00059" lon="4.84447">
        <ele>258</ele>
        <time>2018-10-31T10:25:25Z</time>
      </trkpt>
      <trkpt lat="46.0006" lon="4.84455">
        <ele>258</ele>
        <time>2018-10-31T10:25:26Z</time>
      </trkpt>
      <trkpt lat="46.00061" lon="4.84463">
        <ele>258</ele>
        <time>2018-10-31T10:25:27Z</time>
      </trkpt>
      <trkpt lat="46.00065" lon="4.84471">
        <ele>258</ele>
        <time>2018-10-31T10:25:28Z</time>
      </trkpt>
      <trkpt lat="46.00065" lon="4.84479">
        <ele>258</ele>
        <time>2018-10-31T10:25:29Z</time>
      </trkpt>
      <trkpt lat="46.00067" lon="4.84487">
        <ele>258</ele>
        <time>2018-10-31T10:25:30Z</time>
      </trkpt>
      <trkpt lat="46.00068" lon="4.84496">
        <ele>258</ele>
        <time>2018-10-31T10:25:31Z</time>
      </trkpt>
      <trkpt lat="46.00069" lon="4.84505">
        <ele>258</ele>
        <time>2018-10-31T10:25:32Z</time>
      </trkpt>
      <trkpt lat="46.00071" lon="4.84513">
        <ele>258</ele>
        <time>2018-10-31T10:25:33Z</time>
      </trkpt>
      <trkpt lat="46.00072" lon="4.84521">
        <ele>258</ele>
        <time>2018-10-31T10:25:34Z</time>
      </trkpt>
      <trkpt lat="46.00074" lon="4.84529">
        <ele>257</ele>
        <time>2018-10-31T10:25:35Z</time>
      </trkpt>
      <trkpt lat="46.00075" lon="4.84538">
        <ele>257</ele>
        <time>2018-10-31T10:25:36Z</time>
      </trkpt>
      <trkpt lat="46.00077" lon="4.84546">
        <ele>257</ele>
        <time>2018-10-31T10:25:37Z</time>
      </trkpt>
      <trkpt lat="46.00077" lon="4.84554">
        <ele>257</ele>
        <time>2018-10-31T10:25:38Z</time>
      </trkpt>
      <trkpt lat="46.00077" lon="4.84561">
        <ele>257</ele>
        <time>2018-10-31T10:25:39Z</time>
      </trkpt>
      <trkpt lat="46.00079" lon="4.8457">
        <ele>257</ele>
        <time>2018-10-31T10:25:40Z</time>
      </trkpt>
      <trkpt lat="46.00079" lon="4.84578">
        <ele>257</ele>
        <time>2018-10-31T10:25:41Z</time>
      </trkpt>
      <trkpt lat="46.00079" lon="4.84586">
        <ele>257</ele>
        <time>2018-10-31T10:25:42Z</time>
      </trkpt>
      <trkpt lat="46.00079" lon="4.84595">
        <ele>257</ele>
        <time>2018-10-31T10:25:43Z</time>
      </trkpt>
      <trkpt lat="46.00079" lon="4.84603">
        <ele>256</ele>
        <time>2018-10-31T10:25:44Z</time>
      </trkpt>
      <trkpt lat="46.00079" lon="4.84611">
        <ele>256</ele>
        <time>2018-10-31T10:25:45Z</time>
      </trkpt>
      <trkpt lat="46.00079" lon="4.8462">
        <ele>256</ele>
        <time>2018-10-31T10:25:46Z</time>
      </trkpt>
      <trkpt lat="46.00079" lon="4.84627">
        <ele>256</ele>
        <time>2018-10-31T10:25:47Z</time>
      </trkpt>
      <trkpt lat="46.0008" lon="4.84635">
        <ele>256</ele>
        <time>2018-10-31T10:25:48Z</time>
      </trkpt>
      <trkpt lat="46.0008" lon="4.84643">
        <ele>256</ele>
        <time>2018-10-31T10:25:49Z</time>
      </trkpt>
      <trkpt lat="46.0008" lon="4.84652">
        <ele>256</ele>
        <time>2018-10-31T10:25:50Z</time>
      </trkpt>
      <trkpt lat="46.00081" lon="4.84659">
        <ele>256</ele>
        <time>2018-10-31T10:25:51Z</time>
      </trkpt>
      <trkpt lat="46.00083" lon="4.84667">
        <ele>256</ele>
        <time>2018-10-31T10:25:52Z</time>
      </trkpt>
      <trkpt lat="46.00083" lon="4.84675">
        <ele>256</ele>
        <time>2018-10-31T10:25:53Z</time>
      </trkpt>
      <trkpt lat="46.00083" lon="4.84682">
        <ele>256</ele>
        <time>2018-10-31T10:25:54Z</time>
      </trkpt>
      <trkpt lat="46.00083" lon="4.8469">
        <ele>256</ele>
        <time>2018-10-31T10:25:55Z</time>
      </trkpt>
      <trkpt lat="46.00081" lon="4.84697">
        <ele>256</ele>
        <time>2018-10-31T10:25:56Z</time>
      </trkpt>
      <trkpt lat="46.00081" lon="4.84704">
        <ele>257</ele>
        <time>2018-10-31T10:25:57Z</time>
      </trkpt>
      <trkpt lat="46.0008" lon="4.84712">
        <ele>257</ele>
        <time>2018-10-31T10:25:58Z</time>
      </trkpt>
      <trkpt lat="46.0008" lon="4.84719">
        <ele>257</ele>
        <time>2018-10-31T10:25:59Z</time>
      </trkpt>
      <trkpt lat="46.00081" lon="4.84727">
        <ele>257</ele>
        <time>2018-10-31T10:26:00Z</time>
      </trkpt>
      <trkpt lat="46.0008" lon="4.84735">
        <ele>257</ele>
        <time>2018-10-31T10:26:01Z</time>
      </trkpt>
      <trkpt lat="46.0008" lon="4.84742">
        <ele>258</ele>
        <time>2018-10-31T10:26:02Z</time>
      </trkpt>
      <trkpt lat="46.00079" lon="4.84749">
        <ele>258</ele>
        <time>2018-10-31T10:26:03Z</time>
      </trkpt>
      <trkpt lat="46.00079" lon="4.84756">
        <ele>258</ele>
        <time>2018-10-31T10:26:04Z</time>
      </trkpt>
      <trkpt lat="46.00078" lon="4.84763">
        <ele>259</ele>
        <time>2018-10-31T10:26:05Z</time>
      </trkpt>
      <trkpt lat="46.00078" lon="4.84775">
        <ele>259</ele>
        <time>2018-10-31T10:26:07Z</time>
      </trkpt>
      <trkpt lat="46.00077" lon="4.84781">
        <ele>259</ele>
        <time>2018-10-31T10:26:08Z</time>
      </trkpt>
      <trkpt lat="46.00075" lon="4.84791">
        <ele>259</ele>
        <time>2018-10-31T10:26:10Z</time>
      </trkpt>
      <trkpt lat="46.00074" lon="4.84796">
        <ele>260</ele>
        <time>2018-10-31T10:26:11Z</time>
      </trkpt>
      <trkpt lat="46.00074" lon="4.84808">
        <ele>260</ele>
        <time>2018-10-31T10:26:13Z</time>
      </trkpt>
      <trkpt lat="46.00074" lon="4.84813">
        <ele>260</ele>
        <time>2018-10-31T10:26:14Z</time>
      </trkpt>
      <trkpt lat="46.00073" lon="4.84824">
        <ele>261</ele>
        <time>2018-10-31T10:26:16Z</time>
      </trkpt>
      <trkpt lat="46.00073" lon="4.8483">
        <ele>261</ele>
        <time>2018-10-31T10:26:17Z</time>
      </trkpt>
      <trkpt lat="46.00072" lon="4.84842">
        <ele>262</ele>
        <time>2018-10-31T10:26:20Z</time>
      </trkpt>
      <trkpt lat="46.00072" lon="4.84846">
        <ele>262</ele>
        <time>2018-10-31T10:26:21Z</time>
      </trkpt>
      <trkpt lat="46.00071" lon="4.84856">
        <ele>262</ele>
        <time>2018-10-31T10:26:24Z</time>
      </trkpt>
      <trkpt lat="46.00071" lon="4.84859">
        <ele>262</ele>
        <time>2018-10-31T10:26:25Z</time>
      </trkpt>
      <trkpt lat="46.00076" lon="4.84866">
        <ele>262</ele>
        <time>2018-10-31T10:26:30Z</time>
      </trkpt>
      <trkpt lat="46.00083" lon="4.84864">
        <ele>262</ele>
        <time>2018-10-31T10:26:31Z</time>
      </trkpt>
      <trkpt lat="46.00091" lon="4.8486">
        <ele>263</ele>
        <time>2018-10-31T10:26:33Z</time>
      </trkpt>
      <trkpt lat="46.00095" lon="4.84859">
        <ele>263</ele>
        <time>2018-10-31T10:26:34Z</time>
      </trkpt>
      <trkpt lat="46.00103" lon="4.84856">
        <ele>263</ele>
        <time>2018-10-31T10:26:36Z</time>
      </trkpt>
      <trkpt lat="46.00107" lon="4.84856">
        <ele>263</ele>
        <time>2018-10-31T10:26:37Z</time>
      </trkpt>
      <trkpt lat="46.00115" lon="4.84856">
        <ele>263</ele>
        <time>2018-10-31T10:26:39Z</time>
      </trkpt>
      <trkpt lat="46.00119" lon="4.84856">
        <ele>263</ele>
        <time>2018-10-31T10:26:40Z</time>
      </trkpt>
      <trkpt lat="46.00127" lon="4.84857">
        <ele>263</ele>
        <time>2018-10-31T10:26:43Z</time>
      </trkpt>
      <trkpt lat="46.00129" lon="4.84859">
        <ele>263</ele>
        <time>2018-10-31T10:26:44Z</time>
      </trkpt>
      <trkpt lat="46.00136" lon="4.84866">
        <ele>263</ele>
        <time>2018-10-31T10:27:05Z</time>
      </trkpt>
      <trkpt lat="46.00136" lon="4.84866">
        <ele>263</ele>
        <time>2018-10-31T10:27:06Z</time>
      </trkpt>
      <trkpt lat="46.00145" lon="4.84866">
        <ele>263</ele>
        <time>2018-10-31T10:27:16Z</time>
      </trkpt>
      <trkpt lat="46.00146" lon="4.84866">
        <ele>263</ele>
        <time>2018-10-31T10:27:17Z</time>
      </trkpt>
      <trkpt lat="46.00154" lon="4.8486">
        <ele>263</ele>
        <time>2018-10-31T10:37:31Z</time>
      </trkpt>
      <trkpt lat="46.00154" lon="4.84859">
        <ele>263</ele>
        <time>2018-10-31T10:37:32Z</time>
      </trkpt>
      <trkpt lat="46.00159" lon="4.84852">
        <ele>262</ele>
        <time>2018-10-31T10:37:57Z</time>
      </trkpt>
      <trkpt lat="46.00161" lon="4.8485">
        <ele>262</ele>
        <time>2018-10-31T10:37:58Z</time>
      </trkpt>
      <trkpt lat="46.00164" lon="4.84843">
        <ele>262</ele>
        <time>2018-10-31T10:38:01Z</time>
      </trkpt>
      <trkpt lat="46.00166" lon="4.84834">
        <ele>261</ele>
        <time>2018-10-31T10:38:02Z</time>
      </trkpt>
      <trkpt lat="46.00165" lon="4.84828">
        <ele>261</ele>
        <time>2018-10-31T10:38:03Z</time>
      </trkpt>
      <trkpt lat="46.00163" lon="4.84821">
        <ele>260</ele>
        <time>2018-10-31T10:38:04Z</time>
      </trkpt>
      <trkpt lat="46.00162" lon="4.84808">
        <ele>260</ele>
        <time>2018-10-31T10:38:06Z</time>
      </trkpt>
      <trkpt lat="46.00162" lon="4.848">
        <ele>260</ele>
        <time>2018-10-31T10:38:07Z</time>
      </trkpt>
      <trkpt lat="46.00161" lon="4.84793">
        <ele>260</ele>
        <time>2018-10-31T10:38:08Z</time>
      </trkpt>
      <trkpt lat="46.0016" lon="4.84784">
        <ele>259</ele>
        <time>2018-10-31T10:38:09Z</time>
      </trkpt>
      <trkpt lat="46.0016" lon="4.84775">
        <ele>259</ele>
        <time>2018-10-31T10:38:10Z</time>
      </trkpt>
      <trkpt lat="46.00159" lon="4.84767">
        <ele>259</ele>
        <time>2018-10-31T10:38:11Z</time>
      </trkpt>
      <trkpt lat="46.00158" lon="4.8476">
        <ele>259</ele>
        <time>2018-10-31T10:38:12Z</time>
      </trkpt>
      <trkpt lat="46.00158" lon="4.84754">
        <ele>259</ele>
        <time>2018-10-31T10:38:13Z</time>
      </trkpt>
      <trkpt lat="46.00156" lon="4.84747">
        <ele>258</ele>
        <time>2018-10-31T10:38:14Z</time>
      </trkpt>
      <trkpt lat="46.00157" lon="4.84741">
        <ele>258</ele>
        <time>2018-10-31T10:38:15Z</time>
      </trkpt>
      <trkpt lat="46.00162" lon="4.84731">
        <ele>258</ele>
        <time>2018-10-31T10:38:17Z</time>
      </trkpt>
      <trkpt lat="46.00166" lon="4.84729">
        <ele>258</ele>
        <time>2018-10-31T10:38:18Z</time>
      </trkpt>
      <trkpt lat="46.00174" lon="4.84728">
        <ele>258</ele>
        <time>2018-10-31T10:38:20Z</time>
      </trkpt>
      <trkpt lat="46.00177" lon="4.84727">
        <ele>258</ele>
        <time>2018-10-31T10:38:21Z</time>
      </trkpt>
      <trkpt lat="46.00181" lon="4.8472">
        <ele>258</ele>
        <time>2018-10-31T10:38:23Z</time>
      </trkpt>
      <trkpt lat="46.00181" lon="4.84714">
        <ele>258</ele>
        <time>2018-10-31T10:38:24Z</time>
      </trkpt>
      <trkpt lat="46.00177" lon="4.84704">
        <ele>258</ele>
        <time>2018-10-31T10:38:26Z</time>
      </trkpt>
      <trkpt lat="46.00174" lon="4.84701">
        <ele>258</ele>
        <time>2018-10-31T10:38:27Z</time>
      </trkpt>
      <trkpt lat="46.00165" lon="4.84699">
        <ele>258</ele>
        <time>2018-10-31T10:38:29Z</time>
      </trkpt>
      <trkpt lat="46.00161" lon="4.84701">
        <ele>258</ele>
        <time>2018-10-31T10:38:30Z</time>
      </trkpt>
      <trkpt lat="46.00157" lon="4.84703">
        <ele>258</ele>
        <time>2018-10-31T10:38:31Z</time>
      </trkpt>
      <trkpt lat="46.00153" lon="4.84707">
        <ele>258</ele>
        <time>2018-10-31T10:38:32Z</time>
      </trkpt>
      <trkpt lat="46.00148" lon="4.84708">
        <ele>258</ele>
        <time>2018-10-31T10:38:33Z</time>
      </trkpt>
      <trkpt lat="46.00143" lon="4.8471">
        <ele>258</ele>
        <time>2018-10-31T10:38:34Z</time>
      </trkpt>
      <trkpt lat="46.00139" lon="4.8471">
        <ele>258</ele>
        <time>2018-10-31T10:38:35Z</time>
      </trkpt>
      <trkpt lat="46.00134" lon="4.84709">
        <ele>258</ele>
        <time>2018-10-31T10:38:36Z</time>
      </trkpt>
      <trkpt lat="46.00125" lon="4.84709">
        <ele>258</ele>
        <time>2018-10-31T10:38:38Z</time>
      </trkpt>
      <trkpt lat="46.0012" lon="4.84709">
        <ele>257</ele>
        <time>2018-10-31T10:38:39Z</time>
      </trkpt>
      <trkpt lat="46.00116" lon="4.84709">
        <ele>257</ele>
        <time>2018-10-31T10:38:40Z</time>
      </trkpt>
      <trkpt lat="46.00111" lon="4.84709">
        <ele>257</ele>
        <time>2018-10-31T10:38:41Z</time>
      </trkpt>
      <trkpt lat="46.00102" lon="4.84709">
        <ele>257</ele>
        <time>2018-10-31T10:38:43Z</time>
      </trkpt>
      <trkpt lat="46.00099" lon="4.84708">
        <ele>257</ele>
        <time>2018-10-31T10:38:44Z</time>
      </trkpt>
      <trkpt lat="46.00091" lon="4.84708">
        <ele>257</ele>
        <time>2018-10-31T10:38:47Z</time>
      </trkpt>
      <trkpt lat="46.00088" lon="4.84708">
        <ele>257</ele>
        <time>2018-10-31T10:38:48Z</time>
      </trkpt>
      <trkpt lat="46.00082" lon="4.84711">
        <ele>257</ele>
        <time>2018-10-31T10:38:51Z</time>
      </trkpt>
      <trkpt lat="46.00079" lon="4.84715">
        <ele>257</ele>
        <time>2018-10-31T10:38:52Z</time>
      </trkpt>
      <trkpt lat="46.00077" lon="4.84719">
        <ele>257</ele>
        <time>2018-10-31T10:38:53Z</time>
      </trkpt>
      <trkpt lat="46.00075" lon="4.84728">
        <ele>257</ele>
        <time>2018-10-31T10:38:54Z</time>
      </trkpt>
      <trkpt lat="46.00075" lon="4.84739">
        <ele>257</ele>
        <time>2018-10-31T10:38:56Z</time>
      </trkpt>
      <trkpt lat="46.00074" lon="4.84745">
        <ele>257</ele>
        <time>2018-10-31T10:38:57Z</time>
      </trkpt>
      <trkpt lat="46.00074" lon="4.84757">
        <ele>258</ele>
        <time>2018-10-31T10:38:59Z</time>
      </trkpt>
      <trkpt lat="46.00073" lon="4.84762">
        <ele>259</ele>
        <time>2018-10-31T10:39:00Z</time>
      </trkpt>
      <trkpt lat="46.00073" lon="4.84773">
        <ele>259</ele>
        <time>2018-10-31T10:39:02Z</time>
      </trkpt>
      <trkpt lat="46.00073" lon="4.84778">
        <ele>259</ele>
        <time>2018-10-31T10:39:03Z</time>
      </trkpt>
      <trkpt lat="46.00073" lon="4.8479">
        <ele>259</ele>
        <time>2018-10-31T10:39:05Z</time>
      </trkpt>
      <trkpt lat="46.00073" lon="4.84796">
        <ele>260</ele>
        <time>2018-10-31T10:39:06Z</time>
      </trkpt>
      <trkpt lat="46.00072" lon="4.84808">
        <ele>260</ele>
        <time>2018-10-31T10:39:08Z</time>
      </trkpt>
      <trkpt lat="46.00072" lon="4.84814">
        <ele>260</ele>
        <time>2018-10-31T10:39:09Z</time>
      </trkpt>
      <trkpt lat="46.0007" lon="4.84826">
        <ele>261</ele>
        <time>2018-10-31T10:39:11Z</time>
      </trkpt>
      <trkpt lat="46.0007" lon="4.84832">
        <ele>261</ele>
        <time>2018-10-31T10:39:12Z</time>
      </trkpt>
      <trkpt lat="46.00069" lon="4.84844">
        <ele>262</ele>
        <time>2018-10-31T10:39:14Z</time>
      </trkpt>
      <trkpt lat="46.00068" lon="4.84849">
        <ele>262</ele>
        <time>2018-10-31T10:39:15Z</time>
      </trkpt>
      <trkpt lat="46.00067" lon="4.8486">
        <ele>262</ele>
        <time>2018-10-31T10:39:17Z</time>
      </trkpt>
      <trkpt lat="46.00067" lon="4.84866">
        <ele>262</ele>
        <time>2018-10-31T10:39:18Z</time>
      </trkpt>
      <trkpt lat="46.00067" lon="4.84877">
        <ele>262</ele>
        <time>2018-10-31T10:39:20Z</time>
      </trkpt>
      <trkpt lat="46.00067" lon="4.84883">
        <ele>262</ele>
        <time>2018-10-31T10:39:21Z</time>
      </trkpt>
      <trkpt lat="46.00068" lon="4.84895">
        <ele>262</ele>
        <time>2018-10-31T10:39:23Z</time>
      </trkpt>
      <trkpt lat="46.00068" lon="4.849">
        <ele>263</ele>
        <time>2018-10-31T10:39:24Z</time>
      </trkpt>
      <trkpt lat="46.00068" lon="4.84913">
        <ele>263</ele>
        <time>2018-10-31T10:39:26Z</time>
      </trkpt>
      <trkpt lat="46.00068" lon="4.84919">
        <ele>263</ele>
        <time>2018-10-31T10:39:27Z</time>
      </trkpt>
      <trkpt lat="46.00068" lon="4.84932">
        <ele>263</ele>
        <time>2018-10-31T10:39:29Z</time>
      </trkpt>
      <trkpt lat="46.00067" lon="4.84938">
        <ele>263</ele>
        <time>2018-10-31T10:39:30Z</time>
      </trkpt>
      <trkpt lat="46.00068" lon="4.84946">
        <ele>263</ele>
        <time>2018-10-31T10:39:31Z</time>
      </trkpt>
      <trkpt lat="46.00069" lon="4.84952">
        <ele>262</ele>
        <time>2018-10-31T10:39:32Z</time>
      </trkpt>
      <trkpt lat="46.00069" lon="4.84959">
        <ele>262</ele>
        <time>2018-10-31T10:39:33Z</time>
      </trkpt>
      <trkpt lat="46.00068" lon="4.84965">
        <ele>262</ele>
        <time>2018-10-31T10:39:34Z</time>
      </trkpt>
      <trkpt lat="46.00067" lon="4.84977">
        <ele>262</ele>
        <time>2018-10-31T10:39:36Z</time>
      </trkpt>
      <trkpt lat="46.00066" lon="4.84983">
        <ele>262</ele>
        <time>2018-10-31T10:39:37Z</time>
      </trkpt>
      <trkpt lat="46.00066" lon="4.8499">
        <ele>262</ele>
        <time>2018-10-31T10:39:38Z</time>
      </trkpt>
      <trkpt lat="46.00066" lon="4.84998">
        <ele>262</ele>
        <time>2018-10-31T10:39:39Z</time>
      </trkpt>
      <trkpt lat="46.00066" lon="4.85005">
        <ele>262</ele>
        <time>2018-10-31T10:39:40Z</time>
      </trkpt>
      <trkpt lat="46.00066" lon="4.85013">
        <ele>262</ele>
        <time>2018-10-31T10:39:41Z</time>
      </trkpt>
      <trkpt lat="46.00066" lon="4.85021">
        <ele>262</ele>
        <time>2018-10-31T10:39:42Z</time>
      </trkpt>
      <trkpt lat="46.00066" lon="4.85029">
        <ele>262</ele>
        <time>2018-10-31T10:39:43Z</time>
      </trkpt>
      <trkpt lat="46.00066" lon="4.85036">
        <ele>262</ele>
        <time>2018-10-31T10:39:44Z</time>
      </trkpt>
      <trkpt lat="46.00066" lon="4.85046">
        <ele>262</ele>
        <time>2018-10-31T10:39:45Z</time>
      </trkpt>
      <trkpt lat="46.00066" lon="4.85054">
        <ele>262</ele>
        <time>2018-10-31T10:39:46Z</time>
      </trkpt>
      <trkpt lat="46.00065" lon="4.85062">
        <ele>262</ele>
        <time>2018-10-31T10:39:47Z</time>
      </trkpt>
      <trkpt lat="46.00065" lon="4.85071">
        <ele>263</ele>
        <time>2018-10-31T10:39:48Z</time>
      </trkpt>
      <trkpt lat="46.00064" lon="4.85079">
        <ele>263</ele>
        <time>2018-10-31T10:39:49Z</time>
      </trkpt>
      <trkpt lat="46.00064" lon="4.85088">
        <ele>263</ele>
        <time>2018-10-31T10:39:50Z</time>
      </trkpt>
      <trkpt lat="46.00062" lon="4.85097">
        <ele>262</ele>
        <time>2018-10-31T10:39:51Z</time>
      </trkpt>
      <trkpt lat="46.00061" lon="4.85105">
        <ele>262</ele>
        <time>2018-10-31T10:39:52Z</time>
      </trkpt>
      <trkpt lat="46.00061" lon="4.85113">
        <ele>262</ele>
        <time>2018-10-31T10:39:53Z</time>
      </trkpt>
      <trkpt lat="46.00061" lon="4.85121">
        <ele>262</ele>
        <time>2018-10-31T10:39:54Z</time>
      </trkpt>
      <trkpt lat="46.0006" lon="4.8513">
        <ele>262</ele>
        <time>2018-10-31T10:39:55Z</time>
      </trkpt>
      <trkpt lat="46.00059" lon="4.85139">
        <ele>262</ele>
        <time>2018-10-31T10:39:56Z</time>
      </trkpt>
      <trkpt lat="46.00058" lon="4.85148">
        <ele>262</ele>
        <time>2018-10-31T10:39:57Z</time>
      </trkpt>
      <trkpt lat="46.00058" lon="4.85156">
        <ele>262</ele>
        <time>2018-10-31T10:39:58Z</time>
      </trkpt>
      <trkpt lat="46.00058" lon="4.85164">
        <ele>262</ele>
        <time>2018-10-31T10:39:59Z</time>
      </trkpt>
      <trkpt lat="46.00058" lon="4.85172">
        <ele>263</ele>
        <time>2018-10-31T10:40:00Z</time>
      </trkpt>
      <trkpt lat="46.00057" lon="4.85179">
        <ele>263</ele>
        <time>2018-10-31T10:40:01Z</time>
      </trkpt>
      <trkpt lat="46.00056" lon="4.85186">
        <ele>263</ele>
        <time>2018-10-31T10:40:02Z</time>
      </trkpt>
      <trkpt lat="46.00055" lon="4.85193">
        <ele>263</ele>
        <time>2018-10-31T10:40:03Z</time>
      </trkpt>
      <trkpt lat="46.00055" lon="4.852">
        <ele>263</ele>
        <time>2018-10-31T10:40:04Z</time>
      </trkpt>
      <trkpt lat="46.00055" lon="4.85207">
        <ele>263</ele>
        <time>2018-10-31T10:40:05Z</time>
      </trkpt>
      <trkpt lat="46.00055" lon="4.85214">
        <ele>263</ele>
        <time>2018-10-31T10:40:06Z</time>
      </trkpt>
      <trkpt lat="46.00054" lon="4.8522">
        <ele>264</ele>
        <time>2018-10-31T10:40:07Z</time>
      </trkpt>
      <trkpt lat="46.00054" lon="4.85227">
        <ele>264</ele>
        <time>2018-10-31T10:40:08Z</time>
      </trkpt>
      <trkpt lat="46.00054" lon="4.85234">
        <ele>264</ele>
        <time>2018-10-31T10:40:09Z</time>
      </trkpt>
      <trkpt lat="46.00054" lon="4.85241">
        <ele>264</ele>
        <time>2018-10-31T10:40:10Z</time>
      </trkpt>
      <trkpt lat="46.00053" lon="4.85247">
        <ele>264</ele>
        <time>2018-10-31T10:40:11Z</time>
      </trkpt>
      <trkpt lat="46.00052" lon="4.85254">
        <ele>266</ele>
        <time>2018-10-31T10:40:12Z</time>
      </trkpt>
      <trkpt lat="46.00052" lon="4.85261">
        <ele>266</ele>
        <time>2018-10-31T10:40:13Z</time>
      </trkpt>
      <trkpt lat="46.00052" lon="4.85269">
        <ele>266</ele>
        <time>2018-10-31T10:40:14Z</time>
      </trkpt>
      <trkpt lat="46.00051" lon="4.85276">
        <ele>266</ele>
        <time>2018-10-31T10:40:15Z</time>
      </trkpt>
      <trkpt lat="46.00051" lon="4.85283">
        <ele>266</ele>
        <time>2018-10-31T10:40:16Z</time>
      </trkpt>
      <trkpt lat="46.0005" lon="4.8529">
        <ele>266</ele>
        <time>2018-10-31T10:40:17Z</time>
      </trkpt>
      <trkpt lat="46.00051" lon="4.85296">
        <ele>266</ele>
        <time>2018-10-31T10:40:18Z</time>
      </trkpt>
      <trkpt lat="46.0005" lon="4.85303">
        <ele>266</ele>
        <time>2018-10-31T10:40:19Z</time>
      </trkpt>
      <trkpt lat="46.00049" lon="4.85311">
        <ele>266</ele>
        <time>2018-10-31T10:40:20Z</time>
      </trkpt>
      <trkpt lat="46.00049" lon="4.85317">
        <ele>266</ele>
        <time>2018-10-31T10:40:21Z</time>
      </trkpt>
      <trkpt lat="46.00048" lon="4.85324">
        <ele>266</ele>
        <time>2018-10-31T10:40:22Z</time>
      </trkpt>
      <trkpt lat="46.00048" lon="4.85331">
        <ele>266</ele>
        <time>2018-10-31T10:40:23Z</time>
      </trkpt>
      <trkpt lat="46.00047" lon="4.85344">
        <ele>267</ele>
        <time>2018-10-31T10:40:25Z</time>
      </trkpt>
      <trkpt lat="46.00046" lon="4.8535">
        <ele>267</ele>
        <time>2018-10-31T10:40:26Z</time>
      </trkpt>
      <trkpt lat="46.00046" lon="4.85361">
        <ele>268</ele>
        <time>2018-10-31T10:40:28Z</time>
      </trkpt>
      <trkpt lat="46.00046" lon="4.85367">
        <ele>268</ele>
        <time>2018-10-31T10:40:29Z</time>
      </trkpt>
      <trkpt lat="46.00045" lon="4.85378">
        <ele>268</ele>
        <time>2018-10-31T10:40:31Z</time>
      </trkpt>
      <trkpt lat="46.00044" lon="4.85384">
        <ele>268</ele>
        <time>2018-10-31T10:40:32Z</time>
      </trkpt>
      <trkpt lat="46.00045" lon="4.85392">
        <ele>268</ele>
        <time>2018-10-31T10:40:34Z</time>
      </trkpt>
      <trkpt lat="46.00045" lon="4.85399">
        <ele>268</ele>
        <time>2018-10-31T10:40:35Z</time>
      </trkpt>
      <trkpt lat="46.00046" lon="4.8541">
        <ele>269</ele>
        <time>2018-10-31T10:40:37Z</time>
      </trkpt>
      <trkpt lat="46.00047" lon="4.85416">
        <ele>269</ele>
        <time>2018-10-31T10:40:38Z</time>
      </trkpt>
      <trkpt lat="46.00048" lon="4.85426">
        <ele>270</ele>
        <time>2018-10-31T10:40:40Z</time>
      </trkpt>
      <trkpt lat="46.00048" lon="4.85432">
        <ele>270</ele>
        <time>2018-10-31T10:40:41Z</time>
      </trkpt>
      <trkpt lat="46.00048" lon="4.85442">
        <ele>270</ele>
        <time>2018-10-31T10:40:43Z</time>
      </trkpt>
      <trkpt lat="46.00049" lon="4.85448">
        <ele>270</ele>
        <time>2018-10-31T10:40:44Z</time>
      </trkpt>
      <trkpt lat="46.0005" lon="4.85458">
        <ele>270</ele>
        <time>2018-10-31T10:40:46Z</time>
      </trkpt>
      <trkpt lat="46.0005" lon="4.85464">
        <ele>270</ele>
        <time>2018-10-31T10:40:47Z</time>
      </trkpt>
      <trkpt lat="46.00051" lon="4.85475">
        <ele>270</ele>
        <time>2018-10-31T10:40:49Z</time>
      </trkpt>
      <trkpt lat="46.00051" lon="4.85481">
        <ele>271</ele>
        <time>2018-10-31T10:40:50Z</time>
      </trkpt>
      <trkpt lat="46.00052" lon="4.85492">
        <ele>271</ele>
        <time>2018-10-31T10:40:52Z</time>
      </trkpt>
      <trkpt lat="46.00052" lon="4.85498">
        <ele>271</ele>
        <time>2018-10-31T10:40:53Z</time>
      </trkpt>
      <trkpt lat="46.00053" lon="4.85505">
        <ele>271</ele>
        <time>2018-10-31T10:40:54Z</time>
      </trkpt>
      <trkpt lat="46.00053" lon="4.85512">
        <ele>271</ele>
        <time>2018-10-31T10:40:55Z</time>
      </trkpt>
      <trkpt lat="46.00052" lon="4.85519">
        <ele>271</ele>
        <time>2018-10-31T10:40:56Z</time>
      </trkpt>
      <trkpt lat="46.00053" lon="4.85525">
        <ele>271</ele>
        <time>2018-10-31T10:40:57Z</time>
      </trkpt>
      <trkpt lat="46.00053" lon="4.85532">
        <ele>271</ele>
        <time>2018-10-31T10:40:58Z</time>
      </trkpt>
      <trkpt lat="46.00054" lon="4.85539">
        <ele>271</ele>
        <time>2018-10-31T10:40:59Z</time>
      </trkpt>
      <trkpt lat="46.00056" lon="4.8555">
        <ele>271</ele>
        <time>2018-10-31T10:41:01Z</time>
      </trkpt>
      <trkpt lat="46.00056" lon="4.85557">
        <ele>271</ele>
        <time>2018-10-31T10:41:02Z</time>
      </trkpt>
      <trkpt lat="46.00057" lon="4.85569">
        <ele>271</ele>
        <time>2018-10-31T10:41:04Z</time>
      </trkpt>
      <trkpt lat="46.00057" lon="4.85576">
        <ele>271</ele>
        <time>2018-10-31T10:41:05Z</time>
      </trkpt>
      <trkpt lat="46.00058" lon="4.85588">
        <ele>272</ele>
        <time>2018-10-31T10:41:07Z</time>
      </trkpt>
      <trkpt lat="46.00059" lon="4.85595">
        <ele>272</ele>
        <time>2018-10-31T10:41:08Z</time>
      </trkpt>
      <trkpt lat="46.0006" lon="4.85607">
        <ele>272</ele>
        <time>2018-10-31T10:41:10Z</time>
      </trkpt>
      <trkpt lat="46.0006" lon="4.85613">
        <ele>272</ele>
        <time>2018-10-31T10:41:11Z</time>
      </trkpt>
      <trkpt lat="46.0006" lon="4.85625">
        <ele>272</ele>
        <time>2018-10-31T10:41:13Z</time>
      </trkpt>
      <trkpt lat="46.0006" lon="4.85631">
        <ele>272</ele>
        <time>2018-10-31T10:41:14Z</time>
      </trkpt>
      <trkpt lat="46.0006" lon="4.85642">
        <ele>273</ele>
        <time>2018-10-31T10:41:16Z</time>
      </trkpt>
      <trkpt lat="46.0006" lon="4.85647">
        <ele>273</ele>
        <time>2018-10-31T10:41:17Z</time>
      </trkpt>
      <trkpt lat="46.0006" lon="4.85658">
        <ele>273</ele>
        <time>2018-10-31T10:41:19Z</time>
      </trkpt>
      <trkpt lat="46.00061" lon="4.85664">
        <ele>274</ele>
        <time>2018-10-31T10:41:20Z</time>
      </trkpt>
      <trkpt lat="46.00061" lon="4.85674">
        <ele>273</ele>
        <time>2018-10-31T10:41:22Z</time>
      </trkpt>
      <trkpt lat="46.00062" lon="4.8568">
        <ele>273</ele>
        <time>2018-10-31T10:41:23Z</time>
      </trkpt>
      <trkpt lat="46.00062" lon="4.85691">
        <ele>273</ele>
        <time>2018-10-31T10:41:25Z</time>
      </trkpt>
      <trkpt lat="46.00062" lon="4.85696">
        <ele>272</ele>
        <time>2018-10-31T10:41:26Z</time>
      </trkpt>
      <trkpt lat="46.00063" lon="4.85705">
        <ele>272</ele>
        <time>2018-10-31T10:41:28Z</time>
      </trkpt>
      <trkpt lat="46.00063" lon="4.85712">
        <ele>272</ele>
        <time>2018-10-31T10:41:29Z</time>
      </trkpt>
      <trkpt lat="46.00064" lon="4.85723">
        <ele>272</ele>
        <time>2018-10-31T10:41:31Z</time>
      </trkpt>
      <trkpt lat="46.00064" lon="4.85729">
        <ele>272</ele>
        <time>2018-10-31T10:41:32Z</time>
      </trkpt>
      <trkpt lat="46.00065" lon="4.85739">
        <ele>272</ele>
        <time>2018-10-31T10:41:34Z</time>
      </trkpt>
      <trkpt lat="46.00065" lon="4.85745">
        <ele>272</ele>
        <time>2018-10-31T10:41:35Z</time>
      </trkpt>
      <trkpt lat="46.00065" lon="4.85755">
        <ele>271</ele>
        <time>2018-10-31T10:41:37Z</time>
      </trkpt>
      <trkpt lat="46.00065" lon="4.85761">
        <ele>270</ele>
        <time>2018-10-31T10:41:38Z</time>
      </trkpt>
      <trkpt lat="46.00066" lon="4.85771">
        <ele>270</ele>
        <time>2018-10-31T10:41:40Z</time>
      </trkpt>
      <trkpt lat="46.00066" lon="4.85777">
        <ele>270</ele>
        <time>2018-10-31T10:41:41Z</time>
      </trkpt>
      <trkpt lat="46.00067" lon="4.85787">
        <ele>269</ele>
        <time>2018-10-31T10:41:43Z</time>
      </trkpt>
      <trkpt lat="46.00067" lon="4.85792">
        <ele>269</ele>
        <time>2018-10-31T10:41:44Z</time>
      </trkpt>
      <trkpt lat="46.00067" lon="4.85803">
        <ele>269</ele>
        <time>2018-10-31T10:41:46Z</time>
      </trkpt>
      <trkpt lat="46.00068" lon="4.85808">
        <ele>269</ele>
        <time>2018-10-31T10:41:47Z</time>
      </trkpt>
      <trkpt lat="46.00068" lon="4.8582">
        <ele>269</ele>
        <time>2018-10-31T10:41:49Z</time>
      </trkpt>
      <trkpt lat="46.00068" lon="4.85825">
        <ele>269</ele>
        <time>2018-10-31T10:41:50Z</time>
      </trkpt>
      <trkpt lat="46.00068" lon="4.85837">
        <ele>268</ele>
        <time>2018-10-31T10:41:52Z</time>
      </trkpt>
      <trkpt lat="46.00068" lon="4.85842">
        <ele>268</ele>
        <time>2018-10-31T10:41:53Z</time>
      </trkpt>
      <trkpt lat="46.00069" lon="4.85853">
        <ele>268</ele>
        <time>2018-10-31T10:41:55Z</time>
      </trkpt>
      <trkpt lat="46.00069" lon="4.85859">
        <ele>268</ele>
        <time>2018-10-31T10:41:56Z</time>
      </trkpt>
      <trkpt lat="46.0007" lon="4.85871">
        <ele>268</ele>
        <time>2018-10-31T10:41:58Z</time>
      </trkpt>
      <trkpt lat="46.0007" lon="4.85876">
        <ele>268</ele>
        <time>2018-10-31T10:41:59Z</time>
      </trkpt>
      <trkpt lat="46.0007" lon="4.85888">
        <ele>268</ele>
        <time>2018-10-31T10:42:01Z</time>
      </trkpt>
      <trkpt lat="46.0007" lon="4.85894">
        <ele>268</ele>
        <time>2018-10-31T10:42:02Z</time>
      </trkpt>
      <trkpt lat="46.00072" lon="4.85906">
        <ele>268</ele>
        <time>2018-10-31T10:42:04Z</time>
      </trkpt>
      <trkpt lat="46.00072" lon="4.85912">
        <ele>268</ele>
        <time>2018-10-31T10:42:05Z</time>
      </trkpt>
      <trkpt lat="46.00072" lon="4.85919">
        <ele>268</ele>
        <time>2018-10-31T10:42:06Z</time>
      </trkpt>
      <trkpt lat="46.00072" lon="4.85926">
        <ele>268</ele>
        <time>2018-10-31T10:42:07Z</time>
      </trkpt>
      <trkpt lat="46.00073" lon="4.85932">
        <ele>268</ele>
        <time>2018-10-31T10:42:08Z</time>
      </trkpt>
      <trkpt lat="46.00073" lon="4.8594">
        <ele>268</ele>
        <time>2018-10-31T10:42:09Z</time>
      </trkpt>
      <trkpt lat="46.00073" lon="4.85946">
        <ele>268</ele>
        <time>2018-10-31T10:42:10Z</time>
      </trkpt>
      <trkpt lat="46.00073" lon="4.85953">
        <ele>268</ele>
        <time>2018-10-31T10:42:11Z</time>
      </trkpt>
      <trkpt lat="46.00073" lon="4.8596">
        <ele>269</ele>
        <time>2018-10-31T10:42:12Z</time>
      </trkpt>
      <trkpt lat="46.00073" lon="4.85967">
        <ele>269</ele>
        <time>2018-10-31T10:42:13Z</time>
      </trkpt>
      <trkpt lat="46.00074" lon="4.85974">
        <ele>269</ele>
        <time>2018-10-31T10:42:14Z</time>
      </trkpt>
      <trkpt lat="46.00074" lon="4.85981">
        <ele>269</ele>
        <time>2018-10-31T10:42:15Z</time>
      </trkpt>
      <trkpt lat="46.00074" lon="4.85989">
        <ele>269</ele>
        <time>2018-10-31T10:42:16Z</time>
      </trkpt>
      <trkpt lat="46.00075" lon="4.85995">
        <ele>269</ele>
        <time>2018-10-31T10:42:17Z</time>
      </trkpt>
      <trkpt lat="46.00076" lon="4.86003">
        <ele>270</ele>
        <time>2018-10-31T10:42:18Z</time>
      </trkpt>
      <trkpt lat="46.00076" lon="4.8601">
        <ele>270</ele>
        <time>2018-10-31T10:42:19Z</time>
      </trkpt>
      <trkpt lat="46.00076" lon="4.86017">
        <ele>270</ele>
        <time>2018-10-31T10:42:20Z</time>
      </trkpt>
      <trkpt lat="46.00076" lon="4.86024">
        <ele>270</ele>
        <time>2018-10-31T10:42:21Z</time>
      </trkpt>
      <trkpt lat="46.00076" lon="4.86032">
        <ele>270</ele>
        <time>2018-10-31T10:42:22Z</time>
      </trkpt>
      <trkpt lat="46.00077" lon="4.86039">
        <ele>270</ele>
        <time>2018-10-31T10:42:23Z</time>
      </trkpt>
      <trkpt lat="46.00077" lon="4.86046">
        <ele>270</ele>
        <time>2018-10-31T10:42:24Z</time>
      </trkpt>
      <trkpt lat="46.00077" lon="4.86053">
        <ele>270</ele>
        <time>2018-10-31T10:42:25Z</time>
      </trkpt>
      <trkpt lat="46.00078" lon="4.8606">
        <ele>270</ele>
        <time>2018-10-31T10:42:26Z</time>
      </trkpt>
      <trkpt lat="46.00078" lon="4.86068">
        <ele>270</ele>
        <time>2018-10-31T10:42:27Z</time>
      </trkpt>
      <trkpt lat="46.00078" lon="4.86075">
        <ele>270</ele>
        <time>2018-10-31T10:42:28Z</time>
      </trkpt>
      <trkpt lat="46.00078" lon="4.86082">
        <ele>271</ele>
        <time>2018-10-31T10:42:29Z</time>
      </trkpt>
      <trkpt lat="46.00078" lon="4.86088">
        <ele>271</ele>
        <time>2018-10-31T10:42:30Z</time>
      </trkpt>
      <trkpt lat="46.00078" lon="4.86096">
        <ele>270</ele>
        <time>2018-10-31T10:42:31Z</time>
      </trkpt>
      <trkpt lat="46.00079" lon="4.86103">
        <ele>270</ele>
        <time>2018-10-31T10:42:32Z</time>
      </trkpt>
      <trkpt lat="46.00079" lon="4.8611">
        <ele>270</ele>
        <time>2018-10-31T10:42:33Z</time>
      </trkpt>
      <trkpt lat="46.00079" lon="4.86117">
        <ele>270</ele>
        <time>2018-10-31T10:42:34Z</time>
      </trkpt>
      <trkpt lat="46.0008" lon="4.86124">
        <ele>270</ele>
        <time>2018-10-31T10:42:35Z</time>
      </trkpt>
      <trkpt lat="46.00082" lon="4.86132">
        <ele>270</ele>
        <time>2018-10-31T10:42:36Z</time>
      </trkpt>
      <trkpt lat="46.00082" lon="4.8614">
        <ele>270</ele>
        <time>2018-10-31T10:42:37Z</time>
      </trkpt>
      <trkpt lat="46.00082" lon="4.86147">
        <ele>270</ele>
        <time>2018-10-31T10:42:38Z</time>
      </trkpt>
      <trkpt lat="46.00084" lon="4.86154">
        <ele>271</ele>
        <time>2018-10-31T10:42:39Z</time>
      </trkpt>
      <trkpt lat="46.00084" lon="4.86163">
        <ele>271</ele>
        <time>2018-10-31T10:42:40Z</time>
      </trkpt>
      <trkpt lat="46.00085" lon="4.86171">
        <ele>271</ele>
        <time>2018-10-31T10:42:41Z</time>
      </trkpt>
      <trkpt lat="46.00085" lon="4.86179">
        <ele>271</ele>
        <time>2018-10-31T10:42:42Z</time>
      </trkpt>
      <trkpt lat="46.00086" lon="4.86188">
        <ele>271</ele>
        <time>2018-10-31T10:42:43Z</time>
      </trkpt>
      <trkpt lat="46.00087" lon="4.86196">
        <ele>271</ele>
        <time>2018-10-31T10:42:44Z</time>
      </trkpt>
      <trkpt lat="46.00087" lon="4.86204">
        <ele>271</ele>
        <time>2018-10-31T10:42:45Z</time>
      </trkpt>
      <trkpt lat="46.00087" lon="4.86212">
        <ele>271</ele>
        <time>2018-10-31T10:42:46Z</time>
      </trkpt>
      <trkpt lat="46.00087" lon="4.8622">
        <ele>271</ele>
        <time>2018-10-31T10:42:47Z</time>
      </trkpt>
      <trkpt lat="46.00087" lon="4.86228">
        <ele>271</ele>
        <time>2018-10-31T10:42:48Z</time>
      </trkpt>
      <trkpt lat="46.00088" lon="4.86236">
        <ele>271</ele>
        <time>2018-10-31T10:42:49Z</time>
      </trkpt>
      <trkpt lat="46.00088" lon="4.86243">
        <ele>271</ele>
        <time>2018-10-31T10:42:50Z</time>
      </trkpt>
      <trkpt lat="46.00088" lon="4.8625">
        <ele>271</ele>
        <time>2018-10-31T10:42:51Z</time>
      </trkpt>
      <trkpt lat="46.00088" lon="4.86257">
        <ele>271</ele>
        <time>2018-10-31T10:42:52Z</time>
      </trkpt>
      <trkpt lat="46.00088" lon="4.86265">
        <ele>271</ele>
        <time>2018-10-31T10:42:53Z</time>
      </trkpt>
      <trkpt lat="46.00089" lon="4.86273">
        <ele>271</ele>
        <time>2018-10-31T10:42:54Z</time>
      </trkpt>
      <trkpt lat="46.00089" lon="4.8628">
        <ele>271</ele>
        <time>2018-10-31T10:42:55Z</time>
      </trkpt>
      <trkpt lat="46.00089" lon="4.86288">
        <ele>271</ele>
        <time>2018-10-31T10:42:56Z</time>
      </trkpt>
      <trkpt lat="46.00091" lon="4.86295">
        <ele>271</ele>
        <time>2018-10-31T10:42:57Z</time>
      </trkpt>
      <trkpt lat="46.00091" lon="4.86303">
        <ele>271</ele>
        <time>2018-10-31T10:42:58Z</time>
      </trkpt>
      <trkpt lat="46.00091" lon="4.86312">
        <ele>271</ele>
        <time>2018-10-31T10:42:59Z</time>
      </trkpt>
      <trkpt lat="46.00091" lon="4.8632">
        <ele>271</ele>
        <time>2018-10-31T10:43:00Z</time>
      </trkpt>
      <trkpt lat="46.00091" lon="4.86328">
        <ele>271</ele>
        <time>2018-10-31T10:43:01Z</time>
      </trkpt>
      <trkpt lat="46.00092" lon="4.86336">
        <ele>271</ele>
        <time>2018-10-31T10:43:02Z</time>
      </trkpt>
      <trkpt lat="46.00092" lon="4.86343">
        <ele>272</ele>
        <time>2018-10-31T10:43:03Z</time>
      </trkpt>
      <trkpt lat="46.00092" lon="4.86351">
        <ele>272</ele>
        <time>2018-10-31T10:43:04Z</time>
      </trkpt>
      <trkpt lat="46.00092" lon="4.86359">
        <ele>272</ele>
        <time>2018-10-31T10:43:05Z</time>
      </trkpt>
      <trkpt lat="46.00092" lon="4.86368">
        <ele>272</ele>
        <time>2018-10-31T10:43:06Z</time>
      </trkpt>
      <trkpt lat="46.00092" lon="4.86377">
        <ele>272</ele>
        <time>2018-10-31T10:43:07Z</time>
      </trkpt>
      <trkpt lat="46.00093" lon="4.86384">
        <ele>272</ele>
        <time>2018-10-31T10:43:08Z</time>
      </trkpt>
      <trkpt lat="46.00093" lon="4.86391">
        <ele>272</ele>
        <time>2018-10-31T10:43:09Z</time>
      </trkpt>
      <trkpt lat="46.00094" lon="4.86399">
        <ele>272</ele>
        <time>2018-10-31T10:43:10Z</time>
      </trkpt>
      <trkpt lat="46.00094" lon="4.86406">
        <ele>272</ele>
        <time>2018-10-31T10:43:11Z</time>
      </trkpt>
      <trkpt lat="46.00094" lon="4.86413">
        <ele>272</ele>
        <time>2018-10-31T10:43:12Z</time>
      </trkpt>
      <trkpt lat="46.00095" lon="4.86421">
        <ele>273</ele>
        <time>2018-10-31T10:43:13Z</time>
      </trkpt>
      <trkpt lat="46.00094" lon="4.86429">
        <ele>273</ele>
        <time>2018-10-31T10:43:14Z</time>
      </trkpt>
      <trkpt lat="46.00095" lon="4.86436">
        <ele>273</ele>
        <time>2018-10-31T10:43:15Z</time>
      </trkpt>
      <trkpt lat="46.00095" lon="4.86444">
        <ele>273</ele>
        <time>2018-10-31T10:43:16Z</time>
      </trkpt>
      <trkpt lat="46.00095" lon="4.86452">
        <ele>273</ele>
        <time>2018-10-31T10:43:17Z</time>
      </trkpt>
      <trkpt lat="46.00096" lon="4.8646">
        <ele>274</ele>
        <time>2018-10-31T10:43:18Z</time>
      </trkpt>
      <trkpt lat="46.00095" lon="4.86467">
        <ele>274</ele>
        <time>2018-10-31T10:43:19Z</time>
      </trkpt>
      <trkpt lat="46.00096" lon="4.86474">
        <ele>274</ele>
        <time>2018-10-31T10:43:20Z</time>
      </trkpt>
      <trkpt lat="46.00096" lon="4.86482">
        <ele>274</ele>
        <time>2018-10-31T10:43:21Z</time>
      </trkpt>
      <trkpt lat="46.00098" lon="4.86493">
        <ele>274</ele>
        <time>2018-10-31T10:43:23Z</time>
      </trkpt>
      <trkpt lat="46.00099" lon="4.865">
        <ele>274</ele>
        <time>2018-10-31T10:43:24Z</time>
      </trkpt>
      <trkpt lat="46.00099" lon="4.86507">
        <ele>274</ele>
        <time>2018-10-31T10:43:25Z</time>
      </trkpt>
      <trkpt lat="46.00099" lon="4.86514">
        <ele>274</ele>
        <time>2018-10-31T10:43:26Z</time>
      </trkpt>
      <trkpt lat="46.00099" lon="4.86521">
        <ele>274</ele>
        <time>2018-10-31T10:43:27Z</time>
      </trkpt>
      <trkpt lat="46.001" lon="4.86527">
        <ele>274</ele>
        <time>2018-10-31T10:43:28Z</time>
      </trkpt>
      <trkpt lat="46.001" lon="4.86534">
        <ele>275</ele>
        <time>2018-10-31T10:43:29Z</time>
      </trkpt>
      <trkpt lat="46.00101" lon="4.86541">
        <ele>275</ele>
        <time>2018-10-31T10:43:30Z</time>
      </trkpt>
      <trkpt lat="46.00101" lon="4.86548">
        <ele>275</ele>
        <time>2018-10-31T10:43:31Z</time>
      </trkpt>
      <trkpt lat="46.00102" lon="4.86555">
        <ele>275</ele>
        <time>2018-10-31T10:43:32Z</time>
      </trkpt>
      <trkpt lat="46.00102" lon="4.86562">
        <ele>275</ele>
        <time>2018-10-31T10:43:33Z</time>
      </trkpt>
      <trkpt lat="46.00102" lon="4.86569">
        <ele>275</ele>
        <time>2018-10-31T10:43:34Z</time>
      </trkpt>
      <trkpt lat="46.00102" lon="4.86578">
        <ele>275</ele>
        <time>2018-10-31T10:43:35Z</time>
      </trkpt>
      <trkpt lat="46.00102" lon="4.86586">
        <ele>275</ele>
        <time>2018-10-31T10:43:36Z</time>
      </trkpt>
      <trkpt lat="46.00102" lon="4.86593">
        <ele>275</ele>
        <time>2018-10-31T10:43:37Z</time>
      </trkpt>
      <trkpt lat="46.00103" lon="4.866">
        <ele>275</ele>
        <time>2018-10-31T10:43:38Z</time>
      </trkpt>
      <trkpt lat="46.00102" lon="4.86607">
        <ele>275</ele>
        <time>2018-10-31T10:43:39Z</time>
      </trkpt>
      <trkpt lat="46.00102" lon="4.86615">
        <ele>275</ele>
        <time>2018-10-31T10:43:40Z</time>
      </trkpt>
      <trkpt lat="46.00104" lon="4.86621">
        <ele>275</ele>
        <time>2018-10-31T10:43:41Z</time>
      </trkpt>
      <trkpt lat="46.00105" lon="4.86629">
        <ele>275</ele>
        <time>2018-10-31T10:43:42Z</time>
      </trkpt>
      <trkpt lat="46.00105" lon="4.86637">
        <ele>275</ele>
        <time>2018-10-31T10:43:43Z</time>
      </trkpt>
      <trkpt lat="46.00105" lon="4.86645">
        <ele>275</ele>
        <time>2018-10-31T10:43:44Z</time>
      </trkpt>
      <trkpt lat="46.00105" lon="4.86653">
        <ele>275</ele>
        <time>2018-10-31T10:43:45Z</time>
      </trkpt>
      <trkpt lat="46.00105" lon="4.86661">
        <ele>275</ele>
        <time>2018-10-31T10:43:46Z</time>
      </trkpt>
      <trkpt lat="46.00106" lon="4.86668">
        <ele>276</ele>
        <time>2018-10-31T10:43:47Z</time>
      </trkpt>
      <trkpt lat="46.00106" lon="4.86676">
        <ele>276</ele>
        <time>2018-10-31T10:43:48Z</time>
      </trkpt>
      <trkpt lat="46.00107" lon="4.86683">
        <ele>276</ele>
        <time>2018-10-31T10:43:49Z</time>
      </trkpt>
      <trkpt lat="46.00108" lon="4.86691">
        <ele>276</ele>
        <time>2018-10-31T10:43:50Z</time>
      </trkpt>
      <trkpt lat="46.00108" lon="4.86697">
        <ele>276</ele>
        <time>2018-10-31T10:43:51Z</time>
      </trkpt>
      <trkpt lat="46.00109" lon="4.86705">
        <ele>277</ele>
        <time>2018-10-31T10:43:52Z</time>
      </trkpt>
      <trkpt lat="46.00109" lon="4.86712">
        <ele>277</ele>
        <time>2018-10-31T10:43:53Z</time>
      </trkpt>
      <trkpt lat="46.00109" lon="4.86719">
        <ele>277</ele>
        <time>2018-10-31T10:43:54Z</time>
      </trkpt>
      <trkpt lat="46.0011" lon="4.86727">
        <ele>277</ele>
        <time>2018-10-31T10:43:55Z</time>
      </trkpt>
      <trkpt lat="46.00109" lon="4.86734">
        <ele>277</ele>
        <time>2018-10-31T10:43:56Z</time>
      </trkpt>
      <trkpt lat="46.0011" lon="4.86742">
        <ele>277</ele>
        <time>2018-10-31T10:43:57Z</time>
      </trkpt>
      <trkpt lat="46.0011" lon="4.86749">
        <ele>277</ele>
        <time>2018-10-31T10:43:58Z</time>
      </trkpt>
      <trkpt lat="46.0011" lon="4.86756">
        <ele>278</ele>
        <time>2018-10-31T10:43:59Z</time>
      </trkpt>
      <trkpt lat="46.0011" lon="4.86764">
        <ele>278</ele>
        <time>2018-10-31T10:44:00Z</time>
      </trkpt>
      <trkpt lat="46.0011" lon="4.86771">
        <ele>278</ele>
        <time>2018-10-31T10:44:01Z</time>
      </trkpt>
      <trkpt lat="46.00111" lon="4.8678">
        <ele>278</ele>
        <time>2018-10-31T10:44:02Z</time>
      </trkpt>
      <trkpt lat="46.00112" lon="4.86786">
        <ele>278</ele>
        <time>2018-10-31T10:44:03Z</time>
      </trkpt>
      <trkpt lat="46.00113" lon="4.86793">
        <ele>278</ele>
        <time>2018-10-31T10:44:04Z</time>
      </trkpt>
      <trkpt lat="46.00114" lon="4.86802">
        <ele>278</ele>
        <time>2018-10-31T10:44:05Z</time>
      </trkpt>
      <trkpt lat="46.00114" lon="4.86809">
        <ele>278</ele>
        <time>2018-10-31T10:44:06Z</time>
      </trkpt>
      <trkpt lat="46.00114" lon="4.86816">
        <ele>278</ele>
        <time>2018-10-31T10:44:07Z</time>
      </trkpt>
      <trkpt lat="46.00114" lon="4.86823">
        <ele>278</ele>
        <time>2018-10-31T10:44:08Z</time>
      </trkpt>
      <trkpt lat="46.00115" lon="4.86829">
        <ele>278</ele>
        <time>2018-10-31T10:44:09Z</time>
      </trkpt>
      <trkpt lat="46.00115" lon="4.86838">
        <ele>278</ele>
        <time>2018-10-31T10:44:10Z</time>
      </trkpt>
      <trkpt lat="46.00115" lon="4.86845">
        <ele>278</ele>
        <time>2018-10-31T10:44:11Z</time>
      </trkpt>
      <trkpt lat="46.00115" lon="4.86853">
        <ele>278</ele>
        <time>2018-10-31T10:44:12Z</time>
      </trkpt>
      <trkpt lat="46.00115" lon="4.86861">
        <ele>278</ele>
        <time>2018-10-31T10:44:13Z</time>
      </trkpt>
      <trkpt lat="46.00115" lon="4.86868">
        <ele>278</ele>
        <time>2018-10-31T10:44:14Z</time>
      </trkpt>
      <trkpt lat="46.00116" lon="4.86876">
        <ele>278</ele>
        <time>2018-10-31T10:44:15Z</time>
      </trkpt>
      <trkpt lat="46.00115" lon="4.86884">
        <ele>278</ele>
        <time>2018-10-31T10:44:16Z</time>
      </trkpt>
      <trkpt lat="46.00116" lon="4.86891">
        <ele>278</ele>
        <time>2018-10-31T10:44:17Z</time>
      </trkpt>
      <trkpt lat="46.00116" lon="4.869">
        <ele>278</ele>
        <time>2018-10-31T10:44:18Z</time>
      </trkpt>
      <trkpt lat="46.00116" lon="4.86909">
        <ele>278</ele>
        <time>2018-10-31T10:44:19Z</time>
      </trkpt>
      <trkpt lat="46.00116" lon="4.86917">
        <ele>278</ele>
        <time>2018-10-31T10:44:20Z</time>
      </trkpt>
      <trkpt lat="46.00116" lon="4.86925">
        <ele>278</ele>
        <time>2018-10-31T10:44:21Z</time>
      </trkpt>
      <trkpt lat="46.00116" lon="4.86933">
        <ele>278</ele>
        <time>2018-10-31T10:44:22Z</time>
      </trkpt>
      <trkpt lat="46.00116" lon="4.8694">
        <ele>278</ele>
        <time>2018-10-31T10:44:23Z</time>
      </trkpt>
      <trkpt lat="46.00116" lon="4.86948">
        <ele>278</ele>
        <time>2018-10-31T10:44:24Z</time>
      </trkpt>
      <trkpt lat="46.00115" lon="4.86956">
        <ele>278</ele>
        <time>2018-10-31T10:44:25Z</time>
      </trkpt>
      <trkpt lat="46.00116" lon="4.86964">
        <ele>278</ele>
        <time>2018-10-31T10:44:26Z</time>
      </trkpt>
      <trkpt lat="46.00117" lon="4.8697">
        <ele>278</ele>
        <time>2018-10-31T10:44:27Z</time>
      </trkpt>
      <trkpt lat="46.00117" lon="4.86977">
        <ele>278</ele>
        <time>2018-10-31T10:44:28Z</time>
      </trkpt>
      <trkpt lat="46.00116" lon="4.86984">
        <ele>278</ele>
        <time>2018-10-31T10:44:29Z</time>
      </trkpt>
      <trkpt lat="46.00116" lon="4.86991">
        <ele>278</ele>
        <time>2018-10-31T10:44:30Z</time>
      </trkpt>
      <trkpt lat="46.00116" lon="4.86998">
        <ele>278</ele>
        <time>2018-10-31T10:44:31Z</time>
      </trkpt>
      <trkpt lat="46.00116" lon="4.87005">
        <ele>278</ele>
        <time>2018-10-31T10:44:32Z</time>
      </trkpt>
      <trkpt lat="46.00115" lon="4.87017">
        <ele>278</ele>
        <time>2018-10-31T10:44:34Z</time>
      </trkpt>
      <trkpt lat="46.00115" lon="4.87024">
        <ele>278</ele>
        <time>2018-10-31T10:44:35Z</time>
      </trkpt>
      <trkpt lat="46.00114" lon="4.87031">
        <ele>278</ele>
        <time>2018-10-31T10:44:36Z</time>
      </trkpt>
      <trkpt lat="46.00114" lon="4.87038">
        <ele>278</ele>
        <time>2018-10-31T10:44:37Z</time>
      </trkpt>
      <trkpt lat="46.00114" lon="4.87045">
        <ele>278</ele>
        <time>2018-10-31T10:44:38Z</time>
      </trkpt>
      <trkpt lat="46.00114" lon="4.87052">
        <ele>278</ele>
        <time>2018-10-31T10:44:39Z</time>
      </trkpt>
      <trkpt lat="46.00114" lon="4.87059">
        <ele>278</ele>
        <time>2018-10-31T10:44:40Z</time>
      </trkpt>
      <trkpt lat="46.00114" lon="4.87066">
        <ele>278</ele>
        <time>2018-10-31T10:44:41Z</time>
      </trkpt>
      <trkpt lat="46.00114" lon="4.87074">
        <ele>278</ele>
        <time>2018-10-31T10:44:42Z</time>
      </trkpt>
      <trkpt lat="46.00114" lon="4.87081">
        <ele>278</ele>
        <time>2018-10-31T10:44:43Z</time>
      </trkpt>
      <trkpt lat="46.00114" lon="4.87088">
        <ele>279</ele>
        <time>2018-10-31T10:44:44Z</time>
      </trkpt>
      <trkpt lat="46.00114" lon="4.87096">
        <ele>279</ele>
        <time>2018-10-31T10:44:45Z</time>
      </trkpt>
      <trkpt lat="46.00113" lon="4.87103">
        <ele>279</ele>
        <time>2018-10-31T10:44:46Z</time>
      </trkpt>
      <trkpt lat="46.00112" lon="4.87109">
        <ele>279</ele>
        <time>2018-10-31T10:44:47Z</time>
      </trkpt>
      <trkpt lat="46.00112" lon="4.87117">
        <ele>279</ele>
        <time>2018-10-31T10:44:48Z</time>
      </trkpt>
      <trkpt lat="46.00112" lon="4.87124">
        <ele>279</ele>
        <time>2018-10-31T10:44:49Z</time>
      </trkpt>
      <trkpt lat="46.00112" lon="4.87132">
        <ele>279</ele>
        <time>2018-10-31T10:44:50Z</time>
      </trkpt>
      <trkpt lat="46.00112" lon="4.87139">
        <ele>279</ele>
        <time>2018-10-31T10:44:51Z</time>
      </trkpt>
      <trkpt lat="46.00112" lon="4.87147">
        <ele>279</ele>
        <time>2018-10-31T10:44:52Z</time>
      </trkpt>
      <trkpt lat="46.00111" lon="4.87155">
        <ele>279</ele>
        <time>2018-10-31T10:44:53Z</time>
      </trkpt>
      <trkpt lat="46.00111" lon="4.87163">
        <ele>279</ele>
        <time>2018-10-31T10:44:54Z</time>
      </trkpt>
      <trkpt lat="46.00111" lon="4.8717">
        <ele>280</ele>
        <time>2018-10-31T10:44:55Z</time>
      </trkpt>
      <trkpt lat="46.0011" lon="4.8718">
        <ele>280</ele>
        <time>2018-10-31T10:44:56Z</time>
      </trkpt>
      <trkpt lat="46.0011" lon="4.87188">
        <ele>280</ele>
        <time>2018-10-31T10:44:57Z</time>
      </trkpt>
      <trkpt lat="46.0011" lon="4.87195">
        <ele>280</ele>
        <time>2018-10-31T10:44:58Z</time>
      </trkpt>
      <trkpt lat="46.00111" lon="4.87203">
        <ele>280</ele>
        <time>2018-10-31T10:44:59Z</time>
      </trkpt>
      <trkpt lat="46.0011" lon="4.8721">
        <ele>280</ele>
        <time>2018-10-31T10:45:00Z</time>
      </trkpt>
      <trkpt lat="46.0011" lon="4.87218">
        <ele>280</ele>
        <time>2018-10-31T10:45:01Z</time>
      </trkpt>
      <trkpt lat="46.00109" lon="4.87226">
        <ele>280</ele>
        <time>2018-10-31T10:45:02Z</time>
      </trkpt>
      <trkpt lat="46.00109" lon="4.87232">
        <ele>280</ele>
        <time>2018-10-31T10:45:03Z</time>
      </trkpt>
      <trkpt lat="46.00109" lon="4.8724">
        <ele>279</ele>
        <time>2018-10-31T10:45:04Z</time>
      </trkpt>
      <trkpt lat="46.00109" lon="4.87247">
        <ele>279</ele>
        <time>2018-10-31T10:45:05Z</time>
      </trkpt>
      <trkpt lat="46.00108" lon="4.87255">
        <ele>279</ele>
        <time>2018-10-31T10:45:06Z</time>
      </trkpt>
      <trkpt lat="46.00108" lon="4.87262">
        <ele>279</ele>
        <time>2018-10-31T10:45:07Z</time>
      </trkpt>
      <trkpt lat="46.00108" lon="4.87271">
        <ele>279</ele>
        <time>2018-10-31T10:45:08Z</time>
      </trkpt>
      <trkpt lat="46.00108" lon="4.87278">
        <ele>279</ele>
        <time>2018-10-31T10:45:09Z</time>
      </trkpt>
      <trkpt lat="46.00108" lon="4.87285">
        <ele>279</ele>
        <time>2018-10-31T10:45:10Z</time>
      </trkpt>
      <trkpt lat="46.00108" lon="4.87293">
        <ele>279</ele>
        <time>2018-10-31T10:45:11Z</time>
      </trkpt>
      <trkpt lat="46.00108" lon="4.873">
        <ele>279</ele>
        <time>2018-10-31T10:45:12Z</time>
      </trkpt>
      <trkpt lat="46.00108" lon="4.87308">
        <ele>279</ele>
        <time>2018-10-31T10:45:13Z</time>
      </trkpt>
      <trkpt lat="46.00108" lon="4.87315">
        <ele>279</ele>
        <time>2018-10-31T10:45:14Z</time>
      </trkpt>
      <trkpt lat="46.00108" lon="4.87322">
        <ele>279</ele>
        <time>2018-10-31T10:45:15Z</time>
      </trkpt>
      <trkpt lat="46.00108" lon="4.87329">
        <ele>279</ele>
        <time>2018-10-31T10:45:16Z</time>
      </trkpt>
      <trkpt lat="46.00107" lon="4.87336">
        <ele>279</ele>
        <time>2018-10-31T10:45:17Z</time>
      </trkpt>
      <trkpt lat="46.00107" lon="4.87343">
        <ele>279</ele>
        <time>2018-10-31T10:45:18Z</time>
      </trkpt>
      <trkpt lat="46.00107" lon="4.87351">
        <ele>279</ele>
        <time>2018-10-31T10:45:19Z</time>
      </trkpt>
      <trkpt lat="46.00107" lon="4.87357">
        <ele>279</ele>
        <time>2018-10-31T10:45:20Z</time>
      </trkpt>
      <trkpt lat="46.00107" lon="4.87365">
        <ele>279</ele>
        <time>2018-10-31T10:45:21Z</time>
      </trkpt>
      <trkpt lat="46.00106" lon="4.87372">
        <ele>279</ele>
        <time>2018-10-31T10:45:22Z</time>
      </trkpt>
      <trkpt lat="46.00109" lon="4.87379">
        <ele>279</ele>
        <time>2018-10-31T10:45:23Z</time>
      </trkpt>
      <trkpt lat="46.00108" lon="4.87385">
        <ele>279</ele>
        <time>2018-10-31T10:45:24Z</time>
      </trkpt>
      <trkpt lat="46.00108" lon="4.87393">
        <ele>279</ele>
        <time>2018-10-31T10:45:25Z</time>
      </trkpt>
      <trkpt lat="46.00108" lon="4.87399">
        <ele>279</ele>
        <time>2018-10-31T10:45:26Z</time>
      </trkpt>
      <trkpt lat="46.00107" lon="4.87407">
        <ele>279</ele>
        <time>2018-10-31T10:45:27Z</time>
      </trkpt>
      <trkpt lat="46.00107" lon="4.87415">
        <ele>279</ele>
        <time>2018-10-31T10:45:28Z</time>
      </trkpt>
      <trkpt lat="46.00107" lon="4.87421">
        <ele>280</ele>
        <time>2018-10-31T10:45:29Z</time>
      </trkpt>
      <trkpt lat="46.00107" lon="4.87427">
        <ele>280</ele>
        <time>2018-10-31T10:45:30Z</time>
      </trkpt>
      <trkpt lat="46.00107" lon="4.87434">
        <ele>280</ele>
        <time>2018-10-31T10:45:31Z</time>
      </trkpt>
      <trkpt lat="46.00107" lon="4.87442">
        <ele>280</ele>
        <time>2018-10-31T10:45:32Z</time>
      </trkpt>
      <trkpt lat="46.00107" lon="4.87449">
        <ele>280</ele>
        <time>2018-10-31T10:45:33Z</time>
      </trkpt>
      <trkpt lat="46.00107" lon="4.87457">
        <ele>280</ele>
        <time>2018-10-31T10:45:34Z</time>
      </trkpt>
      <trkpt lat="46.00107" lon="4.87464">
        <ele>280</ele>
        <time>2018-10-31T10:45:35Z</time>
      </trkpt>
      <trkpt lat="46.00107" lon="4.87471">
        <ele>280</ele>
        <time>2018-10-31T10:45:36Z</time>
      </trkpt>
      <trkpt lat="46.00106" lon="4.87478">
        <ele>280</ele>
        <time>2018-10-31T10:45:37Z</time>
      </trkpt>
      <trkpt lat="46.00106" lon="4.87485">
        <ele>280</ele>
        <time>2018-10-31T10:45:38Z</time>
      </trkpt>
      <trkpt lat="46.00106" lon="4.87492">
        <ele>280</ele>
        <time>2018-10-31T10:45:39Z</time>
      </trkpt>
      <trkpt lat="46.00106" lon="4.87499">
        <ele>280</ele>
        <time>2018-10-31T10:45:40Z</time>
      </trkpt>
      <trkpt lat="46.00104" lon="4.87508">
        <ele>281</ele>
        <time>2018-10-31T10:45:41Z</time>
      </trkpt>
      <trkpt lat="46.00104" lon="4.87515">
        <ele>281</ele>
        <time>2018-10-31T10:45:42Z</time>
      </trkpt>
      <trkpt lat="46.00103" lon="4.87522">
        <ele>281</ele>
        <time>2018-10-31T10:45:43Z</time>
      </trkpt>
      <trkpt lat="46.00103" lon="4.87529">
        <ele>281</ele>
        <time>2018-10-31T10:45:44Z</time>
      </trkpt>
      <trkpt lat="46.00103" lon="4.87537">
        <ele>281</ele>
        <time>2018-10-31T10:45:45Z</time>
      </trkpt>
      <trkpt lat="46.00103" lon="4.87544">
        <ele>281</ele>
        <time>2018-10-31T10:45:46Z</time>
      </trkpt>
      <trkpt lat="46.00102" lon="4.87551">
        <ele>281</ele>
        <time>2018-10-31T10:45:47Z</time>
      </trkpt>
      <trkpt lat="46.00102" lon="4.87558">
        <ele>281</ele>
        <time>2018-10-31T10:45:48Z</time>
      </trkpt>
      <trkpt lat="46.00102" lon="4.87565">
        <ele>281</ele>
        <time>2018-10-31T10:45:49Z</time>
      </trkpt>
      <trkpt lat="46.00101" lon="4.87572">
        <ele>281</ele>
        <time>2018-10-31T10:45:50Z</time>
      </trkpt>
      <trkpt lat="46.00101" lon="4.87579">
        <ele>281</ele>
        <time>2018-10-31T10:45:51Z</time>
      </trkpt>
      <trkpt lat="46.00102" lon="4.87586">
        <ele>281</ele>
        <time>2018-10-31T10:45:52Z</time>
      </trkpt>
      <trkpt lat="46.00101" lon="4.87593">
        <ele>281</ele>
        <time>2018-10-31T10:45:53Z</time>
      </trkpt>
      <trkpt lat="46.00101" lon="4.876">
        <ele>281</ele>
        <time>2018-10-31T10:45:54Z</time>
      </trkpt>
      <trkpt lat="46.00101" lon="4.87607">
        <ele>281</ele>
        <time>2018-10-31T10:45:55Z</time>
      </trkpt>
      <trkpt lat="46.00101" lon="4.87614">
        <ele>282</ele>
        <time>2018-10-31T10:45:56Z</time>
      </trkpt>
      <trkpt lat="46.00101" lon="4.87622">
        <ele>282</ele>
        <time>2018-10-31T10:45:57Z</time>
      </trkpt>
      <trkpt lat="46.001" lon="4.87629">
        <ele>282</ele>
        <time>2018-10-31T10:45:58Z</time>
      </trkpt>
      <trkpt lat="46.001" lon="4.87636">
        <ele>282</ele>
        <time>2018-10-31T10:45:59Z</time>
      </trkpt>
      <trkpt lat="46.001" lon="4.87643">
        <ele>282</ele>
        <time>2018-10-31T10:46:00Z</time>
      </trkpt>
      <trkpt lat="46.001" lon="4.8765">
        <ele>282</ele>
        <time>2018-10-31T10:46:01Z</time>
      </trkpt>
      <trkpt lat="46.00099" lon="4.87658">
        <ele>282</ele>
        <time>2018-10-31T10:46:02Z</time>
      </trkpt>
      <trkpt lat="46.00099" lon="4.87665">
        <ele>282</ele>
        <time>2018-10-31T10:46:03Z</time>
      </trkpt>
      <trkpt lat="46.00099" lon="4.87672">
        <ele>283</ele>
        <time>2018-10-31T10:46:04Z</time>
      </trkpt>
      <trkpt lat="46.00099" lon="4.8768">
        <ele>283</ele>
        <time>2018-10-31T10:46:05Z</time>
      </trkpt>
      <trkpt lat="46.00099" lon="4.87688">
        <ele>283</ele>
        <time>2018-10-31T10:46:06Z</time>
      </trkpt>
      <trkpt lat="46.00098" lon="4.87696">
        <ele>283</ele>
        <time>2018-10-31T10:46:07Z</time>
      </trkpt>
      <trkpt lat="46.00097" lon="4.87703">
        <ele>283</ele>
        <time>2018-10-31T10:46:08Z</time>
      </trkpt>
      <trkpt lat="46.00099" lon="4.87712">
        <ele>283</ele>
        <time>2018-10-31T10:46:09Z</time>
      </trkpt>
      <trkpt lat="46.00099" lon="4.87719">
        <ele>283</ele>
        <time>2018-10-31T10:46:10Z</time>
      </trkpt>
      <trkpt lat="46.00099" lon="4.87727">
        <ele>283</ele>
        <time>2018-10-31T10:46:11Z</time>
      </trkpt>
      <trkpt lat="46.001" lon="4.87734">
        <ele>283</ele>
        <time>2018-10-31T10:46:12Z</time>
      </trkpt>
      <trkpt lat="46.00099" lon="4.87742">
        <ele>283</ele>
        <time>2018-10-31T10:46:13Z</time>
      </trkpt>
      <trkpt lat="46.00098" lon="4.87749">
        <ele>283</ele>
        <time>2018-10-31T10:46:14Z</time>
      </trkpt>
      <trkpt lat="46.00099" lon="4.87756">
        <ele>283</ele>
        <time>2018-10-31T10:46:15Z</time>
      </trkpt>
      <trkpt lat="46.00101" lon="4.87763">
        <ele>283</ele>
        <time>2018-10-31T10:46:16Z</time>
      </trkpt>
      <trkpt lat="46.001" lon="4.87771">
        <ele>283</ele>
        <time>2018-10-31T10:46:17Z</time>
      </trkpt>
      <trkpt lat="46.00099" lon="4.8778">
        <ele>283</ele>
        <time>2018-10-31T10:46:18Z</time>
      </trkpt>
      <trkpt lat="46.00098" lon="4.87787">
        <ele>283</ele>
        <time>2018-10-31T10:46:19Z</time>
      </trkpt>
      <trkpt lat="46.00098" lon="4.87795">
        <ele>283</ele>
        <time>2018-10-31T10:46:20Z</time>
      </trkpt>
      <trkpt lat="46.00097" lon="4.87802">
        <ele>283</ele>
        <time>2018-10-31T10:46:21Z</time>
      </trkpt>
      <trkpt lat="46.00097" lon="4.8781">
        <ele>283</ele>
        <time>2018-10-31T10:46:22Z</time>
      </trkpt>
      <trkpt lat="46.00097" lon="4.87816">
        <ele>283</ele>
        <time>2018-10-31T10:46:23Z</time>
      </trkpt>
      <trkpt lat="46.00097" lon="4.87823">
        <ele>283</ele>
        <time>2018-10-31T10:46:24Z</time>
      </trkpt>
      <trkpt lat="46.00097" lon="4.8783">
        <ele>283</ele>
        <time>2018-10-31T10:46:25Z</time>
      </trkpt>
      <trkpt lat="46.00097" lon="4.87837">
        <ele>283</ele>
        <time>2018-10-31T10:46:26Z</time>
      </trkpt>
      <trkpt lat="46.00097" lon="4.87843">
        <ele>283</ele>
        <time>2018-10-31T10:46:27Z</time>
      </trkpt>
      <trkpt lat="46.00097" lon="4.87851">
        <ele>283</ele>
        <time>2018-10-31T10:46:28Z</time>
      </trkpt>
      <trkpt lat="46.00096" lon="4.87859">
        <ele>283</ele>
        <time>2018-10-31T10:46:29Z</time>
      </trkpt>
      <trkpt lat="46.00096" lon="4.87866">
        <ele>283</ele>
        <time>2018-10-31T10:46:30Z</time>
      </trkpt>
      <trkpt lat="46.00095" lon="4.87873">
        <ele>283</ele>
        <time>2018-10-31T10:46:31Z</time>
      </trkpt>
      <trkpt lat="46.00095" lon="4.87881">
        <ele>283</ele>
        <time>2018-10-31T10:46:32Z</time>
      </trkpt>
      <trkpt lat="46.00094" lon="4.87889">
        <ele>283</ele>
        <time>2018-10-31T10:46:33Z</time>
      </trkpt>
      <trkpt lat="46.00095" lon="4.87898">
        <ele>283</ele>
        <time>2018-10-31T10:46:34Z</time>
      </trkpt>
      <trkpt lat="46.00096" lon="4.87904">
        <ele>283</ele>
        <time>2018-10-31T10:46:35Z</time>
      </trkpt>
      <trkpt lat="46.00095" lon="4.87913">
        <ele>283</ele>
        <time>2018-10-31T10:46:36Z</time>
      </trkpt>
      <trkpt lat="46.00094" lon="4.8792">
        <ele>284</ele>
        <time>2018-10-31T10:46:37Z</time>
      </trkpt>
      <trkpt lat="46.00093" lon="4.87929">
        <ele>284</ele>
        <time>2018-10-31T10:46:38Z</time>
      </trkpt>
      <trkpt lat="46.00093" lon="4.87937">
        <ele>284</ele>
        <time>2018-10-31T10:46:39Z</time>
      </trkpt>
      <trkpt lat="46.00093" lon="4.87945">
        <ele>284</ele>
        <time>2018-10-31T10:46:40Z</time>
      </trkpt>
      <trkpt lat="46.00092" lon="4.87953">
        <ele>284</ele>
        <time>2018-10-31T10:46:41Z</time>
      </trkpt>
      <trkpt lat="46.00092" lon="4.8796">
        <ele>284</ele>
        <time>2018-10-31T10:46:42Z</time>
      </trkpt>
      <trkpt lat="46.00092" lon="4.87967">
        <ele>284</ele>
        <time>2018-10-31T10:46:43Z</time>
      </trkpt>
      <trkpt lat="46.00092" lon="4.87975">
        <ele>284</ele>
        <time>2018-10-31T10:46:44Z</time>
      </trkpt>
      <trkpt lat="46.00091" lon="4.87983">
        <ele>284</ele>
        <time>2018-10-31T10:46:45Z</time>
      </trkpt>
      <trkpt lat="46.00091" lon="4.87992">
        <ele>284</ele>
        <time>2018-10-31T10:46:46Z</time>
      </trkpt>
      <trkpt lat="46.00091" lon="4.87999">
        <ele>285</ele>
        <time>2018-10-31T10:46:47Z</time>
      </trkpt>
      <trkpt lat="46.00091" lon="4.88007">
        <ele>285</ele>
        <time>2018-10-31T10:46:48Z</time>
      </trkpt>
      <trkpt lat="46.0009" lon="4.88015">
        <ele>285</ele>
        <time>2018-10-31T10:46:49Z</time>
      </trkpt>
      <trkpt lat="46.00089" lon="4.88022">
        <ele>286</ele>
        <time>2018-10-31T10:46:50Z</time>
      </trkpt>
      <trkpt lat="46.00088" lon="4.88029">
        <ele>286</ele>
        <time>2018-10-31T10:46:51Z</time>
      </trkpt>
      <trkpt lat="46.00087" lon="4.88037">
        <ele>286</ele>
        <time>2018-10-31T10:46:52Z</time>
      </trkpt>
      <trkpt lat="46.00086" lon="4.88045">
        <ele>286</ele>
        <time>2018-10-31T10:46:53Z</time>
      </trkpt>
      <trkpt lat="46.00085" lon="4.88053">
        <ele>286</ele>
        <time>2018-10-31T10:46:54Z</time>
      </trkpt>
      <trkpt lat="46.00085" lon="4.88062">
        <ele>287</ele>
        <time>2018-10-31T10:46:55Z</time>
      </trkpt>
      <trkpt lat="46.00084" lon="4.88069">
        <ele>287</ele>
        <time>2018-10-31T10:46:56Z</time>
      </trkpt>
      <trkpt lat="46.00083" lon="4.88076">
        <ele>287</ele>
        <time>2018-10-31T10:46:57Z</time>
      </trkpt>
      <trkpt lat="46.00082" lon="4.88083">
        <ele>288</ele>
        <time>2018-10-31T10:46:58Z</time>
      </trkpt>
      <trkpt lat="46.00081" lon="4.88091">
        <ele>288</ele>
        <time>2018-10-31T10:46:59Z</time>
      </trkpt>
      <trkpt lat="46.00079" lon="4.88098">
        <ele>288</ele>
        <time>2018-10-31T10:47:00Z</time>
      </trkpt>
      <trkpt lat="46.00078" lon="4.88105">
        <ele>288</ele>
        <time>2018-10-31T10:47:01Z</time>
      </trkpt>
      <trkpt lat="46.00077" lon="4.88112">
        <ele>288</ele>
        <time>2018-10-31T10:47:02Z</time>
      </trkpt>
      <trkpt lat="46.00076" lon="4.88119">
        <ele>288</ele>
        <time>2018-10-31T10:47:03Z</time>
      </trkpt>
      <trkpt lat="46.00075" lon="4.88126">
        <ele>288</ele>
        <time>2018-10-31T10:47:04Z</time>
      </trkpt>
      <trkpt lat="46.00074" lon="4.88134">
        <ele>288</ele>
        <time>2018-10-31T10:47:05Z</time>
      </trkpt>
      <trkpt lat="46.00072" lon="4.88142">
        <ele>288</ele>
        <time>2018-10-31T10:47:06Z</time>
      </trkpt>
      <trkpt lat="46.00071" lon="4.88149">
        <ele>288</ele>
        <time>2018-10-31T10:47:07Z</time>
      </trkpt>
      <trkpt lat="46.0007" lon="4.88156">
        <ele>289</ele>
        <time>2018-10-31T10:47:08Z</time>
      </trkpt>
      <trkpt lat="46.00069" lon="4.88163">
        <ele>289</ele>
        <time>2018-10-31T10:47:09Z</time>
      </trkpt>
      <trkpt lat="46.00068" lon="4.8817">
        <ele>289</ele>
        <time>2018-10-31T10:47:10Z</time>
      </trkpt>
      <trkpt lat="46.00068" lon="4.88178">
        <ele>288</ele>
        <time>2018-10-31T10:47:11Z</time>
      </trkpt>
      <trkpt lat="46.00067" lon="4.88186">
        <ele>288</ele>
        <time>2018-10-31T10:47:12Z</time>
      </trkpt>
      <trkpt lat="46.00065" lon="4.88193">
        <ele>288</ele>
        <time>2018-10-31T10:47:13Z</time>
      </trkpt>
      <trkpt lat="46.00064" lon="4.88201">
        <ele>288</ele>
        <time>2018-10-31T10:47:14Z</time>
      </trkpt>
      <trkpt lat="46.00063" lon="4.88209">
        <ele>287</ele>
        <time>2018-10-31T10:47:15Z</time>
      </trkpt>
      <trkpt lat="46.00063" lon="4.88216">
        <ele>287</ele>
        <time>2018-10-31T10:47:16Z</time>
      </trkpt>
      <trkpt lat="46.00061" lon="4.88223">
        <ele>287</ele>
        <time>2018-10-31T10:47:17Z</time>
      </trkpt>
      <trkpt lat="46.00061" lon="4.88231">
        <ele>287</ele>
        <time>2018-10-31T10:47:18Z</time>
      </trkpt>
      <trkpt lat="46.0006" lon="4.88239">
        <ele>287</ele>
        <time>2018-10-31T10:47:19Z</time>
      </trkpt>
      <trkpt lat="46.0006" lon="4.88246">
        <ele>287</ele>
        <time>2018-10-31T10:47:20Z</time>
      </trkpt>
      <trkpt lat="46.0006" lon="4.88252">
        <ele>287</ele>
        <time>2018-10-31T10:47:21Z</time>
      </trkpt>
      <trkpt lat="46.0006" lon="4.8826">
        <ele>287</ele>
        <time>2018-10-31T10:47:22Z</time>
      </trkpt>
      <trkpt lat="46.0006" lon="4.88268">
        <ele>287</ele>
        <time>2018-10-31T10:47:23Z</time>
      </trkpt>
      <trkpt lat="46.00059" lon="4.88275">
        <ele>287</ele>
        <time>2018-10-31T10:47:24Z</time>
      </trkpt>
      <trkpt lat="46.00059" lon="4.88283">
        <ele>287</ele>
        <time>2018-10-31T10:47:25Z</time>
      </trkpt>
      <trkpt lat="46.00059" lon="4.88292">
        <ele>286</ele>
        <time>2018-10-31T10:47:26Z</time>
      </trkpt>
      <trkpt lat="46.00058" lon="4.883">
        <ele>286</ele>
        <time>2018-10-31T10:47:27Z</time>
      </trkpt>
      <trkpt lat="46.00058" lon="4.88307">
        <ele>286</ele>
        <time>2018-10-31T10:47:28Z</time>
      </trkpt>
      <trkpt lat="46.00058" lon="4.88315">
        <ele>287</ele>
        <time>2018-10-31T10:47:29Z</time>
      </trkpt>
      <trkpt lat="46.00057" lon="4.88323">
        <ele>287</ele>
        <time>2018-10-31T10:47:30Z</time>
      </trkpt>
      <trkpt lat="46.00056" lon="4.8833">
        <ele>287</ele>
        <time>2018-10-31T10:47:31Z</time>
      </trkpt>
      <trkpt lat="46.00055" lon="4.88338">
        <ele>287</ele>
        <time>2018-10-31T10:47:32Z</time>
      </trkpt>
      <trkpt lat="46.00056" lon="4.88346">
        <ele>287</ele>
        <time>2018-10-31T10:47:33Z</time>
      </trkpt>
      <trkpt lat="46.00055" lon="4.88354">
        <ele>287</ele>
        <time>2018-10-31T10:47:34Z</time>
      </trkpt>
      <trkpt lat="46.00054" lon="4.88362">
        <ele>287</ele>
        <time>2018-10-31T10:47:35Z</time>
      </trkpt>
      <trkpt lat="46.00054" lon="4.88369">
        <ele>287</ele>
        <time>2018-10-31T10:47:36Z</time>
      </trkpt>
      <trkpt lat="46.00053" lon="4.88378">
        <ele>287</ele>
        <time>2018-10-31T10:47:37Z</time>
      </trkpt>
      <trkpt lat="46.00052" lon="4.88386">
        <ele>287</ele>
        <time>2018-10-31T10:47:38Z</time>
      </trkpt>
      <trkpt lat="46.00051" lon="4.88393">
        <ele>287</ele>
        <time>2018-10-31T10:47:39Z</time>
      </trkpt>
      <trkpt lat="46.00051" lon="4.88401">
        <ele>287</ele>
        <time>2018-10-31T10:47:40Z</time>
      </trkpt>
      <trkpt lat="46.00051" lon="4.88408">
        <ele>287</ele>
        <time>2018-10-31T10:47:41Z</time>
      </trkpt>
      <trkpt lat="46.00049" lon="4.88416">
        <ele>287</ele>
        <time>2018-10-31T10:47:42Z</time>
      </trkpt>
      <trkpt lat="46.00048" lon="4.88424">
        <ele>287</ele>
        <time>2018-10-31T10:47:43Z</time>
      </trkpt>
      <trkpt lat="46.00047" lon="4.88432">
        <ele>287</ele>
        <time>2018-10-31T10:47:44Z</time>
      </trkpt>
      <trkpt lat="46.00047" lon="4.88438">
        <ele>287</ele>
        <time>2018-10-31T10:47:45Z</time>
      </trkpt>
      <trkpt lat="46.00046" lon="4.88445">
        <ele>287</ele>
        <time>2018-10-31T10:47:46Z</time>
      </trkpt>
      <trkpt lat="46.00046" lon="4.88453">
        <ele>287</ele>
        <time>2018-10-31T10:47:47Z</time>
      </trkpt>
      <trkpt lat="46.00045" lon="4.8846">
        <ele>287</ele>
        <time>2018-10-31T10:47:48Z</time>
      </trkpt>
      <trkpt lat="46.00044" lon="4.88469">
        <ele>287</ele>
        <time>2018-10-31T10:47:49Z</time>
      </trkpt>
      <trkpt lat="46.00043" lon="4.88477">
        <ele>287</ele>
        <time>2018-10-31T10:47:50Z</time>
      </trkpt>
      <trkpt lat="46.00042" lon="4.88483">
        <ele>287</ele>
        <time>2018-10-31T10:47:51Z</time>
      </trkpt>
      <trkpt lat="46.00041" lon="4.88491">
        <ele>287</ele>
        <time>2018-10-31T10:47:52Z</time>
      </trkpt>
      <trkpt lat="46.0004" lon="4.88499">
        <ele>287</ele>
        <time>2018-10-31T10:47:53Z</time>
      </trkpt>
      <trkpt lat="46.00039" lon="4.88506">
        <ele>287</ele>
        <time>2018-10-31T10:47:54Z</time>
      </trkpt>
      <trkpt lat="46.00037" lon="4.88514">
        <ele>287</ele>
        <time>2018-10-31T10:47:55Z</time>
      </trkpt>
      <trkpt lat="46.00037" lon="4.88521">
        <ele>287</ele>
        <time>2018-10-31T10:47:56Z</time>
      </trkpt>
      <trkpt lat="46.00036" lon="4.88529">
        <ele>287</ele>
        <time>2018-10-31T10:47:57Z</time>
      </trkpt>
      <trkpt lat="46.00036" lon="4.88536">
        <ele>287</ele>
        <time>2018-10-31T10:47:58Z</time>
      </trkpt>
      <trkpt lat="46.00035" lon="4.88544">
        <ele>287</ele>
        <time>2018-10-31T10:47:59Z</time>
      </trkpt>
      <trkpt lat="46.00035" lon="4.88551">
        <ele>287</ele>
        <time>2018-10-31T10:48:00Z</time>
      </trkpt>
      <trkpt lat="46.00034" lon="4.88558">
        <ele>287</ele>
        <time>2018-10-31T10:48:01Z</time>
      </trkpt>
      <trkpt lat="46.00033" lon="4.88566">
        <ele>287</ele>
        <time>2018-10-31T10:48:02Z</time>
      </trkpt>
      <trkpt lat="46.00032" lon="4.88574">
        <ele>287</ele>
        <time>2018-10-31T10:48:03Z</time>
      </trkpt>
      <trkpt lat="46.00032" lon="4.88582">
        <ele>287</ele>
        <time>2018-10-31T10:48:04Z</time>
      </trkpt>
      <trkpt lat="46.00031" lon="4.88589">
        <ele>286</ele>
        <time>2018-10-31T10:48:05Z</time>
      </trkpt>
      <trkpt lat="46.0003" lon="4.88597">
        <ele>286</ele>
        <time>2018-10-31T10:48:06Z</time>
      </trkpt>
      <trkpt lat="46.00029" lon="4.88603">
        <ele>286</ele>
        <time>2018-10-31T10:48:07Z</time>
      </trkpt>
      <trkpt lat="46.00028" lon="4.88611">
        <ele>286</ele>
        <time>2018-10-31T10:48:08Z</time>
      </trkpt>
      <trkpt lat="46.00028" lon="4.88618">
        <ele>286</ele>
        <time>2018-10-31T10:48:09Z</time>
      </trkpt>
      <trkpt lat="46.00027" lon="4.88625">
        <ele>286</ele>
        <time>2018-10-31T10:48:10Z</time>
      </trkpt>
      <trkpt lat="46.00026" lon="4.88632">
        <ele>286</ele>
        <time>2018-10-31T10:48:11Z</time>
      </trkpt>
      <trkpt lat="46.00025" lon="4.88639">
        <ele>286</ele>
        <time>2018-10-31T10:48:12Z</time>
      </trkpt>
      <trkpt lat="46.00024" lon="4.88646">
        <ele>286</ele>
        <time>2018-10-31T10:48:13Z</time>
      </trkpt>
      <trkpt lat="46.00023" lon="4.88654">
        <ele>286</ele>
        <time>2018-10-31T10:48:14Z</time>
      </trkpt>
      <trkpt lat="46.00023" lon="4.88662">
        <ele>286</ele>
        <time>2018-10-31T10:48:15Z</time>
      </trkpt>
      <trkpt lat="46.00021" lon="4.8867">
        <ele>286</ele>
        <time>2018-10-31T10:48:16Z</time>
      </trkpt>
      <trkpt lat="46.0002" lon="4.88677">
        <ele>286</ele>
        <time>2018-10-31T10:48:17Z</time>
      </trkpt>
      <trkpt lat="46.00019" lon="4.88686">
        <ele>286</ele>
        <time>2018-10-31T10:48:18Z</time>
      </trkpt>
      <trkpt lat="46.00019" lon="4.88693">
        <ele>286</ele>
        <time>2018-10-31T10:48:19Z</time>
      </trkpt>
      <trkpt lat="46.00019" lon="4.887">
        <ele>286</ele>
        <time>2018-10-31T10:48:20Z</time>
      </trkpt>
      <trkpt lat="46.00018" lon="4.88708">
        <ele>286</ele>
        <time>2018-10-31T10:48:21Z</time>
      </trkpt>
      <trkpt lat="46.00018" lon="4.88715">
        <ele>285</ele>
        <time>2018-10-31T10:48:22Z</time>
      </trkpt>
      <trkpt lat="46.00017" lon="4.88723">
        <ele>285</ele>
        <time>2018-10-31T10:48:23Z</time>
      </trkpt>
      <trkpt lat="46.00016" lon="4.88731">
        <ele>285</ele>
        <time>2018-10-31T10:48:24Z</time>
      </trkpt>
      <trkpt lat="46.00016" lon="4.88739">
        <ele>285</ele>
        <time>2018-10-31T10:48:25Z</time>
      </trkpt>
      <trkpt lat="46.00015" lon="4.88747">
        <ele>285</ele>
        <time>2018-10-31T10:48:26Z</time>
      </trkpt>
      <trkpt lat="46.00014" lon="4.88754">
        <ele>285</ele>
        <time>2018-10-31T10:48:27Z</time>
      </trkpt>
      <trkpt lat="46.00014" lon="4.88761">
        <ele>286</ele>
        <time>2018-10-31T10:48:28Z</time>
      </trkpt>
      <trkpt lat="46.00013" lon="4.88768">
        <ele>286</ele>
        <time>2018-10-31T10:48:29Z</time>
      </trkpt>
      <trkpt lat="46.00013" lon="4.88776">
        <ele>286</ele>
        <time>2018-10-31T10:48:30Z</time>
      </trkpt>
      <trkpt lat="46.00012" lon="4.88783">
        <ele>286</ele>
        <time>2018-10-31T10:48:31Z</time>
      </trkpt>
      <trkpt lat="46.00011" lon="4.88791">
        <ele>286</ele>
        <time>2018-10-31T10:48:32Z</time>
      </trkpt>
      <trkpt lat="46.0001" lon="4.88799">
        <ele>286</ele>
        <time>2018-10-31T10:48:33Z</time>
      </trkpt>
      <trkpt lat="46.00009" lon="4.88807">
        <ele>286</ele>
        <time>2018-10-31T10:48:34Z</time>
      </trkpt>
      <trkpt lat="46.00008" lon="4.88815">
        <ele>286</ele>
        <time>2018-10-31T10:48:35Z</time>
      </trkpt>
      <trkpt lat="46.00008" lon="4.88823">
        <ele>286</ele>
        <time>2018-10-31T10:48:36Z</time>
      </trkpt>
      <trkpt lat="46.00007" lon="4.8883">
        <ele>286</ele>
        <time>2018-10-31T10:48:37Z</time>
      </trkpt>
      <trkpt lat="46.00006" lon="4.88837">
        <ele>286</ele>
        <time>2018-10-31T10:48:38Z</time>
      </trkpt>
      <trkpt lat="46.00005" lon="4.88844">
        <ele>286</ele>
        <time>2018-10-31T10:48:39Z</time>
      </trkpt>
      <trkpt lat="46.00004" lon="4.88852">
        <ele>286</ele>
        <time>2018-10-31T10:48:40Z</time>
      </trkpt>
      <trkpt lat="46.00004" lon="4.8886">
        <ele>286</ele>
        <time>2018-10-31T10:48:41Z</time>
      </trkpt>
      <trkpt lat="46.00003" lon="4.88869">
        <ele>286</ele>
        <time>2018-10-31T10:48:42Z</time>
      </trkpt>
      <trkpt lat="46.00002" lon="4.88876">
        <ele>286</ele>
        <time>2018-10-31T10:48:43Z</time>
      </trkpt>
      <trkpt lat="46.00001" lon="4.88884">
        <ele>286</ele>
        <time>2018-10-31T10:48:44Z</time>
      </trkpt>
      <trkpt lat="46" lon="4.88892">
        <ele>285</ele>
        <time>2018-10-31T10:48:45Z</time>
      </trkpt>
      <trkpt lat="45.99999" lon="4.88898">
        <ele>285</ele>
        <time>2018-10-31T10:48:46Z</time>
      </trkpt>
      <trkpt lat="45.99999" lon="4.88905">
        <ele>285</ele>
        <time>2018-10-31T10:48:47Z</time>
      </trkpt>
      <trkpt lat="45.99998" lon="4.88913">
        <ele>285</ele>
        <time>2018-10-31T10:48:48Z</time>
      </trkpt>
      <trkpt lat="45.99997" lon="4.8892">
        <ele>285</ele>
        <time>2018-10-31T10:48:49Z</time>
      </trkpt>
      <trkpt lat="45.99997" lon="4.88928">
        <ele>285</ele>
        <time>2018-10-31T10:48:50Z</time>
      </trkpt>
      <trkpt lat="45.99996" lon="4.88935">
        <ele>286</ele>
        <time>2018-10-31T10:48:51Z</time>
      </trkpt>
      <trkpt lat="45.99995" lon="4.88944">
        <ele>286</ele>
        <time>2018-10-31T10:48:52Z</time>
      </trkpt>
      <trkpt lat="45.99994" lon="4.88952">
        <ele>286</ele>
        <time>2018-10-31T10:48:53Z</time>
      </trkpt>
      <trkpt lat="45.99993" lon="4.88959">
        <ele>286</ele>
        <time>2018-10-31T10:48:54Z</time>
      </trkpt>
      <trkpt lat="45.99992" lon="4.88967">
        <ele>286</ele>
        <time>2018-10-31T10:48:55Z</time>
      </trkpt>
      <trkpt lat="45.99991" lon="4.88974">
        <ele>286</ele>
        <time>2018-10-31T10:48:56Z</time>
      </trkpt>
      <trkpt lat="45.9999" lon="4.88982">
        <ele>286</ele>
        <time>2018-10-31T10:48:57Z</time>
      </trkpt>
      <trkpt lat="45.99988" lon="4.8899">
        <ele>286</ele>
        <time>2018-10-31T10:48:58Z</time>
      </trkpt>
      <trkpt lat="45.99989" lon="4.88999">
        <ele>286</ele>
        <time>2018-10-31T10:48:59Z</time>
      </trkpt>
      <trkpt lat="45.99988" lon="4.89007">
        <ele>286</ele>
        <time>2018-10-31T10:49:00Z</time>
      </trkpt>
      <trkpt lat="45.99987" lon="4.89016">
        <ele>286</ele>
        <time>2018-10-31T10:49:01Z</time>
      </trkpt>
      <trkpt lat="45.99986" lon="4.89024">
        <ele>286</ele>
        <time>2018-10-31T10:49:02Z</time>
      </trkpt>
      <trkpt lat="45.99985" lon="4.89032">
        <ele>287</ele>
        <time>2018-10-31T10:49:03Z</time>
      </trkpt>
      <trkpt lat="45.99984" lon="4.8904">
        <ele>287</ele>
        <time>2018-10-31T10:49:04Z</time>
      </trkpt>
      <trkpt lat="45.99983" lon="4.89049">
        <ele>287</ele>
        <time>2018-10-31T10:49:05Z</time>
      </trkpt>
      <trkpt lat="45.99983" lon="4.89057">
        <ele>287</ele>
        <time>2018-10-31T10:49:06Z</time>
      </trkpt>
      <trkpt lat="45.99981" lon="4.89064">
        <ele>287</ele>
        <time>2018-10-31T10:49:07Z</time>
      </trkpt>
      <trkpt lat="45.9998" lon="4.89072">
        <ele>286</ele>
        <time>2018-10-31T10:49:08Z</time>
      </trkpt>
      <trkpt lat="45.99979" lon="4.89079">
        <ele>286</ele>
        <time>2018-10-31T10:49:09Z</time>
      </trkpt>
      <trkpt lat="45.99979" lon="4.89087">
        <ele>287</ele>
        <time>2018-10-31T10:49:10Z</time>
      </trkpt>
      <trkpt lat="45.99978" lon="4.89094">
        <ele>287</ele>
        <time>2018-10-31T10:49:11Z</time>
      </trkpt>
      <trkpt lat="45.99977" lon="4.89102">
        <ele>287</ele>
        <time>2018-10-31T10:49:12Z</time>
      </trkpt>
      <trkpt lat="45.99976" lon="4.89109">
        <ele>287</ele>
        <time>2018-10-31T10:49:13Z</time>
      </trkpt>
      <trkpt lat="45.99975" lon="4.89116">
        <ele>287</ele>
        <time>2018-10-31T10:49:14Z</time>
      </trkpt>
      <trkpt lat="45.99974" lon="4.89125">
        <ele>287</ele>
        <time>2018-10-31T10:49:15Z</time>
      </trkpt>
      <trkpt lat="45.99974" lon="4.89132">
        <ele>287</ele>
        <time>2018-10-31T10:49:16Z</time>
      </trkpt>
      <trkpt lat="45.99973" lon="4.8914">
        <ele>288</ele>
        <time>2018-10-31T10:49:17Z</time>
      </trkpt>
      <trkpt lat="45.99973" lon="4.89148">
        <ele>288</ele>
        <time>2018-10-31T10:49:18Z</time>
      </trkpt>
      <trkpt lat="45.99972" lon="4.89156">
        <ele>288</ele>
        <time>2018-10-31T10:49:19Z</time>
      </trkpt>
      <trkpt lat="45.99971" lon="4.89165">
        <ele>288</ele>
        <time>2018-10-31T10:49:20Z</time>
      </trkpt>
      <trkpt lat="45.9997" lon="4.89172">
        <ele>288</ele>
        <time>2018-10-31T10:49:21Z</time>
      </trkpt>
      <trkpt lat="45.9997" lon="4.89179">
        <ele>288</ele>
        <time>2018-10-31T10:49:22Z</time>
      </trkpt>
      <trkpt lat="45.99968" lon="4.89187">
        <ele>288</ele>
        <time>2018-10-31T10:49:23Z</time>
      </trkpt>
      <trkpt lat="45.99967" lon="4.89195">
        <ele>288</ele>
        <time>2018-10-31T10:49:24Z</time>
      </trkpt>
      <trkpt lat="45.99966" lon="4.89203">
        <ele>288</ele>
        <time>2018-10-31T10:49:25Z</time>
      </trkpt>
      <trkpt lat="45.99966" lon="4.8921">
        <ele>289</ele>
        <time>2018-10-31T10:49:26Z</time>
      </trkpt>
      <trkpt lat="45.99965" lon="4.89218">
        <ele>289</ele>
        <time>2018-10-31T10:49:27Z</time>
      </trkpt>
      <trkpt lat="45.99964" lon="4.89226">
        <ele>289</ele>
        <time>2018-10-31T10:49:28Z</time>
      </trkpt>
      <trkpt lat="45.99963" lon="4.89234">
        <ele>289</ele>
        <time>2018-10-31T10:49:29Z</time>
      </trkpt>
      <trkpt lat="45.99963" lon="4.89243">
        <ele>289</ele>
        <time>2018-10-31T10:49:30Z</time>
      </trkpt>
      <trkpt lat="45.99962" lon="4.8925">
        <ele>289</ele>
        <time>2018-10-31T10:49:31Z</time>
      </trkpt>
      <trkpt lat="45.99961" lon="4.89258">
        <ele>289</ele>
        <time>2018-10-31T10:49:32Z</time>
      </trkpt>
      <trkpt lat="45.99958" lon="4.89266">
        <ele>289</ele>
        <time>2018-10-31T10:49:33Z</time>
      </trkpt>
      <trkpt lat="45.99957" lon="4.89273">
        <ele>289</ele>
        <time>2018-10-31T10:49:34Z</time>
      </trkpt>
      <trkpt lat="45.99956" lon="4.8928">
        <ele>289</ele>
        <time>2018-10-31T10:49:35Z</time>
      </trkpt>
      <trkpt lat="45.99955" lon="4.89287">
        <ele>289</ele>
        <time>2018-10-31T10:49:36Z</time>
      </trkpt>
      <trkpt lat="45.99954" lon="4.89294">
        <ele>289</ele>
        <time>2018-10-31T10:49:37Z</time>
      </trkpt>
      <trkpt lat="45.99953" lon="4.89301">
        <ele>289</ele>
        <time>2018-10-31T10:49:38Z</time>
      </trkpt>
      <trkpt lat="45.99952" lon="4.89308">
        <ele>289</ele>
        <time>2018-10-31T10:49:39Z</time>
      </trkpt>
      <trkpt lat="45.9995" lon="4.89314">
        <ele>289</ele>
        <time>2018-10-31T10:49:40Z</time>
      </trkpt>
      <trkpt lat="45.99949" lon="4.89321">
        <ele>289</ele>
        <time>2018-10-31T10:49:41Z</time>
      </trkpt>
      <trkpt lat="45.99948" lon="4.89328">
        <ele>289</ele>
        <time>2018-10-31T10:49:42Z</time>
      </trkpt>
      <trkpt lat="45.99947" lon="4.89335">
        <ele>290</ele>
        <time>2018-10-31T10:49:43Z</time>
      </trkpt>
      <trkpt lat="45.99945" lon="4.89342">
        <ele>290</ele>
        <time>2018-10-31T10:49:44Z</time>
      </trkpt>
      <trkpt lat="45.99944" lon="4.8935">
        <ele>290</ele>
        <time>2018-10-31T10:49:45Z</time>
      </trkpt>
      <trkpt lat="45.99943" lon="4.89356">
        <ele>290</ele>
        <time>2018-10-31T10:49:46Z</time>
      </trkpt>
      <trkpt lat="45.99941" lon="4.89362">
        <ele>290</ele>
        <time>2018-10-31T10:49:47Z</time>
      </trkpt>
      <trkpt lat="45.9994" lon="4.8937">
        <ele>290</ele>
        <time>2018-10-31T10:49:48Z</time>
      </trkpt>
      <trkpt lat="45.99939" lon="4.89377">
        <ele>290</ele>
        <time>2018-10-31T10:49:49Z</time>
      </trkpt>
      <trkpt lat="45.99937" lon="4.89383">
        <ele>290</ele>
        <time>2018-10-31T10:49:50Z</time>
      </trkpt>
      <trkpt lat="45.99936" lon="4.8939">
        <ele>290</ele>
        <time>2018-10-31T10:49:51Z</time>
      </trkpt>
      <trkpt lat="45.99934" lon="4.89397">
        <ele>290</ele>
        <time>2018-10-31T10:49:52Z</time>
      </trkpt>
      <trkpt lat="45.99932" lon="4.89404">
        <ele>290</ele>
        <time>2018-10-31T10:49:53Z</time>
      </trkpt>
      <trkpt lat="45.99931" lon="4.89411">
        <ele>290</ele>
        <time>2018-10-31T10:49:54Z</time>
      </trkpt>
      <trkpt lat="45.99929" lon="4.89418">
        <ele>291</ele>
        <time>2018-10-31T10:49:55Z</time>
      </trkpt>
      <trkpt lat="45.99928" lon="4.89425">
        <ele>290</ele>
        <time>2018-10-31T10:49:56Z</time>
      </trkpt>
      <trkpt lat="45.99928" lon="4.89433">
        <ele>290</ele>
        <time>2018-10-31T10:49:57Z</time>
      </trkpt>
      <trkpt lat="45.99927" lon="4.8944">
        <ele>290</ele>
        <time>2018-10-31T10:49:58Z</time>
      </trkpt>
      <trkpt lat="45.99929" lon="4.89451">
        <ele>290</ele>
        <time>2018-10-31T10:49:59Z</time>
      </trkpt>
      <trkpt lat="45.99927" lon="4.89458">
        <ele>290</ele>
        <time>2018-10-31T10:50:00Z</time>
      </trkpt>
      <trkpt lat="45.99928" lon="4.89465">
        <ele>290</ele>
        <time>2018-10-31T10:50:01Z</time>
      </trkpt>
      <trkpt lat="45.99926" lon="4.89473">
        <ele>290</ele>
        <time>2018-10-31T10:50:02Z</time>
      </trkpt>
      <trkpt lat="45.99924" lon="4.8948">
        <ele>290</ele>
        <time>2018-10-31T10:50:03Z</time>
      </trkpt>
      <trkpt lat="45.99923" lon="4.89486">
        <ele>290</ele>
        <time>2018-10-31T10:50:04Z</time>
      </trkpt>
      <trkpt lat="45.99922" lon="4.89495">
        <ele>291</ele>
        <time>2018-10-31T10:50:05Z</time>
      </trkpt>
      <trkpt lat="45.99921" lon="4.89503">
        <ele>291</ele>
        <time>2018-10-31T10:50:06Z</time>
      </trkpt>
      <trkpt lat="45.99919" lon="4.89509">
        <ele>291</ele>
        <time>2018-10-31T10:50:07Z</time>
      </trkpt>
      <trkpt lat="45.99918" lon="4.89515">
        <ele>290</ele>
        <time>2018-10-31T10:50:08Z</time>
      </trkpt>
      <trkpt lat="45.99917" lon="4.89523">
        <ele>291</ele>
        <time>2018-10-31T10:50:09Z</time>
      </trkpt>
      <trkpt lat="45.99915" lon="4.89529">
        <ele>291</ele>
        <time>2018-10-31T10:50:10Z</time>
      </trkpt>
      <trkpt lat="45.99914" lon="4.89535">
        <ele>291</ele>
        <time>2018-10-31T10:50:11Z</time>
      </trkpt>
      <trkpt lat="45.99912" lon="4.89541">
        <ele>291</ele>
        <time>2018-10-31T10:50:12Z</time>
      </trkpt>
      <trkpt lat="45.9991" lon="4.89548">
        <ele>291</ele>
        <time>2018-10-31T10:50:13Z</time>
      </trkpt>
      <trkpt lat="45.99909" lon="4.89555">
        <ele>291</ele>
        <time>2018-10-31T10:50:14Z</time>
      </trkpt>
      <trkpt lat="45.99908" lon="4.89562">
        <ele>291</ele>
        <time>2018-10-31T10:50:15Z</time>
      </trkpt>
      <trkpt lat="45.99906" lon="4.89569">
        <ele>291</ele>
        <time>2018-10-31T10:50:16Z</time>
      </trkpt>
      <trkpt lat="45.99905" lon="4.89576">
        <ele>291</ele>
        <time>2018-10-31T10:50:17Z</time>
      </trkpt>
      <trkpt lat="45.99904" lon="4.89589">
        <ele>291</ele>
        <time>2018-10-31T10:50:19Z</time>
      </trkpt>
      <trkpt lat="45.99903" lon="4.89596">
        <ele>291</ele>
        <time>2018-10-31T10:50:20Z</time>
      </trkpt>
      <trkpt lat="45.99901" lon="4.89603">
        <ele>291</ele>
        <time>2018-10-31T10:50:21Z</time>
      </trkpt>
      <trkpt lat="45.99899" lon="4.89611">
        <ele>290</ele>
        <time>2018-10-31T10:50:22Z</time>
      </trkpt>
      <trkpt lat="45.99899" lon="4.89622">
        <ele>290</ele>
        <time>2018-10-31T10:50:23Z</time>
      </trkpt>
      <trkpt lat="45.99897" lon="4.8963">
        <ele>290</ele>
        <time>2018-10-31T10:50:24Z</time>
      </trkpt>
      <trkpt lat="45.99896" lon="4.89637">
        <ele>290</ele>
        <time>2018-10-31T10:50:25Z</time>
      </trkpt>
      <trkpt lat="45.99894" lon="4.89644">
        <ele>290</ele>
        <time>2018-10-31T10:50:26Z</time>
      </trkpt>
      <trkpt lat="45.99892" lon="4.89652">
        <ele>290</ele>
        <time>2018-10-31T10:50:27Z</time>
      </trkpt>
      <trkpt lat="45.99891" lon="4.89658">
        <ele>291</ele>
        <time>2018-10-31T10:50:28Z</time>
      </trkpt>
      <trkpt lat="45.9989" lon="4.89666">
        <ele>291</ele>
        <time>2018-10-31T10:50:29Z</time>
      </trkpt>
      <trkpt lat="45.99888" lon="4.89672">
        <ele>291</ele>
        <time>2018-10-31T10:50:30Z</time>
      </trkpt>
      <trkpt lat="45.99887" lon="4.8968">
        <ele>291</ele>
        <time>2018-10-31T10:50:31Z</time>
      </trkpt>
      <trkpt lat="45.99886" lon="4.89686">
        <ele>291</ele>
        <time>2018-10-31T10:50:32Z</time>
      </trkpt>
      <trkpt lat="45.99885" lon="4.89693">
        <ele>291</ele>
        <time>2018-10-31T10:50:33Z</time>
      </trkpt>
      <trkpt lat="45.99884" lon="4.89701">
        <ele>291</ele>
        <time>2018-10-31T10:50:34Z</time>
      </trkpt>
      <trkpt lat="45.99882" lon="4.89709">
        <ele>291</ele>
        <time>2018-10-31T10:50:35Z</time>
      </trkpt>
      <trkpt lat="45.99881" lon="4.89716">
        <ele>291</ele>
        <time>2018-10-31T10:50:36Z</time>
      </trkpt>
      <trkpt lat="45.99879" lon="4.89722">
        <ele>291</ele>
        <time>2018-10-31T10:50:37Z</time>
      </trkpt>
      <trkpt lat="45.99878" lon="4.89729">
        <ele>291</ele>
        <time>2018-10-31T10:50:38Z</time>
      </trkpt>
      <trkpt lat="45.99877" lon="4.89737">
        <ele>291</ele>
        <time>2018-10-31T10:50:39Z</time>
      </trkpt>
      <trkpt lat="45.99875" lon="4.89745">
        <ele>292</ele>
        <time>2018-10-31T10:50:40Z</time>
      </trkpt>
      <trkpt lat="45.99875" lon="4.89752">
        <ele>292</ele>
        <time>2018-10-31T10:50:41Z</time>
      </trkpt>
      <trkpt lat="45.99875" lon="4.89758">
        <ele>292</ele>
        <time>2018-10-31T10:50:42Z</time>
      </trkpt>
      <trkpt lat="45.99874" lon="4.89765">
        <ele>292</ele>
        <time>2018-10-31T10:50:43Z</time>
      </trkpt>
      <trkpt lat="45.99873" lon="4.89771">
        <ele>292</ele>
        <time>2018-10-31T10:50:44Z</time>
      </trkpt>
      <trkpt lat="45.99872" lon="4.89779">
        <ele>292</ele>
        <time>2018-10-31T10:50:45Z</time>
      </trkpt>
      <trkpt lat="45.99872" lon="4.89786">
        <ele>292</ele>
        <time>2018-10-31T10:50:46Z</time>
      </trkpt>
      <trkpt lat="45.99872" lon="4.89793">
        <ele>292</ele>
        <time>2018-10-31T10:50:47Z</time>
      </trkpt>
      <trkpt lat="45.99871" lon="4.898">
        <ele>292</ele>
        <time>2018-10-31T10:50:48Z</time>
      </trkpt>
      <trkpt lat="45.9987" lon="4.89807">
        <ele>292</ele>
        <time>2018-10-31T10:50:49Z</time>
      </trkpt>
      <trkpt lat="45.9987" lon="4.89815">
        <ele>292</ele>
        <time>2018-10-31T10:50:50Z</time>
      </trkpt>
      <trkpt lat="45.9987" lon="4.89822">
        <ele>292</ele>
        <time>2018-10-31T10:50:51Z</time>
      </trkpt>
      <trkpt lat="45.99869" lon="4.89829">
        <ele>292</ele>
        <time>2018-10-31T10:50:52Z</time>
      </trkpt>
      <trkpt lat="45.99869" lon="4.89836">
        <ele>292</ele>
        <time>2018-10-31T10:50:53Z</time>
      </trkpt>
      <trkpt lat="45.99867" lon="4.89843">
        <ele>292</ele>
        <time>2018-10-31T10:50:54Z</time>
      </trkpt>
      <trkpt lat="45.99866" lon="4.89849">
        <ele>292</ele>
        <time>2018-10-31T10:50:55Z</time>
      </trkpt>
      <trkpt lat="45.99865" lon="4.89856">
        <ele>292</ele>
        <time>2018-10-31T10:50:56Z</time>
      </trkpt>
      <trkpt lat="45.99864" lon="4.89862">
        <ele>292</ele>
        <time>2018-10-31T10:50:57Z</time>
      </trkpt>
      <trkpt lat="45.99863" lon="4.89869">
        <ele>292</ele>
        <time>2018-10-31T10:50:58Z</time>
      </trkpt>
      <trkpt lat="45.99863" lon="4.89876">
        <ele>292</ele>
        <time>2018-10-31T10:50:59Z</time>
      </trkpt>
      <trkpt lat="45.99863" lon="4.89883">
        <ele>292</ele>
        <time>2018-10-31T10:51:00Z</time>
      </trkpt>
      <trkpt lat="45.99862" lon="4.8989">
        <ele>292</ele>
        <time>2018-10-31T10:51:01Z</time>
      </trkpt>
      <trkpt lat="45.99861" lon="4.89897">
        <ele>292</ele>
        <time>2018-10-31T10:51:02Z</time>
      </trkpt>
      <trkpt lat="45.99861" lon="4.89904">
        <ele>292</ele>
        <time>2018-10-31T10:51:03Z</time>
      </trkpt>
      <trkpt lat="45.99861" lon="4.89911">
        <ele>292</ele>
        <time>2018-10-31T10:51:04Z</time>
      </trkpt>
      <trkpt lat="45.9986" lon="4.8992">
        <ele>293</ele>
        <time>2018-10-31T10:51:05Z</time>
      </trkpt>
      <trkpt lat="45.9986" lon="4.89927">
        <ele>293</ele>
        <time>2018-10-31T10:51:06Z</time>
      </trkpt>
      <trkpt lat="45.99859" lon="4.89935">
        <ele>293</ele>
        <time>2018-10-31T10:51:07Z</time>
      </trkpt>
      <trkpt lat="45.99858" lon="4.89941">
        <ele>293</ele>
        <time>2018-10-31T10:51:08Z</time>
      </trkpt>
      <trkpt lat="45.99858" lon="4.89949">
        <ele>293</ele>
        <time>2018-10-31T10:51:09Z</time>
      </trkpt>
      <trkpt lat="45.99858" lon="4.89955">
        <ele>293</ele>
        <time>2018-10-31T10:51:10Z</time>
      </trkpt>
      <trkpt lat="45.99858" lon="4.89962">
        <ele>294</ele>
        <time>2018-10-31T10:51:11Z</time>
      </trkpt>
      <trkpt lat="45.99859" lon="4.89972">
        <ele>294</ele>
        <time>2018-10-31T10:51:12Z</time>
      </trkpt>
      <trkpt lat="45.99858" lon="4.89979">
        <ele>294</ele>
        <time>2018-10-31T10:51:13Z</time>
      </trkpt>
      <trkpt lat="45.99857" lon="4.89986">
        <ele>294</ele>
        <time>2018-10-31T10:51:14Z</time>
      </trkpt>
      <trkpt lat="45.99857" lon="4.89993">
        <ele>294</ele>
        <time>2018-10-31T10:51:15Z</time>
      </trkpt>
      <trkpt lat="45.99856" lon="4.9">
        <ele>294</ele>
        <time>2018-10-31T10:51:16Z</time>
      </trkpt>
      <trkpt lat="45.99856" lon="4.90007">
        <ele>296</ele>
        <time>2018-10-31T10:51:17Z</time>
      </trkpt>
      <trkpt lat="45.99855" lon="4.90014">
        <ele>296</ele>
        <time>2018-10-31T10:51:18Z</time>
      </trkpt>
      <trkpt lat="45.99854" lon="4.90022">
        <ele>296</ele>
        <time>2018-10-31T10:51:19Z</time>
      </trkpt>
      <trkpt lat="45.99853" lon="4.90029">
        <ele>296</ele>
        <time>2018-10-31T10:51:20Z</time>
      </trkpt>
      <trkpt lat="45.99852" lon="4.90035">
        <ele>296</ele>
        <time>2018-10-31T10:51:21Z</time>
      </trkpt>
      <trkpt lat="45.99852" lon="4.90043">
        <ele>296</ele>
        <time>2018-10-31T10:51:22Z</time>
      </trkpt>
      <trkpt lat="45.99851" lon="4.90056">
        <ele>297</ele>
        <time>2018-10-31T10:51:24Z</time>
      </trkpt>
      <trkpt lat="45.9985" lon="4.90062">
        <ele>297</ele>
        <time>2018-10-31T10:51:25Z</time>
      </trkpt>
      <trkpt lat="45.99849" lon="4.90069">
        <ele>297</ele>
        <time>2018-10-31T10:51:26Z</time>
      </trkpt>
      <trkpt lat="45.99849" lon="4.90075">
        <ele>298</ele>
        <time>2018-10-31T10:51:27Z</time>
      </trkpt>
      <trkpt lat="45.99848" lon="4.90082">
        <ele>298</ele>
        <time>2018-10-31T10:51:28Z</time>
      </trkpt>
      <trkpt lat="45.99848" lon="4.90089">
        <ele>299</ele>
        <time>2018-10-31T10:51:29Z</time>
      </trkpt>
      <trkpt lat="45.99848" lon="4.90095">
        <ele>299</ele>
        <time>2018-10-31T10:51:30Z</time>
      </trkpt>
      <trkpt lat="45.99847" lon="4.90102">
        <ele>299</ele>
        <time>2018-10-31T10:51:31Z</time>
      </trkpt>
      <trkpt lat="45.99847" lon="4.90113">
        <ele>300</ele>
        <time>2018-10-31T10:51:33Z</time>
      </trkpt>
      <trkpt lat="45.99846" lon="4.90119">
        <ele>300</ele>
        <time>2018-10-31T10:51:34Z</time>
      </trkpt>
      <trkpt lat="45.99844" lon="4.90131">
        <ele>300</ele>
        <time>2018-10-31T10:51:37Z</time>
      </trkpt>
      <trkpt lat="45.99844" lon="4.90135">
        <ele>300</ele>
        <time>2018-10-31T10:51:38Z</time>
      </trkpt>
      <trkpt lat="45.99843" lon="4.90146">
        <ele>300</ele>
        <time>2018-10-31T10:51:41Z</time>
      </trkpt>
      <trkpt lat="45.99844" lon="4.90149">
        <ele>301</ele>
        <time>2018-10-31T10:51:42Z</time>
      </trkpt>
      <trkpt lat="45.99843" lon="4.90161">
        <ele>301</ele>
        <time>2018-10-31T10:51:53Z</time>
      </trkpt>
      <trkpt lat="45.99842" lon="4.90162">
        <ele>301</ele>
        <time>2018-10-31T10:51:54Z</time>
      </trkpt>
      <trkpt lat="45.99842" lon="4.90174">
        <ele>302</ele>
        <time>2018-10-31T10:51:58Z</time>
      </trkpt>
      <trkpt lat="45.99842" lon="4.90177">
        <ele>302</ele>
        <time>2018-10-31T10:51:59Z</time>
      </trkpt>
      <trkpt lat="45.99841" lon="4.90188">
        <ele>302</ele>
        <time>2018-10-31T10:52:02Z</time>
      </trkpt>
      <trkpt lat="45.99841" lon="4.90193">
        <ele>301</ele>
        <time>2018-10-31T10:52:03Z</time>
      </trkpt>
      <trkpt lat="45.99839" lon="4.90202">
        <ele>301</ele>
        <time>2018-10-31T10:52:05Z</time>
      </trkpt>
      <trkpt lat="45.99839" lon="4.90207">
        <ele>302</ele>
        <time>2018-10-31T10:52:06Z</time>
      </trkpt>
      <trkpt lat="45.99838" lon="4.90216">
        <ele>302</ele>
        <time>2018-10-31T10:52:08Z</time>
      </trkpt>
      <trkpt lat="45.99837" lon="4.9022">
        <ele>302</ele>
        <time>2018-10-31T10:52:09Z</time>
      </trkpt>
      <trkpt lat="45.99831" lon="4.90226">
        <ele>303</ele>
        <time>2018-10-31T10:52:12Z</time>
      </trkpt>
      <trkpt lat="45.99828" lon="4.90227">
        <ele>303</ele>
        <time>2018-10-31T10:52:13Z</time>
      </trkpt>
      <trkpt lat="45.99821" lon="4.90228">
        <ele>303</ele>
        <time>2018-10-31T10:52:16Z</time>
      </trkpt>
      <trkpt lat="45.99819" lon="4.90229">
        <ele>303</ele>
        <time>2018-10-31T10:52:17Z</time>
      </trkpt>
      <trkpt lat="45.99811" lon="4.90236">
        <ele>303</ele>
        <time>2018-10-31T10:52:21Z</time>
      </trkpt>
      <trkpt lat="45.99809" lon="4.90238">
        <ele>304</ele>
        <time>2018-10-31T10:52:22Z</time>
      </trkpt>
      <trkpt lat="45.99801" lon="4.90244">
        <ele>304</ele>
        <time>2018-10-31T10:52:25Z</time>
      </trkpt>
      <trkpt lat="45.99799" lon="4.90246">
        <ele>304</ele>
        <time>2018-10-31T10:52:26Z</time>
      </trkpt>
      <trkpt lat="45.99791" lon="4.90252">
        <ele>305</ele>
        <time>2018-10-31T10:52:29Z</time>
      </trkpt>
      <trkpt lat="45.99788" lon="4.90254">
        <ele>305</ele>
        <time>2018-10-31T10:52:30Z</time>
      </trkpt>
      <trkpt lat="45.99782" lon="4.90259">
        <ele>305</ele>
        <time>2018-10-31T10:52:32Z</time>
      </trkpt>
      <trkpt lat="45.9978" lon="4.90261">
        <ele>305</ele>
        <time>2018-10-31T10:52:33Z</time>
      </trkpt>
      <trkpt lat="45.99774" lon="4.90266">
        <ele>305</ele>
        <time>2018-10-31T10:52:34Z</time>
      </trkpt>
      <trkpt lat="45.99771" lon="4.90268">
        <ele>305</ele>
        <time>2018-10-31T10:52:35Z</time>
      </trkpt>
      <trkpt lat="45.99766" lon="4.90273">
        <ele>306</ele>
        <time>2018-10-31T10:52:37Z</time>
      </trkpt>
      <trkpt lat="45.99762" lon="4.90276">
        <ele>306</ele>
        <time>2018-10-31T10:52:38Z</time>
      </trkpt>
      <trkpt lat="45.99755" lon="4.90282">
        <ele>306</ele>
        <time>2018-10-31T10:52:40Z</time>
      </trkpt>
      <trkpt lat="45.99752" lon="4.90285">
        <ele>306</ele>
        <time>2018-10-31T10:52:41Z</time>
      </trkpt>
      <trkpt lat="45.99746" lon="4.9029">
        <ele>306</ele>
        <time>2018-10-31T10:52:43Z</time>
      </trkpt>
      <trkpt lat="45.99743" lon="4.90294">
        <ele>306</ele>
        <time>2018-10-31T10:52:44Z</time>
      </trkpt>
      <trkpt lat="45.99737" lon="4.90301">
        <ele>306</ele>
        <time>2018-10-31T10:52:46Z</time>
      </trkpt>
      <trkpt lat="45.99736" lon="4.90303">
        <ele>306</ele>
        <time>2018-10-31T10:52:47Z</time>
      </trkpt>
      <trkpt lat="45.99728" lon="4.90309">
        <ele>305</ele>
        <time>2018-10-31T10:52:49Z</time>
      </trkpt>
      <trkpt lat="45.99724" lon="4.90311">
        <ele>305</ele>
        <time>2018-10-31T10:52:50Z</time>
      </trkpt>
      <trkpt lat="45.99717" lon="4.90315">
        <ele>305</ele>
        <time>2018-10-31T10:52:52Z</time>
      </trkpt>
      <trkpt lat="45.99713" lon="4.90316">
        <ele>305</ele>
        <time>2018-10-31T10:52:53Z</time>
      </trkpt>
      <trkpt lat="45.99706" lon="4.90319">
        <ele>305</ele>
        <time>2018-10-31T10:52:55Z</time>
      </trkpt>
      <trkpt lat="45.99702" lon="4.9032">
        <ele>305</ele>
        <time>2018-10-31T10:52:56Z</time>
      </trkpt>
      <trkpt lat="45.99697" lon="4.90321">
        <ele>304</ele>
        <time>2018-10-31T10:52:58Z</time>
      </trkpt>
      <trkpt lat="45.99691" lon="4.90322">
        <ele>304</ele>
        <time>2018-10-31T10:52:59Z</time>
      </trkpt>
      <trkpt lat="45.99685" lon="4.9032">
        <ele>304</ele>
        <time>2018-10-31T10:53:00Z</time>
      </trkpt>
      <trkpt lat="45.99682" lon="4.9032">
        <ele>304</ele>
        <time>2018-10-31T10:53:01Z</time>
      </trkpt>
      <trkpt lat="45.99675" lon="4.90318">
        <ele>303</ele>
        <time>2018-10-31T10:53:03Z</time>
      </trkpt>
      <trkpt lat="45.99672" lon="4.90318">
        <ele>303</ele>
        <time>2018-10-31T10:53:04Z</time>
      </trkpt>
      <trkpt lat="45.99664" lon="4.90317">
        <ele>302</ele>
        <time>2018-10-31T10:53:07Z</time>
      </trkpt>
      <trkpt lat="45.9966" lon="4.90316">
        <ele>302</ele>
        <time>2018-10-31T10:53:08Z</time>
      </trkpt>
      <trkpt lat="45.99652" lon="4.90316">
        <ele>302</ele>
        <time>2018-10-31T10:53:09Z</time>
      </trkpt>
      <trkpt lat="45.99648" lon="4.90316">
        <ele>302</ele>
        <time>2018-10-31T10:53:10Z</time>
      </trkpt>
      <trkpt lat="45.99643" lon="4.90315">
        <ele>302</ele>
        <time>2018-10-31T10:53:11Z</time>
      </trkpt>
      <trkpt lat="45.99639" lon="4.90314">
        <ele>302</ele>
        <time>2018-10-31T10:53:12Z</time>
      </trkpt>
      <trkpt lat="45.99632" lon="4.90313">
        <ele>302</ele>
        <time>2018-10-31T10:53:14Z</time>
      </trkpt>
      <trkpt lat="45.99629" lon="4.90313">
        <ele>302</ele>
        <time>2018-10-31T10:53:15Z</time>
      </trkpt>
      <trkpt lat="45.99621" lon="4.90313">
        <ele>302</ele>
        <time>2018-10-31T10:53:18Z</time>
      </trkpt>
      <trkpt lat="45.99619" lon="4.90313">
        <ele>302</ele>
        <time>2018-10-31T10:53:19Z</time>
      </trkpt>
      <trkpt lat="45.99612" lon="4.90313">
        <ele>302</ele>
        <time>2018-10-31T10:53:22Z</time>
      </trkpt>
      <trkpt lat="45.99609" lon="4.90313">
        <ele>302</ele>
        <time>2018-10-31T10:53:23Z</time>
      </trkpt>
      <trkpt lat="45.99602" lon="4.90313">
        <ele>301</ele>
        <time>2018-10-31T10:53:26Z</time>
      </trkpt>
      <trkpt lat="45.99599" lon="4.90313">
        <ele>301</ele>
        <time>2018-10-31T10:53:27Z</time>
      </trkpt>
      <trkpt lat="45.99591" lon="4.90312">
        <ele>301</ele>
        <time>2018-10-31T10:53:30Z</time>
      </trkpt>
      <trkpt lat="45.99589" lon="4.90312">
        <ele>301</ele>
        <time>2018-10-31T10:53:31Z</time>
      </trkpt>
      <trkpt lat="45.99581" lon="4.90312">
        <ele>301</ele>
        <time>2018-10-31T10:53:34Z</time>
      </trkpt>
      <trkpt lat="45.99579" lon="4.90312">
        <ele>301</ele>
        <time>2018-10-31T10:53:35Z</time>
      </trkpt>
      <trkpt lat="45.99584" lon="4.90319">
        <ele>301</ele>
        <time>2018-10-31T10:53:51Z</time>
      </trkpt>
      <trkpt lat="45.99587" lon="4.90319">
        <ele>301</ele>
        <time>2018-10-31T10:53:52Z</time>
      </trkpt>
      <trkpt lat="45.99593" lon="4.90319">
        <ele>301</ele>
        <time>2018-10-31T10:53:54Z</time>
      </trkpt>
      <trkpt lat="45.99596" lon="4.9032">
        <ele>301</ele>
        <time>2018-10-31T10:53:55Z</time>
      </trkpt>
      <trkpt lat="45.99602" lon="4.9032">
        <ele>301</ele>
        <time>2018-10-31T10:53:57Z</time>
      </trkpt>
      <trkpt lat="45.99606" lon="4.90321">
        <ele>301</ele>
        <time>2018-10-31T10:53:58Z</time>
      </trkpt>
      <trkpt lat="45.99613" lon="4.90322">
        <ele>302</ele>
        <time>2018-10-31T10:54:00Z</time>
      </trkpt>
      <trkpt lat="45.99619" lon="4.90323">
        <ele>302</ele>
        <time>2018-10-31T10:54:01Z</time>
      </trkpt>
      <trkpt lat="45.99628" lon="4.90324">
        <ele>302</ele>
        <time>2018-10-31T10:54:03Z</time>
      </trkpt>
      <trkpt lat="45.99632" lon="4.90325">
        <ele>302</ele>
        <time>2018-10-31T10:54:04Z</time>
      </trkpt>
      <trkpt lat="45.99641" lon="4.90326">
        <ele>302</ele>
        <time>2018-10-31T10:54:06Z</time>
      </trkpt>
      <trkpt lat="45.99644" lon="4.90327">
        <ele>302</ele>
        <time>2018-10-31T10:54:07Z</time>
      </trkpt>
      <trkpt lat="45.99652" lon="4.90327">
        <ele>302</ele>
        <time>2018-10-31T10:54:10Z</time>
      </trkpt>
      <trkpt lat="45.99654" lon="4.90328">
        <ele>302</ele>
        <time>2018-10-31T10:54:11Z</time>
      </trkpt>
      <trkpt lat="45.99657" lon="4.90328">
        <ele>302</ele>
        <time>2018-10-31T10:54:12Z</time>
      </trkpt>
      <trkpt lat="45.99664" lon="4.90329">
        <ele>302</ele>
        <time>2018-10-31T10:54:13Z</time>
      </trkpt>
      <trkpt lat="45.99672" lon="4.9033">
        <ele>303</ele>
        <time>2018-10-31T10:54:15Z</time>
      </trkpt>
      <trkpt lat="45.99676" lon="4.90331">
        <ele>303</ele>
        <time>2018-10-31T10:54:16Z</time>
      </trkpt>
      <trkpt lat="45.99683" lon="4.90334">
        <ele>302</ele>
        <time>2018-10-31T10:54:20Z</time>
      </trkpt>
      <trkpt lat="45.99688" lon="4.90339">
        <ele>303</ele>
        <time>2018-10-31T10:54:21Z</time>
      </trkpt>
      <trkpt lat="45.99689" lon="4.90349">
        <ele>303</ele>
        <time>2018-10-31T10:54:23Z</time>
      </trkpt>
      <trkpt lat="45.99687" lon="4.90356">
        <ele>302</ele>
        <time>2018-10-31T10:54:24Z</time>
      </trkpt>
      <trkpt lat="45.99684" lon="4.90363">
        <ele>302</ele>
        <time>2018-10-31T10:54:25Z</time>
      </trkpt>
      <trkpt lat="45.99682" lon="4.9037">
        <ele>302</ele>
        <time>2018-10-31T10:54:26Z</time>
      </trkpt>
      <trkpt lat="45.99681" lon="4.90378">
        <ele>302</ele>
        <time>2018-10-31T10:54:27Z</time>
      </trkpt>
      <trkpt lat="45.9968" lon="4.90386">
        <ele>302</ele>
        <time>2018-10-31T10:54:28Z</time>
      </trkpt>
      <trkpt lat="45.99678" lon="4.90394">
        <ele>302</ele>
        <time>2018-10-31T10:54:29Z</time>
      </trkpt>
      <trkpt lat="45.99676" lon="4.90402">
        <ele>302</ele>
        <time>2018-10-31T10:54:30Z</time>
      </trkpt>
      <trkpt lat="45.99674" lon="4.9041">
        <ele>301</ele>
        <time>2018-10-31T10:54:31Z</time>
      </trkpt>
      <trkpt lat="45.99673" lon="4.90417">
        <ele>301</ele>
        <time>2018-10-31T10:54:32Z</time>
      </trkpt>
      <trkpt lat="45.9967" lon="4.90428">
        <ele>301</ele>
        <time>2018-10-31T10:54:34Z</time>
      </trkpt>
      <trkpt lat="45.99668" lon="4.90431">
        <ele>300</ele>
        <time>2018-10-31T10:54:35Z</time>
      </trkpt>
      <trkpt lat="45.99662" lon="4.90438">
        <ele>300</ele>
        <time>2018-10-31T10:54:37Z</time>
      </trkpt>
      <trkpt lat="45.99658" lon="4.90441">
        <ele>300</ele>
        <time>2018-10-31T10:54:38Z</time>
      </trkpt>
      <trkpt lat="45.99653" lon="4.90443">
        <ele>300</ele>
        <time>2018-10-31T10:54:39Z</time>
      </trkpt>
      <trkpt lat="45.99648" lon="4.90444">
        <ele>300</ele>
        <time>2018-10-31T10:54:40Z</time>
      </trkpt>
      <trkpt lat="45.9964" lon="4.90448">
        <ele>300</ele>
        <time>2018-10-31T10:54:42Z</time>
      </trkpt>
      <trkpt lat="45.99636" lon="4.90451">
        <ele>300</ele>
        <time>2018-10-31T10:54:43Z</time>
      </trkpt>
      <trkpt lat="45.99627" lon="4.90454">
        <ele>300</ele>
        <time>2018-10-31T10:54:45Z</time>
      </trkpt>
      <trkpt lat="45.99623" lon="4.90452">
        <ele>300</ele>
        <time>2018-10-31T10:54:46Z</time>
      </trkpt>
      <trkpt lat="45.99618" lon="4.90452">
        <ele>300</ele>
        <time>2018-10-31T10:54:47Z</time>
      </trkpt>
      <trkpt lat="45.99614" lon="4.90453">
        <ele>300</ele>
        <time>2018-10-31T10:54:48Z</time>
      </trkpt>
      <trkpt lat="45.99608" lon="4.90454">
        <ele>300</ele>
        <time>2018-10-31T10:54:49Z</time>
      </trkpt>
      <trkpt lat="45.99603" lon="4.90454">
        <ele>300</ele>
        <time>2018-10-31T10:54:50Z</time>
      </trkpt>
      <trkpt lat="45.99597" lon="4.90454">
        <ele>300</ele>
        <time>2018-10-31T10:54:51Z</time>
      </trkpt>
      <trkpt lat="45.99591" lon="4.90455">
        <ele>300</ele>
        <time>2018-10-31T10:54:52Z</time>
      </trkpt>
      <trkpt lat="45.99586" lon="4.90456">
        <ele>300</ele>
        <time>2018-10-31T10:54:53Z</time>
      </trkpt>
      <trkpt lat="45.9958" lon="4.90458">
        <ele>299</ele>
        <time>2018-10-31T10:54:54Z</time>
      </trkpt>
      <trkpt lat="45.99576" lon="4.90461">
        <ele>299</ele>
        <time>2018-10-31T10:54:55Z</time>
      </trkpt>
      <trkpt lat="45.99572" lon="4.90464">
        <ele>299</ele>
        <time>2018-10-31T10:54:56Z</time>
      </trkpt>
      <trkpt lat="45.99568" lon="4.90468">
        <ele>299</ele>
        <time>2018-10-31T10:54:57Z</time>
      </trkpt>
      <trkpt lat="45.99565" lon="4.90472">
        <ele>299</ele>
        <time>2018-10-31T10:54:58Z</time>
      </trkpt>
      <trkpt lat="45.9956" lon="4.90476">
        <ele>299</ele>
        <time>2018-10-31T10:54:59Z</time>
      </trkpt>
      <trkpt lat="45.99556" lon="4.9048">
        <ele>299</ele>
        <time>2018-10-31T10:55:00Z</time>
      </trkpt>
      <trkpt lat="45.99552" lon="4.90485">
        <ele>299</ele>
        <time>2018-10-31T10:55:01Z</time>
      </trkpt>
      <trkpt lat="45.99548" lon="4.90489">
        <ele>299</ele>
        <time>2018-10-31T10:55:02Z</time>
      </trkpt>
      <trkpt lat="45.99545" lon="4.90495">
        <ele>299</ele>
        <time>2018-10-31T10:55:03Z</time>
      </trkpt>
      <trkpt lat="45.99541" lon="4.90499">
        <ele>299</ele>
        <time>2018-10-31T10:55:04Z</time>
      </trkpt>
      <trkpt lat="45.99537" lon="4.90504">
        <ele>299</ele>
        <time>2018-10-31T10:55:05Z</time>
      </trkpt>
      <trkpt lat="45.99533" lon="4.90509">
        <ele>299</ele>
        <time>2018-10-31T10:55:06Z</time>
      </trkpt>
      <trkpt lat="45.99529" lon="4.90513">
        <ele>299</ele>
        <time>2018-10-31T10:55:07Z</time>
      </trkpt>
      <trkpt lat="45.99525" lon="4.90517">
        <ele>299</ele>
        <time>2018-10-31T10:55:08Z</time>
      </trkpt>
      <trkpt lat="45.99521" lon="4.90521">
        <ele>299</ele>
        <time>2018-10-31T10:55:09Z</time>
      </trkpt>
      <trkpt lat="45.99518" lon="4.90525">
        <ele>299</ele>
        <time>2018-10-31T10:55:10Z</time>
      </trkpt>
      <trkpt lat="45.99514" lon="4.9053">
        <ele>299</ele>
        <time>2018-10-31T10:55:11Z</time>
      </trkpt>
      <trkpt lat="45.9951" lon="4.90534">
        <ele>299</ele>
        <time>2018-10-31T10:55:12Z</time>
      </trkpt>
      <trkpt lat="45.99506" lon="4.90539">
        <ele>299</ele>
        <time>2018-10-31T10:55:13Z</time>
      </trkpt>
      <trkpt lat="45.99503" lon="4.90543">
        <ele>299</ele>
        <time>2018-10-31T10:55:14Z</time>
      </trkpt>
      <trkpt lat="45.99499" lon="4.90548">
        <ele>299</ele>
        <time>2018-10-31T10:55:15Z</time>
      </trkpt>
      <trkpt lat="45.99495" lon="4.90554">
        <ele>299</ele>
        <time>2018-10-31T10:55:16Z</time>
      </trkpt>
      <trkpt lat="45.99492" lon="4.9056">
        <ele>299</ele>
        <time>2018-10-31T10:55:17Z</time>
      </trkpt>
      <trkpt lat="45.99488" lon="4.90564">
        <ele>299</ele>
        <time>2018-10-31T10:55:18Z</time>
      </trkpt>
      <trkpt lat="45.99484" lon="4.90569">
        <ele>299</ele>
        <time>2018-10-31T10:55:19Z</time>
      </trkpt>
      <trkpt lat="45.99479" lon="4.90574">
        <ele>299</ele>
        <time>2018-10-31T10:55:20Z</time>
      </trkpt>
      <trkpt lat="45.99473" lon="4.90583">
        <ele>299</ele>
        <time>2018-10-31T10:55:22Z</time>
      </trkpt>
      <trkpt lat="45.9947" lon="4.90586">
        <ele>298</ele>
        <time>2018-10-31T10:55:23Z</time>
      </trkpt>
      <trkpt lat="45.99464" lon="4.90595">
        <ele>298</ele>
        <time>2018-10-31T10:55:25Z</time>
      </trkpt>
      <trkpt lat="45.99461" lon="4.90599">
        <ele>298</ele>
        <time>2018-10-31T10:55:26Z</time>
      </trkpt>
      <trkpt lat="45.99457" lon="4.90602">
        <ele>298</ele>
        <time>2018-10-31T10:55:27Z</time>
      </trkpt>
      <trkpt lat="45.99454" lon="4.90607">
        <ele>298</ele>
        <time>2018-10-31T10:55:28Z</time>
      </trkpt>
      <trkpt lat="45.9945" lon="4.90611">
        <ele>298</ele>
        <time>2018-10-31T10:55:29Z</time>
      </trkpt>
      <trkpt lat="45.99446" lon="4.90615">
        <ele>298</ele>
        <time>2018-10-31T10:55:30Z</time>
      </trkpt>
      <trkpt lat="45.99442" lon="4.9062">
        <ele>298</ele>
        <time>2018-10-31T10:55:31Z</time>
      </trkpt>
      <trkpt lat="45.99438" lon="4.90625">
        <ele>298</ele>
        <time>2018-10-31T10:55:32Z</time>
      </trkpt>
      <trkpt lat="45.99434" lon="4.90629">
        <ele>298</ele>
        <time>2018-10-31T10:55:33Z</time>
      </trkpt>
      <trkpt lat="45.9943" lon="4.90633">
        <ele>298</ele>
        <time>2018-10-31T10:55:34Z</time>
      </trkpt>
      <trkpt lat="45.99426" lon="4.90638">
        <ele>298</ele>
        <time>2018-10-31T10:55:35Z</time>
      </trkpt>
      <trkpt lat="45.99422" lon="4.90643">
        <ele>298</ele>
        <time>2018-10-31T10:55:36Z</time>
      </trkpt>
      <trkpt lat="45.99418" lon="4.90648">
        <ele>298</ele>
        <time>2018-10-31T10:55:37Z</time>
      </trkpt>
      <trkpt lat="45.99414" lon="4.90653">
        <ele>298</ele>
        <time>2018-10-31T10:55:38Z</time>
      </trkpt>
      <trkpt lat="45.9941" lon="4.90658">
        <ele>298</ele>
        <time>2018-10-31T10:55:39Z</time>
      </trkpt>
      <trkpt lat="45.99406" lon="4.90662">
        <ele>298</ele>
        <time>2018-10-31T10:55:40Z</time>
      </trkpt>
      <trkpt lat="45.99402" lon="4.90668">
        <ele>298</ele>
        <time>2018-10-31T10:55:41Z</time>
      </trkpt>
      <trkpt lat="45.99398" lon="4.90673">
        <ele>298</ele>
        <time>2018-10-31T10:55:42Z</time>
      </trkpt>
      <trkpt lat="45.99394" lon="4.90678">
        <ele>298</ele>
        <time>2018-10-31T10:55:43Z</time>
      </trkpt>
      <trkpt lat="45.9939" lon="4.90684">
        <ele>298</ele>
        <time>2018-10-31T10:55:44Z</time>
      </trkpt>
      <trkpt lat="45.99385" lon="4.90688">
        <ele>298</ele>
        <time>2018-10-31T10:55:45Z</time>
      </trkpt>
      <trkpt lat="45.99381" lon="4.90693">
        <ele>298</ele>
        <time>2018-10-31T10:55:46Z</time>
      </trkpt>
      <trkpt lat="45.99377" lon="4.90698">
        <ele>298</ele>
        <time>2018-10-31T10:55:47Z</time>
      </trkpt>
      <trkpt lat="45.99373" lon="4.90703">
        <ele>299</ele>
        <time>2018-10-31T10:55:48Z</time>
      </trkpt>
      <trkpt lat="45.99369" lon="4.90708">
        <ele>299</ele>
        <time>2018-10-31T10:55:49Z</time>
      </trkpt>
      <trkpt lat="45.99366" lon="4.90712">
        <ele>299</ele>
        <time>2018-10-31T10:55:50Z</time>
      </trkpt>
      <trkpt lat="45.99362" lon="4.90716">
        <ele>299</ele>
        <time>2018-10-31T10:55:51Z</time>
      </trkpt>
      <trkpt lat="45.99358" lon="4.90721">
        <ele>299</ele>
        <time>2018-10-31T10:55:52Z</time>
      </trkpt>
      <trkpt lat="45.99355" lon="4.90725">
        <ele>299</ele>
        <time>2018-10-31T10:55:53Z</time>
      </trkpt>
      <trkpt lat="45.99351" lon="4.90729">
        <ele>299</ele>
        <time>2018-10-31T10:55:54Z</time>
      </trkpt>
      <trkpt lat="45.99348" lon="4.90735">
        <ele>299</ele>
        <time>2018-10-31T10:55:55Z</time>
      </trkpt>
      <trkpt lat="45.99344" lon="4.90739">
        <ele>299</ele>
        <time>2018-10-31T10:55:56Z</time>
      </trkpt>
      <trkpt lat="45.9934" lon="4.90744">
        <ele>300</ele>
        <time>2018-10-31T10:55:57Z</time>
      </trkpt>
      <trkpt lat="45.99337" lon="4.90749">
        <ele>300</ele>
        <time>2018-10-31T10:55:58Z</time>
      </trkpt>
      <trkpt lat="45.99333" lon="4.90753">
        <ele>300</ele>
        <time>2018-10-31T10:55:59Z</time>
      </trkpt>
      <trkpt lat="45.99329" lon="4.90758">
        <ele>300</ele>
        <time>2018-10-31T10:56:00Z</time>
      </trkpt>
      <trkpt lat="45.99324" lon="4.90762">
        <ele>300</ele>
        <time>2018-10-31T10:56:01Z</time>
      </trkpt>
      <trkpt lat="45.9932" lon="4.90767">
        <ele>300</ele>
        <time>2018-10-31T10:56:02Z</time>
      </trkpt>
      <trkpt lat="45.99316" lon="4.90773">
        <ele>300</ele>
        <time>2018-10-31T10:56:03Z</time>
      </trkpt>
      <trkpt lat="45.99313" lon="4.90778">
        <ele>300</ele>
        <time>2018-10-31T10:56:04Z</time>
      </trkpt>
      <trkpt lat="45.99305" lon="4.90785">
        <ele>300</ele>
        <time>2018-10-31T10:56:06Z</time>
      </trkpt>
      <trkpt lat="45.99302" lon="4.90788">
        <ele>300</ele>
        <time>2018-10-31T10:56:07Z</time>
      </trkpt>
      <trkpt lat="45.99295" lon="4.90796">
        <ele>300</ele>
        <time>2018-10-31T10:56:09Z</time>
      </trkpt>
      <trkpt lat="45.99291" lon="4.908">
        <ele>300</ele>
        <time>2018-10-31T10:56:10Z</time>
      </trkpt>
      <trkpt lat="45.99288" lon="4.90804">
        <ele>300</ele>
        <time>2018-10-31T10:56:11Z</time>
      </trkpt>
      <trkpt lat="45.99284" lon="4.90808">
        <ele>300</ele>
        <time>2018-10-31T10:56:12Z</time>
      </trkpt>
      <trkpt lat="45.99279" lon="4.90812">
        <ele>300</ele>
        <time>2018-10-31T10:56:13Z</time>
      </trkpt>
      <trkpt lat="45.99276" lon="4.90818">
        <ele>300</ele>
        <time>2018-10-31T10:56:14Z</time>
      </trkpt>
      <trkpt lat="45.99272" lon="4.90822">
        <ele>300</ele>
        <time>2018-10-31T10:56:15Z</time>
      </trkpt>
      <trkpt lat="45.99268" lon="4.90827">
        <ele>300</ele>
        <time>2018-10-31T10:56:16Z</time>
      </trkpt>
      <trkpt lat="45.99264" lon="4.90831">
        <ele>300</ele>
        <time>2018-10-31T10:56:17Z</time>
      </trkpt>
      <trkpt lat="45.99261" lon="4.90836">
        <ele>300</ele>
        <time>2018-10-31T10:56:18Z</time>
      </trkpt>
      <trkpt lat="45.99257" lon="4.90841">
        <ele>300</ele>
        <time>2018-10-31T10:56:19Z</time>
      </trkpt>
      <trkpt lat="45.99253" lon="4.90846">
        <ele>300</ele>
        <time>2018-10-31T10:56:20Z</time>
      </trkpt>
      <trkpt lat="45.9925" lon="4.90853">
        <ele>300</ele>
        <time>2018-10-31T10:56:21Z</time>
      </trkpt>
      <trkpt lat="45.99246" lon="4.90858">
        <ele>300</ele>
        <time>2018-10-31T10:56:22Z</time>
      </trkpt>
      <trkpt lat="45.99242" lon="4.90863">
        <ele>300</ele>
        <time>2018-10-31T10:56:23Z</time>
      </trkpt>
      <trkpt lat="45.99238" lon="4.90867">
        <ele>300</ele>
        <time>2018-10-31T10:56:24Z</time>
      </trkpt>
      <trkpt lat="45.99234" lon="4.90872">
        <ele>300</ele>
        <time>2018-10-31T10:56:25Z</time>
      </trkpt>
      <trkpt lat="45.9923" lon="4.90878">
        <ele>299</ele>
        <time>2018-10-31T10:56:26Z</time>
      </trkpt>
      <trkpt lat="45.99227" lon="4.90882">
        <ele>299</ele>
        <time>2018-10-31T10:56:27Z</time>
      </trkpt>
      <trkpt lat="45.99223" lon="4.90887">
        <ele>299</ele>
        <time>2018-10-31T10:56:28Z</time>
      </trkpt>
      <trkpt lat="45.99218" lon="4.90891">
        <ele>299</ele>
        <time>2018-10-31T10:56:29Z</time>
      </trkpt>
      <trkpt lat="45.99214" lon="4.90896">
        <ele>299</ele>
        <time>2018-10-31T10:56:30Z</time>
      </trkpt>
      <trkpt lat="45.9921" lon="4.90901">
        <ele>299</ele>
        <time>2018-10-31T10:56:31Z</time>
      </trkpt>
      <trkpt lat="45.99206" lon="4.90905">
        <ele>300</ele>
        <time>2018-10-31T10:56:32Z</time>
      </trkpt>
      <trkpt lat="45.99202" lon="4.9091">
        <ele>300</ele>
        <time>2018-10-31T10:56:33Z</time>
      </trkpt>
      <trkpt lat="45.99199" lon="4.90914">
        <ele>300</ele>
        <time>2018-10-31T10:56:34Z</time>
      </trkpt>
      <trkpt lat="45.99193" lon="4.90923">
        <ele>300</ele>
        <time>2018-10-31T10:56:36Z</time>
      </trkpt>
      <trkpt lat="45.99189" lon="4.90927">
        <ele>300</ele>
        <time>2018-10-31T10:56:37Z</time>
      </trkpt>
      <trkpt lat="45.99186" lon="4.90932">
        <ele>300</ele>
        <time>2018-10-31T10:56:38Z</time>
      </trkpt>
      <trkpt lat="45.99181" lon="4.90937">
        <ele>300</ele>
        <time>2018-10-31T10:56:39Z</time>
      </trkpt>
      <trkpt lat="45.99177" lon="4.90942">
        <ele>300</ele>
        <time>2018-10-31T10:56:40Z</time>
      </trkpt>
      <trkpt lat="45.99173" lon="4.90946">
        <ele>300</ele>
        <time>2018-10-31T10:56:41Z</time>
      </trkpt>
      <trkpt lat="45.99169" lon="4.90952">
        <ele>300</ele>
        <time>2018-10-31T10:56:42Z</time>
      </trkpt>
      <trkpt lat="45.99165" lon="4.90956">
        <ele>300</ele>
        <time>2018-10-31T10:56:43Z</time>
      </trkpt>
      <trkpt lat="45.99161" lon="4.90961">
        <ele>300</ele>
        <time>2018-10-31T10:56:44Z</time>
      </trkpt>
      <trkpt lat="45.99157" lon="4.90966">
        <ele>300</ele>
        <time>2018-10-31T10:56:45Z</time>
      </trkpt>
      <trkpt lat="45.99154" lon="4.90971">
        <ele>300</ele>
        <time>2018-10-31T10:56:46Z</time>
      </trkpt>
      <trkpt lat="45.99149" lon="4.90975">
        <ele>300</ele>
        <time>2018-10-31T10:56:47Z</time>
      </trkpt>
      <trkpt lat="45.99146" lon="4.9098">
        <ele>301</ele>
        <time>2018-10-31T10:56:48Z</time>
      </trkpt>
      <trkpt lat="45.99142" lon="4.90984">
        <ele>301</ele>
        <time>2018-10-31T10:56:49Z</time>
      </trkpt>
      <trkpt lat="45.99138" lon="4.90988">
        <ele>301</ele>
        <time>2018-10-31T10:56:50Z</time>
      </trkpt>
      <trkpt lat="45.99133" lon="4.90993">
        <ele>301</ele>
        <time>2018-10-31T10:56:51Z</time>
      </trkpt>
      <trkpt lat="45.99129" lon="4.90998">
        <ele>301</ele>
        <time>2018-10-31T10:56:52Z</time>
      </trkpt>
      <trkpt lat="45.99125" lon="4.91003">
        <ele>301</ele>
        <time>2018-10-31T10:56:53Z</time>
      </trkpt>
      <trkpt lat="45.99121" lon="4.91007">
        <ele>301</ele>
        <time>2018-10-31T10:56:54Z</time>
      </trkpt>
      <trkpt lat="45.99118" lon="4.91013">
        <ele>301</ele>
        <time>2018-10-31T10:56:55Z</time>
      </trkpt>
      <trkpt lat="45.99113" lon="4.91017">
        <ele>301</ele>
        <time>2018-10-31T10:56:56Z</time>
      </trkpt>
      <trkpt lat="45.99109" lon="4.91021">
        <ele>301</ele>
        <time>2018-10-31T10:56:57Z</time>
      </trkpt>
      <trkpt lat="45.99105" lon="4.91026">
        <ele>301</ele>
        <time>2018-10-31T10:56:58Z</time>
      </trkpt>
      <trkpt lat="45.99101" lon="4.91031">
        <ele>301</ele>
        <time>2018-10-31T10:56:59Z</time>
      </trkpt>
      <trkpt lat="45.99097" lon="4.91036">
        <ele>301</ele>
        <time>2018-10-31T10:57:00Z</time>
      </trkpt>
      <trkpt lat="45.99093" lon="4.91041">
        <ele>301</ele>
        <time>2018-10-31T10:57:01Z</time>
      </trkpt>
      <trkpt lat="45.99089" lon="4.91046">
        <ele>301</ele>
        <time>2018-10-31T10:57:02Z</time>
      </trkpt>
      <trkpt lat="45.99085" lon="4.91051">
        <ele>301</ele>
        <time>2018-10-31T10:57:03Z</time>
      </trkpt>
      <trkpt lat="45.99081" lon="4.91056">
        <ele>300</ele>
        <time>2018-10-31T10:57:04Z</time>
      </trkpt>
      <trkpt lat="45.99077" lon="4.91061">
        <ele>300</ele>
        <time>2018-10-31T10:57:05Z</time>
      </trkpt>
      <trkpt lat="45.99073" lon="4.91066">
        <ele>300</ele>
        <time>2018-10-31T10:57:06Z</time>
      </trkpt>
      <trkpt lat="45.99069" lon="4.91071">
        <ele>300</ele>
        <time>2018-10-31T10:57:07Z</time>
      </trkpt>
      <trkpt lat="45.99065" lon="4.91076">
        <ele>300</ele>
        <time>2018-10-31T10:57:08Z</time>
      </trkpt>
      <trkpt lat="45.99061" lon="4.91081">
        <ele>300</ele>
        <time>2018-10-31T10:57:09Z</time>
      </trkpt>
      <trkpt lat="45.99056" lon="4.91086">
        <ele>299</ele>
        <time>2018-10-31T10:57:10Z</time>
      </trkpt>
      <trkpt lat="45.99052" lon="4.91091">
        <ele>299</ele>
        <time>2018-10-31T10:57:11Z</time>
      </trkpt>
      <trkpt lat="45.99048" lon="4.91096">
        <ele>299</ele>
        <time>2018-10-31T10:57:12Z</time>
      </trkpt>
      <trkpt lat="45.99044" lon="4.91102">
        <ele>299</ele>
        <time>2018-10-31T10:57:13Z</time>
      </trkpt>
      <trkpt lat="45.99039" lon="4.91106">
        <ele>299</ele>
        <time>2018-10-31T10:57:14Z</time>
      </trkpt>
      <trkpt lat="45.99035" lon="4.91112">
        <ele>299</ele>
        <time>2018-10-31T10:57:15Z</time>
      </trkpt>
      <trkpt lat="45.99031" lon="4.91117">
        <ele>299</ele>
        <time>2018-10-31T10:57:16Z</time>
      </trkpt>
      <trkpt lat="45.99027" lon="4.91123">
        <ele>299</ele>
        <time>2018-10-31T10:57:17Z</time>
      </trkpt>
      <trkpt lat="45.99023" lon="4.91128">
        <ele>299</ele>
        <time>2018-10-31T10:57:18Z</time>
      </trkpt>
      <trkpt lat="45.99018" lon="4.91133">
        <ele>299</ele>
        <time>2018-10-31T10:57:19Z</time>
      </trkpt>
      <trkpt lat="45.99014" lon="4.91138">
        <ele>299</ele>
        <time>2018-10-31T10:57:20Z</time>
      </trkpt>
      <trkpt lat="45.9901" lon="4.91144">
        <ele>299</ele>
        <time>2018-10-31T10:57:21Z</time>
      </trkpt>
      <trkpt lat="45.99006" lon="4.91149">
        <ele>299</ele>
        <time>2018-10-31T10:57:22Z</time>
      </trkpt>
      <trkpt lat="45.99002" lon="4.91155">
        <ele>299</ele>
        <time>2018-10-31T10:57:23Z</time>
      </trkpt>
      <trkpt lat="45.98998" lon="4.91161">
        <ele>299</ele>
        <time>2018-10-31T10:57:24Z</time>
      </trkpt>
      <trkpt lat="45.98995" lon="4.91168">
        <ele>299</ele>
        <time>2018-10-31T10:57:25Z</time>
      </trkpt>
      <trkpt lat="45.98991" lon="4.91173">
        <ele>299</ele>
        <time>2018-10-31T10:57:26Z</time>
      </trkpt>
      <trkpt lat="45.98987" lon="4.9118">
        <ele>299</ele>
        <time>2018-10-31T10:57:27Z</time>
      </trkpt>
      <trkpt lat="45.98983" lon="4.91185">
        <ele>299</ele>
        <time>2018-10-31T10:57:28Z</time>
      </trkpt>
      <trkpt lat="45.98979" lon="4.9119">
        <ele>299</ele>
        <time>2018-10-31T10:57:29Z</time>
      </trkpt>
      <trkpt lat="45.98975" lon="4.91195">
        <ele>299</ele>
        <time>2018-10-31T10:57:30Z</time>
      </trkpt>
      <trkpt lat="45.98971" lon="4.91201">
        <ele>299</ele>
        <time>2018-10-31T10:57:31Z</time>
      </trkpt>
      <trkpt lat="45.98966" lon="4.91206">
        <ele>299</ele>
        <time>2018-10-31T10:57:32Z</time>
      </trkpt>
      <trkpt lat="45.98962" lon="4.91211">
        <ele>299</ele>
        <time>2018-10-31T10:57:33Z</time>
      </trkpt>
      <trkpt lat="45.98958" lon="4.91217">
        <ele>299</ele>
        <time>2018-10-31T10:57:34Z</time>
      </trkpt>
      <trkpt lat="45.98954" lon="4.91222">
        <ele>299</ele>
        <time>2018-10-31T10:57:35Z</time>
      </trkpt>
      <trkpt lat="45.98949" lon="4.91227">
        <ele>299</ele>
        <time>2018-10-31T10:57:36Z</time>
      </trkpt>
      <trkpt lat="45.98945" lon="4.91232">
        <ele>299</ele>
        <time>2018-10-31T10:57:37Z</time>
      </trkpt>
      <trkpt lat="45.98941" lon="4.91237">
        <ele>299</ele>
        <time>2018-10-31T10:57:38Z</time>
      </trkpt>
      <trkpt lat="45.98937" lon="4.91241">
        <ele>299</ele>
        <time>2018-10-31T10:57:39Z</time>
      </trkpt>
      <trkpt lat="45.98933" lon="4.91247">
        <ele>299</ele>
        <time>2018-10-31T10:57:40Z</time>
      </trkpt>
      <trkpt lat="45.98929" lon="4.91252">
        <ele>299</ele>
        <time>2018-10-31T10:57:41Z</time>
      </trkpt>
      <trkpt lat="45.98925" lon="4.91257">
        <ele>299</ele>
        <time>2018-10-31T10:57:42Z</time>
      </trkpt>
      <trkpt lat="45.98921" lon="4.91261">
        <ele>299</ele>
        <time>2018-10-31T10:57:43Z</time>
      </trkpt>
      <trkpt lat="45.98917" lon="4.91266">
        <ele>299</ele>
        <time>2018-10-31T10:57:44Z</time>
      </trkpt>
      <trkpt lat="45.98913" lon="4.91271">
        <ele>299</ele>
        <time>2018-10-31T10:57:45Z</time>
      </trkpt>
      <trkpt lat="45.98908" lon="4.91275">
        <ele>299</ele>
        <time>2018-10-31T10:57:46Z</time>
      </trkpt>
      <trkpt lat="45.98904" lon="4.9128">
        <ele>299</ele>
        <time>2018-10-31T10:57:47Z</time>
      </trkpt>
      <trkpt lat="45.989" lon="4.91285">
        <ele>299</ele>
        <time>2018-10-31T10:57:48Z</time>
      </trkpt>
      <trkpt lat="45.98897" lon="4.9129">
        <ele>299</ele>
        <time>2018-10-31T10:57:49Z</time>
      </trkpt>
      <trkpt lat="45.98892" lon="4.91296">
        <ele>299</ele>
        <time>2018-10-31T10:57:50Z</time>
      </trkpt>
      <trkpt lat="45.98888" lon="4.913">
        <ele>299</ele>
        <time>2018-10-31T10:57:51Z</time>
      </trkpt>
      <trkpt lat="45.98884" lon="4.91305">
        <ele>299</ele>
        <time>2018-10-31T10:57:52Z</time>
      </trkpt>
      <trkpt lat="45.9888" lon="4.9131">
        <ele>299</ele>
        <time>2018-10-31T10:57:53Z</time>
      </trkpt>
      <trkpt lat="45.98875" lon="4.91315">
        <ele>299</ele>
        <time>2018-10-31T10:57:54Z</time>
      </trkpt>
      <trkpt lat="45.98871" lon="4.91321">
        <ele>298</ele>
        <time>2018-10-31T10:57:55Z</time>
      </trkpt>
      <trkpt lat="45.98867" lon="4.91326">
        <ele>298</ele>
        <time>2018-10-31T10:57:56Z</time>
      </trkpt>
      <trkpt lat="45.98863" lon="4.91331">
        <ele>298</ele>
        <time>2018-10-31T10:57:57Z</time>
      </trkpt>
      <trkpt lat="45.98859" lon="4.91336">
        <ele>298</ele>
        <time>2018-10-31T10:57:58Z</time>
      </trkpt>
      <trkpt lat="45.98855" lon="4.91341">
        <ele>298</ele>
        <time>2018-10-31T10:57:59Z</time>
      </trkpt>
      <trkpt lat="45.9885" lon="4.91346">
        <ele>298</ele>
        <time>2018-10-31T10:58:00Z</time>
      </trkpt>
      <trkpt lat="45.98847" lon="4.91352">
        <ele>298</ele>
        <time>2018-10-31T10:58:01Z</time>
      </trkpt>
      <trkpt lat="45.98844" lon="4.91358">
        <ele>298</ele>
        <time>2018-10-31T10:58:02Z</time>
      </trkpt>
      <trkpt lat="45.98839" lon="4.91363">
        <ele>298</ele>
        <time>2018-10-31T10:58:03Z</time>
      </trkpt>
      <trkpt lat="45.98835" lon="4.91368">
        <ele>298</ele>
        <time>2018-10-31T10:58:04Z</time>
      </trkpt>
      <trkpt lat="45.98831" lon="4.91373">
        <ele>298</ele>
        <time>2018-10-31T10:58:05Z</time>
      </trkpt>
      <trkpt lat="45.98826" lon="4.91378">
        <ele>298</ele>
        <time>2018-10-31T10:58:06Z</time>
      </trkpt>
      <trkpt lat="45.98822" lon="4.91384">
        <ele>298</ele>
        <time>2018-10-31T10:58:07Z</time>
      </trkpt>
      <trkpt lat="45.98817" lon="4.91389">
        <ele>298</ele>
        <time>2018-10-31T10:58:08Z</time>
      </trkpt>
      <trkpt lat="45.98813" lon="4.91394">
        <ele>299</ele>
        <time>2018-10-31T10:58:09Z</time>
      </trkpt>
      <trkpt lat="45.98808" lon="4.91399">
        <ele>299</ele>
        <time>2018-10-31T10:58:10Z</time>
      </trkpt>
      <trkpt lat="45.98804" lon="4.91404">
        <ele>299</ele>
        <time>2018-10-31T10:58:11Z</time>
      </trkpt>
      <trkpt lat="45.98799" lon="4.9141">
        <ele>299</ele>
        <time>2018-10-31T10:58:12Z</time>
      </trkpt>
      <trkpt lat="45.98795" lon="4.91415">
        <ele>299</ele>
        <time>2018-10-31T10:58:13Z</time>
      </trkpt>
      <trkpt lat="45.9879" lon="4.9142">
        <ele>298</ele>
        <time>2018-10-31T10:58:14Z</time>
      </trkpt>
      <trkpt lat="45.98786" lon="4.91425">
        <ele>298</ele>
        <time>2018-10-31T10:58:15Z</time>
      </trkpt>
      <trkpt lat="45.98782" lon="4.9143">
        <ele>298</ele>
        <time>2018-10-31T10:58:16Z</time>
      </trkpt>
      <trkpt lat="45.98777" lon="4.91436">
        <ele>298</ele>
        <time>2018-10-31T10:58:17Z</time>
      </trkpt>
      <trkpt lat="45.98773" lon="4.91441">
        <ele>298</ele>
        <time>2018-10-31T10:58:18Z</time>
      </trkpt>
      <trkpt lat="45.98769" lon="4.91446">
        <ele>298</ele>
        <time>2018-10-31T10:58:19Z</time>
      </trkpt>
      <trkpt lat="45.98764" lon="4.91452">
        <ele>298</ele>
        <time>2018-10-31T10:58:20Z</time>
      </trkpt>
      <trkpt lat="45.9876" lon="4.91458">
        <ele>298</ele>
        <time>2018-10-31T10:58:21Z</time>
      </trkpt>
      <trkpt lat="45.98756" lon="4.91464">
        <ele>298</ele>
        <time>2018-10-31T10:58:22Z</time>
      </trkpt>
      <trkpt lat="45.98752" lon="4.9147">
        <ele>298</ele>
        <time>2018-10-31T10:58:23Z</time>
      </trkpt>
      <trkpt lat="45.98748" lon="4.91476">
        <ele>299</ele>
        <time>2018-10-31T10:58:24Z</time>
      </trkpt>
      <trkpt lat="45.98743" lon="4.91482">
        <ele>299</ele>
        <time>2018-10-31T10:58:25Z</time>
      </trkpt>
      <trkpt lat="45.98738" lon="4.91487">
        <ele>299</ele>
        <time>2018-10-31T10:58:26Z</time>
      </trkpt>
      <trkpt lat="45.98734" lon="4.91493">
        <ele>299</ele>
        <time>2018-10-31T10:58:27Z</time>
      </trkpt>
      <trkpt lat="45.98729" lon="4.91498">
        <ele>299</ele>
        <time>2018-10-31T10:58:28Z</time>
      </trkpt>
      <trkpt lat="45.98724" lon="4.91503">
        <ele>299</ele>
        <time>2018-10-31T10:58:29Z</time>
      </trkpt>
      <trkpt lat="45.9872" lon="4.91508">
        <ele>299</ele>
        <time>2018-10-31T10:58:30Z</time>
      </trkpt>
      <trkpt lat="45.98715" lon="4.91511">
        <ele>299</ele>
        <time>2018-10-31T10:58:31Z</time>
      </trkpt>
      <trkpt lat="45.98711" lon="4.91517">
        <ele>299</ele>
        <time>2018-10-31T10:58:32Z</time>
      </trkpt>
      <trkpt lat="45.98706" lon="4.91522">
        <ele>299</ele>
        <time>2018-10-31T10:58:33Z</time>
      </trkpt>
      <trkpt lat="45.98702" lon="4.91528">
        <ele>299</ele>
        <time>2018-10-31T10:58:34Z</time>
      </trkpt>
      <trkpt lat="45.98697" lon="4.91533">
        <ele>299</ele>
        <time>2018-10-31T10:58:35Z</time>
      </trkpt>
      <trkpt lat="45.98693" lon="4.91539">
        <ele>299</ele>
        <time>2018-10-31T10:58:36Z</time>
      </trkpt>
      <trkpt lat="45.98689" lon="4.91546">
        <ele>299</ele>
        <time>2018-10-31T10:58:37Z</time>
      </trkpt>
      <trkpt lat="45.98684" lon="4.91551">
        <ele>299</ele>
        <time>2018-10-31T10:58:38Z</time>
      </trkpt>
      <trkpt lat="45.98679" lon="4.91557">
        <ele>299</ele>
        <time>2018-10-31T10:58:39Z</time>
      </trkpt>
      <trkpt lat="45.98674" lon="4.91562">
        <ele>299</ele>
        <time>2018-10-31T10:58:40Z</time>
      </trkpt>
      <trkpt lat="45.9867" lon="4.91568">
        <ele>299</ele>
        <time>2018-10-31T10:58:41Z</time>
      </trkpt>
      <trkpt lat="45.98665" lon="4.91573">
        <ele>299</ele>
        <time>2018-10-31T10:58:42Z</time>
      </trkpt>
      <trkpt lat="45.98661" lon="4.91579">
        <ele>299</ele>
        <time>2018-10-31T10:58:43Z</time>
      </trkpt>
      <trkpt lat="45.98657" lon="4.91585">
        <ele>299</ele>
        <time>2018-10-31T10:58:44Z</time>
      </trkpt>
      <trkpt lat="45.98652" lon="4.9159">
        <ele>299</ele>
        <time>2018-10-31T10:58:45Z</time>
      </trkpt>
      <trkpt lat="45.98647" lon="4.91596">
        <ele>299</ele>
        <time>2018-10-31T10:58:46Z</time>
      </trkpt>
      <trkpt lat="45.98644" lon="4.91603">
        <ele>298</ele>
        <time>2018-10-31T10:58:47Z</time>
      </trkpt>
      <trkpt lat="45.98639" lon="4.91607">
        <ele>298</ele>
        <time>2018-10-31T10:58:48Z</time>
      </trkpt>
      <trkpt lat="45.98635" lon="4.91612">
        <ele>298</ele>
        <time>2018-10-31T10:58:49Z</time>
      </trkpt>
      <trkpt lat="45.98629" lon="4.91618">
        <ele>298</ele>
        <time>2018-10-31T10:58:50Z</time>
      </trkpt>
      <trkpt lat="45.98625" lon="4.91623">
        <ele>298</ele>
        <time>2018-10-31T10:58:51Z</time>
      </trkpt>
      <trkpt lat="45.9862" lon="4.91628">
        <ele>298</ele>
        <time>2018-10-31T10:58:52Z</time>
      </trkpt>
      <trkpt lat="45.98616" lon="4.91633">
        <ele>298</ele>
        <time>2018-10-31T10:58:53Z</time>
      </trkpt>
      <trkpt lat="45.98612" lon="4.91638">
        <ele>298</ele>
        <time>2018-10-31T10:58:54Z</time>
      </trkpt>
      <trkpt lat="45.98607" lon="4.91643">
        <ele>298</ele>
        <time>2018-10-31T10:58:55Z</time>
      </trkpt>
      <trkpt lat="45.98603" lon="4.91649">
        <ele>298</ele>
        <time>2018-10-31T10:58:56Z</time>
      </trkpt>
      <trkpt lat="45.98599" lon="4.91654">
        <ele>298</ele>
        <time>2018-10-31T10:58:57Z</time>
      </trkpt>
      <trkpt lat="45.98595" lon="4.91659">
        <ele>298</ele>
        <time>2018-10-31T10:58:58Z</time>
      </trkpt>
      <trkpt lat="45.98591" lon="4.91665">
        <ele>298</ele>
        <time>2018-10-31T10:58:59Z</time>
      </trkpt>
      <trkpt lat="45.98587" lon="4.9167">
        <ele>298</ele>
        <time>2018-10-31T10:59:00Z</time>
      </trkpt>
      <trkpt lat="45.98582" lon="4.91674">
        <ele>298</ele>
        <time>2018-10-31T10:59:01Z</time>
      </trkpt>
      <trkpt lat="45.98578" lon="4.91681">
        <ele>298</ele>
        <time>2018-10-31T10:59:02Z</time>
      </trkpt>
      <trkpt lat="45.98574" lon="4.91686">
        <ele>298</ele>
        <time>2018-10-31T10:59:03Z</time>
      </trkpt>
      <trkpt lat="45.98569" lon="4.9169">
        <ele>298</ele>
        <time>2018-10-31T10:59:04Z</time>
      </trkpt>
      <trkpt lat="45.98565" lon="4.91695">
        <ele>298</ele>
        <time>2018-10-31T10:59:05Z</time>
      </trkpt>
      <trkpt lat="45.9856" lon="4.917">
        <ele>298</ele>
        <time>2018-10-31T10:59:06Z</time>
      </trkpt>
      <trkpt lat="45.98557" lon="4.91705">
        <ele>298</ele>
        <time>2018-10-31T10:59:07Z</time>
      </trkpt>
      <trkpt lat="45.98552" lon="4.9171">
        <ele>298</ele>
        <time>2018-10-31T10:59:08Z</time>
      </trkpt>
      <trkpt lat="45.98548" lon="4.91715">
        <ele>298</ele>
        <time>2018-10-31T10:59:09Z</time>
      </trkpt>
      <trkpt lat="45.98543" lon="4.91721">
        <ele>298</ele>
        <time>2018-10-31T10:59:10Z</time>
      </trkpt>
      <trkpt lat="45.98539" lon="4.91726">
        <ele>297</ele>
        <time>2018-10-31T10:59:11Z</time>
      </trkpt>
      <trkpt lat="45.98534" lon="4.91731">
        <ele>297</ele>
        <time>2018-10-31T10:59:12Z</time>
      </trkpt>
      <trkpt lat="45.9853" lon="4.91737">
        <ele>297</ele>
        <time>2018-10-31T10:59:13Z</time>
      </trkpt>
      <trkpt lat="45.98526" lon="4.91741">
        <ele>297</ele>
        <time>2018-10-31T10:59:14Z</time>
      </trkpt>
      <trkpt lat="45.98522" lon="4.91746">
        <ele>297</ele>
        <time>2018-10-31T10:59:15Z</time>
      </trkpt>
      <trkpt lat="45.98518" lon="4.91752">
        <ele>297</ele>
        <time>2018-10-31T10:59:16Z</time>
      </trkpt>
      <trkpt lat="45.98514" lon="4.91758">
        <ele>297</ele>
        <time>2018-10-31T10:59:17Z</time>
      </trkpt>
      <trkpt lat="45.9851" lon="4.91762">
        <ele>297</ele>
        <time>2018-10-31T10:59:18Z</time>
      </trkpt>
      <trkpt lat="45.98506" lon="4.91767">
        <ele>297</ele>
        <time>2018-10-31T10:59:19Z</time>
      </trkpt>
      <trkpt lat="45.98502" lon="4.91773">
        <ele>297</ele>
        <time>2018-10-31T10:59:20Z</time>
      </trkpt>
      <trkpt lat="45.98498" lon="4.91778">
        <ele>297</ele>
        <time>2018-10-31T10:59:21Z</time>
      </trkpt>
      <trkpt lat="45.98494" lon="4.91783">
        <ele>297</ele>
        <time>2018-10-31T10:59:22Z</time>
      </trkpt>
      <trkpt lat="45.9849" lon="4.91788">
        <ele>297</ele>
        <time>2018-10-31T10:59:23Z</time>
      </trkpt>
      <trkpt lat="45.98486" lon="4.91793">
        <ele>297</ele>
        <time>2018-10-31T10:59:24Z</time>
      </trkpt>
      <trkpt lat="45.98482" lon="4.91798">
        <ele>297</ele>
        <time>2018-10-31T10:59:25Z</time>
      </trkpt>
      <trkpt lat="45.98477" lon="4.91803">
        <ele>297</ele>
        <time>2018-10-31T10:59:26Z</time>
      </trkpt>
      <trkpt lat="45.98473" lon="4.91808">
        <ele>297</ele>
        <time>2018-10-31T10:59:27Z</time>
      </trkpt>
      <trkpt lat="45.98469" lon="4.91813">
        <ele>297</ele>
        <time>2018-10-31T10:59:28Z</time>
      </trkpt>
      <trkpt lat="45.98465" lon="4.91818">
        <ele>297</ele>
        <time>2018-10-31T10:59:29Z</time>
      </trkpt>
      <trkpt lat="45.9846" lon="4.91823">
        <ele>297</ele>
        <time>2018-10-31T10:59:30Z</time>
      </trkpt>
      <trkpt lat="45.98459" lon="4.91831">
        <ele>297</ele>
        <time>2018-10-31T10:59:31Z</time>
      </trkpt>
      <trkpt lat="45.98454" lon="4.91835">
        <ele>297</ele>
        <time>2018-10-31T10:59:32Z</time>
      </trkpt>
      <trkpt lat="45.9845" lon="4.91839">
        <ele>297</ele>
        <time>2018-10-31T10:59:33Z</time>
      </trkpt>
      <trkpt lat="45.98447" lon="4.91845">
        <ele>297</ele>
        <time>2018-10-31T10:59:34Z</time>
      </trkpt>
      <trkpt lat="45.98443" lon="4.9185">
        <ele>297</ele>
        <time>2018-10-31T10:59:35Z</time>
      </trkpt>
      <trkpt lat="45.98438" lon="4.91855">
        <ele>297</ele>
        <time>2018-10-31T10:59:36Z</time>
      </trkpt>
      <trkpt lat="45.98434" lon="4.91859">
        <ele>297</ele>
        <time>2018-10-31T10:59:37Z</time>
      </trkpt>
      <trkpt lat="45.98429" lon="4.91864">
        <ele>297</ele>
        <time>2018-10-31T10:59:38Z</time>
      </trkpt>
      <trkpt lat="45.98425" lon="4.91869">
        <ele>297</ele>
        <time>2018-10-31T10:59:39Z</time>
      </trkpt>
      <trkpt lat="45.9842" lon="4.91874">
        <ele>297</ele>
        <time>2018-10-31T10:59:40Z</time>
      </trkpt>
      <trkpt lat="45.98416" lon="4.91879">
        <ele>297</ele>
        <time>2018-10-31T10:59:41Z</time>
      </trkpt>
      <trkpt lat="45.98412" lon="4.91884">
        <ele>297</ele>
        <time>2018-10-31T10:59:42Z</time>
      </trkpt>
      <trkpt lat="45.98408" lon="4.9189">
        <ele>297</ele>
        <time>2018-10-31T10:59:43Z</time>
      </trkpt>
      <trkpt lat="45.98403" lon="4.91894">
        <ele>297</ele>
        <time>2018-10-31T10:59:44Z</time>
      </trkpt>
      <trkpt lat="45.98399" lon="4.91899">
        <ele>297</ele>
        <time>2018-10-31T10:59:45Z</time>
      </trkpt>
      <trkpt lat="45.98395" lon="4.91905">
        <ele>297</ele>
        <time>2018-10-31T10:59:46Z</time>
      </trkpt>
      <trkpt lat="45.98391" lon="4.91911">
        <ele>297</ele>
        <time>2018-10-31T10:59:47Z</time>
      </trkpt>
      <trkpt lat="45.98386" lon="4.91916">
        <ele>298</ele>
        <time>2018-10-31T10:59:48Z</time>
      </trkpt>
      <trkpt lat="45.98382" lon="4.91921">
        <ele>297</ele>
        <time>2018-10-31T10:59:49Z</time>
      </trkpt>
      <trkpt lat="45.98378" lon="4.91926">
        <ele>297</ele>
        <time>2018-10-31T10:59:50Z</time>
      </trkpt>
      <trkpt lat="45.98374" lon="4.91932">
        <ele>298</ele>
        <time>2018-10-31T10:59:51Z</time>
      </trkpt>
      <trkpt lat="45.98369" lon="4.91938">
        <ele>298</ele>
        <time>2018-10-31T10:59:52Z</time>
      </trkpt>
      <trkpt lat="45.98365" lon="4.91942">
        <ele>298</ele>
        <time>2018-10-31T10:59:53Z</time>
      </trkpt>
      <trkpt lat="45.98361" lon="4.91947">
        <ele>298</ele>
        <time>2018-10-31T10:59:54Z</time>
      </trkpt>
      <trkpt lat="45.98357" lon="4.91952">
        <ele>298</ele>
        <time>2018-10-31T10:59:55Z</time>
      </trkpt>
      <trkpt lat="45.98352" lon="4.91957">
        <ele>298</ele>
        <time>2018-10-31T10:59:56Z</time>
      </trkpt>
      <trkpt lat="45.98349" lon="4.91961">
        <ele>297</ele>
        <time>2018-10-31T10:59:57Z</time>
      </trkpt>
      <trkpt lat="45.98344" lon="4.91966">
        <ele>297</ele>
        <time>2018-10-31T10:59:58Z</time>
      </trkpt>
      <trkpt lat="45.9834" lon="4.91971">
        <ele>297</ele>
        <time>2018-10-31T10:59:59Z</time>
      </trkpt>
      <trkpt lat="45.98335" lon="4.91976">
        <ele>297</ele>
        <time>2018-10-31T11:00:00Z</time>
      </trkpt>
      <trkpt lat="45.98332" lon="4.91982">
        <ele>298</ele>
        <time>2018-10-31T11:00:01Z</time>
      </trkpt>
      <trkpt lat="45.98327" lon="4.91986">
        <ele>298</ele>
        <time>2018-10-31T11:00:02Z</time>
      </trkpt>
      <trkpt lat="45.98323" lon="4.91992">
        <ele>298</ele>
        <time>2018-10-31T11:00:03Z</time>
      </trkpt>
      <trkpt lat="45.98319" lon="4.91997">
        <ele>298</ele>
        <time>2018-10-31T11:00:04Z</time>
      </trkpt>
      <trkpt lat="45.98315" lon="4.92003">
        <ele>298</ele>
        <time>2018-10-31T11:00:05Z</time>
      </trkpt>
      <trkpt lat="45.9831" lon="4.92008">
        <ele>298</ele>
        <time>2018-10-31T11:00:06Z</time>
      </trkpt>
      <trkpt lat="45.98306" lon="4.92013">
        <ele>298</ele>
        <time>2018-10-31T11:00:07Z</time>
      </trkpt>
      <trkpt lat="45.98302" lon="4.92017">
        <ele>298</ele>
        <time>2018-10-31T11:00:08Z</time>
      </trkpt>
      <trkpt lat="45.98298" lon="4.92023">
        <ele>298</ele>
        <time>2018-10-31T11:00:09Z</time>
      </trkpt>
      <trkpt lat="45.98294" lon="4.92028">
        <ele>298</ele>
        <time>2018-10-31T11:00:10Z</time>
      </trkpt>
      <trkpt lat="45.98291" lon="4.92033">
        <ele>298</ele>
        <time>2018-10-31T11:00:11Z</time>
      </trkpt>
      <trkpt lat="45.98287" lon="4.92038">
        <ele>298</ele>
        <time>2018-10-31T11:00:12Z</time>
      </trkpt>
      <trkpt lat="45.98283" lon="4.92043">
        <ele>298</ele>
        <time>2018-10-31T11:00:13Z</time>
      </trkpt>
      <trkpt lat="45.98279" lon="4.92048">
        <ele>298</ele>
        <time>2018-10-31T11:00:14Z</time>
      </trkpt>
      <trkpt lat="45.98275" lon="4.92053">
        <ele>298</ele>
        <time>2018-10-31T11:00:15Z</time>
      </trkpt>
      <trkpt lat="45.98272" lon="4.92057">
        <ele>298</ele>
        <time>2018-10-31T11:00:16Z</time>
      </trkpt>
      <trkpt lat="45.98268" lon="4.92062">
        <ele>298</ele>
        <time>2018-10-31T11:00:17Z</time>
      </trkpt>
      <trkpt lat="45.98264" lon="4.92067">
        <ele>298</ele>
        <time>2018-10-31T11:00:18Z</time>
      </trkpt>
      <trkpt lat="45.9826" lon="4.92073">
        <ele>299</ele>
        <time>2018-10-31T11:00:19Z</time>
      </trkpt>
      <trkpt lat="45.98256" lon="4.92078">
        <ele>299</ele>
        <time>2018-10-31T11:00:20Z</time>
      </trkpt>
      <trkpt lat="45.98251" lon="4.92083">
        <ele>299</ele>
        <time>2018-10-31T11:00:21Z</time>
      </trkpt>
      <trkpt lat="45.98247" lon="4.92088">
        <ele>299</ele>
        <time>2018-10-31T11:00:22Z</time>
      </trkpt>
      <trkpt lat="45.98243" lon="4.92093">
        <ele>299</ele>
        <time>2018-10-31T11:00:23Z</time>
      </trkpt>
      <trkpt lat="45.98239" lon="4.92098">
        <ele>299</ele>
        <time>2018-10-31T11:00:24Z</time>
      </trkpt>
      <trkpt lat="45.98234" lon="4.92104">
        <ele>299</ele>
        <time>2018-10-31T11:00:25Z</time>
      </trkpt>
      <trkpt lat="45.9823" lon="4.92109">
        <ele>299</ele>
        <time>2018-10-31T11:00:26Z</time>
      </trkpt>
      <trkpt lat="45.98226" lon="4.92113">
        <ele>299</ele>
        <time>2018-10-31T11:00:27Z</time>
      </trkpt>
      <trkpt lat="45.98221" lon="4.92117">
        <ele>299</ele>
        <time>2018-10-31T11:00:28Z</time>
      </trkpt>
      <trkpt lat="45.98218" lon="4.92122">
        <ele>299</ele>
        <time>2018-10-31T11:00:29Z</time>
      </trkpt>
      <trkpt lat="45.98213" lon="4.92126">
        <ele>299</ele>
        <time>2018-10-31T11:00:30Z</time>
      </trkpt>
      <trkpt lat="45.98209" lon="4.92131">
        <ele>299</ele>
        <time>2018-10-31T11:00:31Z</time>
      </trkpt>
      <trkpt lat="45.98205" lon="4.92135">
        <ele>299</ele>
        <time>2018-10-31T11:00:32Z</time>
      </trkpt>
      <trkpt lat="45.98201" lon="4.9214">
        <ele>299</ele>
        <time>2018-10-31T11:00:33Z</time>
      </trkpt>
      <trkpt lat="45.98196" lon="4.92146">
        <ele>299</ele>
        <time>2018-10-31T11:00:34Z</time>
      </trkpt>
      <trkpt lat="45.98192" lon="4.92151">
        <ele>299</ele>
        <time>2018-10-31T11:00:35Z</time>
      </trkpt>
      <trkpt lat="45.98189" lon="4.92155">
        <ele>299</ele>
        <time>2018-10-31T11:00:36Z</time>
      </trkpt>
      <trkpt lat="45.98184" lon="4.9216">
        <ele>299</ele>
        <time>2018-10-31T11:00:37Z</time>
      </trkpt>
      <trkpt lat="45.9818" lon="4.92165">
        <ele>299</ele>
        <time>2018-10-31T11:00:38Z</time>
      </trkpt>
      <trkpt lat="45.98176" lon="4.92171">
        <ele>299</ele>
        <time>2018-10-31T11:00:39Z</time>
      </trkpt>
      <trkpt lat="45.98172" lon="4.92176">
        <ele>299</ele>
        <time>2018-10-31T11:00:40Z</time>
      </trkpt>
      <trkpt lat="45.98168" lon="4.92181">
        <ele>299</ele>
        <time>2018-10-31T11:00:41Z</time>
      </trkpt>
      <trkpt lat="45.98164" lon="4.92186">
        <ele>299</ele>
        <time>2018-10-31T11:00:42Z</time>
      </trkpt>
      <trkpt lat="45.9816" lon="4.92192">
        <ele>299</ele>
        <time>2018-10-31T11:00:43Z</time>
      </trkpt>
      <trkpt lat="45.98156" lon="4.92197">
        <ele>299</ele>
        <time>2018-10-31T11:00:44Z</time>
      </trkpt>
      <trkpt lat="45.98152" lon="4.92202">
        <ele>299</ele>
        <time>2018-10-31T11:00:45Z</time>
      </trkpt>
      <trkpt lat="45.98148" lon="4.92206">
        <ele>299</ele>
        <time>2018-10-31T11:00:46Z</time>
      </trkpt>
      <trkpt lat="45.98144" lon="4.92211">
        <ele>299</ele>
        <time>2018-10-31T11:00:47Z</time>
      </trkpt>
      <trkpt lat="45.9814" lon="4.92217">
        <ele>299</ele>
        <time>2018-10-31T11:00:48Z</time>
      </trkpt>
      <trkpt lat="45.98136" lon="4.92221">
        <ele>299</ele>
        <time>2018-10-31T11:00:49Z</time>
      </trkpt>
      <trkpt lat="45.98132" lon="4.92226">
        <ele>299</ele>
        <time>2018-10-31T11:00:50Z</time>
      </trkpt>
      <trkpt lat="45.98128" lon="4.92231">
        <ele>299</ele>
        <time>2018-10-31T11:00:51Z</time>
      </trkpt>
      <trkpt lat="45.98124" lon="4.92235">
        <ele>299</ele>
        <time>2018-10-31T11:00:52Z</time>
      </trkpt>
      <trkpt lat="45.98119" lon="4.9224">
        <ele>299</ele>
        <time>2018-10-31T11:00:53Z</time>
      </trkpt>
      <trkpt lat="45.98115" lon="4.92244">
        <ele>299</ele>
        <time>2018-10-31T11:00:54Z</time>
      </trkpt>
      <trkpt lat="45.9811" lon="4.92249">
        <ele>299</ele>
        <time>2018-10-31T11:00:55Z</time>
      </trkpt>
      <trkpt lat="45.98106" lon="4.92254">
        <ele>300</ele>
        <time>2018-10-31T11:00:56Z</time>
      </trkpt>
      <trkpt lat="45.98102" lon="4.92258">
        <ele>300</ele>
        <time>2018-10-31T11:00:57Z</time>
      </trkpt>
      <trkpt lat="45.98098" lon="4.92263">
        <ele>300</ele>
        <time>2018-10-31T11:00:58Z</time>
      </trkpt>
      <trkpt lat="45.98094" lon="4.92268">
        <ele>300</ele>
        <time>2018-10-31T11:00:59Z</time>
      </trkpt>
      <trkpt lat="45.9809" lon="4.92273">
        <ele>300</ele>
        <time>2018-10-31T11:01:00Z</time>
      </trkpt>
      <trkpt lat="45.98085" lon="4.92276">
        <ele>300</ele>
        <time>2018-10-31T11:01:01Z</time>
      </trkpt>
      <trkpt lat="45.9808" lon="4.92281">
        <ele>299</ele>
        <time>2018-10-31T11:01:02Z</time>
      </trkpt>
      <trkpt lat="45.98076" lon="4.92286">
        <ele>299</ele>
        <time>2018-10-31T11:01:03Z</time>
      </trkpt>
      <trkpt lat="45.98073" lon="4.92291">
        <ele>299</ele>
        <time>2018-10-31T11:01:04Z</time>
      </trkpt>
      <trkpt lat="45.98068" lon="4.92296">
        <ele>299</ele>
        <time>2018-10-31T11:01:05Z</time>
      </trkpt>
      <trkpt lat="45.98065" lon="4.92301">
        <ele>299</ele>
        <time>2018-10-31T11:01:06Z</time>
      </trkpt>
      <trkpt lat="45.9806" lon="4.92307">
        <ele>299</ele>
        <time>2018-10-31T11:01:07Z</time>
      </trkpt>
      <trkpt lat="45.98055" lon="4.92313">
        <ele>299</ele>
        <time>2018-10-31T11:01:08Z</time>
      </trkpt>
      <trkpt lat="45.98051" lon="4.92317">
        <ele>299</ele>
        <time>2018-10-31T11:01:09Z</time>
      </trkpt>
      <trkpt lat="45.98047" lon="4.92322">
        <ele>299</ele>
        <time>2018-10-31T11:01:10Z</time>
      </trkpt>
      <trkpt lat="45.98043" lon="4.92327">
        <ele>299</ele>
        <time>2018-10-31T11:01:11Z</time>
      </trkpt>
      <trkpt lat="45.98039" lon="4.92332">
        <ele>299</ele>
        <time>2018-10-31T11:01:12Z</time>
      </trkpt>
      <trkpt lat="45.98035" lon="4.92337">
        <ele>299</ele>
        <time>2018-10-31T11:01:13Z</time>
      </trkpt>
      <trkpt lat="45.9803" lon="4.92341">
        <ele>299</ele>
        <time>2018-10-31T11:01:14Z</time>
      </trkpt>
      <trkpt lat="45.98027" lon="4.92346">
        <ele>298</ele>
        <time>2018-10-31T11:01:15Z</time>
      </trkpt>
      <trkpt lat="45.98022" lon="4.92351">
        <ele>298</ele>
        <time>2018-10-31T11:01:16Z</time>
      </trkpt>
      <trkpt lat="45.98019" lon="4.92356">
        <ele>298</ele>
        <time>2018-10-31T11:01:17Z</time>
      </trkpt>
      <trkpt lat="45.98014" lon="4.92363">
        <ele>298</ele>
        <time>2018-10-31T11:01:18Z</time>
      </trkpt>
      <trkpt lat="45.9801" lon="4.92367">
        <ele>298</ele>
        <time>2018-10-31T11:01:19Z</time>
      </trkpt>
      <trkpt lat="45.98005" lon="4.92372">
        <ele>298</ele>
        <time>2018-10-31T11:01:20Z</time>
      </trkpt>
      <trkpt lat="45.98001" lon="4.92376">
        <ele>298</ele>
        <time>2018-10-31T11:01:21Z</time>
      </trkpt>
      <trkpt lat="45.97997" lon="4.92381">
        <ele>298</ele>
        <time>2018-10-31T11:01:22Z</time>
      </trkpt>
      <trkpt lat="45.97992" lon="4.92387">
        <ele>298</ele>
        <time>2018-10-31T11:01:23Z</time>
      </trkpt>
      <trkpt lat="45.97988" lon="4.92392">
        <ele>298</ele>
        <time>2018-10-31T11:01:24Z</time>
      </trkpt>
      <trkpt lat="45.97985" lon="4.92397">
        <ele>298</ele>
        <time>2018-10-31T11:01:25Z</time>
      </trkpt>
      <trkpt lat="45.9798" lon="4.92402">
        <ele>298</ele>
        <time>2018-10-31T11:01:26Z</time>
      </trkpt>
      <trkpt lat="45.97976" lon="4.92407">
        <ele>298</ele>
        <time>2018-10-31T11:01:27Z</time>
      </trkpt>
      <trkpt lat="45.97973" lon="4.92412">
        <ele>298</ele>
        <time>2018-10-31T11:01:28Z</time>
      </trkpt>
      <trkpt lat="45.97968" lon="4.92417">
        <ele>298</ele>
        <time>2018-10-31T11:01:29Z</time>
      </trkpt>
      <trkpt lat="45.97964" lon="4.92421">
        <ele>298</ele>
        <time>2018-10-31T11:01:30Z</time>
      </trkpt>
      <trkpt lat="45.9796" lon="4.92426">
        <ele>298</ele>
        <time>2018-10-31T11:01:31Z</time>
      </trkpt>
      <trkpt lat="45.97956" lon="4.92431">
        <ele>299</ele>
        <time>2018-10-31T11:01:32Z</time>
      </trkpt>
      <trkpt lat="45.97952" lon="4.92435">
        <ele>299</ele>
        <time>2018-10-31T11:01:33Z</time>
      </trkpt>
      <trkpt lat="45.97947" lon="4.92441">
        <ele>299</ele>
        <time>2018-10-31T11:01:34Z</time>
      </trkpt>
      <trkpt lat="45.97944" lon="4.92445">
        <ele>299</ele>
        <time>2018-10-31T11:01:35Z</time>
      </trkpt>
      <trkpt lat="45.9794" lon="4.9245">
        <ele>299</ele>
        <time>2018-10-31T11:01:36Z</time>
      </trkpt>
      <trkpt lat="45.97936" lon="4.92454">
        <ele>299</ele>
        <time>2018-10-31T11:01:37Z</time>
      </trkpt>
      <trkpt lat="45.97932" lon="4.92459">
        <ele>299</ele>
        <time>2018-10-31T11:01:38Z</time>
      </trkpt>
      <trkpt lat="45.97929" lon="4.92464">
        <ele>299</ele>
        <time>2018-10-31T11:01:39Z</time>
      </trkpt>
      <trkpt lat="45.97925" lon="4.92469">
        <ele>299</ele>
        <time>2018-10-31T11:01:40Z</time>
      </trkpt>
      <trkpt lat="45.97921" lon="4.92474">
        <ele>299</ele>
        <time>2018-10-31T11:01:41Z</time>
      </trkpt>
      <trkpt lat="45.97917" lon="4.92478">
        <ele>299</ele>
        <time>2018-10-31T11:01:42Z</time>
      </trkpt>
      <trkpt lat="45.97914" lon="4.92482">
        <ele>299</ele>
        <time>2018-10-31T11:01:43Z</time>
      </trkpt>
      <trkpt lat="45.9791" lon="4.92486">
        <ele>299</ele>
        <time>2018-10-31T11:01:44Z</time>
      </trkpt>
      <trkpt lat="45.97907" lon="4.92491">
        <ele>299</ele>
        <time>2018-10-31T11:01:45Z</time>
      </trkpt>
      <trkpt lat="45.97903" lon="4.92495">
        <ele>299</ele>
        <time>2018-10-31T11:01:46Z</time>
      </trkpt>
      <trkpt lat="45.979" lon="4.925">
        <ele>299</ele>
        <time>2018-10-31T11:01:47Z</time>
      </trkpt>
      <trkpt lat="45.97897" lon="4.92505">
        <ele>299</ele>
        <time>2018-10-31T11:01:48Z</time>
      </trkpt>
      <trkpt lat="45.97893" lon="4.92509">
        <ele>300</ele>
        <time>2018-10-31T11:01:49Z</time>
      </trkpt>
      <trkpt lat="45.97888" lon="4.92514">
        <ele>300</ele>
        <time>2018-10-31T11:01:50Z</time>
      </trkpt>
      <trkpt lat="45.97884" lon="4.92518">
        <ele>300</ele>
        <time>2018-10-31T11:01:51Z</time>
      </trkpt>
      <trkpt lat="45.9788" lon="4.92522">
        <ele>300</ele>
        <time>2018-10-31T11:01:52Z</time>
      </trkpt>
      <trkpt lat="45.97876" lon="4.92528">
        <ele>300</ele>
        <time>2018-10-31T11:01:53Z</time>
      </trkpt>
      <trkpt lat="45.97872" lon="4.92532">
        <ele>300</ele>
        <time>2018-10-31T11:01:54Z</time>
      </trkpt>
      <trkpt lat="45.97869" lon="4.92537">
        <ele>300</ele>
        <time>2018-10-31T11:01:55Z</time>
      </trkpt>
      <trkpt lat="45.97865" lon="4.92541">
        <ele>300</ele>
        <time>2018-10-31T11:01:56Z</time>
      </trkpt>
      <trkpt lat="45.97861" lon="4.92546">
        <ele>300</ele>
        <time>2018-10-31T11:01:57Z</time>
      </trkpt>
      <trkpt lat="45.97858" lon="4.92551">
        <ele>300</ele>
        <time>2018-10-31T11:01:58Z</time>
      </trkpt>
      <trkpt lat="45.97854" lon="4.92555">
        <ele>300</ele>
        <time>2018-10-31T11:01:59Z</time>
      </trkpt>
      <trkpt lat="45.9785" lon="4.92561">
        <ele>300</ele>
        <time>2018-10-31T11:02:00Z</time>
      </trkpt>
      <trkpt lat="45.97846" lon="4.92565">
        <ele>300</ele>
        <time>2018-10-31T11:02:01Z</time>
      </trkpt>
      <trkpt lat="45.97842" lon="4.9257">
        <ele>300</ele>
        <time>2018-10-31T11:02:02Z</time>
      </trkpt>
      <trkpt lat="45.97838" lon="4.92576">
        <ele>300</ele>
        <time>2018-10-31T11:02:03Z</time>
      </trkpt>
      <trkpt lat="45.97834" lon="4.92581">
        <ele>300</ele>
        <time>2018-10-31T11:02:04Z</time>
      </trkpt>
      <trkpt lat="45.97829" lon="4.92585">
        <ele>300</ele>
        <time>2018-10-31T11:02:05Z</time>
      </trkpt>
      <trkpt lat="45.97825" lon="4.92591">
        <ele>300</ele>
        <time>2018-10-31T11:02:06Z</time>
      </trkpt>
      <trkpt lat="45.97821" lon="4.92596">
        <ele>300</ele>
        <time>2018-10-31T11:02:07Z</time>
      </trkpt>
      <trkpt lat="45.97816" lon="4.92601">
        <ele>300</ele>
        <time>2018-10-31T11:02:08Z</time>
      </trkpt>
      <trkpt lat="45.97813" lon="4.92608">
        <ele>300</ele>
        <time>2018-10-31T11:02:09Z</time>
      </trkpt>
      <trkpt lat="45.97809" lon="4.92613">
        <ele>300</ele>
        <time>2018-10-31T11:02:10Z</time>
      </trkpt>
      <trkpt lat="45.97804" lon="4.92617">
        <ele>300</ele>
        <time>2018-10-31T11:02:11Z</time>
      </trkpt>
      <trkpt lat="45.978" lon="4.92624">
        <ele>300</ele>
        <time>2018-10-31T11:02:12Z</time>
      </trkpt>
      <trkpt lat="45.97797" lon="4.9263">
        <ele>301</ele>
        <time>2018-10-31T11:02:13Z</time>
      </trkpt>
      <trkpt lat="45.97793" lon="4.92636">
        <ele>301</ele>
        <time>2018-10-31T11:02:14Z</time>
      </trkpt>
      <trkpt lat="45.97789" lon="4.92641">
        <ele>300</ele>
        <time>2018-10-31T11:02:15Z</time>
      </trkpt>
      <trkpt lat="45.97785" lon="4.92646">
        <ele>300</ele>
        <time>2018-10-31T11:02:16Z</time>
      </trkpt>
      <trkpt lat="45.97781" lon="4.92651">
        <ele>300</ele>
        <time>2018-10-31T11:02:17Z</time>
      </trkpt>
      <trkpt lat="45.97776" lon="4.92656">
        <ele>300</ele>
        <time>2018-10-31T11:02:18Z</time>
      </trkpt>
      <trkpt lat="45.97772" lon="4.92661">
        <ele>300</ele>
        <time>2018-10-31T11:02:19Z</time>
      </trkpt>
      <trkpt lat="45.97767" lon="4.92666">
        <ele>300</ele>
        <time>2018-10-31T11:02:20Z</time>
      </trkpt>
      <trkpt lat="45.97763" lon="4.92671">
        <ele>300</ele>
        <time>2018-10-31T11:02:21Z</time>
      </trkpt>
      <trkpt lat="45.97759" lon="4.92676">
        <ele>300</ele>
        <time>2018-10-31T11:02:22Z</time>
      </trkpt>
      <trkpt lat="45.97755" lon="4.92681">
        <ele>300</ele>
        <time>2018-10-31T11:02:23Z</time>
      </trkpt>
      <trkpt lat="45.97751" lon="4.92686">
        <ele>300</ele>
        <time>2018-10-31T11:02:24Z</time>
      </trkpt>
      <trkpt lat="45.97747" lon="4.92692">
        <ele>301</ele>
        <time>2018-10-31T11:02:25Z</time>
      </trkpt>
      <trkpt lat="45.97743" lon="4.92697">
        <ele>301</ele>
        <time>2018-10-31T11:02:26Z</time>
      </trkpt>
      <trkpt lat="45.97738" lon="4.92702">
        <ele>301</ele>
        <time>2018-10-31T11:02:27Z</time>
      </trkpt>
      <trkpt lat="45.97734" lon="4.92706">
        <ele>301</ele>
        <time>2018-10-31T11:02:28Z</time>
      </trkpt>
      <trkpt lat="45.9773" lon="4.92712">
        <ele>301</ele>
        <time>2018-10-31T11:02:29Z</time>
      </trkpt>
      <trkpt lat="45.97725" lon="4.92717">
        <ele>301</ele>
        <time>2018-10-31T11:02:30Z</time>
      </trkpt>
      <trkpt lat="45.9772" lon="4.92722">
        <ele>301</ele>
        <time>2018-10-31T11:02:31Z</time>
      </trkpt>
      <trkpt lat="45.97716" lon="4.92727">
        <ele>301</ele>
        <time>2018-10-31T11:02:32Z</time>
      </trkpt>
      <trkpt lat="45.97712" lon="4.92732">
        <ele>301</ele>
        <time>2018-10-31T11:02:33Z</time>
      </trkpt>
      <trkpt lat="45.97707" lon="4.92738">
        <ele>302</ele>
        <time>2018-10-31T11:02:34Z</time>
      </trkpt>
      <trkpt lat="45.97703" lon="4.92743">
        <ele>302</ele>
        <time>2018-10-31T11:02:35Z</time>
      </trkpt>
      <trkpt lat="45.97699" lon="4.92748">
        <ele>302</ele>
        <time>2018-10-31T11:02:36Z</time>
      </trkpt>
      <trkpt lat="45.97695" lon="4.92753">
        <ele>301</ele>
        <time>2018-10-31T11:02:37Z</time>
      </trkpt>
      <trkpt lat="45.97691" lon="4.92758">
        <ele>301</ele>
        <time>2018-10-31T11:02:38Z</time>
      </trkpt>
      <trkpt lat="45.97687" lon="4.92763">
        <ele>302</ele>
        <time>2018-10-31T11:02:39Z</time>
      </trkpt>
      <trkpt lat="45.97683" lon="4.92768">
        <ele>302</ele>
        <time>2018-10-31T11:02:40Z</time>
      </trkpt>
      <trkpt lat="45.97679" lon="4.92773">
        <ele>301</ele>
        <time>2018-10-31T11:02:41Z</time>
      </trkpt>
      <trkpt lat="45.97675" lon="4.92779">
        <ele>301</ele>
        <time>2018-10-31T11:02:42Z</time>
      </trkpt>
      <trkpt lat="45.9767" lon="4.92784">
        <ele>301</ele>
        <time>2018-10-31T11:02:43Z</time>
      </trkpt>
      <trkpt lat="45.97666" lon="4.92788">
        <ele>301</ele>
        <time>2018-10-31T11:02:44Z</time>
      </trkpt>
      <trkpt lat="45.97662" lon="4.92794">
        <ele>301</ele>
        <time>2018-10-31T11:02:45Z</time>
      </trkpt>
      <trkpt lat="45.97658" lon="4.92799">
        <ele>301</ele>
        <time>2018-10-31T11:02:46Z</time>
      </trkpt>
      <trkpt lat="45.97653" lon="4.92803">
        <ele>300</ele>
        <time>2018-10-31T11:02:47Z</time>
      </trkpt>
      <trkpt lat="45.9765" lon="4.92809">
        <ele>300</ele>
        <time>2018-10-31T11:02:48Z</time>
      </trkpt>
      <trkpt lat="45.97645" lon="4.92815">
        <ele>300</ele>
        <time>2018-10-31T11:02:49Z</time>
      </trkpt>
      <trkpt lat="45.97641" lon="4.9282">
        <ele>300</ele>
        <time>2018-10-31T11:02:50Z</time>
      </trkpt>
      <trkpt lat="45.97638" lon="4.92825">
        <ele>300</ele>
        <time>2018-10-31T11:02:51Z</time>
      </trkpt>
      <trkpt lat="45.97634" lon="4.92831">
        <ele>300</ele>
        <time>2018-10-31T11:02:52Z</time>
      </trkpt>
      <trkpt lat="45.9763" lon="4.92836">
        <ele>298</ele>
        <time>2018-10-31T11:02:53Z</time>
      </trkpt>
      <trkpt lat="45.97625" lon="4.92841">
        <ele>298</ele>
        <time>2018-10-31T11:02:54Z</time>
      </trkpt>
      <trkpt lat="45.97621" lon="4.92846">
        <ele>298</ele>
        <time>2018-10-31T11:02:55Z</time>
      </trkpt>
      <trkpt lat="45.97617" lon="4.92851">
        <ele>298</ele>
        <time>2018-10-31T11:02:56Z</time>
      </trkpt>
      <trkpt lat="45.97613" lon="4.92856">
        <ele>298</ele>
        <time>2018-10-31T11:02:57Z</time>
      </trkpt>
      <trkpt lat="45.97608" lon="4.92861">
        <ele>298</ele>
        <time>2018-10-31T11:02:58Z</time>
      </trkpt>
      <trkpt lat="45.97604" lon="4.92866">
        <ele>298</ele>
        <time>2018-10-31T11:02:59Z</time>
      </trkpt>
      <trkpt lat="45.976" lon="4.92871">
        <ele>298</ele>
        <time>2018-10-31T11:03:00Z</time>
      </trkpt>
      <trkpt lat="45.97596" lon="4.92876">
        <ele>298</ele>
        <time>2018-10-31T11:03:01Z</time>
      </trkpt>
      <trkpt lat="45.97592" lon="4.92881">
        <ele>298</ele>
        <time>2018-10-31T11:03:02Z</time>
      </trkpt>
      <trkpt lat="45.97587" lon="4.92885">
        <ele>298</ele>
        <time>2018-10-31T11:03:03Z</time>
      </trkpt>
      <trkpt lat="45.97582" lon="4.9289">
        <ele>298</ele>
        <time>2018-10-31T11:03:04Z</time>
      </trkpt>
      <trkpt lat="45.97578" lon="4.92895">
        <ele>298</ele>
        <time>2018-10-31T11:03:05Z</time>
      </trkpt>
      <trkpt lat="45.97574" lon="4.929">
        <ele>298</ele>
        <time>2018-10-31T11:03:06Z</time>
      </trkpt>
      <trkpt lat="45.9757" lon="4.92905">
        <ele>298</ele>
        <time>2018-10-31T11:03:07Z</time>
      </trkpt>
      <trkpt lat="45.97565" lon="4.9291">
        <ele>298</ele>
        <time>2018-10-31T11:03:08Z</time>
      </trkpt>
      <trkpt lat="45.97561" lon="4.92917">
        <ele>298</ele>
        <time>2018-10-31T11:03:09Z</time>
      </trkpt>
      <trkpt lat="45.97558" lon="4.92921">
        <ele>298</ele>
        <time>2018-10-31T11:03:10Z</time>
      </trkpt>
      <trkpt lat="45.97554" lon="4.92926">
        <ele>298</ele>
        <time>2018-10-31T11:03:11Z</time>
      </trkpt>
      <trkpt lat="45.9755" lon="4.92931">
        <ele>299</ele>
        <time>2018-10-31T11:03:12Z</time>
      </trkpt>
      <trkpt lat="45.97545" lon="4.92937">
        <ele>299</ele>
        <time>2018-10-31T11:03:13Z</time>
      </trkpt>
      <trkpt lat="45.97541" lon="4.92942">
        <ele>299</ele>
        <time>2018-10-31T11:03:14Z</time>
      </trkpt>
      <trkpt lat="45.97537" lon="4.92947">
        <ele>299</ele>
        <time>2018-10-31T11:03:15Z</time>
      </trkpt>
      <trkpt lat="45.97533" lon="4.92951">
        <ele>299</ele>
        <time>2018-10-31T11:03:16Z</time>
      </trkpt>
      <trkpt lat="45.97528" lon="4.92958">
        <ele>299</ele>
        <time>2018-10-31T11:03:17Z</time>
      </trkpt>
      <trkpt lat="45.97524" lon="4.92963">
        <ele>299</ele>
        <time>2018-10-31T11:03:18Z</time>
      </trkpt>
      <trkpt lat="45.9752" lon="4.92968">
        <ele>299</ele>
        <time>2018-10-31T11:03:19Z</time>
      </trkpt>
      <trkpt lat="45.97516" lon="4.92974">
        <ele>299</ele>
        <time>2018-10-31T11:03:20Z</time>
      </trkpt>
      <trkpt lat="45.97512" lon="4.92979">
        <ele>299</ele>
        <time>2018-10-31T11:03:21Z</time>
      </trkpt>
      <trkpt lat="45.97507" lon="4.92985">
        <ele>299</ele>
        <time>2018-10-31T11:03:22Z</time>
      </trkpt>
      <trkpt lat="45.97503" lon="4.92989">
        <ele>299</ele>
        <time>2018-10-31T11:03:23Z</time>
      </trkpt>
      <trkpt lat="45.97499" lon="4.92994">
        <ele>299</ele>
        <time>2018-10-31T11:03:24Z</time>
      </trkpt>
      <trkpt lat="45.97495" lon="4.92999">
        <ele>299</ele>
        <time>2018-10-31T11:03:25Z</time>
      </trkpt>
      <trkpt lat="45.9749" lon="4.93004">
        <ele>299</ele>
        <time>2018-10-31T11:03:26Z</time>
      </trkpt>
      <trkpt lat="45.97486" lon="4.93009">
        <ele>299</ele>
        <time>2018-10-31T11:03:27Z</time>
      </trkpt>
      <trkpt lat="45.97483" lon="4.93013">
        <ele>299</ele>
        <time>2018-10-31T11:03:28Z</time>
      </trkpt>
      <trkpt lat="45.97478" lon="4.93018">
        <ele>299</ele>
        <time>2018-10-31T11:03:29Z</time>
      </trkpt>
      <trkpt lat="45.97474" lon="4.93022">
        <ele>299</ele>
        <time>2018-10-31T11:03:30Z</time>
      </trkpt>
      <trkpt lat="45.9747" lon="4.93027">
        <ele>299</ele>
        <time>2018-10-31T11:03:31Z</time>
      </trkpt>
      <trkpt lat="45.97467" lon="4.93034">
        <ele>299</ele>
        <time>2018-10-31T11:03:32Z</time>
      </trkpt>
      <trkpt lat="45.97463" lon="4.93038">
        <ele>299</ele>
        <time>2018-10-31T11:03:33Z</time>
      </trkpt>
      <trkpt lat="45.97459" lon="4.93043">
        <ele>299</ele>
        <time>2018-10-31T11:03:34Z</time>
      </trkpt>
      <trkpt lat="45.97455" lon="4.93048">
        <ele>299</ele>
        <time>2018-10-31T11:03:35Z</time>
      </trkpt>
      <trkpt lat="45.97451" lon="4.93053">
        <ele>299</ele>
        <time>2018-10-31T11:03:36Z</time>
      </trkpt>
      <trkpt lat="45.97447" lon="4.93058">
        <ele>299</ele>
        <time>2018-10-31T11:03:37Z</time>
      </trkpt>
      <trkpt lat="45.97444" lon="4.93062">
        <ele>299</ele>
        <time>2018-10-31T11:03:38Z</time>
      </trkpt>
      <trkpt lat="45.97439" lon="4.93066">
        <ele>299</ele>
        <time>2018-10-31T11:03:39Z</time>
      </trkpt>
      <trkpt lat="45.97437" lon="4.93073">
        <ele>299</ele>
        <time>2018-10-31T11:03:40Z</time>
      </trkpt>
      <trkpt lat="45.97434" lon="4.93078">
        <ele>299</ele>
        <time>2018-10-31T11:03:41Z</time>
      </trkpt>
      <trkpt lat="45.9743" lon="4.93082">
        <ele>299</ele>
        <time>2018-10-31T11:03:42Z</time>
      </trkpt>
      <trkpt lat="45.97425" lon="4.93087">
        <ele>299</ele>
        <time>2018-10-31T11:03:43Z</time>
      </trkpt>
      <trkpt lat="45.97421" lon="4.93092">
        <ele>299</ele>
        <time>2018-10-31T11:03:44Z</time>
      </trkpt>
      <trkpt lat="45.97418" lon="4.93097">
        <ele>299</ele>
        <time>2018-10-31T11:03:45Z</time>
      </trkpt>
      <trkpt lat="45.97412" lon="4.93101">
        <ele>299</ele>
        <time>2018-10-31T11:03:46Z</time>
      </trkpt>
      <trkpt lat="45.97409" lon="4.93105">
        <ele>300</ele>
        <time>2018-10-31T11:03:47Z</time>
      </trkpt>
      <trkpt lat="45.97406" lon="4.93109">
        <ele>300</ele>
        <time>2018-10-31T11:03:48Z</time>
      </trkpt>
      <trkpt lat="45.97402" lon="4.93114">
        <ele>300</ele>
        <time>2018-10-31T11:03:49Z</time>
      </trkpt>
      <trkpt lat="45.97397" lon="4.93119">
        <ele>300</ele>
        <time>2018-10-31T11:03:50Z</time>
      </trkpt>
      <trkpt lat="45.97393" lon="4.93124">
        <ele>300</ele>
        <time>2018-10-31T11:03:51Z</time>
      </trkpt>
      <trkpt lat="45.97389" lon="4.93129">
        <ele>300</ele>
        <time>2018-10-31T11:03:52Z</time>
      </trkpt>
      <trkpt lat="45.97385" lon="4.93134">
        <ele>300</ele>
        <time>2018-10-31T11:03:53Z</time>
      </trkpt>
      <trkpt lat="45.97382" lon="4.9314">
        <ele>300</ele>
        <time>2018-10-31T11:03:54Z</time>
      </trkpt>
      <trkpt lat="45.97378" lon="4.93144">
        <ele>300</ele>
        <time>2018-10-31T11:03:55Z</time>
      </trkpt>
      <trkpt lat="45.97374" lon="4.93149">
        <ele>300</ele>
        <time>2018-10-31T11:03:56Z</time>
      </trkpt>
      <trkpt lat="45.9737" lon="4.93153">
        <ele>300</ele>
        <time>2018-10-31T11:03:57Z</time>
      </trkpt>
      <trkpt lat="45.97367" lon="4.93158">
        <ele>300</ele>
        <time>2018-10-31T11:03:58Z</time>
      </trkpt>
      <trkpt lat="45.97362" lon="4.93162">
        <ele>300</ele>
        <time>2018-10-31T11:03:59Z</time>
      </trkpt>
      <trkpt lat="45.97358" lon="4.93166">
        <ele>300</ele>
        <time>2018-10-31T11:04:00Z</time>
      </trkpt>
      <trkpt lat="45.97353" lon="4.93172">
        <ele>301</ele>
        <time>2018-10-31T11:04:01Z</time>
      </trkpt>
      <trkpt lat="45.9735" lon="4.93176">
        <ele>301</ele>
        <time>2018-10-31T11:04:02Z</time>
      </trkpt>
      <trkpt lat="45.97346" lon="4.93181">
        <ele>301</ele>
        <time>2018-10-31T11:04:03Z</time>
      </trkpt>
      <trkpt lat="45.97341" lon="4.93186">
        <ele>301</ele>
        <time>2018-10-31T11:04:04Z</time>
      </trkpt>
      <trkpt lat="45.97337" lon="4.9319">
        <ele>301</ele>
        <time>2018-10-31T11:04:05Z</time>
      </trkpt>
      <trkpt lat="45.97333" lon="4.93195">
        <ele>301</ele>
        <time>2018-10-31T11:04:06Z</time>
      </trkpt>
      <trkpt lat="45.9733" lon="4.932">
        <ele>301</ele>
        <time>2018-10-31T11:04:07Z</time>
      </trkpt>
      <trkpt lat="45.97326" lon="4.93204">
        <ele>301</ele>
        <time>2018-10-31T11:04:08Z</time>
      </trkpt>
      <trkpt lat="45.97322" lon="4.93208">
        <ele>301</ele>
        <time>2018-10-31T11:04:09Z</time>
      </trkpt>
      <trkpt lat="45.97318" lon="4.93212">
        <ele>302</ele>
        <time>2018-10-31T11:04:10Z</time>
      </trkpt>
      <trkpt lat="45.97315" lon="4.93217">
        <ele>302</ele>
        <time>2018-10-31T11:04:11Z</time>
      </trkpt>
      <trkpt lat="45.97311" lon="4.93222">
        <ele>302</ele>
        <time>2018-10-31T11:04:12Z</time>
      </trkpt>
      <trkpt lat="45.97307" lon="4.93226">
        <ele>302</ele>
        <time>2018-10-31T11:04:13Z</time>
      </trkpt>
      <trkpt lat="45.97303" lon="4.93232">
        <ele>302</ele>
        <time>2018-10-31T11:04:14Z</time>
      </trkpt>
      <trkpt lat="45.97299" lon="4.93237">
        <ele>302</ele>
        <time>2018-10-31T11:04:15Z</time>
      </trkpt>
      <trkpt lat="45.97295" lon="4.93241">
        <ele>301</ele>
        <time>2018-10-31T11:04:16Z</time>
      </trkpt>
      <trkpt lat="45.97291" lon="4.93246">
        <ele>301</ele>
        <time>2018-10-31T11:04:17Z</time>
      </trkpt>
      <trkpt lat="45.97286" lon="4.9325">
        <ele>302</ele>
        <time>2018-10-31T11:04:18Z</time>
      </trkpt>
      <trkpt lat="45.97281" lon="4.93255">
        <ele>302</ele>
        <time>2018-10-31T11:04:19Z</time>
      </trkpt>
      <trkpt lat="45.97277" lon="4.9326">
        <ele>302</ele>
        <time>2018-10-31T11:04:20Z</time>
      </trkpt>
      <trkpt lat="45.97273" lon="4.93265">
        <ele>302</ele>
        <time>2018-10-31T11:04:21Z</time>
      </trkpt>
      <trkpt lat="45.97269" lon="4.93271">
        <ele>302</ele>
        <time>2018-10-31T11:04:22Z</time>
      </trkpt>
      <trkpt lat="45.97264" lon="4.93276">
        <ele>302</ele>
        <time>2018-10-31T11:04:23Z</time>
      </trkpt>
      <trkpt lat="45.97261" lon="4.93281">
        <ele>302</ele>
        <time>2018-10-31T11:04:24Z</time>
      </trkpt>
      <trkpt lat="45.97257" lon="4.93286">
        <ele>302</ele>
        <time>2018-10-31T11:04:25Z</time>
      </trkpt>
      <trkpt lat="45.97252" lon="4.93291">
        <ele>302</ele>
        <time>2018-10-31T11:04:26Z</time>
      </trkpt>
      <trkpt lat="45.97248" lon="4.93297">
        <ele>300</ele>
        <time>2018-10-31T11:04:27Z</time>
      </trkpt>
      <trkpt lat="45.97244" lon="4.93301">
        <ele>300</ele>
        <time>2018-10-31T11:04:28Z</time>
      </trkpt>
      <trkpt lat="45.97239" lon="4.93306">
        <ele>300</ele>
        <time>2018-10-31T11:04:29Z</time>
      </trkpt>
      <trkpt lat="45.97235" lon="4.9331">
        <ele>300</ele>
        <time>2018-10-31T11:04:30Z</time>
      </trkpt>
      <trkpt lat="45.97231" lon="4.93315">
        <ele>300</ele>
        <time>2018-10-31T11:04:31Z</time>
      </trkpt>
      <trkpt lat="45.97227" lon="4.9332">
        <ele>300</ele>
        <time>2018-10-31T11:04:32Z</time>
      </trkpt>
      <trkpt lat="45.97223" lon="4.93324">
        <ele>300</ele>
        <time>2018-10-31T11:04:33Z</time>
      </trkpt>
      <trkpt lat="45.97219" lon="4.93329">
        <ele>300</ele>
        <time>2018-10-31T11:04:34Z</time>
      </trkpt>
      <trkpt lat="45.97215" lon="4.93334">
        <ele>301</ele>
        <time>2018-10-31T11:04:35Z</time>
      </trkpt>
      <trkpt lat="45.97211" lon="4.93339">
        <ele>301</ele>
        <time>2018-10-31T11:04:36Z</time>
      </trkpt>
      <trkpt lat="45.97207" lon="4.93343">
        <ele>301</ele>
        <time>2018-10-31T11:04:37Z</time>
      </trkpt>
      <trkpt lat="45.97203" lon="4.93349">
        <ele>301</ele>
        <time>2018-10-31T11:04:38Z</time>
      </trkpt>
      <trkpt lat="45.97198" lon="4.93353">
        <ele>301</ele>
        <time>2018-10-31T11:04:39Z</time>
      </trkpt>
      <trkpt lat="45.97194" lon="4.93358">
        <ele>301</ele>
        <time>2018-10-31T11:04:40Z</time>
      </trkpt>
      <trkpt lat="45.9719" lon="4.93363">
        <ele>301</ele>
        <time>2018-10-31T11:04:41Z</time>
      </trkpt>
      <trkpt lat="45.97186" lon="4.93368">
        <ele>301</ele>
        <time>2018-10-31T11:04:42Z</time>
      </trkpt>
      <trkpt lat="45.97182" lon="4.93373">
        <ele>301</ele>
        <time>2018-10-31T11:04:43Z</time>
      </trkpt>
      <trkpt lat="45.97178" lon="4.93378">
        <ele>301</ele>
        <time>2018-10-31T11:04:44Z</time>
      </trkpt>
      <trkpt lat="45.97173" lon="4.93383">
        <ele>301</ele>
        <time>2018-10-31T11:04:45Z</time>
      </trkpt>
      <trkpt lat="45.97168" lon="4.93387">
        <ele>301</ele>
        <time>2018-10-31T11:04:46Z</time>
      </trkpt>
      <trkpt lat="45.97165" lon="4.93392">
        <ele>301</ele>
        <time>2018-10-31T11:04:47Z</time>
      </trkpt>
      <trkpt lat="45.97161" lon="4.93397">
        <ele>301</ele>
        <time>2018-10-31T11:04:48Z</time>
      </trkpt>
      <trkpt lat="45.97157" lon="4.93402">
        <ele>301</ele>
        <time>2018-10-31T11:04:49Z</time>
      </trkpt>
      <trkpt lat="45.97153" lon="4.93407">
        <ele>301</ele>
        <time>2018-10-31T11:04:50Z</time>
      </trkpt>
      <trkpt lat="45.97149" lon="4.93412">
        <ele>301</ele>
        <time>2018-10-31T11:04:51Z</time>
      </trkpt>
      <trkpt lat="45.97145" lon="4.93418">
        <ele>302</ele>
        <time>2018-10-31T11:04:52Z</time>
      </trkpt>
      <trkpt lat="45.97141" lon="4.93423">
        <ele>301</ele>
        <time>2018-10-31T11:04:53Z</time>
      </trkpt>
      <trkpt lat="45.97138" lon="4.93427">
        <ele>301</ele>
        <time>2018-10-31T11:04:54Z</time>
      </trkpt>
      <trkpt lat="45.97134" lon="4.93432">
        <ele>301</ele>
        <time>2018-10-31T11:04:55Z</time>
      </trkpt>
      <trkpt lat="45.97131" lon="4.93438">
        <ele>301</ele>
        <time>2018-10-31T11:04:56Z</time>
      </trkpt>
      <trkpt lat="45.97127" lon="4.93442">
        <ele>301</ele>
        <time>2018-10-31T11:04:57Z</time>
      </trkpt>
      <trkpt lat="45.97123" lon="4.93447">
        <ele>301</ele>
        <time>2018-10-31T11:04:58Z</time>
      </trkpt>
      <trkpt lat="45.97119" lon="4.93452">
        <ele>301</ele>
        <time>2018-10-31T11:04:59Z</time>
      </trkpt>
      <trkpt lat="45.97116" lon="4.93456">
        <ele>301</ele>
        <time>2018-10-31T11:05:00Z</time>
      </trkpt>
      <trkpt lat="45.97111" lon="4.93461">
        <ele>301</ele>
        <time>2018-10-31T11:05:01Z</time>
      </trkpt>
      <trkpt lat="45.97107" lon="4.93466">
        <ele>301</ele>
        <time>2018-10-31T11:05:02Z</time>
      </trkpt>
      <trkpt lat="45.97103" lon="4.9347">
        <ele>301</ele>
        <time>2018-10-31T11:05:03Z</time>
      </trkpt>
      <trkpt lat="45.97098" lon="4.93474">
        <ele>301</ele>
        <time>2018-10-31T11:05:04Z</time>
      </trkpt>
      <trkpt lat="45.97095" lon="4.93479">
        <ele>301</ele>
        <time>2018-10-31T11:05:05Z</time>
      </trkpt>
      <trkpt lat="45.9709" lon="4.93484">
        <ele>301</ele>
        <time>2018-10-31T11:05:06Z</time>
      </trkpt>
      <trkpt lat="45.97086" lon="4.93489">
        <ele>300</ele>
        <time>2018-10-31T11:05:07Z</time>
      </trkpt>
      <trkpt lat="45.97082" lon="4.93494">
        <ele>300</ele>
        <time>2018-10-31T11:05:08Z</time>
      </trkpt>
      <trkpt lat="45.97078" lon="4.93499">
        <ele>300</ele>
        <time>2018-10-31T11:05:09Z</time>
      </trkpt>
      <trkpt lat="45.97074" lon="4.93504">
        <ele>300</ele>
        <time>2018-10-31T11:05:10Z</time>
      </trkpt>
      <trkpt lat="45.97069" lon="4.9351">
        <ele>299</ele>
        <time>2018-10-31T11:05:11Z</time>
      </trkpt>
      <trkpt lat="45.97066" lon="4.93517">
        <ele>299</ele>
        <time>2018-10-31T11:05:12Z</time>
      </trkpt>
      <trkpt lat="45.97062" lon="4.93523">
        <ele>299</ele>
        <time>2018-10-31T11:05:13Z</time>
      </trkpt>
      <trkpt lat="45.97057" lon="4.93529">
        <ele>299</ele>
        <time>2018-10-31T11:05:14Z</time>
      </trkpt>
      <trkpt lat="45.97053" lon="4.93535">
        <ele>299</ele>
        <time>2018-10-31T11:05:15Z</time>
      </trkpt>
      <trkpt lat="45.97048" lon="4.9354">
        <ele>299</ele>
        <time>2018-10-31T11:05:16Z</time>
      </trkpt>
      <trkpt lat="45.97044" lon="4.93546">
        <ele>299</ele>
        <time>2018-10-31T11:05:17Z</time>
      </trkpt>
      <trkpt lat="45.97041" lon="4.93551">
        <ele>299</ele>
        <time>2018-10-31T11:05:18Z</time>
      </trkpt>
      <trkpt lat="45.97036" lon="4.93555">
        <ele>299</ele>
        <time>2018-10-31T11:05:19Z</time>
      </trkpt>
      <trkpt lat="45.97032" lon="4.93561">
        <ele>299</ele>
        <time>2018-10-31T11:05:20Z</time>
      </trkpt>
      <trkpt lat="45.97029" lon="4.93565">
        <ele>299</ele>
        <time>2018-10-31T11:05:21Z</time>
      </trkpt>
      <trkpt lat="45.97025" lon="4.93569">
        <ele>299</ele>
        <time>2018-10-31T11:05:22Z</time>
      </trkpt>
      <trkpt lat="45.97022" lon="4.93575">
        <ele>299</ele>
        <time>2018-10-31T11:05:23Z</time>
      </trkpt>
      <trkpt lat="45.97018" lon="4.93579">
        <ele>299</ele>
        <time>2018-10-31T11:05:24Z</time>
      </trkpt>
      <trkpt lat="45.97014" lon="4.93583">
        <ele>299</ele>
        <time>2018-10-31T11:05:25Z</time>
      </trkpt>
      <trkpt lat="45.9701" lon="4.93588">
        <ele>299</ele>
        <time>2018-10-31T11:05:26Z</time>
      </trkpt>
      <trkpt lat="45.97007" lon="4.93596">
        <ele>299</ele>
        <time>2018-10-31T11:05:27Z</time>
      </trkpt>
      <trkpt lat="45.97003" lon="4.93601">
        <ele>299</ele>
        <time>2018-10-31T11:05:28Z</time>
      </trkpt>
      <trkpt lat="45.96998" lon="4.93606">
        <ele>299</ele>
        <time>2018-10-31T11:05:29Z</time>
      </trkpt>
      <trkpt lat="45.96994" lon="4.93613">
        <ele>299</ele>
        <time>2018-10-31T11:05:30Z</time>
      </trkpt>
      <trkpt lat="45.9699" lon="4.93619">
        <ele>299</ele>
        <time>2018-10-31T11:05:31Z</time>
      </trkpt>
      <trkpt lat="45.96986" lon="4.93624">
        <ele>299</ele>
        <time>2018-10-31T11:05:32Z</time>
      </trkpt>
      <trkpt lat="45.96982" lon="4.93629">
        <ele>299</ele>
        <time>2018-10-31T11:05:33Z</time>
      </trkpt>
      <trkpt lat="45.96977" lon="4.93635">
        <ele>299</ele>
        <time>2018-10-31T11:05:34Z</time>
      </trkpt>
      <trkpt lat="45.96972" lon="4.9364">
        <ele>299</ele>
        <time>2018-10-31T11:05:35Z</time>
      </trkpt>
      <trkpt lat="45.96967" lon="4.93646">
        <ele>299</ele>
        <time>2018-10-31T11:05:36Z</time>
      </trkpt>
      <trkpt lat="45.96963" lon="4.93651">
        <ele>299</ele>
        <time>2018-10-31T11:05:37Z</time>
      </trkpt>
      <trkpt lat="45.96959" lon="4.93656">
        <ele>299</ele>
        <time>2018-10-31T11:05:38Z</time>
      </trkpt>
      <trkpt lat="45.96955" lon="4.93661">
        <ele>299</ele>
        <time>2018-10-31T11:05:39Z</time>
      </trkpt>
      <trkpt lat="45.96951" lon="4.93666">
        <ele>299</ele>
        <time>2018-10-31T11:05:40Z</time>
      </trkpt>
      <trkpt lat="45.96946" lon="4.9367">
        <ele>298</ele>
        <time>2018-10-31T11:05:41Z</time>
      </trkpt>
      <trkpt lat="45.96942" lon="4.93674">
        <ele>298</ele>
        <time>2018-10-31T11:05:42Z</time>
      </trkpt>
      <trkpt lat="45.96938" lon="4.93679">
        <ele>298</ele>
        <time>2018-10-31T11:05:43Z</time>
      </trkpt>
      <trkpt lat="45.96934" lon="4.93683">
        <ele>298</ele>
        <time>2018-10-31T11:05:44Z</time>
      </trkpt>
      <trkpt lat="45.96929" lon="4.93687">
        <ele>298</ele>
        <time>2018-10-31T11:05:45Z</time>
      </trkpt>
      <trkpt lat="45.96924" lon="4.93692">
        <ele>298</ele>
        <time>2018-10-31T11:05:46Z</time>
      </trkpt>
      <trkpt lat="45.9692" lon="4.93697">
        <ele>298</ele>
        <time>2018-10-31T11:05:47Z</time>
      </trkpt>
      <trkpt lat="45.96916" lon="4.93701">
        <ele>297</ele>
        <time>2018-10-31T11:05:48Z</time>
      </trkpt>
      <trkpt lat="45.96912" lon="4.93705">
        <ele>297</ele>
        <time>2018-10-31T11:05:49Z</time>
      </trkpt>
      <trkpt lat="45.96908" lon="4.93709">
        <ele>297</ele>
        <time>2018-10-31T11:05:50Z</time>
      </trkpt>
      <trkpt lat="45.96903" lon="4.93714">
        <ele>297</ele>
        <time>2018-10-31T11:05:51Z</time>
      </trkpt>
      <trkpt lat="45.96899" lon="4.93718">
        <ele>297</ele>
        <time>2018-10-31T11:05:52Z</time>
      </trkpt>
      <trkpt lat="45.96893" lon="4.93721">
        <ele>297</ele>
        <time>2018-10-31T11:05:53Z</time>
      </trkpt>
      <trkpt lat="45.96889" lon="4.93724">
        <ele>297</ele>
        <time>2018-10-31T11:05:54Z</time>
      </trkpt>
      <trkpt lat="45.96884" lon="4.93727">
        <ele>297</ele>
        <time>2018-10-31T11:05:55Z</time>
      </trkpt>
      <trkpt lat="45.96878" lon="4.9373">
        <ele>297</ele>
        <time>2018-10-31T11:05:56Z</time>
      </trkpt>
      <trkpt lat="45.96874" lon="4.93732">
        <ele>297</ele>
        <time>2018-10-31T11:05:57Z</time>
      </trkpt>
      <trkpt lat="45.96869" lon="4.93734">
        <ele>297</ele>
        <time>2018-10-31T11:05:58Z</time>
      </trkpt>
      <trkpt lat="45.96865" lon="4.93736">
        <ele>297</ele>
        <time>2018-10-31T11:05:59Z</time>
      </trkpt>
      <trkpt lat="45.96859" lon="4.93738">
        <ele>297</ele>
        <time>2018-10-31T11:06:00Z</time>
      </trkpt>
      <trkpt lat="45.96855" lon="4.9374">
        <ele>297</ele>
        <time>2018-10-31T11:06:01Z</time>
      </trkpt>
      <trkpt lat="45.96849" lon="4.93742">
        <ele>296</ele>
        <time>2018-10-31T11:06:02Z</time>
      </trkpt>
      <trkpt lat="45.96844" lon="4.93744">
        <ele>296</ele>
        <time>2018-10-31T11:06:03Z</time>
      </trkpt>
      <trkpt lat="45.96838" lon="4.93746">
        <ele>296</ele>
        <time>2018-10-31T11:06:04Z</time>
      </trkpt>
      <trkpt lat="45.96833" lon="4.93748">
        <ele>296</ele>
        <time>2018-10-31T11:06:05Z</time>
      </trkpt>
      <trkpt lat="45.96829" lon="4.93751">
        <ele>296</ele>
        <time>2018-10-31T11:06:06Z</time>
      </trkpt>
      <trkpt lat="45.96824" lon="4.93753">
        <ele>296</ele>
        <time>2018-10-31T11:06:07Z</time>
      </trkpt>
      <trkpt lat="45.96819" lon="4.93755">
        <ele>296</ele>
        <time>2018-10-31T11:06:08Z</time>
      </trkpt>
      <trkpt lat="45.96813" lon="4.93756">
        <ele>296</ele>
        <time>2018-10-31T11:06:09Z</time>
      </trkpt>
      <trkpt lat="45.96805" lon="4.93759">
        <ele>295</ele>
        <time>2018-10-31T11:06:11Z</time>
      </trkpt>
      <trkpt lat="45.968" lon="4.9376">
        <ele>295</ele>
        <time>2018-10-31T11:06:12Z</time>
      </trkpt>
      <trkpt lat="45.96793" lon="4.93762">
        <ele>295</ele>
        <time>2018-10-31T11:06:14Z</time>
      </trkpt>
      <trkpt lat="45.96789" lon="4.93762">
        <ele>295</ele>
        <time>2018-10-31T11:06:15Z</time>
      </trkpt>
      <trkpt lat="45.96784" lon="4.9377">
        <ele>295</ele>
        <time>2018-10-31T11:06:19Z</time>
      </trkpt>
      <trkpt lat="45.96784" lon="4.93774">
        <ele>295</ele>
        <time>2018-10-31T11:06:20Z</time>
      </trkpt>
      <trkpt lat="45.9679" lon="4.93783">
        <ele>295</ele>
        <time>2018-10-31T11:08:45Z</time>
      </trkpt>
      <trkpt lat="45.9679" lon="4.93783">
        <ele>295</ele>
        <time>2018-10-31T11:08:46Z</time>
      </trkpt>
      <trkpt lat="45.96782" lon="4.93777">
        <ele>295</ele>
        <time>2018-10-31T11:09:42Z</time>
      </trkpt>
      <trkpt lat="45.96782" lon="4.93776">
        <ele>295</ele>
        <time>2018-10-31T11:09:43Z</time>
      </trkpt>
      <trkpt lat="45.96775" lon="4.93771">
        <ele>295</ele>
        <time>2018-10-31T11:09:56Z</time>
      </trkpt>
      <trkpt lat="45.96773" lon="4.93772">
        <ele>295</ele>
        <time>2018-10-31T11:09:57Z</time>
      </trkpt>
      <trkpt lat="45.96766" lon="4.93774">
        <ele>295</ele>
        <time>2018-10-31T11:10:00Z</time>
      </trkpt>
      <trkpt lat="45.96763" lon="4.93774">
        <ele>295</ele>
        <time>2018-10-31T11:10:01Z</time>
      </trkpt>
      <trkpt lat="45.96755" lon="4.93776">
        <ele>295</ele>
        <time>2018-10-31T11:10:03Z</time>
      </trkpt>
      <trkpt lat="45.96751" lon="4.93777">
        <ele>295</ele>
        <time>2018-10-31T11:10:04Z</time>
      </trkpt>
      <trkpt lat="45.96744" lon="4.93779">
        <ele>295</ele>
        <time>2018-10-31T11:10:06Z</time>
      </trkpt>
      <trkpt lat="45.96741" lon="4.9378">
        <ele>296</ele>
        <time>2018-10-31T11:10:07Z</time>
      </trkpt>
      <trkpt lat="45.96736" lon="4.93782">
        <ele>296</ele>
        <time>2018-10-31T11:10:08Z</time>
      </trkpt>
      <trkpt lat="45.96732" lon="4.93783">
        <ele>296</ele>
        <time>2018-10-31T11:10:09Z</time>
      </trkpt>
      <trkpt lat="45.96724" lon="4.93786">
        <ele>296</ele>
        <time>2018-10-31T11:10:11Z</time>
      </trkpt>
      <trkpt lat="45.96718" lon="4.93789">
        <ele>296</ele>
        <time>2018-10-31T11:10:12Z</time>
      </trkpt>
      <trkpt lat="45.96714" lon="4.9379">
        <ele>296</ele>
        <time>2018-10-31T11:10:13Z</time>
      </trkpt>
      <trkpt lat="45.96709" lon="4.93792">
        <ele>296</ele>
        <time>2018-10-31T11:10:14Z</time>
      </trkpt>
      <trkpt lat="45.96704" lon="4.93793">
        <ele>296</ele>
        <time>2018-10-31T11:10:15Z</time>
      </trkpt>
      <trkpt lat="45.96699" lon="4.93795">
        <ele>296</ele>
        <time>2018-10-31T11:10:16Z</time>
      </trkpt>
      <trkpt lat="45.96695" lon="4.93797">
        <ele>297</ele>
        <time>2018-10-31T11:10:17Z</time>
      </trkpt>
      <trkpt lat="45.96689" lon="4.93798">
        <ele>297</ele>
        <time>2018-10-31T11:10:18Z</time>
      </trkpt>
      <trkpt lat="45.96685" lon="4.938">
        <ele>297</ele>
        <time>2018-10-31T11:10:19Z</time>
      </trkpt>
      <trkpt lat="45.9668" lon="4.93799">
        <ele>297</ele>
        <time>2018-10-31T11:10:20Z</time>
      </trkpt>
      <trkpt lat="45.96672" lon="4.93792">
        <ele>297</ele>
        <time>2018-10-31T11:10:22Z</time>
      </trkpt>
      <trkpt lat="45.96668" lon="4.93787">
        <ele>297</ele>
        <time>2018-10-31T11:10:23Z</time>
      </trkpt>
      <trkpt lat="45.96664" lon="4.93781">
        <ele>297</ele>
        <time>2018-10-31T11:10:24Z</time>
      </trkpt>
      <trkpt lat="45.96661" lon="4.93776">
        <ele>297</ele>
        <time>2018-10-31T11:10:25Z</time>
      </trkpt>
      <trkpt lat="45.96657" lon="4.9377">
        <ele>297</ele>
        <time>2018-10-31T11:10:26Z</time>
      </trkpt>
      <trkpt lat="45.96654" lon="4.93764">
        <ele>297</ele>
        <time>2018-10-31T11:10:27Z</time>
      </trkpt>
      <trkpt lat="45.9665" lon="4.93757">
        <ele>297</ele>
        <time>2018-10-31T11:10:28Z</time>
      </trkpt>
      <trkpt lat="45.96646" lon="4.93752">
        <ele>297</ele>
        <time>2018-10-31T11:10:29Z</time>
      </trkpt>
      <trkpt lat="45.96642" lon="4.93746">
        <ele>297</ele>
        <time>2018-10-31T11:10:30Z</time>
      </trkpt>
      <trkpt lat="45.96637" lon="4.93741">
        <ele>296</ele>
        <time>2018-10-31T11:10:31Z</time>
      </trkpt>
      <trkpt lat="45.96632" lon="4.93736">
        <ele>296</ele>
        <time>2018-10-31T11:10:32Z</time>
      </trkpt>
      <trkpt lat="45.96627" lon="4.93732">
        <ele>296</ele>
        <time>2018-10-31T11:10:33Z</time>
      </trkpt>
      <trkpt lat="45.96621" lon="4.93726">
        <ele>296</ele>
        <time>2018-10-31T11:10:34Z</time>
      </trkpt>
      <trkpt lat="45.96617" lon="4.93722">
        <ele>296</ele>
        <time>2018-10-31T11:10:35Z</time>
      </trkpt>
      <trkpt lat="45.96612" lon="4.93718">
        <ele>296</ele>
        <time>2018-10-31T11:10:36Z</time>
      </trkpt>
      <trkpt lat="45.96607" lon="4.93712">
        <ele>296</ele>
        <time>2018-10-31T11:10:37Z</time>
      </trkpt>
      <trkpt lat="45.96602" lon="4.93707">
        <ele>296</ele>
        <time>2018-10-31T11:10:38Z</time>
      </trkpt>
      <trkpt lat="45.96597" lon="4.93701">
        <ele>296</ele>
        <time>2018-10-31T11:10:39Z</time>
      </trkpt>
      <trkpt lat="45.96592" lon="4.93696">
        <ele>296</ele>
        <time>2018-10-31T11:10:40Z</time>
      </trkpt>
      <trkpt lat="45.96586" lon="4.93691">
        <ele>296</ele>
        <time>2018-10-31T11:10:41Z</time>
      </trkpt>
      <trkpt lat="45.96582" lon="4.93685">
        <ele>296</ele>
        <time>2018-10-31T11:10:42Z</time>
      </trkpt>
      <trkpt lat="45.96578" lon="4.9368">
        <ele>296</ele>
        <time>2018-10-31T11:10:43Z</time>
      </trkpt>
      <trkpt lat="45.96574" lon="4.93675">
        <ele>296</ele>
        <time>2018-10-31T11:10:44Z</time>
      </trkpt>
      <trkpt lat="45.9657" lon="4.9367">
        <ele>296</ele>
        <time>2018-10-31T11:10:45Z</time>
      </trkpt>
      <trkpt lat="45.96566" lon="4.93665">
        <ele>296</ele>
        <time>2018-10-31T11:10:46Z</time>
      </trkpt>
      <trkpt lat="45.96563" lon="4.9366">
        <ele>296</ele>
        <time>2018-10-31T11:10:47Z</time>
      </trkpt>
      <trkpt lat="45.96559" lon="4.93654">
        <ele>296</ele>
        <time>2018-10-31T11:10:48Z</time>
      </trkpt>
      <trkpt lat="45.96557" lon="4.93649">
        <ele>296</ele>
        <time>2018-10-31T11:10:49Z</time>
      </trkpt>
      <trkpt lat="45.96553" lon="4.93644">
        <ele>296</ele>
        <time>2018-10-31T11:10:50Z</time>
      </trkpt>
      <trkpt lat="45.96549" lon="4.93639">
        <ele>296</ele>
        <time>2018-10-31T11:10:51Z</time>
      </trkpt>
      <trkpt lat="45.96545" lon="4.93634">
        <ele>296</ele>
        <time>2018-10-31T11:10:52Z</time>
      </trkpt>
      <trkpt lat="45.96541" lon="4.93629">
        <ele>296</ele>
        <time>2018-10-31T11:10:53Z</time>
      </trkpt>
      <trkpt lat="45.96537" lon="4.93625">
        <ele>296</ele>
        <time>2018-10-31T11:10:54Z</time>
      </trkpt>
      <trkpt lat="45.96533" lon="4.9362">
        <ele>296</ele>
        <time>2018-10-31T11:10:55Z</time>
      </trkpt>
      <trkpt lat="45.96527" lon="4.93611">
        <ele>296</ele>
        <time>2018-10-31T11:10:57Z</time>
      </trkpt>
      <trkpt lat="45.96523" lon="4.93606">
        <ele>296</ele>
        <time>2018-10-31T11:10:58Z</time>
      </trkpt>
      <trkpt lat="45.9652" lon="4.936">
        <ele>296</ele>
        <time>2018-10-31T11:10:59Z</time>
      </trkpt>
      <trkpt lat="45.96515" lon="4.93594">
        <ele>296</ele>
        <time>2018-10-31T11:11:00Z</time>
      </trkpt>
      <trkpt lat="45.96511" lon="4.93589">
        <ele>296</ele>
        <time>2018-10-31T11:11:01Z</time>
      </trkpt>
      <trkpt lat="45.96508" lon="4.93584">
        <ele>296</ele>
        <time>2018-10-31T11:11:02Z</time>
      </trkpt>
      <trkpt lat="45.96504" lon="4.93579">
        <ele>296</ele>
        <time>2018-10-31T11:11:03Z</time>
      </trkpt>
      <trkpt lat="45.965" lon="4.93574">
        <ele>296</ele>
        <time>2018-10-31T11:11:04Z</time>
      </trkpt>
      <trkpt lat="45.96495" lon="4.93568">
        <ele>297</ele>
        <time>2018-10-31T11:11:05Z</time>
      </trkpt>
      <trkpt lat="45.96492" lon="4.93562">
        <ele>297</ele>
        <time>2018-10-31T11:11:06Z</time>
      </trkpt>
      <trkpt lat="45.96488" lon="4.93556">
        <ele>297</ele>
        <time>2018-10-31T11:11:07Z</time>
      </trkpt>
      <trkpt lat="45.96485" lon="4.93551">
        <ele>297</ele>
        <time>2018-10-31T11:11:08Z</time>
      </trkpt>
      <trkpt lat="45.96481" lon="4.93545">
        <ele>297</ele>
        <time>2018-10-31T11:11:09Z</time>
      </trkpt>
      <trkpt lat="45.96477" lon="4.9354">
        <ele>297</ele>
        <time>2018-10-31T11:11:10Z</time>
      </trkpt>
      <trkpt lat="45.96473" lon="4.93534">
        <ele>297</ele>
        <time>2018-10-31T11:11:11Z</time>
      </trkpt>
      <trkpt lat="45.96469" lon="4.93529">
        <ele>297</ele>
        <time>2018-10-31T11:11:12Z</time>
      </trkpt>
      <trkpt lat="45.96466" lon="4.93524">
        <ele>297</ele>
        <time>2018-10-31T11:11:13Z</time>
      </trkpt>
      <trkpt lat="45.96462" lon="4.93519">
        <ele>297</ele>
        <time>2018-10-31T11:11:14Z</time>
      </trkpt>
      <trkpt lat="45.96459" lon="4.93514">
        <ele>297</ele>
        <time>2018-10-31T11:11:15Z</time>
      </trkpt>
      <trkpt lat="45.96455" lon="4.93509">
        <ele>297</ele>
        <time>2018-10-31T11:11:16Z</time>
      </trkpt>
      <trkpt lat="45.96452" lon="4.93503">
        <ele>297</ele>
        <time>2018-10-31T11:11:17Z</time>
      </trkpt>
      <trkpt lat="45.96448" lon="4.93499">
        <ele>297</ele>
        <time>2018-10-31T11:11:18Z</time>
      </trkpt>
      <trkpt lat="45.96441" lon="4.9349">
        <ele>297</ele>
        <time>2018-10-31T11:11:20Z</time>
      </trkpt>
      <trkpt lat="45.96437" lon="4.93484">
        <ele>297</ele>
        <time>2018-10-31T11:11:21Z</time>
      </trkpt>
      <trkpt lat="45.96434" lon="4.9348">
        <ele>297</ele>
        <time>2018-10-31T11:11:22Z</time>
      </trkpt>
      <trkpt lat="45.9643" lon="4.93475">
        <ele>297</ele>
        <time>2018-10-31T11:11:23Z</time>
      </trkpt>
      <trkpt lat="45.96426" lon="4.93469">
        <ele>297</ele>
        <time>2018-10-31T11:11:24Z</time>
      </trkpt>
      <trkpt lat="45.96422" lon="4.93465">
        <ele>297</ele>
        <time>2018-10-31T11:11:25Z</time>
      </trkpt>
      <trkpt lat="45.96417" lon="4.9346">
        <ele>297</ele>
        <time>2018-10-31T11:11:26Z</time>
      </trkpt>
      <trkpt lat="45.96413" lon="4.93455">
        <ele>296</ele>
        <time>2018-10-31T11:11:27Z</time>
      </trkpt>
      <trkpt lat="45.96408" lon="4.9345">
        <ele>296</ele>
        <time>2018-10-31T11:11:28Z</time>
      </trkpt>
      <trkpt lat="45.96403" lon="4.93445">
        <ele>296</ele>
        <time>2018-10-31T11:11:29Z</time>
      </trkpt>
      <trkpt lat="45.96398" lon="4.93441">
        <ele>296</ele>
        <time>2018-10-31T11:11:30Z</time>
      </trkpt>
      <trkpt lat="45.96393" lon="4.93438">
        <ele>296</ele>
        <time>2018-10-31T11:11:31Z</time>
      </trkpt>
      <trkpt lat="45.96387" lon="4.93434">
        <ele>296</ele>
        <time>2018-10-31T11:11:32Z</time>
      </trkpt>
      <trkpt lat="45.96383" lon="4.9343">
        <ele>296</ele>
        <time>2018-10-31T11:11:33Z</time>
      </trkpt>
      <trkpt lat="45.96377" lon="4.93427">
        <ele>296</ele>
        <time>2018-10-31T11:11:34Z</time>
      </trkpt>
      <trkpt lat="45.96372" lon="4.93423">
        <ele>295</ele>
        <time>2018-10-31T11:11:35Z</time>
      </trkpt>
      <trkpt lat="45.96367" lon="4.9342">
        <ele>295</ele>
        <time>2018-10-31T11:11:36Z</time>
      </trkpt>
      <trkpt lat="45.96362" lon="4.93416">
        <ele>294</ele>
        <time>2018-10-31T11:11:37Z</time>
      </trkpt>
      <trkpt lat="45.96358" lon="4.93413">
        <ele>294</ele>
        <time>2018-10-31T11:11:38Z</time>
      </trkpt>
      <trkpt lat="45.96353" lon="4.93409">
        <ele>294</ele>
        <time>2018-10-31T11:11:39Z</time>
      </trkpt>
      <trkpt lat="45.96348" lon="4.93406">
        <ele>294</ele>
        <time>2018-10-31T11:11:40Z</time>
      </trkpt>
      <trkpt lat="45.96343" lon="4.93402">
        <ele>294</ele>
        <time>2018-10-31T11:11:41Z</time>
      </trkpt>
      <trkpt lat="45.96338" lon="4.93398">
        <ele>294</ele>
        <time>2018-10-31T11:11:42Z</time>
      </trkpt>
      <trkpt lat="45.96332" lon="4.93396">
        <ele>294</ele>
        <time>2018-10-31T11:11:43Z</time>
      </trkpt>
      <trkpt lat="45.96326" lon="4.93393">
        <ele>294</ele>
        <time>2018-10-31T11:11:44Z</time>
      </trkpt>
      <trkpt lat="45.9632" lon="4.9339">
        <ele>294</ele>
        <time>2018-10-31T11:11:45Z</time>
      </trkpt>
      <trkpt lat="45.96315" lon="4.93387">
        <ele>294</ele>
        <time>2018-10-31T11:11:46Z</time>
      </trkpt>
      <trkpt lat="45.9631" lon="4.93385">
        <ele>294</ele>
        <time>2018-10-31T11:11:47Z</time>
      </trkpt>
      <trkpt lat="45.96305" lon="4.93381">
        <ele>294</ele>
        <time>2018-10-31T11:11:48Z</time>
      </trkpt>
      <trkpt lat="45.96299" lon="4.93379">
        <ele>294</ele>
        <time>2018-10-31T11:11:49Z</time>
      </trkpt>
      <trkpt lat="45.96293" lon="4.93375">
        <ele>294</ele>
        <time>2018-10-31T11:11:50Z</time>
      </trkpt>
      <trkpt lat="45.96287" lon="4.93371">
        <ele>294</ele>
        <time>2018-10-31T11:11:51Z</time>
      </trkpt>
      <trkpt lat="45.96283" lon="4.93368">
        <ele>294</ele>
        <time>2018-10-31T11:11:52Z</time>
      </trkpt>
      <trkpt lat="45.96278" lon="4.93365">
        <ele>294</ele>
        <time>2018-10-31T11:11:53Z</time>
      </trkpt>
      <trkpt lat="45.96274" lon="4.93361">
        <ele>294</ele>
        <time>2018-10-31T11:11:54Z</time>
      </trkpt>
      <trkpt lat="45.96269" lon="4.93358">
        <ele>294</ele>
        <time>2018-10-31T11:11:55Z</time>
      </trkpt>
      <trkpt lat="45.96263" lon="4.93354">
        <ele>295</ele>
        <time>2018-10-31T11:11:56Z</time>
      </trkpt>
      <trkpt lat="45.96258" lon="4.9335">
        <ele>295</ele>
        <time>2018-10-31T11:11:57Z</time>
      </trkpt>
      <trkpt lat="45.96254" lon="4.93345">
        <ele>295</ele>
        <time>2018-10-31T11:11:58Z</time>
      </trkpt>
      <trkpt lat="45.96249" lon="4.93341">
        <ele>295</ele>
        <time>2018-10-31T11:11:59Z</time>
      </trkpt>
      <trkpt lat="45.96245" lon="4.93337">
        <ele>295</ele>
        <time>2018-10-31T11:12:00Z</time>
      </trkpt>
      <trkpt lat="45.9624" lon="4.93332">
        <ele>295</ele>
        <time>2018-10-31T11:12:01Z</time>
      </trkpt>
      <trkpt lat="45.96235" lon="4.93327">
        <ele>296</ele>
        <time>2018-10-31T11:12:02Z</time>
      </trkpt>
      <trkpt lat="45.96231" lon="4.93322">
        <ele>296</ele>
        <time>2018-10-31T11:12:03Z</time>
      </trkpt>
      <trkpt lat="45.96227" lon="4.93317">
        <ele>296</ele>
        <time>2018-10-31T11:12:04Z</time>
      </trkpt>
      <trkpt lat="45.96222" lon="4.9331">
        <ele>296</ele>
        <time>2018-10-31T11:12:05Z</time>
      </trkpt>
      <trkpt lat="45.96218" lon="4.93303">
        <ele>296</ele>
        <time>2018-10-31T11:12:06Z</time>
      </trkpt>
      <trkpt lat="45.96215" lon="4.93298">
        <ele>296</ele>
        <time>2018-10-31T11:12:07Z</time>
      </trkpt>
      <trkpt lat="45.96211" lon="4.9329">
        <ele>296</ele>
        <time>2018-10-31T11:12:08Z</time>
      </trkpt>
      <trkpt lat="45.96207" lon="4.93283">
        <ele>296</ele>
        <time>2018-10-31T11:12:09Z</time>
      </trkpt>
      <trkpt lat="45.96203" lon="4.93275">
        <ele>296</ele>
        <time>2018-10-31T11:12:10Z</time>
      </trkpt>
      <trkpt lat="45.962" lon="4.93268">
        <ele>296</ele>
        <time>2018-10-31T11:12:11Z</time>
      </trkpt>
      <trkpt lat="45.96196" lon="4.9326">
        <ele>296</ele>
        <time>2018-10-31T11:12:12Z</time>
      </trkpt>
      <trkpt lat="45.96194" lon="4.93252">
        <ele>296</ele>
        <time>2018-10-31T11:12:13Z</time>
      </trkpt>
      <trkpt lat="45.96191" lon="4.93243">
        <ele>296</ele>
        <time>2018-10-31T11:12:14Z</time>
      </trkpt>
      <trkpt lat="45.96189" lon="4.93235">
        <ele>296</ele>
        <time>2018-10-31T11:12:15Z</time>
      </trkpt>
      <trkpt lat="45.96187" lon="4.93228">
        <ele>295</ele>
        <time>2018-10-31T11:12:16Z</time>
      </trkpt>
      <trkpt lat="45.96184" lon="4.93219">
        <ele>295</ele>
        <time>2018-10-31T11:12:17Z</time>
      </trkpt>
      <trkpt lat="45.96181" lon="4.9321">
        <ele>295</ele>
        <time>2018-10-31T11:12:18Z</time>
      </trkpt>
      <trkpt lat="45.96179" lon="4.93202">
        <ele>295</ele>
        <time>2018-10-31T11:12:19Z</time>
      </trkpt>
      <trkpt lat="45.96176" lon="4.93193">
        <ele>295</ele>
        <time>2018-10-31T11:12:20Z</time>
      </trkpt>
      <trkpt lat="45.96174" lon="4.93185">
        <ele>294</ele>
        <time>2018-10-31T11:12:21Z</time>
      </trkpt>
      <trkpt lat="45.96171" lon="4.93176">
        <ele>294</ele>
        <time>2018-10-31T11:12:22Z</time>
      </trkpt>
      <trkpt lat="45.96169" lon="4.93168">
        <ele>294</ele>
        <time>2018-10-31T11:12:23Z</time>
      </trkpt>
      <trkpt lat="45.96167" lon="4.93159">
        <ele>294</ele>
        <time>2018-10-31T11:12:24Z</time>
      </trkpt>
      <trkpt lat="45.96164" lon="4.93151">
        <ele>294</ele>
        <time>2018-10-31T11:12:25Z</time>
      </trkpt>
      <trkpt lat="45.96163" lon="4.93144">
        <ele>293</ele>
        <time>2018-10-31T11:12:26Z</time>
      </trkpt>
      <trkpt lat="45.9616" lon="4.93135">
        <ele>293</ele>
        <time>2018-10-31T11:12:27Z</time>
      </trkpt>
      <trkpt lat="45.96157" lon="4.93128">
        <ele>293</ele>
        <time>2018-10-31T11:12:28Z</time>
      </trkpt>
      <trkpt lat="45.96154" lon="4.93118">
        <ele>293</ele>
        <time>2018-10-31T11:12:29Z</time>
      </trkpt>
      <trkpt lat="45.96152" lon="4.9311">
        <ele>293</ele>
        <time>2018-10-31T11:12:30Z</time>
      </trkpt>
      <trkpt lat="45.96149" lon="4.931">
        <ele>292</ele>
        <time>2018-10-31T11:12:31Z</time>
      </trkpt>
      <trkpt lat="45.96146" lon="4.9309">
        <ele>292</ele>
        <time>2018-10-31T11:12:32Z</time>
      </trkpt>
      <trkpt lat="45.96144" lon="4.93081">
        <ele>292</ele>
        <time>2018-10-31T11:12:33Z</time>
      </trkpt>
      <trkpt lat="45.96142" lon="4.93073">
        <ele>292</ele>
        <time>2018-10-31T11:12:34Z</time>
      </trkpt>
      <trkpt lat="45.96139" lon="4.93064">
        <ele>292</ele>
        <time>2018-10-31T11:12:35Z</time>
      </trkpt>
      <trkpt lat="45.96136" lon="4.93054">
        <ele>293</ele>
        <time>2018-10-31T11:12:36Z</time>
      </trkpt>
      <trkpt lat="45.96133" lon="4.93045">
        <ele>293</ele>
        <time>2018-10-31T11:12:37Z</time>
      </trkpt>
      <trkpt lat="45.96129" lon="4.93037">
        <ele>293</ele>
        <time>2018-10-31T11:12:38Z</time>
      </trkpt>
      <trkpt lat="45.96127" lon="4.93028">
        <ele>293</ele>
        <time>2018-10-31T11:12:39Z</time>
      </trkpt>
      <trkpt lat="45.96124" lon="4.93019">
        <ele>293</ele>
        <time>2018-10-31T11:12:40Z</time>
      </trkpt>
      <trkpt lat="45.96121" lon="4.9301">
        <ele>293</ele>
        <time>2018-10-31T11:12:41Z</time>
      </trkpt>
      <trkpt lat="45.96118" lon="4.93001">
        <ele>293</ele>
        <time>2018-10-31T11:12:42Z</time>
      </trkpt>
      <trkpt lat="45.96116" lon="4.92992">
        <ele>294</ele>
        <time>2018-10-31T11:12:43Z</time>
      </trkpt>
      <trkpt lat="45.96113" lon="4.92984">
        <ele>294</ele>
        <time>2018-10-31T11:12:44Z</time>
      </trkpt>
      <trkpt lat="45.9611" lon="4.92975">
        <ele>294</ele>
        <time>2018-10-31T11:12:45Z</time>
      </trkpt>
      <trkpt lat="45.96107" lon="4.92966">
        <ele>293</ele>
        <time>2018-10-31T11:12:46Z</time>
      </trkpt>
      <trkpt lat="45.96105" lon="4.92956">
        <ele>293</ele>
        <time>2018-10-31T11:12:47Z</time>
      </trkpt>
      <trkpt lat="45.96102" lon="4.92947">
        <ele>293</ele>
        <time>2018-10-31T11:12:48Z</time>
      </trkpt>
      <trkpt lat="45.961" lon="4.9294">
        <ele>293</ele>
        <time>2018-10-31T11:12:49Z</time>
      </trkpt>
      <trkpt lat="45.96097" lon="4.92931">
        <ele>293</ele>
        <time>2018-10-31T11:12:50Z</time>
      </trkpt>
      <trkpt lat="45.96095" lon="4.92922">
        <ele>293</ele>
        <time>2018-10-31T11:12:51Z</time>
      </trkpt>
      <trkpt lat="45.96093" lon="4.92913">
        <ele>293</ele>
        <time>2018-10-31T11:12:52Z</time>
      </trkpt>
      <trkpt lat="45.96091" lon="4.92904">
        <ele>293</ele>
        <time>2018-10-31T11:12:53Z</time>
      </trkpt>
      <trkpt lat="45.96088" lon="4.92895">
        <ele>293</ele>
        <time>2018-10-31T11:12:54Z</time>
      </trkpt>
      <trkpt lat="45.96086" lon="4.92887">
        <ele>294</ele>
        <time>2018-10-31T11:12:55Z</time>
      </trkpt>
      <trkpt lat="45.96083" lon="4.92878">
        <ele>293</ele>
        <time>2018-10-31T11:12:56Z</time>
      </trkpt>
      <trkpt lat="45.9608" lon="4.92868">
        <ele>293</ele>
        <time>2018-10-31T11:12:57Z</time>
      </trkpt>
      <trkpt lat="45.96078" lon="4.92859">
        <ele>293</ele>
        <time>2018-10-31T11:12:58Z</time>
      </trkpt>
      <trkpt lat="45.96075" lon="4.92849">
        <ele>294</ele>
        <time>2018-10-31T11:12:59Z</time>
      </trkpt>
      <trkpt lat="45.96072" lon="4.9284">
        <ele>294</ele>
        <time>2018-10-31T11:13:00Z</time>
      </trkpt>
      <trkpt lat="45.9607" lon="4.9283">
        <ele>294</ele>
        <time>2018-10-31T11:13:01Z</time>
      </trkpt>
      <trkpt lat="45.96067" lon="4.92821">
        <ele>294</ele>
        <time>2018-10-31T11:13:02Z</time>
      </trkpt>
      <trkpt lat="45.96063" lon="4.9281">
        <ele>294</ele>
        <time>2018-10-31T11:13:03Z</time>
      </trkpt>
      <trkpt lat="45.96061" lon="4.928">
        <ele>293</ele>
        <time>2018-10-31T11:13:04Z</time>
      </trkpt>
      <trkpt lat="45.96058" lon="4.92792">
        <ele>293</ele>
        <time>2018-10-31T11:13:05Z</time>
      </trkpt>
      <trkpt lat="45.96055" lon="4.92782">
        <ele>293</ele>
        <time>2018-10-31T11:13:06Z</time>
      </trkpt>
      <trkpt lat="45.96053" lon="4.92773">
        <ele>293</ele>
        <time>2018-10-31T11:13:07Z</time>
      </trkpt>
      <trkpt lat="45.96051" lon="4.92763">
        <ele>293</ele>
        <time>2018-10-31T11:13:08Z</time>
      </trkpt>
      <trkpt lat="45.96049" lon="4.92754">
        <ele>293</ele>
        <time>2018-10-31T11:13:09Z</time>
      </trkpt>
      <trkpt lat="45.96046" lon="4.92746">
        <ele>292</ele>
        <time>2018-10-31T11:13:10Z</time>
      </trkpt>
      <trkpt lat="45.96043" lon="4.92737">
        <ele>292</ele>
        <time>2018-10-31T11:13:11Z</time>
      </trkpt>
      <trkpt lat="45.9604" lon="4.92728">
        <ele>292</ele>
        <time>2018-10-31T11:13:12Z</time>
      </trkpt>
      <trkpt lat="45.96038" lon="4.92719">
        <ele>292</ele>
        <time>2018-10-31T11:13:13Z</time>
      </trkpt>
      <trkpt lat="45.96035" lon="4.92709">
        <ele>292</ele>
        <time>2018-10-31T11:13:14Z</time>
      </trkpt>
      <trkpt lat="45.96033" lon="4.92701">
        <ele>292</ele>
        <time>2018-10-31T11:13:15Z</time>
      </trkpt>
      <trkpt lat="45.9603" lon="4.92692">
        <ele>292</ele>
        <time>2018-10-31T11:13:16Z</time>
      </trkpt>
      <trkpt lat="45.96027" lon="4.92684">
        <ele>292</ele>
        <time>2018-10-31T11:13:17Z</time>
      </trkpt>
      <trkpt lat="45.96024" lon="4.92675">
        <ele>292</ele>
        <time>2018-10-31T11:13:18Z</time>
      </trkpt>
      <trkpt lat="45.96021" lon="4.92666">
        <ele>291</ele>
        <time>2018-10-31T11:13:19Z</time>
      </trkpt>
      <trkpt lat="45.96019" lon="4.92657">
        <ele>291</ele>
        <time>2018-10-31T11:13:20Z</time>
      </trkpt>
      <trkpt lat="45.96018" lon="4.92648">
        <ele>291</ele>
        <time>2018-10-31T11:13:21Z</time>
      </trkpt>
      <trkpt lat="45.96016" lon="4.92639">
        <ele>291</ele>
        <time>2018-10-31T11:13:22Z</time>
      </trkpt>
      <trkpt lat="45.96012" lon="4.9263">
        <ele>291</ele>
        <time>2018-10-31T11:13:23Z</time>
      </trkpt>
      <trkpt lat="45.9601" lon="4.92622">
        <ele>291</ele>
        <time>2018-10-31T11:13:24Z</time>
      </trkpt>
      <trkpt lat="45.96007" lon="4.92613">
        <ele>291</ele>
        <time>2018-10-31T11:13:25Z</time>
      </trkpt>
      <trkpt lat="45.96004" lon="4.92604">
        <ele>291</ele>
        <time>2018-10-31T11:13:26Z</time>
      </trkpt>
      <trkpt lat="45.96002" lon="4.92595">
        <ele>291</ele>
        <time>2018-10-31T11:13:27Z</time>
      </trkpt>
      <trkpt lat="45.95999" lon="4.92585">
        <ele>291</ele>
        <time>2018-10-31T11:13:28Z</time>
      </trkpt>
      <trkpt lat="45.95996" lon="4.92576">
        <ele>291</ele>
        <time>2018-10-31T11:13:29Z</time>
      </trkpt>
      <trkpt lat="45.95993" lon="4.92568">
        <ele>292</ele>
        <time>2018-10-31T11:13:30Z</time>
      </trkpt>
      <trkpt lat="45.95991" lon="4.9256">
        <ele>292</ele>
        <time>2018-10-31T11:13:31Z</time>
      </trkpt>
      <trkpt lat="45.95987" lon="4.92551">
        <ele>292</ele>
        <time>2018-10-31T11:13:32Z</time>
      </trkpt>
      <trkpt lat="45.95985" lon="4.92542">
        <ele>292</ele>
        <time>2018-10-31T11:13:33Z</time>
      </trkpt>
      <trkpt lat="45.95983" lon="4.92534">
        <ele>292</ele>
        <time>2018-10-31T11:13:34Z</time>
      </trkpt>
      <trkpt lat="45.95981" lon="4.92525">
        <ele>292</ele>
        <time>2018-10-31T11:13:35Z</time>
      </trkpt>
      <trkpt lat="45.95979" lon="4.92516">
        <ele>292</ele>
        <time>2018-10-31T11:13:36Z</time>
      </trkpt>
      <trkpt lat="45.95977" lon="4.92507">
        <ele>292</ele>
        <time>2018-10-31T11:13:37Z</time>
      </trkpt>
      <trkpt lat="45.95975" lon="4.92498">
        <ele>293</ele>
        <time>2018-10-31T11:13:38Z</time>
      </trkpt>
      <trkpt lat="45.95973" lon="4.9249">
        <ele>293</ele>
        <time>2018-10-31T11:13:39Z</time>
      </trkpt>
      <trkpt lat="45.95972" lon="4.92481">
        <ele>293</ele>
        <time>2018-10-31T11:13:40Z</time>
      </trkpt>
      <trkpt lat="45.95971" lon="4.92473">
        <ele>293</ele>
        <time>2018-10-31T11:13:41Z</time>
      </trkpt>
      <trkpt lat="45.95969" lon="4.92465">
        <ele>293</ele>
        <time>2018-10-31T11:13:42Z</time>
      </trkpt>
      <trkpt lat="45.95967" lon="4.92456">
        <ele>293</ele>
        <time>2018-10-31T11:13:43Z</time>
      </trkpt>
      <trkpt lat="45.95966" lon="4.92447">
        <ele>293</ele>
        <time>2018-10-31T11:13:44Z</time>
      </trkpt>
      <trkpt lat="45.95965" lon="4.92439">
        <ele>293</ele>
        <time>2018-10-31T11:13:45Z</time>
      </trkpt>
      <trkpt lat="45.95963" lon="4.92431">
        <ele>293</ele>
        <time>2018-10-31T11:13:46Z</time>
      </trkpt>
      <trkpt lat="45.95962" lon="4.92423">
        <ele>293</ele>
        <time>2018-10-31T11:13:47Z</time>
      </trkpt>
      <trkpt lat="45.95961" lon="4.92415">
        <ele>294</ele>
        <time>2018-10-31T11:13:48Z</time>
      </trkpt>
      <trkpt lat="45.9596" lon="4.92407">
        <ele>294</ele>
        <time>2018-10-31T11:13:49Z</time>
      </trkpt>
      <trkpt lat="45.95959" lon="4.92398">
        <ele>294</ele>
        <time>2018-10-31T11:13:50Z</time>
      </trkpt>
      <trkpt lat="45.95957" lon="4.9239">
        <ele>294</ele>
        <time>2018-10-31T11:13:51Z</time>
      </trkpt>
      <trkpt lat="45.95955" lon="4.92383">
        <ele>294</ele>
        <time>2018-10-31T11:13:52Z</time>
      </trkpt>
      <trkpt lat="45.95954" lon="4.92376">
        <ele>294</ele>
        <time>2018-10-31T11:13:53Z</time>
      </trkpt>
      <trkpt lat="45.95953" lon="4.92368">
        <ele>294</ele>
        <time>2018-10-31T11:13:54Z</time>
      </trkpt>
      <trkpt lat="45.95952" lon="4.92361">
        <ele>294</ele>
        <time>2018-10-31T11:13:55Z</time>
      </trkpt>
      <trkpt lat="45.95951" lon="4.92354">
        <ele>295</ele>
        <time>2018-10-31T11:13:56Z</time>
      </trkpt>
      <trkpt lat="45.9595" lon="4.92347">
        <ele>295</ele>
        <time>2018-10-31T11:13:57Z</time>
      </trkpt>
      <trkpt lat="45.95948" lon="4.9234">
        <ele>295</ele>
        <time>2018-10-31T11:13:58Z</time>
      </trkpt>
      <trkpt lat="45.95947" lon="4.92332">
        <ele>295</ele>
        <time>2018-10-31T11:13:59Z</time>
      </trkpt>
      <trkpt lat="45.95946" lon="4.92325">
        <ele>295</ele>
        <time>2018-10-31T11:14:00Z</time>
      </trkpt>
      <trkpt lat="45.95945" lon="4.92317">
        <ele>295</ele>
        <time>2018-10-31T11:14:01Z</time>
      </trkpt>
      <trkpt lat="45.95944" lon="4.9231">
        <ele>295</ele>
        <time>2018-10-31T11:14:02Z</time>
      </trkpt>
      <trkpt lat="45.95942" lon="4.92302">
        <ele>295</ele>
        <time>2018-10-31T11:14:03Z</time>
      </trkpt>
      <trkpt lat="45.9594" lon="4.92294">
        <ele>295</ele>
        <time>2018-10-31T11:14:04Z</time>
      </trkpt>
      <trkpt lat="45.95939" lon="4.92286">
        <ele>295</ele>
        <time>2018-10-31T11:14:05Z</time>
      </trkpt>
      <trkpt lat="45.95938" lon="4.92279">
        <ele>295</ele>
        <time>2018-10-31T11:14:06Z</time>
      </trkpt>
      <trkpt lat="45.95936" lon="4.92271">
        <ele>296</ele>
        <time>2018-10-31T11:14:07Z</time>
      </trkpt>
      <trkpt lat="45.95935" lon="4.92264">
        <ele>296</ele>
        <time>2018-10-31T11:14:08Z</time>
      </trkpt>
      <trkpt lat="45.95933" lon="4.92256">
        <ele>296</ele>
        <time>2018-10-31T11:14:09Z</time>
      </trkpt>
      <trkpt lat="45.95932" lon="4.92247">
        <ele>295</ele>
        <time>2018-10-31T11:14:10Z</time>
      </trkpt>
      <trkpt lat="45.9593" lon="4.92239">
        <ele>295</ele>
        <time>2018-10-31T11:14:11Z</time>
      </trkpt>
      <trkpt lat="45.95929" lon="4.9223">
        <ele>295</ele>
        <time>2018-10-31T11:14:12Z</time>
      </trkpt>
      <trkpt lat="45.95927" lon="4.92222">
        <ele>295</ele>
        <time>2018-10-31T11:14:13Z</time>
      </trkpt>
      <trkpt lat="45.95926" lon="4.92214">
        <ele>295</ele>
        <time>2018-10-31T11:14:14Z</time>
      </trkpt>
      <trkpt lat="45.95924" lon="4.92206">
        <ele>295</ele>
        <time>2018-10-31T11:14:15Z</time>
      </trkpt>
      <trkpt lat="45.95923" lon="4.92198">
        <ele>295</ele>
        <time>2018-10-31T11:14:16Z</time>
      </trkpt>
      <trkpt lat="45.95921" lon="4.9219">
        <ele>295</ele>
        <time>2018-10-31T11:14:17Z</time>
      </trkpt>
      <trkpt lat="45.9592" lon="4.92182">
        <ele>295</ele>
        <time>2018-10-31T11:14:18Z</time>
      </trkpt>
      <trkpt lat="45.95919" lon="4.92174">
        <ele>295</ele>
        <time>2018-10-31T11:14:19Z</time>
      </trkpt>
      <trkpt lat="45.95918" lon="4.92165">
        <ele>295</ele>
        <time>2018-10-31T11:14:20Z</time>
      </trkpt>
      <trkpt lat="45.95917" lon="4.92157">
        <ele>295</ele>
        <time>2018-10-31T11:14:21Z</time>
      </trkpt>
      <trkpt lat="45.95915" lon="4.92149">
        <ele>296</ele>
        <time>2018-10-31T11:14:22Z</time>
      </trkpt>
      <trkpt lat="45.95914" lon="4.9214">
        <ele>296</ele>
        <time>2018-10-31T11:14:23Z</time>
      </trkpt>
      <trkpt lat="45.95912" lon="4.92131">
        <ele>296</ele>
        <time>2018-10-31T11:14:24Z</time>
      </trkpt>
      <trkpt lat="45.9591" lon="4.92123">
        <ele>296</ele>
        <time>2018-10-31T11:14:25Z</time>
      </trkpt>
      <trkpt lat="45.95909" lon="4.92115">
        <ele>296</ele>
        <time>2018-10-31T11:14:26Z</time>
      </trkpt>
      <trkpt lat="45.95907" lon="4.92107">
        <ele>296</ele>
        <time>2018-10-31T11:14:27Z</time>
      </trkpt>
      <trkpt lat="45.95906" lon="4.921">
        <ele>296</ele>
        <time>2018-10-31T11:14:28Z</time>
      </trkpt>
      <trkpt lat="45.95905" lon="4.92092">
        <ele>296</ele>
        <time>2018-10-31T11:14:29Z</time>
      </trkpt>
      <trkpt lat="45.95902" lon="4.92085">
        <ele>296</ele>
        <time>2018-10-31T11:14:30Z</time>
      </trkpt>
      <trkpt lat="45.95901" lon="4.92077">
        <ele>296</ele>
        <time>2018-10-31T11:14:31Z</time>
      </trkpt>
      <trkpt lat="45.95899" lon="4.92068">
        <ele>296</ele>
        <time>2018-10-31T11:14:32Z</time>
      </trkpt>
      <trkpt lat="45.95898" lon="4.9206">
        <ele>297</ele>
        <time>2018-10-31T11:14:33Z</time>
      </trkpt>
      <trkpt lat="45.95897" lon="4.92051">
        <ele>297</ele>
        <time>2018-10-31T11:14:34Z</time>
      </trkpt>
      <trkpt lat="45.95895" lon="4.92044">
        <ele>297</ele>
        <time>2018-10-31T11:14:35Z</time>
      </trkpt>
      <trkpt lat="45.95893" lon="4.92035">
        <ele>297</ele>
        <time>2018-10-31T11:14:36Z</time>
      </trkpt>
      <trkpt lat="45.95892" lon="4.92028">
        <ele>297</ele>
        <time>2018-10-31T11:14:37Z</time>
      </trkpt>
      <trkpt lat="45.9589" lon="4.92019">
        <ele>297</ele>
        <time>2018-10-31T11:14:38Z</time>
      </trkpt>
      <trkpt lat="45.95889" lon="4.9201">
        <ele>297</ele>
        <time>2018-10-31T11:14:39Z</time>
      </trkpt>
      <trkpt lat="45.95888" lon="4.92001">
        <ele>297</ele>
        <time>2018-10-31T11:14:40Z</time>
      </trkpt>
      <trkpt lat="45.95887" lon="4.91994">
        <ele>298</ele>
        <time>2018-10-31T11:14:41Z</time>
      </trkpt>
      <trkpt lat="45.95885" lon="4.91985">
        <ele>298</ele>
        <time>2018-10-31T11:14:42Z</time>
      </trkpt>
      <trkpt lat="45.95883" lon="4.91976">
        <ele>298</ele>
        <time>2018-10-31T11:14:43Z</time>
      </trkpt>
      <trkpt lat="45.95881" lon="4.91968">
        <ele>298</ele>
        <time>2018-10-31T11:14:44Z</time>
      </trkpt>
      <trkpt lat="45.9588" lon="4.91959">
        <ele>299</ele>
        <time>2018-10-31T11:14:45Z</time>
      </trkpt>
      <trkpt lat="45.95878" lon="4.91951">
        <ele>299</ele>
        <time>2018-10-31T11:14:46Z</time>
      </trkpt>
      <trkpt lat="45.95876" lon="4.91941">
        <ele>299</ele>
        <time>2018-10-31T11:14:47Z</time>
      </trkpt>
      <trkpt lat="45.95874" lon="4.91933">
        <ele>299</ele>
        <time>2018-10-31T11:14:48Z</time>
      </trkpt>
      <trkpt lat="45.95872" lon="4.91924">
        <ele>299</ele>
        <time>2018-10-31T11:14:49Z</time>
      </trkpt>
      <trkpt lat="45.95871" lon="4.91915">
        <ele>301</ele>
        <time>2018-10-31T11:14:50Z</time>
      </trkpt>
      <trkpt lat="45.9587" lon="4.91907">
        <ele>301</ele>
        <time>2018-10-31T11:14:51Z</time>
      </trkpt>
      <trkpt lat="45.95869" lon="4.91899">
        <ele>301</ele>
        <time>2018-10-31T11:14:52Z</time>
      </trkpt>
      <trkpt lat="45.95868" lon="4.91891">
        <ele>301</ele>
        <time>2018-10-31T11:14:53Z</time>
      </trkpt>
      <trkpt lat="45.95866" lon="4.91883">
        <ele>301</ele>
        <time>2018-10-31T11:14:54Z</time>
      </trkpt>
      <trkpt lat="45.95864" lon="4.91875">
        <ele>302</ele>
        <time>2018-10-31T11:14:55Z</time>
      </trkpt>
      <trkpt lat="45.95862" lon="4.91868">
        <ele>302</ele>
        <time>2018-10-31T11:14:56Z</time>
      </trkpt>
      <trkpt lat="45.95861" lon="4.9186">
        <ele>302</ele>
        <time>2018-10-31T11:14:57Z</time>
      </trkpt>
      <trkpt lat="45.95859" lon="4.91852">
        <ele>302</ele>
        <time>2018-10-31T11:14:58Z</time>
      </trkpt>
      <trkpt lat="45.95858" lon="4.91845">
        <ele>302</ele>
        <time>2018-10-31T11:14:59Z</time>
      </trkpt>
      <trkpt lat="45.95857" lon="4.91838">
        <ele>302</ele>
        <time>2018-10-31T11:15:00Z</time>
      </trkpt>
      <trkpt lat="45.95856" lon="4.9183">
        <ele>303</ele>
        <time>2018-10-31T11:15:01Z</time>
      </trkpt>
      <trkpt lat="45.95855" lon="4.91823">
        <ele>303</ele>
        <time>2018-10-31T11:15:02Z</time>
      </trkpt>
      <trkpt lat="45.95854" lon="4.91815">
        <ele>303</ele>
        <time>2018-10-31T11:15:03Z</time>
      </trkpt>
      <trkpt lat="45.95852" lon="4.91808">
        <ele>303</ele>
        <time>2018-10-31T11:15:04Z</time>
      </trkpt>
      <trkpt lat="45.95851" lon="4.918">
        <ele>303</ele>
        <time>2018-10-31T11:15:05Z</time>
      </trkpt>
      <trkpt lat="45.9585" lon="4.91793">
        <ele>303</ele>
        <time>2018-10-31T11:15:06Z</time>
      </trkpt>
      <trkpt lat="45.95849" lon="4.91786">
        <ele>303</ele>
        <time>2018-10-31T11:15:07Z</time>
      </trkpt>
      <trkpt lat="45.95847" lon="4.91778">
        <ele>303</ele>
        <time>2018-10-31T11:15:08Z</time>
      </trkpt>
      <trkpt lat="45.95846" lon="4.91771">
        <ele>303</ele>
        <time>2018-10-31T11:15:09Z</time>
      </trkpt>
      <trkpt lat="45.95845" lon="4.91764">
        <ele>303</ele>
        <time>2018-10-31T11:15:10Z</time>
      </trkpt>
      <trkpt lat="45.95843" lon="4.91757">
        <ele>303</ele>
        <time>2018-10-31T11:15:11Z</time>
      </trkpt>
      <trkpt lat="45.95842" lon="4.91749">
        <ele>303</ele>
        <time>2018-10-31T11:15:12Z</time>
      </trkpt>
      <trkpt lat="45.9584" lon="4.91741">
        <ele>303</ele>
        <time>2018-10-31T11:15:13Z</time>
      </trkpt>
      <trkpt lat="45.95839" lon="4.91733">
        <ele>303</ele>
        <time>2018-10-31T11:15:14Z</time>
      </trkpt>
      <trkpt lat="45.95839" lon="4.91725">
        <ele>303</ele>
        <time>2018-10-31T11:15:15Z</time>
      </trkpt>
      <trkpt lat="45.95839" lon="4.91715">
        <ele>302</ele>
        <time>2018-10-31T11:15:16Z</time>
      </trkpt>
      <trkpt lat="45.95838" lon="4.91708">
        <ele>302</ele>
        <time>2018-10-31T11:15:17Z</time>
      </trkpt>
      <trkpt lat="45.95838" lon="4.91699">
        <ele>302</ele>
        <time>2018-10-31T11:15:18Z</time>
      </trkpt>
      <trkpt lat="45.95838" lon="4.9169">
        <ele>302</ele>
        <time>2018-10-31T11:15:19Z</time>
      </trkpt>
      <trkpt lat="45.95838" lon="4.91681">
        <ele>302</ele>
        <time>2018-10-31T11:15:20Z</time>
      </trkpt>
      <trkpt lat="45.95838" lon="4.91672">
        <ele>301</ele>
        <time>2018-10-31T11:15:21Z</time>
      </trkpt>
      <trkpt lat="45.95838" lon="4.91662">
        <ele>301</ele>
        <time>2018-10-31T11:15:22Z</time>
      </trkpt>
      <trkpt lat="45.95838" lon="4.91652">
        <ele>301</ele>
        <time>2018-10-31T11:15:23Z</time>
      </trkpt>
      <trkpt lat="45.95838" lon="4.91642">
        <ele>301</ele>
        <time>2018-10-31T11:15:24Z</time>
      </trkpt>
      <trkpt lat="45.95839" lon="4.91632">
        <ele>301</ele>
        <time>2018-10-31T11:15:25Z</time>
      </trkpt>
      <trkpt lat="45.95841" lon="4.91621">
        <ele>301</ele>
        <time>2018-10-31T11:15:26Z</time>
      </trkpt>
      <trkpt lat="45.95841" lon="4.9161">
        <ele>301</ele>
        <time>2018-10-31T11:15:27Z</time>
      </trkpt>
      <trkpt lat="45.95841" lon="4.916">
        <ele>301</ele>
        <time>2018-10-31T11:15:28Z</time>
      </trkpt>
      <trkpt lat="45.95841" lon="4.91589">
        <ele>300</ele>
        <time>2018-10-31T11:15:29Z</time>
      </trkpt>
      <trkpt lat="45.95843" lon="4.91581">
        <ele>300</ele>
        <time>2018-10-31T11:15:30Z</time>
      </trkpt>
      <trkpt lat="45.95843" lon="4.91571">
        <ele>300</ele>
        <time>2018-10-31T11:15:31Z</time>
      </trkpt>
      <trkpt lat="45.95843" lon="4.9156">
        <ele>300</ele>
        <time>2018-10-31T11:15:32Z</time>
      </trkpt>
      <trkpt lat="45.95844" lon="4.91549">
        <ele>300</ele>
        <time>2018-10-31T11:15:33Z</time>
      </trkpt>
      <trkpt lat="45.95845" lon="4.91538">
        <ele>300</ele>
        <time>2018-10-31T11:15:34Z</time>
      </trkpt>
      <trkpt lat="45.95846" lon="4.91528">
        <ele>300</ele>
        <time>2018-10-31T11:15:35Z</time>
      </trkpt>
      <trkpt lat="45.95846" lon="4.91517">
        <ele>299</ele>
        <time>2018-10-31T11:15:36Z</time>
      </trkpt>
      <trkpt lat="45.95847" lon="4.91506">
        <ele>299</ele>
        <time>2018-10-31T11:15:37Z</time>
      </trkpt>
      <trkpt lat="45.95846" lon="4.91495">
        <ele>299</ele>
        <time>2018-10-31T11:15:38Z</time>
      </trkpt>
      <trkpt lat="45.95847" lon="4.91484">
        <ele>299</ele>
        <time>2018-10-31T11:15:39Z</time>
      </trkpt>
      <trkpt lat="45.95847" lon="4.91473">
        <ele>299</ele>
        <time>2018-10-31T11:15:40Z</time>
      </trkpt>
      <trkpt lat="45.95848" lon="4.91464">
        <ele>299</ele>
        <time>2018-10-31T11:15:41Z</time>
      </trkpt>
      <trkpt lat="45.95848" lon="4.91453">
        <ele>299</ele>
        <time>2018-10-31T11:15:42Z</time>
      </trkpt>
      <trkpt lat="45.95849" lon="4.91443">
        <ele>298</ele>
        <time>2018-10-31T11:15:43Z</time>
      </trkpt>
      <trkpt lat="45.95849" lon="4.91433">
        <ele>298</ele>
        <time>2018-10-31T11:15:44Z</time>
      </trkpt>
      <trkpt lat="45.95849" lon="4.91423">
        <ele>298</ele>
        <time>2018-10-31T11:15:45Z</time>
      </trkpt>
      <trkpt lat="45.9585" lon="4.91414">
        <ele>297</ele>
        <time>2018-10-31T11:15:46Z</time>
      </trkpt>
      <trkpt lat="45.9585" lon="4.91404">
        <ele>298</ele>
        <time>2018-10-31T11:15:47Z</time>
      </trkpt>
      <trkpt lat="45.9585" lon="4.91394">
        <ele>298</ele>
        <time>2018-10-31T11:15:48Z</time>
      </trkpt>
      <trkpt lat="45.9585" lon="4.91384">
        <ele>298</ele>
        <time>2018-10-31T11:15:49Z</time>
      </trkpt>
      <trkpt lat="45.95851" lon="4.91375">
        <ele>298</ele>
        <time>2018-10-31T11:15:50Z</time>
      </trkpt>
      <trkpt lat="45.95852" lon="4.91365">
        <ele>298</ele>
        <time>2018-10-31T11:15:51Z</time>
      </trkpt>
      <trkpt lat="45.95852" lon="4.91356">
        <ele>298</ele>
        <time>2018-10-31T11:15:52Z</time>
      </trkpt>
      <trkpt lat="45.95853" lon="4.91347">
        <ele>298</ele>
        <time>2018-10-31T11:15:53Z</time>
      </trkpt>
      <trkpt lat="45.95853" lon="4.91338">
        <ele>298</ele>
        <time>2018-10-31T11:15:54Z</time>
      </trkpt>
      <trkpt lat="45.95853" lon="4.91328">
        <ele>298</ele>
        <time>2018-10-31T11:15:55Z</time>
      </trkpt>
      <trkpt lat="45.95854" lon="4.91319">
        <ele>298</ele>
        <time>2018-10-31T11:15:56Z</time>
      </trkpt>
      <trkpt lat="45.95854" lon="4.91309">
        <ele>298</ele>
        <time>2018-10-31T11:15:57Z</time>
      </trkpt>
      <trkpt lat="45.95855" lon="4.91299">
        <ele>298</ele>
        <time>2018-10-31T11:15:58Z</time>
      </trkpt>
      <trkpt lat="45.95855" lon="4.91289">
        <ele>298</ele>
        <time>2018-10-31T11:15:59Z</time>
      </trkpt>
      <trkpt lat="45.95856" lon="4.9128">
        <ele>298</ele>
        <time>2018-10-31T11:16:00Z</time>
      </trkpt>
      <trkpt lat="45.95855" lon="4.91269">
        <ele>297</ele>
        <time>2018-10-31T11:16:01Z</time>
      </trkpt>
      <trkpt lat="45.95856" lon="4.9126">
        <ele>297</ele>
        <time>2018-10-31T11:16:02Z</time>
      </trkpt>
      <trkpt lat="45.95857" lon="4.91251">
        <ele>297</ele>
        <time>2018-10-31T11:16:03Z</time>
      </trkpt>
      <trkpt lat="45.95857" lon="4.91242">
        <ele>297</ele>
        <time>2018-10-31T11:16:04Z</time>
      </trkpt>
      <trkpt lat="45.95858" lon="4.91233">
        <ele>297</ele>
        <time>2018-10-31T11:16:05Z</time>
      </trkpt>
      <trkpt lat="45.95858" lon="4.91223">
        <ele>297</ele>
        <time>2018-10-31T11:16:06Z</time>
      </trkpt>
      <trkpt lat="45.95859" lon="4.91215">
        <ele>297</ele>
        <time>2018-10-31T11:16:07Z</time>
      </trkpt>
      <trkpt lat="45.95859" lon="4.91205">
        <ele>297</ele>
        <time>2018-10-31T11:16:08Z</time>
      </trkpt>
      <trkpt lat="45.95859" lon="4.91195">
        <ele>297</ele>
        <time>2018-10-31T11:16:09Z</time>
      </trkpt>
      <trkpt lat="45.95859" lon="4.91185">
        <ele>297</ele>
        <time>2018-10-31T11:16:10Z</time>
      </trkpt>
      <trkpt lat="45.95858" lon="4.91174">
        <ele>296</ele>
        <time>2018-10-31T11:16:11Z</time>
      </trkpt>
      <trkpt lat="45.95857" lon="4.91165">
        <ele>297</ele>
        <time>2018-10-31T11:16:12Z</time>
      </trkpt>
      <trkpt lat="45.95858" lon="4.91155">
        <ele>297</ele>
        <time>2018-10-31T11:16:13Z</time>
      </trkpt>
      <trkpt lat="45.95858" lon="4.91145">
        <ele>297</ele>
        <time>2018-10-31T11:16:14Z</time>
      </trkpt>
      <trkpt lat="45.95858" lon="4.91135">
        <ele>297</ele>
        <time>2018-10-31T11:16:15Z</time>
      </trkpt>
      <trkpt lat="45.95859" lon="4.91125">
        <ele>297</ele>
        <time>2018-10-31T11:16:16Z</time>
      </trkpt>
      <trkpt lat="45.95858" lon="4.91116">
        <ele>297</ele>
        <time>2018-10-31T11:16:17Z</time>
      </trkpt>
      <trkpt lat="45.95859" lon="4.91106">
        <ele>297</ele>
        <time>2018-10-31T11:16:18Z</time>
      </trkpt>
      <trkpt lat="45.9586" lon="4.91096">
        <ele>297</ele>
        <time>2018-10-31T11:16:19Z</time>
      </trkpt>
      <trkpt lat="45.9586" lon="4.91086">
        <ele>297</ele>
        <time>2018-10-31T11:16:20Z</time>
      </trkpt>
      <trkpt lat="45.95861" lon="4.91077">
        <ele>297</ele>
        <time>2018-10-31T11:16:21Z</time>
      </trkpt>
      <trkpt lat="45.95862" lon="4.91068">
        <ele>297</ele>
        <time>2018-10-31T11:16:22Z</time>
      </trkpt>
      <trkpt lat="45.95862" lon="4.91058">
        <ele>297</ele>
        <time>2018-10-31T11:16:23Z</time>
      </trkpt>
      <trkpt lat="45.95862" lon="4.91048">
        <ele>297</ele>
        <time>2018-10-31T11:16:24Z</time>
      </trkpt>
      <trkpt lat="45.95863" lon="4.91038">
        <ele>297</ele>
        <time>2018-10-31T11:16:25Z</time>
      </trkpt>
      <trkpt lat="45.95863" lon="4.91029">
        <ele>296</ele>
        <time>2018-10-31T11:16:26Z</time>
      </trkpt>
      <trkpt lat="45.95863" lon="4.91021">
        <ele>296</ele>
        <time>2018-10-31T11:16:27Z</time>
      </trkpt>
      <trkpt lat="45.95864" lon="4.91012">
        <ele>296</ele>
        <time>2018-10-31T11:16:28Z</time>
      </trkpt>
      <trkpt lat="45.95865" lon="4.91005">
        <ele>296</ele>
        <time>2018-10-31T11:16:29Z</time>
      </trkpt>
      <trkpt lat="45.95863" lon="4.90997">
        <ele>294</ele>
        <time>2018-10-31T11:16:30Z</time>
      </trkpt>
      <trkpt lat="45.95862" lon="4.90989">
        <ele>294</ele>
        <time>2018-10-31T11:16:31Z</time>
      </trkpt>
      <trkpt lat="45.95863" lon="4.90981">
        <ele>294</ele>
        <time>2018-10-31T11:16:32Z</time>
      </trkpt>
      <trkpt lat="45.95863" lon="4.90973">
        <ele>294</ele>
        <time>2018-10-31T11:16:33Z</time>
      </trkpt>
      <trkpt lat="45.95863" lon="4.90965">
        <ele>294</ele>
        <time>2018-10-31T11:16:34Z</time>
      </trkpt>
      <trkpt lat="45.95862" lon="4.90957">
        <ele>294</ele>
        <time>2018-10-31T11:16:35Z</time>
      </trkpt>
      <trkpt lat="45.95862" lon="4.90949">
        <ele>294</ele>
        <time>2018-10-31T11:16:36Z</time>
      </trkpt>
      <trkpt lat="45.95863" lon="4.90942">
        <ele>293</ele>
        <time>2018-10-31T11:16:37Z</time>
      </trkpt>
      <trkpt lat="45.95863" lon="4.90933">
        <ele>293</ele>
        <time>2018-10-31T11:16:38Z</time>
      </trkpt>
      <trkpt lat="45.95864" lon="4.90925">
        <ele>293</ele>
        <time>2018-10-31T11:16:39Z</time>
      </trkpt>
      <trkpt lat="45.95864" lon="4.90916">
        <ele>292</ele>
        <time>2018-10-31T11:16:40Z</time>
      </trkpt>
      <trkpt lat="45.95865" lon="4.90908">
        <ele>292</ele>
        <time>2018-10-31T11:16:41Z</time>
      </trkpt>
      <trkpt lat="45.95865" lon="4.909">
        <ele>292</ele>
        <time>2018-10-31T11:16:42Z</time>
      </trkpt>
      <trkpt lat="45.95866" lon="4.90891">
        <ele>292</ele>
        <time>2018-10-31T11:16:43Z</time>
      </trkpt>
      <trkpt lat="45.95866" lon="4.90881">
        <ele>292</ele>
        <time>2018-10-31T11:16:44Z</time>
      </trkpt>
      <trkpt lat="45.95867" lon="4.90873">
        <ele>292</ele>
        <time>2018-10-31T11:16:45Z</time>
      </trkpt>
      <trkpt lat="45.95867" lon="4.90863">
        <ele>292</ele>
        <time>2018-10-31T11:16:46Z</time>
      </trkpt>
      <trkpt lat="45.95867" lon="4.90854">
        <ele>292</ele>
        <time>2018-10-31T11:16:47Z</time>
      </trkpt>
      <trkpt lat="45.95867" lon="4.90845">
        <ele>292</ele>
        <time>2018-10-31T11:16:48Z</time>
      </trkpt>
      <trkpt lat="45.95867" lon="4.90836">
        <ele>292</ele>
        <time>2018-10-31T11:16:49Z</time>
      </trkpt>
      <trkpt lat="45.95868" lon="4.90828">
        <ele>292</ele>
        <time>2018-10-31T11:16:50Z</time>
      </trkpt>
      <trkpt lat="45.95868" lon="4.90819">
        <ele>291</ele>
        <time>2018-10-31T11:16:51Z</time>
      </trkpt>
      <trkpt lat="45.9587" lon="4.9081">
        <ele>291</ele>
        <time>2018-10-31T11:16:52Z</time>
      </trkpt>
      <trkpt lat="45.9587" lon="4.908">
        <ele>291</ele>
        <time>2018-10-31T11:16:53Z</time>
      </trkpt>
      <trkpt lat="45.9587" lon="4.90791">
        <ele>291</ele>
        <time>2018-10-31T11:16:54Z</time>
      </trkpt>
      <trkpt lat="45.9587" lon="4.90782">
        <ele>291</ele>
        <time>2018-10-31T11:16:55Z</time>
      </trkpt>
      <trkpt lat="45.9587" lon="4.90774">
        <ele>291</ele>
        <time>2018-10-31T11:16:56Z</time>
      </trkpt>
      <trkpt lat="45.95871" lon="4.90765">
        <ele>291</ele>
        <time>2018-10-31T11:16:57Z</time>
      </trkpt>
      <trkpt lat="45.95871" lon="4.90756">
        <ele>291</ele>
        <time>2018-10-31T11:16:58Z</time>
      </trkpt>
      <trkpt lat="45.95872" lon="4.90747">
        <ele>292</ele>
        <time>2018-10-31T11:16:59Z</time>
      </trkpt>
      <trkpt lat="45.95872" lon="4.90739">
        <ele>292</ele>
        <time>2018-10-31T11:17:00Z</time>
      </trkpt>
      <trkpt lat="45.95872" lon="4.9073">
        <ele>292</ele>
        <time>2018-10-31T11:17:01Z</time>
      </trkpt>
      <trkpt lat="45.95872" lon="4.90721">
        <ele>292</ele>
        <time>2018-10-31T11:17:02Z</time>
      </trkpt>
      <trkpt lat="45.95873" lon="4.90713">
        <ele>292</ele>
        <time>2018-10-31T11:17:03Z</time>
      </trkpt>
      <trkpt lat="45.95873" lon="4.90704">
        <ele>292</ele>
        <time>2018-10-31T11:17:04Z</time>
      </trkpt>
      <trkpt lat="45.95874" lon="4.90696">
        <ele>292</ele>
        <time>2018-10-31T11:17:05Z</time>
      </trkpt>
      <trkpt lat="45.95874" lon="4.90688">
        <ele>292</ele>
        <time>2018-10-31T11:17:06Z</time>
      </trkpt>
      <trkpt lat="45.95874" lon="4.9068">
        <ele>292</ele>
        <time>2018-10-31T11:17:07Z</time>
      </trkpt>
      <trkpt lat="45.95875" lon="4.90672">
        <ele>292</ele>
        <time>2018-10-31T11:17:08Z</time>
      </trkpt>
      <trkpt lat="45.95875" lon="4.90664">
        <ele>293</ele>
        <time>2018-10-31T11:17:09Z</time>
      </trkpt>
      <trkpt lat="45.95876" lon="4.90655">
        <ele>293</ele>
        <time>2018-10-31T11:17:10Z</time>
      </trkpt>
      <trkpt lat="45.95876" lon="4.90647">
        <ele>293</ele>
        <time>2018-10-31T11:17:11Z</time>
      </trkpt>
      <trkpt lat="45.95877" lon="4.90638">
        <ele>293</ele>
        <time>2018-10-31T11:17:12Z</time>
      </trkpt>
      <trkpt lat="45.95877" lon="4.9063">
        <ele>293</ele>
        <time>2018-10-31T11:17:13Z</time>
      </trkpt>
      <trkpt lat="45.95877" lon="4.90621">
        <ele>293</ele>
        <time>2018-10-31T11:17:14Z</time>
      </trkpt>
      <trkpt lat="45.95878" lon="4.90612">
        <ele>293</ele>
        <time>2018-10-31T11:17:15Z</time>
      </trkpt>
      <trkpt lat="45.95878" lon="4.90603">
        <ele>293</ele>
        <time>2018-10-31T11:17:16Z</time>
      </trkpt>
      <trkpt lat="45.95878" lon="4.90593">
        <ele>293</ele>
        <time>2018-10-31T11:17:17Z</time>
      </trkpt>
      <trkpt lat="45.95878" lon="4.90583">
        <ele>292</ele>
        <time>2018-10-31T11:17:18Z</time>
      </trkpt>
      <trkpt lat="45.95879" lon="4.90575">
        <ele>292</ele>
        <time>2018-10-31T11:17:19Z</time>
      </trkpt>
      <trkpt lat="45.9588" lon="4.90567">
        <ele>292</ele>
        <time>2018-10-31T11:17:20Z</time>
      </trkpt>
      <trkpt lat="45.9588" lon="4.90557">
        <ele>292</ele>
        <time>2018-10-31T11:17:21Z</time>
      </trkpt>
      <trkpt lat="45.95881" lon="4.90547">
        <ele>292</ele>
        <time>2018-10-31T11:17:22Z</time>
      </trkpt>
      <trkpt lat="45.95881" lon="4.90538">
        <ele>292</ele>
        <time>2018-10-31T11:17:23Z</time>
      </trkpt>
      <trkpt lat="45.95882" lon="4.90528">
        <ele>292</ele>
        <time>2018-10-31T11:17:24Z</time>
      </trkpt>
      <trkpt lat="45.95882" lon="4.90518">
        <ele>292</ele>
        <time>2018-10-31T11:17:25Z</time>
      </trkpt>
      <trkpt lat="45.95882" lon="4.90508">
        <ele>292</ele>
        <time>2018-10-31T11:17:26Z</time>
      </trkpt>
      <trkpt lat="45.95883" lon="4.905">
        <ele>292</ele>
        <time>2018-10-31T11:17:27Z</time>
      </trkpt>
      <trkpt lat="45.95883" lon="4.90492">
        <ele>292</ele>
        <time>2018-10-31T11:17:28Z</time>
      </trkpt>
      <trkpt lat="45.95883" lon="4.90484">
        <ele>292</ele>
        <time>2018-10-31T11:17:29Z</time>
      </trkpt>
      <trkpt lat="45.95883" lon="4.90476">
        <ele>292</ele>
        <time>2018-10-31T11:17:30Z</time>
      </trkpt>
      <trkpt lat="45.95883" lon="4.90467">
        <ele>292</ele>
        <time>2018-10-31T11:17:31Z</time>
      </trkpt>
      <trkpt lat="45.95884" lon="4.90459">
        <ele>292</ele>
        <time>2018-10-31T11:17:32Z</time>
      </trkpt>
      <trkpt lat="45.95884" lon="4.9045">
        <ele>292</ele>
        <time>2018-10-31T11:17:33Z</time>
      </trkpt>
      <trkpt lat="45.95886" lon="4.90441">
        <ele>292</ele>
        <time>2018-10-31T11:17:34Z</time>
      </trkpt>
      <trkpt lat="45.95886" lon="4.90432">
        <ele>292</ele>
        <time>2018-10-31T11:17:35Z</time>
      </trkpt>
      <trkpt lat="45.95886" lon="4.90423">
        <ele>292</ele>
        <time>2018-10-31T11:17:36Z</time>
      </trkpt>
      <trkpt lat="45.95886" lon="4.90414">
        <ele>292</ele>
        <time>2018-10-31T11:17:37Z</time>
      </trkpt>
      <trkpt lat="45.95887" lon="4.90404">
        <ele>292</ele>
        <time>2018-10-31T11:17:38Z</time>
      </trkpt>
      <trkpt lat="45.95887" lon="4.90395">
        <ele>292</ele>
        <time>2018-10-31T11:17:39Z</time>
      </trkpt>
      <trkpt lat="45.95887" lon="4.90386">
        <ele>292</ele>
        <time>2018-10-31T11:17:40Z</time>
      </trkpt>
      <trkpt lat="45.95887" lon="4.90377">
        <ele>292</ele>
        <time>2018-10-31T11:17:41Z</time>
      </trkpt>
      <trkpt lat="45.95888" lon="4.90368">
        <ele>292</ele>
        <time>2018-10-31T11:17:42Z</time>
      </trkpt>
      <trkpt lat="45.95888" lon="4.90358">
        <ele>292</ele>
        <time>2018-10-31T11:17:43Z</time>
      </trkpt>
      <trkpt lat="45.95889" lon="4.90349">
        <ele>292</ele>
        <time>2018-10-31T11:17:44Z</time>
      </trkpt>
      <trkpt lat="45.95889" lon="4.90341">
        <ele>292</ele>
        <time>2018-10-31T11:17:45Z</time>
      </trkpt>
      <trkpt lat="45.95889" lon="4.90333">
        <ele>292</ele>
        <time>2018-10-31T11:17:46Z</time>
      </trkpt>
      <trkpt lat="45.95889" lon="4.90324">
        <ele>292</ele>
        <time>2018-10-31T11:17:47Z</time>
      </trkpt>
      <trkpt lat="45.9589" lon="4.90314">
        <ele>292</ele>
        <time>2018-10-31T11:17:48Z</time>
      </trkpt>
      <trkpt lat="45.9589" lon="4.90305">
        <ele>292</ele>
        <time>2018-10-31T11:17:49Z</time>
      </trkpt>
      <trkpt lat="45.95891" lon="4.90296">
        <ele>292</ele>
        <time>2018-10-31T11:17:50Z</time>
      </trkpt>
      <trkpt lat="45.95892" lon="4.90287">
        <ele>292</ele>
        <time>2018-10-31T11:17:51Z</time>
      </trkpt>
      <trkpt lat="45.95892" lon="4.90278">
        <ele>292</ele>
        <time>2018-10-31T11:17:52Z</time>
      </trkpt>
      <trkpt lat="45.95892" lon="4.90269">
        <ele>292</ele>
        <time>2018-10-31T11:17:53Z</time>
      </trkpt>
      <trkpt lat="45.95893" lon="4.9026">
        <ele>292</ele>
        <time>2018-10-31T11:17:54Z</time>
      </trkpt>
      <trkpt lat="45.95894" lon="4.90251">
        <ele>292</ele>
        <time>2018-10-31T11:17:55Z</time>
      </trkpt>
      <trkpt lat="45.95895" lon="4.90243">
        <ele>292</ele>
        <time>2018-10-31T11:17:56Z</time>
      </trkpt>
      <trkpt lat="45.95894" lon="4.90235">
        <ele>292</ele>
        <time>2018-10-31T11:17:57Z</time>
      </trkpt>
      <trkpt lat="45.95894" lon="4.90227">
        <ele>292</ele>
        <time>2018-10-31T11:17:58Z</time>
      </trkpt>
      <trkpt lat="45.95894" lon="4.90219">
        <ele>291</ele>
        <time>2018-10-31T11:17:59Z</time>
      </trkpt>
      <trkpt lat="45.95894" lon="4.90211">
        <ele>291</ele>
        <time>2018-10-31T11:18:00Z</time>
      </trkpt>
      <trkpt lat="45.95894" lon="4.90203">
        <ele>291</ele>
        <time>2018-10-31T11:18:01Z</time>
      </trkpt>
      <trkpt lat="45.95894" lon="4.90196">
        <ele>291</ele>
        <time>2018-10-31T11:18:02Z</time>
      </trkpt>
      <trkpt lat="45.95893" lon="4.90189">
        <ele>291</ele>
        <time>2018-10-31T11:18:03Z</time>
      </trkpt>
      <trkpt lat="45.95893" lon="4.9018">
        <ele>291</ele>
        <time>2018-10-31T11:18:04Z</time>
      </trkpt>
      <trkpt lat="45.95893" lon="4.90171">
        <ele>291</ele>
        <time>2018-10-31T11:18:05Z</time>
      </trkpt>
      <trkpt lat="45.95893" lon="4.90162">
        <ele>290</ele>
        <time>2018-10-31T11:18:06Z</time>
      </trkpt>
      <trkpt lat="45.95893" lon="4.90152">
        <ele>290</ele>
        <time>2018-10-31T11:18:07Z</time>
      </trkpt>
      <trkpt lat="45.95893" lon="4.90143">
        <ele>290</ele>
        <time>2018-10-31T11:18:08Z</time>
      </trkpt>
      <trkpt lat="45.95894" lon="4.90134">
        <ele>290</ele>
        <time>2018-10-31T11:18:09Z</time>
      </trkpt>
      <trkpt lat="45.95894" lon="4.90125">
        <ele>290</ele>
        <time>2018-10-31T11:18:10Z</time>
      </trkpt>
      <trkpt lat="45.95893" lon="4.90116">
        <ele>290</ele>
        <time>2018-10-31T11:18:11Z</time>
      </trkpt>
      <trkpt lat="45.95893" lon="4.90106">
        <ele>290</ele>
        <time>2018-10-31T11:18:12Z</time>
      </trkpt>
      <trkpt lat="45.95894" lon="4.90096">
        <ele>290</ele>
        <time>2018-10-31T11:18:13Z</time>
      </trkpt>
      <trkpt lat="45.95894" lon="4.90086">
        <ele>290</ele>
        <time>2018-10-31T11:18:14Z</time>
      </trkpt>
      <trkpt lat="45.95894" lon="4.90077">
        <ele>290</ele>
        <time>2018-10-31T11:18:15Z</time>
      </trkpt>
      <trkpt lat="45.95894" lon="4.90067">
        <ele>290</ele>
        <time>2018-10-31T11:18:16Z</time>
      </trkpt>
      <trkpt lat="45.95894" lon="4.90057">
        <ele>290</ele>
        <time>2018-10-31T11:18:17Z</time>
      </trkpt>
      <trkpt lat="45.95894" lon="4.90048">
        <ele>290</ele>
        <time>2018-10-31T11:18:18Z</time>
      </trkpt>
      <trkpt lat="45.95894" lon="4.90039">
        <ele>290</ele>
        <time>2018-10-31T11:18:19Z</time>
      </trkpt>
      <trkpt lat="45.95893" lon="4.90029">
        <ele>290</ele>
        <time>2018-10-31T11:18:20Z</time>
      </trkpt>
      <trkpt lat="45.95892" lon="4.9002">
        <ele>290</ele>
        <time>2018-10-31T11:18:21Z</time>
      </trkpt>
      <trkpt lat="45.95892" lon="4.9001">
        <ele>290</ele>
        <time>2018-10-31T11:18:22Z</time>
      </trkpt>
      <trkpt lat="45.95892" lon="4.90002">
        <ele>290</ele>
        <time>2018-10-31T11:18:23Z</time>
      </trkpt>
      <trkpt lat="45.95892" lon="4.89993">
        <ele>290</ele>
        <time>2018-10-31T11:18:24Z</time>
      </trkpt>
      <trkpt lat="45.95892" lon="4.89986">
        <ele>290</ele>
        <time>2018-10-31T11:18:25Z</time>
      </trkpt>
      <trkpt lat="45.95892" lon="4.89978">
        <ele>290</ele>
        <time>2018-10-31T11:18:26Z</time>
      </trkpt>
      <trkpt lat="45.95892" lon="4.8997">
        <ele>290</ele>
        <time>2018-10-31T11:18:27Z</time>
      </trkpt>
      <trkpt lat="45.95892" lon="4.89963">
        <ele>290</ele>
        <time>2018-10-31T11:18:28Z</time>
      </trkpt>
      <trkpt lat="45.95892" lon="4.89956">
        <ele>290</ele>
        <time>2018-10-31T11:18:29Z</time>
      </trkpt>
      <trkpt lat="45.95892" lon="4.89943">
        <ele>290</ele>
        <time>2018-10-31T11:18:31Z</time>
      </trkpt>
      <trkpt lat="45.95892" lon="4.89936">
        <ele>290</ele>
        <time>2018-10-31T11:18:32Z</time>
      </trkpt>
      <trkpt lat="45.95892" lon="4.89928">
        <ele>290</ele>
        <time>2018-10-31T11:18:33Z</time>
      </trkpt>
      <trkpt lat="45.95892" lon="4.89921">
        <ele>290</ele>
        <time>2018-10-31T11:18:34Z</time>
      </trkpt>
      <trkpt lat="45.95892" lon="4.89914">
        <ele>290</ele>
        <time>2018-10-31T11:18:35Z</time>
      </trkpt>
      <trkpt lat="45.95892" lon="4.89906">
        <ele>290</ele>
        <time>2018-10-31T11:18:36Z</time>
      </trkpt>
      <trkpt lat="45.95892" lon="4.89898">
        <ele>290</ele>
        <time>2018-10-31T11:18:37Z</time>
      </trkpt>
      <trkpt lat="45.95891" lon="4.8989">
        <ele>290</ele>
        <time>2018-10-31T11:18:38Z</time>
      </trkpt>
      <trkpt lat="45.95891" lon="4.89881">
        <ele>290</ele>
        <time>2018-10-31T11:18:39Z</time>
      </trkpt>
      <trkpt lat="45.95891" lon="4.89874">
        <ele>290</ele>
        <time>2018-10-31T11:18:40Z</time>
      </trkpt>
      <trkpt lat="45.95891" lon="4.89866">
        <ele>290</ele>
        <time>2018-10-31T11:18:41Z</time>
      </trkpt>
      <trkpt lat="45.9589" lon="4.89858">
        <ele>290</ele>
        <time>2018-10-31T11:18:42Z</time>
      </trkpt>
      <trkpt lat="45.9589" lon="4.8985">
        <ele>290</ele>
        <time>2018-10-31T11:18:43Z</time>
      </trkpt>
      <trkpt lat="45.9589" lon="4.89842">
        <ele>290</ele>
        <time>2018-10-31T11:18:44Z</time>
      </trkpt>
      <trkpt lat="45.9589" lon="4.89834">
        <ele>290</ele>
        <time>2018-10-31T11:18:45Z</time>
      </trkpt>
      <trkpt lat="45.9589" lon="4.89824">
        <ele>289</ele>
        <time>2018-10-31T11:18:46Z</time>
      </trkpt>
      <trkpt lat="45.95889" lon="4.89815">
        <ele>289</ele>
        <time>2018-10-31T11:18:47Z</time>
      </trkpt>
      <trkpt lat="45.9589" lon="4.89807">
        <ele>289</ele>
        <time>2018-10-31T11:18:48Z</time>
      </trkpt>
      <trkpt lat="45.9589" lon="4.89799">
        <ele>289</ele>
        <time>2018-10-31T11:18:49Z</time>
      </trkpt>
      <trkpt lat="45.95889" lon="4.8979">
        <ele>289</ele>
        <time>2018-10-31T11:18:50Z</time>
      </trkpt>
      <trkpt lat="45.95889" lon="4.89782">
        <ele>289</ele>
        <time>2018-10-31T11:18:51Z</time>
      </trkpt>
      <trkpt lat="45.95889" lon="4.89774">
        <ele>289</ele>
        <time>2018-10-31T11:18:52Z</time>
      </trkpt>
      <trkpt lat="45.95889" lon="4.89766">
        <ele>289</ele>
        <time>2018-10-31T11:18:53Z</time>
      </trkpt>
      <trkpt lat="45.95888" lon="4.89757">
        <ele>289</ele>
        <time>2018-10-31T11:18:54Z</time>
      </trkpt>
      <trkpt lat="45.95888" lon="4.89749">
        <ele>289</ele>
        <time>2018-10-31T11:18:55Z</time>
      </trkpt>
      <trkpt lat="45.95888" lon="4.89741">
        <ele>289</ele>
        <time>2018-10-31T11:18:56Z</time>
      </trkpt>
      <trkpt lat="45.95888" lon="4.89733">
        <ele>289</ele>
        <time>2018-10-31T11:18:57Z</time>
      </trkpt>
      <trkpt lat="45.95888" lon="4.89725">
        <ele>289</ele>
        <time>2018-10-31T11:18:58Z</time>
      </trkpt>
      <trkpt lat="45.95888" lon="4.89716">
        <ele>289</ele>
        <time>2018-10-31T11:18:59Z</time>
      </trkpt>
      <trkpt lat="45.95888" lon="4.89706">
        <ele>289</ele>
        <time>2018-10-31T11:19:00Z</time>
      </trkpt>
      <trkpt lat="45.95888" lon="4.89698">
        <ele>289</ele>
        <time>2018-10-31T11:19:01Z</time>
      </trkpt>
      <trkpt lat="45.95888" lon="4.89689">
        <ele>289</ele>
        <time>2018-10-31T11:19:02Z</time>
      </trkpt>
      <trkpt lat="45.95888" lon="4.8968">
        <ele>289</ele>
        <time>2018-10-31T11:19:03Z</time>
      </trkpt>
      <trkpt lat="45.95888" lon="4.8967">
        <ele>289</ele>
        <time>2018-10-31T11:19:04Z</time>
      </trkpt>
      <trkpt lat="45.95888" lon="4.8966">
        <ele>289</ele>
        <time>2018-10-31T11:19:05Z</time>
      </trkpt>
      <trkpt lat="45.95888" lon="4.8965">
        <ele>289</ele>
        <time>2018-10-31T11:19:06Z</time>
      </trkpt>
      <trkpt lat="45.95888" lon="4.8964">
        <ele>289</ele>
        <time>2018-10-31T11:19:07Z</time>
      </trkpt>
      <trkpt lat="45.95888" lon="4.8963">
        <ele>289</ele>
        <time>2018-10-31T11:19:08Z</time>
      </trkpt>
      <trkpt lat="45.95888" lon="4.89621">
        <ele>289</ele>
        <time>2018-10-31T11:19:09Z</time>
      </trkpt>
      <trkpt lat="45.95888" lon="4.8961">
        <ele>289</ele>
        <time>2018-10-31T11:19:10Z</time>
      </trkpt>
      <trkpt lat="45.95888" lon="4.896">
        <ele>289</ele>
        <time>2018-10-31T11:19:11Z</time>
      </trkpt>
      <trkpt lat="45.95888" lon="4.8959">
        <ele>289</ele>
        <time>2018-10-31T11:19:12Z</time>
      </trkpt>
      <trkpt lat="45.95888" lon="4.89579">
        <ele>288</ele>
        <time>2018-10-31T11:19:13Z</time>
      </trkpt>
      <trkpt lat="45.95888" lon="4.89569">
        <ele>288</ele>
        <time>2018-10-31T11:19:14Z</time>
      </trkpt>
      <trkpt lat="45.95888" lon="4.89559">
        <ele>288</ele>
        <time>2018-10-31T11:19:15Z</time>
      </trkpt>
      <trkpt lat="45.95888" lon="4.89549">
        <ele>288</ele>
        <time>2018-10-31T11:19:16Z</time>
      </trkpt>
      <trkpt lat="45.95888" lon="4.8954">
        <ele>288</ele>
        <time>2018-10-31T11:19:17Z</time>
      </trkpt>
      <trkpt lat="45.95887" lon="4.89531">
        <ele>288</ele>
        <time>2018-10-31T11:19:18Z</time>
      </trkpt>
      <trkpt lat="45.95887" lon="4.89522">
        <ele>288</ele>
        <time>2018-10-31T11:19:19Z</time>
      </trkpt>
      <trkpt lat="45.95886" lon="4.89513">
        <ele>288</ele>
        <time>2018-10-31T11:19:20Z</time>
      </trkpt>
      <trkpt lat="45.95886" lon="4.89505">
        <ele>288</ele>
        <time>2018-10-31T11:19:21Z</time>
      </trkpt>
      <trkpt lat="45.95886" lon="4.89496">
        <ele>289</ele>
        <time>2018-10-31T11:19:22Z</time>
      </trkpt>
      <trkpt lat="45.95886" lon="4.89488">
        <ele>289</ele>
        <time>2018-10-31T11:19:23Z</time>
      </trkpt>
      <trkpt lat="45.95885" lon="4.8948">
        <ele>289</ele>
        <time>2018-10-31T11:19:24Z</time>
      </trkpt>
      <trkpt lat="45.95884" lon="4.89472">
        <ele>289</ele>
        <time>2018-10-31T11:19:25Z</time>
      </trkpt>
      <trkpt lat="45.95884" lon="4.89463">
        <ele>289</ele>
        <time>2018-10-31T11:19:26Z</time>
      </trkpt>
      <trkpt lat="45.95884" lon="4.89455">
        <ele>289</ele>
        <time>2018-10-31T11:19:27Z</time>
      </trkpt>
      <trkpt lat="45.95885" lon="4.89447">
        <ele>289</ele>
        <time>2018-10-31T11:19:28Z</time>
      </trkpt>
      <trkpt lat="45.95885" lon="4.89438">
        <ele>289</ele>
        <time>2018-10-31T11:19:29Z</time>
      </trkpt>
      <trkpt lat="45.95885" lon="4.89429">
        <ele>289</ele>
        <time>2018-10-31T11:19:30Z</time>
      </trkpt>
      <trkpt lat="45.95885" lon="4.89421">
        <ele>289</ele>
        <time>2018-10-31T11:19:31Z</time>
      </trkpt>
      <trkpt lat="45.95885" lon="4.89411">
        <ele>289</ele>
        <time>2018-10-31T11:19:32Z</time>
      </trkpt>
      <trkpt lat="45.95885" lon="4.89402">
        <ele>289</ele>
        <time>2018-10-31T11:19:33Z</time>
      </trkpt>
      <trkpt lat="45.95885" lon="4.89393">
        <ele>289</ele>
        <time>2018-10-31T11:19:34Z</time>
      </trkpt>
      <trkpt lat="45.95884" lon="4.89384">
        <ele>289</ele>
        <time>2018-10-31T11:19:35Z</time>
      </trkpt>
      <trkpt lat="45.95884" lon="4.89375">
        <ele>289</ele>
        <time>2018-10-31T11:19:36Z</time>
      </trkpt>
      <trkpt lat="45.95884" lon="4.89365">
        <ele>289</ele>
        <time>2018-10-31T11:19:37Z</time>
      </trkpt>
      <trkpt lat="45.95884" lon="4.89357">
        <ele>289</ele>
        <time>2018-10-31T11:19:38Z</time>
      </trkpt>
      <trkpt lat="45.95884" lon="4.89348">
        <ele>289</ele>
        <time>2018-10-31T11:19:39Z</time>
      </trkpt>
      <trkpt lat="45.95885" lon="4.89338">
        <ele>289</ele>
        <time>2018-10-31T11:19:40Z</time>
      </trkpt>
      <trkpt lat="45.95885" lon="4.8933">
        <ele>289</ele>
        <time>2018-10-31T11:19:41Z</time>
      </trkpt>
      <trkpt lat="45.95886" lon="4.89322">
        <ele>289</ele>
        <time>2018-10-31T11:19:42Z</time>
      </trkpt>
      <trkpt lat="45.95886" lon="4.89315">
        <ele>289</ele>
        <time>2018-10-31T11:19:43Z</time>
      </trkpt>
      <trkpt lat="45.95886" lon="4.89307">
        <ele>289</ele>
        <time>2018-10-31T11:19:44Z</time>
      </trkpt>
      <trkpt lat="45.95885" lon="4.89299">
        <ele>289</ele>
        <time>2018-10-31T11:19:45Z</time>
      </trkpt>
      <trkpt lat="45.95884" lon="4.89291">
        <ele>289</ele>
        <time>2018-10-31T11:19:46Z</time>
      </trkpt>
      <trkpt lat="45.95884" lon="4.89284">
        <ele>289</ele>
        <time>2018-10-31T11:19:47Z</time>
      </trkpt>
      <trkpt lat="45.95884" lon="4.89277">
        <ele>289</ele>
        <time>2018-10-31T11:19:48Z</time>
      </trkpt>
      <trkpt lat="45.95884" lon="4.8927">
        <ele>289</ele>
        <time>2018-10-31T11:19:49Z</time>
      </trkpt>
      <trkpt lat="45.95883" lon="4.89263">
        <ele>289</ele>
        <time>2018-10-31T11:19:50Z</time>
      </trkpt>
      <trkpt lat="45.95883" lon="4.89255">
        <ele>289</ele>
        <time>2018-10-31T11:19:51Z</time>
      </trkpt>
      <trkpt lat="45.95884" lon="4.89248">
        <ele>288</ele>
        <time>2018-10-31T11:19:52Z</time>
      </trkpt>
      <trkpt lat="45.95884" lon="4.89239">
        <ele>288</ele>
        <time>2018-10-31T11:19:53Z</time>
      </trkpt>
      <trkpt lat="45.95883" lon="4.89231">
        <ele>288</ele>
        <time>2018-10-31T11:19:54Z</time>
      </trkpt>
      <trkpt lat="45.95883" lon="4.89223">
        <ele>288</ele>
        <time>2018-10-31T11:19:55Z</time>
      </trkpt>
      <trkpt lat="45.95883" lon="4.89215">
        <ele>288</ele>
        <time>2018-10-31T11:19:56Z</time>
      </trkpt>
      <trkpt lat="45.95883" lon="4.89206">
        <ele>288</ele>
        <time>2018-10-31T11:19:57Z</time>
      </trkpt>
      <trkpt lat="45.95883" lon="4.89197">
        <ele>288</ele>
        <time>2018-10-31T11:19:58Z</time>
      </trkpt>
      <trkpt lat="45.95883" lon="4.89188">
        <ele>288</ele>
        <time>2018-10-31T11:19:59Z</time>
      </trkpt>
      <trkpt lat="45.95883" lon="4.89179">
        <ele>288</ele>
        <time>2018-10-31T11:20:00Z</time>
      </trkpt>
      <trkpt lat="45.95881" lon="4.89171">
        <ele>288</ele>
        <time>2018-10-31T11:20:01Z</time>
      </trkpt>
      <trkpt lat="45.9588" lon="4.89162">
        <ele>288</ele>
        <time>2018-10-31T11:20:02Z</time>
      </trkpt>
      <trkpt lat="45.95879" lon="4.89155">
        <ele>288</ele>
        <time>2018-10-31T11:20:03Z</time>
      </trkpt>
      <trkpt lat="45.95878" lon="4.89148">
        <ele>288</ele>
        <time>2018-10-31T11:20:04Z</time>
      </trkpt>
      <trkpt lat="45.95878" lon="4.8914">
        <ele>288</ele>
        <time>2018-10-31T11:20:05Z</time>
      </trkpt>
      <trkpt lat="45.95879" lon="4.89133">
        <ele>288</ele>
        <time>2018-10-31T11:20:06Z</time>
      </trkpt>
      <trkpt lat="45.95883" lon="4.89122">
        <ele>288</ele>
        <time>2018-10-31T11:20:08Z</time>
      </trkpt>
      <trkpt lat="45.95885" lon="4.89119">
        <ele>288</ele>
        <time>2018-10-31T11:20:09Z</time>
      </trkpt>
      <trkpt lat="45.9589" lon="4.89113">
        <ele>288</ele>
        <time>2018-10-31T11:20:12Z</time>
      </trkpt>
      <trkpt lat="45.95892" lon="4.8911">
        <ele>288</ele>
        <time>2018-10-31T11:20:13Z</time>
      </trkpt>
      <trkpt lat="45.95898" lon="4.89102">
        <ele>288</ele>
        <time>2018-10-31T11:20:16Z</time>
      </trkpt>
      <trkpt lat="45.95899" lon="4.89099">
        <ele>289</ele>
        <time>2018-10-31T11:20:17Z</time>
      </trkpt>
      <trkpt lat="45.95901" lon="4.89091">
        <ele>289</ele>
        <time>2018-10-31T11:20:18Z</time>
      </trkpt>
      <trkpt lat="45.95902" lon="4.89086">
        <ele>289</ele>
        <time>2018-10-31T11:20:19Z</time>
      </trkpt>
      <trkpt lat="45.95903" lon="4.89074">
        <ele>289</ele>
        <time>2018-10-31T11:20:21Z</time>
      </trkpt>
      <trkpt lat="45.95903" lon="4.89068">
        <ele>289</ele>
        <time>2018-10-31T11:20:22Z</time>
      </trkpt>
      <trkpt lat="45.95901" lon="4.89057">
        <ele>289</ele>
        <time>2018-10-31T11:20:24Z</time>
      </trkpt>
      <trkpt lat="45.95902" lon="4.89053">
        <ele>289</ele>
        <time>2018-10-31T11:20:25Z</time>
      </trkpt>
      <trkpt lat="45.959" lon="4.89046">
        <ele>289</ele>
        <time>2018-10-31T11:20:26Z</time>
      </trkpt>
      <trkpt lat="45.95898" lon="4.8904">
        <ele>289</ele>
        <time>2018-10-31T11:20:27Z</time>
      </trkpt>
      <trkpt lat="45.95896" lon="4.89033">
        <ele>289</ele>
        <time>2018-10-31T11:20:28Z</time>
      </trkpt>
      <trkpt lat="45.95894" lon="4.89026">
        <ele>289</ele>
        <time>2018-10-31T11:20:29Z</time>
      </trkpt>
      <trkpt lat="45.95893" lon="4.8902">
        <ele>289</ele>
        <time>2018-10-31T11:20:30Z</time>
      </trkpt>
      <trkpt lat="45.95891" lon="4.89013">
        <ele>289</ele>
        <time>2018-10-31T11:20:31Z</time>
      </trkpt>
      <trkpt lat="45.9589" lon="4.89006">
        <ele>289</ele>
        <time>2018-10-31T11:20:32Z</time>
      </trkpt>
      <trkpt lat="45.95888" lon="4.88998">
        <ele>289</ele>
        <time>2018-10-31T11:20:33Z</time>
      </trkpt>
      <trkpt lat="45.95888" lon="4.88992">
        <ele>289</ele>
        <time>2018-10-31T11:20:34Z</time>
      </trkpt>
      <trkpt lat="45.95886" lon="4.88984">
        <ele>289</ele>
        <time>2018-10-31T11:20:35Z</time>
      </trkpt>
      <trkpt lat="45.95885" lon="4.88977">
        <ele>289</ele>
        <time>2018-10-31T11:20:36Z</time>
      </trkpt>
      <trkpt lat="45.95884" lon="4.88969">
        <ele>289</ele>
        <time>2018-10-31T11:20:37Z</time>
      </trkpt>
      <trkpt lat="45.95883" lon="4.88963">
        <ele>289</ele>
        <time>2018-10-31T11:20:38Z</time>
      </trkpt>
      <trkpt lat="45.95881" lon="4.88956">
        <ele>289</ele>
        <time>2018-10-31T11:20:39Z</time>
      </trkpt>
      <trkpt lat="45.95882" lon="4.8895">
        <ele>289</ele>
        <time>2018-10-31T11:20:40Z</time>
      </trkpt>
      <trkpt lat="45.95882" lon="4.88942">
        <ele>289</ele>
        <time>2018-10-31T11:20:41Z</time>
      </trkpt>
      <trkpt lat="45.95881" lon="4.88935">
        <ele>289</ele>
        <time>2018-10-31T11:20:42Z</time>
      </trkpt>
      <trkpt lat="45.95881" lon="4.88927">
        <ele>289</ele>
        <time>2018-10-31T11:20:43Z</time>
      </trkpt>
      <trkpt lat="45.95881" lon="4.8892">
        <ele>289</ele>
        <time>2018-10-31T11:20:44Z</time>
      </trkpt>
      <trkpt lat="45.95881" lon="4.88913">
        <ele>289</ele>
        <time>2018-10-31T11:20:45Z</time>
      </trkpt>
      <trkpt lat="45.95881" lon="4.88906">
        <ele>289</ele>
        <time>2018-10-31T11:20:46Z</time>
      </trkpt>
      <trkpt lat="45.95881" lon="4.88897">
        <ele>289</ele>
        <time>2018-10-31T11:20:47Z</time>
      </trkpt>
      <trkpt lat="45.95881" lon="4.88891">
        <ele>289</ele>
        <time>2018-10-31T11:20:48Z</time>
      </trkpt>
      <trkpt lat="45.95881" lon="4.88883">
        <ele>289</ele>
        <time>2018-10-31T11:20:49Z</time>
      </trkpt>
      <trkpt lat="45.95881" lon="4.88874">
        <ele>289</ele>
        <time>2018-10-31T11:20:50Z</time>
      </trkpt>
      <trkpt lat="45.95881" lon="4.88866">
        <ele>289</ele>
        <time>2018-10-31T11:20:51Z</time>
      </trkpt>
      <trkpt lat="45.95882" lon="4.88859">
        <ele>289</ele>
        <time>2018-10-31T11:20:52Z</time>
      </trkpt>
      <trkpt lat="45.95881" lon="4.88852">
        <ele>289</ele>
        <time>2018-10-31T11:20:53Z</time>
      </trkpt>
      <trkpt lat="45.95881" lon="4.88845">
        <ele>289</ele>
        <time>2018-10-31T11:20:54Z</time>
      </trkpt>
      <trkpt lat="45.95881" lon="4.88838">
        <ele>289</ele>
        <time>2018-10-31T11:20:55Z</time>
      </trkpt>
      <trkpt lat="45.9588" lon="4.88826">
        <ele>288</ele>
        <time>2018-10-31T11:20:57Z</time>
      </trkpt>
      <trkpt lat="45.9588" lon="4.88819">
        <ele>288</ele>
        <time>2018-10-31T11:20:58Z</time>
      </trkpt>
      <trkpt lat="45.95879" lon="4.88813">
        <ele>288</ele>
        <time>2018-10-31T11:20:59Z</time>
      </trkpt>
      <trkpt lat="45.95879" lon="4.88806">
        <ele>288</ele>
        <time>2018-10-31T11:21:00Z</time>
      </trkpt>
      <trkpt lat="45.95879" lon="4.88798">
        <ele>288</ele>
        <time>2018-10-31T11:21:01Z</time>
      </trkpt>
      <trkpt lat="45.95878" lon="4.88791">
        <ele>288</ele>
        <time>2018-10-31T11:21:02Z</time>
      </trkpt>
      <trkpt lat="45.95879" lon="4.88782">
        <ele>288</ele>
        <time>2018-10-31T11:21:03Z</time>
      </trkpt>
      <trkpt lat="45.95878" lon="4.88774">
        <ele>288</ele>
        <time>2018-10-31T11:21:04Z</time>
      </trkpt>
      <trkpt lat="45.95878" lon="4.88767">
        <ele>288</ele>
        <time>2018-10-31T11:21:05Z</time>
      </trkpt>
      <trkpt lat="45.95878" lon="4.8876">
        <ele>288</ele>
        <time>2018-10-31T11:21:06Z</time>
      </trkpt>
      <trkpt lat="45.95878" lon="4.88752">
        <ele>288</ele>
        <time>2018-10-31T11:21:07Z</time>
      </trkpt>
      <trkpt lat="45.95877" lon="4.88745">
        <ele>288</ele>
        <time>2018-10-31T11:21:08Z</time>
      </trkpt>
      <trkpt lat="45.95877" lon="4.88738">
        <ele>288</ele>
        <time>2018-10-31T11:21:09Z</time>
      </trkpt>
      <trkpt lat="45.95876" lon="4.88731">
        <ele>288</ele>
        <time>2018-10-31T11:21:10Z</time>
      </trkpt>
      <trkpt lat="45.95876" lon="4.88724">
        <ele>288</ele>
        <time>2018-10-31T11:21:11Z</time>
      </trkpt>
      <trkpt lat="45.95875" lon="4.88717">
        <ele>288</ele>
        <time>2018-10-31T11:21:12Z</time>
      </trkpt>
      <trkpt lat="45.95875" lon="4.8871">
        <ele>288</ele>
        <time>2018-10-31T11:21:13Z</time>
      </trkpt>
      <trkpt lat="45.95874" lon="4.88702">
        <ele>288</ele>
        <time>2018-10-31T11:21:14Z</time>
      </trkpt>
      <trkpt lat="45.95874" lon="4.88694">
        <ele>288</ele>
        <time>2018-10-31T11:21:15Z</time>
      </trkpt>
      <trkpt lat="45.95873" lon="4.88685">
        <ele>288</ele>
        <time>2018-10-31T11:21:16Z</time>
      </trkpt>
      <trkpt lat="45.95872" lon="4.88677">
        <ele>288</ele>
        <time>2018-10-31T11:21:17Z</time>
      </trkpt>
      <trkpt lat="45.95872" lon="4.88669">
        <ele>288</ele>
        <time>2018-10-31T11:21:18Z</time>
      </trkpt>
      <trkpt lat="45.95871" lon="4.8866">
        <ele>288</ele>
        <time>2018-10-31T11:21:19Z</time>
      </trkpt>
      <trkpt lat="45.95871" lon="4.88651">
        <ele>288</ele>
        <time>2018-10-31T11:21:20Z</time>
      </trkpt>
      <trkpt lat="45.95871" lon="4.88642">
        <ele>288</ele>
        <time>2018-10-31T11:21:21Z</time>
      </trkpt>
      <trkpt lat="45.95871" lon="4.88634">
        <ele>288</ele>
        <time>2018-10-31T11:21:22Z</time>
      </trkpt>
      <trkpt lat="45.95871" lon="4.88626">
        <ele>288</ele>
        <time>2018-10-31T11:21:23Z</time>
      </trkpt>
      <trkpt lat="45.9587" lon="4.88617">
        <ele>288</ele>
        <time>2018-10-31T11:21:24Z</time>
      </trkpt>
      <trkpt lat="45.9587" lon="4.88609">
        <ele>288</ele>
        <time>2018-10-31T11:21:25Z</time>
      </trkpt>
      <trkpt lat="45.95869" lon="4.886">
        <ele>288</ele>
        <time>2018-10-31T11:21:26Z</time>
      </trkpt>
      <trkpt lat="45.95869" lon="4.88592">
        <ele>288</ele>
        <time>2018-10-31T11:21:27Z</time>
      </trkpt>
      <trkpt lat="45.95869" lon="4.88583">
        <ele>288</ele>
        <time>2018-10-31T11:21:28Z</time>
      </trkpt>
      <trkpt lat="45.95868" lon="4.88574">
        <ele>288</ele>
        <time>2018-10-31T11:21:29Z</time>
      </trkpt>
      <trkpt lat="45.95868" lon="4.88565">
        <ele>288</ele>
        <time>2018-10-31T11:21:30Z</time>
      </trkpt>
      <trkpt lat="45.95868" lon="4.88555">
        <ele>288</ele>
        <time>2018-10-31T11:21:31Z</time>
      </trkpt>
      <trkpt lat="45.95868" lon="4.88547">
        <ele>288</ele>
        <time>2018-10-31T11:21:32Z</time>
      </trkpt>
      <trkpt lat="45.95868" lon="4.88538">
        <ele>288</ele>
        <time>2018-10-31T11:21:33Z</time>
      </trkpt>
      <trkpt lat="45.95867" lon="4.88529">
        <ele>288</ele>
        <time>2018-10-31T11:21:34Z</time>
      </trkpt>
      <trkpt lat="45.95867" lon="4.88521">
        <ele>288</ele>
        <time>2018-10-31T11:21:35Z</time>
      </trkpt>
      <trkpt lat="45.95867" lon="4.88513">
        <ele>288</ele>
        <time>2018-10-31T11:21:36Z</time>
      </trkpt>
      <trkpt lat="45.95866" lon="4.88505">
        <ele>288</ele>
        <time>2018-10-31T11:21:37Z</time>
      </trkpt>
      <trkpt lat="45.95866" lon="4.88497">
        <ele>288</ele>
        <time>2018-10-31T11:21:38Z</time>
      </trkpt>
      <trkpt lat="45.95865" lon="4.8849">
        <ele>288</ele>
        <time>2018-10-31T11:21:39Z</time>
      </trkpt>
      <trkpt lat="45.95865" lon="4.88483">
        <ele>287</ele>
        <time>2018-10-31T11:21:40Z</time>
      </trkpt>
      <trkpt lat="45.95864" lon="4.88474">
        <ele>287</ele>
        <time>2018-10-31T11:21:41Z</time>
      </trkpt>
      <trkpt lat="45.95863" lon="4.88465">
        <ele>287</ele>
        <time>2018-10-31T11:21:42Z</time>
      </trkpt>
      <trkpt lat="45.95863" lon="4.88457">
        <ele>287</ele>
        <time>2018-10-31T11:21:43Z</time>
      </trkpt>
      <trkpt lat="45.95863" lon="4.88449">
        <ele>287</ele>
        <time>2018-10-31T11:21:44Z</time>
      </trkpt>
      <trkpt lat="45.95863" lon="4.88441">
        <ele>287</ele>
        <time>2018-10-31T11:21:45Z</time>
      </trkpt>
      <trkpt lat="45.95863" lon="4.88433">
        <ele>287</ele>
        <time>2018-10-31T11:21:46Z</time>
      </trkpt>
      <trkpt lat="45.95863" lon="4.88425">
        <ele>287</ele>
        <time>2018-10-31T11:21:47Z</time>
      </trkpt>
      <trkpt lat="45.95862" lon="4.88418">
        <ele>287</ele>
        <time>2018-10-31T11:21:48Z</time>
      </trkpt>
      <trkpt lat="45.95862" lon="4.8841">
        <ele>287</ele>
        <time>2018-10-31T11:21:49Z</time>
      </trkpt>
      <trkpt lat="45.95862" lon="4.88404">
        <ele>287</ele>
        <time>2018-10-31T11:21:50Z</time>
      </trkpt>
      <trkpt lat="45.95861" lon="4.88397">
        <ele>287</ele>
        <time>2018-10-31T11:21:51Z</time>
      </trkpt>
      <trkpt lat="45.95862" lon="4.8839">
        <ele>287</ele>
        <time>2018-10-31T11:21:52Z</time>
      </trkpt>
      <trkpt lat="45.95861" lon="4.88382">
        <ele>287</ele>
        <time>2018-10-31T11:21:53Z</time>
      </trkpt>
      <trkpt lat="45.95861" lon="4.88374">
        <ele>287</ele>
        <time>2018-10-31T11:21:54Z</time>
      </trkpt>
      <trkpt lat="45.9586" lon="4.88366">
        <ele>287</ele>
        <time>2018-10-31T11:21:55Z</time>
      </trkpt>
      <trkpt lat="45.9586" lon="4.88358">
        <ele>287</ele>
        <time>2018-10-31T11:21:56Z</time>
      </trkpt>
      <trkpt lat="45.95859" lon="4.88351">
        <ele>287</ele>
        <time>2018-10-31T11:21:57Z</time>
      </trkpt>
      <trkpt lat="45.95859" lon="4.88343">
        <ele>287</ele>
        <time>2018-10-31T11:21:58Z</time>
      </trkpt>
      <trkpt lat="45.95858" lon="4.88335">
        <ele>287</ele>
        <time>2018-10-31T11:21:59Z</time>
      </trkpt>
      <trkpt lat="45.95857" lon="4.88327">
        <ele>288</ele>
        <time>2018-10-31T11:22:00Z</time>
      </trkpt>
      <trkpt lat="45.95857" lon="4.88319">
        <ele>288</ele>
        <time>2018-10-31T11:22:01Z</time>
      </trkpt>
      <trkpt lat="45.95855" lon="4.88312">
        <ele>288</ele>
        <time>2018-10-31T11:22:02Z</time>
      </trkpt>
      <trkpt lat="45.95855" lon="4.88304">
        <ele>288</ele>
        <time>2018-10-31T11:22:03Z</time>
      </trkpt>
      <trkpt lat="45.95854" lon="4.88297">
        <ele>288</ele>
        <time>2018-10-31T11:22:04Z</time>
      </trkpt>
      <trkpt lat="45.95854" lon="4.8829">
        <ele>288</ele>
        <time>2018-10-31T11:22:05Z</time>
      </trkpt>
      <trkpt lat="45.95854" lon="4.88282">
        <ele>288</ele>
        <time>2018-10-31T11:22:06Z</time>
      </trkpt>
      <trkpt lat="45.95854" lon="4.88274">
        <ele>288</ele>
        <time>2018-10-31T11:22:07Z</time>
      </trkpt>
      <trkpt lat="45.95854" lon="4.88266">
        <ele>287</ele>
        <time>2018-10-31T11:22:08Z</time>
      </trkpt>
      <trkpt lat="45.95854" lon="4.88258">
        <ele>287</ele>
        <time>2018-10-31T11:22:09Z</time>
      </trkpt>
      <trkpt lat="45.95853" lon="4.88251">
        <ele>287</ele>
        <time>2018-10-31T11:22:10Z</time>
      </trkpt>
      <trkpt lat="45.95853" lon="4.88238">
        <ele>288</ele>
        <time>2018-10-31T11:22:12Z</time>
      </trkpt>
      <trkpt lat="45.95853" lon="4.88232">
        <ele>288</ele>
        <time>2018-10-31T11:22:13Z</time>
      </trkpt>
      <trkpt lat="45.95853" lon="4.88225">
        <ele>288</ele>
        <time>2018-10-31T11:22:14Z</time>
      </trkpt>
      <trkpt lat="45.95853" lon="4.88218">
        <ele>288</ele>
        <time>2018-10-31T11:22:15Z</time>
      </trkpt>
      <trkpt lat="45.95853" lon="4.88205">
        <ele>288</ele>
        <time>2018-10-31T11:22:17Z</time>
      </trkpt>
      <trkpt lat="45.95852" lon="4.88198">
        <ele>288</ele>
        <time>2018-10-31T11:22:18Z</time>
      </trkpt>
      <trkpt lat="45.95852" lon="4.88191">
        <ele>288</ele>
        <time>2018-10-31T11:22:19Z</time>
      </trkpt>
      <trkpt lat="45.95852" lon="4.88185">
        <ele>288</ele>
        <time>2018-10-31T11:22:20Z</time>
      </trkpt>
      <trkpt lat="45.95852" lon="4.88178">
        <ele>288</ele>
        <time>2018-10-31T11:22:21Z</time>
      </trkpt>
      <trkpt lat="45.95852" lon="4.88171">
        <ele>288</ele>
        <time>2018-10-31T11:22:22Z</time>
      </trkpt>
      <trkpt lat="45.95852" lon="4.88163">
        <ele>288</ele>
        <time>2018-10-31T11:22:23Z</time>
      </trkpt>
      <trkpt lat="45.95851" lon="4.88155">
        <ele>288</ele>
        <time>2018-10-31T11:22:24Z</time>
      </trkpt>
      <trkpt lat="45.95851" lon="4.88147">
        <ele>288</ele>
        <time>2018-10-31T11:22:25Z</time>
      </trkpt>
      <trkpt lat="45.9585" lon="4.8814">
        <ele>288</ele>
        <time>2018-10-31T11:22:26Z</time>
      </trkpt>
      <trkpt lat="45.9585" lon="4.88132">
        <ele>289</ele>
        <time>2018-10-31T11:22:27Z</time>
      </trkpt>
      <trkpt lat="45.9585" lon="4.88125">
        <ele>289</ele>
        <time>2018-10-31T11:22:28Z</time>
      </trkpt>
      <trkpt lat="45.9585" lon="4.88118">
        <ele>289</ele>
        <time>2018-10-31T11:22:29Z</time>
      </trkpt>
      <trkpt lat="45.95849" lon="4.8811">
        <ele>289</ele>
        <time>2018-10-31T11:22:30Z</time>
      </trkpt>
      <trkpt lat="45.95849" lon="4.88102">
        <ele>288</ele>
        <time>2018-10-31T11:22:31Z</time>
      </trkpt>
      <trkpt lat="45.95848" lon="4.88094">
        <ele>288</ele>
        <time>2018-10-31T11:22:32Z</time>
      </trkpt>
      <trkpt lat="45.95847" lon="4.88086">
        <ele>288</ele>
        <time>2018-10-31T11:22:33Z</time>
      </trkpt>
      <trkpt lat="45.95847" lon="4.88078">
        <ele>288</ele>
        <time>2018-10-31T11:22:34Z</time>
      </trkpt>
      <trkpt lat="45.95846" lon="4.88071">
        <ele>289</ele>
        <time>2018-10-31T11:22:35Z</time>
      </trkpt>
      <trkpt lat="45.95846" lon="4.88062">
        <ele>289</ele>
        <time>2018-10-31T11:22:36Z</time>
      </trkpt>
      <trkpt lat="45.95846" lon="4.88055">
        <ele>289</ele>
        <time>2018-10-31T11:22:37Z</time>
      </trkpt>
      <trkpt lat="45.95845" lon="4.88048">
        <ele>289</ele>
        <time>2018-10-31T11:22:38Z</time>
      </trkpt>
      <trkpt lat="45.95846" lon="4.8804">
        <ele>289</ele>
        <time>2018-10-31T11:22:39Z</time>
      </trkpt>
      <trkpt lat="45.95845" lon="4.88034">
        <ele>289</ele>
        <time>2018-10-31T11:22:40Z</time>
      </trkpt>
      <trkpt lat="45.95844" lon="4.88026">
        <ele>289</ele>
        <time>2018-10-31T11:22:41Z</time>
      </trkpt>
      <trkpt lat="45.95844" lon="4.8802">
        <ele>289</ele>
        <time>2018-10-31T11:22:42Z</time>
      </trkpt>
      <trkpt lat="45.95843" lon="4.88013">
        <ele>288</ele>
        <time>2018-10-31T11:22:43Z</time>
      </trkpt>
      <trkpt lat="45.95842" lon="4.88007">
        <ele>288</ele>
        <time>2018-10-31T11:22:44Z</time>
      </trkpt>
      <trkpt lat="45.95842" lon="4.88">
        <ele>288</ele>
        <time>2018-10-31T11:22:45Z</time>
      </trkpt>
      <trkpt lat="45.95843" lon="4.87992">
        <ele>289</ele>
        <time>2018-10-31T11:22:46Z</time>
      </trkpt>
      <trkpt lat="45.95843" lon="4.87985">
        <ele>289</ele>
        <time>2018-10-31T11:22:47Z</time>
      </trkpt>
      <trkpt lat="45.95842" lon="4.87978">
        <ele>289</ele>
        <time>2018-10-31T11:22:48Z</time>
      </trkpt>
      <trkpt lat="45.95842" lon="4.8797">
        <ele>289</ele>
        <time>2018-10-31T11:22:49Z</time>
      </trkpt>
      <trkpt lat="45.95842" lon="4.87962">
        <ele>289</ele>
        <time>2018-10-31T11:22:50Z</time>
      </trkpt>
      <trkpt lat="45.95842" lon="4.87955">
        <ele>289</ele>
        <time>2018-10-31T11:22:51Z</time>
      </trkpt>
      <trkpt lat="45.95841" lon="4.87946">
        <ele>289</ele>
        <time>2018-10-31T11:22:52Z</time>
      </trkpt>
      <trkpt lat="45.9584" lon="4.87938">
        <ele>289</ele>
        <time>2018-10-31T11:22:53Z</time>
      </trkpt>
      <trkpt lat="45.9584" lon="4.87931">
        <ele>289</ele>
        <time>2018-10-31T11:22:54Z</time>
      </trkpt>
      <trkpt lat="45.9584" lon="4.87923">
        <ele>289</ele>
        <time>2018-10-31T11:22:55Z</time>
      </trkpt>
      <trkpt lat="45.95839" lon="4.87915">
        <ele>289</ele>
        <time>2018-10-31T11:22:56Z</time>
      </trkpt>
      <trkpt lat="45.95839" lon="4.87907">
        <ele>289</ele>
        <time>2018-10-31T11:22:57Z</time>
      </trkpt>
      <trkpt lat="45.95838" lon="4.87899">
        <ele>289</ele>
        <time>2018-10-31T11:22:58Z</time>
      </trkpt>
      <trkpt lat="45.95838" lon="4.87891">
        <ele>289</ele>
        <time>2018-10-31T11:22:59Z</time>
      </trkpt>
      <trkpt lat="45.95838" lon="4.87882">
        <ele>289</ele>
        <time>2018-10-31T11:23:00Z</time>
      </trkpt>
      <trkpt lat="45.95838" lon="4.87875">
        <ele>289</ele>
        <time>2018-10-31T11:23:01Z</time>
      </trkpt>
      <trkpt lat="45.95838" lon="4.87866">
        <ele>289</ele>
        <time>2018-10-31T11:23:02Z</time>
      </trkpt>
      <trkpt lat="45.95837" lon="4.87858">
        <ele>289</ele>
        <time>2018-10-31T11:23:03Z</time>
      </trkpt>
      <trkpt lat="45.95836" lon="4.87849">
        <ele>288</ele>
        <time>2018-10-31T11:23:04Z</time>
      </trkpt>
      <trkpt lat="45.95836" lon="4.87841">
        <ele>288</ele>
        <time>2018-10-31T11:23:05Z</time>
      </trkpt>
      <trkpt lat="45.95834" lon="4.87833">
        <ele>288</ele>
        <time>2018-10-31T11:23:06Z</time>
      </trkpt>
      <trkpt lat="45.95833" lon="4.87824">
        <ele>287</ele>
        <time>2018-10-31T11:23:07Z</time>
      </trkpt>
      <trkpt lat="45.95832" lon="4.87815">
        <ele>286</ele>
        <time>2018-10-31T11:23:08Z</time>
      </trkpt>
      <trkpt lat="45.95831" lon="4.87806">
        <ele>286</ele>
        <time>2018-10-31T11:23:09Z</time>
      </trkpt>
      <trkpt lat="45.9583" lon="4.87797">
        <ele>285</ele>
        <time>2018-10-31T11:23:10Z</time>
      </trkpt>
      <trkpt lat="45.95828" lon="4.87788">
        <ele>285</ele>
        <time>2018-10-31T11:23:11Z</time>
      </trkpt>
      <trkpt lat="45.95826" lon="4.87779">
        <ele>285</ele>
        <time>2018-10-31T11:23:12Z</time>
      </trkpt>
      <trkpt lat="45.95825" lon="4.87769">
        <ele>285</ele>
        <time>2018-10-31T11:23:13Z</time>
      </trkpt>
      <trkpt lat="45.95823" lon="4.87759">
        <ele>285</ele>
        <time>2018-10-31T11:23:14Z</time>
      </trkpt>
      <trkpt lat="45.95822" lon="4.87749">
        <ele>284</ele>
        <time>2018-10-31T11:23:15Z</time>
      </trkpt>
      <trkpt lat="45.9582" lon="4.8774">
        <ele>284</ele>
        <time>2018-10-31T11:23:16Z</time>
      </trkpt>
      <trkpt lat="45.9582" lon="4.8773">
        <ele>284</ele>
        <time>2018-10-31T11:23:17Z</time>
      </trkpt>
      <trkpt lat="45.95818" lon="4.87721">
        <ele>283</ele>
        <time>2018-10-31T11:23:18Z</time>
      </trkpt>
      <trkpt lat="45.95816" lon="4.87712">
        <ele>283</ele>
        <time>2018-10-31T11:23:19Z</time>
      </trkpt>
      <trkpt lat="45.95815" lon="4.87703">
        <ele>283</ele>
        <time>2018-10-31T11:23:20Z</time>
      </trkpt>
      <trkpt lat="45.95813" lon="4.87694">
        <ele>283</ele>
        <time>2018-10-31T11:23:21Z</time>
      </trkpt>
      <trkpt lat="45.95812" lon="4.87685">
        <ele>283</ele>
        <time>2018-10-31T11:23:22Z</time>
      </trkpt>
      <trkpt lat="45.95809" lon="4.87675">
        <ele>283</ele>
        <time>2018-10-31T11:23:23Z</time>
      </trkpt>
      <trkpt lat="45.95806" lon="4.87665">
        <ele>283</ele>
        <time>2018-10-31T11:23:24Z</time>
      </trkpt>
      <trkpt lat="45.95803" lon="4.87656">
        <ele>283</ele>
        <time>2018-10-31T11:23:25Z</time>
      </trkpt>
      <trkpt lat="45.958" lon="4.87647">
        <ele>283</ele>
        <time>2018-10-31T11:23:26Z</time>
      </trkpt>
      <trkpt lat="45.95796" lon="4.87639">
        <ele>282</ele>
        <time>2018-10-31T11:23:27Z</time>
      </trkpt>
      <trkpt lat="45.95793" lon="4.87631">
        <ele>282</ele>
        <time>2018-10-31T11:23:28Z</time>
      </trkpt>
      <trkpt lat="45.95789" lon="4.87622">
        <ele>282</ele>
        <time>2018-10-31T11:23:29Z</time>
      </trkpt>
      <trkpt lat="45.95784" lon="4.87612">
        <ele>282</ele>
        <time>2018-10-31T11:23:30Z</time>
      </trkpt>
      <trkpt lat="45.9578" lon="4.87604">
        <ele>282</ele>
        <time>2018-10-31T11:23:31Z</time>
      </trkpt>
      <trkpt lat="45.95775" lon="4.87594">
        <ele>281</ele>
        <time>2018-10-31T11:23:32Z</time>
      </trkpt>
      <trkpt lat="45.9577" lon="4.87585">
        <ele>281</ele>
        <time>2018-10-31T11:23:33Z</time>
      </trkpt>
      <trkpt lat="45.95765" lon="4.87576">
        <ele>280</ele>
        <time>2018-10-31T11:23:34Z</time>
      </trkpt>
      <trkpt lat="45.9576" lon="4.87567">
        <ele>280</ele>
        <time>2018-10-31T11:23:35Z</time>
      </trkpt>
      <trkpt lat="45.95754" lon="4.87557">
        <ele>281</ele>
        <time>2018-10-31T11:23:36Z</time>
      </trkpt>
      <trkpt lat="45.9575" lon="4.87547">
        <ele>277</ele>
        <time>2018-10-31T11:23:37Z</time>
      </trkpt>
      <trkpt lat="45.95745" lon="4.87538">
        <ele>277</ele>
        <time>2018-10-31T11:23:38Z</time>
      </trkpt>
      <trkpt lat="45.95741" lon="4.87528">
        <ele>277</ele>
        <time>2018-10-31T11:23:39Z</time>
      </trkpt>
      <trkpt lat="45.95736" lon="4.87518">
        <ele>277</ele>
        <time>2018-10-31T11:23:40Z</time>
      </trkpt>
      <trkpt lat="45.95732" lon="4.87508">
        <ele>277</ele>
        <time>2018-10-31T11:23:41Z</time>
      </trkpt>
      <trkpt lat="45.95727" lon="4.87497">
        <ele>277</ele>
        <time>2018-10-31T11:23:42Z</time>
      </trkpt>
      <trkpt lat="45.95722" lon="4.87488">
        <ele>276</ele>
        <time>2018-10-31T11:23:43Z</time>
      </trkpt>
      <trkpt lat="45.95717" lon="4.87479">
        <ele>276</ele>
        <time>2018-10-31T11:23:44Z</time>
      </trkpt>
      <trkpt lat="45.95713" lon="4.8747">
        <ele>276</ele>
        <time>2018-10-31T11:23:45Z</time>
      </trkpt>
      <trkpt lat="45.95708" lon="4.8746">
        <ele>275</ele>
        <time>2018-10-31T11:23:46Z</time>
      </trkpt>
      <trkpt lat="45.95703" lon="4.87451">
        <ele>275</ele>
        <time>2018-10-31T11:23:47Z</time>
      </trkpt>
      <trkpt lat="45.95699" lon="4.87442">
        <ele>275</ele>
        <time>2018-10-31T11:23:48Z</time>
      </trkpt>
      <trkpt lat="45.95695" lon="4.87433">
        <ele>275</ele>
        <time>2018-10-31T11:23:49Z</time>
      </trkpt>
      <trkpt lat="45.95691" lon="4.87424">
        <ele>275</ele>
        <time>2018-10-31T11:23:50Z</time>
      </trkpt>
      <trkpt lat="45.95687" lon="4.87416">
        <ele>274</ele>
        <time>2018-10-31T11:23:51Z</time>
      </trkpt>
      <trkpt lat="45.95683" lon="4.87408">
        <ele>274</ele>
        <time>2018-10-31T11:23:52Z</time>
      </trkpt>
      <trkpt lat="45.95678" lon="4.874">
        <ele>274</ele>
        <time>2018-10-31T11:23:53Z</time>
      </trkpt>
      <trkpt lat="45.95674" lon="4.87392">
        <ele>274</ele>
        <time>2018-10-31T11:23:54Z</time>
      </trkpt>
      <trkpt lat="45.95671" lon="4.87384">
        <ele>274</ele>
        <time>2018-10-31T11:23:55Z</time>
      </trkpt>
      <trkpt lat="45.95668" lon="4.87376">
        <ele>274</ele>
        <time>2018-10-31T11:23:56Z</time>
      </trkpt>
      <trkpt lat="45.95666" lon="4.87369">
        <ele>272</ele>
        <time>2018-10-31T11:23:57Z</time>
      </trkpt>
      <trkpt lat="45.95662" lon="4.87361">
        <ele>272</ele>
        <time>2018-10-31T11:23:58Z</time>
      </trkpt>
      <trkpt lat="45.95659" lon="4.87354">
        <ele>272</ele>
        <time>2018-10-31T11:23:59Z</time>
      </trkpt>
      <trkpt lat="45.95656" lon="4.87348">
        <ele>272</ele>
        <time>2018-10-31T11:24:00Z</time>
      </trkpt>
      <trkpt lat="45.95652" lon="4.87341">
        <ele>272</ele>
        <time>2018-10-31T11:24:01Z</time>
      </trkpt>
      <trkpt lat="45.95648" lon="4.87334">
        <ele>272</ele>
        <time>2018-10-31T11:24:02Z</time>
      </trkpt>
      <trkpt lat="45.95644" lon="4.87327">
        <ele>272</ele>
        <time>2018-10-31T11:24:03Z</time>
      </trkpt>
      <trkpt lat="45.95641" lon="4.8732">
        <ele>272</ele>
        <time>2018-10-31T11:24:04Z</time>
      </trkpt>
      <trkpt lat="45.95637" lon="4.87312">
        <ele>272</ele>
        <time>2018-10-31T11:24:05Z</time>
      </trkpt>
      <trkpt lat="45.95633" lon="4.87305">
        <ele>272</ele>
        <time>2018-10-31T11:24:06Z</time>
      </trkpt>
      <trkpt lat="45.9563" lon="4.87297">
        <ele>272</ele>
        <time>2018-10-31T11:24:07Z</time>
      </trkpt>
      <trkpt lat="45.95626" lon="4.87289">
        <ele>272</ele>
        <time>2018-10-31T11:24:08Z</time>
      </trkpt>
      <trkpt lat="45.95623" lon="4.87282">
        <ele>272</ele>
        <time>2018-10-31T11:24:09Z</time>
      </trkpt>
      <trkpt lat="45.9562" lon="4.87274">
        <ele>272</ele>
        <time>2018-10-31T11:24:10Z</time>
      </trkpt>
      <trkpt lat="45.95616" lon="4.87267">
        <ele>272</ele>
        <time>2018-10-31T11:24:11Z</time>
      </trkpt>
      <trkpt lat="45.95612" lon="4.8726">
        <ele>272</ele>
        <time>2018-10-31T11:24:12Z</time>
      </trkpt>
      <trkpt lat="45.95608" lon="4.87252">
        <ele>272</ele>
        <time>2018-10-31T11:24:13Z</time>
      </trkpt>
      <trkpt lat="45.95604" lon="4.87245">
        <ele>272</ele>
        <time>2018-10-31T11:24:14Z</time>
      </trkpt>
      <trkpt lat="45.956" lon="4.87236">
        <ele>272</ele>
        <time>2018-10-31T11:24:15Z</time>
      </trkpt>
      <trkpt lat="45.95596" lon="4.87228">
        <ele>272</ele>
        <time>2018-10-31T11:24:16Z</time>
      </trkpt>
      <trkpt lat="45.95592" lon="4.87219">
        <ele>272</ele>
        <time>2018-10-31T11:24:17Z</time>
      </trkpt>
      <trkpt lat="45.95588" lon="4.87211">
        <ele>272</ele>
        <time>2018-10-31T11:24:18Z</time>
      </trkpt>
      <trkpt lat="45.95584" lon="4.87201">
        <ele>272</ele>
        <time>2018-10-31T11:24:19Z</time>
      </trkpt>
      <trkpt lat="45.95579" lon="4.87192">
        <ele>270</ele>
        <time>2018-10-31T11:24:20Z</time>
      </trkpt>
      <trkpt lat="45.95574" lon="4.87183">
        <ele>270</ele>
        <time>2018-10-31T11:24:21Z</time>
      </trkpt>
      <trkpt lat="45.9557" lon="4.87173">
        <ele>271</ele>
        <time>2018-10-31T11:24:22Z</time>
      </trkpt>
      <trkpt lat="45.95567" lon="4.87165">
        <ele>270</ele>
        <time>2018-10-31T11:24:23Z</time>
      </trkpt>
      <trkpt lat="45.95563" lon="4.87157">
        <ele>270</ele>
        <time>2018-10-31T11:24:24Z</time>
      </trkpt>
      <trkpt lat="45.95558" lon="4.87149">
        <ele>270</ele>
        <time>2018-10-31T11:24:25Z</time>
      </trkpt>
      <trkpt lat="45.95555" lon="4.8714">
        <ele>270</ele>
        <time>2018-10-31T11:24:26Z</time>
      </trkpt>
      <trkpt lat="45.9555" lon="4.87131">
        <ele>270</ele>
        <time>2018-10-31T11:24:27Z</time>
      </trkpt>
      <trkpt lat="45.95546" lon="4.87123">
        <ele>270</ele>
        <time>2018-10-31T11:24:28Z</time>
      </trkpt>
      <trkpt lat="45.95542" lon="4.87114">
        <ele>269</ele>
        <time>2018-10-31T11:24:29Z</time>
      </trkpt>
      <trkpt lat="45.95537" lon="4.87105">
        <ele>269</ele>
        <time>2018-10-31T11:24:30Z</time>
      </trkpt>
      <trkpt lat="45.95531" lon="4.87095">
        <ele>269</ele>
        <time>2018-10-31T11:24:31Z</time>
      </trkpt>
      <trkpt lat="45.95527" lon="4.87087">
        <ele>269</ele>
        <time>2018-10-31T11:24:32Z</time>
      </trkpt>
      <trkpt lat="45.95522" lon="4.87078">
        <ele>268</ele>
        <time>2018-10-31T11:24:33Z</time>
      </trkpt>
      <trkpt lat="45.95518" lon="4.8707">
        <ele>268</ele>
        <time>2018-10-31T11:24:34Z</time>
      </trkpt>
      <trkpt lat="45.95515" lon="4.87062">
        <ele>268</ele>
        <time>2018-10-31T11:24:35Z</time>
      </trkpt>
      <trkpt lat="45.95511" lon="4.87053">
        <ele>268</ele>
        <time>2018-10-31T11:24:36Z</time>
      </trkpt>
      <trkpt lat="45.95507" lon="4.87045">
        <ele>268</ele>
        <time>2018-10-31T11:24:37Z</time>
      </trkpt>
      <trkpt lat="45.95503" lon="4.87037">
        <ele>268</ele>
        <time>2018-10-31T11:24:38Z</time>
      </trkpt>
      <trkpt lat="45.95499" lon="4.8703">
        <ele>269</ele>
        <time>2018-10-31T11:24:39Z</time>
      </trkpt>
      <trkpt lat="45.95495" lon="4.87023">
        <ele>269</ele>
        <time>2018-10-31T11:24:40Z</time>
      </trkpt>
      <trkpt lat="45.95491" lon="4.87015">
        <ele>268</ele>
        <time>2018-10-31T11:24:41Z</time>
      </trkpt>
      <trkpt lat="45.95488" lon="4.87008">
        <ele>268</ele>
        <time>2018-10-31T11:24:42Z</time>
      </trkpt>
      <trkpt lat="45.95485" lon="4.87001">
        <ele>268</ele>
        <time>2018-10-31T11:24:43Z</time>
      </trkpt>
      <trkpt lat="45.9548" lon="4.86995">
        <ele>268</ele>
        <time>2018-10-31T11:24:44Z</time>
      </trkpt>
      <trkpt lat="45.95477" lon="4.86988">
        <ele>268</ele>
        <time>2018-10-31T11:24:45Z</time>
      </trkpt>
      <trkpt lat="45.95474" lon="4.86983">
        <ele>268</ele>
        <time>2018-10-31T11:24:46Z</time>
      </trkpt>
      <trkpt lat="45.9547" lon="4.86976">
        <ele>268</ele>
        <time>2018-10-31T11:24:47Z</time>
      </trkpt>
      <trkpt lat="45.95468" lon="4.8697">
        <ele>268</ele>
        <time>2018-10-31T11:24:48Z</time>
      </trkpt>
      <trkpt lat="45.95464" lon="4.86963">
        <ele>268</ele>
        <time>2018-10-31T11:24:49Z</time>
      </trkpt>
      <trkpt lat="45.95461" lon="4.86956">
        <ele>268</ele>
        <time>2018-10-31T11:24:50Z</time>
      </trkpt>
      <trkpt lat="45.95457" lon="4.86949">
        <ele>268</ele>
        <time>2018-10-31T11:24:51Z</time>
      </trkpt>
      <trkpt lat="45.95455" lon="4.86942">
        <ele>268</ele>
        <time>2018-10-31T11:24:52Z</time>
      </trkpt>
      <trkpt lat="45.95452" lon="4.86936">
        <ele>268</ele>
        <time>2018-10-31T11:24:53Z</time>
      </trkpt>
      <trkpt lat="45.95449" lon="4.86929">
        <ele>268</ele>
        <time>2018-10-31T11:24:54Z</time>
      </trkpt>
      <trkpt lat="45.95445" lon="4.86921">
        <ele>269</ele>
        <time>2018-10-31T11:24:55Z</time>
      </trkpt>
      <trkpt lat="45.95441" lon="4.86914">
        <ele>268</ele>
        <time>2018-10-31T11:24:56Z</time>
      </trkpt>
      <trkpt lat="45.95437" lon="4.86906">
        <ele>268</ele>
        <time>2018-10-31T11:24:57Z</time>
      </trkpt>
      <trkpt lat="45.95433" lon="4.86899">
        <ele>268</ele>
        <time>2018-10-31T11:24:58Z</time>
      </trkpt>
      <trkpt lat="45.95429" lon="4.86891">
        <ele>268</ele>
        <time>2018-10-31T11:24:59Z</time>
      </trkpt>
      <trkpt lat="45.95427" lon="4.86883">
        <ele>268</ele>
        <time>2018-10-31T11:25:00Z</time>
      </trkpt>
      <trkpt lat="45.95423" lon="4.86877">
        <ele>268</ele>
        <time>2018-10-31T11:25:01Z</time>
      </trkpt>
      <trkpt lat="45.9542" lon="4.8687">
        <ele>268</ele>
        <time>2018-10-31T11:25:02Z</time>
      </trkpt>
      <trkpt lat="45.95417" lon="4.86863">
        <ele>269</ele>
        <time>2018-10-31T11:25:03Z</time>
      </trkpt>
      <trkpt lat="45.95413" lon="4.86857">
        <ele>269</ele>
        <time>2018-10-31T11:25:04Z</time>
      </trkpt>
      <trkpt lat="45.9541" lon="4.8685">
        <ele>269</ele>
        <time>2018-10-31T11:25:05Z</time>
      </trkpt>
      <trkpt lat="45.95407" lon="4.86843">
        <ele>268</ele>
        <time>2018-10-31T11:25:06Z</time>
      </trkpt>
      <trkpt lat="45.95404" lon="4.86837">
        <ele>268</ele>
        <time>2018-10-31T11:25:07Z</time>
      </trkpt>
      <trkpt lat="45.95401" lon="4.8683">
        <ele>268</ele>
        <time>2018-10-31T11:25:08Z</time>
      </trkpt>
      <trkpt lat="45.95398" lon="4.86824">
        <ele>268</ele>
        <time>2018-10-31T11:25:09Z</time>
      </trkpt>
      <trkpt lat="45.95395" lon="4.86817">
        <ele>268</ele>
        <time>2018-10-31T11:25:10Z</time>
      </trkpt>
      <trkpt lat="45.95391" lon="4.8681">
        <ele>268</ele>
        <time>2018-10-31T11:25:11Z</time>
      </trkpt>
      <trkpt lat="45.95387" lon="4.86804">
        <ele>268</ele>
        <time>2018-10-31T11:25:12Z</time>
      </trkpt>
      <trkpt lat="45.95384" lon="4.86798">
        <ele>268</ele>
        <time>2018-10-31T11:25:13Z</time>
      </trkpt>
      <trkpt lat="45.95381" lon="4.86791">
        <ele>268</ele>
        <time>2018-10-31T11:25:14Z</time>
      </trkpt>
      <trkpt lat="45.95379" lon="4.86785">
        <ele>268</ele>
        <time>2018-10-31T11:25:15Z</time>
      </trkpt>
      <trkpt lat="45.95375" lon="4.8678">
        <ele>268</ele>
        <time>2018-10-31T11:25:16Z</time>
      </trkpt>
      <trkpt lat="45.95371" lon="4.86773">
        <ele>268</ele>
        <time>2018-10-31T11:25:17Z</time>
      </trkpt>
      <trkpt lat="45.95368" lon="4.86766">
        <ele>268</ele>
        <time>2018-10-31T11:25:18Z</time>
      </trkpt>
      <trkpt lat="45.95365" lon="4.8676">
        <ele>268</ele>
        <time>2018-10-31T11:25:19Z</time>
      </trkpt>
      <trkpt lat="45.95362" lon="4.86752">
        <ele>268</ele>
        <time>2018-10-31T11:25:20Z</time>
      </trkpt>
      <trkpt lat="45.95358" lon="4.86746">
        <ele>268</ele>
        <time>2018-10-31T11:25:21Z</time>
      </trkpt>
      <trkpt lat="45.95356" lon="4.8674">
        <ele>268</ele>
        <time>2018-10-31T11:25:22Z</time>
      </trkpt>
      <trkpt lat="45.95353" lon="4.86734">
        <ele>268</ele>
        <time>2018-10-31T11:25:23Z</time>
      </trkpt>
      <trkpt lat="45.9535" lon="4.86728">
        <ele>268</ele>
        <time>2018-10-31T11:25:24Z</time>
      </trkpt>
      <trkpt lat="45.95346" lon="4.86721">
        <ele>268</ele>
        <time>2018-10-31T11:25:25Z</time>
      </trkpt>
      <trkpt lat="45.95343" lon="4.86715">
        <ele>268</ele>
        <time>2018-10-31T11:25:26Z</time>
      </trkpt>
      <trkpt lat="45.95341" lon="4.86709">
        <ele>268</ele>
        <time>2018-10-31T11:25:27Z</time>
      </trkpt>
      <trkpt lat="45.95337" lon="4.86703">
        <ele>268</ele>
        <time>2018-10-31T11:25:28Z</time>
      </trkpt>
      <trkpt lat="45.95334" lon="4.86697">
        <ele>268</ele>
        <time>2018-10-31T11:25:29Z</time>
      </trkpt>
      <trkpt lat="45.95332" lon="4.86692">
        <ele>269</ele>
        <time>2018-10-31T11:25:30Z</time>
      </trkpt>
      <trkpt lat="45.95329" lon="4.86686">
        <ele>269</ele>
        <time>2018-10-31T11:25:31Z</time>
      </trkpt>
      <trkpt lat="45.95326" lon="4.8668">
        <ele>269</ele>
        <time>2018-10-31T11:25:32Z</time>
      </trkpt>
      <trkpt lat="45.95324" lon="4.86674">
        <ele>268</ele>
        <time>2018-10-31T11:25:33Z</time>
      </trkpt>
      <trkpt lat="45.9532" lon="4.86668">
        <ele>268</ele>
        <time>2018-10-31T11:25:34Z</time>
      </trkpt>
      <trkpt lat="45.95318" lon="4.86662">
        <ele>268</ele>
        <time>2018-10-31T11:25:35Z</time>
      </trkpt>
      <trkpt lat="45.95315" lon="4.86656">
        <ele>268</ele>
        <time>2018-10-31T11:25:36Z</time>
      </trkpt>
      <trkpt lat="45.95312" lon="4.8665">
        <ele>268</ele>
        <time>2018-10-31T11:25:37Z</time>
      </trkpt>
      <trkpt lat="45.95309" lon="4.86643">
        <ele>268</ele>
        <time>2018-10-31T11:25:38Z</time>
      </trkpt>
      <trkpt lat="45.95306" lon="4.86637">
        <ele>268</ele>
        <time>2018-10-31T11:25:39Z</time>
      </trkpt>
      <trkpt lat="45.95303" lon="4.86631">
        <ele>268</ele>
        <time>2018-10-31T11:25:40Z</time>
      </trkpt>
      <trkpt lat="45.95299" lon="4.86624">
        <ele>268</ele>
        <time>2018-10-31T11:25:41Z</time>
      </trkpt>
      <trkpt lat="45.95296" lon="4.86617">
        <ele>268</ele>
        <time>2018-10-31T11:25:42Z</time>
      </trkpt>
      <trkpt lat="45.95292" lon="4.8661">
        <ele>268</ele>
        <time>2018-10-31T11:25:43Z</time>
      </trkpt>
      <trkpt lat="45.95288" lon="4.86603">
        <ele>268</ele>
        <time>2018-10-31T11:25:44Z</time>
      </trkpt>
      <trkpt lat="45.95284" lon="4.86596">
        <ele>268</ele>
        <time>2018-10-31T11:25:45Z</time>
      </trkpt>
      <trkpt lat="45.9528" lon="4.86589">
        <ele>268</ele>
        <time>2018-10-31T11:25:46Z</time>
      </trkpt>
      <trkpt lat="45.95276" lon="4.86581">
        <ele>267</ele>
        <time>2018-10-31T11:25:47Z</time>
      </trkpt>
      <trkpt lat="45.95272" lon="4.86575">
        <ele>267</ele>
        <time>2018-10-31T11:25:48Z</time>
      </trkpt>
      <trkpt lat="45.95268" lon="4.86568">
        <ele>267</ele>
        <time>2018-10-31T11:25:49Z</time>
      </trkpt>
      <trkpt lat="45.95262" lon="4.86561">
        <ele>267</ele>
        <time>2018-10-31T11:25:50Z</time>
      </trkpt>
      <trkpt lat="45.95257" lon="4.86555">
        <ele>267</ele>
        <time>2018-10-31T11:25:51Z</time>
      </trkpt>
      <trkpt lat="45.95253" lon="4.86549">
        <ele>267</ele>
        <time>2018-10-31T11:25:52Z</time>
      </trkpt>
      <trkpt lat="45.95249" lon="4.86545">
        <ele>268</ele>
        <time>2018-10-31T11:25:53Z</time>
      </trkpt>
      <trkpt lat="45.95243" lon="4.86536">
        <ele>268</ele>
        <time>2018-10-31T11:25:55Z</time>
      </trkpt>
      <trkpt lat="45.95239" lon="4.86532">
        <ele>268</ele>
        <time>2018-10-31T11:25:56Z</time>
      </trkpt>
      <trkpt lat="45.95234" lon="4.86528">
        <ele>268</ele>
        <time>2018-10-31T11:25:57Z</time>
      </trkpt>
      <trkpt lat="45.95231" lon="4.86524">
        <ele>268</ele>
        <time>2018-10-31T11:25:58Z</time>
      </trkpt>
      <trkpt lat="45.95227" lon="4.86519">
        <ele>268</ele>
        <time>2018-10-31T11:25:59Z</time>
      </trkpt>
      <trkpt lat="45.95222" lon="4.86513">
        <ele>268</ele>
        <time>2018-10-31T11:26:00Z</time>
      </trkpt>
      <trkpt lat="45.95218" lon="4.86509">
        <ele>268</ele>
        <time>2018-10-31T11:26:01Z</time>
      </trkpt>
      <trkpt lat="45.95214" lon="4.86504">
        <ele>268</ele>
        <time>2018-10-31T11:26:02Z</time>
      </trkpt>
      <trkpt lat="45.9521" lon="4.86498">
        <ele>268</ele>
        <time>2018-10-31T11:26:03Z</time>
      </trkpt>
      <trkpt lat="45.95207" lon="4.86493">
        <ele>268</ele>
        <time>2018-10-31T11:26:04Z</time>
      </trkpt>
      <trkpt lat="45.95201" lon="4.86484">
        <ele>268</ele>
        <time>2018-10-31T11:26:06Z</time>
      </trkpt>
      <trkpt lat="45.95198" lon="4.86481">
        <ele>268</ele>
        <time>2018-10-31T11:26:07Z</time>
      </trkpt>
      <trkpt lat="45.95192" lon="4.86472">
        <ele>268</ele>
        <time>2018-10-31T11:26:09Z</time>
      </trkpt>
      <trkpt lat="45.95189" lon="4.86468">
        <ele>268</ele>
        <time>2018-10-31T11:26:10Z</time>
      </trkpt>
      <trkpt lat="45.95183" lon="4.86461">
        <ele>268</ele>
        <time>2018-10-31T11:26:12Z</time>
      </trkpt>
      <trkpt lat="45.9518" lon="4.86458">
        <ele>268</ele>
        <time>2018-10-31T11:26:13Z</time>
      </trkpt>
      <trkpt lat="45.95176" lon="4.86454">
        <ele>268</ele>
        <time>2018-10-31T11:26:15Z</time>
      </trkpt>
      <trkpt lat="45.95171" lon="4.86449">
        <ele>268</ele>
        <time>2018-10-31T11:26:16Z</time>
      </trkpt>
      <trkpt lat="45.95165" lon="4.86442">
        <ele>268</ele>
        <time>2018-10-31T11:26:18Z</time>
      </trkpt>
      <trkpt lat="45.95162" lon="4.86438">
        <ele>268</ele>
        <time>2018-10-31T11:26:19Z</time>
      </trkpt>
      <trkpt lat="45.95156" lon="4.86431">
        <ele>268</ele>
        <time>2018-10-31T11:26:21Z</time>
      </trkpt>
      <trkpt lat="45.95153" lon="4.86427">
        <ele>268</ele>
        <time>2018-10-31T11:26:22Z</time>
      </trkpt>
      <trkpt lat="45.95147" lon="4.8642">
        <ele>268</ele>
        <time>2018-10-31T11:26:24Z</time>
      </trkpt>
      <trkpt lat="45.95143" lon="4.86416">
        <ele>268</ele>
        <time>2018-10-31T11:26:25Z</time>
      </trkpt>
      <trkpt lat="45.95138" lon="4.86412">
        <ele>268</ele>
        <time>2018-10-31T11:26:26Z</time>
      </trkpt>
      <trkpt lat="45.95135" lon="4.86408">
        <ele>268</ele>
        <time>2018-10-31T11:26:27Z</time>
      </trkpt>
      <trkpt lat="45.95129" lon="4.86401">
        <ele>268</ele>
        <time>2018-10-31T11:26:29Z</time>
      </trkpt>
      <trkpt lat="45.95125" lon="4.86397">
        <ele>268</ele>
        <time>2018-10-31T11:26:30Z</time>
      </trkpt>
      <trkpt lat="45.95119" lon="4.86389">
        <ele>269</ele>
        <time>2018-10-31T11:26:32Z</time>
      </trkpt>
      <trkpt lat="45.95116" lon="4.86385">
        <ele>269</ele>
        <time>2018-10-31T11:26:33Z</time>
      </trkpt>
      <trkpt lat="45.9511" lon="4.86377">
        <ele>269</ele>
        <time>2018-10-31T11:26:35Z</time>
      </trkpt>
      <trkpt lat="45.95106" lon="4.86372">
        <ele>269</ele>
        <time>2018-10-31T11:26:36Z</time>
      </trkpt>
      <trkpt lat="45.95102" lon="4.86367">
        <ele>269</ele>
        <time>2018-10-31T11:26:37Z</time>
      </trkpt>
      <trkpt lat="45.95099" lon="4.86363">
        <ele>269</ele>
        <time>2018-10-31T11:26:38Z</time>
      </trkpt>
      <trkpt lat="45.95094" lon="4.86359">
        <ele>269</ele>
        <time>2018-10-31T11:26:39Z</time>
      </trkpt>
      <trkpt lat="45.95091" lon="4.86355">
        <ele>269</ele>
        <time>2018-10-31T11:26:40Z</time>
      </trkpt>
      <trkpt lat="45.95087" lon="4.8635">
        <ele>269</ele>
        <time>2018-10-31T11:26:41Z</time>
      </trkpt>
      <trkpt lat="45.95084" lon="4.86346">
        <ele>269</ele>
        <time>2018-10-31T11:26:42Z</time>
      </trkpt>
      <trkpt lat="45.9508" lon="4.86342">
        <ele>270</ele>
        <time>2018-10-31T11:26:43Z</time>
      </trkpt>
      <trkpt lat="45.95077" lon="4.86337">
        <ele>270</ele>
        <time>2018-10-31T11:26:44Z</time>
      </trkpt>
      <trkpt lat="45.95071" lon="4.86328">
        <ele>270</ele>
        <time>2018-10-31T11:26:46Z</time>
      </trkpt>
      <trkpt lat="45.95068" lon="4.86324">
        <ele>270</ele>
        <time>2018-10-31T11:26:47Z</time>
      </trkpt>
      <trkpt lat="45.95064" lon="4.86319">
        <ele>270</ele>
        <time>2018-10-31T11:26:48Z</time>
      </trkpt>
      <trkpt lat="45.95061" lon="4.86315">
        <ele>270</ele>
        <time>2018-10-31T11:26:49Z</time>
      </trkpt>
      <trkpt lat="45.95057" lon="4.8631">
        <ele>271</ele>
        <time>2018-10-31T11:26:50Z</time>
      </trkpt>
      <trkpt lat="45.95054" lon="4.86306">
        <ele>271</ele>
        <time>2018-10-31T11:26:51Z</time>
      </trkpt>
      <trkpt lat="45.95048" lon="4.86298">
        <ele>271</ele>
        <time>2018-10-31T11:26:53Z</time>
      </trkpt>
      <trkpt lat="45.95044" lon="4.86294">
        <ele>271</ele>
        <time>2018-10-31T11:26:54Z</time>
      </trkpt>
      <trkpt lat="45.95037" lon="4.86286">
        <ele>271</ele>
        <time>2018-10-31T11:26:56Z</time>
      </trkpt>
      <trkpt lat="45.95034" lon="4.86283">
        <ele>271</ele>
        <time>2018-10-31T11:26:57Z</time>
      </trkpt>
      <trkpt lat="45.95028" lon="4.86276">
        <ele>271</ele>
        <time>2018-10-31T11:26:59Z</time>
      </trkpt>
      <trkpt lat="45.95025" lon="4.86273">
        <ele>271</ele>
        <time>2018-10-31T11:27:00Z</time>
      </trkpt>
      <trkpt lat="45.95019" lon="4.86265">
        <ele>271</ele>
        <time>2018-10-31T11:27:02Z</time>
      </trkpt>
      <trkpt lat="45.95016" lon="4.86262">
        <ele>271</ele>
        <time>2018-10-31T11:27:03Z</time>
      </trkpt>
      <trkpt lat="45.95011" lon="4.86254">
        <ele>272</ele>
        <time>2018-10-31T11:27:05Z</time>
      </trkpt>
      <trkpt lat="45.95009" lon="4.86252">
        <ele>272</ele>
        <time>2018-10-31T11:27:06Z</time>
      </trkpt>
      <trkpt lat="45.95003" lon="4.86243">
        <ele>272</ele>
        <time>2018-10-31T11:27:08Z</time>
      </trkpt>
      <trkpt lat="45.95" lon="4.8624">
        <ele>272</ele>
        <time>2018-10-31T11:27:09Z</time>
      </trkpt>
      <trkpt lat="45.94994" lon="4.86233">
        <ele>272</ele>
        <time>2018-10-31T11:27:11Z</time>
      </trkpt>
      <trkpt lat="45.94991" lon="4.86229">
        <ele>272</ele>
        <time>2018-10-31T11:27:12Z</time>
      </trkpt>
      <trkpt lat="45.94985" lon="4.86222">
        <ele>272</ele>
        <time>2018-10-31T11:27:14Z</time>
      </trkpt>
      <trkpt lat="45.94983" lon="4.86218">
        <ele>272</ele>
        <time>2018-10-31T11:27:15Z</time>
      </trkpt>
      <trkpt lat="45.94977" lon="4.86212">
        <ele>272</ele>
        <time>2018-10-31T11:27:17Z</time>
      </trkpt>
      <trkpt lat="45.94974" lon="4.86209">
        <ele>272</ele>
        <time>2018-10-31T11:27:18Z</time>
      </trkpt>
      <trkpt lat="45.94968" lon="4.86201">
        <ele>272</ele>
        <time>2018-10-31T11:27:20Z</time>
      </trkpt>
      <trkpt lat="45.94965" lon="4.86197">
        <ele>272</ele>
        <time>2018-10-31T11:27:21Z</time>
      </trkpt>
      <trkpt lat="45.94959" lon="4.86189">
        <ele>272</ele>
        <time>2018-10-31T11:27:23Z</time>
      </trkpt>
      <trkpt lat="45.94956" lon="4.86185">
        <ele>273</ele>
        <time>2018-10-31T11:27:24Z</time>
      </trkpt>
      <trkpt lat="45.94949" lon="4.86177">
        <ele>273</ele>
        <time>2018-10-31T11:27:26Z</time>
      </trkpt>
      <trkpt lat="45.94946" lon="4.86174">
        <ele>273</ele>
        <time>2018-10-31T11:27:27Z</time>
      </trkpt>
      <trkpt lat="45.9494" lon="4.86165">
        <ele>273</ele>
        <time>2018-10-31T11:27:29Z</time>
      </trkpt>
      <trkpt lat="45.94937" lon="4.86162">
        <ele>273</ele>
        <time>2018-10-31T11:27:30Z</time>
      </trkpt>
      <trkpt lat="45.94931" lon="4.86154">
        <ele>273</ele>
        <time>2018-10-31T11:27:32Z</time>
      </trkpt>
      <trkpt lat="45.94928" lon="4.8615">
        <ele>273</ele>
        <time>2018-10-31T11:27:33Z</time>
      </trkpt>
      <trkpt lat="45.94922" lon="4.86141">
        <ele>273</ele>
        <time>2018-10-31T11:27:35Z</time>
      </trkpt>
      <trkpt lat="45.94919" lon="4.86137">
        <ele>273</ele>
        <time>2018-10-31T11:27:36Z</time>
      </trkpt>
      <trkpt lat="45.94914" lon="4.86127">
        <ele>274</ele>
        <time>2018-10-31T11:27:38Z</time>
      </trkpt>
      <trkpt lat="45.94912" lon="4.86122">
        <ele>274</ele>
        <time>2018-10-31T11:27:39Z</time>
      </trkpt>
      <trkpt lat="45.94907" lon="4.86112">
        <ele>274</ele>
        <time>2018-10-31T11:27:41Z</time>
      </trkpt>
      <trkpt lat="45.94904" lon="4.86108">
        <ele>274</ele>
        <time>2018-10-31T11:27:42Z</time>
      </trkpt>
      <trkpt lat="45.949" lon="4.86098">
        <ele>274</ele>
        <time>2018-10-31T11:27:44Z</time>
      </trkpt>
      <trkpt lat="45.94898" lon="4.86093">
        <ele>274</ele>
        <time>2018-10-31T11:27:45Z</time>
      </trkpt>
      <trkpt lat="45.94894" lon="4.86082">
        <ele>274</ele>
        <time>2018-10-31T11:27:47Z</time>
      </trkpt>
      <trkpt lat="45.94893" lon="4.86076">
        <ele>274</ele>
        <time>2018-10-31T11:27:48Z</time>
      </trkpt>
      <trkpt lat="45.94889" lon="4.86065">
        <ele>274</ele>
        <time>2018-10-31T11:27:50Z</time>
      </trkpt>
      <trkpt lat="45.94887" lon="4.8606">
        <ele>274</ele>
        <time>2018-10-31T11:27:51Z</time>
      </trkpt>
      <trkpt lat="45.94884" lon="4.86049">
        <ele>274</ele>
        <time>2018-10-31T11:27:53Z</time>
      </trkpt>
      <trkpt lat="45.94882" lon="4.86043">
        <ele>274</ele>
        <time>2018-10-31T11:27:54Z</time>
      </trkpt>
      <trkpt lat="45.94879" lon="4.86031">
        <ele>274</ele>
        <time>2018-10-31T11:27:56Z</time>
      </trkpt>
      <trkpt lat="45.94878" lon="4.86025">
        <ele>274</ele>
        <time>2018-10-31T11:27:57Z</time>
      </trkpt>
      <trkpt lat="45.94875" lon="4.86014">
        <ele>274</ele>
        <time>2018-10-31T11:27:59Z</time>
      </trkpt>
      <trkpt lat="45.94873" lon="4.86008">
        <ele>274</ele>
        <time>2018-10-31T11:28:00Z</time>
      </trkpt>
      <trkpt lat="45.94871" lon="4.85996">
        <ele>275</ele>
        <time>2018-10-31T11:28:02Z</time>
      </trkpt>
      <trkpt lat="45.9487" lon="4.85989">
        <ele>275</ele>
        <time>2018-10-31T11:28:03Z</time>
      </trkpt>
      <trkpt lat="45.94869" lon="4.85982">
        <ele>275</ele>
        <time>2018-10-31T11:28:04Z</time>
      </trkpt>
      <trkpt lat="45.94867" lon="4.85976">
        <ele>275</ele>
        <time>2018-10-31T11:28:05Z</time>
      </trkpt>
      <trkpt lat="45.94866" lon="4.8597">
        <ele>275</ele>
        <time>2018-10-31T11:28:06Z</time>
      </trkpt>
      <trkpt lat="45.94864" lon="4.85963">
        <ele>275</ele>
        <time>2018-10-31T11:28:07Z</time>
      </trkpt>
      <trkpt lat="45.94862" lon="4.85957">
        <ele>275</ele>
        <time>2018-10-31T11:28:08Z</time>
      </trkpt>
      <trkpt lat="45.9486" lon="4.85951">
        <ele>275</ele>
        <time>2018-10-31T11:28:09Z</time>
      </trkpt>
      <trkpt lat="45.94858" lon="4.85944">
        <ele>275</ele>
        <time>2018-10-31T11:28:10Z</time>
      </trkpt>
      <trkpt lat="45.94856" lon="4.85939">
        <ele>275</ele>
        <time>2018-10-31T11:28:11Z</time>
      </trkpt>
      <trkpt lat="45.94853" lon="4.85926">
        <ele>275</ele>
        <time>2018-10-31T11:28:13Z</time>
      </trkpt>
      <trkpt lat="45.94851" lon="4.8592">
        <ele>275</ele>
        <time>2018-10-31T11:28:14Z</time>
      </trkpt>
      <trkpt lat="45.94849" lon="4.85908">
        <ele>275</ele>
        <time>2018-10-31T11:28:16Z</time>
      </trkpt>
      <trkpt lat="45.94847" lon="4.85902">
        <ele>276</ele>
        <time>2018-10-31T11:28:17Z</time>
      </trkpt>
      <trkpt lat="45.94846" lon="4.85894">
        <ele>276</ele>
        <time>2018-10-31T11:28:18Z</time>
      </trkpt>
      <trkpt lat="45.94844" lon="4.85888">
        <ele>276</ele>
        <time>2018-10-31T11:28:19Z</time>
      </trkpt>
      <trkpt lat="45.94842" lon="4.85882">
        <ele>276</ele>
        <time>2018-10-31T11:28:20Z</time>
      </trkpt>
      <trkpt lat="45.9484" lon="4.85875">
        <ele>276</ele>
        <time>2018-10-31T11:28:21Z</time>
      </trkpt>
      <trkpt lat="45.94838" lon="4.8587">
        <ele>276</ele>
        <time>2018-10-31T11:28:22Z</time>
      </trkpt>
      <trkpt lat="45.94836" lon="4.85863">
        <ele>276</ele>
        <time>2018-10-31T11:28:23Z</time>
      </trkpt>
      <trkpt lat="45.94833" lon="4.85852">
        <ele>276</ele>
        <time>2018-10-31T11:28:25Z</time>
      </trkpt>
      <trkpt lat="45.94832" lon="4.85845">
        <ele>277</ele>
        <time>2018-10-31T11:28:26Z</time>
      </trkpt>
      <trkpt lat="45.9483" lon="4.85839">
        <ele>277</ele>
        <time>2018-10-31T11:28:27Z</time>
      </trkpt>
      <trkpt lat="45.94828" lon="4.85832">
        <ele>277</ele>
        <time>2018-10-31T11:28:28Z</time>
      </trkpt>
      <trkpt lat="45.94825" lon="4.85821">
        <ele>278</ele>
        <time>2018-10-31T11:28:30Z</time>
      </trkpt>
      <trkpt lat="45.94823" lon="4.85815">
        <ele>278</ele>
        <time>2018-10-31T11:28:31Z</time>
      </trkpt>
      <trkpt lat="45.94821" lon="4.85808">
        <ele>278</ele>
        <time>2018-10-31T11:28:32Z</time>
      </trkpt>
      <trkpt lat="45.9482" lon="4.85803">
        <ele>278</ele>
        <time>2018-10-31T11:28:33Z</time>
      </trkpt>
      <trkpt lat="45.94816" lon="4.85791">
        <ele>278</ele>
        <time>2018-10-31T11:28:35Z</time>
      </trkpt>
      <trkpt lat="45.94815" lon="4.85785">
        <ele>278</ele>
        <time>2018-10-31T11:28:36Z</time>
      </trkpt>
      <trkpt lat="45.94812" lon="4.85773">
        <ele>278</ele>
        <time>2018-10-31T11:28:38Z</time>
      </trkpt>
      <trkpt lat="45.9481" lon="4.85768">
        <ele>278</ele>
        <time>2018-10-31T11:28:39Z</time>
      </trkpt>
      <trkpt lat="45.94807" lon="4.85757">
        <ele>278</ele>
        <time>2018-10-31T11:28:41Z</time>
      </trkpt>
      <trkpt lat="45.94806" lon="4.85751">
        <ele>278</ele>
        <time>2018-10-31T11:28:42Z</time>
      </trkpt>
      <trkpt lat="45.94803" lon="4.8574">
        <ele>279</ele>
        <time>2018-10-31T11:28:44Z</time>
      </trkpt>
      <trkpt lat="45.94801" lon="4.85735">
        <ele>280</ele>
        <time>2018-10-31T11:28:45Z</time>
      </trkpt>
      <trkpt lat="45.94798" lon="4.85724">
        <ele>280</ele>
        <time>2018-10-31T11:28:47Z</time>
      </trkpt>
      <trkpt lat="45.94797" lon="4.85719">
        <ele>280</ele>
        <time>2018-10-31T11:28:48Z</time>
      </trkpt>
      <trkpt lat="45.94795" lon="4.85708">
        <ele>280</ele>
        <time>2018-10-31T11:28:50Z</time>
      </trkpt>
      <trkpt lat="45.94794" lon="4.85702">
        <ele>280</ele>
        <time>2018-10-31T11:28:51Z</time>
      </trkpt>
      <trkpt lat="45.94791" lon="4.85692">
        <ele>280</ele>
        <time>2018-10-31T11:28:53Z</time>
      </trkpt>
      <trkpt lat="45.9479" lon="4.85686">
        <ele>280</ele>
        <time>2018-10-31T11:28:54Z</time>
      </trkpt>
      <trkpt lat="45.94787" lon="4.85675">
        <ele>280</ele>
        <time>2018-10-31T11:28:56Z</time>
      </trkpt>
      <trkpt lat="45.94785" lon="4.85669">
        <ele>280</ele>
        <time>2018-10-31T11:28:57Z</time>
      </trkpt>
      <trkpt lat="45.94783" lon="4.85663">
        <ele>281</ele>
        <time>2018-10-31T11:28:58Z</time>
      </trkpt>
      <trkpt lat="45.94782" lon="4.85656">
        <ele>281</ele>
        <time>2018-10-31T11:28:59Z</time>
      </trkpt>
      <trkpt lat="45.9478" lon="4.8565">
        <ele>281</ele>
        <time>2018-10-31T11:29:00Z</time>
      </trkpt>
      <trkpt lat="45.94778" lon="4.85643">
        <ele>281</ele>
        <time>2018-10-31T11:29:01Z</time>
      </trkpt>
      <trkpt lat="45.94776" lon="4.85637">
        <ele>281</ele>
        <time>2018-10-31T11:29:02Z</time>
      </trkpt>
      <trkpt lat="45.94775" lon="4.8563">
        <ele>280</ele>
        <time>2018-10-31T11:29:03Z</time>
      </trkpt>
      <trkpt lat="45.94773" lon="4.85622">
        <ele>280</ele>
        <time>2018-10-31T11:29:04Z</time>
      </trkpt>
      <trkpt lat="45.94772" lon="4.85615">
        <ele>280</ele>
        <time>2018-10-31T11:29:05Z</time>
      </trkpt>
      <trkpt lat="45.94771" lon="4.85607">
        <ele>280</ele>
        <time>2018-10-31T11:29:06Z</time>
      </trkpt>
      <trkpt lat="45.94769" lon="4.856">
        <ele>280</ele>
        <time>2018-10-31T11:29:07Z</time>
      </trkpt>
      <trkpt lat="45.94767" lon="4.85591">
        <ele>280</ele>
        <time>2018-10-31T11:29:08Z</time>
      </trkpt>
      <trkpt lat="45.94765" lon="4.85583">
        <ele>279</ele>
        <time>2018-10-31T11:29:09Z</time>
      </trkpt>
      <trkpt lat="45.94764" lon="4.85575">
        <ele>279</ele>
        <time>2018-10-31T11:29:10Z</time>
      </trkpt>
      <trkpt lat="45.94762" lon="4.85566">
        <ele>279</ele>
        <time>2018-10-31T11:29:11Z</time>
      </trkpt>
      <trkpt lat="45.9476" lon="4.85556">
        <ele>278</ele>
        <time>2018-10-31T11:29:12Z</time>
      </trkpt>
      <trkpt lat="45.94759" lon="4.85546">
        <ele>278</ele>
        <time>2018-10-31T11:29:13Z</time>
      </trkpt>
      <trkpt lat="45.94757" lon="4.85536">
        <ele>278</ele>
        <time>2018-10-31T11:29:14Z</time>
      </trkpt>
      <trkpt lat="45.94756" lon="4.85526">
        <ele>278</ele>
        <time>2018-10-31T11:29:15Z</time>
      </trkpt>
      <trkpt lat="45.94755" lon="4.85515">
        <ele>277</ele>
        <time>2018-10-31T11:29:16Z</time>
      </trkpt>
      <trkpt lat="45.94753" lon="4.85505">
        <ele>276</ele>
        <time>2018-10-31T11:29:17Z</time>
      </trkpt>
      <trkpt lat="45.94751" lon="4.85493">
        <ele>276</ele>
        <time>2018-10-31T11:29:18Z</time>
      </trkpt>
      <trkpt lat="45.9475" lon="4.85482">
        <ele>275</ele>
        <time>2018-10-31T11:29:19Z</time>
      </trkpt>
      <trkpt lat="45.94749" lon="4.85472">
        <ele>274</ele>
        <time>2018-10-31T11:29:20Z</time>
      </trkpt>
      <trkpt lat="45.94747" lon="4.85461">
        <ele>274</ele>
        <time>2018-10-31T11:29:21Z</time>
      </trkpt>
      <trkpt lat="45.94746" lon="4.8545">
        <ele>274</ele>
        <time>2018-10-31T11:29:22Z</time>
      </trkpt>
      <trkpt lat="45.94745" lon="4.85438">
        <ele>274</ele>
        <time>2018-10-31T11:29:23Z</time>
      </trkpt>
      <trkpt lat="45.94744" lon="4.85427">
        <ele>273</ele>
        <time>2018-10-31T11:29:24Z</time>
      </trkpt>
      <trkpt lat="45.94743" lon="4.85416">
        <ele>273</ele>
        <time>2018-10-31T11:29:25Z</time>
      </trkpt>
      <trkpt lat="45.94743" lon="4.85405">
        <ele>272</ele>
        <time>2018-10-31T11:29:26Z</time>
      </trkpt>
      <trkpt lat="45.94741" lon="4.85394">
        <ele>272</ele>
        <time>2018-10-31T11:29:27Z</time>
      </trkpt>
      <trkpt lat="45.9474" lon="4.85383">
        <ele>272</ele>
        <time>2018-10-31T11:29:28Z</time>
      </trkpt>
      <trkpt lat="45.94739" lon="4.85373">
        <ele>271</ele>
        <time>2018-10-31T11:29:29Z</time>
      </trkpt>
      <trkpt lat="45.94738" lon="4.85362">
        <ele>271</ele>
        <time>2018-10-31T11:29:30Z</time>
      </trkpt>
      <trkpt lat="45.94736" lon="4.85352">
        <ele>271</ele>
        <time>2018-10-31T11:29:31Z</time>
      </trkpt>
      <trkpt lat="45.94734" lon="4.85342">
        <ele>271</ele>
        <time>2018-10-31T11:29:32Z</time>
      </trkpt>
      <trkpt lat="45.94733" lon="4.85333">
        <ele>270</ele>
        <time>2018-10-31T11:29:33Z</time>
      </trkpt>
      <trkpt lat="45.94732" lon="4.85323">
        <ele>270</ele>
        <time>2018-10-31T11:29:34Z</time>
      </trkpt>
      <trkpt lat="45.94731" lon="4.85314">
        <ele>270</ele>
        <time>2018-10-31T11:29:35Z</time>
      </trkpt>
      <trkpt lat="45.9473" lon="4.85305">
        <ele>270</ele>
        <time>2018-10-31T11:29:36Z</time>
      </trkpt>
      <trkpt lat="45.94729" lon="4.85296">
        <ele>270</ele>
        <time>2018-10-31T11:29:37Z</time>
      </trkpt>
      <trkpt lat="45.94727" lon="4.85287">
        <ele>269</ele>
        <time>2018-10-31T11:29:38Z</time>
      </trkpt>
      <trkpt lat="45.94727" lon="4.85279">
        <ele>269</ele>
        <time>2018-10-31T11:29:39Z</time>
      </trkpt>
      <trkpt lat="45.94725" lon="4.85271">
        <ele>269</ele>
        <time>2018-10-31T11:29:40Z</time>
      </trkpt>
      <trkpt lat="45.94724" lon="4.85262">
        <ele>269</ele>
        <time>2018-10-31T11:29:41Z</time>
      </trkpt>
      <trkpt lat="45.94724" lon="4.85254">
        <ele>269</ele>
        <time>2018-10-31T11:29:42Z</time>
      </trkpt>
      <trkpt lat="45.94722" lon="4.85246">
        <ele>269</ele>
        <time>2018-10-31T11:29:43Z</time>
      </trkpt>
      <trkpt lat="45.94721" lon="4.85238">
        <ele>269</ele>
        <time>2018-10-31T11:29:44Z</time>
      </trkpt>
      <trkpt lat="45.94721" lon="4.8523">
        <ele>269</ele>
        <time>2018-10-31T11:29:45Z</time>
      </trkpt>
      <trkpt lat="45.9472" lon="4.85223">
        <ele>269</ele>
        <time>2018-10-31T11:29:46Z</time>
      </trkpt>
      <trkpt lat="45.94719" lon="4.85215">
        <ele>269</ele>
        <time>2018-10-31T11:29:47Z</time>
      </trkpt>
      <trkpt lat="45.94718" lon="4.85208">
        <ele>269</ele>
        <time>2018-10-31T11:29:48Z</time>
      </trkpt>
      <trkpt lat="45.94717" lon="4.852">
        <ele>269</ele>
        <time>2018-10-31T11:29:49Z</time>
      </trkpt>
      <trkpt lat="45.94716" lon="4.85191">
        <ele>269</ele>
        <time>2018-10-31T11:29:50Z</time>
      </trkpt>
      <trkpt lat="45.94715" lon="4.85183">
        <ele>269</ele>
        <time>2018-10-31T11:29:51Z</time>
      </trkpt>
      <trkpt lat="45.94714" lon="4.85175">
        <ele>269</ele>
        <time>2018-10-31T11:29:52Z</time>
      </trkpt>
      <trkpt lat="45.94712" lon="4.85168">
        <ele>269</ele>
        <time>2018-10-31T11:29:53Z</time>
      </trkpt>
      <trkpt lat="45.94712" lon="4.8516">
        <ele>269</ele>
        <time>2018-10-31T11:29:54Z</time>
      </trkpt>
      <trkpt lat="45.94711" lon="4.85152">
        <ele>269</ele>
        <time>2018-10-31T11:29:55Z</time>
      </trkpt>
      <trkpt lat="45.9471" lon="4.85145">
        <ele>269</ele>
        <time>2018-10-31T11:29:56Z</time>
      </trkpt>
      <trkpt lat="45.94709" lon="4.85137">
        <ele>269</ele>
        <time>2018-10-31T11:29:57Z</time>
      </trkpt>
      <trkpt lat="45.94709" lon="4.85128">
        <ele>269</ele>
        <time>2018-10-31T11:29:58Z</time>
      </trkpt>
      <trkpt lat="45.9471" lon="4.8512">
        <ele>269</ele>
        <time>2018-10-31T11:29:59Z</time>
      </trkpt>
      <trkpt lat="45.94709" lon="4.85111">
        <ele>269</ele>
        <time>2018-10-31T11:30:00Z</time>
      </trkpt>
      <trkpt lat="45.94708" lon="4.85103">
        <ele>269</ele>
        <time>2018-10-31T11:30:01Z</time>
      </trkpt>
      <trkpt lat="45.94707" lon="4.85095">
        <ele>269</ele>
        <time>2018-10-31T11:30:02Z</time>
      </trkpt>
      <trkpt lat="45.94706" lon="4.85088">
        <ele>269</ele>
        <time>2018-10-31T11:30:03Z</time>
      </trkpt>
      <trkpt lat="45.94706" lon="4.8508">
        <ele>269</ele>
        <time>2018-10-31T11:30:04Z</time>
      </trkpt>
      <trkpt lat="45.94706" lon="4.85073">
        <ele>269</ele>
        <time>2018-10-31T11:30:05Z</time>
      </trkpt>
      <trkpt lat="45.94705" lon="4.85066">
        <ele>269</ele>
        <time>2018-10-31T11:30:06Z</time>
      </trkpt>
      <trkpt lat="45.94704" lon="4.85059">
        <ele>269</ele>
        <time>2018-10-31T11:30:07Z</time>
      </trkpt>
      <trkpt lat="45.94703" lon="4.85053">
        <ele>269</ele>
        <time>2018-10-31T11:30:08Z</time>
      </trkpt>
      <trkpt lat="45.94703" lon="4.85046">
        <ele>269</ele>
        <time>2018-10-31T11:30:09Z</time>
      </trkpt>
      <trkpt lat="45.94702" lon="4.85039">
        <ele>269</ele>
        <time>2018-10-31T11:30:10Z</time>
      </trkpt>
      <trkpt lat="45.94701" lon="4.85031">
        <ele>269</ele>
        <time>2018-10-31T11:30:11Z</time>
      </trkpt>
      <trkpt lat="45.94701" lon="4.85023">
        <ele>269</ele>
        <time>2018-10-31T11:30:12Z</time>
      </trkpt>
      <trkpt lat="45.947" lon="4.85014">
        <ele>269</ele>
        <time>2018-10-31T11:30:13Z</time>
      </trkpt>
      <trkpt lat="45.94699" lon="4.85006">
        <ele>269</ele>
        <time>2018-10-31T11:30:14Z</time>
      </trkpt>
      <trkpt lat="45.94698" lon="4.84997">
        <ele>269</ele>
        <time>2018-10-31T11:30:15Z</time>
      </trkpt>
      <trkpt lat="45.94697" lon="4.84989">
        <ele>269</ele>
        <time>2018-10-31T11:30:16Z</time>
      </trkpt>
      <trkpt lat="45.94696" lon="4.84981">
        <ele>269</ele>
        <time>2018-10-31T11:30:17Z</time>
      </trkpt>
      <trkpt lat="45.94695" lon="4.84972">
        <ele>269</ele>
        <time>2018-10-31T11:30:18Z</time>
      </trkpt>
      <trkpt lat="45.94694" lon="4.84964">
        <ele>269</ele>
        <time>2018-10-31T11:30:19Z</time>
      </trkpt>
      <trkpt lat="45.94694" lon="4.84955">
        <ele>269</ele>
        <time>2018-10-31T11:30:20Z</time>
      </trkpt>
      <trkpt lat="45.94693" lon="4.84948">
        <ele>269</ele>
        <time>2018-10-31T11:30:21Z</time>
      </trkpt>
      <trkpt lat="45.94693" lon="4.8494">
        <ele>269</ele>
        <time>2018-10-31T11:30:22Z</time>
      </trkpt>
      <trkpt lat="45.94692" lon="4.84933">
        <ele>269</ele>
        <time>2018-10-31T11:30:23Z</time>
      </trkpt>
      <trkpt lat="45.9469" lon="4.8492">
        <ele>269</ele>
        <time>2018-10-31T11:30:25Z</time>
      </trkpt>
      <trkpt lat="45.94689" lon="4.84914">
        <ele>269</ele>
        <time>2018-10-31T11:30:26Z</time>
      </trkpt>
      <trkpt lat="45.94688" lon="4.84908">
        <ele>269</ele>
        <time>2018-10-31T11:30:27Z</time>
      </trkpt>
      <trkpt lat="45.94688" lon="4.849">
        <ele>268</ele>
        <time>2018-10-31T11:30:28Z</time>
      </trkpt>
      <trkpt lat="45.94687" lon="4.84893">
        <ele>268</ele>
        <time>2018-10-31T11:30:29Z</time>
      </trkpt>
      <trkpt lat="45.94686" lon="4.84885">
        <ele>268</ele>
        <time>2018-10-31T11:30:30Z</time>
      </trkpt>
      <trkpt lat="45.94685" lon="4.84878">
        <ele>268</ele>
        <time>2018-10-31T11:30:31Z</time>
      </trkpt>
      <trkpt lat="45.94684" lon="4.8487">
        <ele>268</ele>
        <time>2018-10-31T11:30:32Z</time>
      </trkpt>
      <trkpt lat="45.94684" lon="4.84863">
        <ele>268</ele>
        <time>2018-10-31T11:30:33Z</time>
      </trkpt>
      <trkpt lat="45.94683" lon="4.84854">
        <ele>268</ele>
        <time>2018-10-31T11:30:34Z</time>
      </trkpt>
      <trkpt lat="45.94682" lon="4.84846">
        <ele>268</ele>
        <time>2018-10-31T11:30:35Z</time>
      </trkpt>
      <trkpt lat="45.94682" lon="4.84838">
        <ele>268</ele>
        <time>2018-10-31T11:30:36Z</time>
      </trkpt>
      <trkpt lat="45.94681" lon="4.8483">
        <ele>268</ele>
        <time>2018-10-31T11:30:37Z</time>
      </trkpt>
      <trkpt lat="45.9468" lon="4.84822">
        <ele>268</ele>
        <time>2018-10-31T11:30:38Z</time>
      </trkpt>
      <trkpt lat="45.94679" lon="4.84813">
        <ele>268</ele>
        <time>2018-10-31T11:30:39Z</time>
      </trkpt>
      <trkpt lat="45.94678" lon="4.84805">
        <ele>268</ele>
        <time>2018-10-31T11:30:40Z</time>
      </trkpt>
      <trkpt lat="45.94678" lon="4.84796">
        <ele>268</ele>
        <time>2018-10-31T11:30:41Z</time>
      </trkpt>
      <trkpt lat="45.94678" lon="4.8479">
        <ele>269</ele>
        <time>2018-10-31T11:30:42Z</time>
      </trkpt>
      <trkpt lat="45.94677" lon="4.84781">
        <ele>269</ele>
        <time>2018-10-31T11:30:43Z</time>
      </trkpt>
      <trkpt lat="45.94676" lon="4.84772">
        <ele>269</ele>
        <time>2018-10-31T11:30:44Z</time>
      </trkpt>
      <trkpt lat="45.94675" lon="4.84764">
        <ele>269</ele>
        <time>2018-10-31T11:30:45Z</time>
      </trkpt>
      <trkpt lat="45.94674" lon="4.84756">
        <ele>269</ele>
        <time>2018-10-31T11:30:46Z</time>
      </trkpt>
      <trkpt lat="45.94673" lon="4.84748">
        <ele>269</ele>
        <time>2018-10-31T11:30:47Z</time>
      </trkpt>
      <trkpt lat="45.94672" lon="4.84741">
        <ele>269</ele>
        <time>2018-10-31T11:30:48Z</time>
      </trkpt>
      <trkpt lat="45.94673" lon="4.84734">
        <ele>269</ele>
        <time>2018-10-31T11:30:49Z</time>
      </trkpt>
      <trkpt lat="45.94672" lon="4.84728">
        <ele>269</ele>
        <time>2018-10-31T11:30:50Z</time>
      </trkpt>
      <trkpt lat="45.94672" lon="4.84721">
        <ele>269</ele>
        <time>2018-10-31T11:30:51Z</time>
      </trkpt>
      <trkpt lat="45.94673" lon="4.84713">
        <ele>269</ele>
        <time>2018-10-31T11:30:52Z</time>
      </trkpt>
      <trkpt lat="45.94673" lon="4.84706">
        <ele>269</ele>
        <time>2018-10-31T11:30:53Z</time>
      </trkpt>
      <trkpt lat="45.94672" lon="4.84698">
        <ele>269</ele>
        <time>2018-10-31T11:30:54Z</time>
      </trkpt>
      <trkpt lat="45.94672" lon="4.84691">
        <ele>269</ele>
        <time>2018-10-31T11:30:55Z</time>
      </trkpt>
      <trkpt lat="45.94672" lon="4.84683">
        <ele>269</ele>
        <time>2018-10-31T11:30:56Z</time>
      </trkpt>
      <trkpt lat="45.94672" lon="4.84676">
        <ele>269</ele>
        <time>2018-10-31T11:30:57Z</time>
      </trkpt>
      <trkpt lat="45.94672" lon="4.84668">
        <ele>269</ele>
        <time>2018-10-31T11:30:58Z</time>
      </trkpt>
      <trkpt lat="45.94672" lon="4.8466">
        <ele>269</ele>
        <time>2018-10-31T11:30:59Z</time>
      </trkpt>
      <trkpt lat="45.94671" lon="4.84651">
        <ele>268</ele>
        <time>2018-10-31T11:31:00Z</time>
      </trkpt>
      <trkpt lat="45.94671" lon="4.84643">
        <ele>268</ele>
        <time>2018-10-31T11:31:01Z</time>
      </trkpt>
      <trkpt lat="45.9467" lon="4.84635">
        <ele>268</ele>
        <time>2018-10-31T11:31:02Z</time>
      </trkpt>
      <trkpt lat="45.9467" lon="4.84628">
        <ele>268</ele>
        <time>2018-10-31T11:31:03Z</time>
      </trkpt>
      <trkpt lat="45.9467" lon="4.84619">
        <ele>268</ele>
        <time>2018-10-31T11:31:04Z</time>
      </trkpt>
      <trkpt lat="45.9467" lon="4.84611">
        <ele>268</ele>
        <time>2018-10-31T11:31:05Z</time>
      </trkpt>
      <trkpt lat="45.9467" lon="4.84603">
        <ele>268</ele>
        <time>2018-10-31T11:31:06Z</time>
      </trkpt>
      <trkpt lat="45.9467" lon="4.84596">
        <ele>268</ele>
        <time>2018-10-31T11:31:07Z</time>
      </trkpt>
      <trkpt lat="45.94669" lon="4.84588">
        <ele>268</ele>
        <time>2018-10-31T11:31:08Z</time>
      </trkpt>
      <trkpt lat="45.94669" lon="4.8458">
        <ele>268</ele>
        <time>2018-10-31T11:31:09Z</time>
      </trkpt>
      <trkpt lat="45.94669" lon="4.84573">
        <ele>268</ele>
        <time>2018-10-31T11:31:10Z</time>
      </trkpt>
      <trkpt lat="45.94667" lon="4.84561">
        <ele>268</ele>
        <time>2018-10-31T11:31:12Z</time>
      </trkpt>
      <trkpt lat="45.94667" lon="4.84555">
        <ele>268</ele>
        <time>2018-10-31T11:31:13Z</time>
      </trkpt>
      <trkpt lat="45.94666" lon="4.84548">
        <ele>268</ele>
        <time>2018-10-31T11:31:14Z</time>
      </trkpt>
      <trkpt lat="45.94665" lon="4.84541">
        <ele>268</ele>
        <time>2018-10-31T11:31:15Z</time>
      </trkpt>
      <trkpt lat="45.94664" lon="4.84534">
        <ele>268</ele>
        <time>2018-10-31T11:31:16Z</time>
      </trkpt>
      <trkpt lat="45.94663" lon="4.84528">
        <ele>268</ele>
        <time>2018-10-31T11:31:17Z</time>
      </trkpt>
      <trkpt lat="45.94662" lon="4.84521">
        <ele>268</ele>
        <time>2018-10-31T11:31:18Z</time>
      </trkpt>
      <trkpt lat="45.94662" lon="4.84514">
        <ele>268</ele>
        <time>2018-10-31T11:31:19Z</time>
      </trkpt>
      <trkpt lat="45.94661" lon="4.84507">
        <ele>268</ele>
        <time>2018-10-31T11:31:20Z</time>
      </trkpt>
      <trkpt lat="45.94661" lon="4.845">
        <ele>268</ele>
        <time>2018-10-31T11:31:21Z</time>
      </trkpt>
      <trkpt lat="45.9466" lon="4.84492">
        <ele>268</ele>
        <time>2018-10-31T11:31:22Z</time>
      </trkpt>
      <trkpt lat="45.9466" lon="4.84485">
        <ele>268</ele>
        <time>2018-10-31T11:31:23Z</time>
      </trkpt>
      <trkpt lat="45.94659" lon="4.84477">
        <ele>268</ele>
        <time>2018-10-31T11:31:24Z</time>
      </trkpt>
      <trkpt lat="45.94658" lon="4.84469">
        <ele>268</ele>
        <time>2018-10-31T11:31:25Z</time>
      </trkpt>
      <trkpt lat="45.94657" lon="4.84462">
        <ele>268</ele>
        <time>2018-10-31T11:31:26Z</time>
      </trkpt>
      <trkpt lat="45.94656" lon="4.84455">
        <ele>268</ele>
        <time>2018-10-31T11:31:27Z</time>
      </trkpt>
      <trkpt lat="45.94656" lon="4.84446">
        <ele>268</ele>
        <time>2018-10-31T11:31:28Z</time>
      </trkpt>
      <trkpt lat="45.94655" lon="4.84441">
        <ele>268</ele>
        <time>2018-10-31T11:31:29Z</time>
      </trkpt>
      <trkpt lat="45.94654" lon="4.84433">
        <ele>268</ele>
        <time>2018-10-31T11:31:30Z</time>
      </trkpt>
      <trkpt lat="45.94653" lon="4.84426">
        <ele>268</ele>
        <time>2018-10-31T11:31:31Z</time>
      </trkpt>
      <trkpt lat="45.94651" lon="4.84419">
        <ele>268</ele>
        <time>2018-10-31T11:31:32Z</time>
      </trkpt>
      <trkpt lat="45.9465" lon="4.8441">
        <ele>268</ele>
        <time>2018-10-31T11:31:33Z</time>
      </trkpt>
      <trkpt lat="45.9465" lon="4.84403">
        <ele>268</ele>
        <time>2018-10-31T11:31:34Z</time>
      </trkpt>
      <trkpt lat="45.94649" lon="4.84396">
        <ele>268</ele>
        <time>2018-10-31T11:31:35Z</time>
      </trkpt>
      <trkpt lat="45.94648" lon="4.84387">
        <ele>268</ele>
        <time>2018-10-31T11:31:36Z</time>
      </trkpt>
      <trkpt lat="45.94648" lon="4.84379">
        <ele>268</ele>
        <time>2018-10-31T11:31:37Z</time>
      </trkpt>
      <trkpt lat="45.94647" lon="4.84372">
        <ele>268</ele>
        <time>2018-10-31T11:31:38Z</time>
      </trkpt>
      <trkpt lat="45.94646" lon="4.84364">
        <ele>268</ele>
        <time>2018-10-31T11:31:39Z</time>
      </trkpt>
      <trkpt lat="45.94645" lon="4.84356">
        <ele>268</ele>
        <time>2018-10-31T11:31:40Z</time>
      </trkpt>
      <trkpt lat="45.94644" lon="4.84348">
        <ele>268</ele>
        <time>2018-10-31T11:31:41Z</time>
      </trkpt>
      <trkpt lat="45.94643" lon="4.84339">
        <ele>268</ele>
        <time>2018-10-31T11:31:42Z</time>
      </trkpt>
      <trkpt lat="45.94642" lon="4.84331">
        <ele>268</ele>
        <time>2018-10-31T11:31:43Z</time>
      </trkpt>
      <trkpt lat="45.94642" lon="4.84323">
        <ele>268</ele>
        <time>2018-10-31T11:31:44Z</time>
      </trkpt>
      <trkpt lat="45.94641" lon="4.84315">
        <ele>269</ele>
        <time>2018-10-31T11:31:45Z</time>
      </trkpt>
      <trkpt lat="45.9464" lon="4.84306">
        <ele>269</ele>
        <time>2018-10-31T11:31:46Z</time>
      </trkpt>
      <trkpt lat="45.94638" lon="4.84298">
        <ele>269</ele>
        <time>2018-10-31T11:31:47Z</time>
      </trkpt>
      <trkpt lat="45.94637" lon="4.8429">
        <ele>269</ele>
        <time>2018-10-31T11:31:48Z</time>
      </trkpt>
      <trkpt lat="45.94636" lon="4.84283">
        <ele>269</ele>
        <time>2018-10-31T11:31:49Z</time>
      </trkpt>
      <trkpt lat="45.94635" lon="4.84275">
        <ele>269</ele>
        <time>2018-10-31T11:31:50Z</time>
      </trkpt>
      <trkpt lat="45.94633" lon="4.84267">
        <ele>269</ele>
        <time>2018-10-31T11:31:51Z</time>
      </trkpt>
      <trkpt lat="45.94633" lon="4.8426">
        <ele>269</ele>
        <time>2018-10-31T11:31:52Z</time>
      </trkpt>
      <trkpt lat="45.94631" lon="4.84253">
        <ele>269</ele>
        <time>2018-10-31T11:31:53Z</time>
      </trkpt>
      <trkpt lat="45.9463" lon="4.84245">
        <ele>269</ele>
        <time>2018-10-31T11:31:54Z</time>
      </trkpt>
      <trkpt lat="45.9463" lon="4.84237">
        <ele>269</ele>
        <time>2018-10-31T11:31:55Z</time>
      </trkpt>
      <trkpt lat="45.94629" lon="4.8423">
        <ele>269</ele>
        <time>2018-10-31T11:31:56Z</time>
      </trkpt>
      <trkpt lat="45.94628" lon="4.84224">
        <ele>269</ele>
        <time>2018-10-31T11:31:57Z</time>
      </trkpt>
      <trkpt lat="45.94628" lon="4.84217">
        <ele>269</ele>
        <time>2018-10-31T11:31:58Z</time>
      </trkpt>
      <trkpt lat="45.94627" lon="4.8421">
        <ele>269</ele>
        <time>2018-10-31T11:31:59Z</time>
      </trkpt>
      <trkpt lat="45.94627" lon="4.84203">
        <ele>269</ele>
        <time>2018-10-31T11:32:00Z</time>
      </trkpt>
      <trkpt lat="45.94625" lon="4.84195">
        <ele>269</ele>
        <time>2018-10-31T11:32:01Z</time>
      </trkpt>
      <trkpt lat="45.94624" lon="4.84187">
        <ele>269</ele>
        <time>2018-10-31T11:32:02Z</time>
      </trkpt>
      <trkpt lat="45.94622" lon="4.8418">
        <ele>269</ele>
        <time>2018-10-31T11:32:03Z</time>
      </trkpt>
      <trkpt lat="45.9462" lon="4.84172">
        <ele>269</ele>
        <time>2018-10-31T11:32:04Z</time>
      </trkpt>
      <trkpt lat="45.94618" lon="4.84163">
        <ele>269</ele>
        <time>2018-10-31T11:32:05Z</time>
      </trkpt>
      <trkpt lat="45.94617" lon="4.84155">
        <ele>269</ele>
        <time>2018-10-31T11:32:06Z</time>
      </trkpt>
      <trkpt lat="45.94616" lon="4.84146">
        <ele>269</ele>
        <time>2018-10-31T11:32:07Z</time>
      </trkpt>
      <trkpt lat="45.94613" lon="4.84138">
        <ele>269</ele>
        <time>2018-10-31T11:32:08Z</time>
      </trkpt>
      <trkpt lat="45.94612" lon="4.8413">
        <ele>269</ele>
        <time>2018-10-31T11:32:09Z</time>
      </trkpt>
      <trkpt lat="45.94611" lon="4.84122">
        <ele>269</ele>
        <time>2018-10-31T11:32:10Z</time>
      </trkpt>
      <trkpt lat="45.9461" lon="4.84114">
        <ele>269</ele>
        <time>2018-10-31T11:32:11Z</time>
      </trkpt>
      <trkpt lat="45.94609" lon="4.84107">
        <ele>269</ele>
        <time>2018-10-31T11:32:12Z</time>
      </trkpt>
      <trkpt lat="45.94608" lon="4.84099">
        <ele>269</ele>
        <time>2018-10-31T11:32:13Z</time>
      </trkpt>
      <trkpt lat="45.94607" lon="4.84092">
        <ele>269</ele>
        <time>2018-10-31T11:32:14Z</time>
      </trkpt>
      <trkpt lat="45.94606" lon="4.84084">
        <ele>269</ele>
        <time>2018-10-31T11:32:15Z</time>
      </trkpt>
      <trkpt lat="45.94605" lon="4.84076">
        <ele>269</ele>
        <time>2018-10-31T11:32:16Z</time>
      </trkpt>
      <trkpt lat="45.94604" lon="4.84068">
        <ele>269</ele>
        <time>2018-10-31T11:32:17Z</time>
      </trkpt>
      <trkpt lat="45.94603" lon="4.84061">
        <ele>269</ele>
        <time>2018-10-31T11:32:18Z</time>
      </trkpt>
      <trkpt lat="45.94602" lon="4.84053">
        <ele>269</ele>
        <time>2018-10-31T11:32:19Z</time>
      </trkpt>
      <trkpt lat="45.94599" lon="4.84045">
        <ele>269</ele>
        <time>2018-10-31T11:32:20Z</time>
      </trkpt>
      <trkpt lat="45.94598" lon="4.84037">
        <ele>269</ele>
        <time>2018-10-31T11:32:21Z</time>
      </trkpt>
      <trkpt lat="45.94596" lon="4.84029">
        <ele>269</ele>
        <time>2018-10-31T11:32:22Z</time>
      </trkpt>
      <trkpt lat="45.94595" lon="4.84022">
        <ele>269</ele>
        <time>2018-10-31T11:32:23Z</time>
      </trkpt>
      <trkpt lat="45.94594" lon="4.84014">
        <ele>269</ele>
        <time>2018-10-31T11:32:24Z</time>
      </trkpt>
      <trkpt lat="45.94592" lon="4.84006">
        <ele>269</ele>
        <time>2018-10-31T11:32:25Z</time>
      </trkpt>
      <trkpt lat="45.94591" lon="4.83998">
        <ele>269</ele>
        <time>2018-10-31T11:32:26Z</time>
      </trkpt>
      <trkpt lat="45.9459" lon="4.8399">
        <ele>269</ele>
        <time>2018-10-31T11:32:27Z</time>
      </trkpt>
      <trkpt lat="45.94589" lon="4.83982">
        <ele>268</ele>
        <time>2018-10-31T11:32:28Z</time>
      </trkpt>
      <trkpt lat="45.94587" lon="4.83975">
        <ele>268</ele>
        <time>2018-10-31T11:32:29Z</time>
      </trkpt>
      <trkpt lat="45.94586" lon="4.83967">
        <ele>268</ele>
        <time>2018-10-31T11:32:30Z</time>
      </trkpt>
      <trkpt lat="45.94585" lon="4.83959">
        <ele>268</ele>
        <time>2018-10-31T11:32:31Z</time>
      </trkpt>
      <trkpt lat="45.94583" lon="4.83951">
        <ele>268</ele>
        <time>2018-10-31T11:32:32Z</time>
      </trkpt>
      <trkpt lat="45.94582" lon="4.83944">
        <ele>269</ele>
        <time>2018-10-31T11:32:33Z</time>
      </trkpt>
      <trkpt lat="45.94581" lon="4.83935">
        <ele>269</ele>
        <time>2018-10-31T11:32:34Z</time>
      </trkpt>
      <trkpt lat="45.9458" lon="4.83927">
        <ele>268</ele>
        <time>2018-10-31T11:32:35Z</time>
      </trkpt>
      <trkpt lat="45.94578" lon="4.83918">
        <ele>268</ele>
        <time>2018-10-31T11:32:36Z</time>
      </trkpt>
      <trkpt lat="45.94577" lon="4.8391">
        <ele>268</ele>
        <time>2018-10-31T11:32:37Z</time>
      </trkpt>
      <trkpt lat="45.94576" lon="4.83901">
        <ele>268</ele>
        <time>2018-10-31T11:32:38Z</time>
      </trkpt>
      <trkpt lat="45.94575" lon="4.83893">
        <ele>267</ele>
        <time>2018-10-31T11:32:39Z</time>
      </trkpt>
      <trkpt lat="45.94573" lon="4.83882">
        <ele>267</ele>
        <time>2018-10-31T11:32:40Z</time>
      </trkpt>
      <trkpt lat="45.94572" lon="4.83873">
        <ele>267</ele>
        <time>2018-10-31T11:32:41Z</time>
      </trkpt>
      <trkpt lat="45.94571" lon="4.83863">
        <ele>267</ele>
        <time>2018-10-31T11:32:42Z</time>
      </trkpt>
      <trkpt lat="45.9457" lon="4.83853">
        <ele>266</ele>
        <time>2018-10-31T11:32:43Z</time>
      </trkpt>
      <trkpt lat="45.94568" lon="4.83843">
        <ele>266</ele>
        <time>2018-10-31T11:32:44Z</time>
      </trkpt>
      <trkpt lat="45.94566" lon="4.83834">
        <ele>266</ele>
        <time>2018-10-31T11:32:45Z</time>
      </trkpt>
      <trkpt lat="45.94565" lon="4.83824">
        <ele>264</ele>
        <time>2018-10-31T11:32:46Z</time>
      </trkpt>
      <trkpt lat="45.94563" lon="4.83813">
        <ele>264</ele>
        <time>2018-10-31T11:32:47Z</time>
      </trkpt>
      <trkpt lat="45.94562" lon="4.83803">
        <ele>264</ele>
        <time>2018-10-31T11:32:48Z</time>
      </trkpt>
      <trkpt lat="45.9456" lon="4.83793">
        <ele>264</ele>
        <time>2018-10-31T11:32:49Z</time>
      </trkpt>
      <trkpt lat="45.94559" lon="4.83784">
        <ele>264</ele>
        <time>2018-10-31T11:32:50Z</time>
      </trkpt>
      <trkpt lat="45.94557" lon="4.83774">
        <ele>264</ele>
        <time>2018-10-31T11:32:51Z</time>
      </trkpt>
      <trkpt lat="45.94555" lon="4.83764">
        <ele>263</ele>
        <time>2018-10-31T11:32:52Z</time>
      </trkpt>
      <trkpt lat="45.94554" lon="4.83754">
        <ele>263</ele>
        <time>2018-10-31T11:32:53Z</time>
      </trkpt>
      <trkpt lat="45.94553" lon="4.83745">
        <ele>262</ele>
        <time>2018-10-31T11:32:54Z</time>
      </trkpt>
      <trkpt lat="45.94552" lon="4.83737">
        <ele>262</ele>
        <time>2018-10-31T11:32:55Z</time>
      </trkpt>
      <trkpt lat="45.94551" lon="4.83729">
        <ele>262</ele>
        <time>2018-10-31T11:32:56Z</time>
      </trkpt>
      <trkpt lat="45.9455" lon="4.8372">
        <ele>262</ele>
        <time>2018-10-31T11:32:57Z</time>
      </trkpt>
      <trkpt lat="45.94548" lon="4.83711">
        <ele>262</ele>
        <time>2018-10-31T11:32:58Z</time>
      </trkpt>
      <trkpt lat="45.94547" lon="4.83703">
        <ele>262</ele>
        <time>2018-10-31T11:32:59Z</time>
      </trkpt>
      <trkpt lat="45.94545" lon="4.83695">
        <ele>262</ele>
        <time>2018-10-31T11:33:00Z</time>
      </trkpt>
      <trkpt lat="45.94544" lon="4.83686">
        <ele>262</ele>
        <time>2018-10-31T11:33:01Z</time>
      </trkpt>
      <trkpt lat="45.94542" lon="4.83677">
        <ele>262</ele>
        <time>2018-10-31T11:33:02Z</time>
      </trkpt>
      <trkpt lat="45.94541" lon="4.83669">
        <ele>262</ele>
        <time>2018-10-31T11:33:03Z</time>
      </trkpt>
      <trkpt lat="45.94539" lon="4.83661">
        <ele>261</ele>
        <time>2018-10-31T11:33:04Z</time>
      </trkpt>
      <trkpt lat="45.94538" lon="4.83652">
        <ele>261</ele>
        <time>2018-10-31T11:33:05Z</time>
      </trkpt>
      <trkpt lat="45.94537" lon="4.83644">
        <ele>261</ele>
        <time>2018-10-31T11:33:06Z</time>
      </trkpt>
      <trkpt lat="45.94536" lon="4.83637">
        <ele>261</ele>
        <time>2018-10-31T11:33:07Z</time>
      </trkpt>
      <trkpt lat="45.94534" lon="4.83629">
        <ele>261</ele>
        <time>2018-10-31T11:33:08Z</time>
      </trkpt>
      <trkpt lat="45.94533" lon="4.83622">
        <ele>261</ele>
        <time>2018-10-31T11:33:09Z</time>
      </trkpt>
      <trkpt lat="45.94532" lon="4.83615">
        <ele>261</ele>
        <time>2018-10-31T11:33:10Z</time>
      </trkpt>
      <trkpt lat="45.94531" lon="4.83607">
        <ele>261</ele>
        <time>2018-10-31T11:33:11Z</time>
      </trkpt>
      <trkpt lat="45.9453" lon="4.836">
        <ele>261</ele>
        <time>2018-10-31T11:33:12Z</time>
      </trkpt>
      <trkpt lat="45.94528" lon="4.83594">
        <ele>261</ele>
        <time>2018-10-31T11:33:13Z</time>
      </trkpt>
      <trkpt lat="45.94527" lon="4.83587">
        <ele>261</ele>
        <time>2018-10-31T11:33:14Z</time>
      </trkpt>
      <trkpt lat="45.94525" lon="4.8358">
        <ele>261</ele>
        <time>2018-10-31T11:33:15Z</time>
      </trkpt>
      <trkpt lat="45.94522" lon="4.83573">
        <ele>261</ele>
        <time>2018-10-31T11:33:16Z</time>
      </trkpt>
      <trkpt lat="45.9452" lon="4.83566">
        <ele>261</ele>
        <time>2018-10-31T11:33:17Z</time>
      </trkpt>
      <trkpt lat="45.94516" lon="4.8356">
        <ele>261</ele>
        <time>2018-10-31T11:33:18Z</time>
      </trkpt>
      <trkpt lat="45.94513" lon="4.83553">
        <ele>261</ele>
        <time>2018-10-31T11:33:19Z</time>
      </trkpt>
      <trkpt lat="45.94509" lon="4.83548">
        <ele>261</ele>
        <time>2018-10-31T11:33:20Z</time>
      </trkpt>
      <trkpt lat="45.94506" lon="4.83543">
        <ele>262</ele>
        <time>2018-10-31T11:33:21Z</time>
      </trkpt>
      <trkpt lat="45.94503" lon="4.83537">
        <ele>262</ele>
        <time>2018-10-31T11:33:22Z</time>
      </trkpt>
      <trkpt lat="45.945" lon="4.83531">
        <ele>262</ele>
        <time>2018-10-31T11:33:23Z</time>
      </trkpt>
      <trkpt lat="45.94496" lon="4.83525">
        <ele>262</ele>
        <time>2018-10-31T11:33:24Z</time>
      </trkpt>
      <trkpt lat="45.94493" lon="4.83519">
        <ele>262</ele>
        <time>2018-10-31T11:33:25Z</time>
      </trkpt>
      <trkpt lat="45.9449" lon="4.83514">
        <ele>262</ele>
        <time>2018-10-31T11:33:26Z</time>
      </trkpt>
      <trkpt lat="45.94486" lon="4.83508">
        <ele>262</ele>
        <time>2018-10-31T11:33:27Z</time>
      </trkpt>
      <trkpt lat="45.94483" lon="4.83503">
        <ele>262</ele>
        <time>2018-10-31T11:33:28Z</time>
      </trkpt>
      <trkpt lat="45.9448" lon="4.83497">
        <ele>263</ele>
        <time>2018-10-31T11:33:29Z</time>
      </trkpt>
      <trkpt lat="45.94477" lon="4.83493">
        <ele>263</ele>
        <time>2018-10-31T11:33:30Z</time>
      </trkpt>
      <trkpt lat="45.94473" lon="4.83486">
        <ele>263</ele>
        <time>2018-10-31T11:33:31Z</time>
      </trkpt>
      <trkpt lat="45.9447" lon="4.83481">
        <ele>263</ele>
        <time>2018-10-31T11:33:32Z</time>
      </trkpt>
      <trkpt lat="45.94467" lon="4.83476">
        <ele>263</ele>
        <time>2018-10-31T11:33:33Z</time>
      </trkpt>
      <trkpt lat="45.94463" lon="4.8347">
        <ele>263</ele>
        <time>2018-10-31T11:33:34Z</time>
      </trkpt>
      <trkpt lat="45.94461" lon="4.83465">
        <ele>263</ele>
        <time>2018-10-31T11:33:35Z</time>
      </trkpt>
      <trkpt lat="45.94459" lon="4.83459">
        <ele>263</ele>
        <time>2018-10-31T11:33:36Z</time>
      </trkpt>
      <trkpt lat="45.94456" lon="4.83453">
        <ele>263</ele>
        <time>2018-10-31T11:33:37Z</time>
      </trkpt>
      <trkpt lat="45.94453" lon="4.83447">
        <ele>263</ele>
        <time>2018-10-31T11:33:38Z</time>
      </trkpt>
      <trkpt lat="45.9445" lon="4.83442">
        <ele>263</ele>
        <time>2018-10-31T11:33:39Z</time>
      </trkpt>
      <trkpt lat="45.94446" lon="4.83432">
        <ele>263</ele>
        <time>2018-10-31T11:33:41Z</time>
      </trkpt>
      <trkpt lat="45.94443" lon="4.83426">
        <ele>264</ele>
        <time>2018-10-31T11:33:42Z</time>
      </trkpt>
      <trkpt lat="45.94441" lon="4.8342">
        <ele>264</ele>
        <time>2018-10-31T11:33:43Z</time>
      </trkpt>
      <trkpt lat="45.94438" lon="4.83414">
        <ele>264</ele>
        <time>2018-10-31T11:33:44Z</time>
      </trkpt>
      <trkpt lat="45.94435" lon="4.83409">
        <ele>264</ele>
        <time>2018-10-31T11:33:45Z</time>
      </trkpt>
      <trkpt lat="45.94432" lon="4.83403">
        <ele>264</ele>
        <time>2018-10-31T11:33:46Z</time>
      </trkpt>
      <trkpt lat="45.94429" lon="4.83398">
        <ele>264</ele>
        <time>2018-10-31T11:33:47Z</time>
      </trkpt>
      <trkpt lat="45.94426" lon="4.83392">
        <ele>264</ele>
        <time>2018-10-31T11:33:48Z</time>
      </trkpt>
      <trkpt lat="45.94423" lon="4.83386">
        <ele>264</ele>
        <time>2018-10-31T11:33:49Z</time>
      </trkpt>
      <trkpt lat="45.94419" lon="4.8338">
        <ele>264</ele>
        <time>2018-10-31T11:33:50Z</time>
      </trkpt>
      <trkpt lat="45.94417" lon="4.83375">
        <ele>264</ele>
        <time>2018-10-31T11:33:51Z</time>
      </trkpt>
      <trkpt lat="45.94414" lon="4.83368">
        <ele>264</ele>
        <time>2018-10-31T11:33:52Z</time>
      </trkpt>
      <trkpt lat="45.94412" lon="4.83362">
        <ele>264</ele>
        <time>2018-10-31T11:33:53Z</time>
      </trkpt>
      <trkpt lat="45.94409" lon="4.83357">
        <ele>263</ele>
        <time>2018-10-31T11:33:54Z</time>
      </trkpt>
      <trkpt lat="45.94407" lon="4.8335">
        <ele>263</ele>
        <time>2018-10-31T11:33:55Z</time>
      </trkpt>
      <trkpt lat="45.94404" lon="4.83345">
        <ele>263</ele>
        <time>2018-10-31T11:33:56Z</time>
      </trkpt>
      <trkpt lat="45.94401" lon="4.83339">
        <ele>263</ele>
        <time>2018-10-31T11:33:57Z</time>
      </trkpt>
      <trkpt lat="45.94399" lon="4.83333">
        <ele>264</ele>
        <time>2018-10-31T11:33:58Z</time>
      </trkpt>
      <trkpt lat="45.94396" lon="4.83326">
        <ele>264</ele>
        <time>2018-10-31T11:33:59Z</time>
      </trkpt>
      <trkpt lat="45.94394" lon="4.8332">
        <ele>264</ele>
        <time>2018-10-31T11:34:00Z</time>
      </trkpt>
      <trkpt lat="45.94392" lon="4.83314">
        <ele>264</ele>
        <time>2018-10-31T11:34:01Z</time>
      </trkpt>
      <trkpt lat="45.9439" lon="4.83308">
        <ele>264</ele>
        <time>2018-10-31T11:34:02Z</time>
      </trkpt>
      <trkpt lat="45.94386" lon="4.83297">
        <ele>264</ele>
        <time>2018-10-31T11:34:04Z</time>
      </trkpt>
      <trkpt lat="45.94384" lon="4.83292">
        <ele>264</ele>
        <time>2018-10-31T11:34:05Z</time>
      </trkpt>
      <trkpt lat="45.94382" lon="4.83286">
        <ele>264</ele>
        <time>2018-10-31T11:34:06Z</time>
      </trkpt>
      <trkpt lat="45.9438" lon="4.8328">
        <ele>264</ele>
        <time>2018-10-31T11:34:07Z</time>
      </trkpt>
      <trkpt lat="45.94376" lon="4.83269">
        <ele>264</ele>
        <time>2018-10-31T11:34:09Z</time>
      </trkpt>
      <trkpt lat="45.94373" lon="4.83263">
        <ele>264</ele>
        <time>2018-10-31T11:34:10Z</time>
      </trkpt>
      <trkpt lat="45.9437" lon="4.83252">
        <ele>265</ele>
        <time>2018-10-31T11:34:12Z</time>
      </trkpt>
      <trkpt lat="45.94367" lon="4.83247">
        <ele>265</ele>
        <time>2018-10-31T11:34:13Z</time>
      </trkpt>
      <trkpt lat="45.94365" lon="4.83241">
        <ele>265</ele>
        <time>2018-10-31T11:34:14Z</time>
      </trkpt>
      <trkpt lat="45.94363" lon="4.83235">
        <ele>265</ele>
        <time>2018-10-31T11:34:15Z</time>
      </trkpt>
      <trkpt lat="45.9436" lon="4.83229">
        <ele>266</ele>
        <time>2018-10-31T11:34:16Z</time>
      </trkpt>
      <trkpt lat="45.94359" lon="4.83223">
        <ele>266</ele>
        <time>2018-10-31T11:34:17Z</time>
      </trkpt>
      <trkpt lat="45.94357" lon="4.83215">
        <ele>266</ele>
        <time>2018-10-31T11:34:18Z</time>
      </trkpt>
      <trkpt lat="45.94355" lon="4.8321">
        <ele>266</ele>
        <time>2018-10-31T11:34:19Z</time>
      </trkpt>
      <trkpt lat="45.94353" lon="4.83203">
        <ele>266</ele>
        <time>2018-10-31T11:34:20Z</time>
      </trkpt>
      <trkpt lat="45.9435" lon="4.83196">
        <ele>266</ele>
        <time>2018-10-31T11:34:21Z</time>
      </trkpt>
      <trkpt lat="45.94347" lon="4.8319">
        <ele>266</ele>
        <time>2018-10-31T11:34:22Z</time>
      </trkpt>
      <trkpt lat="45.94345" lon="4.83183">
        <ele>266</ele>
        <time>2018-10-31T11:34:23Z</time>
      </trkpt>
      <trkpt lat="45.94343" lon="4.83176">
        <ele>266</ele>
        <time>2018-10-31T11:34:24Z</time>
      </trkpt>
      <trkpt lat="45.94341" lon="4.83171">
        <ele>266</ele>
        <time>2018-10-31T11:34:25Z</time>
      </trkpt>
      <trkpt lat="45.94338" lon="4.83165">
        <ele>266</ele>
        <time>2018-10-31T11:34:26Z</time>
      </trkpt>
      <trkpt lat="45.94336" lon="4.83159">
        <ele>266</ele>
        <time>2018-10-31T11:34:27Z</time>
      </trkpt>
      <trkpt lat="45.94334" lon="4.83153">
        <ele>266</ele>
        <time>2018-10-31T11:34:28Z</time>
      </trkpt>
      <trkpt lat="45.94332" lon="4.83146">
        <ele>266</ele>
        <time>2018-10-31T11:34:29Z</time>
      </trkpt>
      <trkpt lat="45.94328" lon="4.83136">
        <ele>266</ele>
        <time>2018-10-31T11:34:31Z</time>
      </trkpt>
      <trkpt lat="45.94327" lon="4.8313">
        <ele>266</ele>
        <time>2018-10-31T11:34:32Z</time>
      </trkpt>
      <trkpt lat="45.94324" lon="4.83118">
        <ele>266</ele>
        <time>2018-10-31T11:34:34Z</time>
      </trkpt>
      <trkpt lat="45.94321" lon="4.83112">
        <ele>266</ele>
        <time>2018-10-31T11:34:35Z</time>
      </trkpt>
      <trkpt lat="45.94319" lon="4.83106">
        <ele>266</ele>
        <time>2018-10-31T11:34:36Z</time>
      </trkpt>
      <trkpt lat="45.94317" lon="4.83099">
        <ele>266</ele>
        <time>2018-10-31T11:34:37Z</time>
      </trkpt>
      <trkpt lat="45.94314" lon="4.83092">
        <ele>266</ele>
        <time>2018-10-31T11:34:38Z</time>
      </trkpt>
      <trkpt lat="45.94312" lon="4.83085">
        <ele>266</ele>
        <time>2018-10-31T11:34:39Z</time>
      </trkpt>
      <trkpt lat="45.94311" lon="4.83079">
        <ele>266</ele>
        <time>2018-10-31T11:34:40Z</time>
      </trkpt>
      <trkpt lat="45.94309" lon="4.83072">
        <ele>266</ele>
        <time>2018-10-31T11:34:41Z</time>
      </trkpt>
      <trkpt lat="45.94307" lon="4.83065">
        <ele>266</ele>
        <time>2018-10-31T11:34:42Z</time>
      </trkpt>
      <trkpt lat="45.94305" lon="4.83058">
        <ele>266</ele>
        <time>2018-10-31T11:34:43Z</time>
      </trkpt>
      <trkpt lat="45.94303" lon="4.8305">
        <ele>266</ele>
        <time>2018-10-31T11:34:44Z</time>
      </trkpt>
      <trkpt lat="45.94302" lon="4.83043">
        <ele>266</ele>
        <time>2018-10-31T11:34:45Z</time>
      </trkpt>
      <trkpt lat="45.943" lon="4.83036">
        <ele>266</ele>
        <time>2018-10-31T11:34:46Z</time>
      </trkpt>
      <trkpt lat="45.94298" lon="4.83028">
        <ele>266</ele>
        <time>2018-10-31T11:34:47Z</time>
      </trkpt>
      <trkpt lat="45.94297" lon="4.83021">
        <ele>266</ele>
        <time>2018-10-31T11:34:48Z</time>
      </trkpt>
      <trkpt lat="45.94296" lon="4.83014">
        <ele>266</ele>
        <time>2018-10-31T11:34:49Z</time>
      </trkpt>
      <trkpt lat="45.94295" lon="4.83008">
        <ele>266</ele>
        <time>2018-10-31T11:34:50Z</time>
      </trkpt>
      <trkpt lat="45.94294" lon="4.83002">
        <ele>266</ele>
        <time>2018-10-31T11:34:51Z</time>
      </trkpt>
      <trkpt lat="45.94293" lon="4.82995">
        <ele>265</ele>
        <time>2018-10-31T11:34:52Z</time>
      </trkpt>
      <trkpt lat="45.94292" lon="4.82988">
        <ele>265</ele>
        <time>2018-10-31T11:34:53Z</time>
      </trkpt>
      <trkpt lat="45.9429" lon="4.82977">
        <ele>265</ele>
        <time>2018-10-31T11:34:55Z</time>
      </trkpt>
      <trkpt lat="45.94288" lon="4.82971">
        <ele>265</ele>
        <time>2018-10-31T11:34:56Z</time>
      </trkpt>
      <trkpt lat="45.94286" lon="4.82965">
        <ele>265</ele>
        <time>2018-10-31T11:34:57Z</time>
      </trkpt>
      <trkpt lat="45.94284" lon="4.8296">
        <ele>265</ele>
        <time>2018-10-31T11:34:58Z</time>
      </trkpt>
      <trkpt lat="45.94282" lon="4.82953">
        <ele>265</ele>
        <time>2018-10-31T11:34:59Z</time>
      </trkpt>
      <trkpt lat="45.94282" lon="4.82947">
        <ele>265</ele>
        <time>2018-10-31T11:35:00Z</time>
      </trkpt>
      <trkpt lat="45.94283" lon="4.82935">
        <ele>265</ele>
        <time>2018-10-31T11:35:02Z</time>
      </trkpt>
      <trkpt lat="45.94285" lon="4.82929">
        <ele>265</ele>
        <time>2018-10-31T11:35:03Z</time>
      </trkpt>
      <trkpt lat="45.94285" lon="4.82922">
        <ele>265</ele>
        <time>2018-10-31T11:35:04Z</time>
      </trkpt>
      <trkpt lat="45.94286" lon="4.82916">
        <ele>265</ele>
        <time>2018-10-31T11:35:05Z</time>
      </trkpt>
      <trkpt lat="45.94287" lon="4.82909">
        <ele>265</ele>
        <time>2018-10-31T11:35:06Z</time>
      </trkpt>
      <trkpt lat="45.94287" lon="4.829">
        <ele>265</ele>
        <time>2018-10-31T11:35:07Z</time>
      </trkpt>
      <trkpt lat="45.94287" lon="4.82892">
        <ele>265</ele>
        <time>2018-10-31T11:35:08Z</time>
      </trkpt>
      <trkpt lat="45.94288" lon="4.82885">
        <ele>265</ele>
        <time>2018-10-31T11:35:09Z</time>
      </trkpt>
      <trkpt lat="45.94289" lon="4.82877">
        <ele>265</ele>
        <time>2018-10-31T11:35:10Z</time>
      </trkpt>
      <trkpt lat="45.94288" lon="4.82869">
        <ele>265</ele>
        <time>2018-10-31T11:35:11Z</time>
      </trkpt>
      <trkpt lat="45.94289" lon="4.82861">
        <ele>265</ele>
        <time>2018-10-31T11:35:12Z</time>
      </trkpt>
      <trkpt lat="45.9429" lon="4.82853">
        <ele>265</ele>
        <time>2018-10-31T11:35:13Z</time>
      </trkpt>
      <trkpt lat="45.9429" lon="4.82844">
        <ele>265</ele>
        <time>2018-10-31T11:35:14Z</time>
      </trkpt>
      <trkpt lat="45.9429" lon="4.82836">
        <ele>265</ele>
        <time>2018-10-31T11:35:15Z</time>
      </trkpt>
      <trkpt lat="45.94291" lon="4.82826">
        <ele>265</ele>
        <time>2018-10-31T11:35:16Z</time>
      </trkpt>
      <trkpt lat="45.9429" lon="4.82817">
        <ele>265</ele>
        <time>2018-10-31T11:35:17Z</time>
      </trkpt>
      <trkpt lat="45.94291" lon="4.82808">
        <ele>265</ele>
        <time>2018-10-31T11:35:18Z</time>
      </trkpt>
      <trkpt lat="45.94292" lon="4.82799">
        <ele>265</ele>
        <time>2018-10-31T11:35:19Z</time>
      </trkpt>
      <trkpt lat="45.94292" lon="4.82792">
        <ele>265</ele>
        <time>2018-10-31T11:35:20Z</time>
      </trkpt>
      <trkpt lat="45.94292" lon="4.82784">
        <ele>265</ele>
        <time>2018-10-31T11:35:21Z</time>
      </trkpt>
      <trkpt lat="45.94292" lon="4.82776">
        <ele>265</ele>
        <time>2018-10-31T11:35:22Z</time>
      </trkpt>
      <trkpt lat="45.94291" lon="4.82768">
        <ele>265</ele>
        <time>2018-10-31T11:35:23Z</time>
      </trkpt>
      <trkpt lat="45.94292" lon="4.82762">
        <ele>265</ele>
        <time>2018-10-31T11:35:24Z</time>
      </trkpt>
      <trkpt lat="45.94292" lon="4.82754">
        <ele>265</ele>
        <time>2018-10-31T11:35:25Z</time>
      </trkpt>
      <trkpt lat="45.94293" lon="4.82747">
        <ele>265</ele>
        <time>2018-10-31T11:35:26Z</time>
      </trkpt>
      <trkpt lat="45.94293" lon="4.8274">
        <ele>265</ele>
        <time>2018-10-31T11:35:27Z</time>
      </trkpt>
      <trkpt lat="45.94292" lon="4.82727">
        <ele>265</ele>
        <time>2018-10-31T11:35:29Z</time>
      </trkpt>
      <trkpt lat="45.94291" lon="4.8272">
        <ele>265</ele>
        <time>2018-10-31T11:35:30Z</time>
      </trkpt>
      <trkpt lat="45.94292" lon="4.82713">
        <ele>265</ele>
        <time>2018-10-31T11:35:31Z</time>
      </trkpt>
      <trkpt lat="45.94293" lon="4.82705">
        <ele>265</ele>
        <time>2018-10-31T11:35:32Z</time>
      </trkpt>
      <trkpt lat="45.94293" lon="4.82698">
        <ele>265</ele>
        <time>2018-10-31T11:35:33Z</time>
      </trkpt>
      <trkpt lat="45.94293" lon="4.8269">
        <ele>265</ele>
        <time>2018-10-31T11:35:34Z</time>
      </trkpt>
      <trkpt lat="45.94293" lon="4.82681">
        <ele>265</ele>
        <time>2018-10-31T11:35:35Z</time>
      </trkpt>
      <trkpt lat="45.94293" lon="4.82673">
        <ele>265</ele>
        <time>2018-10-31T11:35:36Z</time>
      </trkpt>
      <trkpt lat="45.94293" lon="4.82665">
        <ele>265</ele>
        <time>2018-10-31T11:35:37Z</time>
      </trkpt>
      <trkpt lat="45.94294" lon="4.82657">
        <ele>265</ele>
        <time>2018-10-31T11:35:38Z</time>
      </trkpt>
      <trkpt lat="45.94294" lon="4.82648">
        <ele>265</ele>
        <time>2018-10-31T11:35:39Z</time>
      </trkpt>
      <trkpt lat="45.94295" lon="4.82638">
        <ele>265</ele>
        <time>2018-10-31T11:35:40Z</time>
      </trkpt>
      <trkpt lat="45.94295" lon="4.8263">
        <ele>265</ele>
        <time>2018-10-31T11:35:41Z</time>
      </trkpt>
      <trkpt lat="45.94295" lon="4.82623">
        <ele>265</ele>
        <time>2018-10-31T11:35:42Z</time>
      </trkpt>
      <trkpt lat="45.94295" lon="4.82616">
        <ele>265</ele>
        <time>2018-10-31T11:35:43Z</time>
      </trkpt>
      <trkpt lat="45.94296" lon="4.82609">
        <ele>265</ele>
        <time>2018-10-31T11:35:44Z</time>
      </trkpt>
      <trkpt lat="45.94295" lon="4.82596">
        <ele>265</ele>
        <time>2018-10-31T11:35:46Z</time>
      </trkpt>
      <trkpt lat="45.94295" lon="4.82589">
        <ele>265</ele>
        <time>2018-10-31T11:35:47Z</time>
      </trkpt>
      <trkpt lat="45.94294" lon="4.82583">
        <ele>264</ele>
        <time>2018-10-31T11:35:48Z</time>
      </trkpt>
      <trkpt lat="45.94294" lon="4.82576">
        <ele>264</ele>
        <time>2018-10-31T11:35:49Z</time>
      </trkpt>
      <trkpt lat="45.94294" lon="4.82569">
        <ele>264</ele>
        <time>2018-10-31T11:35:50Z</time>
      </trkpt>
      <trkpt lat="45.94295" lon="4.82563">
        <ele>264</ele>
        <time>2018-10-31T11:35:51Z</time>
      </trkpt>
      <trkpt lat="45.94296" lon="4.82557">
        <ele>264</ele>
        <time>2018-10-31T11:35:52Z</time>
      </trkpt>
      <trkpt lat="45.94296" lon="4.82549">
        <ele>264</ele>
        <time>2018-10-31T11:35:53Z</time>
      </trkpt>
      <trkpt lat="45.94295" lon="4.82541">
        <ele>264</ele>
        <time>2018-10-31T11:35:54Z</time>
      </trkpt>
      <trkpt lat="45.94296" lon="4.82533">
        <ele>264</ele>
        <time>2018-10-31T11:35:55Z</time>
      </trkpt>
      <trkpt lat="45.94296" lon="4.82525">
        <ele>264</ele>
        <time>2018-10-31T11:35:56Z</time>
      </trkpt>
      <trkpt lat="45.94296" lon="4.82516">
        <ele>264</ele>
        <time>2018-10-31T11:35:57Z</time>
      </trkpt>
      <trkpt lat="45.94295" lon="4.82507">
        <ele>264</ele>
        <time>2018-10-31T11:35:58Z</time>
      </trkpt>
      <trkpt lat="45.94295" lon="4.82498">
        <ele>264</ele>
        <time>2018-10-31T11:35:59Z</time>
      </trkpt>
      <trkpt lat="45.94295" lon="4.82491">
        <ele>264</ele>
        <time>2018-10-31T11:36:00Z</time>
      </trkpt>
      <trkpt lat="45.94295" lon="4.82481">
        <ele>264</ele>
        <time>2018-10-31T11:36:01Z</time>
      </trkpt>
      <trkpt lat="45.94295" lon="4.82471">
        <ele>264</ele>
        <time>2018-10-31T11:36:02Z</time>
      </trkpt>
      <trkpt lat="45.94295" lon="4.82462">
        <ele>264</ele>
        <time>2018-10-31T11:36:03Z</time>
      </trkpt>
      <trkpt lat="45.94296" lon="4.82453">
        <ele>264</ele>
        <time>2018-10-31T11:36:04Z</time>
      </trkpt>
      <trkpt lat="45.94296" lon="4.82445">
        <ele>264</ele>
        <time>2018-10-31T11:36:05Z</time>
      </trkpt>
      <trkpt lat="45.94295" lon="4.82437">
        <ele>264</ele>
        <time>2018-10-31T11:36:06Z</time>
      </trkpt>
      <trkpt lat="45.94295" lon="4.82429">
        <ele>264</ele>
        <time>2018-10-31T11:36:07Z</time>
      </trkpt>
      <trkpt lat="45.94294" lon="4.82421">
        <ele>264</ele>
        <time>2018-10-31T11:36:08Z</time>
      </trkpt>
      <trkpt lat="45.94294" lon="4.82413">
        <ele>264</ele>
        <time>2018-10-31T11:36:09Z</time>
      </trkpt>
      <trkpt lat="45.94293" lon="4.82405">
        <ele>264</ele>
        <time>2018-10-31T11:36:10Z</time>
      </trkpt>
      <trkpt lat="45.94293" lon="4.82398">
        <ele>264</ele>
        <time>2018-10-31T11:36:11Z</time>
      </trkpt>
      <trkpt lat="45.94293" lon="4.82391">
        <ele>264</ele>
        <time>2018-10-31T11:36:12Z</time>
      </trkpt>
      <trkpt lat="45.94293" lon="4.82383">
        <ele>264</ele>
        <time>2018-10-31T11:36:13Z</time>
      </trkpt>
      <trkpt lat="45.94292" lon="4.82376">
        <ele>264</ele>
        <time>2018-10-31T11:36:14Z</time>
      </trkpt>
      <trkpt lat="45.94292" lon="4.82368">
        <ele>264</ele>
        <time>2018-10-31T11:36:15Z</time>
      </trkpt>
      <trkpt lat="45.94291" lon="4.8236">
        <ele>264</ele>
        <time>2018-10-31T11:36:16Z</time>
      </trkpt>
      <trkpt lat="45.94291" lon="4.82352">
        <ele>264</ele>
        <time>2018-10-31T11:36:17Z</time>
      </trkpt>
      <trkpt lat="45.94291" lon="4.82343">
        <ele>264</ele>
        <time>2018-10-31T11:36:18Z</time>
      </trkpt>
      <trkpt lat="45.94291" lon="4.82334">
        <ele>264</ele>
        <time>2018-10-31T11:36:19Z</time>
      </trkpt>
      <trkpt lat="45.9429" lon="4.82326">
        <ele>265</ele>
        <time>2018-10-31T11:36:20Z</time>
      </trkpt>
      <trkpt lat="45.94289" lon="4.82317">
        <ele>265</ele>
        <time>2018-10-31T11:36:21Z</time>
      </trkpt>
      <trkpt lat="45.94289" lon="4.82307">
        <ele>265</ele>
        <time>2018-10-31T11:36:22Z</time>
      </trkpt>
      <trkpt lat="45.94288" lon="4.82299">
        <ele>265</ele>
        <time>2018-10-31T11:36:23Z</time>
      </trkpt>
      <trkpt lat="45.94287" lon="4.8229">
        <ele>265</ele>
        <time>2018-10-31T11:36:24Z</time>
      </trkpt>
      <trkpt lat="45.94287" lon="4.82281">
        <ele>265</ele>
        <time>2018-10-31T11:36:25Z</time>
      </trkpt>
      <trkpt lat="45.94287" lon="4.82272">
        <ele>265</ele>
        <time>2018-10-31T11:36:26Z</time>
      </trkpt>
      <trkpt lat="45.94287" lon="4.82263">
        <ele>265</ele>
        <time>2018-10-31T11:36:27Z</time>
      </trkpt>
      <trkpt lat="45.94287" lon="4.82254">
        <ele>265</ele>
        <time>2018-10-31T11:36:28Z</time>
      </trkpt>
      <trkpt lat="45.94286" lon="4.82246">
        <ele>264</ele>
        <time>2018-10-31T11:36:29Z</time>
      </trkpt>
      <trkpt lat="45.94286" lon="4.82236">
        <ele>264</ele>
        <time>2018-10-31T11:36:30Z</time>
      </trkpt>
      <trkpt lat="45.94284" lon="4.82228">
        <ele>264</ele>
        <time>2018-10-31T11:36:31Z</time>
      </trkpt>
      <trkpt lat="45.94283" lon="4.82221">
        <ele>264</ele>
        <time>2018-10-31T11:36:32Z</time>
      </trkpt>
      <trkpt lat="45.94282" lon="4.82213">
        <ele>264</ele>
        <time>2018-10-31T11:36:33Z</time>
      </trkpt>
      <trkpt lat="45.94282" lon="4.82205">
        <ele>264</ele>
        <time>2018-10-31T11:36:34Z</time>
      </trkpt>
      <trkpt lat="45.94281" lon="4.82197">
        <ele>264</ele>
        <time>2018-10-31T11:36:35Z</time>
      </trkpt>
      <trkpt lat="45.94279" lon="4.8219">
        <ele>264</ele>
        <time>2018-10-31T11:36:36Z</time>
      </trkpt>
      <trkpt lat="45.94279" lon="4.82182">
        <ele>264</ele>
        <time>2018-10-31T11:36:37Z</time>
      </trkpt>
      <trkpt lat="45.94277" lon="4.82175">
        <ele>264</ele>
        <time>2018-10-31T11:36:38Z</time>
      </trkpt>
      <trkpt lat="45.94277" lon="4.82168">
        <ele>264</ele>
        <time>2018-10-31T11:36:39Z</time>
      </trkpt>
      <trkpt lat="45.94275" lon="4.82163">
        <ele>263</ele>
        <time>2018-10-31T11:36:40Z</time>
      </trkpt>
      <trkpt lat="45.94275" lon="4.82154">
        <ele>263</ele>
        <time>2018-10-31T11:36:41Z</time>
      </trkpt>
      <trkpt lat="45.94274" lon="4.82147">
        <ele>263</ele>
        <time>2018-10-31T11:36:42Z</time>
      </trkpt>
      <trkpt lat="45.94273" lon="4.8214">
        <ele>263</ele>
        <time>2018-10-31T11:36:43Z</time>
      </trkpt>
      <trkpt lat="45.94271" lon="4.82131">
        <ele>263</ele>
        <time>2018-10-31T11:36:44Z</time>
      </trkpt>
      <trkpt lat="45.94268" lon="4.82123">
        <ele>263</ele>
        <time>2018-10-31T11:36:45Z</time>
      </trkpt>
      <trkpt lat="45.94267" lon="4.82115">
        <ele>263</ele>
        <time>2018-10-31T11:36:46Z</time>
      </trkpt>
      <trkpt lat="45.94265" lon="4.82107">
        <ele>263</ele>
        <time>2018-10-31T11:36:47Z</time>
      </trkpt>
      <trkpt lat="45.94264" lon="4.82099">
        <ele>262</ele>
        <time>2018-10-31T11:36:48Z</time>
      </trkpt>
      <trkpt lat="45.94261" lon="4.82091">
        <ele>262</ele>
        <time>2018-10-31T11:36:49Z</time>
      </trkpt>
      <trkpt lat="45.9426" lon="4.82081">
        <ele>262</ele>
        <time>2018-10-31T11:36:50Z</time>
      </trkpt>
      <trkpt lat="45.94257" lon="4.82073">
        <ele>262</ele>
        <time>2018-10-31T11:36:51Z</time>
      </trkpt>
      <trkpt lat="45.94255" lon="4.82066">
        <ele>262</ele>
        <time>2018-10-31T11:36:52Z</time>
      </trkpt>
      <trkpt lat="45.94253" lon="4.82059">
        <ele>262</ele>
        <time>2018-10-31T11:36:53Z</time>
      </trkpt>
      <trkpt lat="45.94252" lon="4.82051">
        <ele>262</ele>
        <time>2018-10-31T11:36:54Z</time>
      </trkpt>
      <trkpt lat="45.9425" lon="4.82044">
        <ele>263</ele>
        <time>2018-10-31T11:36:55Z</time>
      </trkpt>
      <trkpt lat="45.94249" lon="4.82038">
        <ele>263</ele>
        <time>2018-10-31T11:36:56Z</time>
      </trkpt>
      <trkpt lat="45.94247" lon="4.8203">
        <ele>263</ele>
        <time>2018-10-31T11:36:57Z</time>
      </trkpt>
      <trkpt lat="45.94246" lon="4.82022">
        <ele>263</ele>
        <time>2018-10-31T11:36:58Z</time>
      </trkpt>
      <trkpt lat="45.94245" lon="4.82014">
        <ele>263</ele>
        <time>2018-10-31T11:36:59Z</time>
      </trkpt>
      <trkpt lat="45.94242" lon="4.82006">
        <ele>263</ele>
        <time>2018-10-31T11:37:00Z</time>
      </trkpt>
      <trkpt lat="45.94241" lon="4.81998">
        <ele>263</ele>
        <time>2018-10-31T11:37:01Z</time>
      </trkpt>
      <trkpt lat="45.9424" lon="4.8199">
        <ele>263</ele>
        <time>2018-10-31T11:37:02Z</time>
      </trkpt>
      <trkpt lat="45.94238" lon="4.81982">
        <ele>263</ele>
        <time>2018-10-31T11:37:03Z</time>
      </trkpt>
      <trkpt lat="45.94236" lon="4.81974">
        <ele>263</ele>
        <time>2018-10-31T11:37:04Z</time>
      </trkpt>
      <trkpt lat="45.94235" lon="4.81966">
        <ele>264</ele>
        <time>2018-10-31T11:37:05Z</time>
      </trkpt>
      <trkpt lat="45.94233" lon="4.81959">
        <ele>264</ele>
        <time>2018-10-31T11:37:06Z</time>
      </trkpt>
      <trkpt lat="45.94232" lon="4.81953">
        <ele>264</ele>
        <time>2018-10-31T11:37:07Z</time>
      </trkpt>
      <trkpt lat="45.94231" lon="4.81946">
        <ele>264</ele>
        <time>2018-10-31T11:37:08Z</time>
      </trkpt>
      <trkpt lat="45.9423" lon="4.81939">
        <ele>264</ele>
        <time>2018-10-31T11:37:09Z</time>
      </trkpt>
      <trkpt lat="45.94228" lon="4.81932">
        <ele>264</ele>
        <time>2018-10-31T11:37:10Z</time>
      </trkpt>
      <trkpt lat="45.94227" lon="4.81926">
        <ele>264</ele>
        <time>2018-10-31T11:37:11Z</time>
      </trkpt>
      <trkpt lat="45.94225" lon="4.81919">
        <ele>264</ele>
        <time>2018-10-31T11:37:12Z</time>
      </trkpt>
      <trkpt lat="45.94224" lon="4.81912">
        <ele>264</ele>
        <time>2018-10-31T11:37:13Z</time>
      </trkpt>
      <trkpt lat="45.94222" lon="4.81904">
        <ele>264</ele>
        <time>2018-10-31T11:37:14Z</time>
      </trkpt>
      <trkpt lat="45.94221" lon="4.81898">
        <ele>265</ele>
        <time>2018-10-31T11:37:15Z</time>
      </trkpt>
      <trkpt lat="45.94219" lon="4.81891">
        <ele>265</ele>
        <time>2018-10-31T11:37:16Z</time>
      </trkpt>
      <trkpt lat="45.94218" lon="4.81885">
        <ele>265</ele>
        <time>2018-10-31T11:37:17Z</time>
      </trkpt>
      <trkpt lat="45.94216" lon="4.81876">
        <ele>265</ele>
        <time>2018-10-31T11:37:18Z</time>
      </trkpt>
      <trkpt lat="45.94214" lon="4.81869">
        <ele>265</ele>
        <time>2018-10-31T11:37:19Z</time>
      </trkpt>
      <trkpt lat="45.94213" lon="4.81862">
        <ele>265</ele>
        <time>2018-10-31T11:37:20Z</time>
      </trkpt>
      <trkpt lat="45.94211" lon="4.81854">
        <ele>265</ele>
        <time>2018-10-31T11:37:21Z</time>
      </trkpt>
      <trkpt lat="45.9421" lon="4.81847">
        <ele>265</ele>
        <time>2018-10-31T11:37:22Z</time>
      </trkpt>
      <trkpt lat="45.94208" lon="4.81839">
        <ele>266</ele>
        <time>2018-10-31T11:37:23Z</time>
      </trkpt>
      <trkpt lat="45.94206" lon="4.81831">
        <ele>266</ele>
        <time>2018-10-31T11:37:24Z</time>
      </trkpt>
      <trkpt lat="45.94205" lon="4.81823">
        <ele>266</ele>
        <time>2018-10-31T11:37:25Z</time>
      </trkpt>
      <trkpt lat="45.94203" lon="4.81816">
        <ele>266</ele>
        <time>2018-10-31T11:37:26Z</time>
      </trkpt>
      <trkpt lat="45.94202" lon="4.81809">
        <ele>266</ele>
        <time>2018-10-31T11:37:27Z</time>
      </trkpt>
      <trkpt lat="45.94201" lon="4.81801">
        <ele>266</ele>
        <time>2018-10-31T11:37:28Z</time>
      </trkpt>
      <trkpt lat="45.94202" lon="4.81793">
        <ele>266</ele>
        <time>2018-10-31T11:37:29Z</time>
      </trkpt>
      <trkpt lat="45.94202" lon="4.81785">
        <ele>266</ele>
        <time>2018-10-31T11:37:30Z</time>
      </trkpt>
      <trkpt lat="45.94204" lon="4.81777">
        <ele>266</ele>
        <time>2018-10-31T11:37:31Z</time>
      </trkpt>
      <trkpt lat="45.94206" lon="4.81769">
        <ele>265</ele>
        <time>2018-10-31T11:37:32Z</time>
      </trkpt>
      <trkpt lat="45.94209" lon="4.81763">
        <ele>265</ele>
        <time>2018-10-31T11:37:33Z</time>
      </trkpt>
      <trkpt lat="45.94212" lon="4.81757">
        <ele>265</ele>
        <time>2018-10-31T11:37:34Z</time>
      </trkpt>
      <trkpt lat="45.94214" lon="4.81751">
        <ele>265</ele>
        <time>2018-10-31T11:37:35Z</time>
      </trkpt>
      <trkpt lat="45.94218" lon="4.8174">
        <ele>265</ele>
        <time>2018-10-31T11:37:37Z</time>
      </trkpt>
      <trkpt lat="45.94219" lon="4.81733">
        <ele>265</ele>
        <time>2018-10-31T11:37:38Z</time>
      </trkpt>
      <trkpt lat="45.94218" lon="4.81721">
        <ele>266</ele>
        <time>2018-10-31T11:37:40Z</time>
      </trkpt>
      <trkpt lat="45.94216" lon="4.81714">
        <ele>266</ele>
        <time>2018-10-31T11:37:41Z</time>
      </trkpt>
      <trkpt lat="45.94213" lon="4.81708">
        <ele>266</ele>
        <time>2018-10-31T11:37:42Z</time>
      </trkpt>
      <trkpt lat="45.94208" lon="4.81705">
        <ele>266</ele>
        <time>2018-10-31T11:37:43Z</time>
      </trkpt>
      <trkpt lat="45.94203" lon="4.81703">
        <ele>266</ele>
        <time>2018-10-31T11:37:44Z</time>
      </trkpt>
      <trkpt lat="45.94198" lon="4.81699">
        <ele>267</ele>
        <time>2018-10-31T11:37:45Z</time>
      </trkpt>
      <trkpt lat="45.94193" lon="4.81695">
        <ele>267</ele>
        <time>2018-10-31T11:37:46Z</time>
      </trkpt>
      <trkpt lat="45.94187" lon="4.8169">
        <ele>267</ele>
        <time>2018-10-31T11:37:47Z</time>
      </trkpt>
      <trkpt lat="45.94183" lon="4.81683">
        <ele>267</ele>
        <time>2018-10-31T11:37:48Z</time>
      </trkpt>
      <trkpt lat="45.94179" lon="4.81675">
        <ele>268</ele>
        <time>2018-10-31T11:37:49Z</time>
      </trkpt>
      <trkpt lat="45.94176" lon="4.81666">
        <ele>268</ele>
        <time>2018-10-31T11:37:50Z</time>
      </trkpt>
      <trkpt lat="45.94173" lon="4.81656">
        <ele>268</ele>
        <time>2018-10-31T11:37:51Z</time>
      </trkpt>
      <trkpt lat="45.94171" lon="4.81645">
        <ele>268</ele>
        <time>2018-10-31T11:37:52Z</time>
      </trkpt>
      <trkpt lat="45.9417" lon="4.81634">
        <ele>268</ele>
        <time>2018-10-31T11:37:53Z</time>
      </trkpt>
      <trkpt lat="45.94167" lon="4.81623">
        <ele>267</ele>
        <time>2018-10-31T11:37:54Z</time>
      </trkpt>
      <trkpt lat="45.94165" lon="4.81611">
        <ele>267</ele>
        <time>2018-10-31T11:37:55Z</time>
      </trkpt>
      <trkpt lat="45.94163" lon="4.816">
        <ele>267</ele>
        <time>2018-10-31T11:37:56Z</time>
      </trkpt>
      <trkpt lat="45.94161" lon="4.81587">
        <ele>267</ele>
        <time>2018-10-31T11:37:57Z</time>
      </trkpt>
      <trkpt lat="45.94158" lon="4.81575">
        <ele>266</ele>
        <time>2018-10-31T11:37:58Z</time>
      </trkpt>
      <trkpt lat="45.94157" lon="4.81562">
        <ele>265</ele>
        <time>2018-10-31T11:37:59Z</time>
      </trkpt>
      <trkpt lat="45.94156" lon="4.81549">
        <ele>264</ele>
        <time>2018-10-31T11:38:00Z</time>
      </trkpt>
      <trkpt lat="45.94156" lon="4.81534">
        <ele>264</ele>
        <time>2018-10-31T11:38:01Z</time>
      </trkpt>
      <trkpt lat="45.94154" lon="4.81521">
        <ele>263</ele>
        <time>2018-10-31T11:38:02Z</time>
      </trkpt>
      <trkpt lat="45.94155" lon="4.81507">
        <ele>263</ele>
        <time>2018-10-31T11:38:03Z</time>
      </trkpt>
      <trkpt lat="45.94155" lon="4.81492">
        <ele>260</ele>
        <time>2018-10-31T11:38:04Z</time>
      </trkpt>
      <trkpt lat="45.94157" lon="4.81478">
        <ele>259</ele>
        <time>2018-10-31T11:38:05Z</time>
      </trkpt>
      <trkpt lat="45.94157" lon="4.81465">
        <ele>258</ele>
        <time>2018-10-31T11:38:06Z</time>
      </trkpt>
      <trkpt lat="45.94159" lon="4.8145">
        <ele>257</ele>
        <time>2018-10-31T11:38:07Z</time>
      </trkpt>
      <trkpt lat="45.94161" lon="4.81437">
        <ele>256</ele>
        <time>2018-10-31T11:38:08Z</time>
      </trkpt>
      <trkpt lat="45.94163" lon="4.81422">
        <ele>256</ele>
        <time>2018-10-31T11:38:09Z</time>
      </trkpt>
      <trkpt lat="45.94164" lon="4.81406">
        <ele>254</ele>
        <time>2018-10-31T11:38:10Z</time>
      </trkpt>
      <trkpt lat="45.94163" lon="4.81392">
        <ele>252</ele>
        <time>2018-10-31T11:38:11Z</time>
      </trkpt>
      <trkpt lat="45.94165" lon="4.81377">
        <ele>251</ele>
        <time>2018-10-31T11:38:12Z</time>
      </trkpt>
      <trkpt lat="45.94166" lon="4.81362">
        <ele>251</ele>
        <time>2018-10-31T11:38:13Z</time>
      </trkpt>
      <trkpt lat="45.94167" lon="4.81346">
        <ele>255</ele>
        <time>2018-10-31T11:38:14Z</time>
      </trkpt>
      <trkpt lat="45.94167" lon="4.81331">
        <ele>251</ele>
        <time>2018-10-31T11:38:15Z</time>
      </trkpt>
      <trkpt lat="45.94167" lon="4.81315">
        <ele>255</ele>
        <time>2018-10-31T11:38:16Z</time>
      </trkpt>
      <trkpt lat="45.94167" lon="4.81301">
        <ele>255</ele>
        <time>2018-10-31T11:38:17Z</time>
      </trkpt>
      <trkpt lat="45.94166" lon="4.81286">
        <ele>247</ele>
        <time>2018-10-31T11:38:18Z</time>
      </trkpt>
      <trkpt lat="45.94166" lon="4.81274">
        <ele>247</ele>
        <time>2018-10-31T11:38:19Z</time>
      </trkpt>
      <trkpt lat="45.94163" lon="4.81261">
        <ele>248</ele>
        <time>2018-10-31T11:38:20Z</time>
      </trkpt>
      <trkpt lat="45.94162" lon="4.81246">
        <ele>248</ele>
        <time>2018-10-31T11:38:21Z</time>
      </trkpt>
      <trkpt lat="45.94159" lon="4.8123">
        <ele>246</ele>
        <time>2018-10-31T11:38:22Z</time>
      </trkpt>
      <trkpt lat="45.94156" lon="4.81216">
        <ele>245</ele>
        <time>2018-10-31T11:38:23Z</time>
      </trkpt>
      <trkpt lat="45.94152" lon="4.812">
        <ele>244</ele>
        <time>2018-10-31T11:38:24Z</time>
      </trkpt>
      <trkpt lat="45.94148" lon="4.81184">
        <ele>244</ele>
        <time>2018-10-31T11:38:25Z</time>
      </trkpt>
      <trkpt lat="45.94144" lon="4.8117">
        <ele>244</ele>
        <time>2018-10-31T11:38:26Z</time>
      </trkpt>
      <trkpt lat="45.9414" lon="4.81154">
        <ele>244</ele>
        <time>2018-10-31T11:38:27Z</time>
      </trkpt>
      <trkpt lat="45.94134" lon="4.8114">
        <ele>244</ele>
        <time>2018-10-31T11:38:28Z</time>
      </trkpt>
      <trkpt lat="45.94127" lon="4.81126">
        <ele>243</ele>
        <time>2018-10-31T11:38:29Z</time>
      </trkpt>
      <trkpt lat="45.9412" lon="4.81114">
        <ele>243</ele>
        <time>2018-10-31T11:38:30Z</time>
      </trkpt>
      <trkpt lat="45.94112" lon="4.81102">
        <ele>242</ele>
        <time>2018-10-31T11:38:31Z</time>
      </trkpt>
      <trkpt lat="45.94105" lon="4.8109">
        <ele>241</ele>
        <time>2018-10-31T11:38:32Z</time>
      </trkpt>
      <trkpt lat="45.94098" lon="4.81076">
        <ele>242</ele>
        <time>2018-10-31T11:38:33Z</time>
      </trkpt>
      <trkpt lat="45.94092" lon="4.81063">
        <ele>242</ele>
        <time>2018-10-31T11:38:34Z</time>
      </trkpt>
      <trkpt lat="45.94087" lon="4.81049">
        <ele>243</ele>
        <time>2018-10-31T11:38:35Z</time>
      </trkpt>
      <trkpt lat="45.94083" lon="4.81035">
        <ele>234</ele>
        <time>2018-10-31T11:38:36Z</time>
      </trkpt>
      <trkpt lat="45.94079" lon="4.8102">
        <ele>235</ele>
        <time>2018-10-31T11:38:37Z</time>
      </trkpt>
      <trkpt lat="45.94076" lon="4.81005">
        <ele>237</ele>
        <time>2018-10-31T11:38:38Z</time>
      </trkpt>
      <trkpt lat="45.94072" lon="4.80989">
        <ele>235</ele>
        <time>2018-10-31T11:38:39Z</time>
      </trkpt>
      <trkpt lat="45.94071" lon="4.80973">
        <ele>233</ele>
        <time>2018-10-31T11:38:40Z</time>
      </trkpt>
      <trkpt lat="45.94069" lon="4.80957">
        <ele>232</ele>
        <time>2018-10-31T11:38:41Z</time>
      </trkpt>
      <trkpt lat="45.94067" lon="4.8094">
        <ele>233</ele>
        <time>2018-10-31T11:38:42Z</time>
      </trkpt>
      <trkpt lat="45.94065" lon="4.80924">
        <ele>234</ele>
        <time>2018-10-31T11:38:43Z</time>
      </trkpt>
      <trkpt lat="45.94062" lon="4.80907">
        <ele>232</ele>
        <time>2018-10-31T11:38:44Z</time>
      </trkpt>
      <trkpt lat="45.9406" lon="4.8089">
        <ele>231</ele>
        <time>2018-10-31T11:38:45Z</time>
      </trkpt>
      <trkpt lat="45.94058" lon="4.80873">
        <ele>231</ele>
        <time>2018-10-31T11:38:46Z</time>
      </trkpt>
      <trkpt lat="45.94056" lon="4.80855">
        <ele>231</ele>
        <time>2018-10-31T11:38:47Z</time>
      </trkpt>
      <trkpt lat="45.94053" lon="4.80838">
        <ele>231</ele>
        <time>2018-10-31T11:38:48Z</time>
      </trkpt>
      <trkpt lat="45.94052" lon="4.80821">
        <ele>230</ele>
        <time>2018-10-31T11:38:49Z</time>
      </trkpt>
      <trkpt lat="45.94049" lon="4.80805">
        <ele>229</ele>
        <time>2018-10-31T11:38:50Z</time>
      </trkpt>
      <trkpt lat="45.94047" lon="4.80787">
        <ele>229</ele>
        <time>2018-10-31T11:38:51Z</time>
      </trkpt>
      <trkpt lat="45.94045" lon="4.80771">
        <ele>228</ele>
        <time>2018-10-31T11:38:52Z</time>
      </trkpt>
      <trkpt lat="45.94044" lon="4.80754">
        <ele>228</ele>
        <time>2018-10-31T11:38:53Z</time>
      </trkpt>
      <trkpt lat="45.94042" lon="4.80737">
        <ele>227</ele>
        <time>2018-10-31T11:38:54Z</time>
      </trkpt>
      <trkpt lat="45.94041" lon="4.8072">
        <ele>227</ele>
        <time>2018-10-31T11:38:55Z</time>
      </trkpt>
      <trkpt lat="45.94038" lon="4.80704">
        <ele>226</ele>
        <time>2018-10-31T11:38:56Z</time>
      </trkpt>
      <trkpt lat="45.94036" lon="4.80687">
        <ele>226</ele>
        <time>2018-10-31T11:38:57Z</time>
      </trkpt>
      <trkpt lat="45.94033" lon="4.80671">
        <ele>225</ele>
        <time>2018-10-31T11:38:58Z</time>
      </trkpt>
      <trkpt lat="45.94031" lon="4.80654">
        <ele>225</ele>
        <time>2018-10-31T11:38:59Z</time>
      </trkpt>
      <trkpt lat="45.94029" lon="4.80637">
        <ele>225</ele>
        <time>2018-10-31T11:39:00Z</time>
      </trkpt>
      <trkpt lat="45.94027" lon="4.80622">
        <ele>225</ele>
        <time>2018-10-31T11:39:01Z</time>
      </trkpt>
      <trkpt lat="45.94025" lon="4.80605">
        <ele>224</ele>
        <time>2018-10-31T11:39:02Z</time>
      </trkpt>
      <trkpt lat="45.94023" lon="4.80588">
        <ele>223</ele>
        <time>2018-10-31T11:39:03Z</time>
      </trkpt>
      <trkpt lat="45.9402" lon="4.80571">
        <ele>223</ele>
        <time>2018-10-31T11:39:04Z</time>
      </trkpt>
      <trkpt lat="45.94021" lon="4.80555">
        <ele>224</ele>
        <time>2018-10-31T11:39:05Z</time>
      </trkpt>
      <trkpt lat="45.9402" lon="4.80539">
        <ele>225</ele>
        <time>2018-10-31T11:39:06Z</time>
      </trkpt>
      <trkpt lat="45.94019" lon="4.80521">
        <ele>224</ele>
        <time>2018-10-31T11:39:07Z</time>
      </trkpt>
      <trkpt lat="45.94019" lon="4.80504">
        <ele>223</ele>
        <time>2018-10-31T11:39:08Z</time>
      </trkpt>
      <trkpt lat="45.9402" lon="4.80488">
        <ele>223</ele>
        <time>2018-10-31T11:39:09Z</time>
      </trkpt>
      <trkpt lat="45.94021" lon="4.80471">
        <ele>223</ele>
        <time>2018-10-31T11:39:10Z</time>
      </trkpt>
      <trkpt lat="45.94021" lon="4.80455">
        <ele>223</ele>
        <time>2018-10-31T11:39:11Z</time>
      </trkpt>
      <trkpt lat="45.94019" lon="4.80439">
        <ele>222</ele>
        <time>2018-10-31T11:39:12Z</time>
      </trkpt>
      <trkpt lat="45.94017" lon="4.80424">
        <ele>221</ele>
        <time>2018-10-31T11:39:13Z</time>
      </trkpt>
      <trkpt lat="45.94014" lon="4.80407">
        <ele>218</ele>
        <time>2018-10-31T11:39:14Z</time>
      </trkpt>
      <trkpt lat="45.9401" lon="4.8039">
        <ele>217</ele>
        <time>2018-10-31T11:39:15Z</time>
      </trkpt>
      <trkpt lat="45.94006" lon="4.80376">
        <ele>216</ele>
        <time>2018-10-31T11:39:16Z</time>
      </trkpt>
      <trkpt lat="45.94001" lon="4.80361">
        <ele>214</ele>
        <time>2018-10-31T11:39:17Z</time>
      </trkpt>
      <trkpt lat="45.93997" lon="4.80347">
        <ele>206</ele>
        <time>2018-10-31T11:39:18Z</time>
      </trkpt>
      <trkpt lat="45.93992" lon="4.80331">
        <ele>205</ele>
        <time>2018-10-31T11:39:19Z</time>
      </trkpt>
      <trkpt lat="45.93987" lon="4.80315">
        <ele>204</ele>
        <time>2018-10-31T11:39:20Z</time>
      </trkpt>
      <trkpt lat="45.93983" lon="4.803">
        <ele>203</ele>
        <time>2018-10-31T11:39:21Z</time>
      </trkpt>
      <trkpt lat="45.9398" lon="4.80286">
        <ele>203</ele>
        <time>2018-10-31T11:39:22Z</time>
      </trkpt>
      <trkpt lat="45.93975" lon="4.80272">
        <ele>203</ele>
        <time>2018-10-31T11:39:23Z</time>
      </trkpt>
      <trkpt lat="45.93971" lon="4.80257">
        <ele>202</ele>
        <time>2018-10-31T11:39:24Z</time>
      </trkpt>
      <trkpt lat="45.93966" lon="4.80242">
        <ele>204</ele>
        <time>2018-10-31T11:39:25Z</time>
      </trkpt>
      <trkpt lat="45.93962" lon="4.80228">
        <ele>205</ele>
        <time>2018-10-31T11:39:26Z</time>
      </trkpt>
      <trkpt lat="45.93958" lon="4.80214">
        <ele>205</ele>
        <time>2018-10-31T11:39:27Z</time>
      </trkpt>
      <trkpt lat="45.93954" lon="4.80199">
        <ele>205</ele>
        <time>2018-10-31T11:39:28Z</time>
      </trkpt>
      <trkpt lat="45.93951" lon="4.80186">
        <ele>206</ele>
        <time>2018-10-31T11:39:29Z</time>
      </trkpt>
      <trkpt lat="45.93949" lon="4.80173">
        <ele>206</ele>
        <time>2018-10-31T11:39:30Z</time>
      </trkpt>
      <trkpt lat="45.93947" lon="4.8016">
        <ele>208</ele>
        <time>2018-10-31T11:39:31Z</time>
      </trkpt>
      <trkpt lat="45.93945" lon="4.80147">
        <ele>208</ele>
        <time>2018-10-31T11:39:32Z</time>
      </trkpt>
      <trkpt lat="45.93944" lon="4.80136">
        <ele>208</ele>
        <time>2018-10-31T11:39:33Z</time>
      </trkpt>
      <trkpt lat="45.93942" lon="4.80123">
        <ele>209</ele>
        <time>2018-10-31T11:39:34Z</time>
      </trkpt>
      <trkpt lat="45.9394" lon="4.80111">
        <ele>208</ele>
        <time>2018-10-31T11:39:35Z</time>
      </trkpt>
      <trkpt lat="45.93939" lon="4.80099">
        <ele>208</ele>
        <time>2018-10-31T11:39:36Z</time>
      </trkpt>
      <trkpt lat="45.93939" lon="4.80088">
        <ele>208</ele>
        <time>2018-10-31T11:39:37Z</time>
      </trkpt>
      <trkpt lat="45.93939" lon="4.80077">
        <ele>207</ele>
        <time>2018-10-31T11:39:38Z</time>
      </trkpt>
      <trkpt lat="45.9394" lon="4.80064">
        <ele>207</ele>
        <time>2018-10-31T11:39:39Z</time>
      </trkpt>
      <trkpt lat="45.9394" lon="4.80053">
        <ele>207</ele>
        <time>2018-10-31T11:39:40Z</time>
      </trkpt>
      <trkpt lat="45.93941" lon="4.80042">
        <ele>207</ele>
        <time>2018-10-31T11:39:41Z</time>
      </trkpt>
      <trkpt lat="45.93943" lon="4.8003">
        <ele>207</ele>
        <time>2018-10-31T11:39:42Z</time>
      </trkpt>
      <trkpt lat="45.93944" lon="4.80018">
        <ele>206</ele>
        <time>2018-10-31T11:39:43Z</time>
      </trkpt>
      <trkpt lat="45.93946" lon="4.80008">
        <ele>206</ele>
        <time>2018-10-31T11:39:44Z</time>
      </trkpt>
      <trkpt lat="45.93947" lon="4.79997">
        <ele>205</ele>
        <time>2018-10-31T11:39:45Z</time>
      </trkpt>
      <trkpt lat="45.93949" lon="4.79986">
        <ele>205</ele>
        <time>2018-10-31T11:39:46Z</time>
      </trkpt>
      <trkpt lat="45.9395" lon="4.79975">
        <ele>205</ele>
        <time>2018-10-31T11:39:47Z</time>
      </trkpt>
      <trkpt lat="45.93951" lon="4.79964">
        <ele>205</ele>
        <time>2018-10-31T11:39:48Z</time>
      </trkpt>
      <trkpt lat="45.93953" lon="4.79953">
        <ele>205</ele>
        <time>2018-10-31T11:39:49Z</time>
      </trkpt>
      <trkpt lat="45.93955" lon="4.79942">
        <ele>205</ele>
        <time>2018-10-31T11:39:50Z</time>
      </trkpt>
      <trkpt lat="45.93956" lon="4.7993">
        <ele>205</ele>
        <time>2018-10-31T11:39:51Z</time>
      </trkpt>
      <trkpt lat="45.93957" lon="4.7992">
        <ele>205</ele>
        <time>2018-10-31T11:39:52Z</time>
      </trkpt>
      <trkpt lat="45.93957" lon="4.7991">
        <ele>205</ele>
        <time>2018-10-31T11:39:53Z</time>
      </trkpt>
      <trkpt lat="45.93959" lon="4.799">
        <ele>206</ele>
        <time>2018-10-31T11:39:54Z</time>
      </trkpt>
      <trkpt lat="45.9396" lon="4.7989">
        <ele>206</ele>
        <time>2018-10-31T11:39:55Z</time>
      </trkpt>
      <trkpt lat="45.93961" lon="4.79881">
        <ele>206</ele>
        <time>2018-10-31T11:39:56Z</time>
      </trkpt>
      <trkpt lat="45.93962" lon="4.79872">
        <ele>206</ele>
        <time>2018-10-31T11:39:57Z</time>
      </trkpt>
      <trkpt lat="45.93963" lon="4.79863">
        <ele>206</ele>
        <time>2018-10-31T11:39:58Z</time>
      </trkpt>
      <trkpt lat="45.93965" lon="4.79855">
        <ele>206</ele>
        <time>2018-10-31T11:39:59Z</time>
      </trkpt>
      <trkpt lat="45.93967" lon="4.79845">
        <ele>206</ele>
        <time>2018-10-31T11:40:00Z</time>
      </trkpt>
      <trkpt lat="45.93968" lon="4.79836">
        <ele>206</ele>
        <time>2018-10-31T11:40:01Z</time>
      </trkpt>
      <trkpt lat="45.93969" lon="4.79828">
        <ele>207</ele>
        <time>2018-10-31T11:40:02Z</time>
      </trkpt>
      <trkpt lat="45.93971" lon="4.79819">
        <ele>207</ele>
        <time>2018-10-31T11:40:03Z</time>
      </trkpt>
      <trkpt lat="45.93972" lon="4.79811">
        <ele>207</ele>
        <time>2018-10-31T11:40:04Z</time>
      </trkpt>
      <trkpt lat="45.93973" lon="4.79804">
        <ele>207</ele>
        <time>2018-10-31T11:40:05Z</time>
      </trkpt>
      <trkpt lat="45.93973" lon="4.79797">
        <ele>206</ele>
        <time>2018-10-31T11:40:06Z</time>
      </trkpt>
      <trkpt lat="45.93973" lon="4.79791">
        <ele>206</ele>
        <time>2018-10-31T11:40:07Z</time>
      </trkpt>
      <trkpt lat="45.93973" lon="4.79783">
        <ele>206</ele>
        <time>2018-10-31T11:40:08Z</time>
      </trkpt>
      <trkpt lat="45.93973" lon="4.7977">
        <ele>206</ele>
        <time>2018-10-31T11:40:10Z</time>
      </trkpt>
      <trkpt lat="45.93972" lon="4.79764">
        <ele>206</ele>
        <time>2018-10-31T11:40:11Z</time>
      </trkpt>
      <trkpt lat="45.93972" lon="4.79757">
        <ele>206</ele>
        <time>2018-10-31T11:40:12Z</time>
      </trkpt>
      <trkpt lat="45.93972" lon="4.79752">
        <ele>206</ele>
        <time>2018-10-31T11:40:13Z</time>
      </trkpt>
      <trkpt lat="45.93971" lon="4.79741">
        <ele>207</ele>
        <time>2018-10-31T11:40:16Z</time>
      </trkpt>
      <trkpt lat="45.9397" lon="4.79737">
        <ele>207</ele>
        <time>2018-10-31T11:40:17Z</time>
      </trkpt>
      <trkpt lat="45.93968" lon="4.79729">
        <ele>206</ele>
        <time>2018-10-31T11:40:19Z</time>
      </trkpt>
      <trkpt lat="45.93967" lon="4.79725">
        <ele>206</ele>
        <time>2018-10-31T11:40:20Z</time>
      </trkpt>
      <trkpt lat="45.93966" lon="4.79717">
        <ele>206</ele>
        <time>2018-10-31T11:40:22Z</time>
      </trkpt>
      <trkpt lat="45.93965" lon="4.79711">
        <ele>207</ele>
        <time>2018-10-31T11:40:23Z</time>
      </trkpt>
      <trkpt lat="45.93965" lon="4.79701">
        <ele>207</ele>
        <time>2018-10-31T11:40:25Z</time>
      </trkpt>
      <trkpt lat="45.93965" lon="4.79697">
        <ele>207</ele>
        <time>2018-10-31T11:40:26Z</time>
      </trkpt>
      <trkpt lat="45.93964" lon="4.79688">
        <ele>207</ele>
        <time>2018-10-31T11:40:28Z</time>
      </trkpt>
      <trkpt lat="45.93964" lon="4.79683">
        <ele>207</ele>
        <time>2018-10-31T11:40:29Z</time>
      </trkpt>
      <trkpt lat="45.93962" lon="4.79672">
        <ele>207</ele>
        <time>2018-10-31T11:40:36Z</time>
      </trkpt>
      <trkpt lat="45.93962" lon="4.7967">
        <ele>207</ele>
        <time>2018-10-31T11:40:37Z</time>
      </trkpt>
      <trkpt lat="45.9396" lon="4.79659">
        <ele>207</ele>
        <time>2018-10-31T11:40:44Z</time>
      </trkpt>
      <trkpt lat="45.9396" lon="4.79657">
        <ele>207</ele>
        <time>2018-10-31T11:40:45Z</time>
      </trkpt>
      <trkpt lat="45.93961" lon="4.79646">
        <ele>207</ele>
        <time>2018-10-31T11:40:51Z</time>
      </trkpt>
      <trkpt lat="45.93961" lon="4.79645">
        <ele>207</ele>
        <time>2018-10-31T11:40:52Z</time>
      </trkpt>
      <trkpt lat="45.93963" lon="4.79634">
        <ele>207</ele>
        <time>2018-10-31T11:41:00Z</time>
      </trkpt>
      <trkpt lat="45.93962" lon="4.7963">
        <ele>207</ele>
        <time>2018-10-31T11:41:01Z</time>
      </trkpt>
      <trkpt lat="45.93962" lon="4.79621">
        <ele>207</ele>
        <time>2018-10-31T11:41:02Z</time>
      </trkpt>
      <trkpt lat="45.93961" lon="4.79615">
        <ele>207</ele>
        <time>2018-10-31T11:41:03Z</time>
      </trkpt>
      <trkpt lat="45.93961" lon="4.79608">
        <ele>207</ele>
        <time>2018-10-31T11:41:04Z</time>
      </trkpt>
      <trkpt lat="45.93961" lon="4.79602">
        <ele>207</ele>
        <time>2018-10-31T11:41:05Z</time>
      </trkpt>
      <trkpt lat="45.93959" lon="4.79593">
        <ele>207</ele>
        <time>2018-10-31T11:41:06Z</time>
      </trkpt>
      <trkpt lat="45.93959" lon="4.79586">
        <ele>207</ele>
        <time>2018-10-31T11:41:07Z</time>
      </trkpt>
      <trkpt lat="45.93958" lon="4.7958">
        <ele>206</ele>
        <time>2018-10-31T11:41:08Z</time>
      </trkpt>
      <trkpt lat="45.93957" lon="4.79572">
        <ele>205</ele>
        <time>2018-10-31T11:41:09Z</time>
      </trkpt>
      <trkpt lat="45.93956" lon="4.79564">
        <ele>205</ele>
        <time>2018-10-31T11:41:10Z</time>
      </trkpt>
      <trkpt lat="45.93956" lon="4.79555">
        <ele>205</ele>
        <time>2018-10-31T11:41:11Z</time>
      </trkpt>
      <trkpt lat="45.93955" lon="4.79547">
        <ele>205</ele>
        <time>2018-10-31T11:41:12Z</time>
      </trkpt>
      <trkpt lat="45.93955" lon="4.79536">
        <ele>205</ele>
        <time>2018-10-31T11:41:13Z</time>
      </trkpt>
      <trkpt lat="45.93954" lon="4.79526">
        <ele>204</ele>
        <time>2018-10-31T11:41:14Z</time>
      </trkpt>
      <trkpt lat="45.93954" lon="4.79516">
        <ele>204</ele>
        <time>2018-10-31T11:41:15Z</time>
      </trkpt>
      <trkpt lat="45.93954" lon="4.79505">
        <ele>204</ele>
        <time>2018-10-31T11:41:16Z</time>
      </trkpt>
      <trkpt lat="45.93954" lon="4.79495">
        <ele>203</ele>
        <time>2018-10-31T11:41:17Z</time>
      </trkpt>
      <trkpt lat="45.93954" lon="4.79485">
        <ele>203</ele>
        <time>2018-10-31T11:41:18Z</time>
      </trkpt>
      <trkpt lat="45.93954" lon="4.79475">
        <ele>203</ele>
        <time>2018-10-31T11:41:19Z</time>
      </trkpt>
      <trkpt lat="45.93954" lon="4.79465">
        <ele>203</ele>
        <time>2018-10-31T11:41:20Z</time>
      </trkpt>
      <trkpt lat="45.93954" lon="4.79454">
        <ele>203</ele>
        <time>2018-10-31T11:41:21Z</time>
      </trkpt>
      <trkpt lat="45.93954" lon="4.79444">
        <ele>203</ele>
        <time>2018-10-31T11:41:22Z</time>
      </trkpt>
      <trkpt lat="45.93954" lon="4.79433">
        <ele>202</ele>
        <time>2018-10-31T11:41:23Z</time>
      </trkpt>
      <trkpt lat="45.93952" lon="4.79421">
        <ele>202</ele>
        <time>2018-10-31T11:41:24Z</time>
      </trkpt>
      <trkpt lat="45.93953" lon="4.7941">
        <ele>201</ele>
        <time>2018-10-31T11:41:25Z</time>
      </trkpt>
      <trkpt lat="45.93952" lon="4.794">
        <ele>201</ele>
        <time>2018-10-31T11:41:26Z</time>
      </trkpt>
      <trkpt lat="45.93952" lon="4.79389">
        <ele>201</ele>
        <time>2018-10-31T11:41:27Z</time>
      </trkpt>
      <trkpt lat="45.93952" lon="4.79379">
        <ele>201</ele>
        <time>2018-10-31T11:41:28Z</time>
      </trkpt>
      <trkpt lat="45.93952" lon="4.79368">
        <ele>201</ele>
        <time>2018-10-31T11:41:29Z</time>
      </trkpt>
      <trkpt lat="45.93951" lon="4.79357">
        <ele>200</ele>
        <time>2018-10-31T11:41:30Z</time>
      </trkpt>
      <trkpt lat="45.93952" lon="4.79347">
        <ele>200</ele>
        <time>2018-10-31T11:41:31Z</time>
      </trkpt>
      <trkpt lat="45.93951" lon="4.79336">
        <ele>200</ele>
        <time>2018-10-31T11:41:32Z</time>
      </trkpt>
      <trkpt lat="45.93951" lon="4.79326">
        <ele>198</ele>
        <time>2018-10-31T11:41:33Z</time>
      </trkpt>
      <trkpt lat="45.93951" lon="4.79317">
        <ele>198</ele>
        <time>2018-10-31T11:41:34Z</time>
      </trkpt>
      <trkpt lat="45.93951" lon="4.79306">
        <ele>198</ele>
        <time>2018-10-31T11:41:35Z</time>
      </trkpt>
      <trkpt lat="45.9395" lon="4.79296">
        <ele>198</ele>
        <time>2018-10-31T11:41:36Z</time>
      </trkpt>
      <trkpt lat="45.9395" lon="4.79286">
        <ele>198</ele>
        <time>2018-10-31T11:41:37Z</time>
      </trkpt>
      <trkpt lat="45.93951" lon="4.79278">
        <ele>198</ele>
        <time>2018-10-31T11:41:38Z</time>
      </trkpt>
      <trkpt lat="45.9395" lon="4.79268">
        <ele>198</ele>
        <time>2018-10-31T11:41:39Z</time>
      </trkpt>
      <trkpt lat="45.9395" lon="4.79259">
        <ele>197</ele>
        <time>2018-10-31T11:41:40Z</time>
      </trkpt>
      <trkpt lat="45.9395" lon="4.79249">
        <ele>197</ele>
        <time>2018-10-31T11:41:41Z</time>
      </trkpt>
      <trkpt lat="45.9395" lon="4.79239">
        <ele>197</ele>
        <time>2018-10-31T11:41:42Z</time>
      </trkpt>
      <trkpt lat="45.9395" lon="4.7923">
        <ele>197</ele>
        <time>2018-10-31T11:41:43Z</time>
      </trkpt>
      <trkpt lat="45.9395" lon="4.7922">
        <ele>197</ele>
        <time>2018-10-31T11:41:44Z</time>
      </trkpt>
      <trkpt lat="45.93951" lon="4.79211">
        <ele>197</ele>
        <time>2018-10-31T11:41:45Z</time>
      </trkpt>
      <trkpt lat="45.93951" lon="4.79202">
        <ele>197</ele>
        <time>2018-10-31T11:41:46Z</time>
      </trkpt>
      <trkpt lat="45.93951" lon="4.79192">
        <ele>197</ele>
        <time>2018-10-31T11:41:47Z</time>
      </trkpt>
      <trkpt lat="45.93951" lon="4.79183">
        <ele>197</ele>
        <time>2018-10-31T11:41:48Z</time>
      </trkpt>
      <trkpt lat="45.93951" lon="4.79173">
        <ele>197</ele>
        <time>2018-10-31T11:41:49Z</time>
      </trkpt>
      <trkpt lat="45.93951" lon="4.79162">
        <ele>197</ele>
        <time>2018-10-31T11:41:50Z</time>
      </trkpt>
      <trkpt lat="45.93951" lon="4.79153">
        <ele>197</ele>
        <time>2018-10-31T11:41:51Z</time>
      </trkpt>
      <trkpt lat="45.93951" lon="4.79143">
        <ele>197</ele>
        <time>2018-10-31T11:41:52Z</time>
      </trkpt>
      <trkpt lat="45.93952" lon="4.79132">
        <ele>197</ele>
        <time>2018-10-31T11:41:53Z</time>
      </trkpt>
      <trkpt lat="45.93951" lon="4.79122">
        <ele>197</ele>
        <time>2018-10-31T11:41:54Z</time>
      </trkpt>
      <trkpt lat="45.93951" lon="4.79112">
        <ele>197</ele>
        <time>2018-10-31T11:41:55Z</time>
      </trkpt>
      <trkpt lat="45.9395" lon="4.79102">
        <ele>197</ele>
        <time>2018-10-31T11:41:56Z</time>
      </trkpt>
      <trkpt lat="45.9395" lon="4.79091">
        <ele>196</ele>
        <time>2018-10-31T11:41:57Z</time>
      </trkpt>
      <trkpt lat="45.9395" lon="4.79081">
        <ele>196</ele>
        <time>2018-10-31T11:41:58Z</time>
      </trkpt>
      <trkpt lat="45.93949" lon="4.79072">
        <ele>196</ele>
        <time>2018-10-31T11:41:59Z</time>
      </trkpt>
      <trkpt lat="45.93947" lon="4.79061">
        <ele>196</ele>
        <time>2018-10-31T11:42:00Z</time>
      </trkpt>
      <trkpt lat="45.93947" lon="4.79052">
        <ele>196</ele>
        <time>2018-10-31T11:42:01Z</time>
      </trkpt>
      <trkpt lat="45.93946" lon="4.79043">
        <ele>196</ele>
        <time>2018-10-31T11:42:02Z</time>
      </trkpt>
      <trkpt lat="45.93945" lon="4.79033">
        <ele>195</ele>
        <time>2018-10-31T11:42:03Z</time>
      </trkpt>
      <trkpt lat="45.93945" lon="4.79024">
        <ele>195</ele>
        <time>2018-10-31T11:42:04Z</time>
      </trkpt>
      <trkpt lat="45.93944" lon="4.79015">
        <ele>195</ele>
        <time>2018-10-31T11:42:05Z</time>
      </trkpt>
      <trkpt lat="45.93944" lon="4.79006">
        <ele>195</ele>
        <time>2018-10-31T11:42:06Z</time>
      </trkpt>
      <trkpt lat="45.93943" lon="4.78997">
        <ele>194</ele>
        <time>2018-10-31T11:42:07Z</time>
      </trkpt>
      <trkpt lat="45.93943" lon="4.78986">
        <ele>194</ele>
        <time>2018-10-31T11:42:08Z</time>
      </trkpt>
      <trkpt lat="45.93942" lon="4.78977">
        <ele>194</ele>
        <time>2018-10-31T11:42:09Z</time>
      </trkpt>
      <trkpt lat="45.93942" lon="4.78967">
        <ele>194</ele>
        <time>2018-10-31T11:42:10Z</time>
      </trkpt>
      <trkpt lat="45.93942" lon="4.78956">
        <ele>194</ele>
        <time>2018-10-31T11:42:11Z</time>
      </trkpt>
      <trkpt lat="45.93942" lon="4.78948">
        <ele>194</ele>
        <time>2018-10-31T11:42:12Z</time>
      </trkpt>
      <trkpt lat="45.93943" lon="4.78939">
        <ele>194</ele>
        <time>2018-10-31T11:42:13Z</time>
      </trkpt>
      <trkpt lat="45.93942" lon="4.7893">
        <ele>193</ele>
        <time>2018-10-31T11:42:14Z</time>
      </trkpt>
      <trkpt lat="45.93942" lon="4.78921">
        <ele>193</ele>
        <time>2018-10-31T11:42:15Z</time>
      </trkpt>
      <trkpt lat="45.93942" lon="4.78912">
        <ele>193</ele>
        <time>2018-10-31T11:42:16Z</time>
      </trkpt>
      <trkpt lat="45.93941" lon="4.78903">
        <ele>193</ele>
        <time>2018-10-31T11:42:17Z</time>
      </trkpt>
      <trkpt lat="45.93941" lon="4.78895">
        <ele>193</ele>
        <time>2018-10-31T11:42:18Z</time>
      </trkpt>
      <trkpt lat="45.93941" lon="4.78887">
        <ele>194</ele>
        <time>2018-10-31T11:42:19Z</time>
      </trkpt>
      <trkpt lat="45.9394" lon="4.78879">
        <ele>194</ele>
        <time>2018-10-31T11:42:20Z</time>
      </trkpt>
      <trkpt lat="45.93939" lon="4.7887">
        <ele>194</ele>
        <time>2018-10-31T11:42:21Z</time>
      </trkpt>
      <trkpt lat="45.93938" lon="4.78861">
        <ele>194</ele>
        <time>2018-10-31T11:42:22Z</time>
      </trkpt>
      <trkpt lat="45.93937" lon="4.78851">
        <ele>193</ele>
        <time>2018-10-31T11:42:23Z</time>
      </trkpt>
      <trkpt lat="45.93937" lon="4.78843">
        <ele>193</ele>
        <time>2018-10-31T11:42:24Z</time>
      </trkpt>
      <trkpt lat="45.93936" lon="4.78833">
        <ele>193</ele>
        <time>2018-10-31T11:42:25Z</time>
      </trkpt>
      <trkpt lat="45.93936" lon="4.78824">
        <ele>193</ele>
        <time>2018-10-31T11:42:26Z</time>
      </trkpt>
      <trkpt lat="45.93936" lon="4.78814">
        <ele>194</ele>
        <time>2018-10-31T11:42:27Z</time>
      </trkpt>
      <trkpt lat="45.93936" lon="4.78805">
        <ele>194</ele>
        <time>2018-10-31T11:42:28Z</time>
      </trkpt>
      <trkpt lat="45.93936" lon="4.78796">
        <ele>194</ele>
        <time>2018-10-31T11:42:29Z</time>
      </trkpt>
      <trkpt lat="45.93937" lon="4.78787">
        <ele>194</ele>
        <time>2018-10-31T11:42:30Z</time>
      </trkpt>
      <trkpt lat="45.93936" lon="4.78778">
        <ele>194</ele>
        <time>2018-10-31T11:42:31Z</time>
      </trkpt>
      <trkpt lat="45.93937" lon="4.78769">
        <ele>193</ele>
        <time>2018-10-31T11:42:32Z</time>
      </trkpt>
      <trkpt lat="45.93937" lon="4.78761">
        <ele>193</ele>
        <time>2018-10-31T11:42:33Z</time>
      </trkpt>
      <trkpt lat="45.93936" lon="4.78755">
        <ele>193</ele>
        <time>2018-10-31T11:42:34Z</time>
      </trkpt>
      <trkpt lat="45.93936" lon="4.78747">
        <ele>193</ele>
        <time>2018-10-31T11:42:35Z</time>
      </trkpt>
      <trkpt lat="45.93937" lon="4.78739">
        <ele>193</ele>
        <time>2018-10-31T11:42:36Z</time>
      </trkpt>
      <trkpt lat="45.93937" lon="4.78731">
        <ele>194</ele>
        <time>2018-10-31T11:42:37Z</time>
      </trkpt>
      <trkpt lat="45.93937" lon="4.78724">
        <ele>194</ele>
        <time>2018-10-31T11:42:38Z</time>
      </trkpt>
      <trkpt lat="45.93938" lon="4.78716">
        <ele>194</ele>
        <time>2018-10-31T11:42:39Z</time>
      </trkpt>
      <trkpt lat="45.93937" lon="4.78708">
        <ele>194</ele>
        <time>2018-10-31T11:42:40Z</time>
      </trkpt>
      <trkpt lat="45.93937" lon="4.787">
        <ele>194</ele>
        <time>2018-10-31T11:42:41Z</time>
      </trkpt>
      <trkpt lat="45.93937" lon="4.78692">
        <ele>194</ele>
        <time>2018-10-31T11:42:42Z</time>
      </trkpt>
      <trkpt lat="45.93937" lon="4.78684">
        <ele>194</ele>
        <time>2018-10-31T11:42:43Z</time>
      </trkpt>
      <trkpt lat="45.93937" lon="4.78676">
        <ele>193</ele>
        <time>2018-10-31T11:42:44Z</time>
      </trkpt>
      <trkpt lat="45.93937" lon="4.78668">
        <ele>193</ele>
        <time>2018-10-31T11:42:45Z</time>
      </trkpt>
      <trkpt lat="45.93937" lon="4.7866">
        <ele>194</ele>
        <time>2018-10-31T11:42:46Z</time>
      </trkpt>
      <trkpt lat="45.93938" lon="4.78651">
        <ele>195</ele>
        <time>2018-10-31T11:42:47Z</time>
      </trkpt>
      <trkpt lat="45.93938" lon="4.78643">
        <ele>195</ele>
        <time>2018-10-31T11:42:48Z</time>
      </trkpt>
      <trkpt lat="45.93938" lon="4.78635">
        <ele>195</ele>
        <time>2018-10-31T11:42:49Z</time>
      </trkpt>
      <trkpt lat="45.93939" lon="4.78626">
        <ele>196</ele>
        <time>2018-10-31T11:42:50Z</time>
      </trkpt>
      <trkpt lat="45.93938" lon="4.78618">
        <ele>196</ele>
        <time>2018-10-31T11:42:51Z</time>
      </trkpt>
      <trkpt lat="45.93938" lon="4.78611">
        <ele>196</ele>
        <time>2018-10-31T11:42:52Z</time>
      </trkpt>
      <trkpt lat="45.93937" lon="4.78603">
        <ele>196</ele>
        <time>2018-10-31T11:42:53Z</time>
      </trkpt>
      <trkpt lat="45.93937" lon="4.78594">
        <ele>195</ele>
        <time>2018-10-31T11:42:54Z</time>
      </trkpt>
      <trkpt lat="45.93936" lon="4.78588">
        <ele>195</ele>
        <time>2018-10-31T11:42:55Z</time>
      </trkpt>
      <trkpt lat="45.93936" lon="4.78581">
        <ele>196</ele>
        <time>2018-10-31T11:42:56Z</time>
      </trkpt>
      <trkpt lat="45.93936" lon="4.78575">
        <ele>196</ele>
        <time>2018-10-31T11:42:57Z</time>
      </trkpt>
      <trkpt lat="45.93934" lon="4.78563">
        <ele>197</ele>
        <time>2018-10-31T11:43:00Z</time>
      </trkpt>
      <trkpt lat="45.93933" lon="4.78556">
        <ele>197</ele>
        <time>2018-10-31T11:43:01Z</time>
      </trkpt>
      <trkpt lat="45.93933" lon="4.78546">
        <ele>197</ele>
        <time>2018-10-31T11:43:03Z</time>
      </trkpt>
      <trkpt lat="45.93932" lon="4.7854">
        <ele>197</ele>
        <time>2018-10-31T11:43:04Z</time>
      </trkpt>
      <trkpt lat="45.93934" lon="4.78528">
        <ele>197</ele>
        <time>2018-10-31T11:43:06Z</time>
      </trkpt>
      <trkpt lat="45.93935" lon="4.78521">
        <ele>197</ele>
        <time>2018-10-31T11:43:07Z</time>
      </trkpt>
      <trkpt lat="45.93936" lon="4.78509">
        <ele>197</ele>
        <time>2018-10-31T11:43:09Z</time>
      </trkpt>
      <trkpt lat="45.93936" lon="4.78503">
        <ele>197</ele>
        <time>2018-10-31T11:43:10Z</time>
      </trkpt>
      <trkpt lat="45.93937" lon="4.78496">
        <ele>197</ele>
        <time>2018-10-31T11:43:11Z</time>
      </trkpt>
      <trkpt lat="45.9394" lon="4.7849">
        <ele>197</ele>
        <time>2018-10-31T11:43:12Z</time>
      </trkpt>
      <trkpt lat="45.93941" lon="4.78477">
        <ele>197</ele>
        <time>2018-10-31T11:43:14Z</time>
      </trkpt>
      <trkpt lat="45.93942" lon="4.78471">
        <ele>197</ele>
        <time>2018-10-31T11:43:15Z</time>
      </trkpt>
      <trkpt lat="45.93943" lon="4.78459">
        <ele>197</ele>
        <time>2018-10-31T11:43:17Z</time>
      </trkpt>
      <trkpt lat="45.93944" lon="4.78452">
        <ele>197</ele>
        <time>2018-10-31T11:43:18Z</time>
      </trkpt>
      <trkpt lat="45.93945" lon="4.78445">
        <ele>197</ele>
        <time>2018-10-31T11:43:19Z</time>
      </trkpt>
      <trkpt lat="45.93946" lon="4.78438">
        <ele>197</ele>
        <time>2018-10-31T11:43:20Z</time>
      </trkpt>
      <trkpt lat="45.93947" lon="4.78431">
        <ele>197</ele>
        <time>2018-10-31T11:43:21Z</time>
      </trkpt>
      <trkpt lat="45.93948" lon="4.78425">
        <ele>197</ele>
        <time>2018-10-31T11:43:22Z</time>
      </trkpt>
      <trkpt lat="45.93949" lon="4.78418">
        <ele>197</ele>
        <time>2018-10-31T11:43:23Z</time>
      </trkpt>
      <trkpt lat="45.9395" lon="4.78412">
        <ele>196</ele>
        <time>2018-10-31T11:43:24Z</time>
      </trkpt>
      <trkpt lat="45.93952" lon="4.78399">
        <ele>196</ele>
        <time>2018-10-31T11:43:26Z</time>
      </trkpt>
      <trkpt lat="45.93953" lon="4.78393">
        <ele>196</ele>
        <time>2018-10-31T11:43:27Z</time>
      </trkpt>
      <trkpt lat="45.93954" lon="4.78387">
        <ele>196</ele>
        <time>2018-10-31T11:43:28Z</time>
      </trkpt>
      <trkpt lat="45.93955" lon="4.78379">
        <ele>196</ele>
        <time>2018-10-31T11:43:29Z</time>
      </trkpt>
      <trkpt lat="45.93956" lon="4.78372">
        <ele>196</ele>
        <time>2018-10-31T11:43:30Z</time>
      </trkpt>
      <trkpt lat="45.93957" lon="4.78365">
        <ele>196</ele>
        <time>2018-10-31T11:43:31Z</time>
      </trkpt>
      <trkpt lat="45.93959" lon="4.78357">
        <ele>196</ele>
        <time>2018-10-31T11:43:32Z</time>
      </trkpt>
      <trkpt lat="45.93959" lon="4.78349">
        <ele>196</ele>
        <time>2018-10-31T11:43:33Z</time>
      </trkpt>
      <trkpt lat="45.9396" lon="4.78341">
        <ele>196</ele>
        <time>2018-10-31T11:43:34Z</time>
      </trkpt>
      <trkpt lat="45.93961" lon="4.78334">
        <ele>196</ele>
        <time>2018-10-31T11:43:35Z</time>
      </trkpt>
      <trkpt lat="45.93962" lon="4.78327">
        <ele>196</ele>
        <time>2018-10-31T11:43:36Z</time>
      </trkpt>
      <trkpt lat="45.93963" lon="4.78321">
        <ele>196</ele>
        <time>2018-10-31T11:43:37Z</time>
      </trkpt>
      <trkpt lat="45.93964" lon="4.7831">
        <ele>196</ele>
        <time>2018-10-31T11:43:39Z</time>
      </trkpt>
      <trkpt lat="45.93965" lon="4.78304">
        <ele>196</ele>
        <time>2018-10-31T11:43:40Z</time>
      </trkpt>
      <trkpt lat="45.93966" lon="4.78293">
        <ele>195</ele>
        <time>2018-10-31T11:43:42Z</time>
      </trkpt>
      <trkpt lat="45.93967" lon="4.78287">
        <ele>195</ele>
        <time>2018-10-31T11:43:43Z</time>
      </trkpt>
      <trkpt lat="45.93968" lon="4.78281">
        <ele>196</ele>
        <time>2018-10-31T11:43:44Z</time>
      </trkpt>
      <trkpt lat="45.93968" lon="4.78274">
        <ele>196</ele>
        <time>2018-10-31T11:43:45Z</time>
      </trkpt>
      <trkpt lat="45.93969" lon="4.78268">
        <ele>196</ele>
        <time>2018-10-31T11:43:46Z</time>
      </trkpt>
      <trkpt lat="45.9397" lon="4.78261">
        <ele>196</ele>
        <time>2018-10-31T11:43:47Z</time>
      </trkpt>
      <trkpt lat="45.9397" lon="4.78255">
        <ele>196</ele>
        <time>2018-10-31T11:43:48Z</time>
      </trkpt>
      <trkpt lat="45.93971" lon="4.78248">
        <ele>196</ele>
        <time>2018-10-31T11:43:49Z</time>
      </trkpt>
      <trkpt lat="45.93972" lon="4.78241">
        <ele>196</ele>
        <time>2018-10-31T11:43:50Z</time>
      </trkpt>
      <trkpt lat="45.93973" lon="4.78234">
        <ele>196</ele>
        <time>2018-10-31T11:43:51Z</time>
      </trkpt>
      <trkpt lat="45.93973" lon="4.78228">
        <ele>196</ele>
        <time>2018-10-31T11:43:52Z</time>
      </trkpt>
      <trkpt lat="45.93974" lon="4.78221">
        <ele>196</ele>
        <time>2018-10-31T11:43:53Z</time>
      </trkpt>
      <trkpt lat="45.93976" lon="4.78211">
        <ele>197</ele>
        <time>2018-10-31T11:43:55Z</time>
      </trkpt>
      <trkpt lat="45.93977" lon="4.78205">
        <ele>197</ele>
        <time>2018-10-31T11:43:56Z</time>
      </trkpt>
      <trkpt lat="45.93978" lon="4.78198">
        <ele>197</ele>
        <time>2018-10-31T11:43:57Z</time>
      </trkpt>
      <trkpt lat="45.9398" lon="4.78192">
        <ele>197</ele>
        <time>2018-10-31T11:43:58Z</time>
      </trkpt>
      <trkpt lat="45.93982" lon="4.78181">
        <ele>198</ele>
        <time>2018-10-31T11:44:00Z</time>
      </trkpt>
      <trkpt lat="45.93984" lon="4.78176">
        <ele>198</ele>
        <time>2018-10-31T11:44:01Z</time>
      </trkpt>
      <trkpt lat="45.93987" lon="4.78166">
        <ele>199</ele>
        <time>2018-10-31T11:44:03Z</time>
      </trkpt>
      <trkpt lat="45.93989" lon="4.78161">
        <ele>199</ele>
        <time>2018-10-31T11:44:04Z</time>
      </trkpt>
      <trkpt lat="45.93991" lon="4.78151">
        <ele>198</ele>
        <time>2018-10-31T11:44:06Z</time>
      </trkpt>
      <trkpt lat="45.9399" lon="4.78145">
        <ele>198</ele>
        <time>2018-10-31T11:44:07Z</time>
      </trkpt>
      <trkpt lat="45.9399" lon="4.78133">
        <ele>197</ele>
        <time>2018-10-31T11:44:09Z</time>
      </trkpt>
      <trkpt lat="45.93991" lon="4.78127">
        <ele>197</ele>
        <time>2018-10-31T11:44:10Z</time>
      </trkpt>
      <trkpt lat="45.93993" lon="4.7812">
        <ele>197</ele>
        <time>2018-10-31T11:44:11Z</time>
      </trkpt>
      <trkpt lat="45.93994" lon="4.78114">
        <ele>197</ele>
        <time>2018-10-31T11:44:12Z</time>
      </trkpt>
      <trkpt lat="45.93996" lon="4.78103">
        <ele>197</ele>
        <time>2018-10-31T11:44:14Z</time>
      </trkpt>
      <trkpt lat="45.93998" lon="4.78097">
        <ele>198</ele>
        <time>2018-10-31T11:44:15Z</time>
      </trkpt>
      <trkpt lat="45.94" lon="4.78087">
        <ele>199</ele>
        <time>2018-10-31T11:44:17Z</time>
      </trkpt>
      <trkpt lat="45.94001" lon="4.78079">
        <ele>200</ele>
        <time>2018-10-31T11:44:18Z</time>
      </trkpt>
      <trkpt lat="45.94004" lon="4.78068">
        <ele>201</ele>
        <time>2018-10-31T11:44:20Z</time>
      </trkpt>
      <trkpt lat="45.94005" lon="4.78065">
        <ele>201</ele>
        <time>2018-10-31T11:44:21Z</time>
      </trkpt>
      <trkpt lat="45.94012" lon="4.78058">
        <ele>201</ele>
        <time>2018-10-31T11:44:44Z</time>
      </trkpt>
      <trkpt lat="45.94013" lon="4.78058">
        <ele>201</ele>
        <time>2018-10-31T11:44:45Z</time>
      </trkpt>
      <trkpt lat="45.94017" lon="4.78047">
        <ele>202</ele>
        <time>2018-10-31T11:49:38Z</time>
      </trkpt>
      <trkpt lat="45.94017" lon="4.78044">
        <ele>202</ele>
        <time>2018-10-31T11:49:39Z</time>
      </trkpt>
      <trkpt lat="45.94016" lon="4.78032">
        <ele>201</ele>
        <time>2018-10-31T11:49:44Z</time>
      </trkpt>
      <trkpt lat="45.94017" lon="4.78026">
        <ele>201</ele>
        <time>2018-10-31T11:49:45Z</time>
      </trkpt>
      <trkpt lat="45.94018" lon="4.78016">
        <ele>200</ele>
        <time>2018-10-31T11:49:47Z</time>
      </trkpt>
      <trkpt lat="45.94019" lon="4.78008">
        <ele>200</ele>
        <time>2018-10-31T11:49:48Z</time>
      </trkpt>
      <trkpt lat="45.9402" lon="4.77997">
        <ele>199</ele>
        <time>2018-10-31T11:49:50Z</time>
      </trkpt>
      <trkpt lat="45.94021" lon="4.77991">
        <ele>200</ele>
        <time>2018-10-31T11:49:51Z</time>
      </trkpt>
      <trkpt lat="45.94022" lon="4.7798">
        <ele>200</ele>
        <time>2018-10-31T11:49:53Z</time>
      </trkpt>
      <trkpt lat="45.94023" lon="4.77974">
        <ele>200</ele>
        <time>2018-10-31T11:49:54Z</time>
      </trkpt>
      <trkpt lat="45.94025" lon="4.77961">
        <ele>200</ele>
        <time>2018-10-31T11:49:56Z</time>
      </trkpt>
      <trkpt lat="45.94026" lon="4.77955">
        <ele>200</ele>
        <time>2018-10-31T11:49:57Z</time>
      </trkpt>
      <trkpt lat="45.94028" lon="4.77945">
        <ele>200</ele>
        <time>2018-10-31T11:49:59Z</time>
      </trkpt>
      <trkpt lat="45.94029" lon="4.77939">
        <ele>200</ele>
        <time>2018-10-31T11:50:00Z</time>
      </trkpt>
      <trkpt lat="45.9403" lon="4.77929">
        <ele>200</ele>
        <time>2018-10-31T11:50:02Z</time>
      </trkpt>
      <trkpt lat="45.94029" lon="4.77926">
        <ele>200</ele>
        <time>2018-10-31T11:50:03Z</time>
      </trkpt>
      <trkpt lat="45.94025" lon="4.7792">
        <ele>199</ele>
        <time>2018-10-31T11:50:04Z</time>
      </trkpt>
      <trkpt lat="45.94021" lon="4.77918">
        <ele>198</ele>
        <time>2018-10-31T11:50:05Z</time>
      </trkpt>
      <trkpt lat="45.94016" lon="4.77917">
        <ele>198</ele>
        <time>2018-10-31T11:50:06Z</time>
      </trkpt>
      <trkpt lat="45.94009" lon="4.7792">
        <ele>196</ele>
        <time>2018-10-31T11:50:07Z</time>
      </trkpt>
      <trkpt lat="45.94004" lon="4.7792">
        <ele>195</ele>
        <time>2018-10-31T11:50:08Z</time>
      </trkpt>
      <trkpt lat="45.93997" lon="4.77923">
        <ele>193</ele>
        <time>2018-10-31T11:50:09Z</time>
      </trkpt>
      <trkpt lat="45.93991" lon="4.77927">
        <ele>192</ele>
        <time>2018-10-31T11:50:10Z</time>
      </trkpt>
      <trkpt lat="45.93984" lon="4.77931">
        <ele>192</ele>
        <time>2018-10-31T11:50:11Z</time>
      </trkpt>
      <trkpt lat="45.93978" lon="4.77936">
        <ele>191</ele>
        <time>2018-10-31T11:50:12Z</time>
      </trkpt>
      <trkpt lat="45.93971" lon="4.7794">
        <ele>191</ele>
        <time>2018-10-31T11:50:13Z</time>
      </trkpt>
      <trkpt lat="45.93965" lon="4.77945">
        <ele>190</ele>
        <time>2018-10-31T11:50:14Z</time>
      </trkpt>
      <trkpt lat="45.93957" lon="4.7795">
        <ele>190</ele>
        <time>2018-10-31T11:50:15Z</time>
      </trkpt>
      <trkpt lat="45.93948" lon="4.77955">
        <ele>189</ele>
        <time>2018-10-31T11:50:16Z</time>
      </trkpt>
      <trkpt lat="45.93941" lon="4.77961">
        <ele>189</ele>
        <time>2018-10-31T11:50:17Z</time>
      </trkpt>
      <trkpt lat="45.93935" lon="4.77964">
        <ele>189</ele>
        <time>2018-10-31T11:50:18Z</time>
      </trkpt>
      <trkpt lat="45.93928" lon="4.77967">
        <ele>188</ele>
        <time>2018-10-31T11:50:19Z</time>
      </trkpt>
      <trkpt lat="45.93922" lon="4.77973">
        <ele>188</ele>
        <time>2018-10-31T11:50:20Z</time>
      </trkpt>
      <trkpt lat="45.93917" lon="4.77978">
        <ele>188</ele>
        <time>2018-10-31T11:50:21Z</time>
      </trkpt>
      <trkpt lat="45.93912" lon="4.77984">
        <ele>183</ele>
        <time>2018-10-31T11:50:22Z</time>
      </trkpt>
      <trkpt lat="45.93906" lon="4.77989">
        <ele>183</ele>
        <time>2018-10-31T11:50:23Z</time>
      </trkpt>
      <trkpt lat="45.93901" lon="4.77994">
        <ele>183</ele>
        <time>2018-10-31T11:50:24Z</time>
      </trkpt>
      <trkpt lat="45.93896" lon="4.78">
        <ele>185</ele>
        <time>2018-10-31T11:50:25Z</time>
      </trkpt>
      <trkpt lat="45.93892" lon="4.78005">
        <ele>184</ele>
        <time>2018-10-31T11:50:26Z</time>
      </trkpt>
      <trkpt lat="45.93884" lon="4.78013">
        <ele>184</ele>
        <time>2018-10-31T11:50:28Z</time>
      </trkpt>
      <trkpt lat="45.93879" lon="4.78014">
        <ele>184</ele>
        <time>2018-10-31T11:50:29Z</time>
      </trkpt>
      <trkpt lat="45.93875" lon="4.78014">
        <ele>183</ele>
        <time>2018-10-31T11:50:30Z</time>
      </trkpt>
      <trkpt lat="45.93871" lon="4.7801">
        <ele>183</ele>
        <time>2018-10-31T11:50:31Z</time>
      </trkpt>
      <trkpt lat="45.93863" lon="4.78005">
        <ele>182</ele>
        <time>2018-10-31T11:50:33Z</time>
      </trkpt>
      <trkpt lat="45.93858" lon="4.78001">
        <ele>182</ele>
        <time>2018-10-31T11:50:34Z</time>
      </trkpt>
      <trkpt lat="45.93853" lon="4.77998">
        <ele>179</ele>
        <time>2018-10-31T11:50:35Z</time>
      </trkpt>
      <trkpt lat="45.93848" lon="4.77994">
        <ele>179</ele>
        <time>2018-10-31T11:50:36Z</time>
      </trkpt>
      <trkpt lat="45.93843" lon="4.77989">
        <ele>179</ele>
        <time>2018-10-31T11:50:37Z</time>
      </trkpt>
      <trkpt lat="45.9384" lon="4.77984">
        <ele>178</ele>
        <time>2018-10-31T11:50:38Z</time>
      </trkpt>
      <trkpt lat="45.93833" lon="4.77975">
        <ele>173</ele>
        <time>2018-10-31T11:50:40Z</time>
      </trkpt>
      <trkpt lat="45.9383" lon="4.77972">
        <ele>172</ele>
        <time>2018-10-31T11:50:41Z</time>
      </trkpt>
      <trkpt lat="45.93824" lon="4.77964">
        <ele>171</ele>
        <time>2018-10-31T11:50:43Z</time>
      </trkpt>
      <trkpt lat="45.93821" lon="4.77958">
        <ele>170</ele>
        <time>2018-10-31T11:50:44Z</time>
      </trkpt>
      <trkpt lat="45.93816" lon="4.77952">
        <ele>170</ele>
        <time>2018-10-31T11:50:46Z</time>
      </trkpt>
      <trkpt lat="45.93813" lon="4.77948">
        <ele>169</ele>
        <time>2018-10-31T11:50:47Z</time>
      </trkpt>
      <trkpt lat="45.9381" lon="4.77943">
        <ele>169</ele>
        <time>2018-10-31T11:50:48Z</time>
      </trkpt>
      <trkpt lat="45.93807" lon="4.77938">
        <ele>169</ele>
        <time>2018-10-31T11:50:49Z</time>
      </trkpt>
      <trkpt lat="45.93803" lon="4.77934">
        <ele>168</ele>
        <time>2018-10-31T11:50:50Z</time>
      </trkpt>
      <trkpt lat="45.938" lon="4.7793">
        <ele>168</ele>
        <time>2018-10-31T11:50:51Z</time>
      </trkpt>
      <trkpt lat="45.93792" lon="4.77923">
        <ele>168</ele>
        <time>2018-10-31T11:50:54Z</time>
      </trkpt>
      <trkpt lat="45.9379" lon="4.7792">
        <ele>168</ele>
        <time>2018-10-31T11:50:55Z</time>
      </trkpt>
      <trkpt lat="45.93783" lon="4.77913">
        <ele>166</ele>
        <time>2018-10-31T11:50:58Z</time>
      </trkpt>
      <trkpt lat="45.93781" lon="4.77912">
        <ele>166</ele>
        <time>2018-10-31T11:50:59Z</time>
      </trkpt>
      <trkpt lat="45.93777" lon="4.77913">
        <ele>166</ele>
        <time>2018-10-31T11:52:12Z</time>
      </trkpt>
      <trkpt lat="45.93777" lon="4.77913">
        <ele>166</ele>
        <time>2018-10-31T11:52:13Z</time>
      </trkpt>
      <trkpt lat="45.93777" lon="4.77913">
        <ele>166</ele>
        <time>2018-10-31T11:52:14Z</time>
      </trkpt>
      <trkpt lat="45.93778" lon="4.77901">
        <ele>166</ele>
        <time>2018-10-31T11:52:57Z</time>
      </trkpt>
      <trkpt lat="45.93777" lon="4.77898">
        <ele>166</ele>
        <time>2018-10-31T11:52:58Z</time>
      </trkpt>
      <trkpt lat="45.93772" lon="4.77892">
        <ele>166</ele>
        <time>2018-10-31T11:53:01Z</time>
      </trkpt>
      <trkpt lat="45.93769" lon="4.77889">
        <ele>166</ele>
        <time>2018-10-31T11:53:02Z</time>
      </trkpt>
      <trkpt lat="45.93763" lon="4.7788">
        <ele>166</ele>
        <time>2018-10-31T11:53:05Z</time>
      </trkpt>
      <trkpt lat="45.9376" lon="4.77877">
        <ele>166</ele>
        <time>2018-10-31T11:53:06Z</time>
      </trkpt>
      <trkpt lat="45.93756" lon="4.77871">
        <ele>166</ele>
        <time>2018-10-31T11:53:07Z</time>
      </trkpt>
      <trkpt lat="45.93753" lon="4.77868">
        <ele>166</ele>
        <time>2018-10-31T11:53:08Z</time>
      </trkpt>
      <trkpt lat="45.9375" lon="4.77864">
        <ele>166</ele>
        <time>2018-10-31T11:53:09Z</time>
      </trkpt>
      <trkpt lat="45.93747" lon="4.77859">
        <ele>167</ele>
        <time>2018-10-31T11:53:10Z</time>
      </trkpt>
      <trkpt lat="45.93743" lon="4.77855">
        <ele>167</ele>
        <time>2018-10-31T11:53:11Z</time>
      </trkpt>
      <trkpt lat="45.93739" lon="4.7785">
        <ele>167</ele>
        <time>2018-10-31T11:53:12Z</time>
      </trkpt>
      <trkpt lat="45.93735" lon="4.77844">
        <ele>167</ele>
        <time>2018-10-31T11:53:13Z</time>
      </trkpt>
      <trkpt lat="45.93731" lon="4.77838">
        <ele>167</ele>
        <time>2018-10-31T11:53:14Z</time>
      </trkpt>
      <trkpt lat="45.93727" lon="4.77832">
        <ele>168</ele>
        <time>2018-10-31T11:53:15Z</time>
      </trkpt>
      <trkpt lat="45.93723" lon="4.77827">
        <ele>168</ele>
        <time>2018-10-31T11:53:16Z</time>
      </trkpt>
      <trkpt lat="45.93719" lon="4.77821">
        <ele>169</ele>
        <time>2018-10-31T11:53:17Z</time>
      </trkpt>
      <trkpt lat="45.93714" lon="4.77815">
        <ele>169</ele>
        <time>2018-10-31T11:53:18Z</time>
      </trkpt>
      <trkpt lat="45.93709" lon="4.7781">
        <ele>169</ele>
        <time>2018-10-31T11:53:19Z</time>
      </trkpt>
      <trkpt lat="45.93705" lon="4.77804">
        <ele>169</ele>
        <time>2018-10-31T11:53:20Z</time>
      </trkpt>
      <trkpt lat="45.937" lon="4.77798">
        <ele>169</ele>
        <time>2018-10-31T11:53:21Z</time>
      </trkpt>
      <trkpt lat="45.93695" lon="4.77792">
        <ele>169</ele>
        <time>2018-10-31T11:53:22Z</time>
      </trkpt>
      <trkpt lat="45.9369" lon="4.77786">
        <ele>170</ele>
        <time>2018-10-31T11:53:23Z</time>
      </trkpt>
      <trkpt lat="45.93685" lon="4.77779">
        <ele>170</ele>
        <time>2018-10-31T11:53:24Z</time>
      </trkpt>
      <trkpt lat="45.93681" lon="4.77772">
        <ele>170</ele>
        <time>2018-10-31T11:53:25Z</time>
      </trkpt>
      <trkpt lat="45.93676" lon="4.77765">
        <ele>170</ele>
        <time>2018-10-31T11:53:26Z</time>
      </trkpt>
      <trkpt lat="45.93671" lon="4.77758">
        <ele>171</ele>
        <time>2018-10-31T11:53:27Z</time>
      </trkpt>
      <trkpt lat="45.93666" lon="4.7775">
        <ele>171</ele>
        <time>2018-10-31T11:53:28Z</time>
      </trkpt>
      <trkpt lat="45.93661" lon="4.77742">
        <ele>170</ele>
        <time>2018-10-31T11:53:29Z</time>
      </trkpt>
      <trkpt lat="45.93656" lon="4.77734">
        <ele>170</ele>
        <time>2018-10-31T11:53:30Z</time>
      </trkpt>
      <trkpt lat="45.93652" lon="4.77724">
        <ele>170</ele>
        <time>2018-10-31T11:53:31Z</time>
      </trkpt>
      <trkpt lat="45.93646" lon="4.77714">
        <ele>170</ele>
        <time>2018-10-31T11:53:32Z</time>
      </trkpt>
      <trkpt lat="45.93641" lon="4.77705">
        <ele>170</ele>
        <time>2018-10-31T11:53:33Z</time>
      </trkpt>
      <trkpt lat="45.93637" lon="4.77696">
        <ele>169</ele>
        <time>2018-10-31T11:53:34Z</time>
      </trkpt>
      <trkpt lat="45.93632" lon="4.77686">
        <ele>169</ele>
        <time>2018-10-31T11:53:35Z</time>
      </trkpt>
      <trkpt lat="45.93627" lon="4.77676">
        <ele>169</ele>
        <time>2018-10-31T11:53:36Z</time>
      </trkpt>
      <trkpt lat="45.93622" lon="4.77667">
        <ele>169</ele>
        <time>2018-10-31T11:53:37Z</time>
      </trkpt>
      <trkpt lat="45.93619" lon="4.77658">
        <ele>169</ele>
        <time>2018-10-31T11:53:38Z</time>
      </trkpt>
      <trkpt lat="45.93614" lon="4.77649">
        <ele>169</ele>
        <time>2018-10-31T11:53:39Z</time>
      </trkpt>
      <trkpt lat="45.9361" lon="4.77638">
        <ele>169</ele>
        <time>2018-10-31T11:53:40Z</time>
      </trkpt>
      <trkpt lat="45.93608" lon="4.77629">
        <ele>169</ele>
        <time>2018-10-31T11:53:41Z</time>
      </trkpt>
      <trkpt lat="45.93603" lon="4.77621">
        <ele>170</ele>
        <time>2018-10-31T11:53:42Z</time>
      </trkpt>
      <trkpt lat="45.936" lon="4.77613">
        <ele>170</ele>
        <time>2018-10-31T11:53:43Z</time>
      </trkpt>
      <trkpt lat="45.93597" lon="4.77604">
        <ele>170</ele>
        <time>2018-10-31T11:53:44Z</time>
      </trkpt>
      <trkpt lat="45.93594" lon="4.77595">
        <ele>170</ele>
        <time>2018-10-31T11:53:45Z</time>
      </trkpt>
      <trkpt lat="45.93591" lon="4.77587">
        <ele>170</ele>
        <time>2018-10-31T11:53:46Z</time>
      </trkpt>
      <trkpt lat="45.93589" lon="4.77578">
        <ele>170</ele>
        <time>2018-10-31T11:53:47Z</time>
      </trkpt>
      <trkpt lat="45.93586" lon="4.7757">
        <ele>170</ele>
        <time>2018-10-31T11:53:48Z</time>
      </trkpt>
      <trkpt lat="45.93584" lon="4.77561">
        <ele>170</ele>
        <time>2018-10-31T11:53:49Z</time>
      </trkpt>
      <trkpt lat="45.93582" lon="4.77553">
        <ele>169</ele>
        <time>2018-10-31T11:53:50Z</time>
      </trkpt>
      <trkpt lat="45.93579" lon="4.77544">
        <ele>169</ele>
        <time>2018-10-31T11:53:51Z</time>
      </trkpt>
      <trkpt lat="45.93578" lon="4.77536">
        <ele>169</ele>
        <time>2018-10-31T11:53:52Z</time>
      </trkpt>
      <trkpt lat="45.93575" lon="4.7753">
        <ele>169</ele>
        <time>2018-10-31T11:53:53Z</time>
      </trkpt>
      <trkpt lat="45.93574" lon="4.77523">
        <ele>169</ele>
        <time>2018-10-31T11:53:54Z</time>
      </trkpt>
      <trkpt lat="45.93572" lon="4.77514">
        <ele>169</ele>
        <time>2018-10-31T11:53:55Z</time>
      </trkpt>
      <trkpt lat="45.9357" lon="4.77508">
        <ele>169</ele>
        <time>2018-10-31T11:53:56Z</time>
      </trkpt>
      <trkpt lat="45.93569" lon="4.775">
        <ele>169</ele>
        <time>2018-10-31T11:53:57Z</time>
      </trkpt>
      <trkpt lat="45.93568" lon="4.77492">
        <ele>169</ele>
        <time>2018-10-31T11:53:58Z</time>
      </trkpt>
      <trkpt lat="45.93566" lon="4.77484">
        <ele>169</ele>
        <time>2018-10-31T11:53:59Z</time>
      </trkpt>
      <trkpt lat="45.93564" lon="4.77476">
        <ele>169</ele>
        <time>2018-10-31T11:54:00Z</time>
      </trkpt>
      <trkpt lat="45.93562" lon="4.77469">
        <ele>169</ele>
        <time>2018-10-31T11:54:01Z</time>
      </trkpt>
      <trkpt lat="45.9356" lon="4.7746">
        <ele>169</ele>
        <time>2018-10-31T11:54:02Z</time>
      </trkpt>
      <trkpt lat="45.93558" lon="4.77451">
        <ele>169</ele>
        <time>2018-10-31T11:54:03Z</time>
      </trkpt>
      <trkpt lat="45.93556" lon="4.77442">
        <ele>169</ele>
        <time>2018-10-31T11:54:04Z</time>
      </trkpt>
      <trkpt lat="45.93554" lon="4.77434">
        <ele>169</ele>
        <time>2018-10-31T11:54:05Z</time>
      </trkpt>
      <trkpt lat="45.93551" lon="4.77425">
        <ele>170</ele>
        <time>2018-10-31T11:54:06Z</time>
      </trkpt>
      <trkpt lat="45.93549" lon="4.77416">
        <ele>170</ele>
        <time>2018-10-31T11:54:07Z</time>
      </trkpt>
      <trkpt lat="45.93547" lon="4.77407">
        <ele>170</ele>
        <time>2018-10-31T11:54:08Z</time>
      </trkpt>
      <trkpt lat="45.93544" lon="4.774">
        <ele>170</ele>
        <time>2018-10-31T11:54:09Z</time>
      </trkpt>
      <trkpt lat="45.93543" lon="4.7739">
        <ele>170</ele>
        <time>2018-10-31T11:54:10Z</time>
      </trkpt>
      <trkpt lat="45.9354" lon="4.77381">
        <ele>170</ele>
        <time>2018-10-31T11:54:11Z</time>
      </trkpt>
      <trkpt lat="45.93538" lon="4.77372">
        <ele>170</ele>
        <time>2018-10-31T11:54:12Z</time>
      </trkpt>
      <trkpt lat="45.93536" lon="4.77363">
        <ele>170</ele>
        <time>2018-10-31T11:54:13Z</time>
      </trkpt>
      <trkpt lat="45.93534" lon="4.77354">
        <ele>170</ele>
        <time>2018-10-31T11:54:14Z</time>
      </trkpt>
      <trkpt lat="45.93532" lon="4.77346">
        <ele>170</ele>
        <time>2018-10-31T11:54:15Z</time>
      </trkpt>
      <trkpt lat="45.93531" lon="4.77339">
        <ele>170</ele>
        <time>2018-10-31T11:54:16Z</time>
      </trkpt>
      <trkpt lat="45.93528" lon="4.7733">
        <ele>170</ele>
        <time>2018-10-31T11:54:17Z</time>
      </trkpt>
      <trkpt lat="45.93526" lon="4.77323">
        <ele>170</ele>
        <time>2018-10-31T11:54:18Z</time>
      </trkpt>
      <trkpt lat="45.93521" lon="4.77316">
        <ele>170</ele>
        <time>2018-10-31T11:54:19Z</time>
      </trkpt>
      <trkpt lat="45.9352" lon="4.77309">
        <ele>170</ele>
        <time>2018-10-31T11:54:20Z</time>
      </trkpt>
      <trkpt lat="45.93519" lon="4.77301">
        <ele>170</ele>
        <time>2018-10-31T11:54:21Z</time>
      </trkpt>
      <trkpt lat="45.93518" lon="4.77294">
        <ele>170</ele>
        <time>2018-10-31T11:54:22Z</time>
      </trkpt>
      <trkpt lat="45.93516" lon="4.77286">
        <ele>170</ele>
        <time>2018-10-31T11:54:23Z</time>
      </trkpt>
      <trkpt lat="45.93515" lon="4.77277">
        <ele>170</ele>
        <time>2018-10-31T11:54:24Z</time>
      </trkpt>
      <trkpt lat="45.93514" lon="4.77268">
        <ele>170</ele>
        <time>2018-10-31T11:54:25Z</time>
      </trkpt>
      <trkpt lat="45.93512" lon="4.77261">
        <ele>170</ele>
        <time>2018-10-31T11:54:26Z</time>
      </trkpt>
      <trkpt lat="45.93511" lon="4.77253">
        <ele>170</ele>
        <time>2018-10-31T11:54:27Z</time>
      </trkpt>
      <trkpt lat="45.93509" lon="4.77245">
        <ele>170</ele>
        <time>2018-10-31T11:54:28Z</time>
      </trkpt>
      <trkpt lat="45.93507" lon="4.77237">
        <ele>169</ele>
        <time>2018-10-31T11:54:29Z</time>
      </trkpt>
      <trkpt lat="45.93505" lon="4.77229">
        <ele>169</ele>
        <time>2018-10-31T11:54:30Z</time>
      </trkpt>
      <trkpt lat="45.93504" lon="4.77221">
        <ele>169</ele>
        <time>2018-10-31T11:54:31Z</time>
      </trkpt>
      <trkpt lat="45.93502" lon="4.77213">
        <ele>169</ele>
        <time>2018-10-31T11:54:32Z</time>
      </trkpt>
      <trkpt lat="45.935" lon="4.77205">
        <ele>169</ele>
        <time>2018-10-31T11:54:33Z</time>
      </trkpt>
      <trkpt lat="45.93499" lon="4.77197">
        <ele>169</ele>
        <time>2018-10-31T11:54:34Z</time>
      </trkpt>
      <trkpt lat="45.93496" lon="4.7719">
        <ele>169</ele>
        <time>2018-10-31T11:54:35Z</time>
      </trkpt>
      <trkpt lat="45.93494" lon="4.77182">
        <ele>169</ele>
        <time>2018-10-31T11:54:36Z</time>
      </trkpt>
      <trkpt lat="45.93492" lon="4.77173">
        <ele>169</ele>
        <time>2018-10-31T11:54:37Z</time>
      </trkpt>
      <trkpt lat="45.9349" lon="4.77165">
        <ele>169</ele>
        <time>2018-10-31T11:54:38Z</time>
      </trkpt>
      <trkpt lat="45.93489" lon="4.77155">
        <ele>169</ele>
        <time>2018-10-31T11:54:39Z</time>
      </trkpt>
      <trkpt lat="45.93487" lon="4.77147">
        <ele>169</ele>
        <time>2018-10-31T11:54:40Z</time>
      </trkpt>
      <trkpt lat="45.93486" lon="4.77137">
        <ele>169</ele>
        <time>2018-10-31T11:54:41Z</time>
      </trkpt>
      <trkpt lat="45.93483" lon="4.77129">
        <ele>169</ele>
        <time>2018-10-31T11:54:42Z</time>
      </trkpt>
      <trkpt lat="45.93482" lon="4.77122">
        <ele>169</ele>
        <time>2018-10-31T11:54:43Z</time>
      </trkpt>
      <trkpt lat="45.93479" lon="4.77112">
        <ele>169</ele>
        <time>2018-10-31T11:54:44Z</time>
      </trkpt>
      <trkpt lat="45.93478" lon="4.77104">
        <ele>169</ele>
        <time>2018-10-31T11:54:45Z</time>
      </trkpt>
      <trkpt lat="45.93477" lon="4.77097">
        <ele>169</ele>
        <time>2018-10-31T11:54:46Z</time>
      </trkpt>
      <trkpt lat="45.93475" lon="4.77089">
        <ele>169</ele>
        <time>2018-10-31T11:54:47Z</time>
      </trkpt>
      <trkpt lat="45.93474" lon="4.7708">
        <ele>170</ele>
        <time>2018-10-31T11:54:48Z</time>
      </trkpt>
      <trkpt lat="45.93471" lon="4.77073">
        <ele>170</ele>
        <time>2018-10-31T11:54:49Z</time>
      </trkpt>
      <trkpt lat="45.93469" lon="4.77065">
        <ele>170</ele>
        <time>2018-10-31T11:54:50Z</time>
      </trkpt>
      <trkpt lat="45.93468" lon="4.77057">
        <ele>170</ele>
        <time>2018-10-31T11:54:51Z</time>
      </trkpt>
      <trkpt lat="45.93466" lon="4.77049">
        <ele>170</ele>
        <time>2018-10-31T11:54:52Z</time>
      </trkpt>
      <trkpt lat="45.93465" lon="4.77042">
        <ele>170</ele>
        <time>2018-10-31T11:54:53Z</time>
      </trkpt>
      <trkpt lat="45.93463" lon="4.77033">
        <ele>170</ele>
        <time>2018-10-31T11:54:54Z</time>
      </trkpt>
      <trkpt lat="45.93462" lon="4.77025">
        <ele>170</ele>
        <time>2018-10-31T11:54:55Z</time>
      </trkpt>
      <trkpt lat="45.9346" lon="4.77017">
        <ele>170</ele>
        <time>2018-10-31T11:54:56Z</time>
      </trkpt>
      <trkpt lat="45.93459" lon="4.77009">
        <ele>170</ele>
        <time>2018-10-31T11:54:57Z</time>
      </trkpt>
      <trkpt lat="45.93458" lon="4.77">
        <ele>170</ele>
        <time>2018-10-31T11:54:58Z</time>
      </trkpt>
      <trkpt lat="45.93457" lon="4.76991">
        <ele>170</ele>
        <time>2018-10-31T11:54:59Z</time>
      </trkpt>
      <trkpt lat="45.93456" lon="4.76983">
        <ele>170</ele>
        <time>2018-10-31T11:55:00Z</time>
      </trkpt>
      <trkpt lat="45.93455" lon="4.76974">
        <ele>170</ele>
        <time>2018-10-31T11:55:01Z</time>
      </trkpt>
      <trkpt lat="45.93454" lon="4.76966">
        <ele>170</ele>
        <time>2018-10-31T11:55:02Z</time>
      </trkpt>
      <trkpt lat="45.93454" lon="4.76956">
        <ele>170</ele>
        <time>2018-10-31T11:55:03Z</time>
      </trkpt>
      <trkpt lat="45.93453" lon="4.76947">
        <ele>170</ele>
        <time>2018-10-31T11:55:04Z</time>
      </trkpt>
      <trkpt lat="45.93452" lon="4.76938">
        <ele>170</ele>
        <time>2018-10-31T11:55:05Z</time>
      </trkpt>
      <trkpt lat="45.93449" lon="4.76929">
        <ele>170</ele>
        <time>2018-10-31T11:55:06Z</time>
      </trkpt>
      <trkpt lat="45.93447" lon="4.76921">
        <ele>170</ele>
        <time>2018-10-31T11:55:07Z</time>
      </trkpt>
      <trkpt lat="45.93446" lon="4.76912">
        <ele>170</ele>
        <time>2018-10-31T11:55:08Z</time>
      </trkpt>
      <trkpt lat="45.93444" lon="4.76905">
        <ele>170</ele>
        <time>2018-10-31T11:55:09Z</time>
      </trkpt>
      <trkpt lat="45.93442" lon="4.76896">
        <ele>170</ele>
        <time>2018-10-31T11:55:10Z</time>
      </trkpt>
      <trkpt lat="45.9344" lon="4.76889">
        <ele>170</ele>
        <time>2018-10-31T11:55:11Z</time>
      </trkpt>
      <trkpt lat="45.93437" lon="4.76882">
        <ele>171</ele>
        <time>2018-10-31T11:55:12Z</time>
      </trkpt>
      <trkpt lat="45.93434" lon="4.76874">
        <ele>171</ele>
        <time>2018-10-31T11:55:13Z</time>
      </trkpt>
      <trkpt lat="45.9343" lon="4.76867">
        <ele>171</ele>
        <time>2018-10-31T11:55:14Z</time>
      </trkpt>
      <trkpt lat="45.93427" lon="4.7686">
        <ele>171</ele>
        <time>2018-10-31T11:55:15Z</time>
      </trkpt>
      <trkpt lat="45.93424" lon="4.76852">
        <ele>171</ele>
        <time>2018-10-31T11:55:16Z</time>
      </trkpt>
      <trkpt lat="45.93421" lon="4.76845">
        <ele>171</ele>
        <time>2018-10-31T11:55:17Z</time>
      </trkpt>
      <trkpt lat="45.93418" lon="4.76839">
        <ele>172</ele>
        <time>2018-10-31T11:55:18Z</time>
      </trkpt>
      <trkpt lat="45.93415" lon="4.76832">
        <ele>172</ele>
        <time>2018-10-31T11:55:19Z</time>
      </trkpt>
      <trkpt lat="45.93411" lon="4.76826">
        <ele>172</ele>
        <time>2018-10-31T11:55:20Z</time>
      </trkpt>
      <trkpt lat="45.93408" lon="4.76819">
        <ele>172</ele>
        <time>2018-10-31T11:55:21Z</time>
      </trkpt>
      <trkpt lat="45.93404" lon="4.76812">
        <ele>172</ele>
        <time>2018-10-31T11:55:22Z</time>
      </trkpt>
      <trkpt lat="45.934" lon="4.76806">
        <ele>172</ele>
        <time>2018-10-31T11:55:23Z</time>
      </trkpt>
      <trkpt lat="45.93396" lon="4.768">
        <ele>172</ele>
        <time>2018-10-31T11:55:24Z</time>
      </trkpt>
      <trkpt lat="45.93392" lon="4.76793">
        <ele>172</ele>
        <time>2018-10-31T11:55:25Z</time>
      </trkpt>
      <trkpt lat="45.93388" lon="4.76788">
        <ele>172</ele>
        <time>2018-10-31T11:55:26Z</time>
      </trkpt>
      <trkpt lat="45.93382" lon="4.76783">
        <ele>172</ele>
        <time>2018-10-31T11:55:27Z</time>
      </trkpt>
      <trkpt lat="45.93378" lon="4.76778">
        <ele>172</ele>
        <time>2018-10-31T11:55:28Z</time>
      </trkpt>
      <trkpt lat="45.93373" lon="4.76773">
        <ele>172</ele>
        <time>2018-10-31T11:55:29Z</time>
      </trkpt>
      <trkpt lat="45.93367" lon="4.76769">
        <ele>172</ele>
        <time>2018-10-31T11:55:30Z</time>
      </trkpt>
      <trkpt lat="45.93362" lon="4.76765">
        <ele>172</ele>
        <time>2018-10-31T11:55:31Z</time>
      </trkpt>
      <trkpt lat="45.93358" lon="4.76761">
        <ele>172</ele>
        <time>2018-10-31T11:55:32Z</time>
      </trkpt>
      <trkpt lat="45.93353" lon="4.76758">
        <ele>172</ele>
        <time>2018-10-31T11:55:33Z</time>
      </trkpt>
      <trkpt lat="45.93348" lon="4.76753">
        <ele>172</ele>
        <time>2018-10-31T11:55:34Z</time>
      </trkpt>
      <trkpt lat="45.93344" lon="4.76749">
        <ele>173</ele>
        <time>2018-10-31T11:55:35Z</time>
      </trkpt>
      <trkpt lat="45.9334" lon="4.76744">
        <ele>173</ele>
        <time>2018-10-31T11:55:36Z</time>
      </trkpt>
      <trkpt lat="45.93335" lon="4.76739">
        <ele>173</ele>
        <time>2018-10-31T11:55:37Z</time>
      </trkpt>
      <trkpt lat="45.93332" lon="4.76733">
        <ele>172</ele>
        <time>2018-10-31T11:55:38Z</time>
      </trkpt>
      <trkpt lat="45.93325" lon="4.76729">
        <ele>172</ele>
        <time>2018-10-31T11:55:39Z</time>
      </trkpt>
      <trkpt lat="45.9332" lon="4.76725">
        <ele>172</ele>
        <time>2018-10-31T11:55:40Z</time>
      </trkpt>
      <trkpt lat="45.93315" lon="4.76721">
        <ele>172</ele>
        <time>2018-10-31T11:55:41Z</time>
      </trkpt>
      <trkpt lat="45.9331" lon="4.76718">
        <ele>172</ele>
        <time>2018-10-31T11:55:42Z</time>
      </trkpt>
      <trkpt lat="45.93305" lon="4.76713">
        <ele>172</ele>
        <time>2018-10-31T11:55:43Z</time>
      </trkpt>
      <trkpt lat="45.933" lon="4.76709">
        <ele>172</ele>
        <time>2018-10-31T11:55:44Z</time>
      </trkpt>
      <trkpt lat="45.93295" lon="4.76704">
        <ele>172</ele>
        <time>2018-10-31T11:55:45Z</time>
      </trkpt>
      <trkpt lat="45.93291" lon="4.76698">
        <ele>172</ele>
        <time>2018-10-31T11:55:46Z</time>
      </trkpt>
      <trkpt lat="45.93286" lon="4.76694">
        <ele>172</ele>
        <time>2018-10-31T11:55:47Z</time>
      </trkpt>
      <trkpt lat="45.93281" lon="4.7669">
        <ele>172</ele>
        <time>2018-10-31T11:55:48Z</time>
      </trkpt>
      <trkpt lat="45.93277" lon="4.76685">
        <ele>172</ele>
        <time>2018-10-31T11:55:49Z</time>
      </trkpt>
      <trkpt lat="45.93272" lon="4.7668">
        <ele>172</ele>
        <time>2018-10-31T11:55:50Z</time>
      </trkpt>
      <trkpt lat="45.93268" lon="4.76676">
        <ele>172</ele>
        <time>2018-10-31T11:55:51Z</time>
      </trkpt>
      <trkpt lat="45.93264" lon="4.7667">
        <ele>172</ele>
        <time>2018-10-31T11:55:52Z</time>
      </trkpt>
      <trkpt lat="45.93257" lon="4.76665">
        <ele>171</ele>
        <time>2018-10-31T11:55:53Z</time>
      </trkpt>
      <trkpt lat="45.93253" lon="4.7666">
        <ele>171</ele>
        <time>2018-10-31T11:55:54Z</time>
      </trkpt>
      <trkpt lat="45.93249" lon="4.76655">
        <ele>171</ele>
        <time>2018-10-31T11:55:55Z</time>
      </trkpt>
      <trkpt lat="45.93246" lon="4.7665">
        <ele>171</ele>
        <time>2018-10-31T11:55:56Z</time>
      </trkpt>
      <trkpt lat="45.93241" lon="4.76646">
        <ele>171</ele>
        <time>2018-10-31T11:55:57Z</time>
      </trkpt>
      <trkpt lat="45.93238" lon="4.7664">
        <ele>171</ele>
        <time>2018-10-31T11:55:58Z</time>
      </trkpt>
      <trkpt lat="45.93233" lon="4.76634">
        <ele>171</ele>
        <time>2018-10-31T11:55:59Z</time>
      </trkpt>
      <trkpt lat="45.93228" lon="4.76628">
        <ele>170</ele>
        <time>2018-10-31T11:56:00Z</time>
      </trkpt>
      <trkpt lat="45.93223" lon="4.76623">
        <ele>170</ele>
        <time>2018-10-31T11:56:01Z</time>
      </trkpt>
      <trkpt lat="45.93217" lon="4.76618">
        <ele>170</ele>
        <time>2018-10-31T11:56:02Z</time>
      </trkpt>
      <trkpt lat="45.93213" lon="4.76615">
        <ele>170</ele>
        <time>2018-10-31T11:56:03Z</time>
      </trkpt>
      <trkpt lat="45.93207" lon="4.76611">
        <ele>170</ele>
        <time>2018-10-31T11:56:04Z</time>
      </trkpt>
      <trkpt lat="45.93203" lon="4.76605">
        <ele>170</ele>
        <time>2018-10-31T11:56:05Z</time>
      </trkpt>
      <trkpt lat="45.93198" lon="4.766">
        <ele>170</ele>
        <time>2018-10-31T11:56:06Z</time>
      </trkpt>
      <trkpt lat="45.93194" lon="4.76595">
        <ele>170</ele>
        <time>2018-10-31T11:56:07Z</time>
      </trkpt>
      <trkpt lat="45.9319" lon="4.7659">
        <ele>170</ele>
        <time>2018-10-31T11:56:08Z</time>
      </trkpt>
      <trkpt lat="45.93185" lon="4.76586">
        <ele>171</ele>
        <time>2018-10-31T11:56:09Z</time>
      </trkpt>
      <trkpt lat="45.9318" lon="4.76581">
        <ele>170</ele>
        <time>2018-10-31T11:56:10Z</time>
      </trkpt>
      <trkpt lat="45.93174" lon="4.76576">
        <ele>170</ele>
        <time>2018-10-31T11:56:11Z</time>
      </trkpt>
      <trkpt lat="45.9317" lon="4.76569">
        <ele>170</ele>
        <time>2018-10-31T11:56:12Z</time>
      </trkpt>
      <trkpt lat="45.93166" lon="4.76565">
        <ele>170</ele>
        <time>2018-10-31T11:56:13Z</time>
      </trkpt>
      <trkpt lat="45.93163" lon="4.76561">
        <ele>170</ele>
        <time>2018-10-31T11:56:14Z</time>
      </trkpt>
      <trkpt lat="45.93159" lon="4.76558">
        <ele>170</ele>
        <time>2018-10-31T11:56:15Z</time>
      </trkpt>
      <trkpt lat="45.93154" lon="4.76553">
        <ele>170</ele>
        <time>2018-10-31T11:56:16Z</time>
      </trkpt>
      <trkpt lat="45.93149" lon="4.76549">
        <ele>170</ele>
        <time>2018-10-31T11:56:17Z</time>
      </trkpt>
      <trkpt lat="45.93144" lon="4.76544">
        <ele>170</ele>
        <time>2018-10-31T11:56:18Z</time>
      </trkpt>
      <trkpt lat="45.93137" lon="4.76537">
        <ele>170</ele>
        <time>2018-10-31T11:56:20Z</time>
      </trkpt>
      <trkpt lat="45.93131" lon="4.76532">
        <ele>170</ele>
        <time>2018-10-31T11:56:21Z</time>
      </trkpt>
      <trkpt lat="45.93128" lon="4.76527">
        <ele>170</ele>
        <time>2018-10-31T11:56:22Z</time>
      </trkpt>
      <trkpt lat="45.93123" lon="4.76523">
        <ele>170</ele>
        <time>2018-10-31T11:56:23Z</time>
      </trkpt>
      <trkpt lat="45.93118" lon="4.76519">
        <ele>170</ele>
        <time>2018-10-31T11:56:24Z</time>
      </trkpt>
      <trkpt lat="45.93113" lon="4.76515">
        <ele>170</ele>
        <time>2018-10-31T11:56:25Z</time>
      </trkpt>
      <trkpt lat="45.93108" lon="4.7651">
        <ele>170</ele>
        <time>2018-10-31T11:56:26Z</time>
      </trkpt>
      <trkpt lat="45.93104" lon="4.76505">
        <ele>170</ele>
        <time>2018-10-31T11:56:27Z</time>
      </trkpt>
      <trkpt lat="45.93099" lon="4.765">
        <ele>170</ele>
        <time>2018-10-31T11:56:28Z</time>
      </trkpt>
      <trkpt lat="45.93095" lon="4.76496">
        <ele>170</ele>
        <time>2018-10-31T11:56:29Z</time>
      </trkpt>
      <trkpt lat="45.9309" lon="4.76491">
        <ele>170</ele>
        <time>2018-10-31T11:56:30Z</time>
      </trkpt>
      <trkpt lat="45.93086" lon="4.76485">
        <ele>170</ele>
        <time>2018-10-31T11:56:31Z</time>
      </trkpt>
      <trkpt lat="45.93081" lon="4.7648">
        <ele>169</ele>
        <time>2018-10-31T11:56:32Z</time>
      </trkpt>
      <trkpt lat="45.93075" lon="4.76476">
        <ele>169</ele>
        <time>2018-10-31T11:56:33Z</time>
      </trkpt>
      <trkpt lat="45.9307" lon="4.76469">
        <ele>169</ele>
        <time>2018-10-31T11:56:34Z</time>
      </trkpt>
      <trkpt lat="45.93065" lon="4.76463">
        <ele>169</ele>
        <time>2018-10-31T11:56:35Z</time>
      </trkpt>
      <trkpt lat="45.9306" lon="4.76459">
        <ele>169</ele>
        <time>2018-10-31T11:56:36Z</time>
      </trkpt>
      <trkpt lat="45.93055" lon="4.76454">
        <ele>169</ele>
        <time>2018-10-31T11:56:37Z</time>
      </trkpt>
      <trkpt lat="45.9305" lon="4.76449">
        <ele>169</ele>
        <time>2018-10-31T11:56:38Z</time>
      </trkpt>
      <trkpt lat="45.93044" lon="4.76444">
        <ele>169</ele>
        <time>2018-10-31T11:56:39Z</time>
      </trkpt>
      <trkpt lat="45.93038" lon="4.76439">
        <ele>169</ele>
        <time>2018-10-31T11:56:40Z</time>
      </trkpt>
      <trkpt lat="45.93034" lon="4.76434">
        <ele>169</ele>
        <time>2018-10-31T11:56:41Z</time>
      </trkpt>
      <trkpt lat="45.93029" lon="4.7643">
        <ele>169</ele>
        <time>2018-10-31T11:56:42Z</time>
      </trkpt>
      <trkpt lat="45.93024" lon="4.76426">
        <ele>169</ele>
        <time>2018-10-31T11:56:43Z</time>
      </trkpt>
      <trkpt lat="45.9302" lon="4.76421">
        <ele>169</ele>
        <time>2018-10-31T11:56:44Z</time>
      </trkpt>
      <trkpt lat="45.93016" lon="4.76417">
        <ele>169</ele>
        <time>2018-10-31T11:56:45Z</time>
      </trkpt>
      <trkpt lat="45.93011" lon="4.76412">
        <ele>169</ele>
        <time>2018-10-31T11:56:46Z</time>
      </trkpt>
      <trkpt lat="45.93008" lon="4.76406">
        <ele>169</ele>
        <time>2018-10-31T11:56:47Z</time>
      </trkpt>
      <trkpt lat="45.93004" lon="4.76401">
        <ele>169</ele>
        <time>2018-10-31T11:56:48Z</time>
      </trkpt>
      <trkpt lat="45.93" lon="4.76397">
        <ele>169</ele>
        <time>2018-10-31T11:56:49Z</time>
      </trkpt>
      <trkpt lat="45.92996" lon="4.76392">
        <ele>169</ele>
        <time>2018-10-31T11:56:50Z</time>
      </trkpt>
      <trkpt lat="45.92992" lon="4.76388">
        <ele>169</ele>
        <time>2018-10-31T11:56:51Z</time>
      </trkpt>
      <trkpt lat="45.92987" lon="4.76385">
        <ele>169</ele>
        <time>2018-10-31T11:56:52Z</time>
      </trkpt>
      <trkpt lat="45.92982" lon="4.7638">
        <ele>169</ele>
        <time>2018-10-31T11:56:53Z</time>
      </trkpt>
      <trkpt lat="45.92979" lon="4.76375">
        <ele>169</ele>
        <time>2018-10-31T11:56:54Z</time>
      </trkpt>
      <trkpt lat="45.92976" lon="4.76369">
        <ele>169</ele>
        <time>2018-10-31T11:56:55Z</time>
      </trkpt>
      <trkpt lat="45.92972" lon="4.76365">
        <ele>169</ele>
        <time>2018-10-31T11:56:56Z</time>
      </trkpt>
      <trkpt lat="45.92967" lon="4.76361">
        <ele>169</ele>
        <time>2018-10-31T11:56:57Z</time>
      </trkpt>
      <trkpt lat="45.92962" lon="4.76358">
        <ele>169</ele>
        <time>2018-10-31T11:56:58Z</time>
      </trkpt>
      <trkpt lat="45.92958" lon="4.76352">
        <ele>169</ele>
        <time>2018-10-31T11:56:59Z</time>
      </trkpt>
      <trkpt lat="45.92954" lon="4.76346">
        <ele>169</ele>
        <time>2018-10-31T11:57:00Z</time>
      </trkpt>
      <trkpt lat="45.92947" lon="4.76344">
        <ele>169</ele>
        <time>2018-10-31T11:57:01Z</time>
      </trkpt>
      <trkpt lat="45.92943" lon="4.76338">
        <ele>169</ele>
        <time>2018-10-31T11:57:02Z</time>
      </trkpt>
      <trkpt lat="45.92939" lon="4.76333">
        <ele>169</ele>
        <time>2018-10-31T11:57:03Z</time>
      </trkpt>
      <trkpt lat="45.92935" lon="4.76329">
        <ele>169</ele>
        <time>2018-10-31T11:57:04Z</time>
      </trkpt>
      <trkpt lat="45.9293" lon="4.76325">
        <ele>169</ele>
        <time>2018-10-31T11:57:05Z</time>
      </trkpt>
      <trkpt lat="45.92924" lon="4.76321">
        <ele>169</ele>
        <time>2018-10-31T11:57:06Z</time>
      </trkpt>
      <trkpt lat="45.92919" lon="4.76318">
        <ele>169</ele>
        <time>2018-10-31T11:57:07Z</time>
      </trkpt>
      <trkpt lat="45.92915" lon="4.76312">
        <ele>169</ele>
        <time>2018-10-31T11:57:08Z</time>
      </trkpt>
      <trkpt lat="45.92912" lon="4.76307">
        <ele>169</ele>
        <time>2018-10-31T11:57:09Z</time>
      </trkpt>
      <trkpt lat="45.92907" lon="4.76303">
        <ele>169</ele>
        <time>2018-10-31T11:57:10Z</time>
      </trkpt>
      <trkpt lat="45.92902" lon="4.76298">
        <ele>169</ele>
        <time>2018-10-31T11:57:11Z</time>
      </trkpt>
      <trkpt lat="45.92898" lon="4.76293">
        <ele>169</ele>
        <time>2018-10-31T11:57:12Z</time>
      </trkpt>
      <trkpt lat="45.92891" lon="4.7629">
        <ele>169</ele>
        <time>2018-10-31T11:57:13Z</time>
      </trkpt>
      <trkpt lat="45.92887" lon="4.76285">
        <ele>169</ele>
        <time>2018-10-31T11:57:14Z</time>
      </trkpt>
      <trkpt lat="45.92882" lon="4.76282">
        <ele>169</ele>
        <time>2018-10-31T11:57:15Z</time>
      </trkpt>
      <trkpt lat="45.92877" lon="4.76277">
        <ele>169</ele>
        <time>2018-10-31T11:57:16Z</time>
      </trkpt>
      <trkpt lat="45.92872" lon="4.76272">
        <ele>169</ele>
        <time>2018-10-31T11:57:17Z</time>
      </trkpt>
      <trkpt lat="45.92868" lon="4.76267">
        <ele>169</ele>
        <time>2018-10-31T11:57:18Z</time>
      </trkpt>
      <trkpt lat="45.92863" lon="4.76263">
        <ele>169</ele>
        <time>2018-10-31T11:57:19Z</time>
      </trkpt>
      <trkpt lat="45.92858" lon="4.76259">
        <ele>169</ele>
        <time>2018-10-31T11:57:20Z</time>
      </trkpt>
      <trkpt lat="45.92853" lon="4.76253">
        <ele>169</ele>
        <time>2018-10-31T11:57:21Z</time>
      </trkpt>
      <trkpt lat="45.92849" lon="4.76248">
        <ele>169</ele>
        <time>2018-10-31T11:57:22Z</time>
      </trkpt>
      <trkpt lat="45.92845" lon="4.76243">
        <ele>169</ele>
        <time>2018-10-31T11:57:23Z</time>
      </trkpt>
      <trkpt lat="45.92838" lon="4.76239">
        <ele>169</ele>
        <time>2018-10-31T11:57:24Z</time>
      </trkpt>
      <trkpt lat="45.92832" lon="4.76234">
        <ele>168</ele>
        <time>2018-10-31T11:57:25Z</time>
      </trkpt>
      <trkpt lat="45.92828" lon="4.7623">
        <ele>168</ele>
        <time>2018-10-31T11:57:26Z</time>
      </trkpt>
      <trkpt lat="45.92823" lon="4.76225">
        <ele>168</ele>
        <time>2018-10-31T11:57:27Z</time>
      </trkpt>
      <trkpt lat="45.92817" lon="4.76221">
        <ele>168</ele>
        <time>2018-10-31T11:57:28Z</time>
      </trkpt>
      <trkpt lat="45.92813" lon="4.76216">
        <ele>168</ele>
        <time>2018-10-31T11:57:29Z</time>
      </trkpt>
      <trkpt lat="45.92808" lon="4.76211">
        <ele>168</ele>
        <time>2018-10-31T11:57:30Z</time>
      </trkpt>
      <trkpt lat="45.92804" lon="4.76207">
        <ele>168</ele>
        <time>2018-10-31T11:57:31Z</time>
      </trkpt>
      <trkpt lat="45.92799" lon="4.76202">
        <ele>168</ele>
        <time>2018-10-31T11:57:32Z</time>
      </trkpt>
      <trkpt lat="45.92794" lon="4.76198">
        <ele>168</ele>
        <time>2018-10-31T11:57:33Z</time>
      </trkpt>
      <trkpt lat="45.92791" lon="4.76194">
        <ele>168</ele>
        <time>2018-10-31T11:57:34Z</time>
      </trkpt>
      <trkpt lat="45.92786" lon="4.7619">
        <ele>168</ele>
        <time>2018-10-31T11:57:35Z</time>
      </trkpt>
      <trkpt lat="45.92781" lon="4.76187">
        <ele>168</ele>
        <time>2018-10-31T11:57:36Z</time>
      </trkpt>
      <trkpt lat="45.92777" lon="4.76183">
        <ele>167</ele>
        <time>2018-10-31T11:57:37Z</time>
      </trkpt>
      <trkpt lat="45.9277" lon="4.76176">
        <ele>167</ele>
        <time>2018-10-31T11:57:39Z</time>
      </trkpt>
      <trkpt lat="45.92766" lon="4.76173">
        <ele>167</ele>
        <time>2018-10-31T11:57:40Z</time>
      </trkpt>
      <trkpt lat="45.92759" lon="4.76165">
        <ele>167</ele>
        <time>2018-10-31T11:57:42Z</time>
      </trkpt>
      <trkpt lat="45.92755" lon="4.76161">
        <ele>167</ele>
        <time>2018-10-31T11:57:43Z</time>
      </trkpt>
      <trkpt lat="45.92749" lon="4.76156">
        <ele>168</ele>
        <time>2018-10-31T11:57:44Z</time>
      </trkpt>
      <trkpt lat="45.92745" lon="4.76152">
        <ele>168</ele>
        <time>2018-10-31T11:57:45Z</time>
      </trkpt>
      <trkpt lat="45.92741" lon="4.76148">
        <ele>168</ele>
        <time>2018-10-31T11:57:46Z</time>
      </trkpt>
      <trkpt lat="45.92735" lon="4.76145">
        <ele>168</ele>
        <time>2018-10-31T11:57:47Z</time>
      </trkpt>
      <trkpt lat="45.9273" lon="4.76141">
        <ele>168</ele>
        <time>2018-10-31T11:57:48Z</time>
      </trkpt>
      <trkpt lat="45.92725" lon="4.76138">
        <ele>168</ele>
        <time>2018-10-31T11:57:49Z</time>
      </trkpt>
      <trkpt lat="45.9272" lon="4.76134">
        <ele>168</ele>
        <time>2018-10-31T11:57:50Z</time>
      </trkpt>
      <trkpt lat="45.92716" lon="4.7613">
        <ele>168</ele>
        <time>2018-10-31T11:57:51Z</time>
      </trkpt>
      <trkpt lat="45.92712" lon="4.76127">
        <ele>168</ele>
        <time>2018-10-31T11:57:52Z</time>
      </trkpt>
      <trkpt lat="45.92707" lon="4.76123">
        <ele>169</ele>
        <time>2018-10-31T11:57:53Z</time>
      </trkpt>
      <trkpt lat="45.92703" lon="4.76119">
        <ele>169</ele>
        <time>2018-10-31T11:57:54Z</time>
      </trkpt>
      <trkpt lat="45.92698" lon="4.76117">
        <ele>169</ele>
        <time>2018-10-31T11:57:55Z</time>
      </trkpt>
      <trkpt lat="45.92694" lon="4.76114">
        <ele>169</ele>
        <time>2018-10-31T11:57:56Z</time>
      </trkpt>
      <trkpt lat="45.9269" lon="4.76111">
        <ele>169</ele>
        <time>2018-10-31T11:57:57Z</time>
      </trkpt>
      <trkpt lat="45.92683" lon="4.76107">
        <ele>169</ele>
        <time>2018-10-31T11:57:59Z</time>
      </trkpt>
      <trkpt lat="45.9268" lon="4.76105">
        <ele>169</ele>
        <time>2018-10-31T11:58:00Z</time>
      </trkpt>
      <trkpt lat="45.92673" lon="4.76097">
        <ele>169</ele>
        <time>2018-10-31T11:58:02Z</time>
      </trkpt>
      <trkpt lat="45.92668" lon="4.76093">
        <ele>170</ele>
        <time>2018-10-31T11:58:03Z</time>
      </trkpt>
      <trkpt lat="45.92665" lon="4.7609">
        <ele>170</ele>
        <time>2018-10-31T11:58:04Z</time>
      </trkpt>
      <trkpt lat="45.92659" lon="4.76089">
        <ele>170</ele>
        <time>2018-10-31T11:58:05Z</time>
      </trkpt>
      <trkpt lat="45.92652" lon="4.76084">
        <ele>170</ele>
        <time>2018-10-31T11:58:07Z</time>
      </trkpt>
      <trkpt lat="45.92649" lon="4.76081">
        <ele>170</ele>
        <time>2018-10-31T11:58:08Z</time>
      </trkpt>
      <trkpt lat="45.92642" lon="4.76075">
        <ele>170</ele>
        <time>2018-10-31T11:58:10Z</time>
      </trkpt>
      <trkpt lat="45.92639" lon="4.76073">
        <ele>170</ele>
        <time>2018-10-31T11:58:11Z</time>
      </trkpt>
      <trkpt lat="45.92632" lon="4.76068">
        <ele>170</ele>
        <time>2018-10-31T11:58:13Z</time>
      </trkpt>
      <trkpt lat="45.92629" lon="4.76065">
        <ele>170</ele>
        <time>2018-10-31T11:58:14Z</time>
      </trkpt>
      <trkpt lat="45.92622" lon="4.7606">
        <ele>171</ele>
        <time>2018-10-31T11:58:16Z</time>
      </trkpt>
      <trkpt lat="45.92618" lon="4.76057">
        <ele>171</ele>
        <time>2018-10-31T11:58:17Z</time>
      </trkpt>
      <trkpt lat="45.9261" lon="4.7605">
        <ele>171</ele>
        <time>2018-10-31T11:58:19Z</time>
      </trkpt>
      <trkpt lat="45.92606" lon="4.76047">
        <ele>171</ele>
        <time>2018-10-31T11:58:20Z</time>
      </trkpt>
      <trkpt lat="45.92599" lon="4.7604">
        <ele>171</ele>
        <time>2018-10-31T11:58:22Z</time>
      </trkpt>
      <trkpt lat="45.92595" lon="4.76038">
        <ele>171</ele>
        <time>2018-10-31T11:58:23Z</time>
      </trkpt>
      <trkpt lat="45.92587" lon="4.76032">
        <ele>171</ele>
        <time>2018-10-31T11:58:25Z</time>
      </trkpt>
      <trkpt lat="45.92583" lon="4.76028">
        <ele>172</ele>
        <time>2018-10-31T11:58:26Z</time>
      </trkpt>
      <trkpt lat="45.92579" lon="4.76026">
        <ele>172</ele>
        <time>2018-10-31T11:58:27Z</time>
      </trkpt>
      <trkpt lat="45.92574" lon="4.76022">
        <ele>172</ele>
        <time>2018-10-31T11:58:28Z</time>
      </trkpt>
      <trkpt lat="45.9257" lon="4.76019">
        <ele>172</ele>
        <time>2018-10-31T11:58:29Z</time>
      </trkpt>
      <trkpt lat="45.92564" lon="4.76018">
        <ele>172</ele>
        <time>2018-10-31T11:58:30Z</time>
      </trkpt>
      <trkpt lat="45.92559" lon="4.76015">
        <ele>172</ele>
        <time>2018-10-31T11:58:31Z</time>
      </trkpt>
      <trkpt lat="45.92555" lon="4.76013">
        <ele>172</ele>
        <time>2018-10-31T11:58:32Z</time>
      </trkpt>
      <trkpt lat="45.92551" lon="4.76011">
        <ele>172</ele>
        <time>2018-10-31T11:58:33Z</time>
      </trkpt>
      <trkpt lat="45.92546" lon="4.76009">
        <ele>172</ele>
        <time>2018-10-31T11:58:34Z</time>
      </trkpt>
      <trkpt lat="45.92542" lon="4.76005">
        <ele>172</ele>
        <time>2018-10-31T11:58:35Z</time>
      </trkpt>
      <trkpt lat="45.92537" lon="4.76002">
        <ele>172</ele>
        <time>2018-10-31T11:58:36Z</time>
      </trkpt>
      <trkpt lat="45.92529" lon="4.75997">
        <ele>172</ele>
        <time>2018-10-31T11:58:38Z</time>
      </trkpt>
      <trkpt lat="45.92524" lon="4.75994">
        <ele>172</ele>
        <time>2018-10-31T11:58:39Z</time>
      </trkpt>
      <trkpt lat="45.92517" lon="4.75988">
        <ele>172</ele>
        <time>2018-10-31T11:58:41Z</time>
      </trkpt>
      <trkpt lat="45.92514" lon="4.75986">
        <ele>172</ele>
        <time>2018-10-31T11:58:42Z</time>
      </trkpt>
      <trkpt lat="45.92506" lon="4.75981">
        <ele>172</ele>
        <time>2018-10-31T11:58:44Z</time>
      </trkpt>
      <trkpt lat="45.92502" lon="4.75978">
        <ele>172</ele>
        <time>2018-10-31T11:58:45Z</time>
      </trkpt>
      <trkpt lat="45.92498" lon="4.75973">
        <ele>172</ele>
        <time>2018-10-31T11:58:46Z</time>
      </trkpt>
      <trkpt lat="45.92494" lon="4.7597">
        <ele>172</ele>
        <time>2018-10-31T11:58:47Z</time>
      </trkpt>
      <trkpt lat="45.92489" lon="4.75967">
        <ele>172</ele>
        <time>2018-10-31T11:58:48Z</time>
      </trkpt>
      <trkpt lat="45.92483" lon="4.75963">
        <ele>172</ele>
        <time>2018-10-31T11:58:49Z</time>
      </trkpt>
      <trkpt lat="45.92476" lon="4.75961">
        <ele>172</ele>
        <time>2018-10-31T11:58:50Z</time>
      </trkpt>
      <trkpt lat="45.92471" lon="4.75957">
        <ele>172</ele>
        <time>2018-10-31T11:58:51Z</time>
      </trkpt>
      <trkpt lat="45.92466" lon="4.75954">
        <ele>172</ele>
        <time>2018-10-31T11:58:52Z</time>
      </trkpt>
      <trkpt lat="45.9246" lon="4.7595">
        <ele>172</ele>
        <time>2018-10-31T11:58:53Z</time>
      </trkpt>
      <trkpt lat="45.92455" lon="4.75947">
        <ele>172</ele>
        <time>2018-10-31T11:58:54Z</time>
      </trkpt>
      <trkpt lat="45.92449" lon="4.75943">
        <ele>172</ele>
        <time>2018-10-31T11:58:55Z</time>
      </trkpt>
      <trkpt lat="45.92444" lon="4.75939">
        <ele>172</ele>
        <time>2018-10-31T11:58:56Z</time>
      </trkpt>
      <trkpt lat="45.92438" lon="4.75936">
        <ele>172</ele>
        <time>2018-10-31T11:58:57Z</time>
      </trkpt>
      <trkpt lat="45.92432" lon="4.75932">
        <ele>172</ele>
        <time>2018-10-31T11:58:58Z</time>
      </trkpt>
      <trkpt lat="45.92427" lon="4.75929">
        <ele>172</ele>
        <time>2018-10-31T11:58:59Z</time>
      </trkpt>
      <trkpt lat="45.92421" lon="4.75924">
        <ele>172</ele>
        <time>2018-10-31T11:59:00Z</time>
      </trkpt>
      <trkpt lat="45.92415" lon="4.75921">
        <ele>172</ele>
        <time>2018-10-31T11:59:01Z</time>
      </trkpt>
      <trkpt lat="45.92411" lon="4.75917">
        <ele>172</ele>
        <time>2018-10-31T11:59:02Z</time>
      </trkpt>
      <trkpt lat="45.92405" lon="4.75913">
        <ele>172</ele>
        <time>2018-10-31T11:59:03Z</time>
      </trkpt>
      <trkpt lat="45.92399" lon="4.75909">
        <ele>173</ele>
        <time>2018-10-31T11:59:04Z</time>
      </trkpt>
      <trkpt lat="45.92393" lon="4.75905">
        <ele>173</ele>
        <time>2018-10-31T11:59:05Z</time>
      </trkpt>
      <trkpt lat="45.92387" lon="4.75901">
        <ele>173</ele>
        <time>2018-10-31T11:59:06Z</time>
      </trkpt>
      <trkpt lat="45.9238" lon="4.75897">
        <ele>173</ele>
        <time>2018-10-31T11:59:07Z</time>
      </trkpt>
      <trkpt lat="45.92375" lon="4.75894">
        <ele>173</ele>
        <time>2018-10-31T11:59:08Z</time>
      </trkpt>
      <trkpt lat="45.92371" lon="4.7589">
        <ele>173</ele>
        <time>2018-10-31T11:59:09Z</time>
      </trkpt>
      <trkpt lat="45.92366" lon="4.75886">
        <ele>173</ele>
        <time>2018-10-31T11:59:10Z</time>
      </trkpt>
      <trkpt lat="45.92361" lon="4.75882">
        <ele>173</ele>
        <time>2018-10-31T11:59:11Z</time>
      </trkpt>
      <trkpt lat="45.92356" lon="4.75879">
        <ele>173</ele>
        <time>2018-10-31T11:59:12Z</time>
      </trkpt>
      <trkpt lat="45.92352" lon="4.75876">
        <ele>173</ele>
        <time>2018-10-31T11:59:13Z</time>
      </trkpt>
      <trkpt lat="45.92348" lon="4.75873">
        <ele>173</ele>
        <time>2018-10-31T11:59:14Z</time>
      </trkpt>
      <trkpt lat="45.92343" lon="4.7587">
        <ele>173</ele>
        <time>2018-10-31T11:59:15Z</time>
      </trkpt>
      <trkpt lat="45.92339" lon="4.75866">
        <ele>173</ele>
        <time>2018-10-31T11:59:16Z</time>
      </trkpt>
      <trkpt lat="45.92334" lon="4.75863">
        <ele>173</ele>
        <time>2018-10-31T11:59:17Z</time>
      </trkpt>
      <trkpt lat="45.9233" lon="4.7586">
        <ele>173</ele>
        <time>2018-10-31T11:59:18Z</time>
      </trkpt>
      <trkpt lat="45.92325" lon="4.75858">
        <ele>173</ele>
        <time>2018-10-31T11:59:19Z</time>
      </trkpt>
      <trkpt lat="45.9232" lon="4.75855">
        <ele>174</ele>
        <time>2018-10-31T11:59:20Z</time>
      </trkpt>
      <trkpt lat="45.92316" lon="4.75852">
        <ele>173</ele>
        <time>2018-10-31T11:59:21Z</time>
      </trkpt>
      <trkpt lat="45.92312" lon="4.7585">
        <ele>173</ele>
        <time>2018-10-31T11:59:22Z</time>
      </trkpt>
      <trkpt lat="45.92308" lon="4.75848">
        <ele>173</ele>
        <time>2018-10-31T11:59:23Z</time>
      </trkpt>
      <trkpt lat="45.92303" lon="4.75845">
        <ele>173</ele>
        <time>2018-10-31T11:59:24Z</time>
      </trkpt>
      <trkpt lat="45.92299" lon="4.75842">
        <ele>173</ele>
        <time>2018-10-31T11:59:25Z</time>
      </trkpt>
      <trkpt lat="45.92295" lon="4.75839">
        <ele>173</ele>
        <time>2018-10-31T11:59:26Z</time>
      </trkpt>
      <trkpt lat="45.92291" lon="4.75836">
        <ele>173</ele>
        <time>2018-10-31T11:59:27Z</time>
      </trkpt>
      <trkpt lat="45.92283" lon="4.75831">
        <ele>174</ele>
        <time>2018-10-31T11:59:29Z</time>
      </trkpt>
      <trkpt lat="45.92277" lon="4.75827">
        <ele>174</ele>
        <time>2018-10-31T11:59:30Z</time>
      </trkpt>
      <trkpt lat="45.92273" lon="4.75824">
        <ele>174</ele>
        <time>2018-10-31T11:59:31Z</time>
      </trkpt>
      <trkpt lat="45.92269" lon="4.75819">
        <ele>174</ele>
        <time>2018-10-31T11:59:32Z</time>
      </trkpt>
      <trkpt lat="45.92267" lon="4.75813">
        <ele>174</ele>
        <time>2018-10-31T11:59:33Z</time>
      </trkpt>
      <trkpt lat="45.92264" lon="4.75807">
        <ele>174</ele>
        <time>2018-10-31T11:59:34Z</time>
      </trkpt>
      <trkpt lat="45.92263" lon="4.758">
        <ele>174</ele>
        <time>2018-10-31T11:59:35Z</time>
      </trkpt>
      <trkpt lat="45.92261" lon="4.75794">
        <ele>174</ele>
        <time>2018-10-31T11:59:36Z</time>
      </trkpt>
      <trkpt lat="45.92257" lon="4.75784">
        <ele>174</ele>
        <time>2018-10-31T11:59:38Z</time>
      </trkpt>
      <trkpt lat="45.92256" lon="4.75778">
        <ele>174</ele>
        <time>2018-10-31T11:59:39Z</time>
      </trkpt>
      <trkpt lat="45.92255" lon="4.7577">
        <ele>174</ele>
        <time>2018-10-31T11:59:40Z</time>
      </trkpt>
      <trkpt lat="45.92254" lon="4.75763">
        <ele>174</ele>
        <time>2018-10-31T11:59:41Z</time>
      </trkpt>
      <trkpt lat="45.92253" lon="4.75755">
        <ele>174</ele>
        <time>2018-10-31T11:59:42Z</time>
      </trkpt>
      <trkpt lat="45.92251" lon="4.75748">
        <ele>174</ele>
        <time>2018-10-31T11:59:43Z</time>
      </trkpt>
      <trkpt lat="45.92249" lon="4.75741">
        <ele>174</ele>
        <time>2018-10-31T11:59:44Z</time>
      </trkpt>
      <trkpt lat="45.92248" lon="4.75733">
        <ele>174</ele>
        <time>2018-10-31T11:59:45Z</time>
      </trkpt>
      <trkpt lat="45.92246" lon="4.75725">
        <ele>174</ele>
        <time>2018-10-31T11:59:46Z</time>
      </trkpt>
      <trkpt lat="45.92243" lon="4.75719">
        <ele>174</ele>
        <time>2018-10-31T11:59:47Z</time>
      </trkpt>
      <trkpt lat="45.92242" lon="4.75713">
        <ele>174</ele>
        <time>2018-10-31T11:59:48Z</time>
      </trkpt>
      <trkpt lat="45.92239" lon="4.75706">
        <ele>174</ele>
        <time>2018-10-31T11:59:49Z</time>
      </trkpt>
      <trkpt lat="45.92235" lon="4.75701">
        <ele>174</ele>
        <time>2018-10-31T11:59:50Z</time>
      </trkpt>
      <trkpt lat="45.9223" lon="4.75697">
        <ele>174</ele>
        <time>2018-10-31T11:59:51Z</time>
      </trkpt>
      <trkpt lat="45.92226" lon="4.75692">
        <ele>174</ele>
        <time>2018-10-31T11:59:52Z</time>
      </trkpt>
      <trkpt lat="45.92222" lon="4.75689">
        <ele>174</ele>
        <time>2018-10-31T11:59:53Z</time>
      </trkpt>
      <trkpt lat="45.92218" lon="4.75684">
        <ele>174</ele>
        <time>2018-10-31T11:59:54Z</time>
      </trkpt>
      <trkpt lat="45.92213" lon="4.7568">
        <ele>174</ele>
        <time>2018-10-31T11:59:55Z</time>
      </trkpt>
      <trkpt lat="45.92209" lon="4.75676">
        <ele>174</ele>
        <time>2018-10-31T11:59:56Z</time>
      </trkpt>
      <trkpt lat="45.92204" lon="4.75672">
        <ele>174</ele>
        <time>2018-10-31T11:59:57Z</time>
      </trkpt>
      <trkpt lat="45.922" lon="4.75668">
        <ele>174</ele>
        <time>2018-10-31T11:59:58Z</time>
      </trkpt>
      <trkpt lat="45.92196" lon="4.75663">
        <ele>174</ele>
        <time>2018-10-31T11:59:59Z</time>
      </trkpt>
      <trkpt lat="45.92191" lon="4.75659">
        <ele>174</ele>
        <time>2018-10-31T12:00:00Z</time>
      </trkpt>
      <trkpt lat="45.92187" lon="4.75655">
        <ele>174</ele>
        <time>2018-10-31T12:00:01Z</time>
      </trkpt>
      <trkpt lat="45.92182" lon="4.7565">
        <ele>174</ele>
        <time>2018-10-31T12:00:02Z</time>
      </trkpt>
      <trkpt lat="45.92177" lon="4.75645">
        <ele>174</ele>
        <time>2018-10-31T12:00:03Z</time>
      </trkpt>
      <trkpt lat="45.92173" lon="4.7564">
        <ele>174</ele>
        <time>2018-10-31T12:00:04Z</time>
      </trkpt>
      <trkpt lat="45.92168" lon="4.75635">
        <ele>174</ele>
        <time>2018-10-31T12:00:05Z</time>
      </trkpt>
      <trkpt lat="45.92164" lon="4.75631">
        <ele>174</ele>
        <time>2018-10-31T12:00:06Z</time>
      </trkpt>
      <trkpt lat="45.92158" lon="4.75627">
        <ele>174</ele>
        <time>2018-10-31T12:00:07Z</time>
      </trkpt>
      <trkpt lat="45.92154" lon="4.75622">
        <ele>174</ele>
        <time>2018-10-31T12:00:08Z</time>
      </trkpt>
      <trkpt lat="45.9215" lon="4.75618">
        <ele>174</ele>
        <time>2018-10-31T12:00:09Z</time>
      </trkpt>
      <trkpt lat="45.92146" lon="4.75613">
        <ele>174</ele>
        <time>2018-10-31T12:00:10Z</time>
      </trkpt>
      <trkpt lat="45.92142" lon="4.7561">
        <ele>174</ele>
        <time>2018-10-31T12:00:11Z</time>
      </trkpt>
      <trkpt lat="45.92135" lon="4.75602">
        <ele>174</ele>
        <time>2018-10-31T12:00:13Z</time>
      </trkpt>
      <trkpt lat="45.92132" lon="4.75598">
        <ele>174</ele>
        <time>2018-10-31T12:00:14Z</time>
      </trkpt>
      <trkpt lat="45.92126" lon="4.75592">
        <ele>174</ele>
        <time>2018-10-31T12:00:16Z</time>
      </trkpt>
      <trkpt lat="45.92124" lon="4.75588">
        <ele>174</ele>
        <time>2018-10-31T12:00:17Z</time>
      </trkpt>
      <trkpt lat="45.92119" lon="4.75579">
        <ele>174</ele>
        <time>2018-10-31T12:00:20Z</time>
      </trkpt>
      <trkpt lat="45.92117" lon="4.7557">
        <ele>174</ele>
        <time>2018-10-31T12:00:21Z</time>
      </trkpt>
      <trkpt lat="45.92118" lon="4.75561">
        <ele>174</ele>
        <time>2018-10-31T12:00:23Z</time>
      </trkpt>
      <trkpt lat="45.9212" lon="4.75556">
        <ele>174</ele>
        <time>2018-10-31T12:00:24Z</time>
      </trkpt>
      <trkpt lat="45.92123" lon="4.75551">
        <ele>174</ele>
        <time>2018-10-31T12:00:25Z</time>
      </trkpt>
      <trkpt lat="45.92126" lon="4.75545">
        <ele>174</ele>
        <time>2018-10-31T12:00:26Z</time>
      </trkpt>
      <trkpt lat="45.92129" lon="4.7554">
        <ele>174</ele>
        <time>2018-10-31T12:00:27Z</time>
      </trkpt>
      <trkpt lat="45.92132" lon="4.75534">
        <ele>174</ele>
        <time>2018-10-31T12:00:28Z</time>
      </trkpt>
      <trkpt lat="45.92135" lon="4.75529">
        <ele>174</ele>
        <time>2018-10-31T12:00:29Z</time>
      </trkpt>
      <trkpt lat="45.92138" lon="4.75523">
        <ele>174</ele>
        <time>2018-10-31T12:00:30Z</time>
      </trkpt>
      <trkpt lat="45.92142" lon="4.75515">
        <ele>174</ele>
        <time>2018-10-31T12:00:31Z</time>
      </trkpt>
      <trkpt lat="45.92144" lon="4.75508">
        <ele>175</ele>
        <time>2018-10-31T12:00:32Z</time>
      </trkpt>
      <trkpt lat="45.92148" lon="4.75501">
        <ele>175</ele>
        <time>2018-10-31T12:00:33Z</time>
      </trkpt>
      <trkpt lat="45.9215" lon="4.75494">
        <ele>175</ele>
        <time>2018-10-31T12:00:34Z</time>
      </trkpt>
      <trkpt lat="45.92152" lon="4.75488">
        <ele>176</ele>
        <time>2018-10-31T12:00:35Z</time>
      </trkpt>
      <trkpt lat="45.92155" lon="4.75481">
        <ele>176</ele>
        <time>2018-10-31T12:00:36Z</time>
      </trkpt>
      <trkpt lat="45.92157" lon="4.75475">
        <ele>176</ele>
        <time>2018-10-31T12:00:37Z</time>
      </trkpt>
      <trkpt lat="45.9216" lon="4.75469">
        <ele>176</ele>
        <time>2018-10-31T12:00:38Z</time>
      </trkpt>
      <trkpt lat="45.92162" lon="4.75462">
        <ele>176</ele>
        <time>2018-10-31T12:00:39Z</time>
      </trkpt>
      <trkpt lat="45.92165" lon="4.75455">
        <ele>176</ele>
        <time>2018-10-31T12:00:40Z</time>
      </trkpt>
      <trkpt lat="45.92169" lon="4.75446">
        <ele>176</ele>
        <time>2018-10-31T12:00:41Z</time>
      </trkpt>
      <trkpt lat="45.92171" lon="4.75439">
        <ele>177</ele>
        <time>2018-10-31T12:00:42Z</time>
      </trkpt>
      <trkpt lat="45.92174" lon="4.75433">
        <ele>177</ele>
        <time>2018-10-31T12:00:43Z</time>
      </trkpt>
      <trkpt lat="45.92177" lon="4.75427">
        <ele>177</ele>
        <time>2018-10-31T12:00:44Z</time>
      </trkpt>
      <trkpt lat="45.92179" lon="4.75421">
        <ele>177</ele>
        <time>2018-10-31T12:00:45Z</time>
      </trkpt>
      <trkpt lat="45.92182" lon="4.75415">
        <ele>177</ele>
        <time>2018-10-31T12:00:46Z</time>
      </trkpt>
      <trkpt lat="45.92184" lon="4.7541">
        <ele>177</ele>
        <time>2018-10-31T12:00:47Z</time>
      </trkpt>
      <trkpt lat="45.92187" lon="4.75403">
        <ele>177</ele>
        <time>2018-10-31T12:00:48Z</time>
      </trkpt>
      <trkpt lat="45.9219" lon="4.75397">
        <ele>177</ele>
        <time>2018-10-31T12:00:49Z</time>
      </trkpt>
      <trkpt lat="45.92192" lon="4.75391">
        <ele>177</ele>
        <time>2018-10-31T12:00:50Z</time>
      </trkpt>
      <trkpt lat="45.92194" lon="4.75385">
        <ele>177</ele>
        <time>2018-10-31T12:00:51Z</time>
      </trkpt>
      <trkpt lat="45.92196" lon="4.75379">
        <ele>177</ele>
        <time>2018-10-31T12:00:52Z</time>
      </trkpt>
      <trkpt lat="45.92198" lon="4.75372">
        <ele>177</ele>
        <time>2018-10-31T12:00:53Z</time>
      </trkpt>
      <trkpt lat="45.922" lon="4.75366">
        <ele>177</ele>
        <time>2018-10-31T12:00:54Z</time>
      </trkpt>
      <trkpt lat="45.92202" lon="4.7536">
        <ele>177</ele>
        <time>2018-10-31T12:00:55Z</time>
      </trkpt>
      <trkpt lat="45.92204" lon="4.75354">
        <ele>177</ele>
        <time>2018-10-31T12:00:56Z</time>
      </trkpt>
      <trkpt lat="45.92206" lon="4.75346">
        <ele>177</ele>
        <time>2018-10-31T12:00:57Z</time>
      </trkpt>
      <trkpt lat="45.92208" lon="4.75339">
        <ele>177</ele>
        <time>2018-10-31T12:00:58Z</time>
      </trkpt>
      <trkpt lat="45.92209" lon="4.75332">
        <ele>176</ele>
        <time>2018-10-31T12:00:59Z</time>
      </trkpt>
      <trkpt lat="45.92211" lon="4.75323">
        <ele>176</ele>
        <time>2018-10-31T12:01:00Z</time>
      </trkpt>
      <trkpt lat="45.92212" lon="4.75315">
        <ele>176</ele>
        <time>2018-10-31T12:01:01Z</time>
      </trkpt>
      <trkpt lat="45.92213" lon="4.75307">
        <ele>176</ele>
        <time>2018-10-31T12:01:02Z</time>
      </trkpt>
      <trkpt lat="45.92213" lon="4.75297">
        <ele>176</ele>
        <time>2018-10-31T12:01:03Z</time>
      </trkpt>
      <trkpt lat="45.92213" lon="4.75287">
        <ele>176</ele>
        <time>2018-10-31T12:01:04Z</time>
      </trkpt>
      <trkpt lat="45.92213" lon="4.75278">
        <ele>176</ele>
        <time>2018-10-31T12:01:05Z</time>
      </trkpt>
      <trkpt lat="45.92213" lon="4.75269">
        <ele>176</ele>
        <time>2018-10-31T12:01:06Z</time>
      </trkpt>
      <trkpt lat="45.92213" lon="4.7526">
        <ele>176</ele>
        <time>2018-10-31T12:01:07Z</time>
      </trkpt>
      <trkpt lat="45.92213" lon="4.75251">
        <ele>175</ele>
        <time>2018-10-31T12:01:08Z</time>
      </trkpt>
      <trkpt lat="45.92214" lon="4.7524">
        <ele>175</ele>
        <time>2018-10-31T12:01:09Z</time>
      </trkpt>
      <trkpt lat="45.92215" lon="4.7523">
        <ele>175</ele>
        <time>2018-10-31T12:01:10Z</time>
      </trkpt>
      <trkpt lat="45.92216" lon="4.7522">
        <ele>175</ele>
        <time>2018-10-31T12:01:11Z</time>
      </trkpt>
      <trkpt lat="45.92217" lon="4.75211">
        <ele>175</ele>
        <time>2018-10-31T12:01:12Z</time>
      </trkpt>
      <trkpt lat="45.92219" lon="4.75201">
        <ele>175</ele>
        <time>2018-10-31T12:01:13Z</time>
      </trkpt>
      <trkpt lat="45.9222" lon="4.75191">
        <ele>175</ele>
        <time>2018-10-31T12:01:14Z</time>
      </trkpt>
      <trkpt lat="45.92222" lon="4.75182">
        <ele>175</ele>
        <time>2018-10-31T12:01:15Z</time>
      </trkpt>
      <trkpt lat="45.92225" lon="4.75172">
        <ele>175</ele>
        <time>2018-10-31T12:01:16Z</time>
      </trkpt>
      <trkpt lat="45.92229" lon="4.75165">
        <ele>174</ele>
        <time>2018-10-31T12:01:17Z</time>
      </trkpt>
      <trkpt lat="45.92234" lon="4.75157">
        <ele>174</ele>
        <time>2018-10-31T12:01:18Z</time>
      </trkpt>
      <trkpt lat="45.92238" lon="4.75149">
        <ele>174</ele>
        <time>2018-10-31T12:01:19Z</time>
      </trkpt>
      <trkpt lat="45.92241" lon="4.75141">
        <ele>174</ele>
        <time>2018-10-31T12:01:20Z</time>
      </trkpt>
      <trkpt lat="45.92247" lon="4.75131">
        <ele>174</ele>
        <time>2018-10-31T12:01:21Z</time>
      </trkpt>
      <trkpt lat="45.92251" lon="4.75124">
        <ele>174</ele>
        <time>2018-10-31T12:01:22Z</time>
      </trkpt>
      <trkpt lat="45.92257" lon="4.75119">
        <ele>174</ele>
        <time>2018-10-31T12:01:23Z</time>
      </trkpt>
      <trkpt lat="45.92262" lon="4.75113">
        <ele>174</ele>
        <time>2018-10-31T12:01:24Z</time>
      </trkpt>
      <trkpt lat="45.92267" lon="4.75108">
        <ele>174</ele>
        <time>2018-10-31T12:01:25Z</time>
      </trkpt>
      <trkpt lat="45.92272" lon="4.75103">
        <ele>173</ele>
        <time>2018-10-31T12:01:26Z</time>
      </trkpt>
      <trkpt lat="45.92276" lon="4.75098">
        <ele>173</ele>
        <time>2018-10-31T12:01:27Z</time>
      </trkpt>
      <trkpt lat="45.92282" lon="4.75093">
        <ele>173</ele>
        <time>2018-10-31T12:01:28Z</time>
      </trkpt>
      <trkpt lat="45.92287" lon="4.75089">
        <ele>173</ele>
        <time>2018-10-31T12:01:29Z</time>
      </trkpt>
      <trkpt lat="45.92293" lon="4.75084">
        <ele>173</ele>
        <time>2018-10-31T12:01:30Z</time>
      </trkpt>
      <trkpt lat="45.92299" lon="4.75078">
        <ele>172</ele>
        <time>2018-10-31T12:01:31Z</time>
      </trkpt>
      <trkpt lat="45.92304" lon="4.75073">
        <ele>172</ele>
        <time>2018-10-31T12:01:32Z</time>
      </trkpt>
      <trkpt lat="45.92308" lon="4.75067">
        <ele>172</ele>
        <time>2018-10-31T12:01:33Z</time>
      </trkpt>
      <trkpt lat="45.92312" lon="4.75062">
        <ele>172</ele>
        <time>2018-10-31T12:01:34Z</time>
      </trkpt>
      <trkpt lat="45.92316" lon="4.75056">
        <ele>172</ele>
        <time>2018-10-31T12:01:35Z</time>
      </trkpt>
      <trkpt lat="45.9232" lon="4.75051">
        <ele>172</ele>
        <time>2018-10-31T12:01:36Z</time>
      </trkpt>
      <trkpt lat="45.92325" lon="4.75042">
        <ele>171</ele>
        <time>2018-10-31T12:01:38Z</time>
      </trkpt>
      <trkpt lat="45.92329" lon="4.75035">
        <ele>171</ele>
        <time>2018-10-31T12:01:39Z</time>
      </trkpt>
      <trkpt lat="45.92332" lon="4.75028">
        <ele>171</ele>
        <time>2018-10-31T12:01:40Z</time>
      </trkpt>
      <trkpt lat="45.92335" lon="4.75021">
        <ele>170</ele>
        <time>2018-10-31T12:01:41Z</time>
      </trkpt>
      <trkpt lat="45.92338" lon="4.75014">
        <ele>170</ele>
        <time>2018-10-31T12:01:42Z</time>
      </trkpt>
      <trkpt lat="45.92341" lon="4.75007">
        <ele>170</ele>
        <time>2018-10-31T12:01:43Z</time>
      </trkpt>
      <trkpt lat="45.92344" lon="4.74999">
        <ele>170</ele>
        <time>2018-10-31T12:01:44Z</time>
      </trkpt>
      <trkpt lat="45.92347" lon="4.74991">
        <ele>170</ele>
        <time>2018-10-31T12:01:45Z</time>
      </trkpt>
      <trkpt lat="45.9235" lon="4.74982">
        <ele>170</ele>
        <time>2018-10-31T12:01:46Z</time>
      </trkpt>
      <trkpt lat="45.92353" lon="4.74974">
        <ele>170</ele>
        <time>2018-10-31T12:01:47Z</time>
      </trkpt>
      <trkpt lat="45.92357" lon="4.74966">
        <ele>170</ele>
        <time>2018-10-31T12:01:48Z</time>
      </trkpt>
      <trkpt lat="45.9236" lon="4.74958">
        <ele>170</ele>
        <time>2018-10-31T12:01:49Z</time>
      </trkpt>
      <trkpt lat="45.92363" lon="4.7495">
        <ele>170</ele>
        <time>2018-10-31T12:01:50Z</time>
      </trkpt>
      <trkpt lat="45.92366" lon="4.74942">
        <ele>170</ele>
        <time>2018-10-31T12:01:51Z</time>
      </trkpt>
      <trkpt lat="45.9237" lon="4.74935">
        <ele>170</ele>
        <time>2018-10-31T12:01:52Z</time>
      </trkpt>
      <trkpt lat="45.92373" lon="4.74928">
        <ele>170</ele>
        <time>2018-10-31T12:01:53Z</time>
      </trkpt>
      <trkpt lat="45.92375" lon="4.74921">
        <ele>170</ele>
        <time>2018-10-31T12:01:54Z</time>
      </trkpt>
      <trkpt lat="45.92378" lon="4.74914">
        <ele>171</ele>
        <time>2018-10-31T12:01:55Z</time>
      </trkpt>
      <trkpt lat="45.92381" lon="4.74907">
        <ele>171</ele>
        <time>2018-10-31T12:01:56Z</time>
      </trkpt>
      <trkpt lat="45.92383" lon="4.749">
        <ele>171</ele>
        <time>2018-10-31T12:01:57Z</time>
      </trkpt>
      <trkpt lat="45.92385" lon="4.74893">
        <ele>171</ele>
        <time>2018-10-31T12:01:58Z</time>
      </trkpt>
      <trkpt lat="45.92389" lon="4.74884">
        <ele>171</ele>
        <time>2018-10-31T12:01:59Z</time>
      </trkpt>
      <trkpt lat="45.92391" lon="4.74878">
        <ele>171</ele>
        <time>2018-10-31T12:02:00Z</time>
      </trkpt>
      <trkpt lat="45.92394" lon="4.74872">
        <ele>171</ele>
        <time>2018-10-31T12:02:01Z</time>
      </trkpt>
      <trkpt lat="45.92396" lon="4.74865">
        <ele>171</ele>
        <time>2018-10-31T12:02:02Z</time>
      </trkpt>
      <trkpt lat="45.92399" lon="4.74857">
        <ele>171</ele>
        <time>2018-10-31T12:02:03Z</time>
      </trkpt>
      <trkpt lat="45.92401" lon="4.7485">
        <ele>171</ele>
        <time>2018-10-31T12:02:04Z</time>
      </trkpt>
      <trkpt lat="45.92403" lon="4.74843">
        <ele>171</ele>
        <time>2018-10-31T12:02:05Z</time>
      </trkpt>
      <trkpt lat="45.92405" lon="4.74835">
        <ele>171</ele>
        <time>2018-10-31T12:02:06Z</time>
      </trkpt>
      <trkpt lat="45.92406" lon="4.74827">
        <ele>171</ele>
        <time>2018-10-31T12:02:07Z</time>
      </trkpt>
      <trkpt lat="45.92407" lon="4.74819">
        <ele>171</ele>
        <time>2018-10-31T12:02:08Z</time>
      </trkpt>
      <trkpt lat="45.92408" lon="4.74811">
        <ele>171</ele>
        <time>2018-10-31T12:02:09Z</time>
      </trkpt>
      <trkpt lat="45.92409" lon="4.74803">
        <ele>171</ele>
        <time>2018-10-31T12:02:10Z</time>
      </trkpt>
      <trkpt lat="45.9241" lon="4.74796">
        <ele>171</ele>
        <time>2018-10-31T12:02:11Z</time>
      </trkpt>
      <trkpt lat="45.92412" lon="4.74788">
        <ele>171</ele>
        <time>2018-10-31T12:02:12Z</time>
      </trkpt>
      <trkpt lat="45.92415" lon="4.7478">
        <ele>171</ele>
        <time>2018-10-31T12:02:13Z</time>
      </trkpt>
      <trkpt lat="45.92417" lon="4.74774">
        <ele>171</ele>
        <time>2018-10-31T12:02:14Z</time>
      </trkpt>
      <trkpt lat="45.92419" lon="4.74766">
        <ele>171</ele>
        <time>2018-10-31T12:02:15Z</time>
      </trkpt>
      <trkpt lat="45.9242" lon="4.74759">
        <ele>171</ele>
        <time>2018-10-31T12:02:16Z</time>
      </trkpt>
      <trkpt lat="45.92422" lon="4.74754">
        <ele>172</ele>
        <time>2018-10-31T12:02:17Z</time>
      </trkpt>
      <trkpt lat="45.92424" lon="4.74749">
        <ele>172</ele>
        <time>2018-10-31T12:02:18Z</time>
      </trkpt>
      <trkpt lat="45.92426" lon="4.74741">
        <ele>171</ele>
        <time>2018-10-31T12:02:19Z</time>
      </trkpt>
      <trkpt lat="45.92429" lon="4.74734">
        <ele>171</ele>
        <time>2018-10-31T12:02:20Z</time>
      </trkpt>
      <trkpt lat="45.92431" lon="4.74727">
        <ele>171</ele>
        <time>2018-10-31T12:02:21Z</time>
      </trkpt>
      <trkpt lat="45.92434" lon="4.74719">
        <ele>171</ele>
        <time>2018-10-31T12:02:22Z</time>
      </trkpt>
      <trkpt lat="45.92437" lon="4.74711">
        <ele>171</ele>
        <time>2018-10-31T12:02:23Z</time>
      </trkpt>
      <trkpt lat="45.92439" lon="4.74703">
        <ele>171</ele>
        <time>2018-10-31T12:02:24Z</time>
      </trkpt>
      <trkpt lat="45.92443" lon="4.74696">
        <ele>171</ele>
        <time>2018-10-31T12:02:25Z</time>
      </trkpt>
      <trkpt lat="45.92446" lon="4.74688">
        <ele>171</ele>
        <time>2018-10-31T12:02:26Z</time>
      </trkpt>
      <trkpt lat="45.9245" lon="4.74678">
        <ele>171</ele>
        <time>2018-10-31T12:02:27Z</time>
      </trkpt>
      <trkpt lat="45.92454" lon="4.7467">
        <ele>171</ele>
        <time>2018-10-31T12:02:28Z</time>
      </trkpt>
      <trkpt lat="45.92458" lon="4.74662">
        <ele>171</ele>
        <time>2018-10-31T12:02:29Z</time>
      </trkpt>
      <trkpt lat="45.92462" lon="4.74656">
        <ele>171</ele>
        <time>2018-10-31T12:02:30Z</time>
      </trkpt>
      <trkpt lat="45.92465" lon="4.74649">
        <ele>171</ele>
        <time>2018-10-31T12:02:31Z</time>
      </trkpt>
      <trkpt lat="45.92469" lon="4.74641">
        <ele>171</ele>
        <time>2018-10-31T12:02:32Z</time>
      </trkpt>
      <trkpt lat="45.92473" lon="4.74635">
        <ele>171</ele>
        <time>2018-10-31T12:02:33Z</time>
      </trkpt>
      <trkpt lat="45.92478" lon="4.74629">
        <ele>171</ele>
        <time>2018-10-31T12:02:34Z</time>
      </trkpt>
      <trkpt lat="45.92482" lon="4.74625">
        <ele>171</ele>
        <time>2018-10-31T12:02:35Z</time>
      </trkpt>
      <trkpt lat="45.92487" lon="4.74618">
        <ele>171</ele>
        <time>2018-10-31T12:02:36Z</time>
      </trkpt>
      <trkpt lat="45.92492" lon="4.74612">
        <ele>171</ele>
        <time>2018-10-31T12:02:37Z</time>
      </trkpt>
      <trkpt lat="45.92497" lon="4.74606">
        <ele>171</ele>
        <time>2018-10-31T12:02:38Z</time>
      </trkpt>
      <trkpt lat="45.92501" lon="4.74601">
        <ele>171</ele>
        <time>2018-10-31T12:02:39Z</time>
      </trkpt>
      <trkpt lat="45.92506" lon="4.74595">
        <ele>171</ele>
        <time>2018-10-31T12:02:40Z</time>
      </trkpt>
      <trkpt lat="45.9251" lon="4.7459">
        <ele>171</ele>
        <time>2018-10-31T12:02:41Z</time>
      </trkpt>
      <trkpt lat="45.92514" lon="4.74585">
        <ele>171</ele>
        <time>2018-10-31T12:02:42Z</time>
      </trkpt>
      <trkpt lat="45.92518" lon="4.7458">
        <ele>171</ele>
        <time>2018-10-31T12:02:43Z</time>
      </trkpt>
      <trkpt lat="45.92522" lon="4.74575">
        <ele>171</ele>
        <time>2018-10-31T12:02:44Z</time>
      </trkpt>
      <trkpt lat="45.92526" lon="4.74571">
        <ele>171</ele>
        <time>2018-10-31T12:02:45Z</time>
      </trkpt>
      <trkpt lat="45.92531" lon="4.74565">
        <ele>171</ele>
        <time>2018-10-31T12:02:46Z</time>
      </trkpt>
      <trkpt lat="45.92535" lon="4.74561">
        <ele>171</ele>
        <time>2018-10-31T12:02:47Z</time>
      </trkpt>
      <trkpt lat="45.9254" lon="4.74554">
        <ele>171</ele>
        <time>2018-10-31T12:02:48Z</time>
      </trkpt>
      <trkpt lat="45.92544" lon="4.74547">
        <ele>170</ele>
        <time>2018-10-31T12:02:49Z</time>
      </trkpt>
      <trkpt lat="45.92548" lon="4.7454">
        <ele>170</ele>
        <time>2018-10-31T12:02:50Z</time>
      </trkpt>
      <trkpt lat="45.92552" lon="4.74533">
        <ele>170</ele>
        <time>2018-10-31T12:02:51Z</time>
      </trkpt>
      <trkpt lat="45.92555" lon="4.74525">
        <ele>170</ele>
        <time>2018-10-31T12:02:52Z</time>
      </trkpt>
      <trkpt lat="45.92559" lon="4.74518">
        <ele>170</ele>
        <time>2018-10-31T12:02:53Z</time>
      </trkpt>
      <trkpt lat="45.92563" lon="4.74512">
        <ele>170</ele>
        <time>2018-10-31T12:02:54Z</time>
      </trkpt>
      <trkpt lat="45.92567" lon="4.74504">
        <ele>170</ele>
        <time>2018-10-31T12:02:55Z</time>
      </trkpt>
      <trkpt lat="45.92571" lon="4.74498">
        <ele>170</ele>
        <time>2018-10-31T12:02:56Z</time>
      </trkpt>
      <trkpt lat="45.92574" lon="4.74493">
        <ele>170</ele>
        <time>2018-10-31T12:02:57Z</time>
      </trkpt>
      <trkpt lat="45.92577" lon="4.74487">
        <ele>170</ele>
        <time>2018-10-31T12:02:58Z</time>
      </trkpt>
      <trkpt lat="45.92581" lon="4.74482">
        <ele>170</ele>
        <time>2018-10-31T12:02:59Z</time>
      </trkpt>
      <trkpt lat="45.92585" lon="4.74475">
        <ele>170</ele>
        <time>2018-10-31T12:03:00Z</time>
      </trkpt>
      <trkpt lat="45.92588" lon="4.74468">
        <ele>170</ele>
        <time>2018-10-31T12:03:01Z</time>
      </trkpt>
      <trkpt lat="45.92591" lon="4.74461">
        <ele>170</ele>
        <time>2018-10-31T12:03:02Z</time>
      </trkpt>
      <trkpt lat="45.92595" lon="4.74455">
        <ele>170</ele>
        <time>2018-10-31T12:03:03Z</time>
      </trkpt>
      <trkpt lat="45.92598" lon="4.74448">
        <ele>170</ele>
        <time>2018-10-31T12:03:04Z</time>
      </trkpt>
      <trkpt lat="45.92601" lon="4.74442">
        <ele>170</ele>
        <time>2018-10-31T12:03:05Z</time>
      </trkpt>
      <trkpt lat="45.92605" lon="4.74436">
        <ele>170</ele>
        <time>2018-10-31T12:03:06Z</time>
      </trkpt>
      <trkpt lat="45.92609" lon="4.74429">
        <ele>170</ele>
        <time>2018-10-31T12:03:07Z</time>
      </trkpt>
      <trkpt lat="45.92612" lon="4.74422">
        <ele>170</ele>
        <time>2018-10-31T12:03:08Z</time>
      </trkpt>
      <trkpt lat="45.92617" lon="4.74415">
        <ele>170</ele>
        <time>2018-10-31T12:03:09Z</time>
      </trkpt>
      <trkpt lat="45.92621" lon="4.74408">
        <ele>170</ele>
        <time>2018-10-31T12:03:10Z</time>
      </trkpt>
      <trkpt lat="45.92624" lon="4.74402">
        <ele>170</ele>
        <time>2018-10-31T12:03:11Z</time>
      </trkpt>
      <trkpt lat="45.92627" lon="4.74396">
        <ele>170</ele>
        <time>2018-10-31T12:03:12Z</time>
      </trkpt>
      <trkpt lat="45.92631" lon="4.74389">
        <ele>170</ele>
        <time>2018-10-31T12:03:13Z</time>
      </trkpt>
      <trkpt lat="45.92634" lon="4.74384">
        <ele>170</ele>
        <time>2018-10-31T12:03:14Z</time>
      </trkpt>
      <trkpt lat="45.92637" lon="4.74378">
        <ele>170</ele>
        <time>2018-10-31T12:03:15Z</time>
      </trkpt>
      <trkpt lat="45.9264" lon="4.74373">
        <ele>171</ele>
        <time>2018-10-31T12:03:16Z</time>
      </trkpt>
      <trkpt lat="45.92642" lon="4.74367">
        <ele>171</ele>
        <time>2018-10-31T12:03:17Z</time>
      </trkpt>
      <trkpt lat="45.92646" lon="4.74362">
        <ele>171</ele>
        <time>2018-10-31T12:03:18Z</time>
      </trkpt>
      <trkpt lat="45.92649" lon="4.74357">
        <ele>171</ele>
        <time>2018-10-31T12:03:19Z</time>
      </trkpt>
      <trkpt lat="45.92652" lon="4.74351">
        <ele>171</ele>
        <time>2018-10-31T12:03:20Z</time>
      </trkpt>
      <trkpt lat="45.92655" lon="4.74345">
        <ele>171</ele>
        <time>2018-10-31T12:03:21Z</time>
      </trkpt>
      <trkpt lat="45.92658" lon="4.7434">
        <ele>171</ele>
        <time>2018-10-31T12:03:22Z</time>
      </trkpt>
      <trkpt lat="45.92661" lon="4.74333">
        <ele>171</ele>
        <time>2018-10-31T12:03:23Z</time>
      </trkpt>
      <trkpt lat="45.92664" lon="4.74326">
        <ele>171</ele>
        <time>2018-10-31T12:03:24Z</time>
      </trkpt>
      <trkpt lat="45.92667" lon="4.7432">
        <ele>171</ele>
        <time>2018-10-31T12:03:25Z</time>
      </trkpt>
      <trkpt lat="45.92671" lon="4.74313">
        <ele>171</ele>
        <time>2018-10-31T12:03:26Z</time>
      </trkpt>
      <trkpt lat="45.92674" lon="4.74307">
        <ele>171</ele>
        <time>2018-10-31T12:03:27Z</time>
      </trkpt>
      <trkpt lat="45.92677" lon="4.74301">
        <ele>171</ele>
        <time>2018-10-31T12:03:28Z</time>
      </trkpt>
      <trkpt lat="45.92682" lon="4.74294">
        <ele>171</ele>
        <time>2018-10-31T12:03:29Z</time>
      </trkpt>
      <trkpt lat="45.92686" lon="4.74288">
        <ele>171</ele>
        <time>2018-10-31T12:03:30Z</time>
      </trkpt>
      <trkpt lat="45.9269" lon="4.7428">
        <ele>171</ele>
        <time>2018-10-31T12:03:31Z</time>
      </trkpt>
      <trkpt lat="45.92693" lon="4.74275">
        <ele>171</ele>
        <time>2018-10-31T12:03:32Z</time>
      </trkpt>
      <trkpt lat="45.92696" lon="4.74268">
        <ele>171</ele>
        <time>2018-10-31T12:03:33Z</time>
      </trkpt>
      <trkpt lat="45.927" lon="4.74262">
        <ele>171</ele>
        <time>2018-10-31T12:03:34Z</time>
      </trkpt>
      <trkpt lat="45.92703" lon="4.74256">
        <ele>171</ele>
        <time>2018-10-31T12:03:35Z</time>
      </trkpt>
      <trkpt lat="45.92708" lon="4.74251">
        <ele>171</ele>
        <time>2018-10-31T12:03:36Z</time>
      </trkpt>
      <trkpt lat="45.92712" lon="4.74245">
        <ele>171</ele>
        <time>2018-10-31T12:03:37Z</time>
      </trkpt>
      <trkpt lat="45.92715" lon="4.74239">
        <ele>171</ele>
        <time>2018-10-31T12:03:38Z</time>
      </trkpt>
      <trkpt lat="45.92719" lon="4.74234">
        <ele>171</ele>
        <time>2018-10-31T12:03:39Z</time>
      </trkpt>
      <trkpt lat="45.92723" lon="4.74229">
        <ele>171</ele>
        <time>2018-10-31T12:03:40Z</time>
      </trkpt>
      <trkpt lat="45.92727" lon="4.74223">
        <ele>171</ele>
        <time>2018-10-31T12:03:41Z</time>
      </trkpt>
      <trkpt lat="45.92731" lon="4.74217">
        <ele>171</ele>
        <time>2018-10-31T12:03:42Z</time>
      </trkpt>
      <trkpt lat="45.92735" lon="4.74212">
        <ele>171</ele>
        <time>2018-10-31T12:03:43Z</time>
      </trkpt>
      <trkpt lat="45.92739" lon="4.74205">
        <ele>171</ele>
        <time>2018-10-31T12:03:44Z</time>
      </trkpt>
      <trkpt lat="45.92743" lon="4.742">
        <ele>171</ele>
        <time>2018-10-31T12:03:45Z</time>
      </trkpt>
      <trkpt lat="45.92748" lon="4.74194">
        <ele>171</ele>
        <time>2018-10-31T12:03:46Z</time>
      </trkpt>
      <trkpt lat="45.92752" lon="4.74188">
        <ele>172</ele>
        <time>2018-10-31T12:03:47Z</time>
      </trkpt>
      <trkpt lat="45.92756" lon="4.74182">
        <ele>172</ele>
        <time>2018-10-31T12:03:48Z</time>
      </trkpt>
      <trkpt lat="45.92761" lon="4.74177">
        <ele>172</ele>
        <time>2018-10-31T12:03:49Z</time>
      </trkpt>
      <trkpt lat="45.92766" lon="4.74172">
        <ele>172</ele>
        <time>2018-10-31T12:03:50Z</time>
      </trkpt>
      <trkpt lat="45.92771" lon="4.74167">
        <ele>172</ele>
        <time>2018-10-31T12:03:51Z</time>
      </trkpt>
      <trkpt lat="45.92776" lon="4.74162">
        <ele>172</ele>
        <time>2018-10-31T12:03:52Z</time>
      </trkpt>
      <trkpt lat="45.92781" lon="4.74157">
        <ele>172</ele>
        <time>2018-10-31T12:03:53Z</time>
      </trkpt>
      <trkpt lat="45.92785" lon="4.74152">
        <ele>172</ele>
        <time>2018-10-31T12:03:54Z</time>
      </trkpt>
      <trkpt lat="45.9279" lon="4.74148">
        <ele>172</ele>
        <time>2018-10-31T12:03:55Z</time>
      </trkpt>
      <trkpt lat="45.92794" lon="4.74143">
        <ele>172</ele>
        <time>2018-10-31T12:03:56Z</time>
      </trkpt>
      <trkpt lat="45.92799" lon="4.74139">
        <ele>172</ele>
        <time>2018-10-31T12:03:57Z</time>
      </trkpt>
      <trkpt lat="45.92803" lon="4.74134">
        <ele>172</ele>
        <time>2018-10-31T12:03:58Z</time>
      </trkpt>
      <trkpt lat="45.92808" lon="4.7413">
        <ele>172</ele>
        <time>2018-10-31T12:03:59Z</time>
      </trkpt>
      <trkpt lat="45.92812" lon="4.74124">
        <ele>172</ele>
        <time>2018-10-31T12:04:00Z</time>
      </trkpt>
      <trkpt lat="45.92816" lon="4.74119">
        <ele>172</ele>
        <time>2018-10-31T12:04:01Z</time>
      </trkpt>
      <trkpt lat="45.92821" lon="4.74113">
        <ele>172</ele>
        <time>2018-10-31T12:04:02Z</time>
      </trkpt>
      <trkpt lat="45.92826" lon="4.74109">
        <ele>171</ele>
        <time>2018-10-31T12:04:03Z</time>
      </trkpt>
      <trkpt lat="45.92831" lon="4.74103">
        <ele>171</ele>
        <time>2018-10-31T12:04:04Z</time>
      </trkpt>
      <trkpt lat="45.92835" lon="4.74099">
        <ele>171</ele>
        <time>2018-10-31T12:04:05Z</time>
      </trkpt>
      <trkpt lat="45.9284" lon="4.74093">
        <ele>171</ele>
        <time>2018-10-31T12:04:06Z</time>
      </trkpt>
      <trkpt lat="45.92844" lon="4.74086">
        <ele>171</ele>
        <time>2018-10-31T12:04:07Z</time>
      </trkpt>
      <trkpt lat="45.92848" lon="4.7408">
        <ele>172</ele>
        <time>2018-10-31T12:04:08Z</time>
      </trkpt>
      <trkpt lat="45.92853" lon="4.74075">
        <ele>172</ele>
        <time>2018-10-31T12:04:09Z</time>
      </trkpt>
      <trkpt lat="45.92856" lon="4.7407">
        <ele>172</ele>
        <time>2018-10-31T12:04:10Z</time>
      </trkpt>
      <trkpt lat="45.9286" lon="4.74065">
        <ele>172</ele>
        <time>2018-10-31T12:04:11Z</time>
      </trkpt>
      <trkpt lat="45.92864" lon="4.74061">
        <ele>172</ele>
        <time>2018-10-31T12:04:12Z</time>
      </trkpt>
      <trkpt lat="45.92868" lon="4.74056">
        <ele>172</ele>
        <time>2018-10-31T12:04:13Z</time>
      </trkpt>
      <trkpt lat="45.92871" lon="4.74052">
        <ele>172</ele>
        <time>2018-10-31T12:04:14Z</time>
      </trkpt>
      <trkpt lat="45.92876" lon="4.74048">
        <ele>172</ele>
        <time>2018-10-31T12:04:15Z</time>
      </trkpt>
      <trkpt lat="45.9288" lon="4.74045">
        <ele>172</ele>
        <time>2018-10-31T12:04:16Z</time>
      </trkpt>
      <trkpt lat="45.92886" lon="4.74043">
        <ele>172</ele>
        <time>2018-10-31T12:04:17Z</time>
      </trkpt>
      <trkpt lat="45.92891" lon="4.74043">
        <ele>172</ele>
        <time>2018-10-31T12:04:18Z</time>
      </trkpt>
      <trkpt lat="45.92897" lon="4.74042">
        <ele>172</ele>
        <time>2018-10-31T12:04:19Z</time>
      </trkpt>
      <trkpt lat="45.92902" lon="4.74041">
        <ele>172</ele>
        <time>2018-10-31T12:04:20Z</time>
      </trkpt>
      <trkpt lat="45.92907" lon="4.74038">
        <ele>172</ele>
        <time>2018-10-31T12:04:21Z</time>
      </trkpt>
      <trkpt lat="45.92912" lon="4.74034">
        <ele>172</ele>
        <time>2018-10-31T12:04:22Z</time>
      </trkpt>
      <trkpt lat="45.92915" lon="4.74028">
        <ele>172</ele>
        <time>2018-10-31T12:04:23Z</time>
      </trkpt>
      <trkpt lat="45.92917" lon="4.74022">
        <ele>172</ele>
        <time>2018-10-31T12:04:24Z</time>
      </trkpt>
      <trkpt lat="45.92919" lon="4.74013">
        <ele>172</ele>
        <time>2018-10-31T12:04:25Z</time>
      </trkpt>
      <trkpt lat="45.92918" lon="4.74006">
        <ele>172</ele>
        <time>2018-10-31T12:04:26Z</time>
      </trkpt>
      <trkpt lat="45.92917" lon="4.73999">
        <ele>172</ele>
        <time>2018-10-31T12:04:27Z</time>
      </trkpt>
      <trkpt lat="45.92915" lon="4.73993">
        <ele>172</ele>
        <time>2018-10-31T12:04:28Z</time>
      </trkpt>
      <trkpt lat="45.92911" lon="4.73988">
        <ele>172</ele>
        <time>2018-10-31T12:04:29Z</time>
      </trkpt>
      <trkpt lat="45.92904" lon="4.73981">
        <ele>172</ele>
        <time>2018-10-31T12:04:31Z</time>
      </trkpt>
      <trkpt lat="45.929" lon="4.73978">
        <ele>172</ele>
        <time>2018-10-31T12:04:32Z</time>
      </trkpt>
      <trkpt lat="45.92895" lon="4.73974">
        <ele>172</ele>
        <time>2018-10-31T12:04:33Z</time>
      </trkpt>
      <trkpt lat="45.92892" lon="4.73968">
        <ele>172</ele>
        <time>2018-10-31T12:04:34Z</time>
      </trkpt>
      <trkpt lat="45.92888" lon="4.73962">
        <ele>172</ele>
        <time>2018-10-31T12:04:35Z</time>
      </trkpt>
      <trkpt lat="45.92886" lon="4.73954">
        <ele>172</ele>
        <time>2018-10-31T12:04:36Z</time>
      </trkpt>
      <trkpt lat="45.92886" lon="4.73944">
        <ele>172</ele>
        <time>2018-10-31T12:04:37Z</time>
      </trkpt>
      <trkpt lat="45.92885" lon="4.73935">
        <ele>172</ele>
        <time>2018-10-31T12:04:38Z</time>
      </trkpt>
      <trkpt lat="45.92884" lon="4.73925">
        <ele>172</ele>
        <time>2018-10-31T12:04:39Z</time>
      </trkpt>
      <trkpt lat="45.92884" lon="4.73916">
        <ele>173</ele>
        <time>2018-10-31T12:04:40Z</time>
      </trkpt>
      <trkpt lat="45.92883" lon="4.73907">
        <ele>173</ele>
        <time>2018-10-31T12:04:41Z</time>
      </trkpt>
      <trkpt lat="45.92882" lon="4.73899">
        <ele>173</ele>
        <time>2018-10-31T12:04:42Z</time>
      </trkpt>
      <trkpt lat="45.92881" lon="4.7389">
        <ele>173</ele>
        <time>2018-10-31T12:04:43Z</time>
      </trkpt>
      <trkpt lat="45.92879" lon="4.73881">
        <ele>173</ele>
        <time>2018-10-31T12:04:44Z</time>
      </trkpt>
      <trkpt lat="45.92877" lon="4.73873">
        <ele>173</ele>
        <time>2018-10-31T12:04:45Z</time>
      </trkpt>
      <trkpt lat="45.92874" lon="4.73865">
        <ele>173</ele>
        <time>2018-10-31T12:04:46Z</time>
      </trkpt>
      <trkpt lat="45.92872" lon="4.73857">
        <ele>173</ele>
        <time>2018-10-31T12:04:47Z</time>
      </trkpt>
      <trkpt lat="45.9287" lon="4.73849">
        <ele>173</ele>
        <time>2018-10-31T12:04:48Z</time>
      </trkpt>
      <trkpt lat="45.92868" lon="4.73842">
        <ele>173</ele>
        <time>2018-10-31T12:04:49Z</time>
      </trkpt>
      <trkpt lat="45.92865" lon="4.73834">
        <ele>173</ele>
        <time>2018-10-31T12:04:50Z</time>
      </trkpt>
      <trkpt lat="45.92863" lon="4.73826">
        <ele>173</ele>
        <time>2018-10-31T12:04:51Z</time>
      </trkpt>
      <trkpt lat="45.92861" lon="4.73819">
        <ele>173</ele>
        <time>2018-10-31T12:04:52Z</time>
      </trkpt>
      <trkpt lat="45.92858" lon="4.73812">
        <ele>173</ele>
        <time>2018-10-31T12:04:53Z</time>
      </trkpt>
      <trkpt lat="45.92856" lon="4.73806">
        <ele>173</ele>
        <time>2018-10-31T12:04:54Z</time>
      </trkpt>
      <trkpt lat="45.92853" lon="4.738">
        <ele>173</ele>
        <time>2018-10-31T12:04:55Z</time>
      </trkpt>
      <trkpt lat="45.9285" lon="4.73795">
        <ele>173</ele>
        <time>2018-10-31T12:04:56Z</time>
      </trkpt>
      <trkpt lat="45.92846" lon="4.73791">
        <ele>173</ele>
        <time>2018-10-31T12:04:57Z</time>
      </trkpt>
      <trkpt lat="45.92842" lon="4.73787">
        <ele>173</ele>
        <time>2018-10-31T12:04:58Z</time>
      </trkpt>
      <trkpt lat="45.92835" lon="4.73782">
        <ele>173</ele>
        <time>2018-10-31T12:05:00Z</time>
      </trkpt>
      <trkpt lat="45.92832" lon="4.73779">
        <ele>173</ele>
        <time>2018-10-31T12:05:01Z</time>
      </trkpt>
      <trkpt lat="45.92824" lon="4.73777">
        <ele>173</ele>
        <time>2018-10-31T12:05:03Z</time>
      </trkpt>
      <trkpt lat="45.9282" lon="4.73776">
        <ele>173</ele>
        <time>2018-10-31T12:05:04Z</time>
      </trkpt>
      <trkpt lat="45.92812" lon="4.73771">
        <ele>173</ele>
        <time>2018-10-31T12:05:06Z</time>
      </trkpt>
      <trkpt lat="45.92809" lon="4.73768">
        <ele>173</ele>
        <time>2018-10-31T12:05:07Z</time>
      </trkpt>
      <trkpt lat="45.92802" lon="4.73763">
        <ele>173</ele>
        <time>2018-10-31T12:05:09Z</time>
      </trkpt>
      <trkpt lat="45.92799" lon="4.7376">
        <ele>173</ele>
        <time>2018-10-31T12:05:10Z</time>
      </trkpt>
      <trkpt lat="45.92792" lon="4.73754">
        <ele>173</ele>
        <time>2018-10-31T12:05:12Z</time>
      </trkpt>
      <trkpt lat="45.92789" lon="4.7375">
        <ele>173</ele>
        <time>2018-10-31T12:05:13Z</time>
      </trkpt>
      <trkpt lat="45.92784" lon="4.73743">
        <ele>172</ele>
        <time>2018-10-31T12:05:15Z</time>
      </trkpt>
      <trkpt lat="45.92781" lon="4.73738">
        <ele>172</ele>
        <time>2018-10-31T12:05:16Z</time>
      </trkpt>
      <trkpt lat="45.92778" lon="4.73733">
        <ele>172</ele>
        <time>2018-10-31T12:05:17Z</time>
      </trkpt>
      <trkpt lat="45.92773" lon="4.73731">
        <ele>172</ele>
        <time>2018-10-31T12:05:18Z</time>
      </trkpt>
      <trkpt lat="45.92768" lon="4.73728">
        <ele>172</ele>
        <time>2018-10-31T12:05:19Z</time>
      </trkpt>
      <trkpt lat="45.92764" lon="4.73724">
        <ele>172</ele>
        <time>2018-10-31T12:05:20Z</time>
      </trkpt>
      <trkpt lat="45.92759" lon="4.73722">
        <ele>172</ele>
        <time>2018-10-31T12:05:21Z</time>
      </trkpt>
      <trkpt lat="45.92753" lon="4.73721">
        <ele>172</ele>
        <time>2018-10-31T12:05:22Z</time>
      </trkpt>
      <trkpt lat="45.92747" lon="4.7372">
        <ele>173</ele>
        <time>2018-10-31T12:05:23Z</time>
      </trkpt>
      <trkpt lat="45.92742" lon="4.73719">
        <ele>173</ele>
        <time>2018-10-31T12:05:24Z</time>
      </trkpt>
      <trkpt lat="45.92735" lon="4.73719">
        <ele>173</ele>
        <time>2018-10-31T12:05:25Z</time>
      </trkpt>
      <trkpt lat="45.9273" lon="4.73717">
        <ele>173</ele>
        <time>2018-10-31T12:05:26Z</time>
      </trkpt>
      <trkpt lat="45.92726" lon="4.73716">
        <ele>173</ele>
        <time>2018-10-31T12:05:27Z</time>
      </trkpt>
      <trkpt lat="45.92721" lon="4.73715">
        <ele>173</ele>
        <time>2018-10-31T12:05:28Z</time>
      </trkpt>
      <trkpt lat="45.92716" lon="4.73714">
        <ele>173</ele>
        <time>2018-10-31T12:05:29Z</time>
      </trkpt>
      <trkpt lat="45.92711" lon="4.73714">
        <ele>173</ele>
        <time>2018-10-31T12:05:30Z</time>
      </trkpt>
      <trkpt lat="45.92703" lon="4.73715">
        <ele>173</ele>
        <time>2018-10-31T12:05:32Z</time>
      </trkpt>
      <trkpt lat="45.92699" lon="4.73713">
        <ele>173</ele>
        <time>2018-10-31T12:05:33Z</time>
      </trkpt>
      <trkpt lat="45.92694" lon="4.73713">
        <ele>173</ele>
        <time>2018-10-31T12:05:34Z</time>
      </trkpt>
      <trkpt lat="45.9269" lon="4.73712">
        <ele>173</ele>
        <time>2018-10-31T12:05:35Z</time>
      </trkpt>
      <trkpt lat="45.92685" lon="4.7371">
        <ele>173</ele>
        <time>2018-10-31T12:05:36Z</time>
      </trkpt>
      <trkpt lat="45.9268" lon="4.73708">
        <ele>173</ele>
        <time>2018-10-31T12:05:37Z</time>
      </trkpt>
      <trkpt lat="45.92675" lon="4.73705">
        <ele>174</ele>
        <time>2018-10-31T12:05:38Z</time>
      </trkpt>
      <trkpt lat="45.92671" lon="4.73703">
        <ele>174</ele>
        <time>2018-10-31T12:05:39Z</time>
      </trkpt>
      <trkpt lat="45.92666" lon="4.737">
        <ele>173</ele>
        <time>2018-10-31T12:05:40Z</time>
      </trkpt>
      <trkpt lat="45.92661" lon="4.73696">
        <ele>173</ele>
        <time>2018-10-31T12:05:41Z</time>
      </trkpt>
      <trkpt lat="45.92657" lon="4.73692">
        <ele>173</ele>
        <time>2018-10-31T12:05:42Z</time>
      </trkpt>
      <trkpt lat="45.92652" lon="4.73688">
        <ele>173</ele>
        <time>2018-10-31T12:05:43Z</time>
      </trkpt>
      <trkpt lat="45.92649" lon="4.73683">
        <ele>173</ele>
        <time>2018-10-31T12:05:44Z</time>
      </trkpt>
      <trkpt lat="45.92645" lon="4.73677">
        <ele>173</ele>
        <time>2018-10-31T12:05:45Z</time>
      </trkpt>
      <trkpt lat="45.92642" lon="4.73671">
        <ele>173</ele>
        <time>2018-10-31T12:05:46Z</time>
      </trkpt>
      <trkpt lat="45.92638" lon="4.73666">
        <ele>173</ele>
        <time>2018-10-31T12:05:47Z</time>
      </trkpt>
      <trkpt lat="45.92636" lon="4.7366">
        <ele>173</ele>
        <time>2018-10-31T12:05:48Z</time>
      </trkpt>
      <trkpt lat="45.92632" lon="4.73654">
        <ele>173</ele>
        <time>2018-10-31T12:05:49Z</time>
      </trkpt>
      <trkpt lat="45.92629" lon="4.73647">
        <ele>173</ele>
        <time>2018-10-31T12:05:50Z</time>
      </trkpt>
      <trkpt lat="45.92626" lon="4.73641">
        <ele>173</ele>
        <time>2018-10-31T12:05:51Z</time>
      </trkpt>
      <trkpt lat="45.92622" lon="4.73634">
        <ele>173</ele>
        <time>2018-10-31T12:05:52Z</time>
      </trkpt>
      <trkpt lat="45.92618" lon="4.73629">
        <ele>173</ele>
        <time>2018-10-31T12:05:53Z</time>
      </trkpt>
      <trkpt lat="45.92614" lon="4.73625">
        <ele>173</ele>
        <time>2018-10-31T12:05:54Z</time>
      </trkpt>
      <trkpt lat="45.92608" lon="4.73623">
        <ele>173</ele>
        <time>2018-10-31T12:05:55Z</time>
      </trkpt>
      <trkpt lat="45.92603" lon="4.73622">
        <ele>173</ele>
        <time>2018-10-31T12:05:56Z</time>
      </trkpt>
      <trkpt lat="45.92599" lon="4.73621">
        <ele>173</ele>
        <time>2018-10-31T12:05:57Z</time>
      </trkpt>
      <trkpt lat="45.92591" lon="4.73622">
        <ele>173</ele>
        <time>2018-10-31T12:05:59Z</time>
      </trkpt>
      <trkpt lat="45.92587" lon="4.73623">
        <ele>173</ele>
        <time>2018-10-31T12:06:00Z</time>
      </trkpt>
      <trkpt lat="45.92578" lon="4.73626">
        <ele>173</ele>
        <time>2018-10-31T12:06:02Z</time>
      </trkpt>
      <trkpt lat="45.92573" lon="4.73626">
        <ele>173</ele>
        <time>2018-10-31T12:06:03Z</time>
      </trkpt>
      <trkpt lat="45.92569" lon="4.73628">
        <ele>173</ele>
        <time>2018-10-31T12:06:04Z</time>
      </trkpt>
      <trkpt lat="45.92562" lon="4.73629">
        <ele>173</ele>
        <time>2018-10-31T12:06:05Z</time>
      </trkpt>
      <trkpt lat="45.92556" lon="4.7363">
        <ele>173</ele>
        <time>2018-10-31T12:06:06Z</time>
      </trkpt>
      <trkpt lat="45.92552" lon="4.73631">
        <ele>173</ele>
        <time>2018-10-31T12:06:07Z</time>
      </trkpt>
      <trkpt lat="45.92546" lon="4.73633">
        <ele>173</ele>
        <time>2018-10-31T12:06:08Z</time>
      </trkpt>
      <trkpt lat="45.92541" lon="4.73635">
        <ele>173</ele>
        <time>2018-10-31T12:06:09Z</time>
      </trkpt>
      <trkpt lat="45.92535" lon="4.73635">
        <ele>173</ele>
        <time>2018-10-31T12:06:10Z</time>
      </trkpt>
      <trkpt lat="45.9253" lon="4.73635">
        <ele>173</ele>
        <time>2018-10-31T12:06:11Z</time>
      </trkpt>
      <trkpt lat="45.92526" lon="4.73637">
        <ele>173</ele>
        <time>2018-10-31T12:06:12Z</time>
      </trkpt>
      <trkpt lat="45.92521" lon="4.73638">
        <ele>173</ele>
        <time>2018-10-31T12:06:13Z</time>
      </trkpt>
      <trkpt lat="45.92513" lon="4.73639">
        <ele>174</ele>
        <time>2018-10-31T12:06:15Z</time>
      </trkpt>
      <trkpt lat="45.92509" lon="4.73638">
        <ele>174</ele>
        <time>2018-10-31T12:06:16Z</time>
      </trkpt>
      <trkpt lat="45.92502" lon="4.73636">
        <ele>174</ele>
        <time>2018-10-31T12:06:19Z</time>
      </trkpt>
      <trkpt lat="45.92498" lon="4.73636">
        <ele>174</ele>
        <time>2018-10-31T12:06:20Z</time>
      </trkpt>
      <trkpt lat="45.9249" lon="4.73637">
        <ele>174</ele>
        <time>2018-10-31T12:06:22Z</time>
      </trkpt>
      <trkpt lat="45.92487" lon="4.73638">
        <ele>174</ele>
        <time>2018-10-31T12:06:23Z</time>
      </trkpt>
      <trkpt lat="45.92478" lon="4.73639">
        <ele>174</ele>
        <time>2018-10-31T12:06:26Z</time>
      </trkpt>
      <trkpt lat="45.92474" lon="4.7364">
        <ele>174</ele>
        <time>2018-10-31T12:06:27Z</time>
      </trkpt>
      <trkpt lat="45.92471" lon="4.73642">
        <ele>174</ele>
        <time>2018-10-31T12:06:28Z</time>
      </trkpt>
      <trkpt lat="45.92466" lon="4.73649">
        <ele>174</ele>
        <time>2018-10-31T12:06:29Z</time>
      </trkpt>
      <trkpt lat="45.92465" lon="4.73661">
        <ele>174</ele>
        <time>2018-10-31T12:06:31Z</time>
      </trkpt>
      <trkpt lat="45.92465" lon="4.73667">
        <ele>174</ele>
        <time>2018-10-31T12:06:32Z</time>
      </trkpt>
      <trkpt lat="45.92464" lon="4.73679">
        <ele>174</ele>
        <time>2018-10-31T12:06:34Z</time>
      </trkpt>
      <trkpt lat="45.92464" lon="4.73685">
        <ele>174</ele>
        <time>2018-10-31T12:06:35Z</time>
      </trkpt>
      <trkpt lat="45.92463" lon="4.73695">
        <ele>174</ele>
        <time>2018-10-31T12:06:37Z</time>
      </trkpt>
      <trkpt lat="45.92462" lon="4.73698">
        <ele>174</ele>
        <time>2018-10-31T12:06:38Z</time>
      </trkpt>
      <trkpt lat="45.92461" lon="4.7371">
        <ele>174</ele>
        <time>2018-10-31T12:06:49Z</time>
      </trkpt>
      <trkpt lat="45.9246" lon="4.73711">
        <ele>174</ele>
        <time>2018-10-31T12:06:50Z</time>
      </trkpt>
      <trkpt lat="45.92457" lon="4.7371">
        <ele>174</ele>
        <time>2018-10-31T12:07:16.691Z</time>
      </trkpt>
    </trkseg>
  </trk>
</gpx>